<?xml version="1.0" encoding="UTF-8" standalone="no" ?>
<gpx xmlns="http://www.topografix.com/GPX/1/1" xmlns:xsi="http://www.w3.org/2001/XMLSchema-instance" xsi:schemaLocation="http://www.topografix.com/GPX/1/1 http://www.topografix.com/GPX/1/1/gpx.xsd" version="1.1" creator="VisuGPX - https://www.visugpx.com">
  <metadata>
    <name>2018-05-25 Bike ride-Amberieux en Dombes O via Toussieux 41k</name>
    <desc><![CDATA[2018-05-25 Bike ride-Amberieux en Dombes O via Toussieux 41k]]></desc>
  </metadata>
  <wpt lat="45.92459" lon="4.73729">
    <ele>174</ele>
    <name><![CDATA[2018-05-25 10:05 (Start)]]></name>
  </wpt>
  <wpt lat="45.92457" lon="4.73713">
    <ele>174</ele>
    <name><![CDATA[2018-05-25 10:05 (End)]]></name>
  </wpt>
  <trk>
    <name><![CDATA[2018-05-25 10:05]]></name>
    <trkseg>
      <trkpt lat="45.92459" lon="4.73729">
        <ele>174</ele>
        <time>2018-05-25T08:05:19.222Z</time>
      </trkpt>
      <trkpt lat="45.92461" lon="4.73726">
        <ele>174</ele>
        <time>2018-05-25T08:05:21.726Z</time>
      </trkpt>
      <trkpt lat="45.92462" lon="4.73723">
        <ele>174</ele>
        <time>2018-05-25T08:05:22.726Z</time>
      </trkpt>
      <trkpt lat="45.92461" lon="4.73719">
        <ele>174</ele>
        <time>2018-05-25T08:05:25.735Z</time>
      </trkpt>
      <trkpt lat="45.92462" lon="4.73717">
        <ele>174</ele>
        <time>2018-05-25T08:05:26Z</time>
      </trkpt>
      <trkpt lat="45.9246" lon="4.73711">
        <ele>174</ele>
        <time>2018-05-25T08:05:37Z</time>
      </trkpt>
      <trkpt lat="45.9246" lon="4.73711">
        <ele>174</ele>
        <time>2018-05-25T08:05:38Z</time>
      </trkpt>
      <trkpt lat="45.92464" lon="4.73701">
        <ele>174</ele>
        <time>2018-05-25T08:05:45Z</time>
      </trkpt>
      <trkpt lat="45.92464" lon="4.73698">
        <ele>174</ele>
        <time>2018-05-25T08:05:46Z</time>
      </trkpt>
      <trkpt lat="45.92466" lon="4.73688">
        <ele>174</ele>
        <time>2018-05-25T08:05:49Z</time>
      </trkpt>
      <trkpt lat="45.92466" lon="4.73685">
        <ele>174</ele>
        <time>2018-05-25T08:05:50Z</time>
      </trkpt>
      <trkpt lat="45.92468" lon="4.73672">
        <ele>174</ele>
        <time>2018-05-25T08:05:53Z</time>
      </trkpt>
      <trkpt lat="45.92469" lon="4.73667">
        <ele>174</ele>
        <time>2018-05-25T08:05:54Z</time>
      </trkpt>
      <trkpt lat="45.9247" lon="4.73662">
        <ele>174</ele>
        <time>2018-05-25T08:05:55Z</time>
      </trkpt>
      <trkpt lat="45.92471" lon="4.73647">
        <ele>174</ele>
        <time>2018-05-25T08:05:56Z</time>
      </trkpt>
      <trkpt lat="45.92471" lon="4.73636">
        <ele>174</ele>
        <time>2018-05-25T08:05:58Z</time>
      </trkpt>
      <trkpt lat="45.92471" lon="4.7363">
        <ele>174</ele>
        <time>2018-05-25T08:05:59Z</time>
      </trkpt>
      <trkpt lat="45.9247" lon="4.73618">
        <ele>174</ele>
        <time>2018-05-25T08:06:01Z</time>
      </trkpt>
      <trkpt lat="45.9247" lon="4.73612">
        <ele>174</ele>
        <time>2018-05-25T08:06:02Z</time>
      </trkpt>
      <trkpt lat="45.9247" lon="4.73606">
        <ele>174</ele>
        <time>2018-05-25T08:06:03Z</time>
      </trkpt>
      <trkpt lat="45.9247" lon="4.73599">
        <ele>174</ele>
        <time>2018-05-25T08:06:04Z</time>
      </trkpt>
      <trkpt lat="45.92469" lon="4.73587">
        <ele>174</ele>
        <time>2018-05-25T08:06:06Z</time>
      </trkpt>
      <trkpt lat="45.92468" lon="4.73581">
        <ele>173</ele>
        <time>2018-05-25T08:06:07Z</time>
      </trkpt>
      <trkpt lat="45.92468" lon="4.73571">
        <ele>173</ele>
        <time>2018-05-25T08:06:09Z</time>
      </trkpt>
      <trkpt lat="45.92468" lon="4.73565">
        <ele>173</ele>
        <time>2018-05-25T08:06:10Z</time>
      </trkpt>
      <trkpt lat="45.92469" lon="4.73553">
        <ele>173</ele>
        <time>2018-05-25T08:06:14Z</time>
      </trkpt>
      <trkpt lat="45.92469" lon="4.7355">
        <ele>173</ele>
        <time>2018-05-25T08:06:15Z</time>
      </trkpt>
      <trkpt lat="45.92469" lon="4.73546">
        <ele>173</ele>
        <time>2018-05-25T08:06:16Z</time>
      </trkpt>
      <trkpt lat="45.92469" lon="4.73534">
        <ele>174</ele>
        <time>2018-05-25T08:06:17Z</time>
      </trkpt>
      <trkpt lat="45.92468" lon="4.73522">
        <ele>174</ele>
        <time>2018-05-25T08:06:19Z</time>
      </trkpt>
      <trkpt lat="45.92468" lon="4.73517">
        <ele>174</ele>
        <time>2018-05-25T08:06:20Z</time>
      </trkpt>
      <trkpt lat="45.92468" lon="4.73511">
        <ele>174</ele>
        <time>2018-05-25T08:06:21Z</time>
      </trkpt>
      <trkpt lat="45.92468" lon="4.73504">
        <ele>174</ele>
        <time>2018-05-25T08:06:22Z</time>
      </trkpt>
      <trkpt lat="45.92469" lon="4.73496">
        <ele>173</ele>
        <time>2018-05-25T08:06:23Z</time>
      </trkpt>
      <trkpt lat="45.92469" lon="4.7349">
        <ele>173</ele>
        <time>2018-05-25T08:06:24Z</time>
      </trkpt>
      <trkpt lat="45.92469" lon="4.73483">
        <ele>173</ele>
        <time>2018-05-25T08:06:25Z</time>
      </trkpt>
      <trkpt lat="45.92469" lon="4.73476">
        <ele>173</ele>
        <time>2018-05-25T08:06:26Z</time>
      </trkpt>
      <trkpt lat="45.92469" lon="4.73467">
        <ele>173</ele>
        <time>2018-05-25T08:06:27Z</time>
      </trkpt>
      <trkpt lat="45.92468" lon="4.73459">
        <ele>173</ele>
        <time>2018-05-25T08:06:28Z</time>
      </trkpt>
      <trkpt lat="45.92466" lon="4.73451">
        <ele>173</ele>
        <time>2018-05-25T08:06:29Z</time>
      </trkpt>
      <trkpt lat="45.92464" lon="4.73441">
        <ele>173</ele>
        <time>2018-05-25T08:06:30Z</time>
      </trkpt>
      <trkpt lat="45.92461" lon="4.73435">
        <ele>173</ele>
        <time>2018-05-25T08:06:31Z</time>
      </trkpt>
      <trkpt lat="45.92458" lon="4.7343">
        <ele>173</ele>
        <time>2018-05-25T08:06:32Z</time>
      </trkpt>
      <trkpt lat="45.92454" lon="4.73426">
        <ele>173</ele>
        <time>2018-05-25T08:06:33Z</time>
      </trkpt>
      <trkpt lat="45.92449" lon="4.73424">
        <ele>173</ele>
        <time>2018-05-25T08:06:34Z</time>
      </trkpt>
      <trkpt lat="45.92444" lon="4.73422">
        <ele>173</ele>
        <time>2018-05-25T08:06:35Z</time>
      </trkpt>
      <trkpt lat="45.92439" lon="4.73419">
        <ele>173</ele>
        <time>2018-05-25T08:06:36Z</time>
      </trkpt>
      <trkpt lat="45.92434" lon="4.73414">
        <ele>172</ele>
        <time>2018-05-25T08:06:37Z</time>
      </trkpt>
      <trkpt lat="45.9243" lon="4.7341">
        <ele>172</ele>
        <time>2018-05-25T08:06:38Z</time>
      </trkpt>
      <trkpt lat="45.92427" lon="4.73405">
        <ele>172</ele>
        <time>2018-05-25T08:06:39Z</time>
      </trkpt>
      <trkpt lat="45.92426" lon="4.73397">
        <ele>172</ele>
        <time>2018-05-25T08:06:40Z</time>
      </trkpt>
      <trkpt lat="45.92424" lon="4.7339">
        <ele>172</ele>
        <time>2018-05-25T08:06:41Z</time>
      </trkpt>
      <trkpt lat="45.92422" lon="4.73382">
        <ele>172</ele>
        <time>2018-05-25T08:06:42Z</time>
      </trkpt>
      <trkpt lat="45.92421" lon="4.73375">
        <ele>172</ele>
        <time>2018-05-25T08:06:43Z</time>
      </trkpt>
      <trkpt lat="45.92422" lon="4.73369">
        <ele>172</ele>
        <time>2018-05-25T08:06:44Z</time>
      </trkpt>
      <trkpt lat="45.92421" lon="4.73362">
        <ele>172</ele>
        <time>2018-05-25T08:06:45Z</time>
      </trkpt>
      <trkpt lat="45.9242" lon="4.73354">
        <ele>171</ele>
        <time>2018-05-25T08:06:46Z</time>
      </trkpt>
      <trkpt lat="45.92419" lon="4.73348">
        <ele>171</ele>
        <time>2018-05-25T08:06:47Z</time>
      </trkpt>
      <trkpt lat="45.92418" lon="4.7334">
        <ele>171</ele>
        <time>2018-05-25T08:06:48Z</time>
      </trkpt>
      <trkpt lat="45.92417" lon="4.73332">
        <ele>171</ele>
        <time>2018-05-25T08:06:49Z</time>
      </trkpt>
      <trkpt lat="45.92416" lon="4.73323">
        <ele>171</ele>
        <time>2018-05-25T08:06:50Z</time>
      </trkpt>
      <trkpt lat="45.92415" lon="4.73316">
        <ele>171</ele>
        <time>2018-05-25T08:06:51Z</time>
      </trkpt>
      <trkpt lat="45.92414" lon="4.73308">
        <ele>171</ele>
        <time>2018-05-25T08:06:52Z</time>
      </trkpt>
      <trkpt lat="45.92412" lon="4.733">
        <ele>171</ele>
        <time>2018-05-25T08:06:53Z</time>
      </trkpt>
      <trkpt lat="45.92412" lon="4.73293">
        <ele>171</ele>
        <time>2018-05-25T08:06:54Z</time>
      </trkpt>
      <trkpt lat="45.92413" lon="4.73281">
        <ele>171</ele>
        <time>2018-05-25T08:06:56Z</time>
      </trkpt>
      <trkpt lat="45.92413" lon="4.73276">
        <ele>171</ele>
        <time>2018-05-25T08:06:57Z</time>
      </trkpt>
      <trkpt lat="45.92412" lon="4.73266">
        <ele>171</ele>
        <time>2018-05-25T08:06:58Z</time>
      </trkpt>
      <trkpt lat="45.92411" lon="4.73258">
        <ele>171</ele>
        <time>2018-05-25T08:06:59Z</time>
      </trkpt>
      <trkpt lat="45.92411" lon="4.7325">
        <ele>171</ele>
        <time>2018-05-25T08:07:00Z</time>
      </trkpt>
      <trkpt lat="45.9241" lon="4.7324">
        <ele>171</ele>
        <time>2018-05-25T08:07:01Z</time>
      </trkpt>
      <trkpt lat="45.9241" lon="4.73232">
        <ele>171</ele>
        <time>2018-05-25T08:07:02Z</time>
      </trkpt>
      <trkpt lat="45.92408" lon="4.73222">
        <ele>171</ele>
        <time>2018-05-25T08:07:03Z</time>
      </trkpt>
      <trkpt lat="45.92409" lon="4.73212">
        <ele>171</ele>
        <time>2018-05-25T08:07:04Z</time>
      </trkpt>
      <trkpt lat="45.92408" lon="4.73203">
        <ele>171</ele>
        <time>2018-05-25T08:07:05Z</time>
      </trkpt>
      <trkpt lat="45.92408" lon="4.73195">
        <ele>171</ele>
        <time>2018-05-25T08:07:06Z</time>
      </trkpt>
      <trkpt lat="45.92407" lon="4.73188">
        <ele>171</ele>
        <time>2018-05-25T08:07:07Z</time>
      </trkpt>
      <trkpt lat="45.92407" lon="4.73179">
        <ele>171</ele>
        <time>2018-05-25T08:07:08Z</time>
      </trkpt>
      <trkpt lat="45.92407" lon="4.7317">
        <ele>170</ele>
        <time>2018-05-25T08:07:09Z</time>
      </trkpt>
      <trkpt lat="45.92407" lon="4.73161">
        <ele>170</ele>
        <time>2018-05-25T08:07:10Z</time>
      </trkpt>
      <trkpt lat="45.92408" lon="4.73153">
        <ele>171</ele>
        <time>2018-05-25T08:07:11Z</time>
      </trkpt>
      <trkpt lat="45.92407" lon="4.73145">
        <ele>171</ele>
        <time>2018-05-25T08:07:12Z</time>
      </trkpt>
      <trkpt lat="45.92407" lon="4.73138">
        <ele>171</ele>
        <time>2018-05-25T08:07:13Z</time>
      </trkpt>
      <trkpt lat="45.92409" lon="4.73131">
        <ele>171</ele>
        <time>2018-05-25T08:07:14Z</time>
      </trkpt>
      <trkpt lat="45.9241" lon="4.73125">
        <ele>171</ele>
        <time>2018-05-25T08:07:15Z</time>
      </trkpt>
      <trkpt lat="45.92413" lon="4.73119">
        <ele>171</ele>
        <time>2018-05-25T08:07:16Z</time>
      </trkpt>
      <trkpt lat="45.92418" lon="4.73115">
        <ele>170</ele>
        <time>2018-05-25T08:07:17Z</time>
      </trkpt>
      <trkpt lat="45.92421" lon="4.73111">
        <ele>170</ele>
        <time>2018-05-25T08:07:18Z</time>
      </trkpt>
      <trkpt lat="45.92425" lon="4.73108">
        <ele>170</ele>
        <time>2018-05-25T08:07:19Z</time>
      </trkpt>
      <trkpt lat="45.9243" lon="4.73104">
        <ele>171</ele>
        <time>2018-05-25T08:07:20Z</time>
      </trkpt>
      <trkpt lat="45.92434" lon="4.731">
        <ele>171</ele>
        <time>2018-05-25T08:07:21Z</time>
      </trkpt>
      <trkpt lat="45.92439" lon="4.73096">
        <ele>170</ele>
        <time>2018-05-25T08:07:22Z</time>
      </trkpt>
      <trkpt lat="45.92443" lon="4.73092">
        <ele>170</ele>
        <time>2018-05-25T08:07:23Z</time>
      </trkpt>
      <trkpt lat="45.92447" lon="4.73087">
        <ele>170</ele>
        <time>2018-05-25T08:07:24Z</time>
      </trkpt>
      <trkpt lat="45.92453" lon="4.73083">
        <ele>170</ele>
        <time>2018-05-25T08:07:25Z</time>
      </trkpt>
      <trkpt lat="45.92457" lon="4.73078">
        <ele>170</ele>
        <time>2018-05-25T08:07:26Z</time>
      </trkpt>
      <trkpt lat="45.92462" lon="4.73074">
        <ele>170</ele>
        <time>2018-05-25T08:07:27Z</time>
      </trkpt>
      <trkpt lat="45.92468" lon="4.73069">
        <ele>170</ele>
        <time>2018-05-25T08:07:28Z</time>
      </trkpt>
      <trkpt lat="45.92473" lon="4.73065">
        <ele>170</ele>
        <time>2018-05-25T08:07:29Z</time>
      </trkpt>
      <trkpt lat="45.92478" lon="4.7306">
        <ele>170</ele>
        <time>2018-05-25T08:07:30Z</time>
      </trkpt>
      <trkpt lat="45.92484" lon="4.73055">
        <ele>170</ele>
        <time>2018-05-25T08:07:31Z</time>
      </trkpt>
      <trkpt lat="45.9249" lon="4.73052">
        <ele>170</ele>
        <time>2018-05-25T08:07:32Z</time>
      </trkpt>
      <trkpt lat="45.92495" lon="4.73048">
        <ele>170</ele>
        <time>2018-05-25T08:07:33Z</time>
      </trkpt>
      <trkpt lat="45.92499" lon="4.73044">
        <ele>170</ele>
        <time>2018-05-25T08:07:34Z</time>
      </trkpt>
      <trkpt lat="45.92504" lon="4.73041">
        <ele>169</ele>
        <time>2018-05-25T08:07:35Z</time>
      </trkpt>
      <trkpt lat="45.9251" lon="4.73037">
        <ele>169</ele>
        <time>2018-05-25T08:07:36Z</time>
      </trkpt>
      <trkpt lat="45.92515" lon="4.73033">
        <ele>169</ele>
        <time>2018-05-25T08:07:37Z</time>
      </trkpt>
      <trkpt lat="45.92519" lon="4.73028">
        <ele>169</ele>
        <time>2018-05-25T08:07:38Z</time>
      </trkpt>
      <trkpt lat="45.92524" lon="4.73024">
        <ele>169</ele>
        <time>2018-05-25T08:07:39Z</time>
      </trkpt>
      <trkpt lat="45.92528" lon="4.7302">
        <ele>169</ele>
        <time>2018-05-25T08:07:40Z</time>
      </trkpt>
      <trkpt lat="45.92532" lon="4.73017">
        <ele>169</ele>
        <time>2018-05-25T08:07:41Z</time>
      </trkpt>
      <trkpt lat="45.92539" lon="4.73011">
        <ele>169</ele>
        <time>2018-05-25T08:07:43Z</time>
      </trkpt>
      <trkpt lat="45.92541" lon="4.73007">
        <ele>169</ele>
        <time>2018-05-25T08:07:44Z</time>
      </trkpt>
      <trkpt lat="45.92548" lon="4.73">
        <ele>169</ele>
        <time>2018-05-25T08:07:46Z</time>
      </trkpt>
      <trkpt lat="45.92553" lon="4.72996">
        <ele>169</ele>
        <time>2018-05-25T08:07:47Z</time>
      </trkpt>
      <trkpt lat="45.92557" lon="4.72992">
        <ele>169</ele>
        <time>2018-05-25T08:07:48Z</time>
      </trkpt>
      <trkpt lat="45.92561" lon="4.72987">
        <ele>169</ele>
        <time>2018-05-25T08:07:49Z</time>
      </trkpt>
      <trkpt lat="45.92564" lon="4.7298">
        <ele>169</ele>
        <time>2018-05-25T08:07:50Z</time>
      </trkpt>
      <trkpt lat="45.92569" lon="4.72975">
        <ele>169</ele>
        <time>2018-05-25T08:07:51Z</time>
      </trkpt>
      <trkpt lat="45.92574" lon="4.7297">
        <ele>169</ele>
        <time>2018-05-25T08:07:52Z</time>
      </trkpt>
      <trkpt lat="45.92579" lon="4.72964">
        <ele>169</ele>
        <time>2018-05-25T08:07:53Z</time>
      </trkpt>
      <trkpt lat="45.92584" lon="4.72959">
        <ele>169</ele>
        <time>2018-05-25T08:07:54Z</time>
      </trkpt>
      <trkpt lat="45.92589" lon="4.72953">
        <ele>169</ele>
        <time>2018-05-25T08:07:55Z</time>
      </trkpt>
      <trkpt lat="45.92594" lon="4.72947">
        <ele>169</ele>
        <time>2018-05-25T08:07:56Z</time>
      </trkpt>
      <trkpt lat="45.926" lon="4.72942">
        <ele>169</ele>
        <time>2018-05-25T08:07:57Z</time>
      </trkpt>
      <trkpt lat="45.92606" lon="4.72936">
        <ele>169</ele>
        <time>2018-05-25T08:07:58Z</time>
      </trkpt>
      <trkpt lat="45.9261" lon="4.72931">
        <ele>169</ele>
        <time>2018-05-25T08:07:59Z</time>
      </trkpt>
      <trkpt lat="45.92616" lon="4.72927">
        <ele>169</ele>
        <time>2018-05-25T08:08:00Z</time>
      </trkpt>
      <trkpt lat="45.92621" lon="4.72923">
        <ele>169</ele>
        <time>2018-05-25T08:08:01Z</time>
      </trkpt>
      <trkpt lat="45.92626" lon="4.72918">
        <ele>170</ele>
        <time>2018-05-25T08:08:02Z</time>
      </trkpt>
      <trkpt lat="45.92632" lon="4.72913">
        <ele>169</ele>
        <time>2018-05-25T08:08:03Z</time>
      </trkpt>
      <trkpt lat="45.92636" lon="4.72909">
        <ele>169</ele>
        <time>2018-05-25T08:08:04Z</time>
      </trkpt>
      <trkpt lat="45.92641" lon="4.72905">
        <ele>169</ele>
        <time>2018-05-25T08:08:05Z</time>
      </trkpt>
      <trkpt lat="45.92647" lon="4.72901">
        <ele>169</ele>
        <time>2018-05-25T08:08:06Z</time>
      </trkpt>
      <trkpt lat="45.92652" lon="4.72898">
        <ele>170</ele>
        <time>2018-05-25T08:08:07Z</time>
      </trkpt>
      <trkpt lat="45.92655" lon="4.72893">
        <ele>169</ele>
        <time>2018-05-25T08:08:08Z</time>
      </trkpt>
      <trkpt lat="45.9266" lon="4.72889">
        <ele>169</ele>
        <time>2018-05-25T08:08:09Z</time>
      </trkpt>
      <trkpt lat="45.92665" lon="4.72884">
        <ele>169</ele>
        <time>2018-05-25T08:08:10Z</time>
      </trkpt>
      <trkpt lat="45.92671" lon="4.72881">
        <ele>170</ele>
        <time>2018-05-25T08:08:11Z</time>
      </trkpt>
      <trkpt lat="45.92677" lon="4.72877">
        <ele>170</ele>
        <time>2018-05-25T08:08:12Z</time>
      </trkpt>
      <trkpt lat="45.92682" lon="4.72872">
        <ele>169</ele>
        <time>2018-05-25T08:08:13Z</time>
      </trkpt>
      <trkpt lat="45.92687" lon="4.72866">
        <ele>169</ele>
        <time>2018-05-25T08:08:14Z</time>
      </trkpt>
      <trkpt lat="45.92693" lon="4.72862">
        <ele>169</ele>
        <time>2018-05-25T08:08:15Z</time>
      </trkpt>
      <trkpt lat="45.92699" lon="4.72859">
        <ele>169</ele>
        <time>2018-05-25T08:08:16Z</time>
      </trkpt>
      <trkpt lat="45.92704" lon="4.72856">
        <ele>169</ele>
        <time>2018-05-25T08:08:17Z</time>
      </trkpt>
      <trkpt lat="45.92707" lon="4.72853">
        <ele>169</ele>
        <time>2018-05-25T08:08:18Z</time>
      </trkpt>
      <trkpt lat="45.92714" lon="4.72845">
        <ele>169</ele>
        <time>2018-05-25T08:08:19Z</time>
      </trkpt>
      <trkpt lat="45.92719" lon="4.72841">
        <ele>169</ele>
        <time>2018-05-25T08:08:20Z</time>
      </trkpt>
      <trkpt lat="45.92723" lon="4.72837">
        <ele>169</ele>
        <time>2018-05-25T08:08:21Z</time>
      </trkpt>
      <trkpt lat="45.92728" lon="4.72834">
        <ele>169</ele>
        <time>2018-05-25T08:08:22Z</time>
      </trkpt>
      <trkpt lat="45.92734" lon="4.72829">
        <ele>169</ele>
        <time>2018-05-25T08:08:23Z</time>
      </trkpt>
      <trkpt lat="45.92738" lon="4.72826">
        <ele>169</ele>
        <time>2018-05-25T08:08:24Z</time>
      </trkpt>
      <trkpt lat="45.92743" lon="4.72821">
        <ele>169</ele>
        <time>2018-05-25T08:08:25Z</time>
      </trkpt>
      <trkpt lat="45.92748" lon="4.72818">
        <ele>169</ele>
        <time>2018-05-25T08:08:26Z</time>
      </trkpt>
      <trkpt lat="45.92753" lon="4.72814">
        <ele>170</ele>
        <time>2018-05-25T08:08:27Z</time>
      </trkpt>
      <trkpt lat="45.92759" lon="4.72811">
        <ele>170</ele>
        <time>2018-05-25T08:08:28Z</time>
      </trkpt>
      <trkpt lat="45.92763" lon="4.72807">
        <ele>170</ele>
        <time>2018-05-25T08:08:29Z</time>
      </trkpt>
      <trkpt lat="45.92767" lon="4.72804">
        <ele>170</ele>
        <time>2018-05-25T08:08:30Z</time>
      </trkpt>
      <trkpt lat="45.92773" lon="4.72801">
        <ele>170</ele>
        <time>2018-05-25T08:08:31Z</time>
      </trkpt>
      <trkpt lat="45.92777" lon="4.72799">
        <ele>170</ele>
        <time>2018-05-25T08:08:32Z</time>
      </trkpt>
      <trkpt lat="45.92782" lon="4.72797">
        <ele>170</ele>
        <time>2018-05-25T08:08:33Z</time>
      </trkpt>
      <trkpt lat="45.9279" lon="4.72794">
        <ele>170</ele>
        <time>2018-05-25T08:08:35Z</time>
      </trkpt>
      <trkpt lat="45.92797" lon="4.72789">
        <ele>171</ele>
        <time>2018-05-25T08:08:36Z</time>
      </trkpt>
      <trkpt lat="45.92802" lon="4.72798">
        <ele>171</ele>
        <time>2018-05-25T08:08:38Z</time>
      </trkpt>
      <trkpt lat="45.92803" lon="4.72805">
        <ele>171</ele>
        <time>2018-05-25T08:08:39Z</time>
      </trkpt>
      <trkpt lat="45.92806" lon="4.72816">
        <ele>171</ele>
        <time>2018-05-25T08:08:41Z</time>
      </trkpt>
      <trkpt lat="45.92806" lon="4.72824">
        <ele>171</ele>
        <time>2018-05-25T08:08:42Z</time>
      </trkpt>
      <trkpt lat="45.92808" lon="4.7283">
        <ele>171</ele>
        <time>2018-05-25T08:08:43Z</time>
      </trkpt>
      <trkpt lat="45.92809" lon="4.72838">
        <ele>170</ele>
        <time>2018-05-25T08:08:44Z</time>
      </trkpt>
      <trkpt lat="45.92811" lon="4.72845">
        <ele>170</ele>
        <time>2018-05-25T08:08:45Z</time>
      </trkpt>
      <trkpt lat="45.92812" lon="4.72853">
        <ele>170</ele>
        <time>2018-05-25T08:08:46Z</time>
      </trkpt>
      <trkpt lat="45.92814" lon="4.7286">
        <ele>170</ele>
        <time>2018-05-25T08:08:47Z</time>
      </trkpt>
      <trkpt lat="45.92816" lon="4.72865">
        <ele>170</ele>
        <time>2018-05-25T08:08:48Z</time>
      </trkpt>
      <trkpt lat="45.92817" lon="4.72873">
        <ele>170</ele>
        <time>2018-05-25T08:08:49Z</time>
      </trkpt>
      <trkpt lat="45.92819" lon="4.72881">
        <ele>170</ele>
        <time>2018-05-25T08:08:50Z</time>
      </trkpt>
      <trkpt lat="45.9282" lon="4.72889">
        <ele>170</ele>
        <time>2018-05-25T08:08:51Z</time>
      </trkpt>
      <trkpt lat="45.92821" lon="4.72897">
        <ele>170</ele>
        <time>2018-05-25T08:08:52Z</time>
      </trkpt>
      <trkpt lat="45.92821" lon="4.72905">
        <ele>170</ele>
        <time>2018-05-25T08:08:53Z</time>
      </trkpt>
      <trkpt lat="45.92822" lon="4.72913">
        <ele>170</ele>
        <time>2018-05-25T08:08:54Z</time>
      </trkpt>
      <trkpt lat="45.92823" lon="4.72921">
        <ele>170</ele>
        <time>2018-05-25T08:08:55Z</time>
      </trkpt>
      <trkpt lat="45.92823" lon="4.7293">
        <ele>170</ele>
        <time>2018-05-25T08:08:56Z</time>
      </trkpt>
      <trkpt lat="45.92823" lon="4.72939">
        <ele>170</ele>
        <time>2018-05-25T08:08:57Z</time>
      </trkpt>
      <trkpt lat="45.92824" lon="4.7295">
        <ele>170</ele>
        <time>2018-05-25T08:08:58Z</time>
      </trkpt>
      <trkpt lat="45.92825" lon="4.72958">
        <ele>170</ele>
        <time>2018-05-25T08:08:59Z</time>
      </trkpt>
      <trkpt lat="45.92827" lon="4.72968">
        <ele>170</ele>
        <time>2018-05-25T08:09:00Z</time>
      </trkpt>
      <trkpt lat="45.92829" lon="4.72976">
        <ele>170</ele>
        <time>2018-05-25T08:09:01Z</time>
      </trkpt>
      <trkpt lat="45.92829" lon="4.72984">
        <ele>170</ele>
        <time>2018-05-25T08:09:02Z</time>
      </trkpt>
      <trkpt lat="45.9283" lon="4.72991">
        <ele>170</ele>
        <time>2018-05-25T08:09:03Z</time>
      </trkpt>
      <trkpt lat="45.92832" lon="4.72997">
        <ele>170</ele>
        <time>2018-05-25T08:09:04Z</time>
      </trkpt>
      <trkpt lat="45.92832" lon="4.73005">
        <ele>170</ele>
        <time>2018-05-25T08:09:05Z</time>
      </trkpt>
      <trkpt lat="45.92833" lon="4.73013">
        <ele>170</ele>
        <time>2018-05-25T08:09:06Z</time>
      </trkpt>
      <trkpt lat="45.92835" lon="4.73022">
        <ele>171</ele>
        <time>2018-05-25T08:09:07Z</time>
      </trkpt>
      <trkpt lat="45.92837" lon="4.7303">
        <ele>171</ele>
        <time>2018-05-25T08:09:08Z</time>
      </trkpt>
      <trkpt lat="45.92838" lon="4.73038">
        <ele>171</ele>
        <time>2018-05-25T08:09:09Z</time>
      </trkpt>
      <trkpt lat="45.9284" lon="4.73046">
        <ele>171</ele>
        <time>2018-05-25T08:09:10Z</time>
      </trkpt>
      <trkpt lat="45.92841" lon="4.73054">
        <ele>171</ele>
        <time>2018-05-25T08:09:11Z</time>
      </trkpt>
      <trkpt lat="45.92842" lon="4.73061">
        <ele>171</ele>
        <time>2018-05-25T08:09:12Z</time>
      </trkpt>
      <trkpt lat="45.92843" lon="4.73068">
        <ele>171</ele>
        <time>2018-05-25T08:09:13Z</time>
      </trkpt>
      <trkpt lat="45.92843" lon="4.73075">
        <ele>171</ele>
        <time>2018-05-25T08:09:14Z</time>
      </trkpt>
      <trkpt lat="45.92846" lon="4.73084">
        <ele>171</ele>
        <time>2018-05-25T08:09:15Z</time>
      </trkpt>
      <trkpt lat="45.92846" lon="4.73091">
        <ele>171</ele>
        <time>2018-05-25T08:09:16Z</time>
      </trkpt>
      <trkpt lat="45.92849" lon="4.73098">
        <ele>171</ele>
        <time>2018-05-25T08:09:17Z</time>
      </trkpt>
      <trkpt lat="45.92851" lon="4.73103">
        <ele>171</ele>
        <time>2018-05-25T08:09:18Z</time>
      </trkpt>
      <trkpt lat="45.92859" lon="4.73107">
        <ele>171</ele>
        <time>2018-05-25T08:09:20Z</time>
      </trkpt>
      <trkpt lat="45.92861" lon="4.73106">
        <ele>171</ele>
        <time>2018-05-25T08:09:21Z</time>
      </trkpt>
      <trkpt lat="45.92865" lon="4.73098">
        <ele>171</ele>
        <time>2018-05-25T08:09:23Z</time>
      </trkpt>
      <trkpt lat="45.92869" lon="4.73093">
        <ele>172</ele>
        <time>2018-05-25T08:09:24Z</time>
      </trkpt>
      <trkpt lat="45.92875" lon="4.73087">
        <ele>172</ele>
        <time>2018-05-25T08:09:26Z</time>
      </trkpt>
      <trkpt lat="45.92879" lon="4.73083">
        <ele>172</ele>
        <time>2018-05-25T08:09:27Z</time>
      </trkpt>
      <trkpt lat="45.92883" lon="4.73076">
        <ele>172</ele>
        <time>2018-05-25T08:09:29Z</time>
      </trkpt>
      <trkpt lat="45.92887" lon="4.73071">
        <ele>172</ele>
        <time>2018-05-25T08:09:30Z</time>
      </trkpt>
      <trkpt lat="45.92891" lon="4.73067">
        <ele>172</ele>
        <time>2018-05-25T08:09:31Z</time>
      </trkpt>
      <trkpt lat="45.92897" lon="4.73062">
        <ele>172</ele>
        <time>2018-05-25T08:09:32Z</time>
      </trkpt>
      <trkpt lat="45.92902" lon="4.73057">
        <ele>172</ele>
        <time>2018-05-25T08:09:33Z</time>
      </trkpt>
      <trkpt lat="45.92906" lon="4.7305">
        <ele>172</ele>
        <time>2018-05-25T08:09:34Z</time>
      </trkpt>
      <trkpt lat="45.92911" lon="4.73044">
        <ele>172</ele>
        <time>2018-05-25T08:09:35Z</time>
      </trkpt>
      <trkpt lat="45.92915" lon="4.73038">
        <ele>172</ele>
        <time>2018-05-25T08:09:36Z</time>
      </trkpt>
      <trkpt lat="45.92918" lon="4.73033">
        <ele>172</ele>
        <time>2018-05-25T08:09:37Z</time>
      </trkpt>
      <trkpt lat="45.92921" lon="4.73028">
        <ele>171</ele>
        <time>2018-05-25T08:09:38Z</time>
      </trkpt>
      <trkpt lat="45.92927" lon="4.73023">
        <ele>171</ele>
        <time>2018-05-25T08:09:39Z</time>
      </trkpt>
      <trkpt lat="45.92931" lon="4.73018">
        <ele>171</ele>
        <time>2018-05-25T08:09:40Z</time>
      </trkpt>
      <trkpt lat="45.92936" lon="4.73013">
        <ele>171</ele>
        <time>2018-05-25T08:09:41Z</time>
      </trkpt>
      <trkpt lat="45.92941" lon="4.73007">
        <ele>171</ele>
        <time>2018-05-25T08:09:42Z</time>
      </trkpt>
      <trkpt lat="45.92945" lon="4.73002">
        <ele>171</ele>
        <time>2018-05-25T08:09:43Z</time>
      </trkpt>
      <trkpt lat="45.92949" lon="4.72994">
        <ele>171</ele>
        <time>2018-05-25T08:09:44Z</time>
      </trkpt>
      <trkpt lat="45.92954" lon="4.7299">
        <ele>171</ele>
        <time>2018-05-25T08:09:45Z</time>
      </trkpt>
      <trkpt lat="45.92957" lon="4.72983">
        <ele>171</ele>
        <time>2018-05-25T08:09:46Z</time>
      </trkpt>
      <trkpt lat="45.92961" lon="4.72978">
        <ele>171</ele>
        <time>2018-05-25T08:09:47Z</time>
      </trkpt>
      <trkpt lat="45.92966" lon="4.72973">
        <ele>171</ele>
        <time>2018-05-25T08:09:48Z</time>
      </trkpt>
      <trkpt lat="45.92969" lon="4.72967">
        <ele>171</ele>
        <time>2018-05-25T08:09:49Z</time>
      </trkpt>
      <trkpt lat="45.92974" lon="4.72962">
        <ele>171</ele>
        <time>2018-05-25T08:09:50Z</time>
      </trkpt>
      <trkpt lat="45.92978" lon="4.72957">
        <ele>171</ele>
        <time>2018-05-25T08:09:51Z</time>
      </trkpt>
      <trkpt lat="45.92981" lon="4.72952">
        <ele>171</ele>
        <time>2018-05-25T08:09:52Z</time>
      </trkpt>
      <trkpt lat="45.92989" lon="4.72945">
        <ele>171</ele>
        <time>2018-05-25T08:09:53Z</time>
      </trkpt>
      <trkpt lat="45.92994" lon="4.72938">
        <ele>171</ele>
        <time>2018-05-25T08:09:54Z</time>
      </trkpt>
      <trkpt lat="45.93" lon="4.72931">
        <ele>171</ele>
        <time>2018-05-25T08:09:55Z</time>
      </trkpt>
      <trkpt lat="45.93004" lon="4.72925">
        <ele>170</ele>
        <time>2018-05-25T08:09:56Z</time>
      </trkpt>
      <trkpt lat="45.93009" lon="4.72921">
        <ele>170</ele>
        <time>2018-05-25T08:09:57Z</time>
      </trkpt>
      <trkpt lat="45.93013" lon="4.72915">
        <ele>171</ele>
        <time>2018-05-25T08:09:58Z</time>
      </trkpt>
      <trkpt lat="45.93018" lon="4.72909">
        <ele>171</ele>
        <time>2018-05-25T08:09:59Z</time>
      </trkpt>
      <trkpt lat="45.93022" lon="4.72904">
        <ele>172</ele>
        <time>2018-05-25T08:10:00Z</time>
      </trkpt>
      <trkpt lat="45.93027" lon="4.72899">
        <ele>172</ele>
        <time>2018-05-25T08:10:01Z</time>
      </trkpt>
      <trkpt lat="45.93031" lon="4.72893">
        <ele>172</ele>
        <time>2018-05-25T08:10:02Z</time>
      </trkpt>
      <trkpt lat="45.93036" lon="4.72887">
        <ele>172</ele>
        <time>2018-05-25T08:10:03Z</time>
      </trkpt>
      <trkpt lat="45.93042" lon="4.72882">
        <ele>172</ele>
        <time>2018-05-25T08:10:04Z</time>
      </trkpt>
      <trkpt lat="45.93046" lon="4.72877">
        <ele>172</ele>
        <time>2018-05-25T08:10:05Z</time>
      </trkpt>
      <trkpt lat="45.93049" lon="4.72871">
        <ele>172</ele>
        <time>2018-05-25T08:10:06Z</time>
      </trkpt>
      <trkpt lat="45.93053" lon="4.72866">
        <ele>172</ele>
        <time>2018-05-25T08:10:07Z</time>
      </trkpt>
      <trkpt lat="45.93059" lon="4.72861">
        <ele>172</ele>
        <time>2018-05-25T08:10:08Z</time>
      </trkpt>
      <trkpt lat="45.93063" lon="4.72856">
        <ele>172</ele>
        <time>2018-05-25T08:10:09Z</time>
      </trkpt>
      <trkpt lat="45.93068" lon="4.72851">
        <ele>172</ele>
        <time>2018-05-25T08:10:10Z</time>
      </trkpt>
      <trkpt lat="45.93105" lon="4.7281">
        <ele>171</ele>
        <time>2018-05-25T08:10:19Z</time>
      </trkpt>
      <trkpt lat="45.9311" lon="4.72803">
        <ele>171</ele>
        <time>2018-05-25T08:10:20Z</time>
      </trkpt>
      <trkpt lat="45.93114" lon="4.72799">
        <ele>171</ele>
        <time>2018-05-25T08:10:21Z</time>
      </trkpt>
      <trkpt lat="45.93119" lon="4.72794">
        <ele>171</ele>
        <time>2018-05-25T08:10:22Z</time>
      </trkpt>
      <trkpt lat="45.93122" lon="4.72791">
        <ele>171</ele>
        <time>2018-05-25T08:10:23Z</time>
      </trkpt>
      <trkpt lat="45.93126" lon="4.72785">
        <ele>171</ele>
        <time>2018-05-25T08:10:24Z</time>
      </trkpt>
      <trkpt lat="45.93132" lon="4.72779">
        <ele>171</ele>
        <time>2018-05-25T08:10:25Z</time>
      </trkpt>
      <trkpt lat="45.93138" lon="4.72772">
        <ele>171</ele>
        <time>2018-05-25T08:10:26Z</time>
      </trkpt>
      <trkpt lat="45.93142" lon="4.72766">
        <ele>171</ele>
        <time>2018-05-25T08:10:27Z</time>
      </trkpt>
      <trkpt lat="45.93148" lon="4.72761">
        <ele>171</ele>
        <time>2018-05-25T08:10:28Z</time>
      </trkpt>
      <trkpt lat="45.93152" lon="4.72755">
        <ele>170</ele>
        <time>2018-05-25T08:10:29Z</time>
      </trkpt>
      <trkpt lat="45.93158" lon="4.72749">
        <ele>170</ele>
        <time>2018-05-25T08:10:30Z</time>
      </trkpt>
      <trkpt lat="45.93163" lon="4.72743">
        <ele>170</ele>
        <time>2018-05-25T08:10:31Z</time>
      </trkpt>
      <trkpt lat="45.93168" lon="4.72737">
        <ele>170</ele>
        <time>2018-05-25T08:10:32Z</time>
      </trkpt>
      <trkpt lat="45.93174" lon="4.7273">
        <ele>170</ele>
        <time>2018-05-25T08:10:33Z</time>
      </trkpt>
      <trkpt lat="45.93178" lon="4.72724">
        <ele>170</ele>
        <time>2018-05-25T08:10:34Z</time>
      </trkpt>
      <trkpt lat="45.93183" lon="4.72718">
        <ele>169</ele>
        <time>2018-05-25T08:10:35Z</time>
      </trkpt>
      <trkpt lat="45.93189" lon="4.72713">
        <ele>169</ele>
        <time>2018-05-25T08:10:36Z</time>
      </trkpt>
      <trkpt lat="45.93194" lon="4.72707">
        <ele>169</ele>
        <time>2018-05-25T08:10:37Z</time>
      </trkpt>
      <trkpt lat="45.93201" lon="4.72699">
        <ele>169</ele>
        <time>2018-05-25T08:10:38Z</time>
      </trkpt>
      <trkpt lat="45.93205" lon="4.72693">
        <ele>169</ele>
        <time>2018-05-25T08:10:39Z</time>
      </trkpt>
      <trkpt lat="45.93211" lon="4.72686">
        <ele>169</ele>
        <time>2018-05-25T08:10:40Z</time>
      </trkpt>
      <trkpt lat="45.93217" lon="4.7268">
        <ele>169</ele>
        <time>2018-05-25T08:10:41Z</time>
      </trkpt>
      <trkpt lat="45.93222" lon="4.72672">
        <ele>169</ele>
        <time>2018-05-25T08:10:42Z</time>
      </trkpt>
      <trkpt lat="45.93227" lon="4.72665">
        <ele>169</ele>
        <time>2018-05-25T08:10:43Z</time>
      </trkpt>
      <trkpt lat="45.93231" lon="4.72658">
        <ele>169</ele>
        <time>2018-05-25T08:10:44Z</time>
      </trkpt>
      <trkpt lat="45.93237" lon="4.72652">
        <ele>169</ele>
        <time>2018-05-25T08:10:45Z</time>
      </trkpt>
      <trkpt lat="45.93243" lon="4.72644">
        <ele>170</ele>
        <time>2018-05-25T08:10:46Z</time>
      </trkpt>
      <trkpt lat="45.93249" lon="4.72639">
        <ele>170</ele>
        <time>2018-05-25T08:10:47Z</time>
      </trkpt>
      <trkpt lat="45.93253" lon="4.7263">
        <ele>170</ele>
        <time>2018-05-25T08:10:48Z</time>
      </trkpt>
      <trkpt lat="45.93258" lon="4.72624">
        <ele>170</ele>
        <time>2018-05-25T08:10:49Z</time>
      </trkpt>
      <trkpt lat="45.93263" lon="4.72619">
        <ele>170</ele>
        <time>2018-05-25T08:10:50Z</time>
      </trkpt>
      <trkpt lat="45.93266" lon="4.72613">
        <ele>170</ele>
        <time>2018-05-25T08:10:51Z</time>
      </trkpt>
      <trkpt lat="45.93271" lon="4.72608">
        <ele>170</ele>
        <time>2018-05-25T08:10:52Z</time>
      </trkpt>
      <trkpt lat="45.93276" lon="4.72603">
        <ele>170</ele>
        <time>2018-05-25T08:10:53Z</time>
      </trkpt>
      <trkpt lat="45.93281" lon="4.72598">
        <ele>170</ele>
        <time>2018-05-25T08:10:54Z</time>
      </trkpt>
      <trkpt lat="45.93285" lon="4.72592">
        <ele>170</ele>
        <time>2018-05-25T08:10:55Z</time>
      </trkpt>
      <trkpt lat="45.9329" lon="4.72586">
        <ele>170</ele>
        <time>2018-05-25T08:10:56Z</time>
      </trkpt>
      <trkpt lat="45.93295" lon="4.72581">
        <ele>171</ele>
        <time>2018-05-25T08:10:57Z</time>
      </trkpt>
      <trkpt lat="45.93299" lon="4.72579">
        <ele>171</ele>
        <time>2018-05-25T08:10:58Z</time>
      </trkpt>
      <trkpt lat="45.93304" lon="4.72574">
        <ele>171</ele>
        <time>2018-05-25T08:10:59Z</time>
      </trkpt>
      <trkpt lat="45.93309" lon="4.72568">
        <ele>171</ele>
        <time>2018-05-25T08:11:00Z</time>
      </trkpt>
      <trkpt lat="45.93314" lon="4.72563">
        <ele>171</ele>
        <time>2018-05-25T08:11:01Z</time>
      </trkpt>
      <trkpt lat="45.93319" lon="4.72558">
        <ele>171</ele>
        <time>2018-05-25T08:11:02Z</time>
      </trkpt>
      <trkpt lat="45.93325" lon="4.72552">
        <ele>172</ele>
        <time>2018-05-25T08:11:03Z</time>
      </trkpt>
      <trkpt lat="45.9333" lon="4.72547">
        <ele>172</ele>
        <time>2018-05-25T08:11:04Z</time>
      </trkpt>
      <trkpt lat="45.93335" lon="4.72541">
        <ele>171</ele>
        <time>2018-05-25T08:11:05Z</time>
      </trkpt>
      <trkpt lat="45.9334" lon="4.72535">
        <ele>172</ele>
        <time>2018-05-25T08:11:06Z</time>
      </trkpt>
      <trkpt lat="45.93345" lon="4.72531">
        <ele>172</ele>
        <time>2018-05-25T08:11:07Z</time>
      </trkpt>
      <trkpt lat="45.93349" lon="4.72526">
        <ele>172</ele>
        <time>2018-05-25T08:11:08Z</time>
      </trkpt>
      <trkpt lat="45.93353" lon="4.7252">
        <ele>172</ele>
        <time>2018-05-25T08:11:09Z</time>
      </trkpt>
      <trkpt lat="45.93357" lon="4.72515">
        <ele>172</ele>
        <time>2018-05-25T08:11:10Z</time>
      </trkpt>
      <trkpt lat="45.93362" lon="4.72511">
        <ele>172</ele>
        <time>2018-05-25T08:11:11Z</time>
      </trkpt>
      <trkpt lat="45.93366" lon="4.72505">
        <ele>172</ele>
        <time>2018-05-25T08:11:12Z</time>
      </trkpt>
      <trkpt lat="45.9337" lon="4.72501">
        <ele>172</ele>
        <time>2018-05-25T08:11:13Z</time>
      </trkpt>
      <trkpt lat="45.93375" lon="4.72495">
        <ele>173</ele>
        <time>2018-05-25T08:11:14Z</time>
      </trkpt>
      <trkpt lat="45.93379" lon="4.72489">
        <ele>173</ele>
        <time>2018-05-25T08:11:15Z</time>
      </trkpt>
      <trkpt lat="45.93384" lon="4.72485">
        <ele>173</ele>
        <time>2018-05-25T08:11:16Z</time>
      </trkpt>
      <trkpt lat="45.93387" lon="4.72481">
        <ele>173</ele>
        <time>2018-05-25T08:11:17Z</time>
      </trkpt>
      <trkpt lat="45.93391" lon="4.72477">
        <ele>173</ele>
        <time>2018-05-25T08:11:18Z</time>
      </trkpt>
      <trkpt lat="45.93394" lon="4.72471">
        <ele>173</ele>
        <time>2018-05-25T08:11:19Z</time>
      </trkpt>
      <trkpt lat="45.93397" lon="4.72465">
        <ele>173</ele>
        <time>2018-05-25T08:11:20Z</time>
      </trkpt>
      <trkpt lat="45.93399" lon="4.7246">
        <ele>173</ele>
        <time>2018-05-25T08:11:21Z</time>
      </trkpt>
      <trkpt lat="45.934" lon="4.72453">
        <ele>173</ele>
        <time>2018-05-25T08:11:22Z</time>
      </trkpt>
      <trkpt lat="45.93402" lon="4.72445">
        <ele>173</ele>
        <time>2018-05-25T08:11:23Z</time>
      </trkpt>
      <trkpt lat="45.93405" lon="4.72439">
        <ele>173</ele>
        <time>2018-05-25T08:11:24Z</time>
      </trkpt>
      <trkpt lat="45.93407" lon="4.72433">
        <ele>173</ele>
        <time>2018-05-25T08:11:25Z</time>
      </trkpt>
      <trkpt lat="45.93411" lon="4.72428">
        <ele>174</ele>
        <time>2018-05-25T08:11:26Z</time>
      </trkpt>
      <trkpt lat="45.93415" lon="4.72422">
        <ele>174</ele>
        <time>2018-05-25T08:11:27Z</time>
      </trkpt>
      <trkpt lat="45.9342" lon="4.72418">
        <ele>174</ele>
        <time>2018-05-25T08:11:28Z</time>
      </trkpt>
      <trkpt lat="45.93425" lon="4.72415">
        <ele>174</ele>
        <time>2018-05-25T08:11:29Z</time>
      </trkpt>
      <trkpt lat="45.9343" lon="4.72413">
        <ele>174</ele>
        <time>2018-05-25T08:11:30Z</time>
      </trkpt>
      <trkpt lat="45.93436" lon="4.7241">
        <ele>174</ele>
        <time>2018-05-25T08:11:31Z</time>
      </trkpt>
      <trkpt lat="45.93441" lon="4.72408">
        <ele>173</ele>
        <time>2018-05-25T08:11:32Z</time>
      </trkpt>
      <trkpt lat="45.93447" lon="4.72404">
        <ele>173</ele>
        <time>2018-05-25T08:11:33Z</time>
      </trkpt>
      <trkpt lat="45.93452" lon="4.724">
        <ele>173</ele>
        <time>2018-05-25T08:11:34Z</time>
      </trkpt>
      <trkpt lat="45.93457" lon="4.72396">
        <ele>173</ele>
        <time>2018-05-25T08:11:35Z</time>
      </trkpt>
      <trkpt lat="45.93462" lon="4.72391">
        <ele>173</ele>
        <time>2018-05-25T08:11:36Z</time>
      </trkpt>
      <trkpt lat="45.93467" lon="4.72386">
        <ele>173</ele>
        <time>2018-05-25T08:11:37Z</time>
      </trkpt>
      <trkpt lat="45.93472" lon="4.7238">
        <ele>173</ele>
        <time>2018-05-25T08:11:38Z</time>
      </trkpt>
      <trkpt lat="45.93477" lon="4.72373">
        <ele>173</ele>
        <time>2018-05-25T08:11:39Z</time>
      </trkpt>
      <trkpt lat="45.9348" lon="4.72367">
        <ele>173</ele>
        <time>2018-05-25T08:11:40Z</time>
      </trkpt>
      <trkpt lat="45.93483" lon="4.7236">
        <ele>173</ele>
        <time>2018-05-25T08:11:41Z</time>
      </trkpt>
      <trkpt lat="45.93487" lon="4.72354">
        <ele>173</ele>
        <time>2018-05-25T08:11:42Z</time>
      </trkpt>
      <trkpt lat="45.93492" lon="4.72348">
        <ele>173</ele>
        <time>2018-05-25T08:11:43Z</time>
      </trkpt>
      <trkpt lat="45.93496" lon="4.72342">
        <ele>173</ele>
        <time>2018-05-25T08:11:44Z</time>
      </trkpt>
      <trkpt lat="45.93501" lon="4.72335">
        <ele>173</ele>
        <time>2018-05-25T08:11:45Z</time>
      </trkpt>
      <trkpt lat="45.93505" lon="4.72329">
        <ele>173</ele>
        <time>2018-05-25T08:11:46Z</time>
      </trkpt>
      <trkpt lat="45.93509" lon="4.72324">
        <ele>173</ele>
        <time>2018-05-25T08:11:47Z</time>
      </trkpt>
      <trkpt lat="45.93513" lon="4.72315">
        <ele>173</ele>
        <time>2018-05-25T08:11:48Z</time>
      </trkpt>
      <trkpt lat="45.93517" lon="4.7231">
        <ele>173</ele>
        <time>2018-05-25T08:11:49Z</time>
      </trkpt>
      <trkpt lat="45.9352" lon="4.72303">
        <ele>173</ele>
        <time>2018-05-25T08:11:50Z</time>
      </trkpt>
      <trkpt lat="45.93523" lon="4.72297">
        <ele>172</ele>
        <time>2018-05-25T08:11:51Z</time>
      </trkpt>
      <trkpt lat="45.93527" lon="4.7229">
        <ele>172</ele>
        <time>2018-05-25T08:11:52Z</time>
      </trkpt>
      <trkpt lat="45.93529" lon="4.72283">
        <ele>172</ele>
        <time>2018-05-25T08:11:53Z</time>
      </trkpt>
      <trkpt lat="45.93533" lon="4.72272">
        <ele>172</ele>
        <time>2018-05-25T08:11:55Z</time>
      </trkpt>
      <trkpt lat="45.93537" lon="4.72265">
        <ele>172</ele>
        <time>2018-05-25T08:11:56Z</time>
      </trkpt>
      <trkpt lat="45.93541" lon="4.72256">
        <ele>172</ele>
        <time>2018-05-25T08:11:57Z</time>
      </trkpt>
      <trkpt lat="45.93544" lon="4.7225">
        <ele>172</ele>
        <time>2018-05-25T08:11:58Z</time>
      </trkpt>
      <trkpt lat="45.93545" lon="4.72246">
        <ele>172</ele>
        <time>2018-05-25T08:11:59Z</time>
      </trkpt>
      <trkpt lat="45.9355" lon="4.72237">
        <ele>172</ele>
        <time>2018-05-25T08:12:00Z</time>
      </trkpt>
      <trkpt lat="45.93553" lon="4.72232">
        <ele>173</ele>
        <time>2018-05-25T08:12:01Z</time>
      </trkpt>
      <trkpt lat="45.93557" lon="4.72227">
        <ele>173</ele>
        <time>2018-05-25T08:12:02Z</time>
      </trkpt>
      <trkpt lat="45.93563" lon="4.72224">
        <ele>173</ele>
        <time>2018-05-25T08:12:03Z</time>
      </trkpt>
      <trkpt lat="45.93568" lon="4.72227">
        <ele>173</ele>
        <time>2018-05-25T08:12:04Z</time>
      </trkpt>
      <trkpt lat="45.93573" lon="4.72232">
        <ele>173</ele>
        <time>2018-05-25T08:12:05Z</time>
      </trkpt>
      <trkpt lat="45.93579" lon="4.72238">
        <ele>173</ele>
        <time>2018-05-25T08:12:06Z</time>
      </trkpt>
      <trkpt lat="45.93584" lon="4.72243">
        <ele>173</ele>
        <time>2018-05-25T08:12:07Z</time>
      </trkpt>
      <trkpt lat="45.93588" lon="4.72246">
        <ele>173</ele>
        <time>2018-05-25T08:12:08Z</time>
      </trkpt>
      <trkpt lat="45.93591" lon="4.72251">
        <ele>173</ele>
        <time>2018-05-25T08:12:09Z</time>
      </trkpt>
      <trkpt lat="45.93597" lon="4.72255">
        <ele>173</ele>
        <time>2018-05-25T08:12:10Z</time>
      </trkpt>
      <trkpt lat="45.93602" lon="4.72259">
        <ele>173</ele>
        <time>2018-05-25T08:12:11Z</time>
      </trkpt>
      <trkpt lat="45.93606" lon="4.72262">
        <ele>173</ele>
        <time>2018-05-25T08:12:12Z</time>
      </trkpt>
      <trkpt lat="45.9361" lon="4.72267">
        <ele>172</ele>
        <time>2018-05-25T08:12:13Z</time>
      </trkpt>
      <trkpt lat="45.93615" lon="4.72272">
        <ele>172</ele>
        <time>2018-05-25T08:12:14Z</time>
      </trkpt>
      <trkpt lat="45.93622" lon="4.72277">
        <ele>172</ele>
        <time>2018-05-25T08:12:15Z</time>
      </trkpt>
      <trkpt lat="45.93627" lon="4.72282">
        <ele>172</ele>
        <time>2018-05-25T08:12:16Z</time>
      </trkpt>
      <trkpt lat="45.93631" lon="4.72287">
        <ele>172</ele>
        <time>2018-05-25T08:12:17Z</time>
      </trkpt>
      <trkpt lat="45.93636" lon="4.72293">
        <ele>172</ele>
        <time>2018-05-25T08:12:18Z</time>
      </trkpt>
      <trkpt lat="45.9364" lon="4.72298">
        <ele>172</ele>
        <time>2018-05-25T08:12:19Z</time>
      </trkpt>
      <trkpt lat="45.93646" lon="4.72304">
        <ele>172</ele>
        <time>2018-05-25T08:12:20Z</time>
      </trkpt>
      <trkpt lat="45.9365" lon="4.72309">
        <ele>172</ele>
        <time>2018-05-25T08:12:21Z</time>
      </trkpt>
      <trkpt lat="45.93653" lon="4.72314">
        <ele>172</ele>
        <time>2018-05-25T08:12:22Z</time>
      </trkpt>
      <trkpt lat="45.93657" lon="4.72319">
        <ele>172</ele>
        <time>2018-05-25T08:12:23Z</time>
      </trkpt>
      <trkpt lat="45.93663" lon="4.72325">
        <ele>171</ele>
        <time>2018-05-25T08:12:24Z</time>
      </trkpt>
      <trkpt lat="45.93668" lon="4.7233">
        <ele>171</ele>
        <time>2018-05-25T08:12:25Z</time>
      </trkpt>
      <trkpt lat="45.93674" lon="4.72336">
        <ele>171</ele>
        <time>2018-05-25T08:12:26Z</time>
      </trkpt>
      <trkpt lat="45.93678" lon="4.72341">
        <ele>171</ele>
        <time>2018-05-25T08:12:27Z</time>
      </trkpt>
      <trkpt lat="45.93682" lon="4.72346">
        <ele>171</ele>
        <time>2018-05-25T08:12:28Z</time>
      </trkpt>
      <trkpt lat="45.93688" lon="4.72347">
        <ele>171</ele>
        <time>2018-05-25T08:12:29Z</time>
      </trkpt>
      <trkpt lat="45.93693" lon="4.72349">
        <ele>171</ele>
        <time>2018-05-25T08:12:30Z</time>
      </trkpt>
      <trkpt lat="45.93694" lon="4.72351">
        <ele>171</ele>
        <time>2018-05-25T08:12:31Z</time>
      </trkpt>
      <trkpt lat="45.93699" lon="4.7236">
        <ele>171</ele>
        <time>2018-05-25T08:12:32Z</time>
      </trkpt>
      <trkpt lat="45.93706" lon="4.72363">
        <ele>171</ele>
        <time>2018-05-25T08:12:33Z</time>
      </trkpt>
      <trkpt lat="45.93712" lon="4.72371">
        <ele>172</ele>
        <time>2018-05-25T08:12:34Z</time>
      </trkpt>
      <trkpt lat="45.93717" lon="4.72377">
        <ele>171</ele>
        <time>2018-05-25T08:12:35Z</time>
      </trkpt>
      <trkpt lat="45.93722" lon="4.72383">
        <ele>171</ele>
        <time>2018-05-25T08:12:36Z</time>
      </trkpt>
      <trkpt lat="45.93727" lon="4.72388">
        <ele>171</ele>
        <time>2018-05-25T08:12:37Z</time>
      </trkpt>
      <trkpt lat="45.93733" lon="4.72392">
        <ele>171</ele>
        <time>2018-05-25T08:12:38Z</time>
      </trkpt>
      <trkpt lat="45.93738" lon="4.72398">
        <ele>171</ele>
        <time>2018-05-25T08:12:39Z</time>
      </trkpt>
      <trkpt lat="45.93742" lon="4.72402">
        <ele>171</ele>
        <time>2018-05-25T08:12:40Z</time>
      </trkpt>
      <trkpt lat="45.93748" lon="4.72407">
        <ele>171</ele>
        <time>2018-05-25T08:12:41Z</time>
      </trkpt>
      <trkpt lat="45.93754" lon="4.72414">
        <ele>171</ele>
        <time>2018-05-25T08:12:42Z</time>
      </trkpt>
      <trkpt lat="45.93759" lon="4.72419">
        <ele>171</ele>
        <time>2018-05-25T08:12:43Z</time>
      </trkpt>
      <trkpt lat="45.93763" lon="4.72425">
        <ele>171</ele>
        <time>2018-05-25T08:12:44Z</time>
      </trkpt>
      <trkpt lat="45.93768" lon="4.72429">
        <ele>171</ele>
        <time>2018-05-25T08:12:45Z</time>
      </trkpt>
      <trkpt lat="45.93773" lon="4.72434">
        <ele>171</ele>
        <time>2018-05-25T08:12:46Z</time>
      </trkpt>
      <trkpt lat="45.93778" lon="4.72439">
        <ele>172</ele>
        <time>2018-05-25T08:12:47Z</time>
      </trkpt>
      <trkpt lat="45.93783" lon="4.72444">
        <ele>172</ele>
        <time>2018-05-25T08:12:48Z</time>
      </trkpt>
      <trkpt lat="45.93789" lon="4.72449">
        <ele>172</ele>
        <time>2018-05-25T08:12:49Z</time>
      </trkpt>
      <trkpt lat="45.93795" lon="4.72454">
        <ele>172</ele>
        <time>2018-05-25T08:12:50Z</time>
      </trkpt>
      <trkpt lat="45.938" lon="4.72457">
        <ele>172</ele>
        <time>2018-05-25T08:12:51Z</time>
      </trkpt>
      <trkpt lat="45.93804" lon="4.7246">
        <ele>172</ele>
        <time>2018-05-25T08:12:52Z</time>
      </trkpt>
      <trkpt lat="45.93809" lon="4.72465">
        <ele>172</ele>
        <time>2018-05-25T08:12:53Z</time>
      </trkpt>
      <trkpt lat="45.93815" lon="4.7247">
        <ele>172</ele>
        <time>2018-05-25T08:12:54Z</time>
      </trkpt>
      <trkpt lat="45.93819" lon="4.72475">
        <ele>172</ele>
        <time>2018-05-25T08:12:55Z</time>
      </trkpt>
      <trkpt lat="45.93825" lon="4.72481">
        <ele>173</ele>
        <time>2018-05-25T08:12:56Z</time>
      </trkpt>
      <trkpt lat="45.93831" lon="4.72486">
        <ele>173</ele>
        <time>2018-05-25T08:12:57Z</time>
      </trkpt>
      <trkpt lat="45.93836" lon="4.72491">
        <ele>173</ele>
        <time>2018-05-25T08:12:58Z</time>
      </trkpt>
      <trkpt lat="45.93874" lon="4.72528">
        <ele>173</ele>
        <time>2018-05-25T08:13:05Z</time>
      </trkpt>
      <trkpt lat="45.93879" lon="4.72524">
        <ele>173</ele>
        <time>2018-05-25T08:13:06Z</time>
      </trkpt>
      <trkpt lat="45.93884" lon="4.72518">
        <ele>173</ele>
        <time>2018-05-25T08:13:07Z</time>
      </trkpt>
      <trkpt lat="45.93887" lon="4.72511">
        <ele>173</ele>
        <time>2018-05-25T08:13:08Z</time>
      </trkpt>
      <trkpt lat="45.93891" lon="4.72506">
        <ele>173</ele>
        <time>2018-05-25T08:13:09Z</time>
      </trkpt>
      <trkpt lat="45.93894" lon="4.72502">
        <ele>172</ele>
        <time>2018-05-25T08:13:10Z</time>
      </trkpt>
      <trkpt lat="45.93898" lon="4.72497">
        <ele>172</ele>
        <time>2018-05-25T08:13:11Z</time>
      </trkpt>
      <trkpt lat="45.93902" lon="4.72493">
        <ele>172</ele>
        <time>2018-05-25T08:13:12Z</time>
      </trkpt>
      <trkpt lat="45.93905" lon="4.72488">
        <ele>172</ele>
        <time>2018-05-25T08:13:13Z</time>
      </trkpt>
      <trkpt lat="45.93911" lon="4.72481">
        <ele>172</ele>
        <time>2018-05-25T08:13:14Z</time>
      </trkpt>
      <trkpt lat="45.93916" lon="4.72474">
        <ele>172</ele>
        <time>2018-05-25T08:13:15Z</time>
      </trkpt>
      <trkpt lat="45.93921" lon="4.72469">
        <ele>171</ele>
        <time>2018-05-25T08:13:16Z</time>
      </trkpt>
      <trkpt lat="45.93926" lon="4.72463">
        <ele>171</ele>
        <time>2018-05-25T08:13:17Z</time>
      </trkpt>
      <trkpt lat="45.93931" lon="4.72457">
        <ele>171</ele>
        <time>2018-05-25T08:13:18Z</time>
      </trkpt>
      <trkpt lat="45.93936" lon="4.72451">
        <ele>171</ele>
        <time>2018-05-25T08:13:19Z</time>
      </trkpt>
      <trkpt lat="45.93942" lon="4.72442">
        <ele>171</ele>
        <time>2018-05-25T08:13:20Z</time>
      </trkpt>
      <trkpt lat="45.93947" lon="4.72435">
        <ele>171</ele>
        <time>2018-05-25T08:13:21Z</time>
      </trkpt>
      <trkpt lat="45.93952" lon="4.72429">
        <ele>171</ele>
        <time>2018-05-25T08:13:22Z</time>
      </trkpt>
      <trkpt lat="45.93957" lon="4.72423">
        <ele>171</ele>
        <time>2018-05-25T08:13:23Z</time>
      </trkpt>
      <trkpt lat="45.93962" lon="4.72418">
        <ele>171</ele>
        <time>2018-05-25T08:13:24Z</time>
      </trkpt>
      <trkpt lat="45.93967" lon="4.72412">
        <ele>171</ele>
        <time>2018-05-25T08:13:25Z</time>
      </trkpt>
      <trkpt lat="45.93972" lon="4.72404">
        <ele>171</ele>
        <time>2018-05-25T08:13:26Z</time>
      </trkpt>
      <trkpt lat="45.93979" lon="4.72395">
        <ele>171</ele>
        <time>2018-05-25T08:13:27Z</time>
      </trkpt>
      <trkpt lat="45.93984" lon="4.7239">
        <ele>171</ele>
        <time>2018-05-25T08:13:28Z</time>
      </trkpt>
      <trkpt lat="45.93988" lon="4.72384">
        <ele>171</ele>
        <time>2018-05-25T08:13:29Z</time>
      </trkpt>
      <trkpt lat="45.93995" lon="4.72376">
        <ele>171</ele>
        <time>2018-05-25T08:13:30Z</time>
      </trkpt>
      <trkpt lat="45.94" lon="4.72371">
        <ele>171</ele>
        <time>2018-05-25T08:13:31Z</time>
      </trkpt>
      <trkpt lat="45.94004" lon="4.72364">
        <ele>171</ele>
        <time>2018-05-25T08:13:32Z</time>
      </trkpt>
      <trkpt lat="45.94008" lon="4.72359">
        <ele>171</ele>
        <time>2018-05-25T08:13:33Z</time>
      </trkpt>
      <trkpt lat="45.94013" lon="4.72351">
        <ele>171</ele>
        <time>2018-05-25T08:13:34Z</time>
      </trkpt>
      <trkpt lat="45.94019" lon="4.72347">
        <ele>171</ele>
        <time>2018-05-25T08:13:35Z</time>
      </trkpt>
      <trkpt lat="45.94024" lon="4.72339">
        <ele>171</ele>
        <time>2018-05-25T08:13:36Z</time>
      </trkpt>
      <trkpt lat="45.9403" lon="4.72334">
        <ele>171</ele>
        <time>2018-05-25T08:13:37Z</time>
      </trkpt>
      <trkpt lat="45.94034" lon="4.72327">
        <ele>171</ele>
        <time>2018-05-25T08:13:38Z</time>
      </trkpt>
      <trkpt lat="45.94038" lon="4.72323">
        <ele>171</ele>
        <time>2018-05-25T08:13:39Z</time>
      </trkpt>
      <trkpt lat="45.94043" lon="4.72316">
        <ele>171</ele>
        <time>2018-05-25T08:13:40Z</time>
      </trkpt>
      <trkpt lat="45.94047" lon="4.7231">
        <ele>171</ele>
        <time>2018-05-25T08:13:41Z</time>
      </trkpt>
      <trkpt lat="45.94051" lon="4.72306">
        <ele>171</ele>
        <time>2018-05-25T08:13:42Z</time>
      </trkpt>
      <trkpt lat="45.94054" lon="4.723">
        <ele>171</ele>
        <time>2018-05-25T08:13:43Z</time>
      </trkpt>
      <trkpt lat="45.94058" lon="4.72295">
        <ele>171</ele>
        <time>2018-05-25T08:13:44Z</time>
      </trkpt>
      <trkpt lat="45.94063" lon="4.7229">
        <ele>171</ele>
        <time>2018-05-25T08:13:45Z</time>
      </trkpt>
      <trkpt lat="45.94066" lon="4.72286">
        <ele>171</ele>
        <time>2018-05-25T08:13:46Z</time>
      </trkpt>
      <trkpt lat="45.94071" lon="4.7228">
        <ele>171</ele>
        <time>2018-05-25T08:13:47Z</time>
      </trkpt>
      <trkpt lat="45.94075" lon="4.72276">
        <ele>171</ele>
        <time>2018-05-25T08:13:48Z</time>
      </trkpt>
      <trkpt lat="45.9408" lon="4.72272">
        <ele>171</ele>
        <time>2018-05-25T08:13:49Z</time>
      </trkpt>
      <trkpt lat="45.94084" lon="4.72271">
        <ele>171</ele>
        <time>2018-05-25T08:13:50Z</time>
      </trkpt>
      <trkpt lat="45.94089" lon="4.72269">
        <ele>171</ele>
        <time>2018-05-25T08:13:51Z</time>
      </trkpt>
      <trkpt lat="45.94094" lon="4.72267">
        <ele>171</ele>
        <time>2018-05-25T08:13:52Z</time>
      </trkpt>
      <trkpt lat="45.941" lon="4.72266">
        <ele>171</ele>
        <time>2018-05-25T08:13:53Z</time>
      </trkpt>
      <trkpt lat="45.94106" lon="4.72268">
        <ele>171</ele>
        <time>2018-05-25T08:13:54Z</time>
      </trkpt>
      <trkpt lat="45.94111" lon="4.7227">
        <ele>171</ele>
        <time>2018-05-25T08:13:55Z</time>
      </trkpt>
      <trkpt lat="45.94116" lon="4.72272">
        <ele>171</ele>
        <time>2018-05-25T08:13:56Z</time>
      </trkpt>
      <trkpt lat="45.94122" lon="4.72274">
        <ele>171</ele>
        <time>2018-05-25T08:13:57Z</time>
      </trkpt>
      <trkpt lat="45.94127" lon="4.72277">
        <ele>171</ele>
        <time>2018-05-25T08:13:58Z</time>
      </trkpt>
      <trkpt lat="45.94132" lon="4.7228">
        <ele>171</ele>
        <time>2018-05-25T08:13:59Z</time>
      </trkpt>
      <trkpt lat="45.94137" lon="4.72282">
        <ele>171</ele>
        <time>2018-05-25T08:14:00Z</time>
      </trkpt>
      <trkpt lat="45.94143" lon="4.72285">
        <ele>171</ele>
        <time>2018-05-25T08:14:01Z</time>
      </trkpt>
      <trkpt lat="45.94149" lon="4.72288">
        <ele>171</ele>
        <time>2018-05-25T08:14:02Z</time>
      </trkpt>
      <trkpt lat="45.94154" lon="4.72291">
        <ele>171</ele>
        <time>2018-05-25T08:14:03Z</time>
      </trkpt>
      <trkpt lat="45.94161" lon="4.72291">
        <ele>171</ele>
        <time>2018-05-25T08:14:04Z</time>
      </trkpt>
      <trkpt lat="45.94166" lon="4.72293">
        <ele>171</ele>
        <time>2018-05-25T08:14:05Z</time>
      </trkpt>
      <trkpt lat="45.9417" lon="4.72293">
        <ele>171</ele>
        <time>2018-05-25T08:14:06Z</time>
      </trkpt>
      <trkpt lat="45.94176" lon="4.72293">
        <ele>171</ele>
        <time>2018-05-25T08:14:07Z</time>
      </trkpt>
      <trkpt lat="45.94182" lon="4.72292">
        <ele>171</ele>
        <time>2018-05-25T08:14:08Z</time>
      </trkpt>
      <trkpt lat="45.94189" lon="4.72292">
        <ele>171</ele>
        <time>2018-05-25T08:14:09Z</time>
      </trkpt>
      <trkpt lat="45.94194" lon="4.72292">
        <ele>171</ele>
        <time>2018-05-25T08:14:10Z</time>
      </trkpt>
      <trkpt lat="45.94201" lon="4.7229">
        <ele>171</ele>
        <time>2018-05-25T08:14:11Z</time>
      </trkpt>
      <trkpt lat="45.94208" lon="4.7229">
        <ele>171</ele>
        <time>2018-05-25T08:14:12Z</time>
      </trkpt>
      <trkpt lat="45.94213" lon="4.7229">
        <ele>171</ele>
        <time>2018-05-25T08:14:13Z</time>
      </trkpt>
      <trkpt lat="45.94217" lon="4.72289">
        <ele>171</ele>
        <time>2018-05-25T08:14:14Z</time>
      </trkpt>
      <trkpt lat="45.94223" lon="4.72287">
        <ele>171</ele>
        <time>2018-05-25T08:14:15Z</time>
      </trkpt>
      <trkpt lat="45.94228" lon="4.72287">
        <ele>171</ele>
        <time>2018-05-25T08:14:16Z</time>
      </trkpt>
      <trkpt lat="45.94234" lon="4.72286">
        <ele>171</ele>
        <time>2018-05-25T08:14:17Z</time>
      </trkpt>
      <trkpt lat="45.9424" lon="4.72284">
        <ele>171</ele>
        <time>2018-05-25T08:14:18Z</time>
      </trkpt>
      <trkpt lat="45.94244" lon="4.72282">
        <ele>171</ele>
        <time>2018-05-25T08:14:19Z</time>
      </trkpt>
      <trkpt lat="45.94248" lon="4.7228">
        <ele>171</ele>
        <time>2018-05-25T08:14:20Z</time>
      </trkpt>
      <trkpt lat="45.94253" lon="4.72279">
        <ele>171</ele>
        <time>2018-05-25T08:14:21Z</time>
      </trkpt>
      <trkpt lat="45.94258" lon="4.72274">
        <ele>171</ele>
        <time>2018-05-25T08:14:22Z</time>
      </trkpt>
      <trkpt lat="45.94262" lon="4.72272">
        <ele>171</ele>
        <time>2018-05-25T08:14:23Z</time>
      </trkpt>
      <trkpt lat="45.9427" lon="4.72269">
        <ele>171</ele>
        <time>2018-05-25T08:14:25Z</time>
      </trkpt>
      <trkpt lat="45.94273" lon="4.7227">
        <ele>171</ele>
        <time>2018-05-25T08:14:26Z</time>
      </trkpt>
      <trkpt lat="45.94278" lon="4.72273">
        <ele>171</ele>
        <time>2018-05-25T08:14:27Z</time>
      </trkpt>
      <trkpt lat="45.94281" lon="4.72278">
        <ele>171</ele>
        <time>2018-05-25T08:14:28Z</time>
      </trkpt>
      <trkpt lat="45.94282" lon="4.72286">
        <ele>171</ele>
        <time>2018-05-25T08:14:29Z</time>
      </trkpt>
      <trkpt lat="45.94283" lon="4.72293">
        <ele>171</ele>
        <time>2018-05-25T08:14:30Z</time>
      </trkpt>
      <trkpt lat="45.94285" lon="4.72299">
        <ele>171</ele>
        <time>2018-05-25T08:14:31Z</time>
      </trkpt>
      <trkpt lat="45.94287" lon="4.72305">
        <ele>171</ele>
        <time>2018-05-25T08:14:32Z</time>
      </trkpt>
      <trkpt lat="45.9429" lon="4.72311">
        <ele>171</ele>
        <time>2018-05-25T08:14:33Z</time>
      </trkpt>
      <trkpt lat="45.94292" lon="4.72317">
        <ele>171</ele>
        <time>2018-05-25T08:14:34Z</time>
      </trkpt>
      <trkpt lat="45.94295" lon="4.72323">
        <ele>171</ele>
        <time>2018-05-25T08:14:35Z</time>
      </trkpt>
      <trkpt lat="45.94298" lon="4.7233">
        <ele>171</ele>
        <time>2018-05-25T08:14:36Z</time>
      </trkpt>
      <trkpt lat="45.94301" lon="4.72336">
        <ele>172</ele>
        <time>2018-05-25T08:14:37Z</time>
      </trkpt>
      <trkpt lat="45.94304" lon="4.72342">
        <ele>172</ele>
        <time>2018-05-25T08:14:38Z</time>
      </trkpt>
      <trkpt lat="45.94305" lon="4.72349">
        <ele>172</ele>
        <time>2018-05-25T08:14:39Z</time>
      </trkpt>
      <trkpt lat="45.94308" lon="4.72356">
        <ele>172</ele>
        <time>2018-05-25T08:14:40Z</time>
      </trkpt>
      <trkpt lat="45.94311" lon="4.72362">
        <ele>172</ele>
        <time>2018-05-25T08:14:41Z</time>
      </trkpt>
      <trkpt lat="45.94314" lon="4.72368">
        <ele>172</ele>
        <time>2018-05-25T08:14:42Z</time>
      </trkpt>
      <trkpt lat="45.94317" lon="4.72374">
        <ele>172</ele>
        <time>2018-05-25T08:14:43Z</time>
      </trkpt>
      <trkpt lat="45.9432" lon="4.72382">
        <ele>172</ele>
        <time>2018-05-25T08:14:44Z</time>
      </trkpt>
      <trkpt lat="45.94323" lon="4.72389">
        <ele>172</ele>
        <time>2018-05-25T08:14:45Z</time>
      </trkpt>
      <trkpt lat="45.94326" lon="4.72396">
        <ele>172</ele>
        <time>2018-05-25T08:14:46Z</time>
      </trkpt>
      <trkpt lat="45.9433" lon="4.72402">
        <ele>173</ele>
        <time>2018-05-25T08:14:47Z</time>
      </trkpt>
      <trkpt lat="45.94332" lon="4.72408">
        <ele>173</ele>
        <time>2018-05-25T08:14:48Z</time>
      </trkpt>
      <trkpt lat="45.94335" lon="4.72416">
        <ele>173</ele>
        <time>2018-05-25T08:14:49Z</time>
      </trkpt>
      <trkpt lat="45.94338" lon="4.72422">
        <ele>173</ele>
        <time>2018-05-25T08:14:50Z</time>
      </trkpt>
      <trkpt lat="45.94342" lon="4.72429">
        <ele>173</ele>
        <time>2018-05-25T08:14:51Z</time>
      </trkpt>
      <trkpt lat="45.94345" lon="4.72434">
        <ele>173</ele>
        <time>2018-05-25T08:14:52Z</time>
      </trkpt>
      <trkpt lat="45.94348" lon="4.72441">
        <ele>173</ele>
        <time>2018-05-25T08:14:53Z</time>
      </trkpt>
      <trkpt lat="45.9435" lon="4.72447">
        <ele>173</ele>
        <time>2018-05-25T08:14:54Z</time>
      </trkpt>
      <trkpt lat="45.94354" lon="4.72454">
        <ele>173</ele>
        <time>2018-05-25T08:14:55Z</time>
      </trkpt>
      <trkpt lat="45.94357" lon="4.72461">
        <ele>173</ele>
        <time>2018-05-25T08:14:56Z</time>
      </trkpt>
      <trkpt lat="45.9436" lon="4.72468">
        <ele>173</ele>
        <time>2018-05-25T08:14:57Z</time>
      </trkpt>
      <trkpt lat="45.94362" lon="4.72476">
        <ele>173</ele>
        <time>2018-05-25T08:14:58Z</time>
      </trkpt>
      <trkpt lat="45.94366" lon="4.72482">
        <ele>173</ele>
        <time>2018-05-25T08:14:59Z</time>
      </trkpt>
      <trkpt lat="45.94369" lon="4.72488">
        <ele>173</ele>
        <time>2018-05-25T08:15:00Z</time>
      </trkpt>
      <trkpt lat="45.94371" lon="4.72497">
        <ele>173</ele>
        <time>2018-05-25T08:15:01Z</time>
      </trkpt>
      <trkpt lat="45.94373" lon="4.72505">
        <ele>173</ele>
        <time>2018-05-25T08:15:02Z</time>
      </trkpt>
      <trkpt lat="45.94376" lon="4.72511">
        <ele>174</ele>
        <time>2018-05-25T08:15:03Z</time>
      </trkpt>
      <trkpt lat="45.94377" lon="4.72518">
        <ele>174</ele>
        <time>2018-05-25T08:15:04Z</time>
      </trkpt>
      <trkpt lat="45.94378" lon="4.72526">
        <ele>174</ele>
        <time>2018-05-25T08:15:05Z</time>
      </trkpt>
      <trkpt lat="45.9438" lon="4.72534">
        <ele>174</ele>
        <time>2018-05-25T08:15:06Z</time>
      </trkpt>
      <trkpt lat="45.94381" lon="4.72542">
        <ele>173</ele>
        <time>2018-05-25T08:15:07Z</time>
      </trkpt>
      <trkpt lat="45.94384" lon="4.72548">
        <ele>173</ele>
        <time>2018-05-25T08:15:08Z</time>
      </trkpt>
      <trkpt lat="45.94386" lon="4.72556">
        <ele>173</ele>
        <time>2018-05-25T08:15:09Z</time>
      </trkpt>
      <trkpt lat="45.94387" lon="4.72563">
        <ele>173</ele>
        <time>2018-05-25T08:15:10Z</time>
      </trkpt>
      <trkpt lat="45.94389" lon="4.72573">
        <ele>173</ele>
        <time>2018-05-25T08:15:11Z</time>
      </trkpt>
      <trkpt lat="45.94391" lon="4.72581">
        <ele>173</ele>
        <time>2018-05-25T08:15:12Z</time>
      </trkpt>
      <trkpt lat="45.94393" lon="4.72588">
        <ele>173</ele>
        <time>2018-05-25T08:15:13Z</time>
      </trkpt>
      <trkpt lat="45.94393" lon="4.72597">
        <ele>173</ele>
        <time>2018-05-25T08:15:14Z</time>
      </trkpt>
      <trkpt lat="45.94395" lon="4.72605">
        <ele>173</ele>
        <time>2018-05-25T08:15:15Z</time>
      </trkpt>
      <trkpt lat="45.94396" lon="4.72614">
        <ele>173</ele>
        <time>2018-05-25T08:15:16Z</time>
      </trkpt>
      <trkpt lat="45.94397" lon="4.7262">
        <ele>173</ele>
        <time>2018-05-25T08:15:17Z</time>
      </trkpt>
      <trkpt lat="45.94398" lon="4.72629">
        <ele>174</ele>
        <time>2018-05-25T08:15:18Z</time>
      </trkpt>
      <trkpt lat="45.94399" lon="4.72637">
        <ele>174</ele>
        <time>2018-05-25T08:15:19Z</time>
      </trkpt>
      <trkpt lat="45.94399" lon="4.72645">
        <ele>174</ele>
        <time>2018-05-25T08:15:20Z</time>
      </trkpt>
      <trkpt lat="45.944" lon="4.72652">
        <ele>174</ele>
        <time>2018-05-25T08:15:21Z</time>
      </trkpt>
      <trkpt lat="45.94402" lon="4.72659">
        <ele>174</ele>
        <time>2018-05-25T08:15:22Z</time>
      </trkpt>
      <trkpt lat="45.94403" lon="4.72666">
        <ele>174</ele>
        <time>2018-05-25T08:15:23Z</time>
      </trkpt>
      <trkpt lat="45.94403" lon="4.72674">
        <ele>173</ele>
        <time>2018-05-25T08:15:24Z</time>
      </trkpt>
      <trkpt lat="45.94403" lon="4.7268">
        <ele>173</ele>
        <time>2018-05-25T08:15:25Z</time>
      </trkpt>
      <trkpt lat="45.94404" lon="4.72687">
        <ele>173</ele>
        <time>2018-05-25T08:15:26Z</time>
      </trkpt>
      <trkpt lat="45.94404" lon="4.72694">
        <ele>173</ele>
        <time>2018-05-25T08:15:27Z</time>
      </trkpt>
      <trkpt lat="45.94405" lon="4.72702">
        <ele>172</ele>
        <time>2018-05-25T08:15:28Z</time>
      </trkpt>
      <trkpt lat="45.94406" lon="4.72709">
        <ele>172</ele>
        <time>2018-05-25T08:15:29Z</time>
      </trkpt>
      <trkpt lat="45.94407" lon="4.72718">
        <ele>172</ele>
        <time>2018-05-25T08:15:30Z</time>
      </trkpt>
      <trkpt lat="45.9441" lon="4.72726">
        <ele>172</ele>
        <time>2018-05-25T08:15:31Z</time>
      </trkpt>
      <trkpt lat="45.94411" lon="4.72733">
        <ele>172</ele>
        <time>2018-05-25T08:15:32Z</time>
      </trkpt>
      <trkpt lat="45.94412" lon="4.72741">
        <ele>171</ele>
        <time>2018-05-25T08:15:33Z</time>
      </trkpt>
      <trkpt lat="45.94413" lon="4.72748">
        <ele>171</ele>
        <time>2018-05-25T08:15:34Z</time>
      </trkpt>
      <trkpt lat="45.94414" lon="4.72755">
        <ele>170</ele>
        <time>2018-05-25T08:15:35Z</time>
      </trkpt>
      <trkpt lat="45.94415" lon="4.72762">
        <ele>170</ele>
        <time>2018-05-25T08:15:36Z</time>
      </trkpt>
      <trkpt lat="45.94416" lon="4.72768">
        <ele>170</ele>
        <time>2018-05-25T08:15:37Z</time>
      </trkpt>
      <trkpt lat="45.94417" lon="4.72775">
        <ele>169</ele>
        <time>2018-05-25T08:15:38Z</time>
      </trkpt>
      <trkpt lat="45.94417" lon="4.72783">
        <ele>168</ele>
        <time>2018-05-25T08:15:39Z</time>
      </trkpt>
      <trkpt lat="45.94418" lon="4.7279">
        <ele>168</ele>
        <time>2018-05-25T08:15:40Z</time>
      </trkpt>
      <trkpt lat="45.9442" lon="4.72799">
        <ele>167</ele>
        <time>2018-05-25T08:15:42Z</time>
      </trkpt>
      <trkpt lat="45.94421" lon="4.72806">
        <ele>167</ele>
        <time>2018-05-25T08:15:43Z</time>
      </trkpt>
      <trkpt lat="45.94422" lon="4.72812">
        <ele>167</ele>
        <time>2018-05-25T08:15:44Z</time>
      </trkpt>
      <trkpt lat="45.94424" lon="4.72821">
        <ele>167</ele>
        <time>2018-05-25T08:15:45Z</time>
      </trkpt>
      <trkpt lat="45.94425" lon="4.72828">
        <ele>166</ele>
        <time>2018-05-25T08:15:46Z</time>
      </trkpt>
      <trkpt lat="45.94426" lon="4.72834">
        <ele>166</ele>
        <time>2018-05-25T08:15:47Z</time>
      </trkpt>
      <trkpt lat="45.94425" lon="4.72846">
        <ele>166</ele>
        <time>2018-05-25T08:15:49Z</time>
      </trkpt>
      <trkpt lat="45.94426" lon="4.72851">
        <ele>166</ele>
        <time>2018-05-25T08:15:50Z</time>
      </trkpt>
      <trkpt lat="45.94426" lon="4.72856">
        <ele>166</ele>
        <time>2018-05-25T08:15:51Z</time>
      </trkpt>
      <trkpt lat="45.94428" lon="4.72864">
        <ele>166</ele>
        <time>2018-05-25T08:15:52Z</time>
      </trkpt>
      <trkpt lat="45.94429" lon="4.7287">
        <ele>166</ele>
        <time>2018-05-25T08:15:53Z</time>
      </trkpt>
      <trkpt lat="45.94431" lon="4.72877">
        <ele>166</ele>
        <time>2018-05-25T08:15:54Z</time>
      </trkpt>
      <trkpt lat="45.94432" lon="4.72888">
        <ele>166</ele>
        <time>2018-05-25T08:15:56Z</time>
      </trkpt>
      <trkpt lat="45.94433" lon="4.72894">
        <ele>166</ele>
        <time>2018-05-25T08:15:57Z</time>
      </trkpt>
      <trkpt lat="45.94434" lon="4.729">
        <ele>166</ele>
        <time>2018-05-25T08:15:58Z</time>
      </trkpt>
      <trkpt lat="45.94435" lon="4.72906">
        <ele>166</ele>
        <time>2018-05-25T08:15:59Z</time>
      </trkpt>
      <trkpt lat="45.94436" lon="4.72913">
        <ele>166</ele>
        <time>2018-05-25T08:16:00Z</time>
      </trkpt>
      <trkpt lat="45.94436" lon="4.72921">
        <ele>167</ele>
        <time>2018-05-25T08:16:01Z</time>
      </trkpt>
      <trkpt lat="45.94437" lon="4.72927">
        <ele>167</ele>
        <time>2018-05-25T08:16:02Z</time>
      </trkpt>
      <trkpt lat="45.94437" lon="4.72934">
        <ele>167</ele>
        <time>2018-05-25T08:16:03Z</time>
      </trkpt>
      <trkpt lat="45.94438" lon="4.72942">
        <ele>167</ele>
        <time>2018-05-25T08:16:04Z</time>
      </trkpt>
      <trkpt lat="45.94439" lon="4.72951">
        <ele>167</ele>
        <time>2018-05-25T08:16:05Z</time>
      </trkpt>
      <trkpt lat="45.9444" lon="4.7296">
        <ele>167</ele>
        <time>2018-05-25T08:16:06Z</time>
      </trkpt>
      <trkpt lat="45.94441" lon="4.72969">
        <ele>167</ele>
        <time>2018-05-25T08:16:07Z</time>
      </trkpt>
      <trkpt lat="45.94442" lon="4.72978">
        <ele>167</ele>
        <time>2018-05-25T08:16:08Z</time>
      </trkpt>
      <trkpt lat="45.94443" lon="4.72988">
        <ele>167</ele>
        <time>2018-05-25T08:16:09Z</time>
      </trkpt>
      <trkpt lat="45.94445" lon="4.72998">
        <ele>167</ele>
        <time>2018-05-25T08:16:10Z</time>
      </trkpt>
      <trkpt lat="45.94446" lon="4.73008">
        <ele>169</ele>
        <time>2018-05-25T08:16:11Z</time>
      </trkpt>
      <trkpt lat="45.94447" lon="4.73019">
        <ele>169</ele>
        <time>2018-05-25T08:16:12Z</time>
      </trkpt>
      <trkpt lat="45.94449" lon="4.73029">
        <ele>169</ele>
        <time>2018-05-25T08:16:13Z</time>
      </trkpt>
      <trkpt lat="45.9445" lon="4.73041">
        <ele>169</ele>
        <time>2018-05-25T08:16:14Z</time>
      </trkpt>
      <trkpt lat="45.94451" lon="4.73052">
        <ele>169</ele>
        <time>2018-05-25T08:16:15Z</time>
      </trkpt>
      <trkpt lat="45.94454" lon="4.73061">
        <ele>170</ele>
        <time>2018-05-25T08:16:16Z</time>
      </trkpt>
      <trkpt lat="45.94455" lon="4.73072">
        <ele>170</ele>
        <time>2018-05-25T08:16:17Z</time>
      </trkpt>
      <trkpt lat="45.94457" lon="4.73082">
        <ele>170</ele>
        <time>2018-05-25T08:16:18Z</time>
      </trkpt>
      <trkpt lat="45.94458" lon="4.73093">
        <ele>171</ele>
        <time>2018-05-25T08:16:19Z</time>
      </trkpt>
      <trkpt lat="45.94459" lon="4.73103">
        <ele>171</ele>
        <time>2018-05-25T08:16:20Z</time>
      </trkpt>
      <trkpt lat="45.94461" lon="4.73115">
        <ele>172</ele>
        <time>2018-05-25T08:16:21Z</time>
      </trkpt>
      <trkpt lat="45.94463" lon="4.73125">
        <ele>172</ele>
        <time>2018-05-25T08:16:22Z</time>
      </trkpt>
      <trkpt lat="45.94463" lon="4.73135">
        <ele>172</ele>
        <time>2018-05-25T08:16:23Z</time>
      </trkpt>
      <trkpt lat="45.94465" lon="4.73143">
        <ele>172</ele>
        <time>2018-05-25T08:16:24Z</time>
      </trkpt>
      <trkpt lat="45.94467" lon="4.73151">
        <ele>172</ele>
        <time>2018-05-25T08:16:25Z</time>
      </trkpt>
      <trkpt lat="45.94469" lon="4.73159">
        <ele>172</ele>
        <time>2018-05-25T08:16:26Z</time>
      </trkpt>
      <trkpt lat="45.9447" lon="4.73168">
        <ele>174</ele>
        <time>2018-05-25T08:16:27Z</time>
      </trkpt>
      <trkpt lat="45.94471" lon="4.73174">
        <ele>174</ele>
        <time>2018-05-25T08:16:28Z</time>
      </trkpt>
      <trkpt lat="45.94471" lon="4.73181">
        <ele>174</ele>
        <time>2018-05-25T08:16:29Z</time>
      </trkpt>
      <trkpt lat="45.94472" lon="4.73189">
        <ele>174</ele>
        <time>2018-05-25T08:16:30Z</time>
      </trkpt>
      <trkpt lat="45.94472" lon="4.73196">
        <ele>174</ele>
        <time>2018-05-25T08:16:31Z</time>
      </trkpt>
      <trkpt lat="45.94472" lon="4.73205">
        <ele>175</ele>
        <time>2018-05-25T08:16:32Z</time>
      </trkpt>
      <trkpt lat="45.94473" lon="4.73212">
        <ele>175</ele>
        <time>2018-05-25T08:16:33Z</time>
      </trkpt>
      <trkpt lat="45.94474" lon="4.7322">
        <ele>175</ele>
        <time>2018-05-25T08:16:34Z</time>
      </trkpt>
      <trkpt lat="45.94475" lon="4.73227">
        <ele>175</ele>
        <time>2018-05-25T08:16:35Z</time>
      </trkpt>
      <trkpt lat="45.94477" lon="4.73237">
        <ele>175</ele>
        <time>2018-05-25T08:16:37Z</time>
      </trkpt>
      <trkpt lat="45.94479" lon="4.73245">
        <ele>175</ele>
        <time>2018-05-25T08:16:38Z</time>
      </trkpt>
      <trkpt lat="45.94478" lon="4.73251">
        <ele>176</ele>
        <time>2018-05-25T08:16:39Z</time>
      </trkpt>
      <trkpt lat="45.94478" lon="4.73258">
        <ele>177</ele>
        <time>2018-05-25T08:16:40Z</time>
      </trkpt>
      <trkpt lat="45.9448" lon="4.73263">
        <ele>177</ele>
        <time>2018-05-25T08:16:41Z</time>
      </trkpt>
      <trkpt lat="45.94481" lon="4.73271">
        <ele>177</ele>
        <time>2018-05-25T08:16:42Z</time>
      </trkpt>
      <trkpt lat="45.94483" lon="4.73279">
        <ele>177</ele>
        <time>2018-05-25T08:16:43Z</time>
      </trkpt>
      <trkpt lat="45.94483" lon="4.73285">
        <ele>177</ele>
        <time>2018-05-25T08:16:44Z</time>
      </trkpt>
      <trkpt lat="45.94485" lon="4.73296">
        <ele>177</ele>
        <time>2018-05-25T08:16:46Z</time>
      </trkpt>
      <trkpt lat="45.94486" lon="4.73304">
        <ele>177</ele>
        <time>2018-05-25T08:16:47Z</time>
      </trkpt>
      <trkpt lat="45.94486" lon="4.73314">
        <ele>177</ele>
        <time>2018-05-25T08:16:49Z</time>
      </trkpt>
      <trkpt lat="45.94486" lon="4.7332">
        <ele>177</ele>
        <time>2018-05-25T08:16:50Z</time>
      </trkpt>
      <trkpt lat="45.94487" lon="4.73331">
        <ele>177</ele>
        <time>2018-05-25T08:16:52Z</time>
      </trkpt>
      <trkpt lat="45.94487" lon="4.73337">
        <ele>178</ele>
        <time>2018-05-25T08:16:53Z</time>
      </trkpt>
      <trkpt lat="45.94489" lon="4.73347">
        <ele>178</ele>
        <time>2018-05-25T08:16:55Z</time>
      </trkpt>
      <trkpt lat="45.9449" lon="4.73352">
        <ele>178</ele>
        <time>2018-05-25T08:16:56Z</time>
      </trkpt>
      <trkpt lat="45.94491" lon="4.73363">
        <ele>179</ele>
        <time>2018-05-25T08:16:58Z</time>
      </trkpt>
      <trkpt lat="45.94491" lon="4.73368">
        <ele>179</ele>
        <time>2018-05-25T08:16:59Z</time>
      </trkpt>
      <trkpt lat="45.94492" lon="4.73378">
        <ele>179</ele>
        <time>2018-05-25T08:17:01Z</time>
      </trkpt>
      <trkpt lat="45.94492" lon="4.73384">
        <ele>179</ele>
        <time>2018-05-25T08:17:02Z</time>
      </trkpt>
      <trkpt lat="45.94493" lon="4.73394">
        <ele>179</ele>
        <time>2018-05-25T08:17:04Z</time>
      </trkpt>
      <trkpt lat="45.94494" lon="4.73399">
        <ele>180</ele>
        <time>2018-05-25T08:17:05Z</time>
      </trkpt>
      <trkpt lat="45.94494" lon="4.73404">
        <ele>180</ele>
        <time>2018-05-25T08:17:07Z</time>
      </trkpt>
      <trkpt lat="45.94495" lon="4.73412">
        <ele>180</ele>
        <time>2018-05-25T08:17:08Z</time>
      </trkpt>
      <trkpt lat="45.94496" lon="4.73417">
        <ele>180</ele>
        <time>2018-05-25T08:17:10Z</time>
      </trkpt>
      <trkpt lat="45.94496" lon="4.73426">
        <ele>181</ele>
        <time>2018-05-25T08:17:11Z</time>
      </trkpt>
      <trkpt lat="45.94495" lon="4.73437">
        <ele>181</ele>
        <time>2018-05-25T08:17:13Z</time>
      </trkpt>
      <trkpt lat="45.94495" lon="4.73442">
        <ele>181</ele>
        <time>2018-05-25T08:17:14Z</time>
      </trkpt>
      <trkpt lat="45.94494" lon="4.73454">
        <ele>182</ele>
        <time>2018-05-25T08:17:16Z</time>
      </trkpt>
      <trkpt lat="45.94494" lon="4.7346">
        <ele>182</ele>
        <time>2018-05-25T08:17:17Z</time>
      </trkpt>
      <trkpt lat="45.94495" lon="4.73469">
        <ele>182</ele>
        <time>2018-05-25T08:17:19Z</time>
      </trkpt>
      <trkpt lat="45.94496" lon="4.73472">
        <ele>182</ele>
        <time>2018-05-25T08:17:20Z</time>
      </trkpt>
      <trkpt lat="45.94496" lon="4.7348">
        <ele>182</ele>
        <time>2018-05-25T08:17:22Z</time>
      </trkpt>
      <trkpt lat="45.94497" lon="4.73492">
        <ele>183</ele>
        <time>2018-05-25T08:17:23Z</time>
      </trkpt>
      <trkpt lat="45.94496" lon="4.73503">
        <ele>183</ele>
        <time>2018-05-25T08:17:25Z</time>
      </trkpt>
      <trkpt lat="45.94495" lon="4.73508">
        <ele>184</ele>
        <time>2018-05-25T08:17:26Z</time>
      </trkpt>
      <trkpt lat="45.94495" lon="4.73519">
        <ele>184</ele>
        <time>2018-05-25T08:17:28Z</time>
      </trkpt>
      <trkpt lat="45.94495" lon="4.73524">
        <ele>184</ele>
        <time>2018-05-25T08:17:29Z</time>
      </trkpt>
      <trkpt lat="45.94495" lon="4.73535">
        <ele>184</ele>
        <time>2018-05-25T08:17:31Z</time>
      </trkpt>
      <trkpt lat="45.94495" lon="4.7354">
        <ele>184</ele>
        <time>2018-05-25T08:17:32Z</time>
      </trkpt>
      <trkpt lat="45.94494" lon="4.73551">
        <ele>185</ele>
        <time>2018-05-25T08:17:34Z</time>
      </trkpt>
      <trkpt lat="45.94494" lon="4.73557">
        <ele>185</ele>
        <time>2018-05-25T08:17:35Z</time>
      </trkpt>
      <trkpt lat="45.94494" lon="4.73569">
        <ele>185</ele>
        <time>2018-05-25T08:17:37Z</time>
      </trkpt>
      <trkpt lat="45.94494" lon="4.73576">
        <ele>185</ele>
        <time>2018-05-25T08:17:38Z</time>
      </trkpt>
      <trkpt lat="45.94494" lon="4.73582">
        <ele>185</ele>
        <time>2018-05-25T08:17:39Z</time>
      </trkpt>
      <trkpt lat="45.94494" lon="4.73589">
        <ele>185</ele>
        <time>2018-05-25T08:17:40Z</time>
      </trkpt>
      <trkpt lat="45.94493" lon="4.73601">
        <ele>186</ele>
        <time>2018-05-25T08:17:42Z</time>
      </trkpt>
      <trkpt lat="45.94492" lon="4.73607">
        <ele>186</ele>
        <time>2018-05-25T08:17:43Z</time>
      </trkpt>
      <trkpt lat="45.94492" lon="4.73619">
        <ele>186</ele>
        <time>2018-05-25T08:17:45Z</time>
      </trkpt>
      <trkpt lat="45.9449" lon="4.73625">
        <ele>186</ele>
        <time>2018-05-25T08:17:46Z</time>
      </trkpt>
      <trkpt lat="45.94489" lon="4.73631">
        <ele>186</ele>
        <time>2018-05-25T08:17:47Z</time>
      </trkpt>
      <trkpt lat="45.94489" lon="4.73638">
        <ele>186</ele>
        <time>2018-05-25T08:17:48Z</time>
      </trkpt>
      <trkpt lat="45.94487" lon="4.73645">
        <ele>186</ele>
        <time>2018-05-25T08:17:49Z</time>
      </trkpt>
      <trkpt lat="45.94487" lon="4.73653">
        <ele>186</ele>
        <time>2018-05-25T08:17:50Z</time>
      </trkpt>
      <trkpt lat="45.94486" lon="4.7366">
        <ele>185</ele>
        <time>2018-05-25T08:17:51Z</time>
      </trkpt>
      <trkpt lat="45.94485" lon="4.73667">
        <ele>186</ele>
        <time>2018-05-25T08:17:52Z</time>
      </trkpt>
      <trkpt lat="45.94482" lon="4.73677">
        <ele>186</ele>
        <time>2018-05-25T08:17:53Z</time>
      </trkpt>
      <trkpt lat="45.94481" lon="4.73684">
        <ele>186</ele>
        <time>2018-05-25T08:17:54Z</time>
      </trkpt>
      <trkpt lat="45.9448" lon="4.73691">
        <ele>186</ele>
        <time>2018-05-25T08:17:55Z</time>
      </trkpt>
      <trkpt lat="45.9448" lon="4.73702">
        <ele>186</ele>
        <time>2018-05-25T08:17:56Z</time>
      </trkpt>
      <trkpt lat="45.94479" lon="4.7371">
        <ele>186</ele>
        <time>2018-05-25T08:17:57Z</time>
      </trkpt>
      <trkpt lat="45.94479" lon="4.73717">
        <ele>186</ele>
        <time>2018-05-25T08:17:58Z</time>
      </trkpt>
      <trkpt lat="45.94477" lon="4.73724">
        <ele>186</ele>
        <time>2018-05-25T08:17:59Z</time>
      </trkpt>
      <trkpt lat="45.94476" lon="4.73732">
        <ele>186</ele>
        <time>2018-05-25T08:18:00Z</time>
      </trkpt>
      <trkpt lat="45.94475" lon="4.7374">
        <ele>186</ele>
        <time>2018-05-25T08:18:01Z</time>
      </trkpt>
      <trkpt lat="45.94474" lon="4.73747">
        <ele>186</ele>
        <time>2018-05-25T08:18:02Z</time>
      </trkpt>
      <trkpt lat="45.94473" lon="4.73755">
        <ele>186</ele>
        <time>2018-05-25T08:18:03Z</time>
      </trkpt>
      <trkpt lat="45.94471" lon="4.73759">
        <ele>186</ele>
        <time>2018-05-25T08:18:04Z</time>
      </trkpt>
      <trkpt lat="45.94471" lon="4.73767">
        <ele>186</ele>
        <time>2018-05-25T08:18:05Z</time>
      </trkpt>
      <trkpt lat="45.94473" lon="4.73773">
        <ele>186</ele>
        <time>2018-05-25T08:18:06Z</time>
      </trkpt>
      <trkpt lat="45.94477" lon="4.73779">
        <ele>186</ele>
        <time>2018-05-25T08:18:07Z</time>
      </trkpt>
      <trkpt lat="45.94482" lon="4.73782">
        <ele>186</ele>
        <time>2018-05-25T08:18:08Z</time>
      </trkpt>
      <trkpt lat="45.94485" lon="4.73787">
        <ele>186</ele>
        <time>2018-05-25T08:18:09Z</time>
      </trkpt>
      <trkpt lat="45.9449" lon="4.7379">
        <ele>186</ele>
        <time>2018-05-25T08:18:10Z</time>
      </trkpt>
      <trkpt lat="45.94494" lon="4.73793">
        <ele>185</ele>
        <time>2018-05-25T08:18:11Z</time>
      </trkpt>
      <trkpt lat="45.94498" lon="4.73797">
        <ele>185</ele>
        <time>2018-05-25T08:18:12Z</time>
      </trkpt>
      <trkpt lat="45.94503" lon="4.738">
        <ele>186</ele>
        <time>2018-05-25T08:18:13Z</time>
      </trkpt>
      <trkpt lat="45.94507" lon="4.73804">
        <ele>186</ele>
        <time>2018-05-25T08:18:14Z</time>
      </trkpt>
      <trkpt lat="45.94511" lon="4.73808">
        <ele>186</ele>
        <time>2018-05-25T08:18:15Z</time>
      </trkpt>
      <trkpt lat="45.94516" lon="4.73811">
        <ele>186</ele>
        <time>2018-05-25T08:18:16Z</time>
      </trkpt>
      <trkpt lat="45.94521" lon="4.73814">
        <ele>186</ele>
        <time>2018-05-25T08:18:17Z</time>
      </trkpt>
      <trkpt lat="45.94525" lon="4.73818">
        <ele>186</ele>
        <time>2018-05-25T08:18:18Z</time>
      </trkpt>
      <trkpt lat="45.9453" lon="4.73822">
        <ele>186</ele>
        <time>2018-05-25T08:18:19Z</time>
      </trkpt>
      <trkpt lat="45.94534" lon="4.73826">
        <ele>186</ele>
        <time>2018-05-25T08:18:20Z</time>
      </trkpt>
      <trkpt lat="45.94538" lon="4.73831">
        <ele>186</ele>
        <time>2018-05-25T08:18:21Z</time>
      </trkpt>
      <trkpt lat="45.94542" lon="4.73835">
        <ele>186</ele>
        <time>2018-05-25T08:18:22Z</time>
      </trkpt>
      <trkpt lat="45.94546" lon="4.73839">
        <ele>186</ele>
        <time>2018-05-25T08:18:23Z</time>
      </trkpt>
      <trkpt lat="45.9455" lon="4.73844">
        <ele>186</ele>
        <time>2018-05-25T08:18:24Z</time>
      </trkpt>
      <trkpt lat="45.94557" lon="4.73851">
        <ele>186</ele>
        <time>2018-05-25T08:18:26Z</time>
      </trkpt>
      <trkpt lat="45.94561" lon="4.73855">
        <ele>186</ele>
        <time>2018-05-25T08:18:27Z</time>
      </trkpt>
      <trkpt lat="45.94566" lon="4.73859">
        <ele>186</ele>
        <time>2018-05-25T08:18:28Z</time>
      </trkpt>
      <trkpt lat="45.9457" lon="4.73863">
        <ele>186</ele>
        <time>2018-05-25T08:18:29Z</time>
      </trkpt>
      <trkpt lat="45.94577" lon="4.7387">
        <ele>186</ele>
        <time>2018-05-25T08:18:31Z</time>
      </trkpt>
      <trkpt lat="45.94581" lon="4.73874">
        <ele>186</ele>
        <time>2018-05-25T08:18:32Z</time>
      </trkpt>
      <trkpt lat="45.94588" lon="4.73881">
        <ele>187</ele>
        <time>2018-05-25T08:18:34Z</time>
      </trkpt>
      <trkpt lat="45.94591" lon="4.73885">
        <ele>187</ele>
        <time>2018-05-25T08:18:35Z</time>
      </trkpt>
      <trkpt lat="45.94597" lon="4.73893">
        <ele>187</ele>
        <time>2018-05-25T08:18:37Z</time>
      </trkpt>
      <trkpt lat="45.94601" lon="4.73898">
        <ele>187</ele>
        <time>2018-05-25T08:18:38Z</time>
      </trkpt>
      <trkpt lat="45.94608" lon="4.73906">
        <ele>187</ele>
        <time>2018-05-25T08:18:40Z</time>
      </trkpt>
      <trkpt lat="45.94611" lon="4.7391">
        <ele>187</ele>
        <time>2018-05-25T08:18:41Z</time>
      </trkpt>
      <trkpt lat="45.94615" lon="4.73915">
        <ele>187</ele>
        <time>2018-05-25T08:18:42Z</time>
      </trkpt>
      <trkpt lat="45.94617" lon="4.7392">
        <ele>187</ele>
        <time>2018-05-25T08:18:43Z</time>
      </trkpt>
      <trkpt lat="45.94622" lon="4.73924">
        <ele>187</ele>
        <time>2018-05-25T08:18:44Z</time>
      </trkpt>
      <trkpt lat="45.94625" lon="4.73928">
        <ele>187</ele>
        <time>2018-05-25T08:18:45Z</time>
      </trkpt>
      <trkpt lat="45.94629" lon="4.73932">
        <ele>187</ele>
        <time>2018-05-25T08:18:46Z</time>
      </trkpt>
      <trkpt lat="45.94633" lon="4.73937">
        <ele>187</ele>
        <time>2018-05-25T08:18:47Z</time>
      </trkpt>
      <trkpt lat="45.94637" lon="4.7394">
        <ele>187</ele>
        <time>2018-05-25T08:18:48Z</time>
      </trkpt>
      <trkpt lat="45.94641" lon="4.73944">
        <ele>187</ele>
        <time>2018-05-25T08:18:49Z</time>
      </trkpt>
      <trkpt lat="45.94645" lon="4.73949">
        <ele>187</ele>
        <time>2018-05-25T08:18:50Z</time>
      </trkpt>
      <trkpt lat="45.94647" lon="4.73954">
        <ele>187</ele>
        <time>2018-05-25T08:18:51Z</time>
      </trkpt>
      <trkpt lat="45.94653" lon="4.73963">
        <ele>187</ele>
        <time>2018-05-25T08:18:53Z</time>
      </trkpt>
      <trkpt lat="45.94657" lon="4.73969">
        <ele>187</ele>
        <time>2018-05-25T08:18:54Z</time>
      </trkpt>
      <trkpt lat="45.9466" lon="4.73973">
        <ele>187</ele>
        <time>2018-05-25T08:18:55Z</time>
      </trkpt>
      <trkpt lat="45.94664" lon="4.73978">
        <ele>187</ele>
        <time>2018-05-25T08:18:56Z</time>
      </trkpt>
      <trkpt lat="45.94668" lon="4.73984">
        <ele>187</ele>
        <time>2018-05-25T08:18:57Z</time>
      </trkpt>
      <trkpt lat="45.94672" lon="4.73988">
        <ele>187</ele>
        <time>2018-05-25T08:18:58Z</time>
      </trkpt>
      <trkpt lat="45.94675" lon="4.73993">
        <ele>187</ele>
        <time>2018-05-25T08:18:59Z</time>
      </trkpt>
      <trkpt lat="45.94679" lon="4.73997">
        <ele>187</ele>
        <time>2018-05-25T08:19:00Z</time>
      </trkpt>
      <trkpt lat="45.94683" lon="4.74002">
        <ele>187</ele>
        <time>2018-05-25T08:19:01Z</time>
      </trkpt>
      <trkpt lat="45.94687" lon="4.74007">
        <ele>187</ele>
        <time>2018-05-25T08:19:02Z</time>
      </trkpt>
      <trkpt lat="45.9469" lon="4.74012">
        <ele>187</ele>
        <time>2018-05-25T08:19:03Z</time>
      </trkpt>
      <trkpt lat="45.94694" lon="4.74017">
        <ele>187</ele>
        <time>2018-05-25T08:19:04Z</time>
      </trkpt>
      <trkpt lat="45.94697" lon="4.74022">
        <ele>187</ele>
        <time>2018-05-25T08:19:05Z</time>
      </trkpt>
      <trkpt lat="45.947" lon="4.74027">
        <ele>187</ele>
        <time>2018-05-25T08:19:06Z</time>
      </trkpt>
      <trkpt lat="45.94704" lon="4.74032">
        <ele>187</ele>
        <time>2018-05-25T08:19:07Z</time>
      </trkpt>
      <trkpt lat="45.94707" lon="4.74037">
        <ele>187</ele>
        <time>2018-05-25T08:19:08Z</time>
      </trkpt>
      <trkpt lat="45.9471" lon="4.74041">
        <ele>187</ele>
        <time>2018-05-25T08:19:09Z</time>
      </trkpt>
      <trkpt lat="45.94714" lon="4.74047">
        <ele>187</ele>
        <time>2018-05-25T08:19:10Z</time>
      </trkpt>
      <trkpt lat="45.94721" lon="4.74054">
        <ele>187</ele>
        <time>2018-05-25T08:19:12Z</time>
      </trkpt>
      <trkpt lat="45.94724" lon="4.74059">
        <ele>188</ele>
        <time>2018-05-25T08:19:13Z</time>
      </trkpt>
      <trkpt lat="45.94727" lon="4.74065">
        <ele>188</ele>
        <time>2018-05-25T08:19:14Z</time>
      </trkpt>
      <trkpt lat="45.9473" lon="4.74069">
        <ele>188</ele>
        <time>2018-05-25T08:19:15Z</time>
      </trkpt>
      <trkpt lat="45.94733" lon="4.74075">
        <ele>188</ele>
        <time>2018-05-25T08:19:16Z</time>
      </trkpt>
      <trkpt lat="45.94737" lon="4.7408">
        <ele>188</ele>
        <time>2018-05-25T08:19:17Z</time>
      </trkpt>
      <trkpt lat="45.94741" lon="4.74086">
        <ele>188</ele>
        <time>2018-05-25T08:19:18Z</time>
      </trkpt>
      <trkpt lat="45.94744" lon="4.74092">
        <ele>188</ele>
        <time>2018-05-25T08:19:19Z</time>
      </trkpt>
      <trkpt lat="45.94748" lon="4.74096">
        <ele>188</ele>
        <time>2018-05-25T08:19:20Z</time>
      </trkpt>
      <trkpt lat="45.94752" lon="4.74101">
        <ele>189</ele>
        <time>2018-05-25T08:19:21Z</time>
      </trkpt>
      <trkpt lat="45.94755" lon="4.74105">
        <ele>189</ele>
        <time>2018-05-25T08:19:22Z</time>
      </trkpt>
      <trkpt lat="45.9476" lon="4.74109">
        <ele>189</ele>
        <time>2018-05-25T08:19:23Z</time>
      </trkpt>
      <trkpt lat="45.94764" lon="4.74113">
        <ele>189</ele>
        <time>2018-05-25T08:19:24Z</time>
      </trkpt>
      <trkpt lat="45.94767" lon="4.74118">
        <ele>189</ele>
        <time>2018-05-25T08:19:25Z</time>
      </trkpt>
      <trkpt lat="45.9477" lon="4.74123">
        <ele>189</ele>
        <time>2018-05-25T08:19:26Z</time>
      </trkpt>
      <trkpt lat="45.94776" lon="4.74128">
        <ele>189</ele>
        <time>2018-05-25T08:19:27Z</time>
      </trkpt>
      <trkpt lat="45.94779" lon="4.74134">
        <ele>189</ele>
        <time>2018-05-25T08:19:28Z</time>
      </trkpt>
      <trkpt lat="45.94782" lon="4.7414">
        <ele>189</ele>
        <time>2018-05-25T08:19:29Z</time>
      </trkpt>
      <trkpt lat="45.94787" lon="4.74146">
        <ele>189</ele>
        <time>2018-05-25T08:19:30Z</time>
      </trkpt>
      <trkpt lat="45.9479" lon="4.74151">
        <ele>189</ele>
        <time>2018-05-25T08:19:31Z</time>
      </trkpt>
      <trkpt lat="45.94792" lon="4.74156">
        <ele>189</ele>
        <time>2018-05-25T08:19:32Z</time>
      </trkpt>
      <trkpt lat="45.94795" lon="4.74162">
        <ele>189</ele>
        <time>2018-05-25T08:19:33Z</time>
      </trkpt>
      <trkpt lat="45.94798" lon="4.74166">
        <ele>189</ele>
        <time>2018-05-25T08:19:34Z</time>
      </trkpt>
      <trkpt lat="45.94801" lon="4.74172">
        <ele>189</ele>
        <time>2018-05-25T08:19:35Z</time>
      </trkpt>
      <trkpt lat="45.94805" lon="4.74177">
        <ele>189</ele>
        <time>2018-05-25T08:19:36Z</time>
      </trkpt>
      <trkpt lat="45.94808" lon="4.74182">
        <ele>189</ele>
        <time>2018-05-25T08:19:37Z</time>
      </trkpt>
      <trkpt lat="45.94812" lon="4.74188">
        <ele>189</ele>
        <time>2018-05-25T08:19:38Z</time>
      </trkpt>
      <trkpt lat="45.94815" lon="4.74194">
        <ele>189</ele>
        <time>2018-05-25T08:19:39Z</time>
      </trkpt>
      <trkpt lat="45.94818" lon="4.74199">
        <ele>189</ele>
        <time>2018-05-25T08:19:40Z</time>
      </trkpt>
      <trkpt lat="45.94821" lon="4.74205">
        <ele>189</ele>
        <time>2018-05-25T08:19:41Z</time>
      </trkpt>
      <trkpt lat="45.94823" lon="4.7421">
        <ele>188</ele>
        <time>2018-05-25T08:19:42Z</time>
      </trkpt>
      <trkpt lat="45.94826" lon="4.74216">
        <ele>188</ele>
        <time>2018-05-25T08:19:43Z</time>
      </trkpt>
      <trkpt lat="45.94829" lon="4.74224">
        <ele>188</ele>
        <time>2018-05-25T08:19:44Z</time>
      </trkpt>
      <trkpt lat="45.94832" lon="4.74231">
        <ele>189</ele>
        <time>2018-05-25T08:19:45Z</time>
      </trkpt>
      <trkpt lat="45.94835" lon="4.74237">
        <ele>190</ele>
        <time>2018-05-25T08:19:46Z</time>
      </trkpt>
      <trkpt lat="45.94838" lon="4.74244">
        <ele>189</ele>
        <time>2018-05-25T08:19:47Z</time>
      </trkpt>
      <trkpt lat="45.94842" lon="4.74251">
        <ele>190</ele>
        <time>2018-05-25T08:19:48Z</time>
      </trkpt>
      <trkpt lat="45.94846" lon="4.74256">
        <ele>190</ele>
        <time>2018-05-25T08:19:49Z</time>
      </trkpt>
      <trkpt lat="45.94849" lon="4.74262">
        <ele>190</ele>
        <time>2018-05-25T08:19:50Z</time>
      </trkpt>
      <trkpt lat="45.94852" lon="4.74268">
        <ele>190</ele>
        <time>2018-05-25T08:19:51Z</time>
      </trkpt>
      <trkpt lat="45.94856" lon="4.74275">
        <ele>190</ele>
        <time>2018-05-25T08:19:52Z</time>
      </trkpt>
      <trkpt lat="45.94859" lon="4.74281">
        <ele>190</ele>
        <time>2018-05-25T08:19:53Z</time>
      </trkpt>
      <trkpt lat="45.94861" lon="4.74287">
        <ele>191</ele>
        <time>2018-05-25T08:19:54Z</time>
      </trkpt>
      <trkpt lat="45.94865" lon="4.74293">
        <ele>191</ele>
        <time>2018-05-25T08:19:55Z</time>
      </trkpt>
      <trkpt lat="45.94868" lon="4.743">
        <ele>191</ele>
        <time>2018-05-25T08:19:56Z</time>
      </trkpt>
      <trkpt lat="45.94871" lon="4.74306">
        <ele>191</ele>
        <time>2018-05-25T08:19:57Z</time>
      </trkpt>
      <trkpt lat="45.94874" lon="4.74312">
        <ele>191</ele>
        <time>2018-05-25T08:19:58Z</time>
      </trkpt>
      <trkpt lat="45.94878" lon="4.74318">
        <ele>191</ele>
        <time>2018-05-25T08:19:59Z</time>
      </trkpt>
      <trkpt lat="45.94881" lon="4.74323">
        <ele>191</ele>
        <time>2018-05-25T08:20:00Z</time>
      </trkpt>
      <trkpt lat="45.94884" lon="4.74329">
        <ele>191</ele>
        <time>2018-05-25T08:20:01Z</time>
      </trkpt>
      <trkpt lat="45.94888" lon="4.74335">
        <ele>191</ele>
        <time>2018-05-25T08:20:02Z</time>
      </trkpt>
      <trkpt lat="45.94891" lon="4.7434">
        <ele>191</ele>
        <time>2018-05-25T08:20:03Z</time>
      </trkpt>
      <trkpt lat="45.94894" lon="4.74347">
        <ele>191</ele>
        <time>2018-05-25T08:20:04Z</time>
      </trkpt>
      <trkpt lat="45.94897" lon="4.74353">
        <ele>191</ele>
        <time>2018-05-25T08:20:05Z</time>
      </trkpt>
      <trkpt lat="45.949" lon="4.74359">
        <ele>191</ele>
        <time>2018-05-25T08:20:06Z</time>
      </trkpt>
      <trkpt lat="45.94903" lon="4.74365">
        <ele>191</ele>
        <time>2018-05-25T08:20:07Z</time>
      </trkpt>
      <trkpt lat="45.94906" lon="4.74371">
        <ele>191</ele>
        <time>2018-05-25T08:20:08Z</time>
      </trkpt>
      <trkpt lat="45.94909" lon="4.74377">
        <ele>191</ele>
        <time>2018-05-25T08:20:09Z</time>
      </trkpt>
      <trkpt lat="45.94913" lon="4.74383">
        <ele>191</ele>
        <time>2018-05-25T08:20:10Z</time>
      </trkpt>
      <trkpt lat="45.94917" lon="4.74388">
        <ele>192</ele>
        <time>2018-05-25T08:20:11Z</time>
      </trkpt>
      <trkpt lat="45.9492" lon="4.74394">
        <ele>192</ele>
        <time>2018-05-25T08:20:12Z</time>
      </trkpt>
      <trkpt lat="45.94924" lon="4.74398">
        <ele>192</ele>
        <time>2018-05-25T08:20:13Z</time>
      </trkpt>
      <trkpt lat="45.94928" lon="4.74404">
        <ele>192</ele>
        <time>2018-05-25T08:20:14Z</time>
      </trkpt>
      <trkpt lat="45.9493" lon="4.74409">
        <ele>192</ele>
        <time>2018-05-25T08:20:15Z</time>
      </trkpt>
      <trkpt lat="45.94933" lon="4.74415">
        <ele>192</ele>
        <time>2018-05-25T08:20:16Z</time>
      </trkpt>
      <trkpt lat="45.94937" lon="4.7442">
        <ele>192</ele>
        <time>2018-05-25T08:20:17Z</time>
      </trkpt>
      <trkpt lat="45.9494" lon="4.74426">
        <ele>192</ele>
        <time>2018-05-25T08:20:18Z</time>
      </trkpt>
      <trkpt lat="45.94944" lon="4.74433">
        <ele>192</ele>
        <time>2018-05-25T08:20:19Z</time>
      </trkpt>
      <trkpt lat="45.94947" lon="4.74439">
        <ele>192</ele>
        <time>2018-05-25T08:20:20Z</time>
      </trkpt>
      <trkpt lat="45.94949" lon="4.74444">
        <ele>192</ele>
        <time>2018-05-25T08:20:21Z</time>
      </trkpt>
      <trkpt lat="45.94951" lon="4.74451">
        <ele>192</ele>
        <time>2018-05-25T08:20:22Z</time>
      </trkpt>
      <trkpt lat="45.94954" lon="4.74457">
        <ele>192</ele>
        <time>2018-05-25T08:20:23Z</time>
      </trkpt>
      <trkpt lat="45.94956" lon="4.74462">
        <ele>193</ele>
        <time>2018-05-25T08:20:24Z</time>
      </trkpt>
      <trkpt lat="45.94959" lon="4.74468">
        <ele>193</ele>
        <time>2018-05-25T08:20:25Z</time>
      </trkpt>
      <trkpt lat="45.94962" lon="4.74473">
        <ele>193</ele>
        <time>2018-05-25T08:20:26Z</time>
      </trkpt>
      <trkpt lat="45.94965" lon="4.74479">
        <ele>193</ele>
        <time>2018-05-25T08:20:27Z</time>
      </trkpt>
      <trkpt lat="45.94967" lon="4.74485">
        <ele>193</ele>
        <time>2018-05-25T08:20:28Z</time>
      </trkpt>
      <trkpt lat="45.94971" lon="4.74491">
        <ele>193</ele>
        <time>2018-05-25T08:20:29Z</time>
      </trkpt>
      <trkpt lat="45.94974" lon="4.74496">
        <ele>193</ele>
        <time>2018-05-25T08:20:30Z</time>
      </trkpt>
      <trkpt lat="45.94977" lon="4.74502">
        <ele>193</ele>
        <time>2018-05-25T08:20:31Z</time>
      </trkpt>
      <trkpt lat="45.9498" lon="4.74508">
        <ele>193</ele>
        <time>2018-05-25T08:20:32Z</time>
      </trkpt>
      <trkpt lat="45.94983" lon="4.74515">
        <ele>193</ele>
        <time>2018-05-25T08:20:33Z</time>
      </trkpt>
      <trkpt lat="45.94986" lon="4.74522">
        <ele>193</ele>
        <time>2018-05-25T08:20:34Z</time>
      </trkpt>
      <trkpt lat="45.94989" lon="4.74529">
        <ele>193</ele>
        <time>2018-05-25T08:20:35Z</time>
      </trkpt>
      <trkpt lat="45.94992" lon="4.74535">
        <ele>193</ele>
        <time>2018-05-25T08:20:36Z</time>
      </trkpt>
      <trkpt lat="45.94994" lon="4.7454">
        <ele>193</ele>
        <time>2018-05-25T08:20:37Z</time>
      </trkpt>
      <trkpt lat="45.94997" lon="4.74545">
        <ele>193</ele>
        <time>2018-05-25T08:20:38Z</time>
      </trkpt>
      <trkpt lat="45.95001" lon="4.74551">
        <ele>194</ele>
        <time>2018-05-25T08:20:39Z</time>
      </trkpt>
      <trkpt lat="45.95004" lon="4.74555">
        <ele>194</ele>
        <time>2018-05-25T08:20:40Z</time>
      </trkpt>
      <trkpt lat="45.95007" lon="4.74562">
        <ele>194</ele>
        <time>2018-05-25T08:20:41Z</time>
      </trkpt>
      <trkpt lat="45.9501" lon="4.74567">
        <ele>194</ele>
        <time>2018-05-25T08:20:42Z</time>
      </trkpt>
      <trkpt lat="45.95013" lon="4.74572">
        <ele>194</ele>
        <time>2018-05-25T08:20:43Z</time>
      </trkpt>
      <trkpt lat="45.95018" lon="4.74582">
        <ele>194</ele>
        <time>2018-05-25T08:20:45Z</time>
      </trkpt>
      <trkpt lat="45.95022" lon="4.74586">
        <ele>194</ele>
        <time>2018-05-25T08:20:46Z</time>
      </trkpt>
      <trkpt lat="45.95023" lon="4.74594">
        <ele>194</ele>
        <time>2018-05-25T08:20:47Z</time>
      </trkpt>
      <trkpt lat="45.95026" lon="4.74599">
        <ele>194</ele>
        <time>2018-05-25T08:20:48Z</time>
      </trkpt>
      <trkpt lat="45.95029" lon="4.74605">
        <ele>194</ele>
        <time>2018-05-25T08:20:49Z</time>
      </trkpt>
      <trkpt lat="45.95032" lon="4.7461">
        <ele>194</ele>
        <time>2018-05-25T08:20:50Z</time>
      </trkpt>
      <trkpt lat="45.95035" lon="4.74616">
        <ele>194</ele>
        <time>2018-05-25T08:20:51Z</time>
      </trkpt>
      <trkpt lat="45.9504" lon="4.74624">
        <ele>194</ele>
        <time>2018-05-25T08:20:52Z</time>
      </trkpt>
      <trkpt lat="45.95043" lon="4.74629">
        <ele>194</ele>
        <time>2018-05-25T08:20:53Z</time>
      </trkpt>
      <trkpt lat="45.95044" lon="4.74635">
        <ele>194</ele>
        <time>2018-05-25T08:20:54Z</time>
      </trkpt>
      <trkpt lat="45.95047" lon="4.74641">
        <ele>194</ele>
        <time>2018-05-25T08:20:55Z</time>
      </trkpt>
      <trkpt lat="45.95051" lon="4.74647">
        <ele>194</ele>
        <time>2018-05-25T08:20:56Z</time>
      </trkpt>
      <trkpt lat="45.95053" lon="4.74653">
        <ele>194</ele>
        <time>2018-05-25T08:20:57Z</time>
      </trkpt>
      <trkpt lat="45.95056" lon="4.74659">
        <ele>194</ele>
        <time>2018-05-25T08:20:58Z</time>
      </trkpt>
      <trkpt lat="45.9506" lon="4.74665">
        <ele>194</ele>
        <time>2018-05-25T08:20:59Z</time>
      </trkpt>
      <trkpt lat="45.95064" lon="4.7467">
        <ele>194</ele>
        <time>2018-05-25T08:21:00Z</time>
      </trkpt>
      <trkpt lat="45.95068" lon="4.74675">
        <ele>194</ele>
        <time>2018-05-25T08:21:01Z</time>
      </trkpt>
      <trkpt lat="45.95072" lon="4.7468">
        <ele>194</ele>
        <time>2018-05-25T08:21:02Z</time>
      </trkpt>
      <trkpt lat="45.95076" lon="4.74686">
        <ele>194</ele>
        <time>2018-05-25T08:21:03Z</time>
      </trkpt>
      <trkpt lat="45.95078" lon="4.74693">
        <ele>194</ele>
        <time>2018-05-25T08:21:04Z</time>
      </trkpt>
      <trkpt lat="45.95082" lon="4.74698">
        <ele>194</ele>
        <time>2018-05-25T08:21:05Z</time>
      </trkpt>
      <trkpt lat="45.95085" lon="4.74704">
        <ele>194</ele>
        <time>2018-05-25T08:21:06Z</time>
      </trkpt>
      <trkpt lat="45.95088" lon="4.7471">
        <ele>194</ele>
        <time>2018-05-25T08:21:07Z</time>
      </trkpt>
      <trkpt lat="45.95092" lon="4.74717">
        <ele>194</ele>
        <time>2018-05-25T08:21:08Z</time>
      </trkpt>
      <trkpt lat="45.95097" lon="4.74722">
        <ele>194</ele>
        <time>2018-05-25T08:21:09Z</time>
      </trkpt>
      <trkpt lat="45.95101" lon="4.74728">
        <ele>194</ele>
        <time>2018-05-25T08:21:10Z</time>
      </trkpt>
      <trkpt lat="45.95104" lon="4.74734">
        <ele>194</ele>
        <time>2018-05-25T08:21:11Z</time>
      </trkpt>
      <trkpt lat="45.95108" lon="4.74741">
        <ele>194</ele>
        <time>2018-05-25T08:21:12Z</time>
      </trkpt>
      <trkpt lat="45.95111" lon="4.74746">
        <ele>194</ele>
        <time>2018-05-25T08:21:13Z</time>
      </trkpt>
      <trkpt lat="45.95115" lon="4.74752">
        <ele>194</ele>
        <time>2018-05-25T08:21:14Z</time>
      </trkpt>
      <trkpt lat="45.95117" lon="4.74758">
        <ele>194</ele>
        <time>2018-05-25T08:21:15Z</time>
      </trkpt>
      <trkpt lat="45.9512" lon="4.74763">
        <ele>194</ele>
        <time>2018-05-25T08:21:16Z</time>
      </trkpt>
      <trkpt lat="45.95123" lon="4.74769">
        <ele>194</ele>
        <time>2018-05-25T08:21:17Z</time>
      </trkpt>
      <trkpt lat="45.95126" lon="4.74772">
        <ele>194</ele>
        <time>2018-05-25T08:21:18Z</time>
      </trkpt>
      <trkpt lat="45.9513" lon="4.74779">
        <ele>194</ele>
        <time>2018-05-25T08:21:19Z</time>
      </trkpt>
      <trkpt lat="45.95134" lon="4.74785">
        <ele>194</ele>
        <time>2018-05-25T08:21:20Z</time>
      </trkpt>
      <trkpt lat="45.95137" lon="4.7479">
        <ele>194</ele>
        <time>2018-05-25T08:21:21Z</time>
      </trkpt>
      <trkpt lat="45.9514" lon="4.74797">
        <ele>194</ele>
        <time>2018-05-25T08:21:22Z</time>
      </trkpt>
      <trkpt lat="45.95143" lon="4.74802">
        <ele>194</ele>
        <time>2018-05-25T08:21:23Z</time>
      </trkpt>
      <trkpt lat="45.95146" lon="4.74808">
        <ele>194</ele>
        <time>2018-05-25T08:21:24Z</time>
      </trkpt>
      <trkpt lat="45.95148" lon="4.74814">
        <ele>194</ele>
        <time>2018-05-25T08:21:25Z</time>
      </trkpt>
      <trkpt lat="45.95152" lon="4.74821">
        <ele>194</ele>
        <time>2018-05-25T08:21:26Z</time>
      </trkpt>
      <trkpt lat="45.95156" lon="4.74826">
        <ele>194</ele>
        <time>2018-05-25T08:21:27Z</time>
      </trkpt>
      <trkpt lat="45.9516" lon="4.74831">
        <ele>194</ele>
        <time>2018-05-25T08:21:28Z</time>
      </trkpt>
      <trkpt lat="45.95164" lon="4.74837">
        <ele>194</ele>
        <time>2018-05-25T08:21:29Z</time>
      </trkpt>
      <trkpt lat="45.95168" lon="4.74842">
        <ele>194</ele>
        <time>2018-05-25T08:21:30Z</time>
      </trkpt>
      <trkpt lat="45.95172" lon="4.74848">
        <ele>194</ele>
        <time>2018-05-25T08:21:31Z</time>
      </trkpt>
      <trkpt lat="45.95175" lon="4.74855">
        <ele>194</ele>
        <time>2018-05-25T08:21:32Z</time>
      </trkpt>
      <trkpt lat="45.95178" lon="4.74861">
        <ele>194</ele>
        <time>2018-05-25T08:21:33Z</time>
      </trkpt>
      <trkpt lat="45.95182" lon="4.74866">
        <ele>194</ele>
        <time>2018-05-25T08:21:34Z</time>
      </trkpt>
      <trkpt lat="45.95185" lon="4.74872">
        <ele>194</ele>
        <time>2018-05-25T08:21:35Z</time>
      </trkpt>
      <trkpt lat="45.95189" lon="4.74876">
        <ele>194</ele>
        <time>2018-05-25T08:21:36Z</time>
      </trkpt>
      <trkpt lat="45.95192" lon="4.74881">
        <ele>194</ele>
        <time>2018-05-25T08:21:37Z</time>
      </trkpt>
      <trkpt lat="45.95197" lon="4.74887">
        <ele>194</ele>
        <time>2018-05-25T08:21:38Z</time>
      </trkpt>
      <trkpt lat="45.952" lon="4.74893">
        <ele>194</ele>
        <time>2018-05-25T08:21:39Z</time>
      </trkpt>
      <trkpt lat="45.95204" lon="4.74898">
        <ele>194</ele>
        <time>2018-05-25T08:21:40Z</time>
      </trkpt>
      <trkpt lat="45.95207" lon="4.74903">
        <ele>194</ele>
        <time>2018-05-25T08:21:41Z</time>
      </trkpt>
      <trkpt lat="45.9521" lon="4.74908">
        <ele>193</ele>
        <time>2018-05-25T08:21:42Z</time>
      </trkpt>
      <trkpt lat="45.95214" lon="4.74914">
        <ele>193</ele>
        <time>2018-05-25T08:21:43Z</time>
      </trkpt>
      <trkpt lat="45.95217" lon="4.74919">
        <ele>192</ele>
        <time>2018-05-25T08:21:44Z</time>
      </trkpt>
      <trkpt lat="45.9522" lon="4.74925">
        <ele>192</ele>
        <time>2018-05-25T08:21:45Z</time>
      </trkpt>
      <trkpt lat="45.95224" lon="4.7493">
        <ele>192</ele>
        <time>2018-05-25T08:21:46Z</time>
      </trkpt>
      <trkpt lat="45.95227" lon="4.74936">
        <ele>192</ele>
        <time>2018-05-25T08:21:47Z</time>
      </trkpt>
      <trkpt lat="45.95231" lon="4.74942">
        <ele>192</ele>
        <time>2018-05-25T08:21:48Z</time>
      </trkpt>
      <trkpt lat="45.95234" lon="4.74949">
        <ele>192</ele>
        <time>2018-05-25T08:21:49Z</time>
      </trkpt>
      <trkpt lat="45.95238" lon="4.74955">
        <ele>192</ele>
        <time>2018-05-25T08:21:50Z</time>
      </trkpt>
      <trkpt lat="45.95243" lon="4.74962">
        <ele>191</ele>
        <time>2018-05-25T08:21:51Z</time>
      </trkpt>
      <trkpt lat="45.95247" lon="4.74968">
        <ele>191</ele>
        <time>2018-05-25T08:21:52Z</time>
      </trkpt>
      <trkpt lat="45.95249" lon="4.74973">
        <ele>191</ele>
        <time>2018-05-25T08:21:53Z</time>
      </trkpt>
      <trkpt lat="45.95253" lon="4.74979">
        <ele>192</ele>
        <time>2018-05-25T08:21:54Z</time>
      </trkpt>
      <trkpt lat="45.95256" lon="4.74984">
        <ele>192</ele>
        <time>2018-05-25T08:21:55Z</time>
      </trkpt>
      <trkpt lat="45.95259" lon="4.74991">
        <ele>192</ele>
        <time>2018-05-25T08:21:56Z</time>
      </trkpt>
      <trkpt lat="45.95262" lon="4.74997">
        <ele>192</ele>
        <time>2018-05-25T08:21:57Z</time>
      </trkpt>
      <trkpt lat="45.95267" lon="4.75001">
        <ele>191</ele>
        <time>2018-05-25T08:21:58Z</time>
      </trkpt>
      <trkpt lat="45.95272" lon="4.75008">
        <ele>191</ele>
        <time>2018-05-25T08:21:59Z</time>
      </trkpt>
      <trkpt lat="45.95276" lon="4.75014">
        <ele>191</ele>
        <time>2018-05-25T08:22:00Z</time>
      </trkpt>
      <trkpt lat="45.9528" lon="4.75021">
        <ele>191</ele>
        <time>2018-05-25T08:22:01Z</time>
      </trkpt>
      <trkpt lat="45.95284" lon="4.75027">
        <ele>191</ele>
        <time>2018-05-25T08:22:02Z</time>
      </trkpt>
      <trkpt lat="45.95288" lon="4.75033">
        <ele>191</ele>
        <time>2018-05-25T08:22:03Z</time>
      </trkpt>
      <trkpt lat="45.95292" lon="4.7504">
        <ele>191</ele>
        <time>2018-05-25T08:22:04Z</time>
      </trkpt>
      <trkpt lat="45.95295" lon="4.75045">
        <ele>191</ele>
        <time>2018-05-25T08:22:05Z</time>
      </trkpt>
      <trkpt lat="45.953" lon="4.75048">
        <ele>191</ele>
        <time>2018-05-25T08:22:06Z</time>
      </trkpt>
      <trkpt lat="45.95304" lon="4.75053">
        <ele>191</ele>
        <time>2018-05-25T08:22:07Z</time>
      </trkpt>
      <trkpt lat="45.95308" lon="4.7506">
        <ele>192</ele>
        <time>2018-05-25T08:22:08Z</time>
      </trkpt>
      <trkpt lat="45.95312" lon="4.75065">
        <ele>192</ele>
        <time>2018-05-25T08:22:09Z</time>
      </trkpt>
      <trkpt lat="45.95316" lon="4.75071">
        <ele>192</ele>
        <time>2018-05-25T08:22:10Z</time>
      </trkpt>
      <trkpt lat="45.9532" lon="4.75077">
        <ele>192</ele>
        <time>2018-05-25T08:22:11Z</time>
      </trkpt>
      <trkpt lat="45.95324" lon="4.75084">
        <ele>191</ele>
        <time>2018-05-25T08:22:12Z</time>
      </trkpt>
      <trkpt lat="45.95327" lon="4.7509">
        <ele>191</ele>
        <time>2018-05-25T08:22:13Z</time>
      </trkpt>
      <trkpt lat="45.95331" lon="4.75096">
        <ele>191</ele>
        <time>2018-05-25T08:22:14Z</time>
      </trkpt>
      <trkpt lat="45.95335" lon="4.75101">
        <ele>192</ele>
        <time>2018-05-25T08:22:15Z</time>
      </trkpt>
      <trkpt lat="45.95339" lon="4.75106">
        <ele>192</ele>
        <time>2018-05-25T08:22:16Z</time>
      </trkpt>
      <trkpt lat="45.95343" lon="4.75113">
        <ele>192</ele>
        <time>2018-05-25T08:22:17Z</time>
      </trkpt>
      <trkpt lat="45.95347" lon="4.7512">
        <ele>191</ele>
        <time>2018-05-25T08:22:18Z</time>
      </trkpt>
      <trkpt lat="45.95351" lon="4.75127">
        <ele>191</ele>
        <time>2018-05-25T08:22:19Z</time>
      </trkpt>
      <trkpt lat="45.95355" lon="4.75133">
        <ele>191</ele>
        <time>2018-05-25T08:22:20Z</time>
      </trkpt>
      <trkpt lat="45.95359" lon="4.7514">
        <ele>191</ele>
        <time>2018-05-25T08:22:21Z</time>
      </trkpt>
      <trkpt lat="45.95362" lon="4.75147">
        <ele>191</ele>
        <time>2018-05-25T08:22:22Z</time>
      </trkpt>
      <trkpt lat="45.95367" lon="4.75151">
        <ele>191</ele>
        <time>2018-05-25T08:22:23Z</time>
      </trkpt>
      <trkpt lat="45.95371" lon="4.75158">
        <ele>191</ele>
        <time>2018-05-25T08:22:24Z</time>
      </trkpt>
      <trkpt lat="45.95375" lon="4.75165">
        <ele>191</ele>
        <time>2018-05-25T08:22:25Z</time>
      </trkpt>
      <trkpt lat="45.95379" lon="4.75171">
        <ele>189</ele>
        <time>2018-05-25T08:22:26Z</time>
      </trkpt>
      <trkpt lat="45.95383" lon="4.75178">
        <ele>189</ele>
        <time>2018-05-25T08:22:27Z</time>
      </trkpt>
      <trkpt lat="45.95386" lon="4.75185">
        <ele>189</ele>
        <time>2018-05-25T08:22:28Z</time>
      </trkpt>
      <trkpt lat="45.9539" lon="4.75191">
        <ele>189</ele>
        <time>2018-05-25T08:22:29Z</time>
      </trkpt>
      <trkpt lat="45.95394" lon="4.75198">
        <ele>189</ele>
        <time>2018-05-25T08:22:30Z</time>
      </trkpt>
      <trkpt lat="45.95399" lon="4.75205">
        <ele>189</ele>
        <time>2018-05-25T08:22:31Z</time>
      </trkpt>
      <trkpt lat="45.95403" lon="4.75212">
        <ele>189</ele>
        <time>2018-05-25T08:22:32Z</time>
      </trkpt>
      <trkpt lat="45.95407" lon="4.75218">
        <ele>189</ele>
        <time>2018-05-25T08:22:33Z</time>
      </trkpt>
      <trkpt lat="45.9541" lon="4.75225">
        <ele>189</ele>
        <time>2018-05-25T08:22:34Z</time>
      </trkpt>
      <trkpt lat="45.95414" lon="4.75232">
        <ele>189</ele>
        <time>2018-05-25T08:22:35Z</time>
      </trkpt>
      <trkpt lat="45.95417" lon="4.7524">
        <ele>190</ele>
        <time>2018-05-25T08:22:36Z</time>
      </trkpt>
      <trkpt lat="45.9542" lon="4.75247">
        <ele>190</ele>
        <time>2018-05-25T08:22:37Z</time>
      </trkpt>
      <trkpt lat="45.95423" lon="4.75254">
        <ele>189</ele>
        <time>2018-05-25T08:22:38Z</time>
      </trkpt>
      <trkpt lat="45.95427" lon="4.75261">
        <ele>189</ele>
        <time>2018-05-25T08:22:39Z</time>
      </trkpt>
      <trkpt lat="45.95429" lon="4.75266">
        <ele>189</ele>
        <time>2018-05-25T08:22:40Z</time>
      </trkpt>
      <trkpt lat="45.95433" lon="4.75273">
        <ele>188</ele>
        <time>2018-05-25T08:22:41Z</time>
      </trkpt>
      <trkpt lat="45.95437" lon="4.75279">
        <ele>188</ele>
        <time>2018-05-25T08:22:42Z</time>
      </trkpt>
      <trkpt lat="45.95442" lon="4.75286">
        <ele>188</ele>
        <time>2018-05-25T08:22:43Z</time>
      </trkpt>
      <trkpt lat="45.95446" lon="4.75293">
        <ele>188</ele>
        <time>2018-05-25T08:22:44Z</time>
      </trkpt>
      <trkpt lat="45.95451" lon="4.75298">
        <ele>188</ele>
        <time>2018-05-25T08:22:45Z</time>
      </trkpt>
      <trkpt lat="45.95455" lon="4.75305">
        <ele>188</ele>
        <time>2018-05-25T08:22:46Z</time>
      </trkpt>
      <trkpt lat="45.95459" lon="4.75312">
        <ele>188</ele>
        <time>2018-05-25T08:22:47Z</time>
      </trkpt>
      <trkpt lat="45.95463" lon="4.7532">
        <ele>188</ele>
        <time>2018-05-25T08:22:48Z</time>
      </trkpt>
      <trkpt lat="45.95467" lon="4.75327">
        <ele>188</ele>
        <time>2018-05-25T08:22:49Z</time>
      </trkpt>
      <trkpt lat="45.95472" lon="4.75333">
        <ele>188</ele>
        <time>2018-05-25T08:22:50Z</time>
      </trkpt>
      <trkpt lat="45.95475" lon="4.75341">
        <ele>186</ele>
        <time>2018-05-25T08:22:51Z</time>
      </trkpt>
      <trkpt lat="45.95479" lon="4.75348">
        <ele>186</ele>
        <time>2018-05-25T08:22:52Z</time>
      </trkpt>
      <trkpt lat="45.95482" lon="4.75356">
        <ele>186</ele>
        <time>2018-05-25T08:22:53Z</time>
      </trkpt>
      <trkpt lat="45.95486" lon="4.75364">
        <ele>186</ele>
        <time>2018-05-25T08:22:54Z</time>
      </trkpt>
      <trkpt lat="45.95489" lon="4.75371">
        <ele>185</ele>
        <time>2018-05-25T08:22:55Z</time>
      </trkpt>
      <trkpt lat="45.95492" lon="4.75378">
        <ele>185</ele>
        <time>2018-05-25T08:22:56Z</time>
      </trkpt>
      <trkpt lat="45.95496" lon="4.75387">
        <ele>185</ele>
        <time>2018-05-25T08:22:57Z</time>
      </trkpt>
      <trkpt lat="45.95499" lon="4.75395">
        <ele>185</ele>
        <time>2018-05-25T08:22:58Z</time>
      </trkpt>
      <trkpt lat="45.95501" lon="4.75404">
        <ele>187</ele>
        <time>2018-05-25T08:22:59Z</time>
      </trkpt>
      <trkpt lat="45.95503" lon="4.75413">
        <ele>186</ele>
        <time>2018-05-25T08:23:00Z</time>
      </trkpt>
      <trkpt lat="45.95505" lon="4.75422">
        <ele>186</ele>
        <time>2018-05-25T08:23:01Z</time>
      </trkpt>
      <trkpt lat="45.95507" lon="4.75431">
        <ele>186</ele>
        <time>2018-05-25T08:23:02Z</time>
      </trkpt>
      <trkpt lat="45.95508" lon="4.7544">
        <ele>186</ele>
        <time>2018-05-25T08:23:03Z</time>
      </trkpt>
      <trkpt lat="45.95508" lon="4.75451">
        <ele>187</ele>
        <time>2018-05-25T08:23:04Z</time>
      </trkpt>
      <trkpt lat="45.95507" lon="4.75461">
        <ele>186</ele>
        <time>2018-05-25T08:23:05Z</time>
      </trkpt>
      <trkpt lat="45.95507" lon="4.7547">
        <ele>186</ele>
        <time>2018-05-25T08:23:06Z</time>
      </trkpt>
      <trkpt lat="45.95507" lon="4.75479">
        <ele>186</ele>
        <time>2018-05-25T08:23:07Z</time>
      </trkpt>
      <trkpt lat="45.95511" lon="4.75487">
        <ele>186</ele>
        <time>2018-05-25T08:23:08Z</time>
      </trkpt>
      <trkpt lat="45.95515" lon="4.75493">
        <ele>186</ele>
        <time>2018-05-25T08:23:09Z</time>
      </trkpt>
      <trkpt lat="45.9552" lon="4.75498">
        <ele>186</ele>
        <time>2018-05-25T08:23:10Z</time>
      </trkpt>
      <trkpt lat="45.95526" lon="4.75501">
        <ele>185</ele>
        <time>2018-05-25T08:23:11Z</time>
      </trkpt>
      <trkpt lat="45.9553" lon="4.75508">
        <ele>185</ele>
        <time>2018-05-25T08:23:12Z</time>
      </trkpt>
      <trkpt lat="45.95535" lon="4.75513">
        <ele>186</ele>
        <time>2018-05-25T08:23:13Z</time>
      </trkpt>
      <trkpt lat="45.95541" lon="4.7552">
        <ele>186</ele>
        <time>2018-05-25T08:23:14Z</time>
      </trkpt>
      <trkpt lat="45.95546" lon="4.75526">
        <ele>186</ele>
        <time>2018-05-25T08:23:15Z</time>
      </trkpt>
      <trkpt lat="45.95551" lon="4.75531">
        <ele>186</ele>
        <time>2018-05-25T08:23:16Z</time>
      </trkpt>
      <trkpt lat="45.95557" lon="4.75538">
        <ele>186</ele>
        <time>2018-05-25T08:23:17Z</time>
      </trkpt>
      <trkpt lat="45.95562" lon="4.75543">
        <ele>186</ele>
        <time>2018-05-25T08:23:18Z</time>
      </trkpt>
      <trkpt lat="45.95567" lon="4.7555">
        <ele>186</ele>
        <time>2018-05-25T08:23:19Z</time>
      </trkpt>
      <trkpt lat="45.95572" lon="4.75555">
        <ele>186</ele>
        <time>2018-05-25T08:23:20Z</time>
      </trkpt>
      <trkpt lat="45.95577" lon="4.75561">
        <ele>186</ele>
        <time>2018-05-25T08:23:21Z</time>
      </trkpt>
      <trkpt lat="45.95581" lon="4.75567">
        <ele>186</ele>
        <time>2018-05-25T08:23:22Z</time>
      </trkpt>
      <trkpt lat="45.95585" lon="4.75573">
        <ele>187</ele>
        <time>2018-05-25T08:23:23Z</time>
      </trkpt>
      <trkpt lat="45.95589" lon="4.75578">
        <ele>187</ele>
        <time>2018-05-25T08:23:24Z</time>
      </trkpt>
      <trkpt lat="45.95593" lon="4.75585">
        <ele>187</ele>
        <time>2018-05-25T08:23:25Z</time>
      </trkpt>
      <trkpt lat="45.95596" lon="4.75591">
        <ele>187</ele>
        <time>2018-05-25T08:23:26Z</time>
      </trkpt>
      <trkpt lat="45.95598" lon="4.75599">
        <ele>187</ele>
        <time>2018-05-25T08:23:27Z</time>
      </trkpt>
      <trkpt lat="45.95602" lon="4.75606">
        <ele>187</ele>
        <time>2018-05-25T08:23:28Z</time>
      </trkpt>
      <trkpt lat="45.95605" lon="4.75613">
        <ele>188</ele>
        <time>2018-05-25T08:23:29Z</time>
      </trkpt>
      <trkpt lat="45.95608" lon="4.7562">
        <ele>188</ele>
        <time>2018-05-25T08:23:30Z</time>
      </trkpt>
      <trkpt lat="45.9561" lon="4.75629">
        <ele>188</ele>
        <time>2018-05-25T08:23:31Z</time>
      </trkpt>
      <trkpt lat="45.95612" lon="4.75638">
        <ele>188</ele>
        <time>2018-05-25T08:23:32Z</time>
      </trkpt>
      <trkpt lat="45.95613" lon="4.75647">
        <ele>188</ele>
        <time>2018-05-25T08:23:33Z</time>
      </trkpt>
      <trkpt lat="45.95615" lon="4.75655">
        <ele>188</ele>
        <time>2018-05-25T08:23:34Z</time>
      </trkpt>
      <trkpt lat="45.95616" lon="4.75664">
        <ele>188</ele>
        <time>2018-05-25T08:23:35Z</time>
      </trkpt>
      <trkpt lat="45.95617" lon="4.75674">
        <ele>187</ele>
        <time>2018-05-25T08:23:36Z</time>
      </trkpt>
      <trkpt lat="45.95618" lon="4.75682">
        <ele>187</ele>
        <time>2018-05-25T08:23:37Z</time>
      </trkpt>
      <trkpt lat="45.9562" lon="4.7569">
        <ele>187</ele>
        <time>2018-05-25T08:23:38Z</time>
      </trkpt>
      <trkpt lat="45.95621" lon="4.75697">
        <ele>187</ele>
        <time>2018-05-25T08:23:39Z</time>
      </trkpt>
      <trkpt lat="45.95623" lon="4.75706">
        <ele>187</ele>
        <time>2018-05-25T08:23:40Z</time>
      </trkpt>
      <trkpt lat="45.95624" lon="4.75715">
        <ele>187</ele>
        <time>2018-05-25T08:23:41Z</time>
      </trkpt>
      <trkpt lat="45.95625" lon="4.75724">
        <ele>187</ele>
        <time>2018-05-25T08:23:42Z</time>
      </trkpt>
      <trkpt lat="45.95625" lon="4.75731">
        <ele>187</ele>
        <time>2018-05-25T08:23:43Z</time>
      </trkpt>
      <trkpt lat="45.95626" lon="4.75739">
        <ele>187</ele>
        <time>2018-05-25T08:23:44Z</time>
      </trkpt>
      <trkpt lat="45.95627" lon="4.75744">
        <ele>187</ele>
        <time>2018-05-25T08:23:45Z</time>
      </trkpt>
      <trkpt lat="45.95628" lon="4.75752">
        <ele>185</ele>
        <time>2018-05-25T08:23:46Z</time>
      </trkpt>
      <trkpt lat="45.9563" lon="4.75762">
        <ele>185</ele>
        <time>2018-05-25T08:23:47Z</time>
      </trkpt>
      <trkpt lat="45.95631" lon="4.7577">
        <ele>185</ele>
        <time>2018-05-25T08:23:48Z</time>
      </trkpt>
      <trkpt lat="45.95632" lon="4.75778">
        <ele>185</ele>
        <time>2018-05-25T08:23:49Z</time>
      </trkpt>
      <trkpt lat="45.95634" lon="4.75786">
        <ele>185</ele>
        <time>2018-05-25T08:23:50Z</time>
      </trkpt>
      <trkpt lat="45.95636" lon="4.75796">
        <ele>185</ele>
        <time>2018-05-25T08:23:51Z</time>
      </trkpt>
      <trkpt lat="45.95637" lon="4.75803">
        <ele>185</ele>
        <time>2018-05-25T08:23:52Z</time>
      </trkpt>
      <trkpt lat="45.95639" lon="4.75812">
        <ele>185</ele>
        <time>2018-05-25T08:23:53Z</time>
      </trkpt>
      <trkpt lat="45.95641" lon="4.7582">
        <ele>185</ele>
        <time>2018-05-25T08:23:54Z</time>
      </trkpt>
      <trkpt lat="45.95642" lon="4.75827">
        <ele>185</ele>
        <time>2018-05-25T08:23:55Z</time>
      </trkpt>
      <trkpt lat="45.95644" lon="4.75836">
        <ele>184</ele>
        <time>2018-05-25T08:23:56Z</time>
      </trkpt>
      <trkpt lat="45.95647" lon="4.75844">
        <ele>184</ele>
        <time>2018-05-25T08:23:57Z</time>
      </trkpt>
      <trkpt lat="45.95651" lon="4.75853">
        <ele>184</ele>
        <time>2018-05-25T08:23:58Z</time>
      </trkpt>
      <trkpt lat="45.95653" lon="4.75858">
        <ele>184</ele>
        <time>2018-05-25T08:23:59Z</time>
      </trkpt>
      <trkpt lat="45.95655" lon="4.75866">
        <ele>184</ele>
        <time>2018-05-25T08:24:00Z</time>
      </trkpt>
      <trkpt lat="45.95658" lon="4.75874">
        <ele>184</ele>
        <time>2018-05-25T08:24:01Z</time>
      </trkpt>
      <trkpt lat="45.95661" lon="4.75882">
        <ele>184</ele>
        <time>2018-05-25T08:24:02Z</time>
      </trkpt>
      <trkpt lat="45.95663" lon="4.7589">
        <ele>184</ele>
        <time>2018-05-25T08:24:03Z</time>
      </trkpt>
      <trkpt lat="45.95667" lon="4.75897">
        <ele>184</ele>
        <time>2018-05-25T08:24:04Z</time>
      </trkpt>
      <trkpt lat="45.9567" lon="4.75905">
        <ele>185</ele>
        <time>2018-05-25T08:24:05Z</time>
      </trkpt>
      <trkpt lat="45.95673" lon="4.75913">
        <ele>185</ele>
        <time>2018-05-25T08:24:06Z</time>
      </trkpt>
      <trkpt lat="45.95676" lon="4.7592">
        <ele>184</ele>
        <time>2018-05-25T08:24:07Z</time>
      </trkpt>
      <trkpt lat="45.95679" lon="4.75927">
        <ele>185</ele>
        <time>2018-05-25T08:24:08Z</time>
      </trkpt>
      <trkpt lat="45.95682" lon="4.75934">
        <ele>185</ele>
        <time>2018-05-25T08:24:09Z</time>
      </trkpt>
      <trkpt lat="45.95685" lon="4.75941">
        <ele>185</ele>
        <time>2018-05-25T08:24:10Z</time>
      </trkpt>
      <trkpt lat="45.95688" lon="4.75947">
        <ele>185</ele>
        <time>2018-05-25T08:24:11Z</time>
      </trkpt>
      <trkpt lat="45.95692" lon="4.75953">
        <ele>185</ele>
        <time>2018-05-25T08:24:12Z</time>
      </trkpt>
      <trkpt lat="45.95694" lon="4.7596">
        <ele>185</ele>
        <time>2018-05-25T08:24:13Z</time>
      </trkpt>
      <trkpt lat="45.95697" lon="4.75967">
        <ele>185</ele>
        <time>2018-05-25T08:24:14Z</time>
      </trkpt>
      <trkpt lat="45.957" lon="4.75973">
        <ele>185</ele>
        <time>2018-05-25T08:24:15Z</time>
      </trkpt>
      <trkpt lat="45.95703" lon="4.75979">
        <ele>185</ele>
        <time>2018-05-25T08:24:16Z</time>
      </trkpt>
      <trkpt lat="45.95706" lon="4.75984">
        <ele>185</ele>
        <time>2018-05-25T08:24:17Z</time>
      </trkpt>
      <trkpt lat="45.9571" lon="4.75989">
        <ele>185</ele>
        <time>2018-05-25T08:24:18Z</time>
      </trkpt>
      <trkpt lat="45.95713" lon="4.75996">
        <ele>185</ele>
        <time>2018-05-25T08:24:19Z</time>
      </trkpt>
      <trkpt lat="45.95716" lon="4.76002">
        <ele>184</ele>
        <time>2018-05-25T08:24:20Z</time>
      </trkpt>
      <trkpt lat="45.95718" lon="4.76009">
        <ele>184</ele>
        <time>2018-05-25T08:24:21Z</time>
      </trkpt>
      <trkpt lat="45.9572" lon="4.76016">
        <ele>184</ele>
        <time>2018-05-25T08:24:22Z</time>
      </trkpt>
      <trkpt lat="45.95723" lon="4.76024">
        <ele>184</ele>
        <time>2018-05-25T08:24:23Z</time>
      </trkpt>
      <trkpt lat="45.95726" lon="4.7603">
        <ele>184</ele>
        <time>2018-05-25T08:24:24Z</time>
      </trkpt>
      <trkpt lat="45.95729" lon="4.76037">
        <ele>184</ele>
        <time>2018-05-25T08:24:25Z</time>
      </trkpt>
      <trkpt lat="45.95731" lon="4.76045">
        <ele>184</ele>
        <time>2018-05-25T08:24:26Z</time>
      </trkpt>
      <trkpt lat="45.95734" lon="4.76052">
        <ele>184</ele>
        <time>2018-05-25T08:24:27Z</time>
      </trkpt>
      <trkpt lat="45.95737" lon="4.76057">
        <ele>184</ele>
        <time>2018-05-25T08:24:28Z</time>
      </trkpt>
      <trkpt lat="45.9574" lon="4.76064">
        <ele>184</ele>
        <time>2018-05-25T08:24:29Z</time>
      </trkpt>
      <trkpt lat="45.95743" lon="4.76071">
        <ele>185</ele>
        <time>2018-05-25T08:24:30Z</time>
      </trkpt>
      <trkpt lat="45.95745" lon="4.76078">
        <ele>185</ele>
        <time>2018-05-25T08:24:31Z</time>
      </trkpt>
      <trkpt lat="45.95747" lon="4.76084">
        <ele>185</ele>
        <time>2018-05-25T08:24:32Z</time>
      </trkpt>
      <trkpt lat="45.9575" lon="4.76092">
        <ele>185</ele>
        <time>2018-05-25T08:24:33Z</time>
      </trkpt>
      <trkpt lat="45.95752" lon="4.76098">
        <ele>186</ele>
        <time>2018-05-25T08:24:34Z</time>
      </trkpt>
      <trkpt lat="45.95755" lon="4.76104">
        <ele>186</ele>
        <time>2018-05-25T08:24:35Z</time>
      </trkpt>
      <trkpt lat="45.95756" lon="4.76111">
        <ele>186</ele>
        <time>2018-05-25T08:24:36Z</time>
      </trkpt>
      <trkpt lat="45.95757" lon="4.76118">
        <ele>186</ele>
        <time>2018-05-25T08:24:37Z</time>
      </trkpt>
      <trkpt lat="45.95759" lon="4.76124">
        <ele>186</ele>
        <time>2018-05-25T08:24:38Z</time>
      </trkpt>
      <trkpt lat="45.9576" lon="4.76132">
        <ele>186</ele>
        <time>2018-05-25T08:24:39Z</time>
      </trkpt>
      <trkpt lat="45.9576" lon="4.76141">
        <ele>186</ele>
        <time>2018-05-25T08:24:40Z</time>
      </trkpt>
      <trkpt lat="45.9576" lon="4.76149">
        <ele>186</ele>
        <time>2018-05-25T08:24:41Z</time>
      </trkpt>
      <trkpt lat="45.95761" lon="4.76156">
        <ele>186</ele>
        <time>2018-05-25T08:24:42Z</time>
      </trkpt>
      <trkpt lat="45.95761" lon="4.76163">
        <ele>186</ele>
        <time>2018-05-25T08:24:43Z</time>
      </trkpt>
      <trkpt lat="45.95762" lon="4.76171">
        <ele>185</ele>
        <time>2018-05-25T08:24:44Z</time>
      </trkpt>
      <trkpt lat="45.95762" lon="4.7618">
        <ele>186</ele>
        <time>2018-05-25T08:24:45Z</time>
      </trkpt>
      <trkpt lat="45.95764" lon="4.76188">
        <ele>186</ele>
        <time>2018-05-25T08:24:46Z</time>
      </trkpt>
      <trkpt lat="45.95764" lon="4.76196">
        <ele>186</ele>
        <time>2018-05-25T08:24:47Z</time>
      </trkpt>
      <trkpt lat="45.95765" lon="4.76205">
        <ele>186</ele>
        <time>2018-05-25T08:24:48Z</time>
      </trkpt>
      <trkpt lat="45.95765" lon="4.76213">
        <ele>186</ele>
        <time>2018-05-25T08:24:49Z</time>
      </trkpt>
      <trkpt lat="45.95765" lon="4.7622">
        <ele>186</ele>
        <time>2018-05-25T08:24:50Z</time>
      </trkpt>
      <trkpt lat="45.95765" lon="4.76227">
        <ele>186</ele>
        <time>2018-05-25T08:24:51Z</time>
      </trkpt>
      <trkpt lat="45.95765" lon="4.76235">
        <ele>186</ele>
        <time>2018-05-25T08:24:52Z</time>
      </trkpt>
      <trkpt lat="45.95766" lon="4.76243">
        <ele>186</ele>
        <time>2018-05-25T08:24:53Z</time>
      </trkpt>
      <trkpt lat="45.95765" lon="4.7625">
        <ele>185</ele>
        <time>2018-05-25T08:24:54Z</time>
      </trkpt>
      <trkpt lat="45.95765" lon="4.76257">
        <ele>185</ele>
        <time>2018-05-25T08:24:55Z</time>
      </trkpt>
      <trkpt lat="45.95766" lon="4.76264">
        <ele>185</ele>
        <time>2018-05-25T08:24:56Z</time>
      </trkpt>
      <trkpt lat="45.95766" lon="4.76272">
        <ele>186</ele>
        <time>2018-05-25T08:24:57Z</time>
      </trkpt>
      <trkpt lat="45.95766" lon="4.76279">
        <ele>186</ele>
        <time>2018-05-25T08:24:58Z</time>
      </trkpt>
      <trkpt lat="45.95766" lon="4.76287">
        <ele>186</ele>
        <time>2018-05-25T08:24:59Z</time>
      </trkpt>
      <trkpt lat="45.95766" lon="4.76295">
        <ele>186</ele>
        <time>2018-05-25T08:25:00Z</time>
      </trkpt>
      <trkpt lat="45.95766" lon="4.76303">
        <ele>186</ele>
        <time>2018-05-25T08:25:01Z</time>
      </trkpt>
      <trkpt lat="45.95766" lon="4.76309">
        <ele>185</ele>
        <time>2018-05-25T08:25:02Z</time>
      </trkpt>
      <trkpt lat="45.95767" lon="4.76316">
        <ele>185</ele>
        <time>2018-05-25T08:25:03Z</time>
      </trkpt>
      <trkpt lat="45.95767" lon="4.76322">
        <ele>185</ele>
        <time>2018-05-25T08:25:04Z</time>
      </trkpt>
      <trkpt lat="45.95768" lon="4.76329">
        <ele>185</ele>
        <time>2018-05-25T08:25:05Z</time>
      </trkpt>
      <trkpt lat="45.95768" lon="4.76336">
        <ele>186</ele>
        <time>2018-05-25T08:25:06Z</time>
      </trkpt>
      <trkpt lat="45.95769" lon="4.76343">
        <ele>186</ele>
        <time>2018-05-25T08:25:07Z</time>
      </trkpt>
      <trkpt lat="45.95769" lon="4.7635">
        <ele>186</ele>
        <time>2018-05-25T08:25:08Z</time>
      </trkpt>
      <trkpt lat="45.95769" lon="4.76358">
        <ele>186</ele>
        <time>2018-05-25T08:25:09Z</time>
      </trkpt>
      <trkpt lat="45.95769" lon="4.76365">
        <ele>186</ele>
        <time>2018-05-25T08:25:10Z</time>
      </trkpt>
      <trkpt lat="45.95769" lon="4.76371">
        <ele>186</ele>
        <time>2018-05-25T08:25:11Z</time>
      </trkpt>
      <trkpt lat="45.9577" lon="4.76379">
        <ele>186</ele>
        <time>2018-05-25T08:25:12Z</time>
      </trkpt>
      <trkpt lat="45.9577" lon="4.76386">
        <ele>186</ele>
        <time>2018-05-25T08:25:13Z</time>
      </trkpt>
      <trkpt lat="45.9577" lon="4.76393">
        <ele>186</ele>
        <time>2018-05-25T08:25:14Z</time>
      </trkpt>
      <trkpt lat="45.9577" lon="4.76401">
        <ele>186</ele>
        <time>2018-05-25T08:25:15Z</time>
      </trkpt>
      <trkpt lat="45.95771" lon="4.76408">
        <ele>186</ele>
        <time>2018-05-25T08:25:16Z</time>
      </trkpt>
      <trkpt lat="45.95773" lon="4.76417">
        <ele>186</ele>
        <time>2018-05-25T08:25:17Z</time>
      </trkpt>
      <trkpt lat="45.95774" lon="4.76424">
        <ele>186</ele>
        <time>2018-05-25T08:25:18Z</time>
      </trkpt>
      <trkpt lat="45.95775" lon="4.76432">
        <ele>186</ele>
        <time>2018-05-25T08:25:19Z</time>
      </trkpt>
      <trkpt lat="45.95777" lon="4.76442">
        <ele>186</ele>
        <time>2018-05-25T08:25:20Z</time>
      </trkpt>
      <trkpt lat="45.95778" lon="4.76449">
        <ele>186</ele>
        <time>2018-05-25T08:25:21Z</time>
      </trkpt>
      <trkpt lat="45.95779" lon="4.76459">
        <ele>186</ele>
        <time>2018-05-25T08:25:22Z</time>
      </trkpt>
      <trkpt lat="45.95781" lon="4.76468">
        <ele>186</ele>
        <time>2018-05-25T08:25:23Z</time>
      </trkpt>
      <trkpt lat="45.95782" lon="4.76476">
        <ele>186</ele>
        <time>2018-05-25T08:25:24Z</time>
      </trkpt>
      <trkpt lat="45.95783" lon="4.76481">
        <ele>186</ele>
        <time>2018-05-25T08:25:25Z</time>
      </trkpt>
      <trkpt lat="45.95784" lon="4.76489">
        <ele>186</ele>
        <time>2018-05-25T08:25:26Z</time>
      </trkpt>
      <trkpt lat="45.95785" lon="4.76496">
        <ele>186</ele>
        <time>2018-05-25T08:25:27Z</time>
      </trkpt>
      <trkpt lat="45.95787" lon="4.76504">
        <ele>187</ele>
        <time>2018-05-25T08:25:28Z</time>
      </trkpt>
      <trkpt lat="45.95788" lon="4.76512">
        <ele>187</ele>
        <time>2018-05-25T08:25:29Z</time>
      </trkpt>
      <trkpt lat="45.95789" lon="4.76522">
        <ele>187</ele>
        <time>2018-05-25T08:25:30Z</time>
      </trkpt>
      <trkpt lat="45.9579" lon="4.76529">
        <ele>187</ele>
        <time>2018-05-25T08:25:31Z</time>
      </trkpt>
      <trkpt lat="45.9579" lon="4.76537">
        <ele>187</ele>
        <time>2018-05-25T08:25:32Z</time>
      </trkpt>
      <trkpt lat="45.95791" lon="4.76544">
        <ele>187</ele>
        <time>2018-05-25T08:25:33Z</time>
      </trkpt>
      <trkpt lat="45.95793" lon="4.76554">
        <ele>187</ele>
        <time>2018-05-25T08:25:34Z</time>
      </trkpt>
      <trkpt lat="45.95794" lon="4.76562">
        <ele>187</ele>
        <time>2018-05-25T08:25:35Z</time>
      </trkpt>
      <trkpt lat="45.95795" lon="4.76569">
        <ele>187</ele>
        <time>2018-05-25T08:25:36Z</time>
      </trkpt>
      <trkpt lat="45.95796" lon="4.76577">
        <ele>187</ele>
        <time>2018-05-25T08:25:37Z</time>
      </trkpt>
      <trkpt lat="45.95797" lon="4.76585">
        <ele>187</ele>
        <time>2018-05-25T08:25:38Z</time>
      </trkpt>
      <trkpt lat="45.95797" lon="4.76593">
        <ele>187</ele>
        <time>2018-05-25T08:25:39Z</time>
      </trkpt>
      <trkpt lat="45.95799" lon="4.76601">
        <ele>187</ele>
        <time>2018-05-25T08:25:40Z</time>
      </trkpt>
      <trkpt lat="45.95801" lon="4.76605">
        <ele>187</ele>
        <time>2018-05-25T08:25:41Z</time>
      </trkpt>
      <trkpt lat="45.95802" lon="4.76614">
        <ele>188</ele>
        <time>2018-05-25T08:25:42Z</time>
      </trkpt>
      <trkpt lat="45.95803" lon="4.76622">
        <ele>188</ele>
        <time>2018-05-25T08:25:43Z</time>
      </trkpt>
      <trkpt lat="45.95803" lon="4.76629">
        <ele>188</ele>
        <time>2018-05-25T08:25:44Z</time>
      </trkpt>
      <trkpt lat="45.95804" lon="4.76636">
        <ele>188</ele>
        <time>2018-05-25T08:25:45Z</time>
      </trkpt>
      <trkpt lat="45.95806" lon="4.76643">
        <ele>188</ele>
        <time>2018-05-25T08:25:46Z</time>
      </trkpt>
      <trkpt lat="45.95808" lon="4.76649">
        <ele>188</ele>
        <time>2018-05-25T08:25:47Z</time>
      </trkpt>
      <trkpt lat="45.95809" lon="4.76656">
        <ele>188</ele>
        <time>2018-05-25T08:25:48Z</time>
      </trkpt>
      <trkpt lat="45.95811" lon="4.76665">
        <ele>188</ele>
        <time>2018-05-25T08:25:49Z</time>
      </trkpt>
      <trkpt lat="45.95812" lon="4.76672">
        <ele>189</ele>
        <time>2018-05-25T08:25:50Z</time>
      </trkpt>
      <trkpt lat="45.95813" lon="4.7668">
        <ele>189</ele>
        <time>2018-05-25T08:25:51Z</time>
      </trkpt>
      <trkpt lat="45.95814" lon="4.76687">
        <ele>189</ele>
        <time>2018-05-25T08:25:52Z</time>
      </trkpt>
      <trkpt lat="45.95814" lon="4.76694">
        <ele>189</ele>
        <time>2018-05-25T08:25:53Z</time>
      </trkpt>
      <trkpt lat="45.95815" lon="4.76701">
        <ele>189</ele>
        <time>2018-05-25T08:25:54Z</time>
      </trkpt>
      <trkpt lat="45.95816" lon="4.76709">
        <ele>189</ele>
        <time>2018-05-25T08:25:55Z</time>
      </trkpt>
      <trkpt lat="45.95817" lon="4.76716">
        <ele>189</ele>
        <time>2018-05-25T08:25:56Z</time>
      </trkpt>
      <trkpt lat="45.95819" lon="4.76724">
        <ele>190</ele>
        <time>2018-05-25T08:25:57Z</time>
      </trkpt>
      <trkpt lat="45.9582" lon="4.76731">
        <ele>190</ele>
        <time>2018-05-25T08:25:58Z</time>
      </trkpt>
      <trkpt lat="45.9582" lon="4.76738">
        <ele>190</ele>
        <time>2018-05-25T08:25:59Z</time>
      </trkpt>
      <trkpt lat="45.95821" lon="4.76745">
        <ele>190</ele>
        <time>2018-05-25T08:26:00Z</time>
      </trkpt>
      <trkpt lat="45.95822" lon="4.76752">
        <ele>191</ele>
        <time>2018-05-25T08:26:01Z</time>
      </trkpt>
      <trkpt lat="45.95824" lon="4.76757">
        <ele>190</ele>
        <time>2018-05-25T08:26:02Z</time>
      </trkpt>
      <trkpt lat="45.95825" lon="4.76763">
        <ele>190</ele>
        <time>2018-05-25T08:26:03Z</time>
      </trkpt>
      <trkpt lat="45.95826" lon="4.76771">
        <ele>190</ele>
        <time>2018-05-25T08:26:04Z</time>
      </trkpt>
      <trkpt lat="45.95828" lon="4.76778">
        <ele>190</ele>
        <time>2018-05-25T08:26:05Z</time>
      </trkpt>
      <trkpt lat="45.95829" lon="4.76784">
        <ele>190</ele>
        <time>2018-05-25T08:26:06Z</time>
      </trkpt>
      <trkpt lat="45.95829" lon="4.76795">
        <ele>190</ele>
        <time>2018-05-25T08:26:08Z</time>
      </trkpt>
      <trkpt lat="45.95831" lon="4.76801">
        <ele>190</ele>
        <time>2018-05-25T08:26:09Z</time>
      </trkpt>
      <trkpt lat="45.95831" lon="4.76808">
        <ele>190</ele>
        <time>2018-05-25T08:26:10Z</time>
      </trkpt>
      <trkpt lat="45.9583" lon="4.76816">
        <ele>190</ele>
        <time>2018-05-25T08:26:11Z</time>
      </trkpt>
      <trkpt lat="45.95829" lon="4.76824">
        <ele>190</ele>
        <time>2018-05-25T08:26:12Z</time>
      </trkpt>
      <trkpt lat="45.95828" lon="4.76831">
        <ele>190</ele>
        <time>2018-05-25T08:26:13Z</time>
      </trkpt>
      <trkpt lat="45.95826" lon="4.76838">
        <ele>190</ele>
        <time>2018-05-25T08:26:14Z</time>
      </trkpt>
      <trkpt lat="45.95824" lon="4.76845">
        <ele>190</ele>
        <time>2018-05-25T08:26:15Z</time>
      </trkpt>
      <trkpt lat="45.95822" lon="4.76852">
        <ele>189</ele>
        <time>2018-05-25T08:26:16Z</time>
      </trkpt>
      <trkpt lat="45.9582" lon="4.76858">
        <ele>189</ele>
        <time>2018-05-25T08:26:17Z</time>
      </trkpt>
      <trkpt lat="45.95818" lon="4.76864">
        <ele>189</ele>
        <time>2018-05-25T08:26:18Z</time>
      </trkpt>
      <trkpt lat="45.95817" lon="4.76871">
        <ele>189</ele>
        <time>2018-05-25T08:26:19Z</time>
      </trkpt>
      <trkpt lat="45.95817" lon="4.76879">
        <ele>189</ele>
        <time>2018-05-25T08:26:20Z</time>
      </trkpt>
      <trkpt lat="45.95816" lon="4.76886">
        <ele>189</ele>
        <time>2018-05-25T08:26:21Z</time>
      </trkpt>
      <trkpt lat="45.95815" lon="4.76893">
        <ele>189</ele>
        <time>2018-05-25T08:26:22Z</time>
      </trkpt>
      <trkpt lat="45.95814" lon="4.769">
        <ele>189</ele>
        <time>2018-05-25T08:26:23Z</time>
      </trkpt>
      <trkpt lat="45.95812" lon="4.76907">
        <ele>189</ele>
        <time>2018-05-25T08:26:24Z</time>
      </trkpt>
      <trkpt lat="45.9581" lon="4.76915">
        <ele>189</ele>
        <time>2018-05-25T08:26:25Z</time>
      </trkpt>
      <trkpt lat="45.95809" lon="4.76922">
        <ele>189</ele>
        <time>2018-05-25T08:26:26Z</time>
      </trkpt>
      <trkpt lat="45.95807" lon="4.76929">
        <ele>189</ele>
        <time>2018-05-25T08:26:27Z</time>
      </trkpt>
      <trkpt lat="45.95806" lon="4.76936">
        <ele>189</ele>
        <time>2018-05-25T08:26:28Z</time>
      </trkpt>
      <trkpt lat="45.95805" lon="4.76942">
        <ele>189</ele>
        <time>2018-05-25T08:26:29Z</time>
      </trkpt>
      <trkpt lat="45.95803" lon="4.7695">
        <ele>189</ele>
        <time>2018-05-25T08:26:30Z</time>
      </trkpt>
      <trkpt lat="45.95802" lon="4.76957">
        <ele>189</ele>
        <time>2018-05-25T08:26:31Z</time>
      </trkpt>
      <trkpt lat="45.95801" lon="4.76964">
        <ele>189</ele>
        <time>2018-05-25T08:26:32Z</time>
      </trkpt>
      <trkpt lat="45.958" lon="4.76971">
        <ele>189</ele>
        <time>2018-05-25T08:26:33Z</time>
      </trkpt>
      <trkpt lat="45.95799" lon="4.76979">
        <ele>189</ele>
        <time>2018-05-25T08:26:34Z</time>
      </trkpt>
      <trkpt lat="45.95798" lon="4.76986">
        <ele>189</ele>
        <time>2018-05-25T08:26:35Z</time>
      </trkpt>
      <trkpt lat="45.95798" lon="4.76993">
        <ele>189</ele>
        <time>2018-05-25T08:26:36Z</time>
      </trkpt>
      <trkpt lat="45.95798" lon="4.76999">
        <ele>189</ele>
        <time>2018-05-25T08:26:37Z</time>
      </trkpt>
      <trkpt lat="45.95797" lon="4.77006">
        <ele>190</ele>
        <time>2018-05-25T08:26:38Z</time>
      </trkpt>
      <trkpt lat="45.95798" lon="4.77013">
        <ele>190</ele>
        <time>2018-05-25T08:26:39Z</time>
      </trkpt>
      <trkpt lat="45.958" lon="4.7702">
        <ele>190</ele>
        <time>2018-05-25T08:26:40Z</time>
      </trkpt>
      <trkpt lat="45.95803" lon="4.77028">
        <ele>190</ele>
        <time>2018-05-25T08:26:41Z</time>
      </trkpt>
      <trkpt lat="45.95807" lon="4.77038">
        <ele>190</ele>
        <time>2018-05-25T08:26:43Z</time>
      </trkpt>
      <trkpt lat="45.9581" lon="4.77044">
        <ele>190</ele>
        <time>2018-05-25T08:26:44Z</time>
      </trkpt>
      <trkpt lat="45.95815" lon="4.7705">
        <ele>190</ele>
        <time>2018-05-25T08:26:45Z</time>
      </trkpt>
      <trkpt lat="45.95818" lon="4.77056">
        <ele>190</ele>
        <time>2018-05-25T08:26:46Z</time>
      </trkpt>
      <trkpt lat="45.95821" lon="4.77063">
        <ele>190</ele>
        <time>2018-05-25T08:26:47Z</time>
      </trkpt>
      <trkpt lat="45.95824" lon="4.77069">
        <ele>191</ele>
        <time>2018-05-25T08:26:48Z</time>
      </trkpt>
      <trkpt lat="45.95827" lon="4.77075">
        <ele>191</ele>
        <time>2018-05-25T08:26:49Z</time>
      </trkpt>
      <trkpt lat="45.9583" lon="4.77082">
        <ele>192</ele>
        <time>2018-05-25T08:26:50Z</time>
      </trkpt>
      <trkpt lat="45.95832" lon="4.77088">
        <ele>191</ele>
        <time>2018-05-25T08:26:51Z</time>
      </trkpt>
      <trkpt lat="45.95834" lon="4.77095">
        <ele>193</ele>
        <time>2018-05-25T08:26:52Z</time>
      </trkpt>
      <trkpt lat="45.95836" lon="4.77102">
        <ele>193</ele>
        <time>2018-05-25T08:26:53Z</time>
      </trkpt>
      <trkpt lat="45.95838" lon="4.77108">
        <ele>193</ele>
        <time>2018-05-25T08:26:54Z</time>
      </trkpt>
      <trkpt lat="45.95841" lon="4.77115">
        <ele>193</ele>
        <time>2018-05-25T08:26:55Z</time>
      </trkpt>
      <trkpt lat="45.95843" lon="4.77122">
        <ele>193</ele>
        <time>2018-05-25T08:26:56Z</time>
      </trkpt>
      <trkpt lat="45.95845" lon="4.77129">
        <ele>193</ele>
        <time>2018-05-25T08:26:57Z</time>
      </trkpt>
      <trkpt lat="45.95847" lon="4.77134">
        <ele>193</ele>
        <time>2018-05-25T08:26:58Z</time>
      </trkpt>
      <trkpt lat="45.95849" lon="4.77141">
        <ele>193</ele>
        <time>2018-05-25T08:26:59Z</time>
      </trkpt>
      <trkpt lat="45.95851" lon="4.77147">
        <ele>192</ele>
        <time>2018-05-25T08:27:00Z</time>
      </trkpt>
      <trkpt lat="45.95853" lon="4.77154">
        <ele>192</ele>
        <time>2018-05-25T08:27:01Z</time>
      </trkpt>
      <trkpt lat="45.95854" lon="4.77161">
        <ele>192</ele>
        <time>2018-05-25T08:27:02Z</time>
      </trkpt>
      <trkpt lat="45.95856" lon="4.77168">
        <ele>192</ele>
        <time>2018-05-25T08:27:03Z</time>
      </trkpt>
      <trkpt lat="45.95858" lon="4.77175">
        <ele>192</ele>
        <time>2018-05-25T08:27:04Z</time>
      </trkpt>
      <trkpt lat="45.9586" lon="4.77181">
        <ele>192</ele>
        <time>2018-05-25T08:27:05Z</time>
      </trkpt>
      <trkpt lat="45.95862" lon="4.77187">
        <ele>192</ele>
        <time>2018-05-25T08:27:06Z</time>
      </trkpt>
      <trkpt lat="45.95863" lon="4.77194">
        <ele>193</ele>
        <time>2018-05-25T08:27:07Z</time>
      </trkpt>
      <trkpt lat="45.95865" lon="4.77202">
        <ele>193</ele>
        <time>2018-05-25T08:27:08Z</time>
      </trkpt>
      <trkpt lat="45.95867" lon="4.77209">
        <ele>193</ele>
        <time>2018-05-25T08:27:09Z</time>
      </trkpt>
      <trkpt lat="45.95868" lon="4.77216">
        <ele>193</ele>
        <time>2018-05-25T08:27:10Z</time>
      </trkpt>
      <trkpt lat="45.95871" lon="4.77224">
        <ele>193</ele>
        <time>2018-05-25T08:27:11Z</time>
      </trkpt>
      <trkpt lat="45.95873" lon="4.77231">
        <ele>193</ele>
        <time>2018-05-25T08:27:12Z</time>
      </trkpt>
      <trkpt lat="45.95874" lon="4.77238">
        <ele>193</ele>
        <time>2018-05-25T08:27:13Z</time>
      </trkpt>
      <trkpt lat="45.95876" lon="4.77245">
        <ele>193</ele>
        <time>2018-05-25T08:27:14Z</time>
      </trkpt>
      <trkpt lat="45.95878" lon="4.77252">
        <ele>193</ele>
        <time>2018-05-25T08:27:15Z</time>
      </trkpt>
      <trkpt lat="45.95879" lon="4.77258">
        <ele>193</ele>
        <time>2018-05-25T08:27:16Z</time>
      </trkpt>
      <trkpt lat="45.95881" lon="4.7727">
        <ele>193</ele>
        <time>2018-05-25T08:27:18Z</time>
      </trkpt>
      <trkpt lat="45.95883" lon="4.77277">
        <ele>193</ele>
        <time>2018-05-25T08:27:19Z</time>
      </trkpt>
      <trkpt lat="45.95885" lon="4.77286">
        <ele>193</ele>
        <time>2018-05-25T08:27:20Z</time>
      </trkpt>
      <trkpt lat="45.95887" lon="4.77294">
        <ele>193</ele>
        <time>2018-05-25T08:27:21Z</time>
      </trkpt>
      <trkpt lat="45.95888" lon="4.773">
        <ele>193</ele>
        <time>2018-05-25T08:27:22Z</time>
      </trkpt>
      <trkpt lat="45.9589" lon="4.77307">
        <ele>193</ele>
        <time>2018-05-25T08:27:23Z</time>
      </trkpt>
      <trkpt lat="45.95891" lon="4.77314">
        <ele>193</ele>
        <time>2018-05-25T08:27:24Z</time>
      </trkpt>
      <trkpt lat="45.95893" lon="4.77321">
        <ele>193</ele>
        <time>2018-05-25T08:27:25Z</time>
      </trkpt>
      <trkpt lat="45.95895" lon="4.77333">
        <ele>193</ele>
        <time>2018-05-25T08:27:27Z</time>
      </trkpt>
      <trkpt lat="45.95897" lon="4.77339">
        <ele>193</ele>
        <time>2018-05-25T08:27:28Z</time>
      </trkpt>
      <trkpt lat="45.95899" lon="4.77347">
        <ele>193</ele>
        <time>2018-05-25T08:27:29Z</time>
      </trkpt>
      <trkpt lat="45.95901" lon="4.77353">
        <ele>193</ele>
        <time>2018-05-25T08:27:30Z</time>
      </trkpt>
      <trkpt lat="45.95904" lon="4.7736">
        <ele>193</ele>
        <time>2018-05-25T08:27:31Z</time>
      </trkpt>
      <trkpt lat="45.95906" lon="4.77365">
        <ele>193</ele>
        <time>2018-05-25T08:27:32Z</time>
      </trkpt>
      <trkpt lat="45.95907" lon="4.77372">
        <ele>193</ele>
        <time>2018-05-25T08:27:33Z</time>
      </trkpt>
      <trkpt lat="45.95909" lon="4.77378">
        <ele>193</ele>
        <time>2018-05-25T08:27:34Z</time>
      </trkpt>
      <trkpt lat="45.95911" lon="4.77383">
        <ele>193</ele>
        <time>2018-05-25T08:27:35Z</time>
      </trkpt>
      <trkpt lat="45.95914" lon="4.7739">
        <ele>193</ele>
        <time>2018-05-25T08:27:36Z</time>
      </trkpt>
      <trkpt lat="45.95918" lon="4.77398">
        <ele>196</ele>
        <time>2018-05-25T08:27:37Z</time>
      </trkpt>
      <trkpt lat="45.9592" lon="4.77403">
        <ele>195</ele>
        <time>2018-05-25T08:27:38Z</time>
      </trkpt>
      <trkpt lat="45.95922" lon="4.7741">
        <ele>195</ele>
        <time>2018-05-25T08:27:39Z</time>
      </trkpt>
      <trkpt lat="45.95923" lon="4.77416">
        <ele>195</ele>
        <time>2018-05-25T08:27:40Z</time>
      </trkpt>
      <trkpt lat="45.95925" lon="4.77422">
        <ele>195</ele>
        <time>2018-05-25T08:27:41Z</time>
      </trkpt>
      <trkpt lat="45.95927" lon="4.77428">
        <ele>195</ele>
        <time>2018-05-25T08:27:42Z</time>
      </trkpt>
      <trkpt lat="45.95931" lon="4.77436">
        <ele>195</ele>
        <time>2018-05-25T08:27:43Z</time>
      </trkpt>
      <trkpt lat="45.95933" lon="4.77442">
        <ele>195</ele>
        <time>2018-05-25T08:27:44Z</time>
      </trkpt>
      <trkpt lat="45.95935" lon="4.77448">
        <ele>195</ele>
        <time>2018-05-25T08:27:45Z</time>
      </trkpt>
      <trkpt lat="45.95938" lon="4.77454">
        <ele>195</ele>
        <time>2018-05-25T08:27:46Z</time>
      </trkpt>
      <trkpt lat="45.9594" lon="4.7746">
        <ele>195</ele>
        <time>2018-05-25T08:27:47Z</time>
      </trkpt>
      <trkpt lat="45.95942" lon="4.77465">
        <ele>195</ele>
        <time>2018-05-25T08:27:48Z</time>
      </trkpt>
      <trkpt lat="45.95945" lon="4.77477">
        <ele>195</ele>
        <time>2018-05-25T08:27:50Z</time>
      </trkpt>
      <trkpt lat="45.95947" lon="4.77482">
        <ele>195</ele>
        <time>2018-05-25T08:27:51Z</time>
      </trkpt>
      <trkpt lat="45.95949" lon="4.77488">
        <ele>195</ele>
        <time>2018-05-25T08:27:52Z</time>
      </trkpt>
      <trkpt lat="45.95952" lon="4.77496">
        <ele>195</ele>
        <time>2018-05-25T08:27:53Z</time>
      </trkpt>
      <trkpt lat="45.95956" lon="4.77504">
        <ele>195</ele>
        <time>2018-05-25T08:27:55Z</time>
      </trkpt>
      <trkpt lat="45.95959" lon="4.7751">
        <ele>195</ele>
        <time>2018-05-25T08:27:56Z</time>
      </trkpt>
      <trkpt lat="45.95961" lon="4.77515">
        <ele>195</ele>
        <time>2018-05-25T08:27:57Z</time>
      </trkpt>
      <trkpt lat="45.95965" lon="4.7752">
        <ele>195</ele>
        <time>2018-05-25T08:27:58Z</time>
      </trkpt>
      <trkpt lat="45.9597" lon="4.7753">
        <ele>195</ele>
        <time>2018-05-25T08:28:00Z</time>
      </trkpt>
      <trkpt lat="45.95972" lon="4.77534">
        <ele>195</ele>
        <time>2018-05-25T08:28:01Z</time>
      </trkpt>
      <trkpt lat="45.95976" lon="4.77542">
        <ele>196</ele>
        <time>2018-05-25T08:28:03Z</time>
      </trkpt>
      <trkpt lat="45.95979" lon="4.77546">
        <ele>196</ele>
        <time>2018-05-25T08:28:04Z</time>
      </trkpt>
      <trkpt lat="45.95982" lon="4.77552">
        <ele>196</ele>
        <time>2018-05-25T08:28:05Z</time>
      </trkpt>
      <trkpt lat="45.95984" lon="4.7756">
        <ele>196</ele>
        <time>2018-05-25T08:28:06Z</time>
      </trkpt>
      <trkpt lat="45.95986" lon="4.77567">
        <ele>196</ele>
        <time>2018-05-25T08:28:07Z</time>
      </trkpt>
      <trkpt lat="45.95989" lon="4.77574">
        <ele>196</ele>
        <time>2018-05-25T08:28:08Z</time>
      </trkpt>
      <trkpt lat="45.95991" lon="4.77583">
        <ele>196</ele>
        <time>2018-05-25T08:28:09Z</time>
      </trkpt>
      <trkpt lat="45.95996" lon="4.7759">
        <ele>196</ele>
        <time>2018-05-25T08:28:10Z</time>
      </trkpt>
      <trkpt lat="45.96" lon="4.77594">
        <ele>198</ele>
        <time>2018-05-25T08:28:11Z</time>
      </trkpt>
      <trkpt lat="45.96005" lon="4.77598">
        <ele>198</ele>
        <time>2018-05-25T08:28:12Z</time>
      </trkpt>
      <trkpt lat="45.96009" lon="4.77604">
        <ele>198</ele>
        <time>2018-05-25T08:28:13Z</time>
      </trkpt>
      <trkpt lat="45.96013" lon="4.7761">
        <ele>199</ele>
        <time>2018-05-25T08:28:14Z</time>
      </trkpt>
      <trkpt lat="45.96016" lon="4.77615">
        <ele>199</ele>
        <time>2018-05-25T08:28:15Z</time>
      </trkpt>
      <trkpt lat="45.96021" lon="4.77618">
        <ele>199</ele>
        <time>2018-05-25T08:28:16Z</time>
      </trkpt>
      <trkpt lat="45.96025" lon="4.77623">
        <ele>199</ele>
        <time>2018-05-25T08:28:17Z</time>
      </trkpt>
      <trkpt lat="45.96028" lon="4.77628">
        <ele>199</ele>
        <time>2018-05-25T08:28:18Z</time>
      </trkpt>
      <trkpt lat="45.96032" lon="4.77632">
        <ele>199</ele>
        <time>2018-05-25T08:28:19Z</time>
      </trkpt>
      <trkpt lat="45.96036" lon="4.77636">
        <ele>199</ele>
        <time>2018-05-25T08:28:20Z</time>
      </trkpt>
      <trkpt lat="45.96041" lon="4.77645">
        <ele>199</ele>
        <time>2018-05-25T08:28:22Z</time>
      </trkpt>
      <trkpt lat="45.96046" lon="4.7765">
        <ele>199</ele>
        <time>2018-05-25T08:28:23Z</time>
      </trkpt>
      <trkpt lat="45.9605" lon="4.77654">
        <ele>200</ele>
        <time>2018-05-25T08:28:24Z</time>
      </trkpt>
      <trkpt lat="45.96053" lon="4.77659">
        <ele>200</ele>
        <time>2018-05-25T08:28:25Z</time>
      </trkpt>
      <trkpt lat="45.96059" lon="4.77667">
        <ele>198</ele>
        <time>2018-05-25T08:28:27Z</time>
      </trkpt>
      <trkpt lat="45.96063" lon="4.77671">
        <ele>198</ele>
        <time>2018-05-25T08:28:28Z</time>
      </trkpt>
      <trkpt lat="45.96066" lon="4.77677">
        <ele>198</ele>
        <time>2018-05-25T08:28:29Z</time>
      </trkpt>
      <trkpt lat="45.9607" lon="4.77682">
        <ele>198</ele>
        <time>2018-05-25T08:28:30Z</time>
      </trkpt>
      <trkpt lat="45.96073" lon="4.77687">
        <ele>198</ele>
        <time>2018-05-25T08:28:31Z</time>
      </trkpt>
      <trkpt lat="45.96078" lon="4.77694">
        <ele>197</ele>
        <time>2018-05-25T08:28:32Z</time>
      </trkpt>
      <trkpt lat="45.96081" lon="4.77699">
        <ele>197</ele>
        <time>2018-05-25T08:28:33Z</time>
      </trkpt>
      <trkpt lat="45.96084" lon="4.77704">
        <ele>200</ele>
        <time>2018-05-25T08:28:34Z</time>
      </trkpt>
      <trkpt lat="45.96087" lon="4.7771">
        <ele>200</ele>
        <time>2018-05-25T08:28:35Z</time>
      </trkpt>
      <trkpt lat="45.96091" lon="4.77715">
        <ele>199</ele>
        <time>2018-05-25T08:28:36Z</time>
      </trkpt>
      <trkpt lat="45.96094" lon="4.77721">
        <ele>199</ele>
        <time>2018-05-25T08:28:37Z</time>
      </trkpt>
      <trkpt lat="45.96097" lon="4.77726">
        <ele>199</ele>
        <time>2018-05-25T08:28:38Z</time>
      </trkpt>
      <trkpt lat="45.961" lon="4.77731">
        <ele>199</ele>
        <time>2018-05-25T08:28:39Z</time>
      </trkpt>
      <trkpt lat="45.96104" lon="4.77735">
        <ele>199</ele>
        <time>2018-05-25T08:28:40Z</time>
      </trkpt>
      <trkpt lat="45.96107" lon="4.77742">
        <ele>199</ele>
        <time>2018-05-25T08:28:41Z</time>
      </trkpt>
      <trkpt lat="45.9611" lon="4.77747">
        <ele>199</ele>
        <time>2018-05-25T08:28:42Z</time>
      </trkpt>
      <trkpt lat="45.96112" lon="4.77752">
        <ele>197</ele>
        <time>2018-05-25T08:28:43Z</time>
      </trkpt>
      <trkpt lat="45.96115" lon="4.77758">
        <ele>197</ele>
        <time>2018-05-25T08:28:44Z</time>
      </trkpt>
      <trkpt lat="45.96119" lon="4.77765">
        <ele>197</ele>
        <time>2018-05-25T08:28:45Z</time>
      </trkpt>
      <trkpt lat="45.96122" lon="4.77771">
        <ele>197</ele>
        <time>2018-05-25T08:28:46Z</time>
      </trkpt>
      <trkpt lat="45.96127" lon="4.77781">
        <ele>198</ele>
        <time>2018-05-25T08:28:48Z</time>
      </trkpt>
      <trkpt lat="45.96131" lon="4.77786">
        <ele>198</ele>
        <time>2018-05-25T08:28:49Z</time>
      </trkpt>
      <trkpt lat="45.96136" lon="4.7779">
        <ele>198</ele>
        <time>2018-05-25T08:28:50Z</time>
      </trkpt>
      <trkpt lat="45.96136" lon="4.77798">
        <ele>198</ele>
        <time>2018-05-25T08:28:51Z</time>
      </trkpt>
      <trkpt lat="45.96139" lon="4.77805">
        <ele>198</ele>
        <time>2018-05-25T08:28:52Z</time>
      </trkpt>
      <trkpt lat="45.96143" lon="4.77811">
        <ele>198</ele>
        <time>2018-05-25T08:28:53Z</time>
      </trkpt>
      <trkpt lat="45.96146" lon="4.77817">
        <ele>198</ele>
        <time>2018-05-25T08:28:54Z</time>
      </trkpt>
      <trkpt lat="45.96148" lon="4.77823">
        <ele>198</ele>
        <time>2018-05-25T08:28:55Z</time>
      </trkpt>
      <trkpt lat="45.96152" lon="4.7783">
        <ele>198</ele>
        <time>2018-05-25T08:28:56Z</time>
      </trkpt>
      <trkpt lat="45.96155" lon="4.77836">
        <ele>197</ele>
        <time>2018-05-25T08:28:57Z</time>
      </trkpt>
      <trkpt lat="45.96159" lon="4.77842">
        <ele>197</ele>
        <time>2018-05-25T08:28:58Z</time>
      </trkpt>
      <trkpt lat="45.96162" lon="4.77847">
        <ele>197</ele>
        <time>2018-05-25T08:28:59Z</time>
      </trkpt>
      <trkpt lat="45.96166" lon="4.77853">
        <ele>196</ele>
        <time>2018-05-25T08:29:00Z</time>
      </trkpt>
      <trkpt lat="45.9617" lon="4.77859">
        <ele>201</ele>
        <time>2018-05-25T08:29:01Z</time>
      </trkpt>
      <trkpt lat="45.96173" lon="4.77865">
        <ele>201</ele>
        <time>2018-05-25T08:29:02Z</time>
      </trkpt>
      <trkpt lat="45.96176" lon="4.7787">
        <ele>201</ele>
        <time>2018-05-25T08:29:03Z</time>
      </trkpt>
      <trkpt lat="45.9618" lon="4.77874">
        <ele>201</ele>
        <time>2018-05-25T08:29:04Z</time>
      </trkpt>
      <trkpt lat="45.96183" lon="4.7788">
        <ele>201</ele>
        <time>2018-05-25T08:29:05Z</time>
      </trkpt>
      <trkpt lat="45.96186" lon="4.77885">
        <ele>201</ele>
        <time>2018-05-25T08:29:06Z</time>
      </trkpt>
      <trkpt lat="45.9619" lon="4.77891">
        <ele>201</ele>
        <time>2018-05-25T08:29:07Z</time>
      </trkpt>
      <trkpt lat="45.96193" lon="4.77895">
        <ele>201</ele>
        <time>2018-05-25T08:29:08Z</time>
      </trkpt>
      <trkpt lat="45.96197" lon="4.77901">
        <ele>201</ele>
        <time>2018-05-25T08:29:09Z</time>
      </trkpt>
      <trkpt lat="45.962" lon="4.77908">
        <ele>201</ele>
        <time>2018-05-25T08:29:10Z</time>
      </trkpt>
      <trkpt lat="45.96204" lon="4.77914">
        <ele>202</ele>
        <time>2018-05-25T08:29:11Z</time>
      </trkpt>
      <trkpt lat="45.96209" lon="4.77921">
        <ele>199</ele>
        <time>2018-05-25T08:29:12Z</time>
      </trkpt>
      <trkpt lat="45.96213" lon="4.77927">
        <ele>199</ele>
        <time>2018-05-25T08:29:13Z</time>
      </trkpt>
      <trkpt lat="45.96217" lon="4.77931">
        <ele>200</ele>
        <time>2018-05-25T08:29:14Z</time>
      </trkpt>
      <trkpt lat="45.96221" lon="4.77936">
        <ele>200</ele>
        <time>2018-05-25T08:29:15Z</time>
      </trkpt>
      <trkpt lat="45.96226" lon="4.77941">
        <ele>200</ele>
        <time>2018-05-25T08:29:16Z</time>
      </trkpt>
      <trkpt lat="45.9623" lon="4.77947">
        <ele>200</ele>
        <time>2018-05-25T08:29:17Z</time>
      </trkpt>
      <trkpt lat="45.96233" lon="4.77952">
        <ele>199</ele>
        <time>2018-05-25T08:29:18Z</time>
      </trkpt>
      <trkpt lat="45.96238" lon="4.77956">
        <ele>199</ele>
        <time>2018-05-25T08:29:19Z</time>
      </trkpt>
      <trkpt lat="45.96242" lon="4.77962">
        <ele>199</ele>
        <time>2018-05-25T08:29:20Z</time>
      </trkpt>
      <trkpt lat="45.96248" lon="4.77966">
        <ele>199</ele>
        <time>2018-05-25T08:29:21Z</time>
      </trkpt>
      <trkpt lat="45.96253" lon="4.77971">
        <ele>203</ele>
        <time>2018-05-25T08:29:22Z</time>
      </trkpt>
      <trkpt lat="45.96259" lon="4.77977">
        <ele>202</ele>
        <time>2018-05-25T08:29:23Z</time>
      </trkpt>
      <trkpt lat="45.96264" lon="4.77981">
        <ele>202</ele>
        <time>2018-05-25T08:29:24Z</time>
      </trkpt>
      <trkpt lat="45.96268" lon="4.77986">
        <ele>202</ele>
        <time>2018-05-25T08:29:25Z</time>
      </trkpt>
      <trkpt lat="45.96274" lon="4.7799">
        <ele>203</ele>
        <time>2018-05-25T08:29:26Z</time>
      </trkpt>
      <trkpt lat="45.9628" lon="4.77994">
        <ele>203</ele>
        <time>2018-05-25T08:29:27Z</time>
      </trkpt>
      <trkpt lat="45.96283" lon="4.77999">
        <ele>203</ele>
        <time>2018-05-25T08:29:28Z</time>
      </trkpt>
      <trkpt lat="45.9629" lon="4.78005">
        <ele>199</ele>
        <time>2018-05-25T08:29:29Z</time>
      </trkpt>
      <trkpt lat="45.96296" lon="4.78009">
        <ele>199</ele>
        <time>2018-05-25T08:29:30Z</time>
      </trkpt>
      <trkpt lat="45.963" lon="4.78016">
        <ele>199</ele>
        <time>2018-05-25T08:29:31Z</time>
      </trkpt>
      <trkpt lat="45.96305" lon="4.78021">
        <ele>200</ele>
        <time>2018-05-25T08:29:32Z</time>
      </trkpt>
      <trkpt lat="45.9631" lon="4.78026">
        <ele>200</ele>
        <time>2018-05-25T08:29:33Z</time>
      </trkpt>
      <trkpt lat="45.96315" lon="4.78032">
        <ele>200</ele>
        <time>2018-05-25T08:29:34Z</time>
      </trkpt>
      <trkpt lat="45.9632" lon="4.78036">
        <ele>200</ele>
        <time>2018-05-25T08:29:35Z</time>
      </trkpt>
      <trkpt lat="45.96325" lon="4.78041">
        <ele>199</ele>
        <time>2018-05-25T08:29:36Z</time>
      </trkpt>
      <trkpt lat="45.96329" lon="4.78046">
        <ele>199</ele>
        <time>2018-05-25T08:29:37Z</time>
      </trkpt>
      <trkpt lat="45.96333" lon="4.7805">
        <ele>199</ele>
        <time>2018-05-25T08:29:38Z</time>
      </trkpt>
      <trkpt lat="45.96337" lon="4.78055">
        <ele>202</ele>
        <time>2018-05-25T08:29:39Z</time>
      </trkpt>
      <trkpt lat="45.9634" lon="4.7806">
        <ele>202</ele>
        <time>2018-05-25T08:29:40Z</time>
      </trkpt>
      <trkpt lat="45.96345" lon="4.78065">
        <ele>202</ele>
        <time>2018-05-25T08:29:41Z</time>
      </trkpt>
      <trkpt lat="45.96349" lon="4.7807">
        <ele>201</ele>
        <time>2018-05-25T08:29:42Z</time>
      </trkpt>
      <trkpt lat="45.96352" lon="4.78075">
        <ele>201</ele>
        <time>2018-05-25T08:29:43Z</time>
      </trkpt>
      <trkpt lat="45.96357" lon="4.7808">
        <ele>202</ele>
        <time>2018-05-25T08:29:44Z</time>
      </trkpt>
      <trkpt lat="45.96361" lon="4.78083">
        <ele>202</ele>
        <time>2018-05-25T08:29:45Z</time>
      </trkpt>
      <trkpt lat="45.96365" lon="4.78087">
        <ele>199</ele>
        <time>2018-05-25T08:29:46Z</time>
      </trkpt>
      <trkpt lat="45.96369" lon="4.78091">
        <ele>199</ele>
        <time>2018-05-25T08:29:47Z</time>
      </trkpt>
      <trkpt lat="45.96374" lon="4.78096">
        <ele>200</ele>
        <time>2018-05-25T08:29:48Z</time>
      </trkpt>
      <trkpt lat="45.96377" lon="4.78099">
        <ele>200</ele>
        <time>2018-05-25T08:29:49Z</time>
      </trkpt>
      <trkpt lat="45.96378" lon="4.78101">
        <ele>200</ele>
        <time>2018-05-25T08:29:50Z</time>
      </trkpt>
      <trkpt lat="45.96385" lon="4.78106">
        <ele>200</ele>
        <time>2018-05-25T08:29:51Z</time>
      </trkpt>
      <trkpt lat="45.96389" lon="4.78109">
        <ele>200</ele>
        <time>2018-05-25T08:29:52Z</time>
      </trkpt>
      <trkpt lat="45.96393" lon="4.78113">
        <ele>200</ele>
        <time>2018-05-25T08:29:53Z</time>
      </trkpt>
      <trkpt lat="45.96396" lon="4.78118">
        <ele>200</ele>
        <time>2018-05-25T08:29:54Z</time>
      </trkpt>
      <trkpt lat="45.964" lon="4.78122">
        <ele>200</ele>
        <time>2018-05-25T08:29:55Z</time>
      </trkpt>
      <trkpt lat="45.96407" lon="4.78127">
        <ele>200</ele>
        <time>2018-05-25T08:29:56Z</time>
      </trkpt>
      <trkpt lat="45.9641" lon="4.7813">
        <ele>199</ele>
        <time>2018-05-25T08:29:57Z</time>
      </trkpt>
      <trkpt lat="45.96416" lon="4.78136">
        <ele>199</ele>
        <time>2018-05-25T08:29:58Z</time>
      </trkpt>
      <trkpt lat="45.96419" lon="4.7814">
        <ele>203</ele>
        <time>2018-05-25T08:29:59Z</time>
      </trkpt>
      <trkpt lat="45.96424" lon="4.78144">
        <ele>203</ele>
        <time>2018-05-25T08:30:00Z</time>
      </trkpt>
      <trkpt lat="45.96427" lon="4.78148">
        <ele>202</ele>
        <time>2018-05-25T08:30:01Z</time>
      </trkpt>
      <trkpt lat="45.96432" lon="4.78153">
        <ele>202</ele>
        <time>2018-05-25T08:30:02Z</time>
      </trkpt>
      <trkpt lat="45.96437" lon="4.78156">
        <ele>203</ele>
        <time>2018-05-25T08:30:03Z</time>
      </trkpt>
      <trkpt lat="45.96442" lon="4.7816">
        <ele>203</ele>
        <time>2018-05-25T08:30:04Z</time>
      </trkpt>
      <trkpt lat="45.96445" lon="4.78164">
        <ele>203</ele>
        <time>2018-05-25T08:30:05Z</time>
      </trkpt>
      <trkpt lat="45.9645" lon="4.78168">
        <ele>199</ele>
        <time>2018-05-25T08:30:06Z</time>
      </trkpt>
      <trkpt lat="45.96455" lon="4.78173">
        <ele>200</ele>
        <time>2018-05-25T08:30:07Z</time>
      </trkpt>
      <trkpt lat="45.9646" lon="4.78177">
        <ele>200</ele>
        <time>2018-05-25T08:30:08Z</time>
      </trkpt>
      <trkpt lat="45.96465" lon="4.78181">
        <ele>200</ele>
        <time>2018-05-25T08:30:09Z</time>
      </trkpt>
      <trkpt lat="45.9647" lon="4.78184">
        <ele>200</ele>
        <time>2018-05-25T08:30:10Z</time>
      </trkpt>
      <trkpt lat="45.96475" lon="4.78186">
        <ele>200</ele>
        <time>2018-05-25T08:30:11Z</time>
      </trkpt>
      <trkpt lat="45.9648" lon="4.78188">
        <ele>201</ele>
        <time>2018-05-25T08:30:12Z</time>
      </trkpt>
      <trkpt lat="45.96485" lon="4.7819">
        <ele>201</ele>
        <time>2018-05-25T08:30:13Z</time>
      </trkpt>
      <trkpt lat="45.96489" lon="4.78195">
        <ele>201</ele>
        <time>2018-05-25T08:30:14Z</time>
      </trkpt>
      <trkpt lat="45.96493" lon="4.78199">
        <ele>200</ele>
        <time>2018-05-25T08:30:15Z</time>
      </trkpt>
      <trkpt lat="45.96498" lon="4.78201">
        <ele>200</ele>
        <time>2018-05-25T08:30:16Z</time>
      </trkpt>
      <trkpt lat="45.96501" lon="4.78207">
        <ele>205</ele>
        <time>2018-05-25T08:30:17Z</time>
      </trkpt>
      <trkpt lat="45.96507" lon="4.78211">
        <ele>205</ele>
        <time>2018-05-25T08:30:18Z</time>
      </trkpt>
      <trkpt lat="45.96511" lon="4.78216">
        <ele>205</ele>
        <time>2018-05-25T08:30:19Z</time>
      </trkpt>
      <trkpt lat="45.96514" lon="4.78223">
        <ele>204</ele>
        <time>2018-05-25T08:30:20Z</time>
      </trkpt>
      <trkpt lat="45.96518" lon="4.7823">
        <ele>204</ele>
        <time>2018-05-25T08:30:21Z</time>
      </trkpt>
      <trkpt lat="45.96524" lon="4.78239">
        <ele>204</ele>
        <time>2018-05-25T08:30:23Z</time>
      </trkpt>
      <trkpt lat="45.96527" lon="4.78244">
        <ele>204</ele>
        <time>2018-05-25T08:30:24Z</time>
      </trkpt>
      <trkpt lat="45.96529" lon="4.7825">
        <ele>204</ele>
        <time>2018-05-25T08:30:25Z</time>
      </trkpt>
      <trkpt lat="45.96532" lon="4.78255">
        <ele>200</ele>
        <time>2018-05-25T08:30:26Z</time>
      </trkpt>
      <trkpt lat="45.96536" lon="4.78261">
        <ele>200</ele>
        <time>2018-05-25T08:30:27Z</time>
      </trkpt>
      <trkpt lat="45.9654" lon="4.78265">
        <ele>200</ele>
        <time>2018-05-25T08:30:28Z</time>
      </trkpt>
      <trkpt lat="45.96547" lon="4.78273">
        <ele>200</ele>
        <time>2018-05-25T08:30:30Z</time>
      </trkpt>
      <trkpt lat="45.9655" lon="4.78278">
        <ele>200</ele>
        <time>2018-05-25T08:30:31Z</time>
      </trkpt>
      <trkpt lat="45.96554" lon="4.78282">
        <ele>200</ele>
        <time>2018-05-25T08:30:32Z</time>
      </trkpt>
      <trkpt lat="45.96558" lon="4.78286">
        <ele>200</ele>
        <time>2018-05-25T08:30:33Z</time>
      </trkpt>
      <trkpt lat="45.96564" lon="4.78289">
        <ele>200</ele>
        <time>2018-05-25T08:30:34Z</time>
      </trkpt>
      <trkpt lat="45.96568" lon="4.78293">
        <ele>200</ele>
        <time>2018-05-25T08:30:35Z</time>
      </trkpt>
      <trkpt lat="45.96573" lon="4.78297">
        <ele>200</ele>
        <time>2018-05-25T08:30:36Z</time>
      </trkpt>
      <trkpt lat="45.96576" lon="4.783">
        <ele>200</ele>
        <time>2018-05-25T08:30:37Z</time>
      </trkpt>
      <trkpt lat="45.96582" lon="4.7831">
        <ele>199</ele>
        <time>2018-05-25T08:30:39Z</time>
      </trkpt>
      <trkpt lat="45.96585" lon="4.78315">
        <ele>203</ele>
        <time>2018-05-25T08:30:40Z</time>
      </trkpt>
      <trkpt lat="45.96589" lon="4.78319">
        <ele>202</ele>
        <time>2018-05-25T08:30:41Z</time>
      </trkpt>
      <trkpt lat="45.96594" lon="4.78324">
        <ele>202</ele>
        <time>2018-05-25T08:30:42Z</time>
      </trkpt>
      <trkpt lat="45.966" lon="4.78327">
        <ele>202</ele>
        <time>2018-05-25T08:30:43Z</time>
      </trkpt>
      <trkpt lat="45.96603" lon="4.78331">
        <ele>203</ele>
        <time>2018-05-25T08:30:44Z</time>
      </trkpt>
      <trkpt lat="45.96608" lon="4.78335">
        <ele>200</ele>
        <time>2018-05-25T08:30:45Z</time>
      </trkpt>
      <trkpt lat="45.96613" lon="4.78337">
        <ele>200</ele>
        <time>2018-05-25T08:30:46Z</time>
      </trkpt>
      <trkpt lat="45.96618" lon="4.78341">
        <ele>201</ele>
        <time>2018-05-25T08:30:47Z</time>
      </trkpt>
      <trkpt lat="45.96623" lon="4.78344">
        <ele>201</ele>
        <time>2018-05-25T08:30:48Z</time>
      </trkpt>
      <trkpt lat="45.96627" lon="4.78348">
        <ele>201</ele>
        <time>2018-05-25T08:30:49Z</time>
      </trkpt>
      <trkpt lat="45.96631" lon="4.78352">
        <ele>201</ele>
        <time>2018-05-25T08:30:50Z</time>
      </trkpt>
      <trkpt lat="45.96637" lon="4.78357">
        <ele>202</ele>
        <time>2018-05-25T08:30:51Z</time>
      </trkpt>
      <trkpt lat="45.96642" lon="4.78358">
        <ele>202</ele>
        <time>2018-05-25T08:30:52Z</time>
      </trkpt>
      <trkpt lat="45.96646" lon="4.78362">
        <ele>202</ele>
        <time>2018-05-25T08:30:53Z</time>
      </trkpt>
      <trkpt lat="45.9665" lon="4.78365">
        <ele>202</ele>
        <time>2018-05-25T08:30:54Z</time>
      </trkpt>
      <trkpt lat="45.96657" lon="4.78373">
        <ele>202</ele>
        <time>2018-05-25T08:30:56Z</time>
      </trkpt>
      <trkpt lat="45.96661" lon="4.78378">
        <ele>202</ele>
        <time>2018-05-25T08:30:57Z</time>
      </trkpt>
      <trkpt lat="45.96665" lon="4.78386">
        <ele>201</ele>
        <time>2018-05-25T08:30:58Z</time>
      </trkpt>
      <trkpt lat="45.96669" lon="4.78393">
        <ele>204</ele>
        <time>2018-05-25T08:30:59Z</time>
      </trkpt>
      <trkpt lat="45.96673" lon="4.78396">
        <ele>204</ele>
        <time>2018-05-25T08:31:00Z</time>
      </trkpt>
      <trkpt lat="45.96678" lon="4.78398">
        <ele>204</ele>
        <time>2018-05-25T08:31:01Z</time>
      </trkpt>
      <trkpt lat="45.96684" lon="4.78405">
        <ele>204</ele>
        <time>2018-05-25T08:31:03Z</time>
      </trkpt>
      <trkpt lat="45.96689" lon="4.78409">
        <ele>204</ele>
        <time>2018-05-25T08:31:04Z</time>
      </trkpt>
      <trkpt lat="45.96692" lon="4.78413">
        <ele>205</ele>
        <time>2018-05-25T08:31:05Z</time>
      </trkpt>
      <trkpt lat="45.96696" lon="4.78417">
        <ele>203</ele>
        <time>2018-05-25T08:31:06Z</time>
      </trkpt>
      <trkpt lat="45.96699" lon="4.78421">
        <ele>203</ele>
        <time>2018-05-25T08:31:07Z</time>
      </trkpt>
      <trkpt lat="45.96703" lon="4.78427">
        <ele>203</ele>
        <time>2018-05-25T08:31:08Z</time>
      </trkpt>
      <trkpt lat="45.96708" lon="4.78432">
        <ele>203</ele>
        <time>2018-05-25T08:31:09Z</time>
      </trkpt>
      <trkpt lat="45.96711" lon="4.78437">
        <ele>203</ele>
        <time>2018-05-25T08:31:10Z</time>
      </trkpt>
      <trkpt lat="45.96715" lon="4.78442">
        <ele>203</ele>
        <time>2018-05-25T08:31:11Z</time>
      </trkpt>
      <trkpt lat="45.96719" lon="4.78447">
        <ele>203</ele>
        <time>2018-05-25T08:31:12Z</time>
      </trkpt>
      <trkpt lat="45.96724" lon="4.7845">
        <ele>203</ele>
        <time>2018-05-25T08:31:13Z</time>
      </trkpt>
      <trkpt lat="45.96728" lon="4.78455">
        <ele>203</ele>
        <time>2018-05-25T08:31:14Z</time>
      </trkpt>
      <trkpt lat="45.96734" lon="4.78456">
        <ele>203</ele>
        <time>2018-05-25T08:31:15Z</time>
      </trkpt>
      <trkpt lat="45.9674" lon="4.78459">
        <ele>203</ele>
        <time>2018-05-25T08:31:16Z</time>
      </trkpt>
      <trkpt lat="45.96746" lon="4.78463">
        <ele>203</ele>
        <time>2018-05-25T08:31:17Z</time>
      </trkpt>
      <trkpt lat="45.96751" lon="4.78468">
        <ele>205</ele>
        <time>2018-05-25T08:31:18Z</time>
      </trkpt>
      <trkpt lat="45.96757" lon="4.78472">
        <ele>205</ele>
        <time>2018-05-25T08:31:19Z</time>
      </trkpt>
      <trkpt lat="45.96762" lon="4.78476">
        <ele>205</ele>
        <time>2018-05-25T08:31:20Z</time>
      </trkpt>
      <trkpt lat="45.96767" lon="4.78482">
        <ele>205</ele>
        <time>2018-05-25T08:31:21Z</time>
      </trkpt>
      <trkpt lat="45.9677" lon="4.78488">
        <ele>205</ele>
        <time>2018-05-25T08:31:22Z</time>
      </trkpt>
      <trkpt lat="45.96775" lon="4.78494">
        <ele>205</ele>
        <time>2018-05-25T08:31:23Z</time>
      </trkpt>
      <trkpt lat="45.96778" lon="4.785">
        <ele>203</ele>
        <time>2018-05-25T08:31:24Z</time>
      </trkpt>
      <trkpt lat="45.96782" lon="4.78506">
        <ele>203</ele>
        <time>2018-05-25T08:31:25Z</time>
      </trkpt>
      <trkpt lat="45.96785" lon="4.78514">
        <ele>203</ele>
        <time>2018-05-25T08:31:26Z</time>
      </trkpt>
      <trkpt lat="45.96788" lon="4.7852">
        <ele>203</ele>
        <time>2018-05-25T08:31:27Z</time>
      </trkpt>
      <trkpt lat="45.96792" lon="4.78525">
        <ele>203</ele>
        <time>2018-05-25T08:31:28Z</time>
      </trkpt>
      <trkpt lat="45.96795" lon="4.78532">
        <ele>203</ele>
        <time>2018-05-25T08:31:29Z</time>
      </trkpt>
      <trkpt lat="45.96798" lon="4.78537">
        <ele>203</ele>
        <time>2018-05-25T08:31:30Z</time>
      </trkpt>
      <trkpt lat="45.96804" lon="4.78546">
        <ele>203</ele>
        <time>2018-05-25T08:31:32Z</time>
      </trkpt>
      <trkpt lat="45.96806" lon="4.78549">
        <ele>203</ele>
        <time>2018-05-25T08:31:33Z</time>
      </trkpt>
      <trkpt lat="45.96809" lon="4.78555">
        <ele>203</ele>
        <time>2018-05-25T08:31:34Z</time>
      </trkpt>
      <trkpt lat="45.96813" lon="4.7856">
        <ele>203</ele>
        <time>2018-05-25T08:31:35Z</time>
      </trkpt>
      <trkpt lat="45.96816" lon="4.78565">
        <ele>203</ele>
        <time>2018-05-25T08:31:36Z</time>
      </trkpt>
      <trkpt lat="45.96818" lon="4.7857">
        <ele>203</ele>
        <time>2018-05-25T08:31:37Z</time>
      </trkpt>
      <trkpt lat="45.96823" lon="4.78581">
        <ele>203</ele>
        <time>2018-05-25T08:31:39Z</time>
      </trkpt>
      <trkpt lat="45.96824" lon="4.78586">
        <ele>202</ele>
        <time>2018-05-25T08:31:40Z</time>
      </trkpt>
      <trkpt lat="45.96827" lon="4.78593">
        <ele>202</ele>
        <time>2018-05-25T08:31:41Z</time>
      </trkpt>
      <trkpt lat="45.96829" lon="4.78601">
        <ele>202</ele>
        <time>2018-05-25T08:31:42Z</time>
      </trkpt>
      <trkpt lat="45.96831" lon="4.78608">
        <ele>202</ele>
        <time>2018-05-25T08:31:43Z</time>
      </trkpt>
      <trkpt lat="45.96833" lon="4.78616">
        <ele>202</ele>
        <time>2018-05-25T08:31:44Z</time>
      </trkpt>
      <trkpt lat="45.96835" lon="4.78624">
        <ele>203</ele>
        <time>2018-05-25T08:31:45Z</time>
      </trkpt>
      <trkpt lat="45.96837" lon="4.78631">
        <ele>203</ele>
        <time>2018-05-25T08:31:46Z</time>
      </trkpt>
      <trkpt lat="45.9684" lon="4.78639">
        <ele>203</ele>
        <time>2018-05-25T08:31:47Z</time>
      </trkpt>
      <trkpt lat="45.96843" lon="4.78645">
        <ele>203</ele>
        <time>2018-05-25T08:31:48Z</time>
      </trkpt>
      <trkpt lat="45.96846" lon="4.78652">
        <ele>203</ele>
        <time>2018-05-25T08:31:49Z</time>
      </trkpt>
      <trkpt lat="45.96849" lon="4.7866">
        <ele>202</ele>
        <time>2018-05-25T08:31:50Z</time>
      </trkpt>
      <trkpt lat="45.96852" lon="4.78667">
        <ele>203</ele>
        <time>2018-05-25T08:31:51Z</time>
      </trkpt>
      <trkpt lat="45.96856" lon="4.78674">
        <ele>202</ele>
        <time>2018-05-25T08:31:52Z</time>
      </trkpt>
      <trkpt lat="45.96859" lon="4.78679">
        <ele>202</ele>
        <time>2018-05-25T08:31:53Z</time>
      </trkpt>
      <trkpt lat="45.96862" lon="4.78687">
        <ele>202</ele>
        <time>2018-05-25T08:31:54Z</time>
      </trkpt>
      <trkpt lat="45.96865" lon="4.78693">
        <ele>202</ele>
        <time>2018-05-25T08:31:55Z</time>
      </trkpt>
      <trkpt lat="45.96866" lon="4.787">
        <ele>202</ele>
        <time>2018-05-25T08:31:56Z</time>
      </trkpt>
      <trkpt lat="45.9687" lon="4.78704">
        <ele>202</ele>
        <time>2018-05-25T08:31:57Z</time>
      </trkpt>
      <trkpt lat="45.96873" lon="4.78709">
        <ele>202</ele>
        <time>2018-05-25T08:31:58Z</time>
      </trkpt>
      <trkpt lat="45.96875" lon="4.78718">
        <ele>202</ele>
        <time>2018-05-25T08:31:59Z</time>
      </trkpt>
      <trkpt lat="45.96877" lon="4.78724">
        <ele>202</ele>
        <time>2018-05-25T08:32:00Z</time>
      </trkpt>
      <trkpt lat="45.96879" lon="4.7873">
        <ele>202</ele>
        <time>2018-05-25T08:32:01Z</time>
      </trkpt>
      <trkpt lat="45.96883" lon="4.78736">
        <ele>202</ele>
        <time>2018-05-25T08:32:02Z</time>
      </trkpt>
      <trkpt lat="45.96885" lon="4.78745">
        <ele>202</ele>
        <time>2018-05-25T08:32:04Z</time>
      </trkpt>
      <trkpt lat="45.96889" lon="4.78755">
        <ele>201</ele>
        <time>2018-05-25T08:32:05Z</time>
      </trkpt>
      <trkpt lat="45.96893" lon="4.78766">
        <ele>201</ele>
        <time>2018-05-25T08:32:07Z</time>
      </trkpt>
      <trkpt lat="45.96896" lon="4.78772">
        <ele>201</ele>
        <time>2018-05-25T08:32:08Z</time>
      </trkpt>
      <trkpt lat="45.96899" lon="4.78777">
        <ele>201</ele>
        <time>2018-05-25T08:32:09Z</time>
      </trkpt>
      <trkpt lat="45.96902" lon="4.78782">
        <ele>201</ele>
        <time>2018-05-25T08:32:10Z</time>
      </trkpt>
      <trkpt lat="45.96905" lon="4.78788">
        <ele>201</ele>
        <time>2018-05-25T08:32:11Z</time>
      </trkpt>
      <trkpt lat="45.96908" lon="4.78793">
        <ele>201</ele>
        <time>2018-05-25T08:32:12Z</time>
      </trkpt>
      <trkpt lat="45.96914" lon="4.78803">
        <ele>200</ele>
        <time>2018-05-25T08:32:14Z</time>
      </trkpt>
      <trkpt lat="45.96918" lon="4.7881">
        <ele>202</ele>
        <time>2018-05-25T08:32:15Z</time>
      </trkpt>
      <trkpt lat="45.96922" lon="4.78815">
        <ele>202</ele>
        <time>2018-05-25T08:32:16Z</time>
      </trkpt>
      <trkpt lat="45.96926" lon="4.78821">
        <ele>202</ele>
        <time>2018-05-25T08:32:17Z</time>
      </trkpt>
      <trkpt lat="45.9693" lon="4.78826">
        <ele>202</ele>
        <time>2018-05-25T08:32:18Z</time>
      </trkpt>
      <trkpt lat="45.96933" lon="4.78831">
        <ele>202</ele>
        <time>2018-05-25T08:32:19Z</time>
      </trkpt>
      <trkpt lat="45.96937" lon="4.78837">
        <ele>202</ele>
        <time>2018-05-25T08:32:20Z</time>
      </trkpt>
      <trkpt lat="45.96941" lon="4.78841">
        <ele>202</ele>
        <time>2018-05-25T08:32:21Z</time>
      </trkpt>
      <trkpt lat="45.96945" lon="4.78845">
        <ele>202</ele>
        <time>2018-05-25T08:32:22Z</time>
      </trkpt>
      <trkpt lat="45.96949" lon="4.7885">
        <ele>202</ele>
        <time>2018-05-25T08:32:23Z</time>
      </trkpt>
      <trkpt lat="45.96954" lon="4.78854">
        <ele>203</ele>
        <time>2018-05-25T08:32:24Z</time>
      </trkpt>
      <trkpt lat="45.96958" lon="4.78859">
        <ele>203</ele>
        <time>2018-05-25T08:32:25Z</time>
      </trkpt>
      <trkpt lat="45.96962" lon="4.78863">
        <ele>203</ele>
        <time>2018-05-25T08:32:26Z</time>
      </trkpt>
      <trkpt lat="45.96966" lon="4.78868">
        <ele>203</ele>
        <time>2018-05-25T08:32:27Z</time>
      </trkpt>
      <trkpt lat="45.9697" lon="4.78873">
        <ele>203</ele>
        <time>2018-05-25T08:32:28Z</time>
      </trkpt>
      <trkpt lat="45.96974" lon="4.78877">
        <ele>203</ele>
        <time>2018-05-25T08:32:29Z</time>
      </trkpt>
      <trkpt lat="45.96977" lon="4.78882">
        <ele>203</ele>
        <time>2018-05-25T08:32:30Z</time>
      </trkpt>
      <trkpt lat="45.96981" lon="4.78886">
        <ele>203</ele>
        <time>2018-05-25T08:32:31Z</time>
      </trkpt>
      <trkpt lat="45.96988" lon="4.78893">
        <ele>203</ele>
        <time>2018-05-25T08:32:33Z</time>
      </trkpt>
      <trkpt lat="45.96991" lon="4.78899">
        <ele>203</ele>
        <time>2018-05-25T08:32:34Z</time>
      </trkpt>
      <trkpt lat="45.96998" lon="4.78906">
        <ele>204</ele>
        <time>2018-05-25T08:32:36Z</time>
      </trkpt>
      <trkpt lat="45.97001" lon="4.78911">
        <ele>205</ele>
        <time>2018-05-25T08:32:37Z</time>
      </trkpt>
      <trkpt lat="45.97005" lon="4.78915">
        <ele>205</ele>
        <time>2018-05-25T08:32:38Z</time>
      </trkpt>
      <trkpt lat="45.97009" lon="4.7892">
        <ele>204</ele>
        <time>2018-05-25T08:32:39Z</time>
      </trkpt>
      <trkpt lat="45.97012" lon="4.78924">
        <ele>205</ele>
        <time>2018-05-25T08:32:40Z</time>
      </trkpt>
      <trkpt lat="45.97016" lon="4.78928">
        <ele>205</ele>
        <time>2018-05-25T08:32:41Z</time>
      </trkpt>
      <trkpt lat="45.97023" lon="4.78935">
        <ele>205</ele>
        <time>2018-05-25T08:32:43Z</time>
      </trkpt>
      <trkpt lat="45.97025" lon="4.78941">
        <ele>205</ele>
        <time>2018-05-25T08:32:44Z</time>
      </trkpt>
      <trkpt lat="45.97032" lon="4.78948">
        <ele>205</ele>
        <time>2018-05-25T08:32:46Z</time>
      </trkpt>
      <trkpt lat="45.97036" lon="4.78953">
        <ele>205</ele>
        <time>2018-05-25T08:32:47Z</time>
      </trkpt>
      <trkpt lat="45.97041" lon="4.78962">
        <ele>205</ele>
        <time>2018-05-25T08:32:49Z</time>
      </trkpt>
      <trkpt lat="45.97042" lon="4.78965">
        <ele>205</ele>
        <time>2018-05-25T08:32:50Z</time>
      </trkpt>
      <trkpt lat="45.97045" lon="4.78972">
        <ele>205</ele>
        <time>2018-05-25T08:32:51Z</time>
      </trkpt>
      <trkpt lat="45.97047" lon="4.78977">
        <ele>205</ele>
        <time>2018-05-25T08:32:52Z</time>
      </trkpt>
      <trkpt lat="45.9705" lon="4.78987">
        <ele>205</ele>
        <time>2018-05-25T08:32:54Z</time>
      </trkpt>
      <trkpt lat="45.97052" lon="4.78991">
        <ele>205</ele>
        <time>2018-05-25T08:32:55Z</time>
      </trkpt>
      <trkpt lat="45.97055" lon="4.79001">
        <ele>203</ele>
        <time>2018-05-25T08:32:57Z</time>
      </trkpt>
      <trkpt lat="45.97056" lon="4.79006">
        <ele>203</ele>
        <time>2018-05-25T08:32:58Z</time>
      </trkpt>
      <trkpt lat="45.97056" lon="4.79014">
        <ele>203</ele>
        <time>2018-05-25T08:32:59Z</time>
      </trkpt>
      <trkpt lat="45.97058" lon="4.79021">
        <ele>203</ele>
        <time>2018-05-25T08:33:00Z</time>
      </trkpt>
      <trkpt lat="45.9706" lon="4.79027">
        <ele>203</ele>
        <time>2018-05-25T08:33:01Z</time>
      </trkpt>
      <trkpt lat="45.97062" lon="4.79035">
        <ele>203</ele>
        <time>2018-05-25T08:33:02Z</time>
      </trkpt>
      <trkpt lat="45.97063" lon="4.79042">
        <ele>203</ele>
        <time>2018-05-25T08:33:03Z</time>
      </trkpt>
      <trkpt lat="45.97065" lon="4.79049">
        <ele>203</ele>
        <time>2018-05-25T08:33:04Z</time>
      </trkpt>
      <trkpt lat="45.97068" lon="4.79058">
        <ele>203</ele>
        <time>2018-05-25T08:33:05Z</time>
      </trkpt>
      <trkpt lat="45.9707" lon="4.79066">
        <ele>203</ele>
        <time>2018-05-25T08:33:06Z</time>
      </trkpt>
      <trkpt lat="45.97071" lon="4.79072">
        <ele>204</ele>
        <time>2018-05-25T08:33:07Z</time>
      </trkpt>
      <trkpt lat="45.97073" lon="4.79079">
        <ele>204</ele>
        <time>2018-05-25T08:33:08Z</time>
      </trkpt>
      <trkpt lat="45.97074" lon="4.79087">
        <ele>204</ele>
        <time>2018-05-25T08:33:09Z</time>
      </trkpt>
      <trkpt lat="45.97076" lon="4.79094">
        <ele>204</ele>
        <time>2018-05-25T08:33:10Z</time>
      </trkpt>
      <trkpt lat="45.97077" lon="4.79102">
        <ele>204</ele>
        <time>2018-05-25T08:33:11Z</time>
      </trkpt>
      <trkpt lat="45.97079" lon="4.79108">
        <ele>204</ele>
        <time>2018-05-25T08:33:12Z</time>
      </trkpt>
      <trkpt lat="45.97081" lon="4.79116">
        <ele>204</ele>
        <time>2018-05-25T08:33:13Z</time>
      </trkpt>
      <trkpt lat="45.97083" lon="4.79123">
        <ele>206</ele>
        <time>2018-05-25T08:33:14Z</time>
      </trkpt>
      <trkpt lat="45.97086" lon="4.79129">
        <ele>206</ele>
        <time>2018-05-25T08:33:15Z</time>
      </trkpt>
      <trkpt lat="45.97089" lon="4.79135">
        <ele>206</ele>
        <time>2018-05-25T08:33:16Z</time>
      </trkpt>
      <trkpt lat="45.97092" lon="4.7914">
        <ele>206</ele>
        <time>2018-05-25T08:33:17Z</time>
      </trkpt>
      <trkpt lat="45.97096" lon="4.79146">
        <ele>206</ele>
        <time>2018-05-25T08:33:18Z</time>
      </trkpt>
      <trkpt lat="45.97102" lon="4.79153">
        <ele>206</ele>
        <time>2018-05-25T08:33:20Z</time>
      </trkpt>
      <trkpt lat="45.97105" lon="4.79159">
        <ele>206</ele>
        <time>2018-05-25T08:33:21Z</time>
      </trkpt>
      <trkpt lat="45.97108" lon="4.79165">
        <ele>206</ele>
        <time>2018-05-25T08:33:22Z</time>
      </trkpt>
      <trkpt lat="45.97111" lon="4.79171">
        <ele>205</ele>
        <time>2018-05-25T08:33:23Z</time>
      </trkpt>
      <trkpt lat="45.97113" lon="4.79178">
        <ele>205</ele>
        <time>2018-05-25T08:33:24Z</time>
      </trkpt>
      <trkpt lat="45.97114" lon="4.79184">
        <ele>205</ele>
        <time>2018-05-25T08:33:25Z</time>
      </trkpt>
      <trkpt lat="45.97117" lon="4.7919">
        <ele>206</ele>
        <time>2018-05-25T08:33:26Z</time>
      </trkpt>
      <trkpt lat="45.9712" lon="4.79198">
        <ele>206</ele>
        <time>2018-05-25T08:33:27Z</time>
      </trkpt>
      <trkpt lat="45.97122" lon="4.79205">
        <ele>205</ele>
        <time>2018-05-25T08:33:28Z</time>
      </trkpt>
      <trkpt lat="45.97126" lon="4.7921">
        <ele>206</ele>
        <time>2018-05-25T08:33:29Z</time>
      </trkpt>
      <trkpt lat="45.97129" lon="4.79215">
        <ele>205</ele>
        <time>2018-05-25T08:33:30Z</time>
      </trkpt>
      <trkpt lat="45.97133" lon="4.79221">
        <ele>205</ele>
        <time>2018-05-25T08:33:31Z</time>
      </trkpt>
      <trkpt lat="45.97136" lon="4.79228">
        <ele>205</ele>
        <time>2018-05-25T08:33:32Z</time>
      </trkpt>
      <trkpt lat="45.97139" lon="4.79234">
        <ele>205</ele>
        <time>2018-05-25T08:33:33Z</time>
      </trkpt>
      <trkpt lat="45.97141" lon="4.79241">
        <ele>205</ele>
        <time>2018-05-25T08:33:34Z</time>
      </trkpt>
      <trkpt lat="45.97144" lon="4.79247">
        <ele>205</ele>
        <time>2018-05-25T08:33:35Z</time>
      </trkpt>
      <trkpt lat="45.97146" lon="4.79253">
        <ele>204</ele>
        <time>2018-05-25T08:33:36Z</time>
      </trkpt>
      <trkpt lat="45.97149" lon="4.79259">
        <ele>204</ele>
        <time>2018-05-25T08:33:37Z</time>
      </trkpt>
      <trkpt lat="45.97153" lon="4.7927">
        <ele>204</ele>
        <time>2018-05-25T08:33:39Z</time>
      </trkpt>
      <trkpt lat="45.97155" lon="4.79276">
        <ele>204</ele>
        <time>2018-05-25T08:33:40Z</time>
      </trkpt>
      <trkpt lat="45.97158" lon="4.79281">
        <ele>204</ele>
        <time>2018-05-25T08:33:41Z</time>
      </trkpt>
      <trkpt lat="45.9716" lon="4.79287">
        <ele>204</ele>
        <time>2018-05-25T08:33:42Z</time>
      </trkpt>
      <trkpt lat="45.97165" lon="4.79297">
        <ele>204</ele>
        <time>2018-05-25T08:33:44Z</time>
      </trkpt>
      <trkpt lat="45.97167" lon="4.79302">
        <ele>207</ele>
        <time>2018-05-25T08:33:45Z</time>
      </trkpt>
      <trkpt lat="45.9717" lon="4.79309">
        <ele>207</ele>
        <time>2018-05-25T08:33:46Z</time>
      </trkpt>
      <trkpt lat="45.97173" lon="4.79316">
        <ele>207</ele>
        <time>2018-05-25T08:33:47Z</time>
      </trkpt>
      <trkpt lat="45.97175" lon="4.79322">
        <ele>206</ele>
        <time>2018-05-25T08:33:48Z</time>
      </trkpt>
      <trkpt lat="45.97177" lon="4.79328">
        <ele>206</ele>
        <time>2018-05-25T08:33:49Z</time>
      </trkpt>
      <trkpt lat="45.97182" lon="4.79338">
        <ele>206</ele>
        <time>2018-05-25T08:33:51Z</time>
      </trkpt>
      <trkpt lat="45.97184" lon="4.79343">
        <ele>207</ele>
        <time>2018-05-25T08:33:52Z</time>
      </trkpt>
      <trkpt lat="45.97188" lon="4.79354">
        <ele>207</ele>
        <time>2018-05-25T08:33:54Z</time>
      </trkpt>
      <trkpt lat="45.9719" lon="4.7936">
        <ele>207</ele>
        <time>2018-05-25T08:33:55Z</time>
      </trkpt>
      <trkpt lat="45.97192" lon="4.79366">
        <ele>207</ele>
        <time>2018-05-25T08:33:56Z</time>
      </trkpt>
      <trkpt lat="45.97194" lon="4.79373">
        <ele>207</ele>
        <time>2018-05-25T08:33:57Z</time>
      </trkpt>
      <trkpt lat="45.97196" lon="4.79378">
        <ele>207</ele>
        <time>2018-05-25T08:33:58Z</time>
      </trkpt>
      <trkpt lat="45.97199" lon="4.79384">
        <ele>207</ele>
        <time>2018-05-25T08:33:59Z</time>
      </trkpt>
      <trkpt lat="45.97203" lon="4.79394">
        <ele>208</ele>
        <time>2018-05-25T08:34:01Z</time>
      </trkpt>
      <trkpt lat="45.97206" lon="4.79399">
        <ele>208</ele>
        <time>2018-05-25T08:34:02Z</time>
      </trkpt>
      <trkpt lat="45.97207" lon="4.79406">
        <ele>208</ele>
        <time>2018-05-25T08:34:03Z</time>
      </trkpt>
      <trkpt lat="45.9721" lon="4.79412">
        <ele>208</ele>
        <time>2018-05-25T08:34:04Z</time>
      </trkpt>
      <trkpt lat="45.97212" lon="4.79422">
        <ele>208</ele>
        <time>2018-05-25T08:34:06Z</time>
      </trkpt>
      <trkpt lat="45.97214" lon="4.7943">
        <ele>208</ele>
        <time>2018-05-25T08:34:07Z</time>
      </trkpt>
      <trkpt lat="45.97216" lon="4.79437">
        <ele>208</ele>
        <time>2018-05-25T08:34:08Z</time>
      </trkpt>
      <trkpt lat="45.97219" lon="4.79441">
        <ele>208</ele>
        <time>2018-05-25T08:34:09Z</time>
      </trkpt>
      <trkpt lat="45.97224" lon="4.79451">
        <ele>209</ele>
        <time>2018-05-25T08:34:11Z</time>
      </trkpt>
      <trkpt lat="45.97227" lon="4.79455">
        <ele>209</ele>
        <time>2018-05-25T08:34:12Z</time>
      </trkpt>
      <trkpt lat="45.97231" lon="4.79466">
        <ele>209</ele>
        <time>2018-05-25T08:34:14Z</time>
      </trkpt>
      <trkpt lat="45.97234" lon="4.79471">
        <ele>209</ele>
        <time>2018-05-25T08:34:15Z</time>
      </trkpt>
      <trkpt lat="45.97238" lon="4.79482">
        <ele>209</ele>
        <time>2018-05-25T08:34:17Z</time>
      </trkpt>
      <trkpt lat="45.97239" lon="4.79487">
        <ele>210</ele>
        <time>2018-05-25T08:34:18Z</time>
      </trkpt>
      <trkpt lat="45.9724" lon="4.79499">
        <ele>210</ele>
        <time>2018-05-25T08:34:20Z</time>
      </trkpt>
      <trkpt lat="45.97242" lon="4.79504">
        <ele>210</ele>
        <time>2018-05-25T08:34:21Z</time>
      </trkpt>
      <trkpt lat="45.97245" lon="4.79515">
        <ele>210</ele>
        <time>2018-05-25T08:34:23Z</time>
      </trkpt>
      <trkpt lat="45.97247" lon="4.7952">
        <ele>210</ele>
        <time>2018-05-25T08:34:24Z</time>
      </trkpt>
      <trkpt lat="45.9725" lon="4.79532">
        <ele>210</ele>
        <time>2018-05-25T08:34:26Z</time>
      </trkpt>
      <trkpt lat="45.97247" lon="4.79537">
        <ele>210</ele>
        <time>2018-05-25T08:34:27Z</time>
      </trkpt>
      <trkpt lat="45.97248" lon="4.79543">
        <ele>210</ele>
        <time>2018-05-25T08:34:28Z</time>
      </trkpt>
      <trkpt lat="45.97252" lon="4.79549">
        <ele>214</ele>
        <time>2018-05-25T08:34:29Z</time>
      </trkpt>
      <trkpt lat="45.97252" lon="4.79562">
        <ele>213</ele>
        <time>2018-05-25T08:34:31Z</time>
      </trkpt>
      <trkpt lat="45.97253" lon="4.79567">
        <ele>213</ele>
        <time>2018-05-25T08:34:32Z</time>
      </trkpt>
      <trkpt lat="45.97253" lon="4.79575">
        <ele>212</ele>
        <time>2018-05-25T08:34:33Z</time>
      </trkpt>
      <trkpt lat="45.97254" lon="4.79582">
        <ele>211</ele>
        <time>2018-05-25T08:34:34Z</time>
      </trkpt>
      <trkpt lat="45.97255" lon="4.79589">
        <ele>211</ele>
        <time>2018-05-25T08:34:35Z</time>
      </trkpt>
      <trkpt lat="45.97255" lon="4.79596">
        <ele>212</ele>
        <time>2018-05-25T08:34:36Z</time>
      </trkpt>
      <trkpt lat="45.97255" lon="4.79603">
        <ele>212</ele>
        <time>2018-05-25T08:34:37Z</time>
      </trkpt>
      <trkpt lat="45.97254" lon="4.7961">
        <ele>213</ele>
        <time>2018-05-25T08:34:38Z</time>
      </trkpt>
      <trkpt lat="45.97254" lon="4.79618">
        <ele>213</ele>
        <time>2018-05-25T08:34:39Z</time>
      </trkpt>
      <trkpt lat="45.97253" lon="4.79624">
        <ele>213</ele>
        <time>2018-05-25T08:34:40Z</time>
      </trkpt>
      <trkpt lat="45.97254" lon="4.79632">
        <ele>213</ele>
        <time>2018-05-25T08:34:41Z</time>
      </trkpt>
      <trkpt lat="45.97254" lon="4.79638">
        <ele>212</ele>
        <time>2018-05-25T08:34:42Z</time>
      </trkpt>
      <trkpt lat="45.97257" lon="4.79645">
        <ele>212</ele>
        <time>2018-05-25T08:34:43Z</time>
      </trkpt>
      <trkpt lat="45.97257" lon="4.79652">
        <ele>211</ele>
        <time>2018-05-25T08:34:44Z</time>
      </trkpt>
      <trkpt lat="45.97253" lon="4.7966">
        <ele>210</ele>
        <time>2018-05-25T08:34:45Z</time>
      </trkpt>
      <trkpt lat="45.9725" lon="4.79666">
        <ele>208</ele>
        <time>2018-05-25T08:34:46Z</time>
      </trkpt>
      <trkpt lat="45.97249" lon="4.79673">
        <ele>208</ele>
        <time>2018-05-25T08:34:47Z</time>
      </trkpt>
      <trkpt lat="45.97247" lon="4.7968">
        <ele>208</ele>
        <time>2018-05-25T08:34:48Z</time>
      </trkpt>
      <trkpt lat="45.97246" lon="4.79686">
        <ele>208</ele>
        <time>2018-05-25T08:34:49Z</time>
      </trkpt>
      <trkpt lat="45.97246" lon="4.79693">
        <ele>208</ele>
        <time>2018-05-25T08:34:50Z</time>
      </trkpt>
      <trkpt lat="45.97245" lon="4.79705">
        <ele>208</ele>
        <time>2018-05-25T08:34:52Z</time>
      </trkpt>
      <trkpt lat="45.97244" lon="4.79712">
        <ele>209</ele>
        <time>2018-05-25T08:34:53Z</time>
      </trkpt>
      <trkpt lat="45.97243" lon="4.79718">
        <ele>209</ele>
        <time>2018-05-25T08:34:54Z</time>
      </trkpt>
      <trkpt lat="45.97243" lon="4.79725">
        <ele>209</ele>
        <time>2018-05-25T08:34:55Z</time>
      </trkpt>
      <trkpt lat="45.97242" lon="4.79732">
        <ele>209</ele>
        <time>2018-05-25T08:34:56Z</time>
      </trkpt>
      <trkpt lat="45.97241" lon="4.79739">
        <ele>209</ele>
        <time>2018-05-25T08:34:57Z</time>
      </trkpt>
      <trkpt lat="45.9724" lon="4.79746">
        <ele>209</ele>
        <time>2018-05-25T08:34:58Z</time>
      </trkpt>
      <trkpt lat="45.97239" lon="4.79753">
        <ele>209</ele>
        <time>2018-05-25T08:34:59Z</time>
      </trkpt>
      <trkpt lat="45.97237" lon="4.7976">
        <ele>209</ele>
        <time>2018-05-25T08:35:00Z</time>
      </trkpt>
      <trkpt lat="45.97237" lon="4.79767">
        <ele>210</ele>
        <time>2018-05-25T08:35:01Z</time>
      </trkpt>
      <trkpt lat="45.97237" lon="4.79776">
        <ele>210</ele>
        <time>2018-05-25T08:35:02Z</time>
      </trkpt>
      <trkpt lat="45.97237" lon="4.79782">
        <ele>210</ele>
        <time>2018-05-25T08:35:03Z</time>
      </trkpt>
      <trkpt lat="45.97237" lon="4.79794">
        <ele>210</ele>
        <time>2018-05-25T08:35:05Z</time>
      </trkpt>
      <trkpt lat="45.97236" lon="4.798">
        <ele>210</ele>
        <time>2018-05-25T08:35:06Z</time>
      </trkpt>
      <trkpt lat="45.97234" lon="4.79812">
        <ele>210</ele>
        <time>2018-05-25T08:35:08Z</time>
      </trkpt>
      <trkpt lat="45.97234" lon="4.79818">
        <ele>211</ele>
        <time>2018-05-25T08:35:09Z</time>
      </trkpt>
      <trkpt lat="45.97236" lon="4.7983">
        <ele>211</ele>
        <time>2018-05-25T08:35:10Z</time>
      </trkpt>
      <trkpt lat="45.97237" lon="4.79838">
        <ele>211</ele>
        <time>2018-05-25T08:35:11Z</time>
      </trkpt>
      <trkpt lat="45.97237" lon="4.79845">
        <ele>211</ele>
        <time>2018-05-25T08:35:12Z</time>
      </trkpt>
      <trkpt lat="45.97237" lon="4.79851">
        <ele>211</ele>
        <time>2018-05-25T08:35:13Z</time>
      </trkpt>
      <trkpt lat="45.97241" lon="4.79858">
        <ele>211</ele>
        <time>2018-05-25T08:35:14Z</time>
      </trkpt>
      <trkpt lat="45.97242" lon="4.79865">
        <ele>211</ele>
        <time>2018-05-25T08:35:15Z</time>
      </trkpt>
      <trkpt lat="45.97244" lon="4.79871">
        <ele>211</ele>
        <time>2018-05-25T08:35:16Z</time>
      </trkpt>
      <trkpt lat="45.97247" lon="4.79876">
        <ele>211</ele>
        <time>2018-05-25T08:35:17Z</time>
      </trkpt>
      <trkpt lat="45.9725" lon="4.79885">
        <ele>211</ele>
        <time>2018-05-25T08:35:20Z</time>
      </trkpt>
      <trkpt lat="45.97251" lon="4.79887">
        <ele>213</ele>
        <time>2018-05-25T08:35:21Z</time>
      </trkpt>
      <trkpt lat="45.97252" lon="4.799">
        <ele>213</ele>
        <time>2018-05-25T08:35:25Z</time>
      </trkpt>
      <trkpt lat="45.97253" lon="4.79903">
        <ele>213</ele>
        <time>2018-05-25T08:35:26Z</time>
      </trkpt>
      <trkpt lat="45.97255" lon="4.79914">
        <ele>212</ele>
        <time>2018-05-25T08:35:34Z</time>
      </trkpt>
      <trkpt lat="45.97256" lon="4.79915">
        <ele>212</ele>
        <time>2018-05-25T08:35:35Z</time>
      </trkpt>
      <trkpt lat="45.97263" lon="4.79919">
        <ele>212</ele>
        <time>2018-05-25T08:35:39Z</time>
      </trkpt>
      <trkpt lat="45.97266" lon="4.79919">
        <ele>212</ele>
        <time>2018-05-25T08:35:40Z</time>
      </trkpt>
      <trkpt lat="45.97274" lon="4.79918">
        <ele>212</ele>
        <time>2018-05-25T08:35:43Z</time>
      </trkpt>
      <trkpt lat="45.97277" lon="4.79917">
        <ele>213</ele>
        <time>2018-05-25T08:35:44Z</time>
      </trkpt>
      <trkpt lat="45.97283" lon="4.79915">
        <ele>213</ele>
        <time>2018-05-25T08:35:46Z</time>
      </trkpt>
      <trkpt lat="45.97286" lon="4.79914">
        <ele>213</ele>
        <time>2018-05-25T08:35:47Z</time>
      </trkpt>
      <trkpt lat="45.97289" lon="4.79914">
        <ele>213</ele>
        <time>2018-05-25T08:35:48Z</time>
      </trkpt>
      <trkpt lat="45.97299" lon="4.79913">
        <ele>213</ele>
        <time>2018-05-25T08:35:49Z</time>
      </trkpt>
      <trkpt lat="45.97306" lon="4.79912">
        <ele>213</ele>
        <time>2018-05-25T08:35:51Z</time>
      </trkpt>
      <trkpt lat="45.9731" lon="4.79911">
        <ele>213</ele>
        <time>2018-05-25T08:35:52Z</time>
      </trkpt>
      <trkpt lat="45.97318" lon="4.79911">
        <ele>213</ele>
        <time>2018-05-25T08:35:54Z</time>
      </trkpt>
      <trkpt lat="45.97322" lon="4.7991">
        <ele>213</ele>
        <time>2018-05-25T08:35:55Z</time>
      </trkpt>
      <trkpt lat="45.9733" lon="4.7991">
        <ele>213</ele>
        <time>2018-05-25T08:35:57Z</time>
      </trkpt>
      <trkpt lat="45.97334" lon="4.79909">
        <ele>214</ele>
        <time>2018-05-25T08:35:58Z</time>
      </trkpt>
      <trkpt lat="45.97342" lon="4.79907">
        <ele>215</ele>
        <time>2018-05-25T08:36:00Z</time>
      </trkpt>
      <trkpt lat="45.97346" lon="4.79907">
        <ele>215</ele>
        <time>2018-05-25T08:36:01Z</time>
      </trkpt>
      <trkpt lat="45.97354" lon="4.79905">
        <ele>216</ele>
        <time>2018-05-25T08:36:03Z</time>
      </trkpt>
      <trkpt lat="45.97358" lon="4.79904">
        <ele>216</ele>
        <time>2018-05-25T08:36:04Z</time>
      </trkpt>
      <trkpt lat="45.97366" lon="4.79903">
        <ele>216</ele>
        <time>2018-05-25T08:36:07Z</time>
      </trkpt>
      <trkpt lat="45.97369" lon="4.79902">
        <ele>217</ele>
        <time>2018-05-25T08:36:08Z</time>
      </trkpt>
      <trkpt lat="45.97374" lon="4.79901">
        <ele>217</ele>
        <time>2018-05-25T08:36:10Z</time>
      </trkpt>
      <trkpt lat="45.97383" lon="4.799">
        <ele>217</ele>
        <time>2018-05-25T08:36:11Z</time>
      </trkpt>
      <trkpt lat="45.97388" lon="4.79899">
        <ele>217</ele>
        <time>2018-05-25T08:36:13Z</time>
      </trkpt>
      <trkpt lat="45.97395" lon="4.79898">
        <ele>217</ele>
        <time>2018-05-25T08:36:14Z</time>
      </trkpt>
      <trkpt lat="45.97402" lon="4.79897">
        <ele>217</ele>
        <time>2018-05-25T08:36:16Z</time>
      </trkpt>
      <trkpt lat="45.97406" lon="4.79896">
        <ele>217</ele>
        <time>2018-05-25T08:36:17Z</time>
      </trkpt>
      <trkpt lat="45.97414" lon="4.79895">
        <ele>217</ele>
        <time>2018-05-25T08:36:20Z</time>
      </trkpt>
      <trkpt lat="45.97421" lon="4.79894">
        <ele>219</ele>
        <time>2018-05-25T08:36:21Z</time>
      </trkpt>
      <trkpt lat="45.97428" lon="4.79894">
        <ele>220</ele>
        <time>2018-05-25T08:36:23Z</time>
      </trkpt>
      <trkpt lat="45.9743" lon="4.79894">
        <ele>220</ele>
        <time>2018-05-25T08:36:24Z</time>
      </trkpt>
      <trkpt lat="45.97438" lon="4.79893">
        <ele>220</ele>
        <time>2018-05-25T08:36:26Z</time>
      </trkpt>
      <trkpt lat="45.9744" lon="4.79893">
        <ele>220</ele>
        <time>2018-05-25T08:36:27Z</time>
      </trkpt>
      <trkpt lat="45.97446" lon="4.79893">
        <ele>220</ele>
        <time>2018-05-25T08:36:28Z</time>
      </trkpt>
      <trkpt lat="45.9745" lon="4.79893">
        <ele>220</ele>
        <time>2018-05-25T08:36:29Z</time>
      </trkpt>
      <trkpt lat="45.97457" lon="4.79892">
        <ele>221</ele>
        <time>2018-05-25T08:36:31Z</time>
      </trkpt>
      <trkpt lat="45.97459" lon="4.79892">
        <ele>221</ele>
        <time>2018-05-25T08:36:32Z</time>
      </trkpt>
      <trkpt lat="45.97465" lon="4.79891">
        <ele>221</ele>
        <time>2018-05-25T08:36:33Z</time>
      </trkpt>
      <trkpt lat="45.97468" lon="4.7989">
        <ele>221</ele>
        <time>2018-05-25T08:36:34Z</time>
      </trkpt>
      <trkpt lat="45.97476" lon="4.79888">
        <ele>221</ele>
        <time>2018-05-25T08:36:36Z</time>
      </trkpt>
      <trkpt lat="45.9748" lon="4.79888">
        <ele>221</ele>
        <time>2018-05-25T08:36:37Z</time>
      </trkpt>
      <trkpt lat="45.97487" lon="4.79888">
        <ele>221</ele>
        <time>2018-05-25T08:36:40Z</time>
      </trkpt>
      <trkpt lat="45.9749" lon="4.79888">
        <ele>221</ele>
        <time>2018-05-25T08:36:41Z</time>
      </trkpt>
      <trkpt lat="45.97495" lon="4.79888">
        <ele>221</ele>
        <time>2018-05-25T08:36:43Z</time>
      </trkpt>
      <trkpt lat="45.97504" lon="4.79888">
        <ele>221</ele>
        <time>2018-05-25T08:36:44Z</time>
      </trkpt>
      <trkpt lat="45.97513" lon="4.79888">
        <ele>221</ele>
        <time>2018-05-25T08:36:48Z</time>
      </trkpt>
      <trkpt lat="45.97515" lon="4.79888">
        <ele>221</ele>
        <time>2018-05-25T08:36:49Z</time>
      </trkpt>
      <trkpt lat="45.97523" lon="4.79887">
        <ele>221</ele>
        <time>2018-05-25T08:36:52Z</time>
      </trkpt>
      <trkpt lat="45.97526" lon="4.79887">
        <ele>221</ele>
        <time>2018-05-25T08:36:53Z</time>
      </trkpt>
      <trkpt lat="45.97534" lon="4.79885">
        <ele>221</ele>
        <time>2018-05-25T08:36:56Z</time>
      </trkpt>
      <trkpt lat="45.97537" lon="4.79885">
        <ele>221</ele>
        <time>2018-05-25T08:36:57Z</time>
      </trkpt>
      <trkpt lat="45.97545" lon="4.79884">
        <ele>221</ele>
        <time>2018-05-25T08:37:00Z</time>
      </trkpt>
      <trkpt lat="45.97548" lon="4.79884">
        <ele>221</ele>
        <time>2018-05-25T08:37:01Z</time>
      </trkpt>
      <trkpt lat="45.97554" lon="4.79883">
        <ele>221</ele>
        <time>2018-05-25T08:37:03Z</time>
      </trkpt>
      <trkpt lat="45.97557" lon="4.79882">
        <ele>221</ele>
        <time>2018-05-25T08:37:04Z</time>
      </trkpt>
      <trkpt lat="45.97564" lon="4.7988">
        <ele>221</ele>
        <time>2018-05-25T08:37:06Z</time>
      </trkpt>
      <trkpt lat="45.97567" lon="4.79879">
        <ele>221</ele>
        <time>2018-05-25T08:37:07Z</time>
      </trkpt>
      <trkpt lat="45.97578" lon="4.79875">
        <ele>221</ele>
        <time>2018-05-25T08:37:08Z</time>
      </trkpt>
      <trkpt lat="45.97582" lon="4.79873">
        <ele>222</ele>
        <time>2018-05-25T08:37:10Z</time>
      </trkpt>
      <trkpt lat="45.97589" lon="4.79869">
        <ele>221</ele>
        <time>2018-05-25T08:37:11Z</time>
      </trkpt>
      <trkpt lat="45.97594" lon="4.79866">
        <ele>221</ele>
        <time>2018-05-25T08:37:13Z</time>
      </trkpt>
      <trkpt lat="45.976" lon="4.79864">
        <ele>221</ele>
        <time>2018-05-25T08:37:14Z</time>
      </trkpt>
      <trkpt lat="45.97607" lon="4.79862">
        <ele>221</ele>
        <time>2018-05-25T08:37:16Z</time>
      </trkpt>
      <trkpt lat="45.97611" lon="4.7986">
        <ele>221</ele>
        <time>2018-05-25T08:37:17Z</time>
      </trkpt>
      <trkpt lat="45.97615" lon="4.79859">
        <ele>221</ele>
        <time>2018-05-25T08:37:19Z</time>
      </trkpt>
      <trkpt lat="45.97621" lon="4.79857">
        <ele>221</ele>
        <time>2018-05-25T08:37:20Z</time>
      </trkpt>
      <trkpt lat="45.97625" lon="4.79855">
        <ele>221</ele>
        <time>2018-05-25T08:37:22Z</time>
      </trkpt>
      <trkpt lat="45.97631" lon="4.79853">
        <ele>221</ele>
        <time>2018-05-25T08:37:23Z</time>
      </trkpt>
      <trkpt lat="45.97637" lon="4.79849">
        <ele>221</ele>
        <time>2018-05-25T08:37:25Z</time>
      </trkpt>
      <trkpt lat="45.9764" lon="4.79848">
        <ele>221</ele>
        <time>2018-05-25T08:37:26Z</time>
      </trkpt>
      <trkpt lat="45.97647" lon="4.79845">
        <ele>221</ele>
        <time>2018-05-25T08:37:28Z</time>
      </trkpt>
      <trkpt lat="45.97651" lon="4.79844">
        <ele>221</ele>
        <time>2018-05-25T08:37:29Z</time>
      </trkpt>
      <trkpt lat="45.97656" lon="4.79842">
        <ele>221</ele>
        <time>2018-05-25T08:37:30Z</time>
      </trkpt>
      <trkpt lat="45.97661" lon="4.79841">
        <ele>221</ele>
        <time>2018-05-25T08:37:31Z</time>
      </trkpt>
      <trkpt lat="45.97666" lon="4.7984">
        <ele>222</ele>
        <time>2018-05-25T08:37:32Z</time>
      </trkpt>
      <trkpt lat="45.97671" lon="4.79838">
        <ele>221</ele>
        <time>2018-05-25T08:37:33Z</time>
      </trkpt>
      <trkpt lat="45.97675" lon="4.79837">
        <ele>221</ele>
        <time>2018-05-25T08:37:34Z</time>
      </trkpt>
      <trkpt lat="45.9768" lon="4.79835">
        <ele>221</ele>
        <time>2018-05-25T08:37:35Z</time>
      </trkpt>
      <trkpt lat="45.97688" lon="4.79834">
        <ele>221</ele>
        <time>2018-05-25T08:37:37Z</time>
      </trkpt>
      <trkpt lat="45.97692" lon="4.79833">
        <ele>223</ele>
        <time>2018-05-25T08:37:38Z</time>
      </trkpt>
      <trkpt lat="45.97697" lon="4.79831">
        <ele>223</ele>
        <time>2018-05-25T08:37:39Z</time>
      </trkpt>
      <trkpt lat="45.97701" lon="4.7983">
        <ele>223</ele>
        <time>2018-05-25T08:37:40Z</time>
      </trkpt>
      <trkpt lat="45.9771" lon="4.79829">
        <ele>223</ele>
        <time>2018-05-25T08:37:42Z</time>
      </trkpt>
      <trkpt lat="45.97715" lon="4.79828">
        <ele>223</ele>
        <time>2018-05-25T08:37:43Z</time>
      </trkpt>
      <trkpt lat="45.97723" lon="4.79828">
        <ele>223</ele>
        <time>2018-05-25T08:37:45Z</time>
      </trkpt>
      <trkpt lat="45.97728" lon="4.79826">
        <ele>223</ele>
        <time>2018-05-25T08:37:46Z</time>
      </trkpt>
      <trkpt lat="45.97735" lon="4.79824">
        <ele>223</ele>
        <time>2018-05-25T08:37:48Z</time>
      </trkpt>
      <trkpt lat="45.97738" lon="4.79823">
        <ele>223</ele>
        <time>2018-05-25T08:37:49Z</time>
      </trkpt>
      <trkpt lat="45.97742" lon="4.79823">
        <ele>223</ele>
        <time>2018-05-25T08:37:50Z</time>
      </trkpt>
      <trkpt lat="45.97749" lon="4.79823">
        <ele>222</ele>
        <time>2018-05-25T08:37:51Z</time>
      </trkpt>
      <trkpt lat="45.97754" lon="4.79823">
        <ele>222</ele>
        <time>2018-05-25T08:37:52Z</time>
      </trkpt>
      <trkpt lat="45.97759" lon="4.79822">
        <ele>223</ele>
        <time>2018-05-25T08:37:53Z</time>
      </trkpt>
      <trkpt lat="45.97766" lon="4.79823">
        <ele>223</ele>
        <time>2018-05-25T08:37:55Z</time>
      </trkpt>
      <trkpt lat="45.9777" lon="4.79824">
        <ele>223</ele>
        <time>2018-05-25T08:37:56Z</time>
      </trkpt>
      <trkpt lat="45.97775" lon="4.79823">
        <ele>223</ele>
        <time>2018-05-25T08:37:57Z</time>
      </trkpt>
      <trkpt lat="45.97779" lon="4.79822">
        <ele>223</ele>
        <time>2018-05-25T08:37:58Z</time>
      </trkpt>
      <trkpt lat="45.97783" lon="4.79822">
        <ele>223</ele>
        <time>2018-05-25T08:37:59Z</time>
      </trkpt>
      <trkpt lat="45.97788" lon="4.7982">
        <ele>223</ele>
        <time>2018-05-25T08:38:00Z</time>
      </trkpt>
      <trkpt lat="45.97793" lon="4.7982">
        <ele>223</ele>
        <time>2018-05-25T08:38:01Z</time>
      </trkpt>
      <trkpt lat="45.97798" lon="4.79822">
        <ele>223</ele>
        <time>2018-05-25T08:38:02Z</time>
      </trkpt>
      <trkpt lat="45.97806" lon="4.79821">
        <ele>223</ele>
        <time>2018-05-25T08:38:04Z</time>
      </trkpt>
      <trkpt lat="45.97811" lon="4.7982">
        <ele>223</ele>
        <time>2018-05-25T08:38:05Z</time>
      </trkpt>
      <trkpt lat="45.97817" lon="4.79818">
        <ele>223</ele>
        <time>2018-05-25T08:38:06Z</time>
      </trkpt>
      <trkpt lat="45.97822" lon="4.79817">
        <ele>223</ele>
        <time>2018-05-25T08:38:07Z</time>
      </trkpt>
      <trkpt lat="45.97826" lon="4.79815">
        <ele>223</ele>
        <time>2018-05-25T08:38:08Z</time>
      </trkpt>
      <trkpt lat="45.97832" lon="4.79814">
        <ele>223</ele>
        <time>2018-05-25T08:38:09Z</time>
      </trkpt>
      <trkpt lat="45.97836" lon="4.79814">
        <ele>224</ele>
        <time>2018-05-25T08:38:10Z</time>
      </trkpt>
      <trkpt lat="45.97842" lon="4.79812">
        <ele>224</ele>
        <time>2018-05-25T08:38:11Z</time>
      </trkpt>
      <trkpt lat="45.97846" lon="4.79811">
        <ele>224</ele>
        <time>2018-05-25T08:38:12Z</time>
      </trkpt>
      <trkpt lat="45.97851" lon="4.7981">
        <ele>224</ele>
        <time>2018-05-25T08:38:13Z</time>
      </trkpt>
      <trkpt lat="45.97857" lon="4.79811">
        <ele>224</ele>
        <time>2018-05-25T08:38:14Z</time>
      </trkpt>
      <trkpt lat="45.97863" lon="4.7981">
        <ele>224</ele>
        <time>2018-05-25T08:38:15Z</time>
      </trkpt>
      <trkpt lat="45.97871" lon="4.79807">
        <ele>224</ele>
        <time>2018-05-25T08:38:17Z</time>
      </trkpt>
      <trkpt lat="45.97875" lon="4.79806">
        <ele>224</ele>
        <time>2018-05-25T08:38:18Z</time>
      </trkpt>
      <trkpt lat="45.97882" lon="4.79805">
        <ele>224</ele>
        <time>2018-05-25T08:38:19Z</time>
      </trkpt>
      <trkpt lat="45.97887" lon="4.79804">
        <ele>224</ele>
        <time>2018-05-25T08:38:20Z</time>
      </trkpt>
      <trkpt lat="45.97892" lon="4.79804">
        <ele>224</ele>
        <time>2018-05-25T08:38:21Z</time>
      </trkpt>
      <trkpt lat="45.97897" lon="4.79803">
        <ele>224</ele>
        <time>2018-05-25T08:38:22Z</time>
      </trkpt>
      <trkpt lat="45.97901" lon="4.79802">
        <ele>224</ele>
        <time>2018-05-25T08:38:23Z</time>
      </trkpt>
      <trkpt lat="45.97907" lon="4.79797">
        <ele>224</ele>
        <time>2018-05-25T08:38:24Z</time>
      </trkpt>
      <trkpt lat="45.97912" lon="4.79796">
        <ele>224</ele>
        <time>2018-05-25T08:38:25Z</time>
      </trkpt>
      <trkpt lat="45.97917" lon="4.79795">
        <ele>224</ele>
        <time>2018-05-25T08:38:26Z</time>
      </trkpt>
      <trkpt lat="45.97923" lon="4.79794">
        <ele>224</ele>
        <time>2018-05-25T08:38:27Z</time>
      </trkpt>
      <trkpt lat="45.97928" lon="4.79793">
        <ele>224</ele>
        <time>2018-05-25T08:38:28Z</time>
      </trkpt>
      <trkpt lat="45.97932" lon="4.7979">
        <ele>224</ele>
        <time>2018-05-25T08:38:29Z</time>
      </trkpt>
      <trkpt lat="45.97938" lon="4.79789">
        <ele>224</ele>
        <time>2018-05-25T08:38:30Z</time>
      </trkpt>
      <trkpt lat="45.97943" lon="4.79788">
        <ele>224</ele>
        <time>2018-05-25T08:38:31Z</time>
      </trkpt>
      <trkpt lat="45.97948" lon="4.79787">
        <ele>224</ele>
        <time>2018-05-25T08:38:32Z</time>
      </trkpt>
      <trkpt lat="45.97955" lon="4.79786">
        <ele>224</ele>
        <time>2018-05-25T08:38:33Z</time>
      </trkpt>
      <trkpt lat="45.97959" lon="4.79787">
        <ele>224</ele>
        <time>2018-05-25T08:38:34Z</time>
      </trkpt>
      <trkpt lat="45.97964" lon="4.79787">
        <ele>224</ele>
        <time>2018-05-25T08:38:35Z</time>
      </trkpt>
      <trkpt lat="45.9797" lon="4.79785">
        <ele>224</ele>
        <time>2018-05-25T08:38:36Z</time>
      </trkpt>
      <trkpt lat="45.97977" lon="4.79782">
        <ele>224</ele>
        <time>2018-05-25T08:38:37Z</time>
      </trkpt>
      <trkpt lat="45.97983" lon="4.79778">
        <ele>224</ele>
        <time>2018-05-25T08:38:38Z</time>
      </trkpt>
      <trkpt lat="45.97988" lon="4.79777">
        <ele>224</ele>
        <time>2018-05-25T08:38:39Z</time>
      </trkpt>
      <trkpt lat="45.97995" lon="4.79775">
        <ele>224</ele>
        <time>2018-05-25T08:38:40Z</time>
      </trkpt>
      <trkpt lat="45.98001" lon="4.79774">
        <ele>223</ele>
        <time>2018-05-25T08:38:41Z</time>
      </trkpt>
      <trkpt lat="45.98007" lon="4.79772">
        <ele>223</ele>
        <time>2018-05-25T08:38:42Z</time>
      </trkpt>
      <trkpt lat="45.98012" lon="4.79772">
        <ele>223</ele>
        <time>2018-05-25T08:38:43Z</time>
      </trkpt>
      <trkpt lat="45.98016" lon="4.79772">
        <ele>223</ele>
        <time>2018-05-25T08:38:44Z</time>
      </trkpt>
      <trkpt lat="45.98022" lon="4.79771">
        <ele>223</ele>
        <time>2018-05-25T08:38:45Z</time>
      </trkpt>
      <trkpt lat="45.98028" lon="4.79769">
        <ele>223</ele>
        <time>2018-05-25T08:38:46Z</time>
      </trkpt>
      <trkpt lat="45.98033" lon="4.79768">
        <ele>223</ele>
        <time>2018-05-25T08:38:47Z</time>
      </trkpt>
      <trkpt lat="45.98039" lon="4.79767">
        <ele>223</ele>
        <time>2018-05-25T08:38:48Z</time>
      </trkpt>
      <trkpt lat="45.98044" lon="4.79768">
        <ele>223</ele>
        <time>2018-05-25T08:38:49Z</time>
      </trkpt>
      <trkpt lat="45.98049" lon="4.79767">
        <ele>223</ele>
        <time>2018-05-25T08:38:50Z</time>
      </trkpt>
      <trkpt lat="45.98055" lon="4.79767">
        <ele>223</ele>
        <time>2018-05-25T08:38:51Z</time>
      </trkpt>
      <trkpt lat="45.98061" lon="4.79767">
        <ele>223</ele>
        <time>2018-05-25T08:38:52Z</time>
      </trkpt>
      <trkpt lat="45.98065" lon="4.79766">
        <ele>223</ele>
        <time>2018-05-25T08:38:53Z</time>
      </trkpt>
      <trkpt lat="45.9807" lon="4.79765">
        <ele>223</ele>
        <time>2018-05-25T08:38:54Z</time>
      </trkpt>
      <trkpt lat="45.98076" lon="4.79769">
        <ele>223</ele>
        <time>2018-05-25T08:38:55Z</time>
      </trkpt>
      <trkpt lat="45.9808" lon="4.79768">
        <ele>223</ele>
        <time>2018-05-25T08:38:56Z</time>
      </trkpt>
      <trkpt lat="45.98086" lon="4.79767">
        <ele>223</ele>
        <time>2018-05-25T08:38:57Z</time>
      </trkpt>
      <trkpt lat="45.98093" lon="4.79764">
        <ele>223</ele>
        <time>2018-05-25T08:38:58Z</time>
      </trkpt>
      <trkpt lat="45.98098" lon="4.79763">
        <ele>223</ele>
        <time>2018-05-25T08:38:59Z</time>
      </trkpt>
      <trkpt lat="45.98103" lon="4.79763">
        <ele>224</ele>
        <time>2018-05-25T08:39:00Z</time>
      </trkpt>
      <trkpt lat="45.98108" lon="4.7976">
        <ele>224</ele>
        <time>2018-05-25T08:39:01Z</time>
      </trkpt>
      <trkpt lat="45.98113" lon="4.7976">
        <ele>224</ele>
        <time>2018-05-25T08:39:02Z</time>
      </trkpt>
      <trkpt lat="45.98118" lon="4.7976">
        <ele>224</ele>
        <time>2018-05-25T08:39:03Z</time>
      </trkpt>
      <trkpt lat="45.98123" lon="4.7976">
        <ele>224</ele>
        <time>2018-05-25T08:39:04Z</time>
      </trkpt>
      <trkpt lat="45.98129" lon="4.79758">
        <ele>224</ele>
        <time>2018-05-25T08:39:05Z</time>
      </trkpt>
      <trkpt lat="45.98134" lon="4.79758">
        <ele>224</ele>
        <time>2018-05-25T08:39:06Z</time>
      </trkpt>
      <trkpt lat="45.98139" lon="4.79757">
        <ele>224</ele>
        <time>2018-05-25T08:39:07Z</time>
      </trkpt>
      <trkpt lat="45.98143" lon="4.79758">
        <ele>225</ele>
        <time>2018-05-25T08:39:08Z</time>
      </trkpt>
      <trkpt lat="45.98152" lon="4.79758">
        <ele>225</ele>
        <time>2018-05-25T08:39:10Z</time>
      </trkpt>
      <trkpt lat="45.98156" lon="4.79759">
        <ele>225</ele>
        <time>2018-05-25T08:39:11Z</time>
      </trkpt>
      <trkpt lat="45.98162" lon="4.79763">
        <ele>225</ele>
        <time>2018-05-25T08:39:13Z</time>
      </trkpt>
      <trkpt lat="45.98165" lon="4.79766">
        <ele>225</ele>
        <time>2018-05-25T08:39:14Z</time>
      </trkpt>
      <trkpt lat="45.9817" lon="4.79771">
        <ele>226</ele>
        <time>2018-05-25T08:39:16Z</time>
      </trkpt>
      <trkpt lat="45.98172" lon="4.79776">
        <ele>226</ele>
        <time>2018-05-25T08:39:17Z</time>
      </trkpt>
      <trkpt lat="45.98177" lon="4.79785">
        <ele>226</ele>
        <time>2018-05-25T08:39:19Z</time>
      </trkpt>
      <trkpt lat="45.98179" lon="4.79791">
        <ele>226</ele>
        <time>2018-05-25T08:39:20Z</time>
      </trkpt>
      <trkpt lat="45.9818" lon="4.79796">
        <ele>226</ele>
        <time>2018-05-25T08:39:21Z</time>
      </trkpt>
      <trkpt lat="45.98183" lon="4.79804">
        <ele>225</ele>
        <time>2018-05-25T08:39:22Z</time>
      </trkpt>
      <trkpt lat="45.98185" lon="4.79811">
        <ele>225</ele>
        <time>2018-05-25T08:39:23Z</time>
      </trkpt>
      <trkpt lat="45.98188" lon="4.79818">
        <ele>225</ele>
        <time>2018-05-25T08:39:24Z</time>
      </trkpt>
      <trkpt lat="45.98191" lon="4.79824">
        <ele>225</ele>
        <time>2018-05-25T08:39:25Z</time>
      </trkpt>
      <trkpt lat="45.98194" lon="4.79833">
        <ele>225</ele>
        <time>2018-05-25T08:39:26Z</time>
      </trkpt>
      <trkpt lat="45.98196" lon="4.79841">
        <ele>225</ele>
        <time>2018-05-25T08:39:27Z</time>
      </trkpt>
      <trkpt lat="45.98199" lon="4.79849">
        <ele>225</ele>
        <time>2018-05-25T08:39:28Z</time>
      </trkpt>
      <trkpt lat="45.98203" lon="4.79857">
        <ele>225</ele>
        <time>2018-05-25T08:39:29Z</time>
      </trkpt>
      <trkpt lat="45.98206" lon="4.79866">
        <ele>225</ele>
        <time>2018-05-25T08:39:30Z</time>
      </trkpt>
      <trkpt lat="45.98208" lon="4.79875">
        <ele>225</ele>
        <time>2018-05-25T08:39:31Z</time>
      </trkpt>
      <trkpt lat="45.9821" lon="4.79884">
        <ele>225</ele>
        <time>2018-05-25T08:39:32Z</time>
      </trkpt>
      <trkpt lat="45.98213" lon="4.79892">
        <ele>225</ele>
        <time>2018-05-25T08:39:33Z</time>
      </trkpt>
      <trkpt lat="45.98216" lon="4.79899">
        <ele>225</ele>
        <time>2018-05-25T08:39:34Z</time>
      </trkpt>
      <trkpt lat="45.98217" lon="4.79908">
        <ele>225</ele>
        <time>2018-05-25T08:39:35Z</time>
      </trkpt>
      <trkpt lat="45.9822" lon="4.79915">
        <ele>225</ele>
        <time>2018-05-25T08:39:36Z</time>
      </trkpt>
      <trkpt lat="45.98223" lon="4.79924">
        <ele>225</ele>
        <time>2018-05-25T08:39:37Z</time>
      </trkpt>
      <trkpt lat="45.98226" lon="4.79931">
        <ele>225</ele>
        <time>2018-05-25T08:39:38Z</time>
      </trkpt>
      <trkpt lat="45.98229" lon="4.79939">
        <ele>225</ele>
        <time>2018-05-25T08:39:39Z</time>
      </trkpt>
      <trkpt lat="45.98232" lon="4.79948">
        <ele>225</ele>
        <time>2018-05-25T08:39:40Z</time>
      </trkpt>
      <trkpt lat="45.98235" lon="4.79955">
        <ele>225</ele>
        <time>2018-05-25T08:39:41Z</time>
      </trkpt>
      <trkpt lat="45.98239" lon="4.79961">
        <ele>225</ele>
        <time>2018-05-25T08:39:42Z</time>
      </trkpt>
      <trkpt lat="45.98243" lon="4.79971">
        <ele>225</ele>
        <time>2018-05-25T08:39:44Z</time>
      </trkpt>
      <trkpt lat="45.98245" lon="4.79977">
        <ele>225</ele>
        <time>2018-05-25T08:39:45Z</time>
      </trkpt>
      <trkpt lat="45.98246" lon="4.79984">
        <ele>225</ele>
        <time>2018-05-25T08:39:46Z</time>
      </trkpt>
      <trkpt lat="45.98249" lon="4.79991">
        <ele>226</ele>
        <time>2018-05-25T08:39:47Z</time>
      </trkpt>
      <trkpt lat="45.98251" lon="4.79998">
        <ele>226</ele>
        <time>2018-05-25T08:39:48Z</time>
      </trkpt>
      <trkpt lat="45.98253" lon="4.80004">
        <ele>227</ele>
        <time>2018-05-25T08:39:49Z</time>
      </trkpt>
      <trkpt lat="45.98256" lon="4.80012">
        <ele>227</ele>
        <time>2018-05-25T08:39:50Z</time>
      </trkpt>
      <trkpt lat="45.98258" lon="4.80019">
        <ele>228</ele>
        <time>2018-05-25T08:39:51Z</time>
      </trkpt>
      <trkpt lat="45.9826" lon="4.80025">
        <ele>228</ele>
        <time>2018-05-25T08:39:52Z</time>
      </trkpt>
      <trkpt lat="45.98263" lon="4.80032">
        <ele>228</ele>
        <time>2018-05-25T08:39:53Z</time>
      </trkpt>
      <trkpt lat="45.98265" lon="4.80038">
        <ele>228</ele>
        <time>2018-05-25T08:39:54Z</time>
      </trkpt>
      <trkpt lat="45.98268" lon="4.80046">
        <ele>229</ele>
        <time>2018-05-25T08:39:55Z</time>
      </trkpt>
      <trkpt lat="45.98271" lon="4.80052">
        <ele>229</ele>
        <time>2018-05-25T08:39:56Z</time>
      </trkpt>
      <trkpt lat="45.98272" lon="4.80059">
        <ele>229</ele>
        <time>2018-05-25T08:39:57Z</time>
      </trkpt>
      <trkpt lat="45.98274" lon="4.80065">
        <ele>229</ele>
        <time>2018-05-25T08:39:58Z</time>
      </trkpt>
      <trkpt lat="45.98276" lon="4.80071">
        <ele>228</ele>
        <time>2018-05-25T08:39:59Z</time>
      </trkpt>
      <trkpt lat="45.98278" lon="4.80077">
        <ele>229</ele>
        <time>2018-05-25T08:40:00Z</time>
      </trkpt>
      <trkpt lat="45.9828" lon="4.80083">
        <ele>229</ele>
        <time>2018-05-25T08:40:01Z</time>
      </trkpt>
      <trkpt lat="45.98282" lon="4.80091">
        <ele>228</ele>
        <time>2018-05-25T08:40:02Z</time>
      </trkpt>
      <trkpt lat="45.98284" lon="4.80097">
        <ele>228</ele>
        <time>2018-05-25T08:40:03Z</time>
      </trkpt>
      <trkpt lat="45.98287" lon="4.80104">
        <ele>228</ele>
        <time>2018-05-25T08:40:04Z</time>
      </trkpt>
      <trkpt lat="45.98289" lon="4.8011">
        <ele>228</ele>
        <time>2018-05-25T08:40:05Z</time>
      </trkpt>
      <trkpt lat="45.98292" lon="4.80116">
        <ele>228</ele>
        <time>2018-05-25T08:40:06Z</time>
      </trkpt>
      <trkpt lat="45.98294" lon="4.80122">
        <ele>228</ele>
        <time>2018-05-25T08:40:07Z</time>
      </trkpt>
      <trkpt lat="45.98295" lon="4.80128">
        <ele>228</ele>
        <time>2018-05-25T08:40:08Z</time>
      </trkpt>
      <trkpt lat="45.98297" lon="4.80134">
        <ele>228</ele>
        <time>2018-05-25T08:40:09Z</time>
      </trkpt>
      <trkpt lat="45.983" lon="4.80141">
        <ele>228</ele>
        <time>2018-05-25T08:40:10Z</time>
      </trkpt>
      <trkpt lat="45.98303" lon="4.80146">
        <ele>228</ele>
        <time>2018-05-25T08:40:11Z</time>
      </trkpt>
      <trkpt lat="45.98305" lon="4.80153">
        <ele>228</ele>
        <time>2018-05-25T08:40:12Z</time>
      </trkpt>
      <trkpt lat="45.98307" lon="4.80159">
        <ele>228</ele>
        <time>2018-05-25T08:40:13Z</time>
      </trkpt>
      <trkpt lat="45.98309" lon="4.80166">
        <ele>228</ele>
        <time>2018-05-25T08:40:14Z</time>
      </trkpt>
      <trkpt lat="45.98312" lon="4.80173">
        <ele>227</ele>
        <time>2018-05-25T08:40:15Z</time>
      </trkpt>
      <trkpt lat="45.98315" lon="4.8018">
        <ele>227</ele>
        <time>2018-05-25T08:40:16Z</time>
      </trkpt>
      <trkpt lat="45.98318" lon="4.80186">
        <ele>227</ele>
        <time>2018-05-25T08:40:17Z</time>
      </trkpt>
      <trkpt lat="45.98322" lon="4.80197">
        <ele>227</ele>
        <time>2018-05-25T08:40:19Z</time>
      </trkpt>
      <trkpt lat="45.98325" lon="4.80202">
        <ele>227</ele>
        <time>2018-05-25T08:40:20Z</time>
      </trkpt>
      <trkpt lat="45.98326" lon="4.80208">
        <ele>227</ele>
        <time>2018-05-25T08:40:21Z</time>
      </trkpt>
      <trkpt lat="45.98327" lon="4.80216">
        <ele>227</ele>
        <time>2018-05-25T08:40:22Z</time>
      </trkpt>
      <trkpt lat="45.98329" lon="4.80228">
        <ele>228</ele>
        <time>2018-05-25T08:40:24Z</time>
      </trkpt>
      <trkpt lat="45.98328" lon="4.80234">
        <ele>228</ele>
        <time>2018-05-25T08:40:25Z</time>
      </trkpt>
      <trkpt lat="45.98327" lon="4.8024">
        <ele>228</ele>
        <time>2018-05-25T08:40:26Z</time>
      </trkpt>
      <trkpt lat="45.98325" lon="4.80247">
        <ele>229</ele>
        <time>2018-05-25T08:40:27Z</time>
      </trkpt>
      <trkpt lat="45.98324" lon="4.80254">
        <ele>228</ele>
        <time>2018-05-25T08:40:28Z</time>
      </trkpt>
      <trkpt lat="45.98322" lon="4.8026">
        <ele>228</ele>
        <time>2018-05-25T08:40:29Z</time>
      </trkpt>
      <trkpt lat="45.9832" lon="4.80267">
        <ele>227</ele>
        <time>2018-05-25T08:40:30Z</time>
      </trkpt>
      <trkpt lat="45.98319" lon="4.80275">
        <ele>227</ele>
        <time>2018-05-25T08:40:31Z</time>
      </trkpt>
      <trkpt lat="45.98317" lon="4.80282">
        <ele>226</ele>
        <time>2018-05-25T08:40:32Z</time>
      </trkpt>
      <trkpt lat="45.98314" lon="4.80289">
        <ele>226</ele>
        <time>2018-05-25T08:40:33Z</time>
      </trkpt>
      <trkpt lat="45.98313" lon="4.80295">
        <ele>226</ele>
        <time>2018-05-25T08:40:34Z</time>
      </trkpt>
      <trkpt lat="45.9831" lon="4.80304">
        <ele>226</ele>
        <time>2018-05-25T08:40:35Z</time>
      </trkpt>
      <trkpt lat="45.98308" lon="4.80311">
        <ele>226</ele>
        <time>2018-05-25T08:40:36Z</time>
      </trkpt>
      <trkpt lat="45.98305" lon="4.8032">
        <ele>226</ele>
        <time>2018-05-25T08:40:37Z</time>
      </trkpt>
      <trkpt lat="45.98303" lon="4.8033">
        <ele>226</ele>
        <time>2018-05-25T08:40:38Z</time>
      </trkpt>
      <trkpt lat="45.98301" lon="4.80338">
        <ele>225</ele>
        <time>2018-05-25T08:40:39Z</time>
      </trkpt>
      <trkpt lat="45.98299" lon="4.80346">
        <ele>225</ele>
        <time>2018-05-25T08:40:40Z</time>
      </trkpt>
      <trkpt lat="45.98298" lon="4.80353">
        <ele>225</ele>
        <time>2018-05-25T08:40:41Z</time>
      </trkpt>
      <trkpt lat="45.98297" lon="4.8036">
        <ele>225</ele>
        <time>2018-05-25T08:40:42Z</time>
      </trkpt>
      <trkpt lat="45.98296" lon="4.8037">
        <ele>224</ele>
        <time>2018-05-25T08:40:43Z</time>
      </trkpt>
      <trkpt lat="45.98294" lon="4.8038">
        <ele>224</ele>
        <time>2018-05-25T08:40:44Z</time>
      </trkpt>
      <trkpt lat="45.98292" lon="4.8039">
        <ele>224</ele>
        <time>2018-05-25T08:40:45Z</time>
      </trkpt>
      <trkpt lat="45.9829" lon="4.80402">
        <ele>224</ele>
        <time>2018-05-25T08:40:46Z</time>
      </trkpt>
      <trkpt lat="45.98288" lon="4.80412">
        <ele>224</ele>
        <time>2018-05-25T08:40:47Z</time>
      </trkpt>
      <trkpt lat="45.98287" lon="4.80425">
        <ele>224</ele>
        <time>2018-05-25T08:40:48Z</time>
      </trkpt>
      <trkpt lat="45.98287" lon="4.80437">
        <ele>224</ele>
        <time>2018-05-25T08:40:49Z</time>
      </trkpt>
      <trkpt lat="45.98284" lon="4.80446">
        <ele>223</ele>
        <time>2018-05-25T08:40:50Z</time>
      </trkpt>
      <trkpt lat="45.98283" lon="4.80455">
        <ele>223</ele>
        <time>2018-05-25T08:40:51Z</time>
      </trkpt>
      <trkpt lat="45.9828" lon="4.80462">
        <ele>223</ele>
        <time>2018-05-25T08:40:52Z</time>
      </trkpt>
      <trkpt lat="45.98277" lon="4.8047">
        <ele>223</ele>
        <time>2018-05-25T08:40:53Z</time>
      </trkpt>
      <trkpt lat="45.98276" lon="4.8048">
        <ele>223</ele>
        <time>2018-05-25T08:40:54Z</time>
      </trkpt>
      <trkpt lat="45.98271" lon="4.80489">
        <ele>223</ele>
        <time>2018-05-25T08:40:55Z</time>
      </trkpt>
      <trkpt lat="45.98269" lon="4.80495">
        <ele>223</ele>
        <time>2018-05-25T08:40:56Z</time>
      </trkpt>
      <trkpt lat="45.98266" lon="4.80506">
        <ele>223</ele>
        <time>2018-05-25T08:40:57Z</time>
      </trkpt>
      <trkpt lat="45.98264" lon="4.80514">
        <ele>223</ele>
        <time>2018-05-25T08:40:58Z</time>
      </trkpt>
      <trkpt lat="45.98263" lon="4.80521">
        <ele>223</ele>
        <time>2018-05-25T08:40:59Z</time>
      </trkpt>
      <trkpt lat="45.98261" lon="4.8053">
        <ele>224</ele>
        <time>2018-05-25T08:41:00Z</time>
      </trkpt>
      <trkpt lat="45.98259" lon="4.80537">
        <ele>224</ele>
        <time>2018-05-25T08:41:01Z</time>
      </trkpt>
      <trkpt lat="45.98257" lon="4.80543">
        <ele>224</ele>
        <time>2018-05-25T08:41:02Z</time>
      </trkpt>
      <trkpt lat="45.98254" lon="4.80551">
        <ele>224</ele>
        <time>2018-05-25T08:41:03Z</time>
      </trkpt>
      <trkpt lat="45.98252" lon="4.80558">
        <ele>224</ele>
        <time>2018-05-25T08:41:04Z</time>
      </trkpt>
      <trkpt lat="45.9825" lon="4.80566">
        <ele>224</ele>
        <time>2018-05-25T08:41:05Z</time>
      </trkpt>
      <trkpt lat="45.98248" lon="4.80572">
        <ele>224</ele>
        <time>2018-05-25T08:41:06Z</time>
      </trkpt>
      <trkpt lat="45.98246" lon="4.80579">
        <ele>224</ele>
        <time>2018-05-25T08:41:07Z</time>
      </trkpt>
      <trkpt lat="45.98244" lon="4.80585">
        <ele>224</ele>
        <time>2018-05-25T08:41:08Z</time>
      </trkpt>
      <trkpt lat="45.98241" lon="4.80594">
        <ele>224</ele>
        <time>2018-05-25T08:41:09Z</time>
      </trkpt>
      <trkpt lat="45.98239" lon="4.80602">
        <ele>224</ele>
        <time>2018-05-25T08:41:10Z</time>
      </trkpt>
      <trkpt lat="45.98237" lon="4.80609">
        <ele>224</ele>
        <time>2018-05-25T08:41:11Z</time>
      </trkpt>
      <trkpt lat="45.98235" lon="4.80614">
        <ele>224</ele>
        <time>2018-05-25T08:41:12Z</time>
      </trkpt>
      <trkpt lat="45.98233" lon="4.8062">
        <ele>224</ele>
        <time>2018-05-25T08:41:13Z</time>
      </trkpt>
      <trkpt lat="45.98231" lon="4.80628">
        <ele>224</ele>
        <time>2018-05-25T08:41:14Z</time>
      </trkpt>
      <trkpt lat="45.98229" lon="4.80634">
        <ele>224</ele>
        <time>2018-05-25T08:41:15Z</time>
      </trkpt>
      <trkpt lat="45.98225" lon="4.80646">
        <ele>224</ele>
        <time>2018-05-25T08:41:17Z</time>
      </trkpt>
      <trkpt lat="45.98224" lon="4.80651">
        <ele>224</ele>
        <time>2018-05-25T08:41:18Z</time>
      </trkpt>
      <trkpt lat="45.9822" lon="4.80661">
        <ele>224</ele>
        <time>2018-05-25T08:41:20Z</time>
      </trkpt>
      <trkpt lat="45.98216" lon="4.80664">
        <ele>224</ele>
        <time>2018-05-25T08:41:21Z</time>
      </trkpt>
      <trkpt lat="45.9821" lon="4.80666">
        <ele>224</ele>
        <time>2018-05-25T08:41:23Z</time>
      </trkpt>
      <trkpt lat="45.98206" lon="4.80668">
        <ele>224</ele>
        <time>2018-05-25T08:41:24Z</time>
      </trkpt>
      <trkpt lat="45.98198" lon="4.80672">
        <ele>225</ele>
        <time>2018-05-25T08:41:26Z</time>
      </trkpt>
      <trkpt lat="45.98194" lon="4.80674">
        <ele>225</ele>
        <time>2018-05-25T08:41:27Z</time>
      </trkpt>
      <trkpt lat="45.98186" lon="4.80678">
        <ele>225</ele>
        <time>2018-05-25T08:41:29Z</time>
      </trkpt>
      <trkpt lat="45.98182" lon="4.80679">
        <ele>225</ele>
        <time>2018-05-25T08:41:30Z</time>
      </trkpt>
      <trkpt lat="45.98175" lon="4.80681">
        <ele>225</ele>
        <time>2018-05-25T08:41:32Z</time>
      </trkpt>
      <trkpt lat="45.98172" lon="4.80682">
        <ele>225</ele>
        <time>2018-05-25T08:41:33Z</time>
      </trkpt>
      <trkpt lat="45.98164" lon="4.80684">
        <ele>227</ele>
        <time>2018-05-25T08:41:35Z</time>
      </trkpt>
      <trkpt lat="45.9816" lon="4.80685">
        <ele>227</ele>
        <time>2018-05-25T08:41:36Z</time>
      </trkpt>
      <trkpt lat="45.98152" lon="4.80686">
        <ele>227</ele>
        <time>2018-05-25T08:41:38Z</time>
      </trkpt>
      <trkpt lat="45.98148" lon="4.80686">
        <ele>227</ele>
        <time>2018-05-25T08:41:39Z</time>
      </trkpt>
      <trkpt lat="45.9814" lon="4.80688">
        <ele>228</ele>
        <time>2018-05-25T08:41:42Z</time>
      </trkpt>
      <trkpt lat="45.98134" lon="4.80689">
        <ele>228</ele>
        <time>2018-05-25T08:41:43Z</time>
      </trkpt>
      <trkpt lat="45.98128" lon="4.8069">
        <ele>228</ele>
        <time>2018-05-25T08:41:45Z</time>
      </trkpt>
      <trkpt lat="45.98123" lon="4.8069">
        <ele>228</ele>
        <time>2018-05-25T08:41:46Z</time>
      </trkpt>
      <trkpt lat="45.98119" lon="4.8069">
        <ele>228</ele>
        <time>2018-05-25T08:41:48Z</time>
      </trkpt>
      <trkpt lat="45.98113" lon="4.8069">
        <ele>228</ele>
        <time>2018-05-25T08:41:49Z</time>
      </trkpt>
      <trkpt lat="45.98104" lon="4.80691">
        <ele>228</ele>
        <time>2018-05-25T08:41:53Z</time>
      </trkpt>
      <trkpt lat="45.98101" lon="4.80692">
        <ele>228</ele>
        <time>2018-05-25T08:41:54Z</time>
      </trkpt>
      <trkpt lat="45.98093" lon="4.80692">
        <ele>228</ele>
        <time>2018-05-25T08:41:55Z</time>
      </trkpt>
      <trkpt lat="45.98091" lon="4.80692">
        <ele>228</ele>
        <time>2018-05-25T08:41:56Z</time>
      </trkpt>
      <trkpt lat="45.98083" lon="4.80691">
        <ele>230</ele>
        <time>2018-05-25T08:41:59Z</time>
      </trkpt>
      <trkpt lat="45.98081" lon="4.80691">
        <ele>230</ele>
        <time>2018-05-25T08:42:00Z</time>
      </trkpt>
      <trkpt lat="45.98072" lon="4.80691">
        <ele>230</ele>
        <time>2018-05-25T08:42:03Z</time>
      </trkpt>
      <trkpt lat="45.9807" lon="4.80691">
        <ele>230</ele>
        <time>2018-05-25T08:42:04Z</time>
      </trkpt>
      <trkpt lat="45.98061" lon="4.80692">
        <ele>230</ele>
        <time>2018-05-25T08:42:07Z</time>
      </trkpt>
      <trkpt lat="45.98058" lon="4.80692">
        <ele>230</ele>
        <time>2018-05-25T08:42:08Z</time>
      </trkpt>
      <trkpt lat="45.9805" lon="4.80693">
        <ele>230</ele>
        <time>2018-05-25T08:42:11Z</time>
      </trkpt>
      <trkpt lat="45.98047" lon="4.80694">
        <ele>230</ele>
        <time>2018-05-25T08:42:12Z</time>
      </trkpt>
      <trkpt lat="45.9804" lon="4.80696">
        <ele>230</ele>
        <time>2018-05-25T08:42:15Z</time>
      </trkpt>
      <trkpt lat="45.98037" lon="4.80697">
        <ele>230</ele>
        <time>2018-05-25T08:42:16Z</time>
      </trkpt>
      <trkpt lat="45.98031" lon="4.80703">
        <ele>231</ele>
        <time>2018-05-25T08:42:19Z</time>
      </trkpt>
      <trkpt lat="45.9803" lon="4.80705">
        <ele>231</ele>
        <time>2018-05-25T08:42:20Z</time>
      </trkpt>
      <trkpt lat="45.9803" lon="4.80716">
        <ele>231</ele>
        <time>2018-05-25T08:42:24Z</time>
      </trkpt>
      <trkpt lat="45.9803" lon="4.80719">
        <ele>231</ele>
        <time>2018-05-25T08:42:25Z</time>
      </trkpt>
      <trkpt lat="45.98032" lon="4.80731">
        <ele>231</ele>
        <time>2018-05-25T08:42:29Z</time>
      </trkpt>
      <trkpt lat="45.98033" lon="4.80734">
        <ele>231</ele>
        <time>2018-05-25T08:42:30Z</time>
      </trkpt>
      <trkpt lat="45.98036" lon="4.80746">
        <ele>231</ele>
        <time>2018-05-25T08:42:34Z</time>
      </trkpt>
      <trkpt lat="45.98036" lon="4.80749">
        <ele>231</ele>
        <time>2018-05-25T08:42:35Z</time>
      </trkpt>
      <trkpt lat="45.98039" lon="4.80759">
        <ele>233</ele>
        <time>2018-05-25T08:42:38Z</time>
      </trkpt>
      <trkpt lat="45.9804" lon="4.80762">
        <ele>233</ele>
        <time>2018-05-25T08:42:39Z</time>
      </trkpt>
      <trkpt lat="45.98042" lon="4.80771">
        <ele>233</ele>
        <time>2018-05-25T08:42:42Z</time>
      </trkpt>
      <trkpt lat="45.98043" lon="4.80774">
        <ele>233</ele>
        <time>2018-05-25T08:42:43Z</time>
      </trkpt>
      <trkpt lat="45.98044" lon="4.80784">
        <ele>233</ele>
        <time>2018-05-25T08:42:46Z</time>
      </trkpt>
      <trkpt lat="45.98045" lon="4.80787">
        <ele>233</ele>
        <time>2018-05-25T08:42:47Z</time>
      </trkpt>
      <trkpt lat="45.98047" lon="4.80796">
        <ele>234</ele>
        <time>2018-05-25T08:42:50Z</time>
      </trkpt>
      <trkpt lat="45.98048" lon="4.80799">
        <ele>234</ele>
        <time>2018-05-25T08:42:51Z</time>
      </trkpt>
      <trkpt lat="45.9805" lon="4.80809">
        <ele>234</ele>
        <time>2018-05-25T08:42:54Z</time>
      </trkpt>
      <trkpt lat="45.98051" lon="4.80813">
        <ele>234</ele>
        <time>2018-05-25T08:42:55Z</time>
      </trkpt>
      <trkpt lat="45.98054" lon="4.80823">
        <ele>234</ele>
        <time>2018-05-25T08:42:58Z</time>
      </trkpt>
      <trkpt lat="45.98055" lon="4.80826">
        <ele>234</ele>
        <time>2018-05-25T08:42:59Z</time>
      </trkpt>
      <trkpt lat="45.98059" lon="4.80837">
        <ele>236</ele>
        <time>2018-05-25T08:43:02Z</time>
      </trkpt>
      <trkpt lat="45.9806" lon="4.8084">
        <ele>236</ele>
        <time>2018-05-25T08:43:03Z</time>
      </trkpt>
      <trkpt lat="45.98063" lon="4.80849">
        <ele>236</ele>
        <time>2018-05-25T08:43:06Z</time>
      </trkpt>
      <trkpt lat="45.98064" lon="4.80853">
        <ele>236</ele>
        <time>2018-05-25T08:43:07Z</time>
      </trkpt>
      <trkpt lat="45.98066" lon="4.80862">
        <ele>237</ele>
        <time>2018-05-25T08:43:10Z</time>
      </trkpt>
      <trkpt lat="45.98067" lon="4.80866">
        <ele>237</ele>
        <time>2018-05-25T08:43:11Z</time>
      </trkpt>
      <trkpt lat="45.98069" lon="4.80877">
        <ele>237</ele>
        <time>2018-05-25T08:43:15Z</time>
      </trkpt>
      <trkpt lat="45.9807" lon="4.8088">
        <ele>237</ele>
        <time>2018-05-25T08:43:16Z</time>
      </trkpt>
      <trkpt lat="45.98072" lon="4.8089">
        <ele>238</ele>
        <time>2018-05-25T08:43:20Z</time>
      </trkpt>
      <trkpt lat="45.98073" lon="4.80892">
        <ele>238</ele>
        <time>2018-05-25T08:43:21Z</time>
      </trkpt>
      <trkpt lat="45.98077" lon="4.80903">
        <ele>238</ele>
        <time>2018-05-25T08:43:25Z</time>
      </trkpt>
      <trkpt lat="45.98077" lon="4.80906">
        <ele>238</ele>
        <time>2018-05-25T08:43:26Z</time>
      </trkpt>
      <trkpt lat="45.98081" lon="4.80918">
        <ele>239</ele>
        <time>2018-05-25T08:43:30Z</time>
      </trkpt>
      <trkpt lat="45.98081" lon="4.80921">
        <ele>239</ele>
        <time>2018-05-25T08:43:31Z</time>
      </trkpt>
      <trkpt lat="45.98085" lon="4.80931">
        <ele>238</ele>
        <time>2018-05-25T08:43:34Z</time>
      </trkpt>
      <trkpt lat="45.98086" lon="4.80935">
        <ele>238</ele>
        <time>2018-05-25T08:43:35Z</time>
      </trkpt>
      <trkpt lat="45.98088" lon="4.80945">
        <ele>238</ele>
        <time>2018-05-25T08:43:38Z</time>
      </trkpt>
      <trkpt lat="45.98089" lon="4.80948">
        <ele>238</ele>
        <time>2018-05-25T08:43:39Z</time>
      </trkpt>
      <trkpt lat="45.98091" lon="4.80959">
        <ele>239</ele>
        <time>2018-05-25T08:43:42Z</time>
      </trkpt>
      <trkpt lat="45.98092" lon="4.80962">
        <ele>239</ele>
        <time>2018-05-25T08:43:43Z</time>
      </trkpt>
      <trkpt lat="45.98095" lon="4.80973">
        <ele>239</ele>
        <time>2018-05-25T08:43:47Z</time>
      </trkpt>
      <trkpt lat="45.98096" lon="4.80976">
        <ele>239</ele>
        <time>2018-05-25T08:43:48Z</time>
      </trkpt>
      <trkpt lat="45.98099" lon="4.80984">
        <ele>239</ele>
        <time>2018-05-25T08:43:51Z</time>
      </trkpt>
      <trkpt lat="45.98099" lon="4.80988">
        <ele>240</ele>
        <time>2018-05-25T08:43:52Z</time>
      </trkpt>
      <trkpt lat="45.98101" lon="4.80991">
        <ele>240</ele>
        <time>2018-05-25T08:43:53Z</time>
      </trkpt>
      <trkpt lat="45.98105" lon="4.81002">
        <ele>242</ele>
        <time>2018-05-25T08:43:54Z</time>
      </trkpt>
      <trkpt lat="45.98109" lon="4.8101">
        <ele>242</ele>
        <time>2018-05-25T08:43:56Z</time>
      </trkpt>
      <trkpt lat="45.98111" lon="4.81016">
        <ele>242</ele>
        <time>2018-05-25T08:43:57Z</time>
      </trkpt>
      <trkpt lat="45.98113" lon="4.81027">
        <ele>242</ele>
        <time>2018-05-25T08:43:59Z</time>
      </trkpt>
      <trkpt lat="45.98115" lon="4.81032">
        <ele>242</ele>
        <time>2018-05-25T08:44:00Z</time>
      </trkpt>
      <trkpt lat="45.98118" lon="4.81043">
        <ele>242</ele>
        <time>2018-05-25T08:44:02Z</time>
      </trkpt>
      <trkpt lat="45.98119" lon="4.81048">
        <ele>242</ele>
        <time>2018-05-25T08:44:03Z</time>
      </trkpt>
      <trkpt lat="45.98122" lon="4.81058">
        <ele>243</ele>
        <time>2018-05-25T08:44:05Z</time>
      </trkpt>
      <trkpt lat="45.98123" lon="4.81063">
        <ele>243</ele>
        <time>2018-05-25T08:44:06Z</time>
      </trkpt>
      <trkpt lat="45.98127" lon="4.81072">
        <ele>243</ele>
        <time>2018-05-25T08:44:08Z</time>
      </trkpt>
      <trkpt lat="45.98128" lon="4.81077">
        <ele>243</ele>
        <time>2018-05-25T08:44:09Z</time>
      </trkpt>
      <trkpt lat="45.98132" lon="4.81086">
        <ele>245</ele>
        <time>2018-05-25T08:44:11Z</time>
      </trkpt>
      <trkpt lat="45.98133" lon="4.81091">
        <ele>245</ele>
        <time>2018-05-25T08:44:12Z</time>
      </trkpt>
      <trkpt lat="45.98137" lon="4.81101">
        <ele>245</ele>
        <time>2018-05-25T08:44:14Z</time>
      </trkpt>
      <trkpt lat="45.98139" lon="4.81106">
        <ele>245</ele>
        <time>2018-05-25T08:44:15Z</time>
      </trkpt>
      <trkpt lat="45.98143" lon="4.81117">
        <ele>245</ele>
        <time>2018-05-25T08:44:17Z</time>
      </trkpt>
      <trkpt lat="45.98145" lon="4.81122">
        <ele>245</ele>
        <time>2018-05-25T08:44:18Z</time>
      </trkpt>
      <trkpt lat="45.9815" lon="4.81132">
        <ele>245</ele>
        <time>2018-05-25T08:44:20Z</time>
      </trkpt>
      <trkpt lat="45.98152" lon="4.81137">
        <ele>245</ele>
        <time>2018-05-25T08:44:21Z</time>
      </trkpt>
      <trkpt lat="45.98156" lon="4.81148">
        <ele>245</ele>
        <time>2018-05-25T08:44:23Z</time>
      </trkpt>
      <trkpt lat="45.98158" lon="4.81154">
        <ele>245</ele>
        <time>2018-05-25T08:44:24Z</time>
      </trkpt>
      <trkpt lat="45.98161" lon="4.81164">
        <ele>245</ele>
        <time>2018-05-25T08:44:26Z</time>
      </trkpt>
      <trkpt lat="45.98163" lon="4.8117">
        <ele>245</ele>
        <time>2018-05-25T08:44:27Z</time>
      </trkpt>
      <trkpt lat="45.98166" lon="4.81181">
        <ele>246</ele>
        <time>2018-05-25T08:44:30Z</time>
      </trkpt>
      <trkpt lat="45.98167" lon="4.81184">
        <ele>246</ele>
        <time>2018-05-25T08:44:31Z</time>
      </trkpt>
      <trkpt lat="45.98168" lon="4.81197">
        <ele>245</ele>
        <time>2018-05-25T08:44:34Z</time>
      </trkpt>
      <trkpt lat="45.98169" lon="4.81201">
        <ele>245</ele>
        <time>2018-05-25T08:44:35Z</time>
      </trkpt>
      <trkpt lat="45.98171" lon="4.81214">
        <ele>246</ele>
        <time>2018-05-25T08:44:36Z</time>
      </trkpt>
      <trkpt lat="45.98173" lon="4.81225">
        <ele>246</ele>
        <time>2018-05-25T08:44:38Z</time>
      </trkpt>
      <trkpt lat="45.98173" lon="4.8123">
        <ele>246</ele>
        <time>2018-05-25T08:44:39Z</time>
      </trkpt>
      <trkpt lat="45.98175" lon="4.8124">
        <ele>247</ele>
        <time>2018-05-25T08:44:42Z</time>
      </trkpt>
      <trkpt lat="45.98175" lon="4.81248">
        <ele>247</ele>
        <time>2018-05-25T08:44:43Z</time>
      </trkpt>
      <trkpt lat="45.98176" lon="4.81258">
        <ele>247</ele>
        <time>2018-05-25T08:44:46Z</time>
      </trkpt>
      <trkpt lat="45.98177" lon="4.81262">
        <ele>247</ele>
        <time>2018-05-25T08:44:47Z</time>
      </trkpt>
      <trkpt lat="45.98178" lon="4.81266">
        <ele>247</ele>
        <time>2018-05-25T08:44:48Z</time>
      </trkpt>
      <trkpt lat="45.9818" lon="4.81279">
        <ele>247</ele>
        <time>2018-05-25T08:44:49Z</time>
      </trkpt>
      <trkpt lat="45.98181" lon="4.81291">
        <ele>247</ele>
        <time>2018-05-25T08:44:52Z</time>
      </trkpt>
      <trkpt lat="45.98182" lon="4.81294">
        <ele>247</ele>
        <time>2018-05-25T08:44:53Z</time>
      </trkpt>
      <trkpt lat="45.98183" lon="4.81306">
        <ele>247</ele>
        <time>2018-05-25T08:44:54Z</time>
      </trkpt>
      <trkpt lat="45.98184" lon="4.81311">
        <ele>247</ele>
        <time>2018-05-25T08:44:55Z</time>
      </trkpt>
      <trkpt lat="45.98187" lon="4.81322">
        <ele>247</ele>
        <time>2018-05-25T08:44:57Z</time>
      </trkpt>
      <trkpt lat="45.98189" lon="4.81327">
        <ele>247</ele>
        <time>2018-05-25T08:44:58Z</time>
      </trkpt>
      <trkpt lat="45.98191" lon="4.81335">
        <ele>248</ele>
        <time>2018-05-25T08:45:00Z</time>
      </trkpt>
      <trkpt lat="45.98193" lon="4.81343">
        <ele>248</ele>
        <time>2018-05-25T08:45:01Z</time>
      </trkpt>
      <trkpt lat="45.98195" lon="4.81355">
        <ele>248</ele>
        <time>2018-05-25T08:45:03Z</time>
      </trkpt>
      <trkpt lat="45.98196" lon="4.8136">
        <ele>248</ele>
        <time>2018-05-25T08:45:04Z</time>
      </trkpt>
      <trkpt lat="45.98198" lon="4.81371">
        <ele>248</ele>
        <time>2018-05-25T08:45:06Z</time>
      </trkpt>
      <trkpt lat="45.98199" lon="4.81376">
        <ele>248</ele>
        <time>2018-05-25T08:45:07Z</time>
      </trkpt>
      <trkpt lat="45.982" lon="4.81382">
        <ele>248</ele>
        <time>2018-05-25T08:45:09Z</time>
      </trkpt>
      <trkpt lat="45.98202" lon="4.81391">
        <ele>248</ele>
        <time>2018-05-25T08:45:10Z</time>
      </trkpt>
      <trkpt lat="45.98206" lon="4.814">
        <ele>248</ele>
        <time>2018-05-25T08:45:12Z</time>
      </trkpt>
      <trkpt lat="45.98207" lon="4.81405">
        <ele>248</ele>
        <time>2018-05-25T08:45:13Z</time>
      </trkpt>
      <trkpt lat="45.98211" lon="4.81414">
        <ele>248</ele>
        <time>2018-05-25T08:45:15Z</time>
      </trkpt>
      <trkpt lat="45.98213" lon="4.81419">
        <ele>249</ele>
        <time>2018-05-25T08:45:16Z</time>
      </trkpt>
      <trkpt lat="45.98216" lon="4.81429">
        <ele>249</ele>
        <time>2018-05-25T08:45:18Z</time>
      </trkpt>
      <trkpt lat="45.98218" lon="4.81434">
        <ele>249</ele>
        <time>2018-05-25T08:45:19Z</time>
      </trkpt>
      <trkpt lat="45.98221" lon="4.81443">
        <ele>249</ele>
        <time>2018-05-25T08:45:21Z</time>
      </trkpt>
      <trkpt lat="45.98223" lon="4.81449">
        <ele>249</ele>
        <time>2018-05-25T08:45:22Z</time>
      </trkpt>
      <trkpt lat="45.98226" lon="4.81459">
        <ele>249</ele>
        <time>2018-05-25T08:45:24Z</time>
      </trkpt>
      <trkpt lat="45.98228" lon="4.81465">
        <ele>249</ele>
        <time>2018-05-25T08:45:25Z</time>
      </trkpt>
      <trkpt lat="45.9823" lon="4.8147">
        <ele>249</ele>
        <time>2018-05-25T08:45:26Z</time>
      </trkpt>
      <trkpt lat="45.98232" lon="4.81477">
        <ele>249</ele>
        <time>2018-05-25T08:45:27Z</time>
      </trkpt>
      <trkpt lat="45.98234" lon="4.81483">
        <ele>249</ele>
        <time>2018-05-25T08:45:28Z</time>
      </trkpt>
      <trkpt lat="45.98236" lon="4.81489">
        <ele>249</ele>
        <time>2018-05-25T08:45:29Z</time>
      </trkpt>
      <trkpt lat="45.98239" lon="4.81495">
        <ele>249</ele>
        <time>2018-05-25T08:45:30Z</time>
      </trkpt>
      <trkpt lat="45.98242" lon="4.81501">
        <ele>249</ele>
        <time>2018-05-25T08:45:31Z</time>
      </trkpt>
      <trkpt lat="45.98244" lon="4.81508">
        <ele>249</ele>
        <time>2018-05-25T08:45:32Z</time>
      </trkpt>
      <trkpt lat="45.98246" lon="4.81514">
        <ele>249</ele>
        <time>2018-05-25T08:45:33Z</time>
      </trkpt>
      <trkpt lat="45.98248" lon="4.8152">
        <ele>249</ele>
        <time>2018-05-25T08:45:34Z</time>
      </trkpt>
      <trkpt lat="45.9825" lon="4.81526">
        <ele>249</ele>
        <time>2018-05-25T08:45:35Z</time>
      </trkpt>
      <trkpt lat="45.98252" lon="4.81532">
        <ele>247</ele>
        <time>2018-05-25T08:45:36Z</time>
      </trkpt>
      <trkpt lat="45.98254" lon="4.81539">
        <ele>247</ele>
        <time>2018-05-25T08:45:37Z</time>
      </trkpt>
      <trkpt lat="45.98256" lon="4.81543">
        <ele>247</ele>
        <time>2018-05-25T08:45:38Z</time>
      </trkpt>
      <trkpt lat="45.98257" lon="4.81551">
        <ele>247</ele>
        <time>2018-05-25T08:45:39Z</time>
      </trkpt>
      <trkpt lat="45.98259" lon="4.81556">
        <ele>247</ele>
        <time>2018-05-25T08:45:40Z</time>
      </trkpt>
      <trkpt lat="45.98263" lon="4.81564">
        <ele>247</ele>
        <time>2018-05-25T08:45:41Z</time>
      </trkpt>
      <trkpt lat="45.98265" lon="4.8157">
        <ele>247</ele>
        <time>2018-05-25T08:45:42Z</time>
      </trkpt>
      <trkpt lat="45.98267" lon="4.81577">
        <ele>247</ele>
        <time>2018-05-25T08:45:43Z</time>
      </trkpt>
      <trkpt lat="45.98269" lon="4.81583">
        <ele>247</ele>
        <time>2018-05-25T08:45:44Z</time>
      </trkpt>
      <trkpt lat="45.98274" lon="4.81589">
        <ele>247</ele>
        <time>2018-05-25T08:45:45Z</time>
      </trkpt>
      <trkpt lat="45.98276" lon="4.81596">
        <ele>247</ele>
        <time>2018-05-25T08:45:46Z</time>
      </trkpt>
      <trkpt lat="45.98279" lon="4.81603">
        <ele>247</ele>
        <time>2018-05-25T08:45:47Z</time>
      </trkpt>
      <trkpt lat="45.98282" lon="4.81608">
        <ele>247</ele>
        <time>2018-05-25T08:45:48Z</time>
      </trkpt>
      <trkpt lat="45.98285" lon="4.81615">
        <ele>247</ele>
        <time>2018-05-25T08:45:49Z</time>
      </trkpt>
      <trkpt lat="45.98291" lon="4.81624">
        <ele>247</ele>
        <time>2018-05-25T08:45:51Z</time>
      </trkpt>
      <trkpt lat="45.98294" lon="4.81628">
        <ele>246</ele>
        <time>2018-05-25T08:45:52Z</time>
      </trkpt>
      <trkpt lat="45.983" lon="4.81636">
        <ele>246</ele>
        <time>2018-05-25T08:45:54Z</time>
      </trkpt>
      <trkpt lat="45.98304" lon="4.8164">
        <ele>246</ele>
        <time>2018-05-25T08:45:55Z</time>
      </trkpt>
      <trkpt lat="45.98308" lon="4.81645">
        <ele>246</ele>
        <time>2018-05-25T08:45:56Z</time>
      </trkpt>
      <trkpt lat="45.98314" lon="4.81646">
        <ele>246</ele>
        <time>2018-05-25T08:45:57Z</time>
      </trkpt>
      <trkpt lat="45.98317" lon="4.81654">
        <ele>246</ele>
        <time>2018-05-25T08:45:58Z</time>
      </trkpt>
      <trkpt lat="45.98321" lon="4.81657">
        <ele>246</ele>
        <time>2018-05-25T08:45:59Z</time>
      </trkpt>
      <trkpt lat="45.98325" lon="4.81659">
        <ele>246</ele>
        <time>2018-05-25T08:46:00Z</time>
      </trkpt>
      <trkpt lat="45.98329" lon="4.81662">
        <ele>246</ele>
        <time>2018-05-25T08:46:01Z</time>
      </trkpt>
      <trkpt lat="45.98334" lon="4.81665">
        <ele>246</ele>
        <time>2018-05-25T08:46:02Z</time>
      </trkpt>
      <trkpt lat="45.98338" lon="4.81669">
        <ele>246</ele>
        <time>2018-05-25T08:46:03Z</time>
      </trkpt>
      <trkpt lat="45.98343" lon="4.81672">
        <ele>245</ele>
        <time>2018-05-25T08:46:04Z</time>
      </trkpt>
      <trkpt lat="45.98347" lon="4.81674">
        <ele>245</ele>
        <time>2018-05-25T08:46:05Z</time>
      </trkpt>
      <trkpt lat="45.98353" lon="4.81675">
        <ele>245</ele>
        <time>2018-05-25T08:46:06Z</time>
      </trkpt>
      <trkpt lat="45.98358" lon="4.81677">
        <ele>245</ele>
        <time>2018-05-25T08:46:07Z</time>
      </trkpt>
      <trkpt lat="45.98363" lon="4.81677">
        <ele>244</ele>
        <time>2018-05-25T08:46:08Z</time>
      </trkpt>
      <trkpt lat="45.98368" lon="4.81676">
        <ele>244</ele>
        <time>2018-05-25T08:46:09Z</time>
      </trkpt>
      <trkpt lat="45.98374" lon="4.81674">
        <ele>244</ele>
        <time>2018-05-25T08:46:10Z</time>
      </trkpt>
      <trkpt lat="45.9838" lon="4.81672">
        <ele>244</ele>
        <time>2018-05-25T08:46:11Z</time>
      </trkpt>
      <trkpt lat="45.98389" lon="4.81671">
        <ele>243</ele>
        <time>2018-05-25T08:46:13Z</time>
      </trkpt>
      <trkpt lat="45.98394" lon="4.81668">
        <ele>243</ele>
        <time>2018-05-25T08:46:14Z</time>
      </trkpt>
      <trkpt lat="45.98399" lon="4.81667">
        <ele>242</ele>
        <time>2018-05-25T08:46:15Z</time>
      </trkpt>
      <trkpt lat="45.98405" lon="4.81665">
        <ele>241</ele>
        <time>2018-05-25T08:46:16Z</time>
      </trkpt>
      <trkpt lat="45.9841" lon="4.81664">
        <ele>241</ele>
        <time>2018-05-25T08:46:17Z</time>
      </trkpt>
      <trkpt lat="45.98414" lon="4.81664">
        <ele>241</ele>
        <time>2018-05-25T08:46:18Z</time>
      </trkpt>
      <trkpt lat="45.98423" lon="4.81662">
        <ele>240</ele>
        <time>2018-05-25T08:46:20Z</time>
      </trkpt>
      <trkpt lat="45.98427" lon="4.81663">
        <ele>240</ele>
        <time>2018-05-25T08:46:21Z</time>
      </trkpt>
      <trkpt lat="45.98435" lon="4.81666">
        <ele>239</ele>
        <time>2018-05-25T08:46:23Z</time>
      </trkpt>
      <trkpt lat="45.98439" lon="4.81671">
        <ele>240</ele>
        <time>2018-05-25T08:46:24Z</time>
      </trkpt>
      <trkpt lat="45.98443" lon="4.81677">
        <ele>239</ele>
        <time>2018-05-25T08:46:25Z</time>
      </trkpt>
      <trkpt lat="45.98447" lon="4.8168">
        <ele>239</ele>
        <time>2018-05-25T08:46:26Z</time>
      </trkpt>
      <trkpt lat="45.9845" lon="4.81686">
        <ele>239</ele>
        <time>2018-05-25T08:46:27Z</time>
      </trkpt>
      <trkpt lat="45.98453" lon="4.81695">
        <ele>239</ele>
        <time>2018-05-25T08:46:28Z</time>
      </trkpt>
      <trkpt lat="45.98459" lon="4.81701">
        <ele>239</ele>
        <time>2018-05-25T08:46:29Z</time>
      </trkpt>
      <trkpt lat="45.98463" lon="4.81707">
        <ele>239</ele>
        <time>2018-05-25T08:46:30Z</time>
      </trkpt>
      <trkpt lat="45.98467" lon="4.81718">
        <ele>239</ele>
        <time>2018-05-25T08:46:31Z</time>
      </trkpt>
      <trkpt lat="45.98472" lon="4.81722">
        <ele>239</ele>
        <time>2018-05-25T08:46:32Z</time>
      </trkpt>
      <trkpt lat="45.98478" lon="4.81729">
        <ele>238</ele>
        <time>2018-05-25T08:46:33Z</time>
      </trkpt>
      <trkpt lat="45.98485" lon="4.81733">
        <ele>238</ele>
        <time>2018-05-25T08:46:34Z</time>
      </trkpt>
      <trkpt lat="45.98493" lon="4.81739">
        <ele>238</ele>
        <time>2018-05-25T08:46:35Z</time>
      </trkpt>
      <trkpt lat="45.98499" lon="4.81744">
        <ele>237</ele>
        <time>2018-05-25T08:46:36Z</time>
      </trkpt>
      <trkpt lat="45.98506" lon="4.81753">
        <ele>237</ele>
        <time>2018-05-25T08:46:37Z</time>
      </trkpt>
      <trkpt lat="45.98511" lon="4.81762">
        <ele>237</ele>
        <time>2018-05-25T08:46:38Z</time>
      </trkpt>
      <trkpt lat="45.98518" lon="4.81771">
        <ele>238</ele>
        <time>2018-05-25T08:46:39Z</time>
      </trkpt>
      <trkpt lat="45.98524" lon="4.8178">
        <ele>238</ele>
        <time>2018-05-25T08:46:40Z</time>
      </trkpt>
      <trkpt lat="45.9853" lon="4.81788">
        <ele>238</ele>
        <time>2018-05-25T08:46:41Z</time>
      </trkpt>
      <trkpt lat="45.98535" lon="4.81795">
        <ele>238</ele>
        <time>2018-05-25T08:46:42Z</time>
      </trkpt>
      <trkpt lat="45.9854" lon="4.81802">
        <ele>238</ele>
        <time>2018-05-25T08:46:43Z</time>
      </trkpt>
      <trkpt lat="45.98546" lon="4.81804">
        <ele>238</ele>
        <time>2018-05-25T08:46:44Z</time>
      </trkpt>
      <trkpt lat="45.98552" lon="4.81805">
        <ele>238</ele>
        <time>2018-05-25T08:46:45Z</time>
      </trkpt>
      <trkpt lat="45.98558" lon="4.81802">
        <ele>238</ele>
        <time>2018-05-25T08:46:46Z</time>
      </trkpt>
      <trkpt lat="45.98563" lon="4.81798">
        <ele>238</ele>
        <time>2018-05-25T08:46:47Z</time>
      </trkpt>
      <trkpt lat="45.98568" lon="4.81793">
        <ele>238</ele>
        <time>2018-05-25T08:46:48Z</time>
      </trkpt>
      <trkpt lat="45.98573" lon="4.81788">
        <ele>238</ele>
        <time>2018-05-25T08:46:49Z</time>
      </trkpt>
      <trkpt lat="45.98577" lon="4.81782">
        <ele>238</ele>
        <time>2018-05-25T08:46:50Z</time>
      </trkpt>
      <trkpt lat="45.9858" lon="4.81776">
        <ele>237</ele>
        <time>2018-05-25T08:46:51Z</time>
      </trkpt>
      <trkpt lat="45.98584" lon="4.81771">
        <ele>238</ele>
        <time>2018-05-25T08:46:52Z</time>
      </trkpt>
      <trkpt lat="45.98588" lon="4.81767">
        <ele>237</ele>
        <time>2018-05-25T08:46:53Z</time>
      </trkpt>
      <trkpt lat="45.98592" lon="4.81763">
        <ele>237</ele>
        <time>2018-05-25T08:46:54Z</time>
      </trkpt>
      <trkpt lat="45.98598" lon="4.81759">
        <ele>237</ele>
        <time>2018-05-25T08:46:55Z</time>
      </trkpt>
      <trkpt lat="45.98603" lon="4.81757">
        <ele>238</ele>
        <time>2018-05-25T08:46:56Z</time>
      </trkpt>
      <trkpt lat="45.98609" lon="4.81753">
        <ele>238</ele>
        <time>2018-05-25T08:46:57Z</time>
      </trkpt>
      <trkpt lat="45.98614" lon="4.81749">
        <ele>237</ele>
        <time>2018-05-25T08:46:58Z</time>
      </trkpt>
      <trkpt lat="45.98619" lon="4.81748">
        <ele>237</ele>
        <time>2018-05-25T08:46:59Z</time>
      </trkpt>
      <trkpt lat="45.98628" lon="4.81746">
        <ele>237</ele>
        <time>2018-05-25T08:47:01Z</time>
      </trkpt>
      <trkpt lat="45.98632" lon="4.81744">
        <ele>237</ele>
        <time>2018-05-25T08:47:02Z</time>
      </trkpt>
      <trkpt lat="45.98639" lon="4.81743">
        <ele>237</ele>
        <time>2018-05-25T08:47:04Z</time>
      </trkpt>
      <trkpt lat="45.98644" lon="4.8174">
        <ele>237</ele>
        <time>2018-05-25T08:47:05Z</time>
      </trkpt>
      <trkpt lat="45.98648" lon="4.81738">
        <ele>237</ele>
        <time>2018-05-25T08:47:06Z</time>
      </trkpt>
      <trkpt lat="45.98653" lon="4.81737">
        <ele>237</ele>
        <time>2018-05-25T08:47:07Z</time>
      </trkpt>
      <trkpt lat="45.9866" lon="4.81736">
        <ele>237</ele>
        <time>2018-05-25T08:47:09Z</time>
      </trkpt>
      <trkpt lat="45.98664" lon="4.81735">
        <ele>237</ele>
        <time>2018-05-25T08:47:10Z</time>
      </trkpt>
      <trkpt lat="45.98673" lon="4.81735">
        <ele>238</ele>
        <time>2018-05-25T08:47:12Z</time>
      </trkpt>
      <trkpt lat="45.98675" lon="4.81734">
        <ele>238</ele>
        <time>2018-05-25T08:47:13Z</time>
      </trkpt>
      <trkpt lat="45.98682" lon="4.81732">
        <ele>238</ele>
        <time>2018-05-25T08:47:14Z</time>
      </trkpt>
      <trkpt lat="45.98685" lon="4.81732">
        <ele>238</ele>
        <time>2018-05-25T08:47:15Z</time>
      </trkpt>
      <trkpt lat="45.98689" lon="4.81731">
        <ele>238</ele>
        <time>2018-05-25T08:47:16Z</time>
      </trkpt>
      <trkpt lat="45.98694" lon="4.81728">
        <ele>238</ele>
        <time>2018-05-25T08:47:17Z</time>
      </trkpt>
      <trkpt lat="45.98701" lon="4.81725">
        <ele>239</ele>
        <time>2018-05-25T08:47:18Z</time>
      </trkpt>
      <trkpt lat="45.98705" lon="4.81725">
        <ele>239</ele>
        <time>2018-05-25T08:47:19Z</time>
      </trkpt>
      <trkpt lat="45.9871" lon="4.81724">
        <ele>239</ele>
        <time>2018-05-25T08:47:20Z</time>
      </trkpt>
      <trkpt lat="45.98715" lon="4.81722">
        <ele>239</ele>
        <time>2018-05-25T08:47:21Z</time>
      </trkpt>
      <trkpt lat="45.9872" lon="4.81722">
        <ele>239</ele>
        <time>2018-05-25T08:47:22Z</time>
      </trkpt>
      <trkpt lat="45.98724" lon="4.81721">
        <ele>239</ele>
        <time>2018-05-25T08:47:23Z</time>
      </trkpt>
      <trkpt lat="45.98729" lon="4.81722">
        <ele>239</ele>
        <time>2018-05-25T08:47:24Z</time>
      </trkpt>
      <trkpt lat="45.98733" lon="4.81733">
        <ele>239</ele>
        <time>2018-05-25T08:47:25Z</time>
      </trkpt>
      <trkpt lat="45.98736" lon="4.81739">
        <ele>240</ele>
        <time>2018-05-25T08:47:26Z</time>
      </trkpt>
      <trkpt lat="45.98737" lon="4.81745">
        <ele>240</ele>
        <time>2018-05-25T08:47:27Z</time>
      </trkpt>
      <trkpt lat="45.98741" lon="4.8175">
        <ele>240</ele>
        <time>2018-05-25T08:47:28Z</time>
      </trkpt>
      <trkpt lat="45.98745" lon="4.81754">
        <ele>241</ele>
        <time>2018-05-25T08:47:29Z</time>
      </trkpt>
      <trkpt lat="45.98749" lon="4.81765">
        <ele>240</ele>
        <time>2018-05-25T08:47:31Z</time>
      </trkpt>
      <trkpt lat="45.98753" lon="4.81771">
        <ele>241</ele>
        <time>2018-05-25T08:47:32Z</time>
      </trkpt>
      <trkpt lat="45.98756" lon="4.81779">
        <ele>241</ele>
        <time>2018-05-25T08:47:33Z</time>
      </trkpt>
      <trkpt lat="45.98761" lon="4.81785">
        <ele>241</ele>
        <time>2018-05-25T08:47:34Z</time>
      </trkpt>
      <trkpt lat="45.98764" lon="4.81791">
        <ele>241</ele>
        <time>2018-05-25T08:47:35Z</time>
      </trkpt>
      <trkpt lat="45.98767" lon="4.81796">
        <ele>240</ele>
        <time>2018-05-25T08:47:36Z</time>
      </trkpt>
      <trkpt lat="45.9877" lon="4.81802">
        <ele>240</ele>
        <time>2018-05-25T08:47:37Z</time>
      </trkpt>
      <trkpt lat="45.98773" lon="4.81808">
        <ele>240</ele>
        <time>2018-05-25T08:47:38Z</time>
      </trkpt>
      <trkpt lat="45.98776" lon="4.81815">
        <ele>240</ele>
        <time>2018-05-25T08:47:39Z</time>
      </trkpt>
      <trkpt lat="45.98778" lon="4.81823">
        <ele>240</ele>
        <time>2018-05-25T08:47:40Z</time>
      </trkpt>
      <trkpt lat="45.98781" lon="4.8183">
        <ele>240</ele>
        <time>2018-05-25T08:47:41Z</time>
      </trkpt>
      <trkpt lat="45.98784" lon="4.81837">
        <ele>239</ele>
        <time>2018-05-25T08:47:42Z</time>
      </trkpt>
      <trkpt lat="45.98787" lon="4.81844">
        <ele>239</ele>
        <time>2018-05-25T08:47:43Z</time>
      </trkpt>
      <trkpt lat="45.98792" lon="4.81848">
        <ele>239</ele>
        <time>2018-05-25T08:47:44Z</time>
      </trkpt>
      <trkpt lat="45.98794" lon="4.81855">
        <ele>239</ele>
        <time>2018-05-25T08:47:45Z</time>
      </trkpt>
      <trkpt lat="45.98798" lon="4.81862">
        <ele>239</ele>
        <time>2018-05-25T08:47:46Z</time>
      </trkpt>
      <trkpt lat="45.98801" lon="4.81869">
        <ele>239</ele>
        <time>2018-05-25T08:47:47Z</time>
      </trkpt>
      <trkpt lat="45.98804" lon="4.81876">
        <ele>239</ele>
        <time>2018-05-25T08:47:48Z</time>
      </trkpt>
      <trkpt lat="45.98805" lon="4.81883">
        <ele>239</ele>
        <time>2018-05-25T08:47:49Z</time>
      </trkpt>
      <trkpt lat="45.98807" lon="4.81891">
        <ele>239</ele>
        <time>2018-05-25T08:47:50Z</time>
      </trkpt>
      <trkpt lat="45.98809" lon="4.81897">
        <ele>239</ele>
        <time>2018-05-25T08:47:51Z</time>
      </trkpt>
      <trkpt lat="45.9881" lon="4.81904">
        <ele>239</ele>
        <time>2018-05-25T08:47:52Z</time>
      </trkpt>
      <trkpt lat="45.98812" lon="4.81911">
        <ele>239</ele>
        <time>2018-05-25T08:47:53Z</time>
      </trkpt>
      <trkpt lat="45.98813" lon="4.81919">
        <ele>239</ele>
        <time>2018-05-25T08:47:54Z</time>
      </trkpt>
      <trkpt lat="45.98814" lon="4.81925">
        <ele>239</ele>
        <time>2018-05-25T08:47:55Z</time>
      </trkpt>
      <trkpt lat="45.98814" lon="4.81933">
        <ele>239</ele>
        <time>2018-05-25T08:47:56Z</time>
      </trkpt>
      <trkpt lat="45.98815" lon="4.81941">
        <ele>239</ele>
        <time>2018-05-25T08:47:57Z</time>
      </trkpt>
      <trkpt lat="45.98815" lon="4.8195">
        <ele>239</ele>
        <time>2018-05-25T08:47:58Z</time>
      </trkpt>
      <trkpt lat="45.98817" lon="4.81959">
        <ele>239</ele>
        <time>2018-05-25T08:47:59Z</time>
      </trkpt>
      <trkpt lat="45.98818" lon="4.81967">
        <ele>239</ele>
        <time>2018-05-25T08:48:00Z</time>
      </trkpt>
      <trkpt lat="45.98819" lon="4.81974">
        <ele>239</ele>
        <time>2018-05-25T08:48:01Z</time>
      </trkpt>
      <trkpt lat="45.9882" lon="4.81982">
        <ele>238</ele>
        <time>2018-05-25T08:48:02Z</time>
      </trkpt>
      <trkpt lat="45.98821" lon="4.81991">
        <ele>238</ele>
        <time>2018-05-25T08:48:03Z</time>
      </trkpt>
      <trkpt lat="45.98821" lon="4.82">
        <ele>238</ele>
        <time>2018-05-25T08:48:04Z</time>
      </trkpt>
      <trkpt lat="45.98822" lon="4.82007">
        <ele>238</ele>
        <time>2018-05-25T08:48:05Z</time>
      </trkpt>
      <trkpt lat="45.98823" lon="4.82015">
        <ele>238</ele>
        <time>2018-05-25T08:48:06Z</time>
      </trkpt>
      <trkpt lat="45.98824" lon="4.82022">
        <ele>238</ele>
        <time>2018-05-25T08:48:07Z</time>
      </trkpt>
      <trkpt lat="45.98825" lon="4.82029">
        <ele>238</ele>
        <time>2018-05-25T08:48:08Z</time>
      </trkpt>
      <trkpt lat="45.98826" lon="4.82036">
        <ele>238</ele>
        <time>2018-05-25T08:48:09Z</time>
      </trkpt>
      <trkpt lat="45.98827" lon="4.82043">
        <ele>238</ele>
        <time>2018-05-25T08:48:10Z</time>
      </trkpt>
      <trkpt lat="45.98828" lon="4.8205">
        <ele>237</ele>
        <time>2018-05-25T08:48:11Z</time>
      </trkpt>
      <trkpt lat="45.98828" lon="4.82058">
        <ele>237</ele>
        <time>2018-05-25T08:48:12Z</time>
      </trkpt>
      <trkpt lat="45.98829" lon="4.82066">
        <ele>237</ele>
        <time>2018-05-25T08:48:13Z</time>
      </trkpt>
      <trkpt lat="45.98831" lon="4.82072">
        <ele>237</ele>
        <time>2018-05-25T08:48:14Z</time>
      </trkpt>
      <trkpt lat="45.98833" lon="4.82078">
        <ele>236</ele>
        <time>2018-05-25T08:48:15Z</time>
      </trkpt>
      <trkpt lat="45.98834" lon="4.82084">
        <ele>236</ele>
        <time>2018-05-25T08:48:16Z</time>
      </trkpt>
      <trkpt lat="45.98836" lon="4.82093">
        <ele>236</ele>
        <time>2018-05-25T08:48:17Z</time>
      </trkpt>
      <trkpt lat="45.98837" lon="4.821">
        <ele>236</ele>
        <time>2018-05-25T08:48:18Z</time>
      </trkpt>
      <trkpt lat="45.98838" lon="4.82108">
        <ele>236</ele>
        <time>2018-05-25T08:48:19Z</time>
      </trkpt>
      <trkpt lat="45.98839" lon="4.82114">
        <ele>235</ele>
        <time>2018-05-25T08:48:20Z</time>
      </trkpt>
      <trkpt lat="45.98841" lon="4.82126">
        <ele>236</ele>
        <time>2018-05-25T08:48:22Z</time>
      </trkpt>
      <trkpt lat="45.98842" lon="4.82134">
        <ele>236</ele>
        <time>2018-05-25T08:48:23Z</time>
      </trkpt>
      <trkpt lat="45.98845" lon="4.82142">
        <ele>236</ele>
        <time>2018-05-25T08:48:24Z</time>
      </trkpt>
      <trkpt lat="45.98847" lon="4.82148">
        <ele>236</ele>
        <time>2018-05-25T08:48:25Z</time>
      </trkpt>
      <trkpt lat="45.98848" lon="4.82156">
        <ele>236</ele>
        <time>2018-05-25T08:48:26Z</time>
      </trkpt>
      <trkpt lat="45.98851" lon="4.82164">
        <ele>236</ele>
        <time>2018-05-25T08:48:27Z</time>
      </trkpt>
      <trkpt lat="45.98852" lon="4.82171">
        <ele>236</ele>
        <time>2018-05-25T08:48:28Z</time>
      </trkpt>
      <trkpt lat="45.98854" lon="4.82179">
        <ele>236</ele>
        <time>2018-05-25T08:48:29Z</time>
      </trkpt>
      <trkpt lat="45.98856" lon="4.82186">
        <ele>236</ele>
        <time>2018-05-25T08:48:30Z</time>
      </trkpt>
      <trkpt lat="45.98858" lon="4.82192">
        <ele>236</ele>
        <time>2018-05-25T08:48:31Z</time>
      </trkpt>
      <trkpt lat="45.98861" lon="4.82199">
        <ele>236</ele>
        <time>2018-05-25T08:48:32Z</time>
      </trkpt>
      <trkpt lat="45.98865" lon="4.82205">
        <ele>236</ele>
        <time>2018-05-25T08:48:33Z</time>
      </trkpt>
      <trkpt lat="45.98867" lon="4.82213">
        <ele>236</ele>
        <time>2018-05-25T08:48:34Z</time>
      </trkpt>
      <trkpt lat="45.9887" lon="4.82218">
        <ele>236</ele>
        <time>2018-05-25T08:48:35Z</time>
      </trkpt>
      <trkpt lat="45.98872" lon="4.82225">
        <ele>236</ele>
        <time>2018-05-25T08:48:36Z</time>
      </trkpt>
      <trkpt lat="45.98875" lon="4.8223">
        <ele>236</ele>
        <time>2018-05-25T08:48:37Z</time>
      </trkpt>
      <trkpt lat="45.98877" lon="4.82235">
        <ele>236</ele>
        <time>2018-05-25T08:48:38Z</time>
      </trkpt>
      <trkpt lat="45.98881" lon="4.8224">
        <ele>236</ele>
        <time>2018-05-25T08:48:39Z</time>
      </trkpt>
      <trkpt lat="45.98884" lon="4.82246">
        <ele>236</ele>
        <time>2018-05-25T08:48:40Z</time>
      </trkpt>
      <trkpt lat="45.98887" lon="4.82252">
        <ele>236</ele>
        <time>2018-05-25T08:48:41Z</time>
      </trkpt>
      <trkpt lat="45.9889" lon="4.82257">
        <ele>236</ele>
        <time>2018-05-25T08:48:42Z</time>
      </trkpt>
      <trkpt lat="45.98892" lon="4.82263">
        <ele>236</ele>
        <time>2018-05-25T08:48:43Z</time>
      </trkpt>
      <trkpt lat="45.98896" lon="4.82269">
        <ele>236</ele>
        <time>2018-05-25T08:48:44Z</time>
      </trkpt>
      <trkpt lat="45.989" lon="4.82274">
        <ele>236</ele>
        <time>2018-05-25T08:48:45Z</time>
      </trkpt>
      <trkpt lat="45.98903" lon="4.82279">
        <ele>236</ele>
        <time>2018-05-25T08:48:46Z</time>
      </trkpt>
      <trkpt lat="45.98908" lon="4.82284">
        <ele>236</ele>
        <time>2018-05-25T08:48:47Z</time>
      </trkpt>
      <trkpt lat="45.98911" lon="4.8229">
        <ele>236</ele>
        <time>2018-05-25T08:48:48Z</time>
      </trkpt>
      <trkpt lat="45.98914" lon="4.82295">
        <ele>236</ele>
        <time>2018-05-25T08:48:49Z</time>
      </trkpt>
      <trkpt lat="45.98921" lon="4.82303">
        <ele>234</ele>
        <time>2018-05-25T08:48:51Z</time>
      </trkpt>
      <trkpt lat="45.98924" lon="4.82306">
        <ele>234</ele>
        <time>2018-05-25T08:48:52Z</time>
      </trkpt>
      <trkpt lat="45.98931" lon="4.82312">
        <ele>234</ele>
        <time>2018-05-25T08:48:54Z</time>
      </trkpt>
      <trkpt lat="45.98935" lon="4.82316">
        <ele>234</ele>
        <time>2018-05-25T08:48:55Z</time>
      </trkpt>
      <trkpt lat="45.98939" lon="4.82321">
        <ele>234</ele>
        <time>2018-05-25T08:48:56Z</time>
      </trkpt>
      <trkpt lat="45.98941" lon="4.82326">
        <ele>234</ele>
        <time>2018-05-25T08:48:57Z</time>
      </trkpt>
      <trkpt lat="45.98945" lon="4.82331">
        <ele>234</ele>
        <time>2018-05-25T08:48:58Z</time>
      </trkpt>
      <trkpt lat="45.98948" lon="4.82337">
        <ele>235</ele>
        <time>2018-05-25T08:48:59Z</time>
      </trkpt>
      <trkpt lat="45.98952" lon="4.82341">
        <ele>235</ele>
        <time>2018-05-25T08:49:00Z</time>
      </trkpt>
      <trkpt lat="45.98955" lon="4.82348">
        <ele>235</ele>
        <time>2018-05-25T08:49:01Z</time>
      </trkpt>
      <trkpt lat="45.98958" lon="4.82356">
        <ele>235</ele>
        <time>2018-05-25T08:49:02Z</time>
      </trkpt>
      <trkpt lat="45.98961" lon="4.82365">
        <ele>235</ele>
        <time>2018-05-25T08:49:03Z</time>
      </trkpt>
      <trkpt lat="45.98964" lon="4.82376">
        <ele>235</ele>
        <time>2018-05-25T08:49:05Z</time>
      </trkpt>
      <trkpt lat="45.98965" lon="4.82383">
        <ele>235</ele>
        <time>2018-05-25T08:49:06Z</time>
      </trkpt>
      <trkpt lat="45.98967" lon="4.82389">
        <ele>235</ele>
        <time>2018-05-25T08:49:07Z</time>
      </trkpt>
      <trkpt lat="45.98968" lon="4.82396">
        <ele>235</ele>
        <time>2018-05-25T08:49:08Z</time>
      </trkpt>
      <trkpt lat="45.9897" lon="4.82403">
        <ele>235</ele>
        <time>2018-05-25T08:49:09Z</time>
      </trkpt>
      <trkpt lat="45.98972" lon="4.8241">
        <ele>235</ele>
        <time>2018-05-25T08:49:10Z</time>
      </trkpt>
      <trkpt lat="45.98974" lon="4.82416">
        <ele>235</ele>
        <time>2018-05-25T08:49:11Z</time>
      </trkpt>
      <trkpt lat="45.98976" lon="4.82422">
        <ele>236</ele>
        <time>2018-05-25T08:49:12Z</time>
      </trkpt>
      <trkpt lat="45.98977" lon="4.8243">
        <ele>236</ele>
        <time>2018-05-25T08:49:13Z</time>
      </trkpt>
      <trkpt lat="45.98979" lon="4.82437">
        <ele>236</ele>
        <time>2018-05-25T08:49:14Z</time>
      </trkpt>
      <trkpt lat="45.98981" lon="4.82444">
        <ele>236</ele>
        <time>2018-05-25T08:49:15Z</time>
      </trkpt>
      <trkpt lat="45.98984" lon="4.82452">
        <ele>236</ele>
        <time>2018-05-25T08:49:16Z</time>
      </trkpt>
      <trkpt lat="45.98986" lon="4.82459">
        <ele>236</ele>
        <time>2018-05-25T08:49:17Z</time>
      </trkpt>
      <trkpt lat="45.98988" lon="4.82467">
        <ele>236</ele>
        <time>2018-05-25T08:49:18Z</time>
      </trkpt>
      <trkpt lat="45.98989" lon="4.82475">
        <ele>236</ele>
        <time>2018-05-25T08:49:19Z</time>
      </trkpt>
      <trkpt lat="45.98993" lon="4.82481">
        <ele>236</ele>
        <time>2018-05-25T08:49:20Z</time>
      </trkpt>
      <trkpt lat="45.98997" lon="4.82493">
        <ele>235</ele>
        <time>2018-05-25T08:49:22Z</time>
      </trkpt>
      <trkpt lat="45.98999" lon="4.82498">
        <ele>235</ele>
        <time>2018-05-25T08:49:23Z</time>
      </trkpt>
      <trkpt lat="45.99001" lon="4.82507">
        <ele>235</ele>
        <time>2018-05-25T08:49:24Z</time>
      </trkpt>
      <trkpt lat="45.99005" lon="4.82512">
        <ele>235</ele>
        <time>2018-05-25T08:49:25Z</time>
      </trkpt>
      <trkpt lat="45.9901" lon="4.8252">
        <ele>235</ele>
        <time>2018-05-25T08:49:27Z</time>
      </trkpt>
      <trkpt lat="45.99013" lon="4.82526">
        <ele>235</ele>
        <time>2018-05-25T08:49:28Z</time>
      </trkpt>
      <trkpt lat="45.99018" lon="4.82532">
        <ele>235</ele>
        <time>2018-05-25T08:49:29Z</time>
      </trkpt>
      <trkpt lat="45.99022" lon="4.82537">
        <ele>235</ele>
        <time>2018-05-25T08:49:30Z</time>
      </trkpt>
      <trkpt lat="45.99026" lon="4.82541">
        <ele>235</ele>
        <time>2018-05-25T08:49:31Z</time>
      </trkpt>
      <trkpt lat="45.99031" lon="4.82546">
        <ele>235</ele>
        <time>2018-05-25T08:49:32Z</time>
      </trkpt>
      <trkpt lat="45.99035" lon="4.82549">
        <ele>235</ele>
        <time>2018-05-25T08:49:33Z</time>
      </trkpt>
      <trkpt lat="45.9904" lon="4.82553">
        <ele>235</ele>
        <time>2018-05-25T08:49:34Z</time>
      </trkpt>
      <trkpt lat="45.99045" lon="4.82557">
        <ele>235</ele>
        <time>2018-05-25T08:49:35Z</time>
      </trkpt>
      <trkpt lat="45.99048" lon="4.82559">
        <ele>235</ele>
        <time>2018-05-25T08:49:36Z</time>
      </trkpt>
      <trkpt lat="45.99053" lon="4.82563">
        <ele>235</ele>
        <time>2018-05-25T08:49:37Z</time>
      </trkpt>
      <trkpt lat="45.99058" lon="4.82564">
        <ele>235</ele>
        <time>2018-05-25T08:49:38Z</time>
      </trkpt>
      <trkpt lat="45.99063" lon="4.82565">
        <ele>235</ele>
        <time>2018-05-25T08:49:39Z</time>
      </trkpt>
      <trkpt lat="45.99068" lon="4.82566">
        <ele>235</ele>
        <time>2018-05-25T08:49:40Z</time>
      </trkpt>
      <trkpt lat="45.99073" lon="4.82574">
        <ele>235</ele>
        <time>2018-05-25T08:49:42Z</time>
      </trkpt>
      <trkpt lat="45.99074" lon="4.82576">
        <ele>235</ele>
        <time>2018-05-25T08:49:43Z</time>
      </trkpt>
      <trkpt lat="45.99075" lon="4.82585">
        <ele>235</ele>
        <time>2018-05-25T08:49:46Z</time>
      </trkpt>
      <trkpt lat="45.99074" lon="4.82589">
        <ele>235</ele>
        <time>2018-05-25T08:49:47Z</time>
      </trkpt>
      <trkpt lat="45.9907" lon="4.826">
        <ele>235</ele>
        <time>2018-05-25T08:49:50Z</time>
      </trkpt>
      <trkpt lat="45.99068" lon="4.82604">
        <ele>236</ele>
        <time>2018-05-25T08:49:51Z</time>
      </trkpt>
      <trkpt lat="45.99065" lon="4.82611">
        <ele>236</ele>
        <time>2018-05-25T08:49:53Z</time>
      </trkpt>
      <trkpt lat="45.99063" lon="4.82615">
        <ele>236</ele>
        <time>2018-05-25T08:49:54Z</time>
      </trkpt>
      <trkpt lat="45.99059" lon="4.82623">
        <ele>236</ele>
        <time>2018-05-25T08:49:56Z</time>
      </trkpt>
      <trkpt lat="45.99057" lon="4.82626">
        <ele>236</ele>
        <time>2018-05-25T08:49:57Z</time>
      </trkpt>
      <trkpt lat="45.99053" lon="4.82634">
        <ele>236</ele>
        <time>2018-05-25T08:49:59Z</time>
      </trkpt>
      <trkpt lat="45.99048" lon="4.82644">
        <ele>236</ele>
        <time>2018-05-25T08:50:00Z</time>
      </trkpt>
      <trkpt lat="45.99042" lon="4.82653">
        <ele>236</ele>
        <time>2018-05-25T08:50:04Z</time>
      </trkpt>
      <trkpt lat="45.99041" lon="4.82656">
        <ele>236</ele>
        <time>2018-05-25T08:50:05Z</time>
      </trkpt>
      <trkpt lat="45.99036" lon="4.82666">
        <ele>237</ele>
        <time>2018-05-25T08:50:08Z</time>
      </trkpt>
      <trkpt lat="45.99035" lon="4.82669">
        <ele>238</ele>
        <time>2018-05-25T08:50:09Z</time>
      </trkpt>
      <trkpt lat="45.99031" lon="4.82679">
        <ele>238</ele>
        <time>2018-05-25T08:50:12Z</time>
      </trkpt>
      <trkpt lat="45.99029" lon="4.82683">
        <ele>238</ele>
        <time>2018-05-25T08:50:13Z</time>
      </trkpt>
      <trkpt lat="45.99025" lon="4.82694">
        <ele>238</ele>
        <time>2018-05-25T08:50:16Z</time>
      </trkpt>
      <trkpt lat="45.99023" lon="4.82697">
        <ele>238</ele>
        <time>2018-05-25T08:50:17Z</time>
      </trkpt>
      <trkpt lat="45.99019" lon="4.82707">
        <ele>238</ele>
        <time>2018-05-25T08:50:20Z</time>
      </trkpt>
      <trkpt lat="45.99017" lon="4.82711">
        <ele>239</ele>
        <time>2018-05-25T08:50:21Z</time>
      </trkpt>
      <trkpt lat="45.99013" lon="4.82722">
        <ele>239</ele>
        <time>2018-05-25T08:50:24Z</time>
      </trkpt>
      <trkpt lat="45.99012" lon="4.82726">
        <ele>239</ele>
        <time>2018-05-25T08:50:25Z</time>
      </trkpt>
      <trkpt lat="45.99008" lon="4.82736">
        <ele>240</ele>
        <time>2018-05-25T08:50:28Z</time>
      </trkpt>
      <trkpt lat="45.99007" lon="4.82739">
        <ele>240</ele>
        <time>2018-05-25T08:50:29Z</time>
      </trkpt>
      <trkpt lat="45.99003" lon="4.82748">
        <ele>241</ele>
        <time>2018-05-25T08:50:32Z</time>
      </trkpt>
      <trkpt lat="45.99002" lon="4.82751">
        <ele>241</ele>
        <time>2018-05-25T08:50:33Z</time>
      </trkpt>
      <trkpt lat="45.98999" lon="4.8276">
        <ele>244</ele>
        <time>2018-05-25T08:50:36Z</time>
      </trkpt>
      <trkpt lat="45.98998" lon="4.82763">
        <ele>244</ele>
        <time>2018-05-25T08:50:37Z</time>
      </trkpt>
      <trkpt lat="45.98995" lon="4.82775">
        <ele>246</ele>
        <time>2018-05-25T08:50:41Z</time>
      </trkpt>
      <trkpt lat="45.98994" lon="4.82778">
        <ele>246</ele>
        <time>2018-05-25T08:50:42Z</time>
      </trkpt>
      <trkpt lat="45.98989" lon="4.82788">
        <ele>247</ele>
        <time>2018-05-25T08:50:46Z</time>
      </trkpt>
      <trkpt lat="45.98988" lon="4.8279">
        <ele>247</ele>
        <time>2018-05-25T08:50:47Z</time>
      </trkpt>
      <trkpt lat="45.98982" lon="4.828">
        <ele>248</ele>
        <time>2018-05-25T08:50:51Z</time>
      </trkpt>
      <trkpt lat="45.98981" lon="4.82802">
        <ele>248</ele>
        <time>2018-05-25T08:50:52Z</time>
      </trkpt>
      <trkpt lat="45.98977" lon="4.82811">
        <ele>248</ele>
        <time>2018-05-25T08:50:55Z</time>
      </trkpt>
      <trkpt lat="45.98976" lon="4.82813">
        <ele>248</ele>
        <time>2018-05-25T08:50:56Z</time>
      </trkpt>
      <trkpt lat="45.98971" lon="4.82823">
        <ele>249</ele>
        <time>2018-05-25T08:51:00Z</time>
      </trkpt>
      <trkpt lat="45.9897" lon="4.82825">
        <ele>249</ele>
        <time>2018-05-25T08:51:01Z</time>
      </trkpt>
      <trkpt lat="45.98965" lon="4.82833">
        <ele>252</ele>
        <time>2018-05-25T08:51:05Z</time>
      </trkpt>
      <trkpt lat="45.98964" lon="4.82836">
        <ele>252</ele>
        <time>2018-05-25T08:51:06Z</time>
      </trkpt>
      <trkpt lat="45.98961" lon="4.82846">
        <ele>252</ele>
        <time>2018-05-25T08:51:10Z</time>
      </trkpt>
      <trkpt lat="45.9896" lon="4.82849">
        <ele>252</ele>
        <time>2018-05-25T08:51:11Z</time>
      </trkpt>
      <trkpt lat="45.98958" lon="4.82861">
        <ele>252</ele>
        <time>2018-05-25T08:51:15Z</time>
      </trkpt>
      <trkpt lat="45.98957" lon="4.82864">
        <ele>252</ele>
        <time>2018-05-25T08:51:16Z</time>
      </trkpt>
      <trkpt lat="45.98952" lon="4.82872">
        <ele>253</ele>
        <time>2018-05-25T08:51:20Z</time>
      </trkpt>
      <trkpt lat="45.98951" lon="4.82874">
        <ele>253</ele>
        <time>2018-05-25T08:51:21Z</time>
      </trkpt>
      <trkpt lat="45.98946" lon="4.82884">
        <ele>253</ele>
        <time>2018-05-25T08:51:26Z</time>
      </trkpt>
      <trkpt lat="45.98945" lon="4.82886">
        <ele>253</ele>
        <time>2018-05-25T08:51:27Z</time>
      </trkpt>
      <trkpt lat="45.98939" lon="4.82896">
        <ele>253</ele>
        <time>2018-05-25T08:51:32Z</time>
      </trkpt>
      <trkpt lat="45.98938" lon="4.82898">
        <ele>253</ele>
        <time>2018-05-25T08:51:33Z</time>
      </trkpt>
      <trkpt lat="45.98934" lon="4.82908">
        <ele>254</ele>
        <time>2018-05-25T08:51:37Z</time>
      </trkpt>
      <trkpt lat="45.98933" lon="4.8291">
        <ele>254</ele>
        <time>2018-05-25T08:51:38Z</time>
      </trkpt>
      <trkpt lat="45.9893" lon="4.8292">
        <ele>255</ele>
        <time>2018-05-25T08:51:42Z</time>
      </trkpt>
      <trkpt lat="45.9893" lon="4.82922">
        <ele>255</ele>
        <time>2018-05-25T08:51:43Z</time>
      </trkpt>
      <trkpt lat="45.98925" lon="4.82932">
        <ele>255</ele>
        <time>2018-05-25T08:51:47Z</time>
      </trkpt>
      <trkpt lat="45.98924" lon="4.82934">
        <ele>255</ele>
        <time>2018-05-25T08:51:48Z</time>
      </trkpt>
      <trkpt lat="45.98919" lon="4.82943">
        <ele>255</ele>
        <time>2018-05-25T08:51:52Z</time>
      </trkpt>
      <trkpt lat="45.98918" lon="4.82945">
        <ele>255</ele>
        <time>2018-05-25T08:51:53Z</time>
      </trkpt>
      <trkpt lat="45.98912" lon="4.82953">
        <ele>258</ele>
        <time>2018-05-25T08:51:57Z</time>
      </trkpt>
      <trkpt lat="45.98911" lon="4.82955">
        <ele>258</ele>
        <time>2018-05-25T08:51:58Z</time>
      </trkpt>
      <trkpt lat="45.98906" lon="4.82965">
        <ele>259</ele>
        <time>2018-05-25T08:52:03Z</time>
      </trkpt>
      <trkpt lat="45.98904" lon="4.82967">
        <ele>259</ele>
        <time>2018-05-25T08:52:04Z</time>
      </trkpt>
      <trkpt lat="45.98898" lon="4.82975">
        <ele>259</ele>
        <time>2018-05-25T08:52:08Z</time>
      </trkpt>
      <trkpt lat="45.98897" lon="4.82977">
        <ele>259</ele>
        <time>2018-05-25T08:52:09Z</time>
      </trkpt>
      <trkpt lat="45.98891" lon="4.82983">
        <ele>259</ele>
        <time>2018-05-25T08:52:13Z</time>
      </trkpt>
      <trkpt lat="45.98889" lon="4.82985">
        <ele>259</ele>
        <time>2018-05-25T08:52:14Z</time>
      </trkpt>
      <trkpt lat="45.98883" lon="4.8299">
        <ele>259</ele>
        <time>2018-05-25T08:52:18Z</time>
      </trkpt>
      <trkpt lat="45.98881" lon="4.82992">
        <ele>260</ele>
        <time>2018-05-25T08:52:19Z</time>
      </trkpt>
      <trkpt lat="45.98875" lon="4.82997">
        <ele>260</ele>
        <time>2018-05-25T08:52:23Z</time>
      </trkpt>
      <trkpt lat="45.98873" lon="4.82999">
        <ele>260</ele>
        <time>2018-05-25T08:52:24Z</time>
      </trkpt>
      <trkpt lat="45.98865" lon="4.83003">
        <ele>260</ele>
        <time>2018-05-25T08:52:29Z</time>
      </trkpt>
      <trkpt lat="45.98864" lon="4.83004">
        <ele>260</ele>
        <time>2018-05-25T08:52:30Z</time>
      </trkpt>
      <trkpt lat="45.98856" lon="4.83008">
        <ele>261</ele>
        <time>2018-05-25T08:52:34Z</time>
      </trkpt>
      <trkpt lat="45.98854" lon="4.83009">
        <ele>261</ele>
        <time>2018-05-25T08:52:35Z</time>
      </trkpt>
      <trkpt lat="45.98847" lon="4.83014">
        <ele>261</ele>
        <time>2018-05-25T08:52:39Z</time>
      </trkpt>
      <trkpt lat="45.98845" lon="4.83015">
        <ele>261</ele>
        <time>2018-05-25T08:52:40Z</time>
      </trkpt>
      <trkpt lat="45.98839" lon="4.83019">
        <ele>261</ele>
        <time>2018-05-25T08:52:43Z</time>
      </trkpt>
      <trkpt lat="45.98837" lon="4.8302">
        <ele>261</ele>
        <time>2018-05-25T08:52:44Z</time>
      </trkpt>
      <trkpt lat="45.9883" lon="4.83025">
        <ele>264</ele>
        <time>2018-05-25T08:52:47Z</time>
      </trkpt>
      <trkpt lat="45.98828" lon="4.83026">
        <ele>264</ele>
        <time>2018-05-25T08:52:48Z</time>
      </trkpt>
      <trkpt lat="45.98821" lon="4.83032">
        <ele>264</ele>
        <time>2018-05-25T08:52:52Z</time>
      </trkpt>
      <trkpt lat="45.98819" lon="4.83034">
        <ele>264</ele>
        <time>2018-05-25T08:52:53Z</time>
      </trkpt>
      <trkpt lat="45.98812" lon="4.8304">
        <ele>264</ele>
        <time>2018-05-25T08:52:57Z</time>
      </trkpt>
      <trkpt lat="45.9881" lon="4.83041">
        <ele>264</ele>
        <time>2018-05-25T08:52:58Z</time>
      </trkpt>
      <trkpt lat="45.98803" lon="4.83047">
        <ele>264</ele>
        <time>2018-05-25T08:53:02Z</time>
      </trkpt>
      <trkpt lat="45.98801" lon="4.83049">
        <ele>264</ele>
        <time>2018-05-25T08:53:03Z</time>
      </trkpt>
      <trkpt lat="45.98796" lon="4.83055">
        <ele>264</ele>
        <time>2018-05-25T08:53:06Z</time>
      </trkpt>
      <trkpt lat="45.98794" lon="4.83057">
        <ele>265</ele>
        <time>2018-05-25T08:53:07Z</time>
      </trkpt>
      <trkpt lat="45.98788" lon="4.83063">
        <ele>265</ele>
        <time>2018-05-25T08:53:10Z</time>
      </trkpt>
      <trkpt lat="45.98785" lon="4.83065">
        <ele>265</ele>
        <time>2018-05-25T08:53:11Z</time>
      </trkpt>
      <trkpt lat="45.98779" lon="4.8307">
        <ele>265</ele>
        <time>2018-05-25T08:53:14Z</time>
      </trkpt>
      <trkpt lat="45.98776" lon="4.83072">
        <ele>265</ele>
        <time>2018-05-25T08:53:15Z</time>
      </trkpt>
      <trkpt lat="45.9877" lon="4.83077">
        <ele>266</ele>
        <time>2018-05-25T08:53:18Z</time>
      </trkpt>
      <trkpt lat="45.98767" lon="4.83079">
        <ele>266</ele>
        <time>2018-05-25T08:53:19Z</time>
      </trkpt>
      <trkpt lat="45.9876" lon="4.83084">
        <ele>266</ele>
        <time>2018-05-25T08:53:22Z</time>
      </trkpt>
      <trkpt lat="45.98758" lon="4.83086">
        <ele>266</ele>
        <time>2018-05-25T08:53:23Z</time>
      </trkpt>
      <trkpt lat="45.98751" lon="4.83093">
        <ele>266</ele>
        <time>2018-05-25T08:53:26Z</time>
      </trkpt>
      <trkpt lat="45.98749" lon="4.83096">
        <ele>267</ele>
        <time>2018-05-25T08:53:27Z</time>
      </trkpt>
      <trkpt lat="45.98742" lon="4.83104">
        <ele>267</ele>
        <time>2018-05-25T08:53:30Z</time>
      </trkpt>
      <trkpt lat="45.9874" lon="4.83107">
        <ele>267</ele>
        <time>2018-05-25T08:53:31Z</time>
      </trkpt>
      <trkpt lat="45.98733" lon="4.83114">
        <ele>267</ele>
        <time>2018-05-25T08:53:34Z</time>
      </trkpt>
      <trkpt lat="45.9873" lon="4.83116">
        <ele>267</ele>
        <time>2018-05-25T08:53:35Z</time>
      </trkpt>
      <trkpt lat="45.98725" lon="4.8312">
        <ele>266</ele>
        <time>2018-05-25T08:53:37Z</time>
      </trkpt>
      <trkpt lat="45.98722" lon="4.83122">
        <ele>266</ele>
        <time>2018-05-25T08:53:38Z</time>
      </trkpt>
      <trkpt lat="45.98716" lon="4.83127">
        <ele>266</ele>
        <time>2018-05-25T08:53:40Z</time>
      </trkpt>
      <trkpt lat="45.98713" lon="4.83129">
        <ele>266</ele>
        <time>2018-05-25T08:53:41Z</time>
      </trkpt>
      <trkpt lat="45.98707" lon="4.83134">
        <ele>266</ele>
        <time>2018-05-25T08:53:43Z</time>
      </trkpt>
      <trkpt lat="45.98699" lon="4.83142">
        <ele>266</ele>
        <time>2018-05-25T08:53:44Z</time>
      </trkpt>
      <trkpt lat="45.98693" lon="4.83147">
        <ele>266</ele>
        <time>2018-05-25T08:53:47Z</time>
      </trkpt>
      <trkpt lat="45.98691" lon="4.83148">
        <ele>266</ele>
        <time>2018-05-25T08:53:48Z</time>
      </trkpt>
      <trkpt lat="45.98683" lon="4.83153">
        <ele>266</ele>
        <time>2018-05-25T08:53:51Z</time>
      </trkpt>
      <trkpt lat="45.98674" lon="4.83159">
        <ele>266</ele>
        <time>2018-05-25T08:53:52Z</time>
      </trkpt>
      <trkpt lat="45.98667" lon="4.83163">
        <ele>266</ele>
        <time>2018-05-25T08:53:54Z</time>
      </trkpt>
      <trkpt lat="45.98664" lon="4.83166">
        <ele>266</ele>
        <time>2018-05-25T08:53:55Z</time>
      </trkpt>
      <trkpt lat="45.9866" lon="4.83168">
        <ele>266</ele>
        <time>2018-05-25T08:53:56Z</time>
      </trkpt>
      <trkpt lat="45.98655" lon="4.83171">
        <ele>267</ele>
        <time>2018-05-25T08:53:57Z</time>
      </trkpt>
      <trkpt lat="45.98651" lon="4.83174">
        <ele>267</ele>
        <time>2018-05-25T08:53:58Z</time>
      </trkpt>
      <trkpt lat="45.98647" lon="4.83178">
        <ele>267</ele>
        <time>2018-05-25T08:53:59Z</time>
      </trkpt>
      <trkpt lat="45.9864" lon="4.83184">
        <ele>267</ele>
        <time>2018-05-25T08:54:01Z</time>
      </trkpt>
      <trkpt lat="45.98637" lon="4.83187">
        <ele>267</ele>
        <time>2018-05-25T08:54:02Z</time>
      </trkpt>
      <trkpt lat="45.9863" lon="4.83194">
        <ele>267</ele>
        <time>2018-05-25T08:54:04Z</time>
      </trkpt>
      <trkpt lat="45.98627" lon="4.83197">
        <ele>267</ele>
        <time>2018-05-25T08:54:05Z</time>
      </trkpt>
      <trkpt lat="45.98621" lon="4.83205">
        <ele>267</ele>
        <time>2018-05-25T08:54:07Z</time>
      </trkpt>
      <trkpt lat="45.98618" lon="4.83208">
        <ele>267</ele>
        <time>2018-05-25T08:54:08Z</time>
      </trkpt>
      <trkpt lat="45.98612" lon="4.83216">
        <ele>267</ele>
        <time>2018-05-25T08:54:10Z</time>
      </trkpt>
      <trkpt lat="45.98609" lon="4.8322">
        <ele>267</ele>
        <time>2018-05-25T08:54:11Z</time>
      </trkpt>
      <trkpt lat="45.98604" lon="4.83228">
        <ele>267</ele>
        <time>2018-05-25T08:54:13Z</time>
      </trkpt>
      <trkpt lat="45.98601" lon="4.83232">
        <ele>268</ele>
        <time>2018-05-25T08:54:14Z</time>
      </trkpt>
      <trkpt lat="45.98595" lon="4.83239">
        <ele>268</ele>
        <time>2018-05-25T08:54:16Z</time>
      </trkpt>
      <trkpt lat="45.98592" lon="4.83243">
        <ele>268</ele>
        <time>2018-05-25T08:54:17Z</time>
      </trkpt>
      <trkpt lat="45.98586" lon="4.83251">
        <ele>268</ele>
        <time>2018-05-25T08:54:19Z</time>
      </trkpt>
      <trkpt lat="45.98583" lon="4.83255">
        <ele>268</ele>
        <time>2018-05-25T08:54:20Z</time>
      </trkpt>
      <trkpt lat="45.98577" lon="4.83262">
        <ele>269</ele>
        <time>2018-05-25T08:54:22Z</time>
      </trkpt>
      <trkpt lat="45.98574" lon="4.83266">
        <ele>269</ele>
        <time>2018-05-25T08:54:23Z</time>
      </trkpt>
      <trkpt lat="45.98568" lon="4.83274">
        <ele>269</ele>
        <time>2018-05-25T08:54:25Z</time>
      </trkpt>
      <trkpt lat="45.98565" lon="4.83278">
        <ele>269</ele>
        <time>2018-05-25T08:54:26Z</time>
      </trkpt>
      <trkpt lat="45.9856" lon="4.83287">
        <ele>269</ele>
        <time>2018-05-25T08:54:29Z</time>
      </trkpt>
      <trkpt lat="45.98555" lon="4.83294">
        <ele>269</ele>
        <time>2018-05-25T08:54:30Z</time>
      </trkpt>
      <trkpt lat="45.9855" lon="4.833">
        <ele>269</ele>
        <time>2018-05-25T08:54:33Z</time>
      </trkpt>
      <trkpt lat="45.98548" lon="4.83303">
        <ele>269</ele>
        <time>2018-05-25T08:54:34Z</time>
      </trkpt>
      <trkpt lat="45.98542" lon="4.83311">
        <ele>269</ele>
        <time>2018-05-25T08:54:37Z</time>
      </trkpt>
      <trkpt lat="45.98539" lon="4.83314">
        <ele>269</ele>
        <time>2018-05-25T08:54:38Z</time>
      </trkpt>
      <trkpt lat="45.98534" lon="4.8332">
        <ele>269</ele>
        <time>2018-05-25T08:54:40Z</time>
      </trkpt>
      <trkpt lat="45.98531" lon="4.83323">
        <ele>269</ele>
        <time>2018-05-25T08:54:41Z</time>
      </trkpt>
      <trkpt lat="45.98526" lon="4.8333">
        <ele>270</ele>
        <time>2018-05-25T08:54:43Z</time>
      </trkpt>
      <trkpt lat="45.98523" lon="4.83334">
        <ele>270</ele>
        <time>2018-05-25T08:54:44Z</time>
      </trkpt>
      <trkpt lat="45.98519" lon="4.83341">
        <ele>270</ele>
        <time>2018-05-25T08:54:46Z</time>
      </trkpt>
      <trkpt lat="45.98513" lon="4.83351">
        <ele>270</ele>
        <time>2018-05-25T08:54:47Z</time>
      </trkpt>
      <trkpt lat="45.98507" lon="4.83359">
        <ele>269</ele>
        <time>2018-05-25T08:54:49Z</time>
      </trkpt>
      <trkpt lat="45.98504" lon="4.83363">
        <ele>269</ele>
        <time>2018-05-25T08:54:50Z</time>
      </trkpt>
      <trkpt lat="45.98496" lon="4.8337">
        <ele>270</ele>
        <time>2018-05-25T08:54:52Z</time>
      </trkpt>
      <trkpt lat="45.98493" lon="4.83374">
        <ele>270</ele>
        <time>2018-05-25T08:54:53Z</time>
      </trkpt>
      <trkpt lat="45.98487" lon="4.83382">
        <ele>269</ele>
        <time>2018-05-25T08:54:55Z</time>
      </trkpt>
      <trkpt lat="45.98484" lon="4.83387">
        <ele>269</ele>
        <time>2018-05-25T08:54:56Z</time>
      </trkpt>
      <trkpt lat="45.98478" lon="4.83395">
        <ele>269</ele>
        <time>2018-05-25T08:54:58Z</time>
      </trkpt>
      <trkpt lat="45.98475" lon="4.83399">
        <ele>269</ele>
        <time>2018-05-25T08:54:59Z</time>
      </trkpt>
      <trkpt lat="45.98469" lon="4.83407">
        <ele>269</ele>
        <time>2018-05-25T08:55:01Z</time>
      </trkpt>
      <trkpt lat="45.98466" lon="4.83411">
        <ele>269</ele>
        <time>2018-05-25T08:55:02Z</time>
      </trkpt>
      <trkpt lat="45.9846" lon="4.83419">
        <ele>269</ele>
        <time>2018-05-25T08:55:04Z</time>
      </trkpt>
      <trkpt lat="45.98456" lon="4.83424">
        <ele>269</ele>
        <time>2018-05-25T08:55:05Z</time>
      </trkpt>
      <trkpt lat="45.98453" lon="4.83429">
        <ele>268</ele>
        <time>2018-05-25T08:55:06Z</time>
      </trkpt>
      <trkpt lat="45.98449" lon="4.83434">
        <ele>268</ele>
        <time>2018-05-25T08:55:07Z</time>
      </trkpt>
      <trkpt lat="45.98443" lon="4.83443">
        <ele>268</ele>
        <time>2018-05-25T08:55:09Z</time>
      </trkpt>
      <trkpt lat="45.98441" lon="4.83448">
        <ele>268</ele>
        <time>2018-05-25T08:55:10Z</time>
      </trkpt>
      <trkpt lat="45.98437" lon="4.83453">
        <ele>268</ele>
        <time>2018-05-25T08:55:11Z</time>
      </trkpt>
      <trkpt lat="45.98434" lon="4.83457">
        <ele>268</ele>
        <time>2018-05-25T08:55:12Z</time>
      </trkpt>
      <trkpt lat="45.98428" lon="4.83466">
        <ele>268</ele>
        <time>2018-05-25T08:55:14Z</time>
      </trkpt>
      <trkpt lat="45.98424" lon="4.83471">
        <ele>268</ele>
        <time>2018-05-25T08:55:15Z</time>
      </trkpt>
      <trkpt lat="45.98418" lon="4.83479">
        <ele>268</ele>
        <time>2018-05-25T08:55:17Z</time>
      </trkpt>
      <trkpt lat="45.98415" lon="4.83483">
        <ele>269</ele>
        <time>2018-05-25T08:55:18Z</time>
      </trkpt>
      <trkpt lat="45.98412" lon="4.83487">
        <ele>269</ele>
        <time>2018-05-25T08:55:19Z</time>
      </trkpt>
      <trkpt lat="45.98408" lon="4.83491">
        <ele>269</ele>
        <time>2018-05-25T08:55:20Z</time>
      </trkpt>
      <trkpt lat="45.98404" lon="4.83495">
        <ele>269</ele>
        <time>2018-05-25T08:55:21Z</time>
      </trkpt>
      <trkpt lat="45.98401" lon="4.83502">
        <ele>268</ele>
        <time>2018-05-25T08:55:22Z</time>
      </trkpt>
      <trkpt lat="45.98397" lon="4.83507">
        <ele>269</ele>
        <time>2018-05-25T08:55:23Z</time>
      </trkpt>
      <trkpt lat="45.98394" lon="4.83513">
        <ele>269</ele>
        <time>2018-05-25T08:55:24Z</time>
      </trkpt>
      <trkpt lat="45.9839" lon="4.83517">
        <ele>269</ele>
        <time>2018-05-25T08:55:25Z</time>
      </trkpt>
      <trkpt lat="45.98386" lon="4.83523">
        <ele>269</ele>
        <time>2018-05-25T08:55:26Z</time>
      </trkpt>
      <trkpt lat="45.98382" lon="4.83527">
        <ele>269</ele>
        <time>2018-05-25T08:55:27Z</time>
      </trkpt>
      <trkpt lat="45.9838" lon="4.83533">
        <ele>269</ele>
        <time>2018-05-25T08:55:28Z</time>
      </trkpt>
      <trkpt lat="45.98373" lon="4.83541">
        <ele>269</ele>
        <time>2018-05-25T08:55:30Z</time>
      </trkpt>
      <trkpt lat="45.9837" lon="4.83545">
        <ele>269</ele>
        <time>2018-05-25T08:55:31Z</time>
      </trkpt>
      <trkpt lat="45.98365" lon="4.83554">
        <ele>269</ele>
        <time>2018-05-25T08:55:33Z</time>
      </trkpt>
      <trkpt lat="45.98363" lon="4.83558">
        <ele>269</ele>
        <time>2018-05-25T08:55:34Z</time>
      </trkpt>
      <trkpt lat="45.98358" lon="4.83565">
        <ele>269</ele>
        <time>2018-05-25T08:55:36Z</time>
      </trkpt>
      <trkpt lat="45.98355" lon="4.83568">
        <ele>269</ele>
        <time>2018-05-25T08:55:37Z</time>
      </trkpt>
      <trkpt lat="45.98348" lon="4.83575">
        <ele>270</ele>
        <time>2018-05-25T08:55:39Z</time>
      </trkpt>
      <trkpt lat="45.98345" lon="4.8358">
        <ele>270</ele>
        <time>2018-05-25T08:55:40Z</time>
      </trkpt>
      <trkpt lat="45.98339" lon="4.83588">
        <ele>270</ele>
        <time>2018-05-25T08:55:42Z</time>
      </trkpt>
      <trkpt lat="45.98337" lon="4.83592">
        <ele>270</ele>
        <time>2018-05-25T08:55:43Z</time>
      </trkpt>
      <trkpt lat="45.98331" lon="4.83599">
        <ele>271</ele>
        <time>2018-05-25T08:55:45Z</time>
      </trkpt>
      <trkpt lat="45.98328" lon="4.83603">
        <ele>271</ele>
        <time>2018-05-25T08:55:46Z</time>
      </trkpt>
      <trkpt lat="45.98324" lon="4.83608">
        <ele>271</ele>
        <time>2018-05-25T08:55:48Z</time>
      </trkpt>
      <trkpt lat="45.98321" lon="4.83614">
        <ele>271</ele>
        <time>2018-05-25T08:55:49Z</time>
      </trkpt>
      <trkpt lat="45.98316" lon="4.83622">
        <ele>271</ele>
        <time>2018-05-25T08:55:51Z</time>
      </trkpt>
      <trkpt lat="45.98313" lon="4.83626">
        <ele>271</ele>
        <time>2018-05-25T08:55:52Z</time>
      </trkpt>
      <trkpt lat="45.98309" lon="4.83635">
        <ele>271</ele>
        <time>2018-05-25T08:55:54Z</time>
      </trkpt>
      <trkpt lat="45.98307" lon="4.83639">
        <ele>271</ele>
        <time>2018-05-25T08:55:55Z</time>
      </trkpt>
      <trkpt lat="45.98302" lon="4.83648">
        <ele>271</ele>
        <time>2018-05-25T08:55:57Z</time>
      </trkpt>
      <trkpt lat="45.983" lon="4.83653">
        <ele>271</ele>
        <time>2018-05-25T08:55:58Z</time>
      </trkpt>
      <trkpt lat="45.98296" lon="4.83663">
        <ele>271</ele>
        <time>2018-05-25T08:56:00Z</time>
      </trkpt>
      <trkpt lat="45.98294" lon="4.83668">
        <ele>272</ele>
        <time>2018-05-25T08:56:01Z</time>
      </trkpt>
      <trkpt lat="45.9829" lon="4.83678">
        <ele>272</ele>
        <time>2018-05-25T08:56:03Z</time>
      </trkpt>
      <trkpt lat="45.98287" lon="4.83683">
        <ele>272</ele>
        <time>2018-05-25T08:56:04Z</time>
      </trkpt>
      <trkpt lat="45.98283" lon="4.83693">
        <ele>272</ele>
        <time>2018-05-25T08:56:06Z</time>
      </trkpt>
      <trkpt lat="45.98281" lon="4.83699">
        <ele>272</ele>
        <time>2018-05-25T08:56:07Z</time>
      </trkpt>
      <trkpt lat="45.98277" lon="4.83708">
        <ele>272</ele>
        <time>2018-05-25T08:56:09Z</time>
      </trkpt>
      <trkpt lat="45.98276" lon="4.83713">
        <ele>272</ele>
        <time>2018-05-25T08:56:10Z</time>
      </trkpt>
      <trkpt lat="45.98272" lon="4.83723">
        <ele>272</ele>
        <time>2018-05-25T08:56:12Z</time>
      </trkpt>
      <trkpt lat="45.9827" lon="4.83728">
        <ele>272</ele>
        <time>2018-05-25T08:56:13Z</time>
      </trkpt>
      <trkpt lat="45.98267" lon="4.83739">
        <ele>272</ele>
        <time>2018-05-25T08:56:15Z</time>
      </trkpt>
      <trkpt lat="45.98265" lon="4.83744">
        <ele>272</ele>
        <time>2018-05-25T08:56:16Z</time>
      </trkpt>
      <trkpt lat="45.98262" lon="4.83756">
        <ele>272</ele>
        <time>2018-05-25T08:56:18Z</time>
      </trkpt>
      <trkpt lat="45.9826" lon="4.83761">
        <ele>272</ele>
        <time>2018-05-25T08:56:19Z</time>
      </trkpt>
      <trkpt lat="45.98257" lon="4.83772">
        <ele>272</ele>
        <time>2018-05-25T08:56:21Z</time>
      </trkpt>
      <trkpt lat="45.98255" lon="4.83778">
        <ele>272</ele>
        <time>2018-05-25T08:56:22Z</time>
      </trkpt>
      <trkpt lat="45.98252" lon="4.83789">
        <ele>272</ele>
        <time>2018-05-25T08:56:24Z</time>
      </trkpt>
      <trkpt lat="45.9825" lon="4.83794">
        <ele>272</ele>
        <time>2018-05-25T08:56:25Z</time>
      </trkpt>
      <trkpt lat="45.98247" lon="4.83803">
        <ele>272</ele>
        <time>2018-05-25T08:56:27Z</time>
      </trkpt>
      <trkpt lat="45.98245" lon="4.83808">
        <ele>272</ele>
        <time>2018-05-25T08:56:28Z</time>
      </trkpt>
      <trkpt lat="45.98241" lon="4.83818">
        <ele>272</ele>
        <time>2018-05-25T08:56:30Z</time>
      </trkpt>
      <trkpt lat="45.98238" lon="4.83825">
        <ele>272</ele>
        <time>2018-05-25T08:56:31Z</time>
      </trkpt>
      <trkpt lat="45.98236" lon="4.8383">
        <ele>272</ele>
        <time>2018-05-25T08:56:32Z</time>
      </trkpt>
      <trkpt lat="45.98233" lon="4.83836">
        <ele>272</ele>
        <time>2018-05-25T08:56:33Z</time>
      </trkpt>
      <trkpt lat="45.98229" lon="4.83847">
        <ele>272</ele>
        <time>2018-05-25T08:56:35Z</time>
      </trkpt>
      <trkpt lat="45.98228" lon="4.83853">
        <ele>272</ele>
        <time>2018-05-25T08:56:36Z</time>
      </trkpt>
      <trkpt lat="45.98223" lon="4.83865">
        <ele>272</ele>
        <time>2018-05-25T08:56:38Z</time>
      </trkpt>
      <trkpt lat="45.98221" lon="4.83871">
        <ele>272</ele>
        <time>2018-05-25T08:56:39Z</time>
      </trkpt>
      <trkpt lat="45.98217" lon="4.83882">
        <ele>272</ele>
        <time>2018-05-25T08:56:41Z</time>
      </trkpt>
      <trkpt lat="45.98216" lon="4.83889">
        <ele>273</ele>
        <time>2018-05-25T08:56:42Z</time>
      </trkpt>
      <trkpt lat="45.98214" lon="4.83895">
        <ele>273</ele>
        <time>2018-05-25T08:56:43Z</time>
      </trkpt>
      <trkpt lat="45.98212" lon="4.83901">
        <ele>273</ele>
        <time>2018-05-25T08:56:44Z</time>
      </trkpt>
      <trkpt lat="45.98211" lon="4.83907">
        <ele>273</ele>
        <time>2018-05-25T08:56:45Z</time>
      </trkpt>
      <trkpt lat="45.9821" lon="4.83913">
        <ele>273</ele>
        <time>2018-05-25T08:56:46Z</time>
      </trkpt>
      <trkpt lat="45.98207" lon="4.83923">
        <ele>273</ele>
        <time>2018-05-25T08:56:48Z</time>
      </trkpt>
      <trkpt lat="45.98204" lon="4.83927">
        <ele>273</ele>
        <time>2018-05-25T08:56:49Z</time>
      </trkpt>
      <trkpt lat="45.982" lon="4.83937">
        <ele>273</ele>
        <time>2018-05-25T08:56:51Z</time>
      </trkpt>
      <trkpt lat="45.98198" lon="4.83943">
        <ele>273</ele>
        <time>2018-05-25T08:56:52Z</time>
      </trkpt>
      <trkpt lat="45.98194" lon="4.83953">
        <ele>273</ele>
        <time>2018-05-25T08:56:54Z</time>
      </trkpt>
      <trkpt lat="45.98193" lon="4.83958">
        <ele>273</ele>
        <time>2018-05-25T08:56:55Z</time>
      </trkpt>
      <trkpt lat="45.9819" lon="4.83962">
        <ele>273</ele>
        <time>2018-05-25T08:56:56Z</time>
      </trkpt>
      <trkpt lat="45.9819" lon="4.8397">
        <ele>273</ele>
        <time>2018-05-25T08:56:57Z</time>
      </trkpt>
      <trkpt lat="45.98185" lon="4.83981">
        <ele>273</ele>
        <time>2018-05-25T08:56:59Z</time>
      </trkpt>
      <trkpt lat="45.98182" lon="4.83986">
        <ele>273</ele>
        <time>2018-05-25T08:57:00Z</time>
      </trkpt>
      <trkpt lat="45.9818" lon="4.83993">
        <ele>273</ele>
        <time>2018-05-25T08:57:01Z</time>
      </trkpt>
      <trkpt lat="45.98177" lon="4.83998">
        <ele>273</ele>
        <time>2018-05-25T08:57:02Z</time>
      </trkpt>
      <trkpt lat="45.98174" lon="4.84003">
        <ele>273</ele>
        <time>2018-05-25T08:57:03Z</time>
      </trkpt>
      <trkpt lat="45.98171" lon="4.84008">
        <ele>273</ele>
        <time>2018-05-25T08:57:04Z</time>
      </trkpt>
      <trkpt lat="45.98165" lon="4.84017">
        <ele>273</ele>
        <time>2018-05-25T08:57:06Z</time>
      </trkpt>
      <trkpt lat="45.98163" lon="4.84022">
        <ele>273</ele>
        <time>2018-05-25T08:57:07Z</time>
      </trkpt>
      <trkpt lat="45.98157" lon="4.84031">
        <ele>273</ele>
        <time>2018-05-25T08:57:09Z</time>
      </trkpt>
      <trkpt lat="45.98155" lon="4.84036">
        <ele>273</ele>
        <time>2018-05-25T08:57:10Z</time>
      </trkpt>
      <trkpt lat="45.98149" lon="4.84047">
        <ele>273</ele>
        <time>2018-05-25T08:57:12Z</time>
      </trkpt>
      <trkpt lat="45.98144" lon="4.84055">
        <ele>273</ele>
        <time>2018-05-25T08:57:14Z</time>
      </trkpt>
      <trkpt lat="45.98138" lon="4.84063">
        <ele>273</ele>
        <time>2018-05-25T08:57:16Z</time>
      </trkpt>
      <trkpt lat="45.98135" lon="4.84067">
        <ele>273</ele>
        <time>2018-05-25T08:57:17Z</time>
      </trkpt>
      <trkpt lat="45.98129" lon="4.84074">
        <ele>273</ele>
        <time>2018-05-25T08:57:19Z</time>
      </trkpt>
      <trkpt lat="45.98126" lon="4.84078">
        <ele>273</ele>
        <time>2018-05-25T08:57:20Z</time>
      </trkpt>
      <trkpt lat="45.98119" lon="4.84085">
        <ele>273</ele>
        <time>2018-05-25T08:57:22Z</time>
      </trkpt>
      <trkpt lat="45.98116" lon="4.84089">
        <ele>273</ele>
        <time>2018-05-25T08:57:23Z</time>
      </trkpt>
      <trkpt lat="45.98111" lon="4.84094">
        <ele>273</ele>
        <time>2018-05-25T08:57:25Z</time>
      </trkpt>
      <trkpt lat="45.98107" lon="4.84099">
        <ele>273</ele>
        <time>2018-05-25T08:57:26Z</time>
      </trkpt>
      <trkpt lat="45.981" lon="4.84105">
        <ele>273</ele>
        <time>2018-05-25T08:57:28Z</time>
      </trkpt>
      <trkpt lat="45.98097" lon="4.84109">
        <ele>273</ele>
        <time>2018-05-25T08:57:29Z</time>
      </trkpt>
      <trkpt lat="45.98092" lon="4.84112">
        <ele>273</ele>
        <time>2018-05-25T08:57:30Z</time>
      </trkpt>
      <trkpt lat="45.98089" lon="4.84116">
        <ele>273</ele>
        <time>2018-05-25T08:57:31Z</time>
      </trkpt>
      <trkpt lat="45.98081" lon="4.84122">
        <ele>273</ele>
        <time>2018-05-25T08:57:33Z</time>
      </trkpt>
      <trkpt lat="45.98078" lon="4.84125">
        <ele>273</ele>
        <time>2018-05-25T08:57:34Z</time>
      </trkpt>
      <trkpt lat="45.98071" lon="4.84131">
        <ele>273</ele>
        <time>2018-05-25T08:57:36Z</time>
      </trkpt>
      <trkpt lat="45.98068" lon="4.84134">
        <ele>273</ele>
        <time>2018-05-25T08:57:37Z</time>
      </trkpt>
      <trkpt lat="45.98061" lon="4.84141">
        <ele>273</ele>
        <time>2018-05-25T08:57:39Z</time>
      </trkpt>
      <trkpt lat="45.98057" lon="4.84144">
        <ele>273</ele>
        <time>2018-05-25T08:57:40Z</time>
      </trkpt>
      <trkpt lat="45.9805" lon="4.84151">
        <ele>273</ele>
        <time>2018-05-25T08:57:42Z</time>
      </trkpt>
      <trkpt lat="45.98046" lon="4.84154">
        <ele>273</ele>
        <time>2018-05-25T08:57:43Z</time>
      </trkpt>
      <trkpt lat="45.98039" lon="4.84161">
        <ele>273</ele>
        <time>2018-05-25T08:57:45Z</time>
      </trkpt>
      <trkpt lat="45.98036" lon="4.84164">
        <ele>273</ele>
        <time>2018-05-25T08:57:46Z</time>
      </trkpt>
      <trkpt lat="45.98029" lon="4.8417">
        <ele>274</ele>
        <time>2018-05-25T08:57:48Z</time>
      </trkpt>
      <trkpt lat="45.98026" lon="4.84173">
        <ele>274</ele>
        <time>2018-05-25T08:57:49Z</time>
      </trkpt>
      <trkpt lat="45.98019" lon="4.8418">
        <ele>274</ele>
        <time>2018-05-25T08:57:51Z</time>
      </trkpt>
      <trkpt lat="45.98016" lon="4.84183">
        <ele>274</ele>
        <time>2018-05-25T08:57:52Z</time>
      </trkpt>
      <trkpt lat="45.98009" lon="4.84191">
        <ele>274</ele>
        <time>2018-05-25T08:57:54Z</time>
      </trkpt>
      <trkpt lat="45.98005" lon="4.84194">
        <ele>274</ele>
        <time>2018-05-25T08:57:55Z</time>
      </trkpt>
      <trkpt lat="45.97997" lon="4.842">
        <ele>274</ele>
        <time>2018-05-25T08:57:57Z</time>
      </trkpt>
      <trkpt lat="45.97993" lon="4.84203">
        <ele>274</ele>
        <time>2018-05-25T08:57:58Z</time>
      </trkpt>
      <trkpt lat="45.97986" lon="4.8421">
        <ele>274</ele>
        <time>2018-05-25T08:58:00Z</time>
      </trkpt>
      <trkpt lat="45.97982" lon="4.84213">
        <ele>274</ele>
        <time>2018-05-25T08:58:01Z</time>
      </trkpt>
      <trkpt lat="45.97975" lon="4.8422">
        <ele>274</ele>
        <time>2018-05-25T08:58:03Z</time>
      </trkpt>
      <trkpt lat="45.97972" lon="4.84224">
        <ele>274</ele>
        <time>2018-05-25T08:58:04Z</time>
      </trkpt>
      <trkpt lat="45.97967" lon="4.84229">
        <ele>274</ele>
        <time>2018-05-25T08:58:06Z</time>
      </trkpt>
      <trkpt lat="45.97963" lon="4.84232">
        <ele>274</ele>
        <time>2018-05-25T08:58:07Z</time>
      </trkpt>
      <trkpt lat="45.97956" lon="4.84238">
        <ele>275</ele>
        <time>2018-05-25T08:58:09Z</time>
      </trkpt>
      <trkpt lat="45.97953" lon="4.84241">
        <ele>275</ele>
        <time>2018-05-25T08:58:10Z</time>
      </trkpt>
      <trkpt lat="45.97948" lon="4.84247">
        <ele>275</ele>
        <time>2018-05-25T08:58:12Z</time>
      </trkpt>
      <trkpt lat="45.97945" lon="4.8425">
        <ele>275</ele>
        <time>2018-05-25T08:58:13Z</time>
      </trkpt>
      <trkpt lat="45.97938" lon="4.84257">
        <ele>275</ele>
        <time>2018-05-25T08:58:15Z</time>
      </trkpt>
      <trkpt lat="45.97934" lon="4.84261">
        <ele>275</ele>
        <time>2018-05-25T08:58:16Z</time>
      </trkpt>
      <trkpt lat="45.97927" lon="4.8427">
        <ele>275</ele>
        <time>2018-05-25T08:58:18Z</time>
      </trkpt>
      <trkpt lat="45.97925" lon="4.84274">
        <ele>275</ele>
        <time>2018-05-25T08:58:19Z</time>
      </trkpt>
      <trkpt lat="45.97921" lon="4.84286">
        <ele>275</ele>
        <time>2018-05-25T08:58:21Z</time>
      </trkpt>
      <trkpt lat="45.97921" lon="4.84292">
        <ele>275</ele>
        <time>2018-05-25T08:58:22Z</time>
      </trkpt>
      <trkpt lat="45.97922" lon="4.84304">
        <ele>275</ele>
        <time>2018-05-25T08:58:24Z</time>
      </trkpt>
      <trkpt lat="45.97924" lon="4.84309">
        <ele>275</ele>
        <time>2018-05-25T08:58:25Z</time>
      </trkpt>
      <trkpt lat="45.97926" lon="4.8432">
        <ele>275</ele>
        <time>2018-05-25T08:58:27Z</time>
      </trkpt>
      <trkpt lat="45.97928" lon="4.84325">
        <ele>275</ele>
        <time>2018-05-25T08:58:28Z</time>
      </trkpt>
      <trkpt lat="45.9793" lon="4.84336">
        <ele>275</ele>
        <time>2018-05-25T08:58:30Z</time>
      </trkpt>
      <trkpt lat="45.97931" lon="4.84341">
        <ele>275</ele>
        <time>2018-05-25T08:58:31Z</time>
      </trkpt>
      <trkpt lat="45.97934" lon="4.84353">
        <ele>275</ele>
        <time>2018-05-25T08:58:33Z</time>
      </trkpt>
      <trkpt lat="45.97935" lon="4.84359">
        <ele>275</ele>
        <time>2018-05-25T08:58:34Z</time>
      </trkpt>
      <trkpt lat="45.97936" lon="4.8437">
        <ele>275</ele>
        <time>2018-05-25T08:58:36Z</time>
      </trkpt>
      <trkpt lat="45.97937" lon="4.84376">
        <ele>275</ele>
        <time>2018-05-25T08:58:37Z</time>
      </trkpt>
      <trkpt lat="45.97939" lon="4.84387">
        <ele>275</ele>
        <time>2018-05-25T08:58:39Z</time>
      </trkpt>
      <trkpt lat="45.9794" lon="4.84392">
        <ele>275</ele>
        <time>2018-05-25T08:58:40Z</time>
      </trkpt>
      <trkpt lat="45.97942" lon="4.84403">
        <ele>275</ele>
        <time>2018-05-25T08:58:42Z</time>
      </trkpt>
      <trkpt lat="45.97943" lon="4.84408">
        <ele>275</ele>
        <time>2018-05-25T08:58:43Z</time>
      </trkpt>
      <trkpt lat="45.97945" lon="4.8442">
        <ele>275</ele>
        <time>2018-05-25T08:58:45Z</time>
      </trkpt>
      <trkpt lat="45.97946" lon="4.84426">
        <ele>275</ele>
        <time>2018-05-25T08:58:46Z</time>
      </trkpt>
      <trkpt lat="45.97948" lon="4.84438">
        <ele>275</ele>
        <time>2018-05-25T08:58:48Z</time>
      </trkpt>
      <trkpt lat="45.97949" lon="4.84444">
        <ele>275</ele>
        <time>2018-05-25T08:58:49Z</time>
      </trkpt>
      <trkpt lat="45.9795" lon="4.84455">
        <ele>275</ele>
        <time>2018-05-25T08:58:51Z</time>
      </trkpt>
      <trkpt lat="45.97952" lon="4.84461">
        <ele>275</ele>
        <time>2018-05-25T08:58:52Z</time>
      </trkpt>
      <trkpt lat="45.97955" lon="4.84472">
        <ele>275</ele>
        <time>2018-05-25T08:58:54Z</time>
      </trkpt>
      <trkpt lat="45.97956" lon="4.84478">
        <ele>275</ele>
        <time>2018-05-25T08:58:55Z</time>
      </trkpt>
      <trkpt lat="45.97957" lon="4.84485">
        <ele>275</ele>
        <time>2018-05-25T08:58:56Z</time>
      </trkpt>
      <trkpt lat="45.97958" lon="4.84491">
        <ele>275</ele>
        <time>2018-05-25T08:58:57Z</time>
      </trkpt>
      <trkpt lat="45.97959" lon="4.84498">
        <ele>275</ele>
        <time>2018-05-25T08:58:58Z</time>
      </trkpt>
      <trkpt lat="45.9796" lon="4.84504">
        <ele>275</ele>
        <time>2018-05-25T08:58:59Z</time>
      </trkpt>
      <trkpt lat="45.97962" lon="4.84517">
        <ele>275</ele>
        <time>2018-05-25T08:59:01Z</time>
      </trkpt>
      <trkpt lat="45.97963" lon="4.84523">
        <ele>275</ele>
        <time>2018-05-25T08:59:02Z</time>
      </trkpt>
      <trkpt lat="45.97966" lon="4.84535">
        <ele>275</ele>
        <time>2018-05-25T08:59:04Z</time>
      </trkpt>
      <trkpt lat="45.97966" lon="4.84541">
        <ele>275</ele>
        <time>2018-05-25T08:59:05Z</time>
      </trkpt>
      <trkpt lat="45.97968" lon="4.84553">
        <ele>275</ele>
        <time>2018-05-25T08:59:07Z</time>
      </trkpt>
      <trkpt lat="45.9797" lon="4.8456">
        <ele>275</ele>
        <time>2018-05-25T08:59:08Z</time>
      </trkpt>
      <trkpt lat="45.97971" lon="4.84567">
        <ele>275</ele>
        <time>2018-05-25T08:59:09Z</time>
      </trkpt>
      <trkpt lat="45.97972" lon="4.84574">
        <ele>275</ele>
        <time>2018-05-25T08:59:10Z</time>
      </trkpt>
      <trkpt lat="45.97973" lon="4.8458">
        <ele>275</ele>
        <time>2018-05-25T08:59:11Z</time>
      </trkpt>
      <trkpt lat="45.97974" lon="4.84587">
        <ele>274</ele>
        <time>2018-05-25T08:59:12Z</time>
      </trkpt>
      <trkpt lat="45.97976" lon="4.84599">
        <ele>275</ele>
        <time>2018-05-25T08:59:14Z</time>
      </trkpt>
      <trkpt lat="45.97977" lon="4.84605">
        <ele>275</ele>
        <time>2018-05-25T08:59:15Z</time>
      </trkpt>
      <trkpt lat="45.97979" lon="4.84617">
        <ele>275</ele>
        <time>2018-05-25T08:59:17Z</time>
      </trkpt>
      <trkpt lat="45.97981" lon="4.84624">
        <ele>275</ele>
        <time>2018-05-25T08:59:18Z</time>
      </trkpt>
      <trkpt lat="45.97981" lon="4.84631">
        <ele>275</ele>
        <time>2018-05-25T08:59:19Z</time>
      </trkpt>
      <trkpt lat="45.97982" lon="4.84637">
        <ele>275</ele>
        <time>2018-05-25T08:59:20Z</time>
      </trkpt>
      <trkpt lat="45.97985" lon="4.84643">
        <ele>275</ele>
        <time>2018-05-25T08:59:21Z</time>
      </trkpt>
      <trkpt lat="45.97986" lon="4.84649">
        <ele>274</ele>
        <time>2018-05-25T08:59:22Z</time>
      </trkpt>
      <trkpt lat="45.97988" lon="4.84661">
        <ele>274</ele>
        <time>2018-05-25T08:59:24Z</time>
      </trkpt>
      <trkpt lat="45.97989" lon="4.84668">
        <ele>274</ele>
        <time>2018-05-25T08:59:25Z</time>
      </trkpt>
      <trkpt lat="45.97989" lon="4.84678">
        <ele>275</ele>
        <time>2018-05-25T08:59:27Z</time>
      </trkpt>
      <trkpt lat="45.9799" lon="4.84684">
        <ele>275</ele>
        <time>2018-05-25T08:59:28Z</time>
      </trkpt>
      <trkpt lat="45.9799" lon="4.84696">
        <ele>275</ele>
        <time>2018-05-25T08:59:30Z</time>
      </trkpt>
      <trkpt lat="45.9799" lon="4.84702">
        <ele>275</ele>
        <time>2018-05-25T08:59:31Z</time>
      </trkpt>
      <trkpt lat="45.97992" lon="4.84708">
        <ele>275</ele>
        <time>2018-05-25T08:59:32Z</time>
      </trkpt>
      <trkpt lat="45.97993" lon="4.84714">
        <ele>275</ele>
        <time>2018-05-25T08:59:33Z</time>
      </trkpt>
      <trkpt lat="45.97993" lon="4.84725">
        <ele>275</ele>
        <time>2018-05-25T08:59:36Z</time>
      </trkpt>
      <trkpt lat="45.97993" lon="4.84734">
        <ele>275</ele>
        <time>2018-05-25T08:59:37Z</time>
      </trkpt>
      <trkpt lat="45.97995" lon="4.84746">
        <ele>275</ele>
        <time>2018-05-25T08:59:39Z</time>
      </trkpt>
      <trkpt lat="45.97995" lon="4.84752">
        <ele>275</ele>
        <time>2018-05-25T08:59:40Z</time>
      </trkpt>
      <trkpt lat="45.97996" lon="4.84763">
        <ele>275</ele>
        <time>2018-05-25T08:59:42Z</time>
      </trkpt>
      <trkpt lat="45.97996" lon="4.8477">
        <ele>274</ele>
        <time>2018-05-25T08:59:43Z</time>
      </trkpt>
      <trkpt lat="45.97996" lon="4.84782">
        <ele>274</ele>
        <time>2018-05-25T08:59:45Z</time>
      </trkpt>
      <trkpt lat="45.97997" lon="4.84791">
        <ele>274</ele>
        <time>2018-05-25T08:59:46Z</time>
      </trkpt>
      <trkpt lat="45.97998" lon="4.84803">
        <ele>274</ele>
        <time>2018-05-25T08:59:48Z</time>
      </trkpt>
      <trkpt lat="45.97999" lon="4.84811">
        <ele>273</ele>
        <time>2018-05-25T08:59:49Z</time>
      </trkpt>
      <trkpt lat="45.98" lon="4.84823">
        <ele>273</ele>
        <time>2018-05-25T08:59:51Z</time>
      </trkpt>
      <trkpt lat="45.98001" lon="4.8483">
        <ele>272</ele>
        <time>2018-05-25T08:59:52Z</time>
      </trkpt>
      <trkpt lat="45.98001" lon="4.84836">
        <ele>272</ele>
        <time>2018-05-25T08:59:53Z</time>
      </trkpt>
      <trkpt lat="45.98004" lon="4.84846">
        <ele>272</ele>
        <time>2018-05-25T08:59:54Z</time>
      </trkpt>
      <trkpt lat="45.98005" lon="4.84852">
        <ele>272</ele>
        <time>2018-05-25T08:59:55Z</time>
      </trkpt>
      <trkpt lat="45.98007" lon="4.8486">
        <ele>272</ele>
        <time>2018-05-25T08:59:56Z</time>
      </trkpt>
      <trkpt lat="45.9801" lon="4.84872">
        <ele>272</ele>
        <time>2018-05-25T08:59:58Z</time>
      </trkpt>
      <trkpt lat="45.9801" lon="4.84878">
        <ele>272</ele>
        <time>2018-05-25T08:59:59Z</time>
      </trkpt>
      <trkpt lat="45.98011" lon="4.8489">
        <ele>272</ele>
        <time>2018-05-25T09:00:01Z</time>
      </trkpt>
      <trkpt lat="45.98012" lon="4.84898">
        <ele>272</ele>
        <time>2018-05-25T09:00:02Z</time>
      </trkpt>
      <trkpt lat="45.9801" lon="4.84908">
        <ele>272</ele>
        <time>2018-05-25T09:00:04Z</time>
      </trkpt>
      <trkpt lat="45.98011" lon="4.84913">
        <ele>272</ele>
        <time>2018-05-25T09:00:05Z</time>
      </trkpt>
      <trkpt lat="45.98013" lon="4.84925">
        <ele>272</ele>
        <time>2018-05-25T09:00:08Z</time>
      </trkpt>
      <trkpt lat="45.98012" lon="4.84931">
        <ele>272</ele>
        <time>2018-05-25T09:00:09Z</time>
      </trkpt>
      <trkpt lat="45.98013" lon="4.84939">
        <ele>272</ele>
        <time>2018-05-25T09:00:10Z</time>
      </trkpt>
      <trkpt lat="45.98014" lon="4.84946">
        <ele>272</ele>
        <time>2018-05-25T09:00:11Z</time>
      </trkpt>
      <trkpt lat="45.98015" lon="4.84956">
        <ele>272</ele>
        <time>2018-05-25T09:00:12Z</time>
      </trkpt>
      <trkpt lat="45.98016" lon="4.84963">
        <ele>272</ele>
        <time>2018-05-25T09:00:13Z</time>
      </trkpt>
      <trkpt lat="45.98016" lon="4.84971">
        <ele>272</ele>
        <time>2018-05-25T09:00:14Z</time>
      </trkpt>
      <trkpt lat="45.98017" lon="4.84978">
        <ele>272</ele>
        <time>2018-05-25T09:00:15Z</time>
      </trkpt>
      <trkpt lat="45.98018" lon="4.84985">
        <ele>272</ele>
        <time>2018-05-25T09:00:16Z</time>
      </trkpt>
      <trkpt lat="45.98018" lon="4.84991">
        <ele>272</ele>
        <time>2018-05-25T09:00:17Z</time>
      </trkpt>
      <trkpt lat="45.98019" lon="4.85003">
        <ele>272</ele>
        <time>2018-05-25T09:00:19Z</time>
      </trkpt>
      <trkpt lat="45.98021" lon="4.85008">
        <ele>273</ele>
        <time>2018-05-25T09:00:20Z</time>
      </trkpt>
      <trkpt lat="45.98021" lon="4.8502">
        <ele>273</ele>
        <time>2018-05-25T09:00:22Z</time>
      </trkpt>
      <trkpt lat="45.98021" lon="4.85026">
        <ele>273</ele>
        <time>2018-05-25T09:00:23Z</time>
      </trkpt>
      <trkpt lat="45.98021" lon="4.85037">
        <ele>273</ele>
        <time>2018-05-25T09:00:25Z</time>
      </trkpt>
      <trkpt lat="45.98021" lon="4.85043">
        <ele>273</ele>
        <time>2018-05-25T09:00:26Z</time>
      </trkpt>
      <trkpt lat="45.98022" lon="4.85052">
        <ele>273</ele>
        <time>2018-05-25T09:00:27Z</time>
      </trkpt>
      <trkpt lat="45.98022" lon="4.85058">
        <ele>273</ele>
        <time>2018-05-25T09:00:28Z</time>
      </trkpt>
      <trkpt lat="45.98022" lon="4.85071">
        <ele>273</ele>
        <time>2018-05-25T09:00:30Z</time>
      </trkpt>
      <trkpt lat="45.98022" lon="4.85077">
        <ele>273</ele>
        <time>2018-05-25T09:00:31Z</time>
      </trkpt>
      <trkpt lat="45.98022" lon="4.85088">
        <ele>274</ele>
        <time>2018-05-25T09:00:33Z</time>
      </trkpt>
      <trkpt lat="45.98023" lon="4.85094">
        <ele>274</ele>
        <time>2018-05-25T09:00:34Z</time>
      </trkpt>
      <trkpt lat="45.98025" lon="4.85105">
        <ele>274</ele>
        <time>2018-05-25T09:00:36Z</time>
      </trkpt>
      <trkpt lat="45.98026" lon="4.85111">
        <ele>274</ele>
        <time>2018-05-25T09:00:37Z</time>
      </trkpt>
      <trkpt lat="45.98027" lon="4.85118">
        <ele>274</ele>
        <time>2018-05-25T09:00:39Z</time>
      </trkpt>
      <trkpt lat="45.98029" lon="4.85125">
        <ele>274</ele>
        <time>2018-05-25T09:00:40Z</time>
      </trkpt>
      <trkpt lat="45.98032" lon="4.85135">
        <ele>275</ele>
        <time>2018-05-25T09:00:43Z</time>
      </trkpt>
      <trkpt lat="45.98033" lon="4.85138">
        <ele>275</ele>
        <time>2018-05-25T09:00:44Z</time>
      </trkpt>
      <trkpt lat="45.98036" lon="4.85146">
        <ele>275</ele>
        <time>2018-05-25T09:00:46Z</time>
      </trkpt>
      <trkpt lat="45.98039" lon="4.85158">
        <ele>275</ele>
        <time>2018-05-25T09:00:47Z</time>
      </trkpt>
      <trkpt lat="45.98042" lon="4.85166">
        <ele>275</ele>
        <time>2018-05-25T09:00:50Z</time>
      </trkpt>
      <trkpt lat="45.98045" lon="4.85176">
        <ele>275</ele>
        <time>2018-05-25T09:00:51Z</time>
      </trkpt>
      <trkpt lat="45.98047" lon="4.85187">
        <ele>276</ele>
        <time>2018-05-25T09:00:54Z</time>
      </trkpt>
      <trkpt lat="45.98048" lon="4.8519">
        <ele>276</ele>
        <time>2018-05-25T09:00:55Z</time>
      </trkpt>
      <trkpt lat="45.98052" lon="4.85201">
        <ele>276</ele>
        <time>2018-05-25T09:00:59Z</time>
      </trkpt>
      <trkpt lat="45.98052" lon="4.85202">
        <ele>276</ele>
        <time>2018-05-25T09:01:00Z</time>
      </trkpt>
      <trkpt lat="45.98055" lon="4.85213">
        <ele>276</ele>
        <time>2018-05-25T09:01:13Z</time>
      </trkpt>
      <trkpt lat="45.98056" lon="4.85215">
        <ele>276</ele>
        <time>2018-05-25T09:01:14Z</time>
      </trkpt>
      <trkpt lat="45.98061" lon="4.85223">
        <ele>276</ele>
        <time>2018-05-25T09:01:17Z</time>
      </trkpt>
      <trkpt lat="45.98062" lon="4.85226">
        <ele>276</ele>
        <time>2018-05-25T09:01:18Z</time>
      </trkpt>
      <trkpt lat="45.98064" lon="4.8523">
        <ele>276</ele>
        <time>2018-05-25T09:01:19Z</time>
      </trkpt>
      <trkpt lat="45.98069" lon="4.85241">
        <ele>276</ele>
        <time>2018-05-25T09:01:20Z</time>
      </trkpt>
      <trkpt lat="45.98074" lon="4.8525">
        <ele>276</ele>
        <time>2018-05-25T09:01:22Z</time>
      </trkpt>
      <trkpt lat="45.98076" lon="4.85255">
        <ele>276</ele>
        <time>2018-05-25T09:01:23Z</time>
      </trkpt>
      <trkpt lat="45.98082" lon="4.85264">
        <ele>276</ele>
        <time>2018-05-25T09:01:25Z</time>
      </trkpt>
      <trkpt lat="45.98086" lon="4.85269">
        <ele>276</ele>
        <time>2018-05-25T09:01:26Z</time>
      </trkpt>
      <trkpt lat="45.98089" lon="4.85275">
        <ele>276</ele>
        <time>2018-05-25T09:01:27Z</time>
      </trkpt>
      <trkpt lat="45.98091" lon="4.85281">
        <ele>276</ele>
        <time>2018-05-25T09:01:28Z</time>
      </trkpt>
      <trkpt lat="45.98093" lon="4.85288">
        <ele>276</ele>
        <time>2018-05-25T09:01:29Z</time>
      </trkpt>
      <trkpt lat="45.98096" lon="4.85294">
        <ele>276</ele>
        <time>2018-05-25T09:01:30Z</time>
      </trkpt>
      <trkpt lat="45.981" lon="4.85301">
        <ele>276</ele>
        <time>2018-05-25T09:01:31Z</time>
      </trkpt>
      <trkpt lat="45.98103" lon="4.85307">
        <ele>276</ele>
        <time>2018-05-25T09:01:32Z</time>
      </trkpt>
      <trkpt lat="45.98105" lon="4.85312">
        <ele>276</ele>
        <time>2018-05-25T09:01:33Z</time>
      </trkpt>
      <trkpt lat="45.98109" lon="4.85318">
        <ele>276</ele>
        <time>2018-05-25T09:01:34Z</time>
      </trkpt>
      <trkpt lat="45.9811" lon="4.85325">
        <ele>276</ele>
        <time>2018-05-25T09:01:35Z</time>
      </trkpt>
      <trkpt lat="45.98112" lon="4.85332">
        <ele>276</ele>
        <time>2018-05-25T09:01:36Z</time>
      </trkpt>
      <trkpt lat="45.98114" lon="4.85338">
        <ele>276</ele>
        <time>2018-05-25T09:01:37Z</time>
      </trkpt>
      <trkpt lat="45.98118" lon="4.85346">
        <ele>276</ele>
        <time>2018-05-25T09:01:38Z</time>
      </trkpt>
      <trkpt lat="45.9812" lon="4.85351">
        <ele>276</ele>
        <time>2018-05-25T09:01:39Z</time>
      </trkpt>
      <trkpt lat="45.98122" lon="4.85357">
        <ele>276</ele>
        <time>2018-05-25T09:01:40Z</time>
      </trkpt>
      <trkpt lat="45.98124" lon="4.85364">
        <ele>276</ele>
        <time>2018-05-25T09:01:41Z</time>
      </trkpt>
      <trkpt lat="45.98126" lon="4.8537">
        <ele>276</ele>
        <time>2018-05-25T09:01:42Z</time>
      </trkpt>
      <trkpt lat="45.9813" lon="4.85376">
        <ele>276</ele>
        <time>2018-05-25T09:01:43Z</time>
      </trkpt>
      <trkpt lat="45.98132" lon="4.85382">
        <ele>276</ele>
        <time>2018-05-25T09:01:44Z</time>
      </trkpt>
      <trkpt lat="45.98135" lon="4.85391">
        <ele>276</ele>
        <time>2018-05-25T09:01:46Z</time>
      </trkpt>
      <trkpt lat="45.98137" lon="4.85399">
        <ele>276</ele>
        <time>2018-05-25T09:01:47Z</time>
      </trkpt>
      <trkpt lat="45.9814" lon="4.85405">
        <ele>276</ele>
        <time>2018-05-25T09:01:48Z</time>
      </trkpt>
      <trkpt lat="45.98142" lon="4.85411">
        <ele>276</ele>
        <time>2018-05-25T09:01:49Z</time>
      </trkpt>
      <trkpt lat="45.98145" lon="4.85417">
        <ele>276</ele>
        <time>2018-05-25T09:01:50Z</time>
      </trkpt>
      <trkpt lat="45.98148" lon="4.85423">
        <ele>276</ele>
        <time>2018-05-25T09:01:51Z</time>
      </trkpt>
      <trkpt lat="45.98151" lon="4.85429">
        <ele>276</ele>
        <time>2018-05-25T09:01:52Z</time>
      </trkpt>
      <trkpt lat="45.98153" lon="4.85435">
        <ele>276</ele>
        <time>2018-05-25T09:01:53Z</time>
      </trkpt>
      <trkpt lat="45.98156" lon="4.8544">
        <ele>276</ele>
        <time>2018-05-25T09:01:54Z</time>
      </trkpt>
      <trkpt lat="45.98158" lon="4.85446">
        <ele>276</ele>
        <time>2018-05-25T09:01:55Z</time>
      </trkpt>
      <trkpt lat="45.98159" lon="4.85451">
        <ele>276</ele>
        <time>2018-05-25T09:01:56Z</time>
      </trkpt>
      <trkpt lat="45.98162" lon="4.85459">
        <ele>275</ele>
        <time>2018-05-25T09:01:57Z</time>
      </trkpt>
      <trkpt lat="45.98167" lon="4.85469">
        <ele>275</ele>
        <time>2018-05-25T09:01:59Z</time>
      </trkpt>
      <trkpt lat="45.98169" lon="4.85475">
        <ele>275</ele>
        <time>2018-05-25T09:02:00Z</time>
      </trkpt>
      <trkpt lat="45.98173" lon="4.85483">
        <ele>275</ele>
        <time>2018-05-25T09:02:01Z</time>
      </trkpt>
      <trkpt lat="45.98175" lon="4.85488">
        <ele>275</ele>
        <time>2018-05-25T09:02:02Z</time>
      </trkpt>
      <trkpt lat="45.98177" lon="4.85495">
        <ele>275</ele>
        <time>2018-05-25T09:02:03Z</time>
      </trkpt>
      <trkpt lat="45.98181" lon="4.85502">
        <ele>275</ele>
        <time>2018-05-25T09:02:04Z</time>
      </trkpt>
      <trkpt lat="45.98182" lon="4.85509">
        <ele>275</ele>
        <time>2018-05-25T09:02:05Z</time>
      </trkpt>
      <trkpt lat="45.98185" lon="4.85517">
        <ele>275</ele>
        <time>2018-05-25T09:02:06Z</time>
      </trkpt>
      <trkpt lat="45.98187" lon="4.85523">
        <ele>276</ele>
        <time>2018-05-25T09:02:07Z</time>
      </trkpt>
      <trkpt lat="45.9819" lon="4.8553">
        <ele>276</ele>
        <time>2018-05-25T09:02:08Z</time>
      </trkpt>
      <trkpt lat="45.98192" lon="4.85535">
        <ele>276</ele>
        <time>2018-05-25T09:02:09Z</time>
      </trkpt>
      <trkpt lat="45.98195" lon="4.85541">
        <ele>276</ele>
        <time>2018-05-25T09:02:10Z</time>
      </trkpt>
      <trkpt lat="45.98199" lon="4.85552">
        <ele>276</ele>
        <time>2018-05-25T09:02:12Z</time>
      </trkpt>
      <trkpt lat="45.98201" lon="4.85557">
        <ele>276</ele>
        <time>2018-05-25T09:02:13Z</time>
      </trkpt>
      <trkpt lat="45.98205" lon="4.85564">
        <ele>276</ele>
        <time>2018-05-25T09:02:14Z</time>
      </trkpt>
      <trkpt lat="45.98207" lon="4.85568">
        <ele>276</ele>
        <time>2018-05-25T09:02:15Z</time>
      </trkpt>
      <trkpt lat="45.9821" lon="4.85579">
        <ele>276</ele>
        <time>2018-05-25T09:02:17Z</time>
      </trkpt>
      <trkpt lat="45.98212" lon="4.85585">
        <ele>277</ele>
        <time>2018-05-25T09:02:18Z</time>
      </trkpt>
      <trkpt lat="45.98216" lon="4.85596">
        <ele>277</ele>
        <time>2018-05-25T09:02:20Z</time>
      </trkpt>
      <trkpt lat="45.98218" lon="4.85601">
        <ele>277</ele>
        <time>2018-05-25T09:02:21Z</time>
      </trkpt>
      <trkpt lat="45.98219" lon="4.85608">
        <ele>277</ele>
        <time>2018-05-25T09:02:22Z</time>
      </trkpt>
      <trkpt lat="45.98222" lon="4.85613">
        <ele>277</ele>
        <time>2018-05-25T09:02:23Z</time>
      </trkpt>
      <trkpt lat="45.98225" lon="4.85621">
        <ele>277</ele>
        <time>2018-05-25T09:02:24Z</time>
      </trkpt>
      <trkpt lat="45.98227" lon="4.85627">
        <ele>277</ele>
        <time>2018-05-25T09:02:25Z</time>
      </trkpt>
      <trkpt lat="45.98231" lon="4.85636">
        <ele>277</ele>
        <time>2018-05-25T09:02:27Z</time>
      </trkpt>
      <trkpt lat="45.98234" lon="4.85642">
        <ele>277</ele>
        <time>2018-05-25T09:02:28Z</time>
      </trkpt>
      <trkpt lat="45.98238" lon="4.85653">
        <ele>276</ele>
        <time>2018-05-25T09:02:30Z</time>
      </trkpt>
      <trkpt lat="45.9824" lon="4.8566">
        <ele>276</ele>
        <time>2018-05-25T09:02:31Z</time>
      </trkpt>
      <trkpt lat="45.98243" lon="4.85665">
        <ele>276</ele>
        <time>2018-05-25T09:02:32Z</time>
      </trkpt>
      <trkpt lat="45.98245" lon="4.85674">
        <ele>276</ele>
        <time>2018-05-25T09:02:33Z</time>
      </trkpt>
      <trkpt lat="45.98248" lon="4.8568">
        <ele>276</ele>
        <time>2018-05-25T09:02:34Z</time>
      </trkpt>
      <trkpt lat="45.98251" lon="4.85686">
        <ele>275</ele>
        <time>2018-05-25T09:02:35Z</time>
      </trkpt>
      <trkpt lat="45.98254" lon="4.85692">
        <ele>275</ele>
        <time>2018-05-25T09:02:36Z</time>
      </trkpt>
      <trkpt lat="45.98256" lon="4.85698">
        <ele>275</ele>
        <time>2018-05-25T09:02:37Z</time>
      </trkpt>
      <trkpt lat="45.98258" lon="4.85704">
        <ele>275</ele>
        <time>2018-05-25T09:02:38Z</time>
      </trkpt>
      <trkpt lat="45.9826" lon="4.8571">
        <ele>275</ele>
        <time>2018-05-25T09:02:39Z</time>
      </trkpt>
      <trkpt lat="45.98263" lon="4.85715">
        <ele>275</ele>
        <time>2018-05-25T09:02:40Z</time>
      </trkpt>
      <trkpt lat="45.98265" lon="4.85721">
        <ele>275</ele>
        <time>2018-05-25T09:02:41Z</time>
      </trkpt>
      <trkpt lat="45.98268" lon="4.85727">
        <ele>275</ele>
        <time>2018-05-25T09:02:42Z</time>
      </trkpt>
      <trkpt lat="45.9827" lon="4.85733">
        <ele>275</ele>
        <time>2018-05-25T09:02:43Z</time>
      </trkpt>
      <trkpt lat="45.98273" lon="4.85738">
        <ele>274</ele>
        <time>2018-05-25T09:02:44Z</time>
      </trkpt>
      <trkpt lat="45.98275" lon="4.85744">
        <ele>274</ele>
        <time>2018-05-25T09:02:45Z</time>
      </trkpt>
      <trkpt lat="45.98277" lon="4.8575">
        <ele>275</ele>
        <time>2018-05-25T09:02:46Z</time>
      </trkpt>
      <trkpt lat="45.98279" lon="4.85756">
        <ele>275</ele>
        <time>2018-05-25T09:02:47Z</time>
      </trkpt>
      <trkpt lat="45.98283" lon="4.85767">
        <ele>275</ele>
        <time>2018-05-25T09:02:49Z</time>
      </trkpt>
      <trkpt lat="45.98286" lon="4.85773">
        <ele>275</ele>
        <time>2018-05-25T09:02:50Z</time>
      </trkpt>
      <trkpt lat="45.98288" lon="4.85778">
        <ele>275</ele>
        <time>2018-05-25T09:02:51Z</time>
      </trkpt>
      <trkpt lat="45.9829" lon="4.85784">
        <ele>275</ele>
        <time>2018-05-25T09:02:52Z</time>
      </trkpt>
      <trkpt lat="45.98293" lon="4.85792">
        <ele>275</ele>
        <time>2018-05-25T09:02:53Z</time>
      </trkpt>
      <trkpt lat="45.98294" lon="4.85797">
        <ele>275</ele>
        <time>2018-05-25T09:02:54Z</time>
      </trkpt>
      <trkpt lat="45.98297" lon="4.85803">
        <ele>275</ele>
        <time>2018-05-25T09:02:55Z</time>
      </trkpt>
      <trkpt lat="45.98301" lon="4.85812">
        <ele>275</ele>
        <time>2018-05-25T09:02:56Z</time>
      </trkpt>
      <trkpt lat="45.98304" lon="4.85818">
        <ele>275</ele>
        <time>2018-05-25T09:02:57Z</time>
      </trkpt>
      <trkpt lat="45.98308" lon="4.85826">
        <ele>275</ele>
        <time>2018-05-25T09:02:58Z</time>
      </trkpt>
      <trkpt lat="45.9831" lon="4.85832">
        <ele>275</ele>
        <time>2018-05-25T09:02:59Z</time>
      </trkpt>
      <trkpt lat="45.98313" lon="4.85839">
        <ele>276</ele>
        <time>2018-05-25T09:03:00Z</time>
      </trkpt>
      <trkpt lat="45.98317" lon="4.85847">
        <ele>276</ele>
        <time>2018-05-25T09:03:01Z</time>
      </trkpt>
      <trkpt lat="45.98319" lon="4.85853">
        <ele>276</ele>
        <time>2018-05-25T09:03:02Z</time>
      </trkpt>
      <trkpt lat="45.98322" lon="4.85859">
        <ele>276</ele>
        <time>2018-05-25T09:03:03Z</time>
      </trkpt>
      <trkpt lat="45.98324" lon="4.85865">
        <ele>276</ele>
        <time>2018-05-25T09:03:04Z</time>
      </trkpt>
      <trkpt lat="45.98327" lon="4.85873">
        <ele>276</ele>
        <time>2018-05-25T09:03:05Z</time>
      </trkpt>
      <trkpt lat="45.98328" lon="4.85879">
        <ele>276</ele>
        <time>2018-05-25T09:03:06Z</time>
      </trkpt>
      <trkpt lat="45.98333" lon="4.85889">
        <ele>276</ele>
        <time>2018-05-25T09:03:08Z</time>
      </trkpt>
      <trkpt lat="45.98336" lon="4.85895">
        <ele>276</ele>
        <time>2018-05-25T09:03:09Z</time>
      </trkpt>
      <trkpt lat="45.98339" lon="4.85901">
        <ele>276</ele>
        <time>2018-05-25T09:03:10Z</time>
      </trkpt>
      <trkpt lat="45.9834" lon="4.85906">
        <ele>276</ele>
        <time>2018-05-25T09:03:11Z</time>
      </trkpt>
      <trkpt lat="45.98342" lon="4.85912">
        <ele>276</ele>
        <time>2018-05-25T09:03:12Z</time>
      </trkpt>
      <trkpt lat="45.98346" lon="4.85921">
        <ele>276</ele>
        <time>2018-05-25T09:03:13Z</time>
      </trkpt>
      <trkpt lat="45.98348" lon="4.85927">
        <ele>276</ele>
        <time>2018-05-25T09:03:14Z</time>
      </trkpt>
      <trkpt lat="45.98351" lon="4.85934">
        <ele>276</ele>
        <time>2018-05-25T09:03:15Z</time>
      </trkpt>
      <trkpt lat="45.98353" lon="4.85943">
        <ele>276</ele>
        <time>2018-05-25T09:03:16Z</time>
      </trkpt>
      <trkpt lat="45.98356" lon="4.85949">
        <ele>276</ele>
        <time>2018-05-25T09:03:17Z</time>
      </trkpt>
      <trkpt lat="45.98359" lon="4.8596">
        <ele>276</ele>
        <time>2018-05-25T09:03:19Z</time>
      </trkpt>
      <trkpt lat="45.98361" lon="4.8597">
        <ele>276</ele>
        <time>2018-05-25T09:03:20Z</time>
      </trkpt>
      <trkpt lat="45.98364" lon="4.85976">
        <ele>276</ele>
        <time>2018-05-25T09:03:21Z</time>
      </trkpt>
      <trkpt lat="45.98367" lon="4.85982">
        <ele>276</ele>
        <time>2018-05-25T09:03:22Z</time>
      </trkpt>
      <trkpt lat="45.9837" lon="4.85989">
        <ele>276</ele>
        <time>2018-05-25T09:03:23Z</time>
      </trkpt>
      <trkpt lat="45.98373" lon="4.85996">
        <ele>277</ele>
        <time>2018-05-25T09:03:24Z</time>
      </trkpt>
      <trkpt lat="45.98376" lon="4.86002">
        <ele>277</ele>
        <time>2018-05-25T09:03:25Z</time>
      </trkpt>
      <trkpt lat="45.98378" lon="4.86009">
        <ele>277</ele>
        <time>2018-05-25T09:03:26Z</time>
      </trkpt>
      <trkpt lat="45.98381" lon="4.86015">
        <ele>277</ele>
        <time>2018-05-25T09:03:27Z</time>
      </trkpt>
      <trkpt lat="45.98383" lon="4.8602">
        <ele>277</ele>
        <time>2018-05-25T09:03:28Z</time>
      </trkpt>
      <trkpt lat="45.98386" lon="4.86026">
        <ele>277</ele>
        <time>2018-05-25T09:03:29Z</time>
      </trkpt>
      <trkpt lat="45.98388" lon="4.86033">
        <ele>277</ele>
        <time>2018-05-25T09:03:30Z</time>
      </trkpt>
      <trkpt lat="45.98393" lon="4.86043">
        <ele>277</ele>
        <time>2018-05-25T09:03:32Z</time>
      </trkpt>
      <trkpt lat="45.98396" lon="4.8605">
        <ele>277</ele>
        <time>2018-05-25T09:03:33Z</time>
      </trkpt>
      <trkpt lat="45.98398" lon="4.86056">
        <ele>277</ele>
        <time>2018-05-25T09:03:34Z</time>
      </trkpt>
      <trkpt lat="45.98399" lon="4.86062">
        <ele>277</ele>
        <time>2018-05-25T09:03:35Z</time>
      </trkpt>
      <trkpt lat="45.98403" lon="4.86073">
        <ele>277</ele>
        <time>2018-05-25T09:03:37Z</time>
      </trkpt>
      <trkpt lat="45.98405" lon="4.86079">
        <ele>277</ele>
        <time>2018-05-25T09:03:38Z</time>
      </trkpt>
      <trkpt lat="45.98408" lon="4.8609">
        <ele>277</ele>
        <time>2018-05-25T09:03:40Z</time>
      </trkpt>
      <trkpt lat="45.98409" lon="4.86095">
        <ele>277</ele>
        <time>2018-05-25T09:03:41Z</time>
      </trkpt>
      <trkpt lat="45.9841" lon="4.86104">
        <ele>277</ele>
        <time>2018-05-25T09:03:44Z</time>
      </trkpt>
      <trkpt lat="45.98411" lon="4.86108">
        <ele>277</ele>
        <time>2018-05-25T09:03:45Z</time>
      </trkpt>
      <trkpt lat="45.98412" lon="4.86117">
        <ele>277</ele>
        <time>2018-05-25T09:03:47Z</time>
      </trkpt>
      <trkpt lat="45.98412" lon="4.86121">
        <ele>277</ele>
        <time>2018-05-25T09:03:48Z</time>
      </trkpt>
      <trkpt lat="45.98414" lon="4.8613">
        <ele>276</ele>
        <time>2018-05-25T09:03:50Z</time>
      </trkpt>
      <trkpt lat="45.98415" lon="4.86135">
        <ele>276</ele>
        <time>2018-05-25T09:03:51Z</time>
      </trkpt>
      <trkpt lat="45.98417" lon="4.86143">
        <ele>276</ele>
        <time>2018-05-25T09:03:53Z</time>
      </trkpt>
      <trkpt lat="45.98418" lon="4.86147">
        <ele>276</ele>
        <time>2018-05-25T09:03:54Z</time>
      </trkpt>
      <trkpt lat="45.98419" lon="4.86152">
        <ele>276</ele>
        <time>2018-05-25T09:03:55Z</time>
      </trkpt>
      <trkpt lat="45.98423" lon="4.86165">
        <ele>276</ele>
        <time>2018-05-25T09:03:56Z</time>
      </trkpt>
      <trkpt lat="45.98424" lon="4.86175">
        <ele>276</ele>
        <time>2018-05-25T09:03:58Z</time>
      </trkpt>
      <trkpt lat="45.98424" lon="4.86181">
        <ele>275</ele>
        <time>2018-05-25T09:03:59Z</time>
      </trkpt>
      <trkpt lat="45.98426" lon="4.86192">
        <ele>275</ele>
        <time>2018-05-25T09:04:01Z</time>
      </trkpt>
      <trkpt lat="45.98427" lon="4.86198">
        <ele>275</ele>
        <time>2018-05-25T09:04:02Z</time>
      </trkpt>
      <trkpt lat="45.9843" lon="4.86209">
        <ele>275</ele>
        <time>2018-05-25T09:04:04Z</time>
      </trkpt>
      <trkpt lat="45.98431" lon="4.86215">
        <ele>275</ele>
        <time>2018-05-25T09:04:05Z</time>
      </trkpt>
      <trkpt lat="45.98433" lon="4.86223">
        <ele>275</ele>
        <time>2018-05-25T09:04:06Z</time>
      </trkpt>
      <trkpt lat="45.98433" lon="4.86228">
        <ele>275</ele>
        <time>2018-05-25T09:04:07Z</time>
      </trkpt>
      <trkpt lat="45.98434" lon="4.86234">
        <ele>275</ele>
        <time>2018-05-25T09:04:08Z</time>
      </trkpt>
      <trkpt lat="45.98435" lon="4.86244">
        <ele>275</ele>
        <time>2018-05-25T09:04:09Z</time>
      </trkpt>
      <trkpt lat="45.98437" lon="4.86252">
        <ele>275</ele>
        <time>2018-05-25T09:04:10Z</time>
      </trkpt>
      <trkpt lat="45.98438" lon="4.8626">
        <ele>275</ele>
        <time>2018-05-25T09:04:11Z</time>
      </trkpt>
      <trkpt lat="45.9844" lon="4.86268">
        <ele>275</ele>
        <time>2018-05-25T09:04:12Z</time>
      </trkpt>
      <trkpt lat="45.98441" lon="4.86278">
        <ele>276</ele>
        <time>2018-05-25T09:04:13Z</time>
      </trkpt>
      <trkpt lat="45.98443" lon="4.86288">
        <ele>276</ele>
        <time>2018-05-25T09:04:14Z</time>
      </trkpt>
      <trkpt lat="45.98444" lon="4.86299">
        <ele>276</ele>
        <time>2018-05-25T09:04:15Z</time>
      </trkpt>
      <trkpt lat="45.98446" lon="4.86309">
        <ele>276</ele>
        <time>2018-05-25T09:04:16Z</time>
      </trkpt>
      <trkpt lat="45.98448" lon="4.86315">
        <ele>276</ele>
        <time>2018-05-25T09:04:17Z</time>
      </trkpt>
      <trkpt lat="45.98449" lon="4.8632">
        <ele>276</ele>
        <time>2018-05-25T09:04:18Z</time>
      </trkpt>
      <trkpt lat="45.98451" lon="4.86329">
        <ele>276</ele>
        <time>2018-05-25T09:04:19Z</time>
      </trkpt>
      <trkpt lat="45.98454" lon="4.86335">
        <ele>277</ele>
        <time>2018-05-25T09:04:20Z</time>
      </trkpt>
      <trkpt lat="45.98456" lon="4.86341">
        <ele>277</ele>
        <time>2018-05-25T09:04:21Z</time>
      </trkpt>
      <trkpt lat="45.98457" lon="4.86352">
        <ele>277</ele>
        <time>2018-05-25T09:04:22Z</time>
      </trkpt>
      <trkpt lat="45.9846" lon="4.8636">
        <ele>277</ele>
        <time>2018-05-25T09:04:23Z</time>
      </trkpt>
      <trkpt lat="45.98462" lon="4.86367">
        <ele>277</ele>
        <time>2018-05-25T09:04:24Z</time>
      </trkpt>
      <trkpt lat="45.98467" lon="4.86379">
        <ele>277</ele>
        <time>2018-05-25T09:04:25Z</time>
      </trkpt>
      <trkpt lat="45.98469" lon="4.86387">
        <ele>277</ele>
        <time>2018-05-25T09:04:26Z</time>
      </trkpt>
      <trkpt lat="45.98473" lon="4.86393">
        <ele>277</ele>
        <time>2018-05-25T09:04:27Z</time>
      </trkpt>
      <trkpt lat="45.98476" lon="4.86399">
        <ele>277</ele>
        <time>2018-05-25T09:04:28Z</time>
      </trkpt>
      <trkpt lat="45.98479" lon="4.86405">
        <ele>277</ele>
        <time>2018-05-25T09:04:29Z</time>
      </trkpt>
      <trkpt lat="45.98481" lon="4.86411">
        <ele>277</ele>
        <time>2018-05-25T09:04:30Z</time>
      </trkpt>
      <trkpt lat="45.98485" lon="4.86421">
        <ele>278</ele>
        <time>2018-05-25T09:04:31Z</time>
      </trkpt>
      <trkpt lat="45.98487" lon="4.86428">
        <ele>278</ele>
        <time>2018-05-25T09:04:32Z</time>
      </trkpt>
      <trkpt lat="45.98491" lon="4.86432">
        <ele>278</ele>
        <time>2018-05-25T09:04:33Z</time>
      </trkpt>
      <trkpt lat="45.98494" lon="4.86439">
        <ele>278</ele>
        <time>2018-05-25T09:04:34Z</time>
      </trkpt>
      <trkpt lat="45.98496" lon="4.86447">
        <ele>278</ele>
        <time>2018-05-25T09:04:35Z</time>
      </trkpt>
      <trkpt lat="45.98499" lon="4.86453">
        <ele>278</ele>
        <time>2018-05-25T09:04:36Z</time>
      </trkpt>
      <trkpt lat="45.98501" lon="4.8646">
        <ele>278</ele>
        <time>2018-05-25T09:04:37Z</time>
      </trkpt>
      <trkpt lat="45.98503" lon="4.86467">
        <ele>278</ele>
        <time>2018-05-25T09:04:38Z</time>
      </trkpt>
      <trkpt lat="45.98507" lon="4.86475">
        <ele>278</ele>
        <time>2018-05-25T09:04:39Z</time>
      </trkpt>
      <trkpt lat="45.9851" lon="4.86483">
        <ele>278</ele>
        <time>2018-05-25T09:04:40Z</time>
      </trkpt>
      <trkpt lat="45.98512" lon="4.86491">
        <ele>279</ele>
        <time>2018-05-25T09:04:41Z</time>
      </trkpt>
      <trkpt lat="45.98514" lon="4.86498">
        <ele>279</ele>
        <time>2018-05-25T09:04:42Z</time>
      </trkpt>
      <trkpt lat="45.98517" lon="4.86504">
        <ele>279</ele>
        <time>2018-05-25T09:04:43Z</time>
      </trkpt>
      <trkpt lat="45.98521" lon="4.8651">
        <ele>279</ele>
        <time>2018-05-25T09:04:44Z</time>
      </trkpt>
      <trkpt lat="45.98524" lon="4.86516">
        <ele>279</ele>
        <time>2018-05-25T09:04:45Z</time>
      </trkpt>
      <trkpt lat="45.98527" lon="4.86523">
        <ele>279</ele>
        <time>2018-05-25T09:04:46Z</time>
      </trkpt>
      <trkpt lat="45.98531" lon="4.86531">
        <ele>279</ele>
        <time>2018-05-25T09:04:47Z</time>
      </trkpt>
      <trkpt lat="45.98535" lon="4.86538">
        <ele>278</ele>
        <time>2018-05-25T09:04:48Z</time>
      </trkpt>
      <trkpt lat="45.98539" lon="4.86545">
        <ele>278</ele>
        <time>2018-05-25T09:04:49Z</time>
      </trkpt>
      <trkpt lat="45.98543" lon="4.8655">
        <ele>278</ele>
        <time>2018-05-25T09:04:50Z</time>
      </trkpt>
      <trkpt lat="45.98545" lon="4.86556">
        <ele>278</ele>
        <time>2018-05-25T09:04:51Z</time>
      </trkpt>
      <trkpt lat="45.98551" lon="4.86564">
        <ele>278</ele>
        <time>2018-05-25T09:04:52Z</time>
      </trkpt>
      <trkpt lat="45.98553" lon="4.86572">
        <ele>278</ele>
        <time>2018-05-25T09:04:53Z</time>
      </trkpt>
      <trkpt lat="45.98554" lon="4.86579">
        <ele>278</ele>
        <time>2018-05-25T09:04:54Z</time>
      </trkpt>
      <trkpt lat="45.98555" lon="4.86586">
        <ele>278</ele>
        <time>2018-05-25T09:04:55Z</time>
      </trkpt>
      <trkpt lat="45.98557" lon="4.86593">
        <ele>278</ele>
        <time>2018-05-25T09:04:56Z</time>
      </trkpt>
      <trkpt lat="45.98559" lon="4.866">
        <ele>278</ele>
        <time>2018-05-25T09:04:57Z</time>
      </trkpt>
      <trkpt lat="45.9856" lon="4.86608">
        <ele>278</ele>
        <time>2018-05-25T09:04:58Z</time>
      </trkpt>
      <trkpt lat="45.98562" lon="4.86616">
        <ele>278</ele>
        <time>2018-05-25T09:04:59Z</time>
      </trkpt>
      <trkpt lat="45.98562" lon="4.86623">
        <ele>278</ele>
        <time>2018-05-25T09:05:00Z</time>
      </trkpt>
      <trkpt lat="45.98563" lon="4.86632">
        <ele>278</ele>
        <time>2018-05-25T09:05:01Z</time>
      </trkpt>
      <trkpt lat="45.98565" lon="4.86641">
        <ele>277</ele>
        <time>2018-05-25T09:05:02Z</time>
      </trkpt>
      <trkpt lat="45.98567" lon="4.86651">
        <ele>277</ele>
        <time>2018-05-25T09:05:03Z</time>
      </trkpt>
      <trkpt lat="45.98566" lon="4.8666">
        <ele>277</ele>
        <time>2018-05-25T09:05:04Z</time>
      </trkpt>
      <trkpt lat="45.98567" lon="4.86667">
        <ele>276</ele>
        <time>2018-05-25T09:05:05Z</time>
      </trkpt>
      <trkpt lat="45.98568" lon="4.86676">
        <ele>276</ele>
        <time>2018-05-25T09:05:06Z</time>
      </trkpt>
      <trkpt lat="45.98568" lon="4.86685">
        <ele>277</ele>
        <time>2018-05-25T09:05:07Z</time>
      </trkpt>
      <trkpt lat="45.98569" lon="4.86691">
        <ele>277</ele>
        <time>2018-05-25T09:05:08Z</time>
      </trkpt>
      <trkpt lat="45.9857" lon="4.86699">
        <ele>277</ele>
        <time>2018-05-25T09:05:09Z</time>
      </trkpt>
      <trkpt lat="45.9857" lon="4.86706">
        <ele>277</ele>
        <time>2018-05-25T09:05:10Z</time>
      </trkpt>
      <trkpt lat="45.9857" lon="4.86712">
        <ele>277</ele>
        <time>2018-05-25T09:05:11Z</time>
      </trkpt>
      <trkpt lat="45.9857" lon="4.86719">
        <ele>277</ele>
        <time>2018-05-25T09:05:12Z</time>
      </trkpt>
      <trkpt lat="45.98571" lon="4.86726">
        <ele>277</ele>
        <time>2018-05-25T09:05:13Z</time>
      </trkpt>
      <trkpt lat="45.9857" lon="4.86736">
        <ele>277</ele>
        <time>2018-05-25T09:05:14Z</time>
      </trkpt>
      <trkpt lat="45.98571" lon="4.86745">
        <ele>277</ele>
        <time>2018-05-25T09:05:15Z</time>
      </trkpt>
      <trkpt lat="45.98573" lon="4.86755">
        <ele>277</ele>
        <time>2018-05-25T09:05:16Z</time>
      </trkpt>
      <trkpt lat="45.98573" lon="4.86764">
        <ele>277</ele>
        <time>2018-05-25T09:05:17Z</time>
      </trkpt>
      <trkpt lat="45.98575" lon="4.86773">
        <ele>277</ele>
        <time>2018-05-25T09:05:18Z</time>
      </trkpt>
      <trkpt lat="45.98575" lon="4.8678">
        <ele>277</ele>
        <time>2018-05-25T09:05:19Z</time>
      </trkpt>
      <trkpt lat="45.98577" lon="4.86788">
        <ele>277</ele>
        <time>2018-05-25T09:05:20Z</time>
      </trkpt>
      <trkpt lat="45.9858" lon="4.86795">
        <ele>277</ele>
        <time>2018-05-25T09:05:21Z</time>
      </trkpt>
      <trkpt lat="45.98582" lon="4.86802">
        <ele>277</ele>
        <time>2018-05-25T09:05:22Z</time>
      </trkpt>
      <trkpt lat="45.98583" lon="4.8681">
        <ele>277</ele>
        <time>2018-05-25T09:05:23Z</time>
      </trkpt>
      <trkpt lat="45.98584" lon="4.86815">
        <ele>276</ele>
        <time>2018-05-25T09:05:24Z</time>
      </trkpt>
      <trkpt lat="45.98585" lon="4.86825">
        <ele>277</ele>
        <time>2018-05-25T09:05:25Z</time>
      </trkpt>
      <trkpt lat="45.98586" lon="4.86834">
        <ele>277</ele>
        <time>2018-05-25T09:05:26Z</time>
      </trkpt>
      <trkpt lat="45.98588" lon="4.86842">
        <ele>277</ele>
        <time>2018-05-25T09:05:27Z</time>
      </trkpt>
      <trkpt lat="45.98588" lon="4.8685">
        <ele>277</ele>
        <time>2018-05-25T09:05:28Z</time>
      </trkpt>
      <trkpt lat="45.98588" lon="4.86858">
        <ele>277</ele>
        <time>2018-05-25T09:05:29Z</time>
      </trkpt>
      <trkpt lat="45.98587" lon="4.86867">
        <ele>277</ele>
        <time>2018-05-25T09:05:30Z</time>
      </trkpt>
      <trkpt lat="45.98587" lon="4.86875">
        <ele>277</ele>
        <time>2018-05-25T09:05:31Z</time>
      </trkpt>
      <trkpt lat="45.98587" lon="4.86884">
        <ele>278</ele>
        <time>2018-05-25T09:05:32Z</time>
      </trkpt>
      <trkpt lat="45.98587" lon="4.86893">
        <ele>278</ele>
        <time>2018-05-25T09:05:33Z</time>
      </trkpt>
      <trkpt lat="45.98587" lon="4.86902">
        <ele>278</ele>
        <time>2018-05-25T09:05:34Z</time>
      </trkpt>
      <trkpt lat="45.98586" lon="4.86911">
        <ele>279</ele>
        <time>2018-05-25T09:05:35Z</time>
      </trkpt>
      <trkpt lat="45.98586" lon="4.8692">
        <ele>279</ele>
        <time>2018-05-25T09:05:36Z</time>
      </trkpt>
      <trkpt lat="45.98586" lon="4.86929">
        <ele>279</ele>
        <time>2018-05-25T09:05:37Z</time>
      </trkpt>
      <trkpt lat="45.98585" lon="4.86937">
        <ele>279</ele>
        <time>2018-05-25T09:05:38Z</time>
      </trkpt>
      <trkpt lat="45.98585" lon="4.86945">
        <ele>279</ele>
        <time>2018-05-25T09:05:39Z</time>
      </trkpt>
      <trkpt lat="45.98585" lon="4.86952">
        <ele>279</ele>
        <time>2018-05-25T09:05:40Z</time>
      </trkpt>
      <trkpt lat="45.98585" lon="4.86959">
        <ele>279</ele>
        <time>2018-05-25T09:05:41Z</time>
      </trkpt>
      <trkpt lat="45.98586" lon="4.86967">
        <ele>279</ele>
        <time>2018-05-25T09:05:42Z</time>
      </trkpt>
      <trkpt lat="45.98587" lon="4.86975">
        <ele>279</ele>
        <time>2018-05-25T09:05:43Z</time>
      </trkpt>
      <trkpt lat="45.98588" lon="4.86984">
        <ele>279</ele>
        <time>2018-05-25T09:05:44Z</time>
      </trkpt>
      <trkpt lat="45.98589" lon="4.86991">
        <ele>279</ele>
        <time>2018-05-25T09:05:45Z</time>
      </trkpt>
      <trkpt lat="45.98591" lon="4.86998">
        <ele>279</ele>
        <time>2018-05-25T09:05:46Z</time>
      </trkpt>
      <trkpt lat="45.98592" lon="4.87007">
        <ele>279</ele>
        <time>2018-05-25T09:05:47Z</time>
      </trkpt>
      <trkpt lat="45.98593" lon="4.87016">
        <ele>279</ele>
        <time>2018-05-25T09:05:48Z</time>
      </trkpt>
      <trkpt lat="45.98594" lon="4.87024">
        <ele>279</ele>
        <time>2018-05-25T09:05:49Z</time>
      </trkpt>
      <trkpt lat="45.98595" lon="4.87032">
        <ele>279</ele>
        <time>2018-05-25T09:05:50Z</time>
      </trkpt>
      <trkpt lat="45.98596" lon="4.87041">
        <ele>279</ele>
        <time>2018-05-25T09:05:51Z</time>
      </trkpt>
      <trkpt lat="45.986" lon="4.87052">
        <ele>279</ele>
        <time>2018-05-25T09:05:52Z</time>
      </trkpt>
      <trkpt lat="45.98601" lon="4.8706">
        <ele>279</ele>
        <time>2018-05-25T09:05:53Z</time>
      </trkpt>
      <trkpt lat="45.98603" lon="4.87069">
        <ele>279</ele>
        <time>2018-05-25T09:05:54Z</time>
      </trkpt>
      <trkpt lat="45.98604" lon="4.87074">
        <ele>279</ele>
        <time>2018-05-25T09:05:55Z</time>
      </trkpt>
      <trkpt lat="45.98605" lon="4.8708">
        <ele>279</ele>
        <time>2018-05-25T09:05:56Z</time>
      </trkpt>
      <trkpt lat="45.98605" lon="4.87087">
        <ele>279</ele>
        <time>2018-05-25T09:05:57Z</time>
      </trkpt>
      <trkpt lat="45.98607" lon="4.87096">
        <ele>279</ele>
        <time>2018-05-25T09:05:58Z</time>
      </trkpt>
      <trkpt lat="45.98608" lon="4.87103">
        <ele>279</ele>
        <time>2018-05-25T09:05:59Z</time>
      </trkpt>
      <trkpt lat="45.9861" lon="4.8711">
        <ele>279</ele>
        <time>2018-05-25T09:06:00Z</time>
      </trkpt>
      <trkpt lat="45.98611" lon="4.8712">
        <ele>279</ele>
        <time>2018-05-25T09:06:01Z</time>
      </trkpt>
      <trkpt lat="45.98612" lon="4.87129">
        <ele>279</ele>
        <time>2018-05-25T09:06:02Z</time>
      </trkpt>
      <trkpt lat="45.98611" lon="4.87138">
        <ele>279</ele>
        <time>2018-05-25T09:06:03Z</time>
      </trkpt>
      <trkpt lat="45.98611" lon="4.87147">
        <ele>278</ele>
        <time>2018-05-25T09:06:04Z</time>
      </trkpt>
      <trkpt lat="45.9861" lon="4.87156">
        <ele>278</ele>
        <time>2018-05-25T09:06:05Z</time>
      </trkpt>
      <trkpt lat="45.98609" lon="4.87166">
        <ele>278</ele>
        <time>2018-05-25T09:06:06Z</time>
      </trkpt>
      <trkpt lat="45.98607" lon="4.87172">
        <ele>277</ele>
        <time>2018-05-25T09:06:07Z</time>
      </trkpt>
      <trkpt lat="45.98607" lon="4.87181">
        <ele>277</ele>
        <time>2018-05-25T09:06:08Z</time>
      </trkpt>
      <trkpt lat="45.98607" lon="4.8719">
        <ele>277</ele>
        <time>2018-05-25T09:06:09Z</time>
      </trkpt>
      <trkpt lat="45.98607" lon="4.872">
        <ele>277</ele>
        <time>2018-05-25T09:06:10Z</time>
      </trkpt>
      <trkpt lat="45.98606" lon="4.87207">
        <ele>277</ele>
        <time>2018-05-25T09:06:11Z</time>
      </trkpt>
      <trkpt lat="45.98604" lon="4.87215">
        <ele>277</ele>
        <time>2018-05-25T09:06:12Z</time>
      </trkpt>
      <trkpt lat="45.98604" lon="4.87223">
        <ele>277</ele>
        <time>2018-05-25T09:06:13Z</time>
      </trkpt>
      <trkpt lat="45.98603" lon="4.87232">
        <ele>277</ele>
        <time>2018-05-25T09:06:14Z</time>
      </trkpt>
      <trkpt lat="45.986" lon="4.87242">
        <ele>277</ele>
        <time>2018-05-25T09:06:15Z</time>
      </trkpt>
      <trkpt lat="45.98599" lon="4.87252">
        <ele>275</ele>
        <time>2018-05-25T09:06:16Z</time>
      </trkpt>
      <trkpt lat="45.98597" lon="4.8726">
        <ele>275</ele>
        <time>2018-05-25T09:06:17Z</time>
      </trkpt>
      <trkpt lat="45.98596" lon="4.8727">
        <ele>275</ele>
        <time>2018-05-25T09:06:18Z</time>
      </trkpt>
      <trkpt lat="45.98596" lon="4.87277">
        <ele>275</ele>
        <time>2018-05-25T09:06:19Z</time>
      </trkpt>
      <trkpt lat="45.98601" lon="4.87289">
        <ele>275</ele>
        <time>2018-05-25T09:06:20Z</time>
      </trkpt>
      <trkpt lat="45.98598" lon="4.87301">
        <ele>274</ele>
        <time>2018-05-25T09:06:21Z</time>
      </trkpt>
      <trkpt lat="45.98599" lon="4.87313">
        <ele>274</ele>
        <time>2018-05-25T09:06:22Z</time>
      </trkpt>
      <trkpt lat="45.98602" lon="4.87323">
        <ele>274</ele>
        <time>2018-05-25T09:06:23Z</time>
      </trkpt>
      <trkpt lat="45.98603" lon="4.87332">
        <ele>274</ele>
        <time>2018-05-25T09:06:24Z</time>
      </trkpt>
      <trkpt lat="45.98606" lon="4.87341">
        <ele>272</ele>
        <time>2018-05-25T09:06:25Z</time>
      </trkpt>
      <trkpt lat="45.98608" lon="4.87351">
        <ele>272</ele>
        <time>2018-05-25T09:06:26Z</time>
      </trkpt>
      <trkpt lat="45.98611" lon="4.87362">
        <ele>272</ele>
        <time>2018-05-25T09:06:27Z</time>
      </trkpt>
      <trkpt lat="45.98611" lon="4.87373">
        <ele>271</ele>
        <time>2018-05-25T09:06:28Z</time>
      </trkpt>
      <trkpt lat="45.98613" lon="4.87383">
        <ele>271</ele>
        <time>2018-05-25T09:06:29Z</time>
      </trkpt>
      <trkpt lat="45.98614" lon="4.87398">
        <ele>271</ele>
        <time>2018-05-25T09:06:30Z</time>
      </trkpt>
      <trkpt lat="45.98616" lon="4.87408">
        <ele>271</ele>
        <time>2018-05-25T09:06:31Z</time>
      </trkpt>
      <trkpt lat="45.98617" lon="4.87418">
        <ele>269</ele>
        <time>2018-05-25T09:06:32Z</time>
      </trkpt>
      <trkpt lat="45.98619" lon="4.87428">
        <ele>269</ele>
        <time>2018-05-25T09:06:33Z</time>
      </trkpt>
      <trkpt lat="45.9862" lon="4.87439">
        <ele>269</ele>
        <time>2018-05-25T09:06:34Z</time>
      </trkpt>
      <trkpt lat="45.98622" lon="4.8745">
        <ele>268</ele>
        <time>2018-05-25T09:06:35Z</time>
      </trkpt>
      <trkpt lat="45.98624" lon="4.8746">
        <ele>268</ele>
        <time>2018-05-25T09:06:36Z</time>
      </trkpt>
      <trkpt lat="45.98626" lon="4.8747">
        <ele>268</ele>
        <time>2018-05-25T09:06:37Z</time>
      </trkpt>
      <trkpt lat="45.98629" lon="4.87481">
        <ele>268</ele>
        <time>2018-05-25T09:06:38Z</time>
      </trkpt>
      <trkpt lat="45.98631" lon="4.8749">
        <ele>268</ele>
        <time>2018-05-25T09:06:39Z</time>
      </trkpt>
      <trkpt lat="45.98633" lon="4.875">
        <ele>267</ele>
        <time>2018-05-25T09:06:40Z</time>
      </trkpt>
      <trkpt lat="45.98635" lon="4.87509">
        <ele>267</ele>
        <time>2018-05-25T09:06:41Z</time>
      </trkpt>
      <trkpt lat="45.98634" lon="4.87519">
        <ele>267</ele>
        <time>2018-05-25T09:06:42Z</time>
      </trkpt>
      <trkpt lat="45.98636" lon="4.87528">
        <ele>267</ele>
        <time>2018-05-25T09:06:43Z</time>
      </trkpt>
      <trkpt lat="45.98639" lon="4.87538">
        <ele>267</ele>
        <time>2018-05-25T09:06:44Z</time>
      </trkpt>
      <trkpt lat="45.98642" lon="4.87544">
        <ele>267</ele>
        <time>2018-05-25T09:06:45Z</time>
      </trkpt>
      <trkpt lat="45.9865" lon="4.87556">
        <ele>267</ele>
        <time>2018-05-25T09:06:46Z</time>
      </trkpt>
      <trkpt lat="45.98655" lon="4.87563">
        <ele>267</ele>
        <time>2018-05-25T09:06:47Z</time>
      </trkpt>
      <trkpt lat="45.98658" lon="4.87569">
        <ele>267</ele>
        <time>2018-05-25T09:06:48Z</time>
      </trkpt>
      <trkpt lat="45.98665" lon="4.87566">
        <ele>267</ele>
        <time>2018-05-25T09:06:49Z</time>
      </trkpt>
      <trkpt lat="45.9867" lon="4.87567">
        <ele>267</ele>
        <time>2018-05-25T09:06:50Z</time>
      </trkpt>
      <trkpt lat="45.98677" lon="4.87565">
        <ele>267</ele>
        <time>2018-05-25T09:06:51Z</time>
      </trkpt>
      <trkpt lat="45.98683" lon="4.87564">
        <ele>267</ele>
        <time>2018-05-25T09:06:52Z</time>
      </trkpt>
      <trkpt lat="45.98691" lon="4.87562">
        <ele>267</ele>
        <time>2018-05-25T09:06:54Z</time>
      </trkpt>
      <trkpt lat="45.98697" lon="4.87563">
        <ele>267</ele>
        <time>2018-05-25T09:06:55Z</time>
      </trkpt>
      <trkpt lat="45.98703" lon="4.8756">
        <ele>267</ele>
        <time>2018-05-25T09:06:56Z</time>
      </trkpt>
      <trkpt lat="45.98707" lon="4.87559">
        <ele>267</ele>
        <time>2018-05-25T09:06:57Z</time>
      </trkpt>
      <trkpt lat="45.98713" lon="4.87561">
        <ele>267</ele>
        <time>2018-05-25T09:06:59Z</time>
      </trkpt>
      <trkpt lat="45.9872" lon="4.87561">
        <ele>267</ele>
        <time>2018-05-25T09:07:00Z</time>
      </trkpt>
      <trkpt lat="45.98724" lon="4.87561">
        <ele>267</ele>
        <time>2018-05-25T09:07:01Z</time>
      </trkpt>
      <trkpt lat="45.98729" lon="4.87561">
        <ele>267</ele>
        <time>2018-05-25T09:07:02Z</time>
      </trkpt>
      <trkpt lat="45.98736" lon="4.8756">
        <ele>267</ele>
        <time>2018-05-25T09:07:03Z</time>
      </trkpt>
      <trkpt lat="45.98742" lon="4.87559">
        <ele>267</ele>
        <time>2018-05-25T09:07:04Z</time>
      </trkpt>
      <trkpt lat="45.98746" lon="4.87562">
        <ele>267</ele>
        <time>2018-05-25T09:07:05Z</time>
      </trkpt>
      <trkpt lat="45.98752" lon="4.87565">
        <ele>269</ele>
        <time>2018-05-25T09:07:06Z</time>
      </trkpt>
      <trkpt lat="45.98759" lon="4.87568">
        <ele>269</ele>
        <time>2018-05-25T09:07:09Z</time>
      </trkpt>
      <trkpt lat="45.98766" lon="4.87575">
        <ele>269</ele>
        <time>2018-05-25T09:07:10Z</time>
      </trkpt>
      <trkpt lat="45.98769" lon="4.87581">
        <ele>269</ele>
        <time>2018-05-25T09:07:11Z</time>
      </trkpt>
      <trkpt lat="45.98776" lon="4.87586">
        <ele>270</ele>
        <time>2018-05-25T09:07:12Z</time>
      </trkpt>
      <trkpt lat="45.98781" lon="4.87589">
        <ele>270</ele>
        <time>2018-05-25T09:07:13Z</time>
      </trkpt>
      <trkpt lat="45.98788" lon="4.87592">
        <ele>271</ele>
        <time>2018-05-25T09:07:14Z</time>
      </trkpt>
      <trkpt lat="45.98792" lon="4.87597">
        <ele>271</ele>
        <time>2018-05-25T09:07:15Z</time>
      </trkpt>
      <trkpt lat="45.98794" lon="4.87602">
        <ele>271</ele>
        <time>2018-05-25T09:07:16Z</time>
      </trkpt>
      <trkpt lat="45.98799" lon="4.87612">
        <ele>271</ele>
        <time>2018-05-25T09:07:18Z</time>
      </trkpt>
      <trkpt lat="45.98798" lon="4.87618">
        <ele>271</ele>
        <time>2018-05-25T09:07:19Z</time>
      </trkpt>
      <trkpt lat="45.98803" lon="4.87628">
        <ele>271</ele>
        <time>2018-05-25T09:07:21Z</time>
      </trkpt>
      <trkpt lat="45.98807" lon="4.87633">
        <ele>271</ele>
        <time>2018-05-25T09:07:22Z</time>
      </trkpt>
      <trkpt lat="45.9881" lon="4.87635">
        <ele>271</ele>
        <time>2018-05-25T09:07:24Z</time>
      </trkpt>
      <trkpt lat="45.98814" lon="4.87642">
        <ele>272</ele>
        <time>2018-05-25T09:07:25Z</time>
      </trkpt>
      <trkpt lat="45.98817" lon="4.87646">
        <ele>272</ele>
        <time>2018-05-25T09:07:27Z</time>
      </trkpt>
      <trkpt lat="45.98819" lon="4.87658">
        <ele>272</ele>
        <time>2018-05-25T09:07:28Z</time>
      </trkpt>
      <trkpt lat="45.98823" lon="4.87664">
        <ele>272</ele>
        <time>2018-05-25T09:07:29Z</time>
      </trkpt>
      <trkpt lat="45.98823" lon="4.8767">
        <ele>273</ele>
        <time>2018-05-25T09:07:30Z</time>
      </trkpt>
      <trkpt lat="45.98824" lon="4.87672">
        <ele>273</ele>
        <time>2018-05-25T09:07:31Z</time>
      </trkpt>
      <trkpt lat="45.98825" lon="4.87686">
        <ele>273</ele>
        <time>2018-05-25T09:07:32Z</time>
      </trkpt>
      <trkpt lat="45.98827" lon="4.87694">
        <ele>273</ele>
        <time>2018-05-25T09:07:33Z</time>
      </trkpt>
      <trkpt lat="45.98828" lon="4.87701">
        <ele>273</ele>
        <time>2018-05-25T09:07:34Z</time>
      </trkpt>
      <trkpt lat="45.9883" lon="4.87713">
        <ele>273</ele>
        <time>2018-05-25T09:07:36Z</time>
      </trkpt>
      <trkpt lat="45.98831" lon="4.87719">
        <ele>274</ele>
        <time>2018-05-25T09:07:37Z</time>
      </trkpt>
      <trkpt lat="45.98833" lon="4.87725">
        <ele>274</ele>
        <time>2018-05-25T09:07:38Z</time>
      </trkpt>
      <trkpt lat="45.98835" lon="4.87731">
        <ele>273</ele>
        <time>2018-05-25T09:07:39Z</time>
      </trkpt>
      <trkpt lat="45.98836" lon="4.87743">
        <ele>273</ele>
        <time>2018-05-25T09:07:41Z</time>
      </trkpt>
      <trkpt lat="45.98838" lon="4.87747">
        <ele>273</ele>
        <time>2018-05-25T09:07:42Z</time>
      </trkpt>
      <trkpt lat="45.98839" lon="4.87753">
        <ele>273</ele>
        <time>2018-05-25T09:07:43Z</time>
      </trkpt>
      <trkpt lat="45.98841" lon="4.8776">
        <ele>273</ele>
        <time>2018-05-25T09:07:44Z</time>
      </trkpt>
      <trkpt lat="45.98844" lon="4.87768">
        <ele>273</ele>
        <time>2018-05-25T09:07:46Z</time>
      </trkpt>
      <trkpt lat="45.98844" lon="4.87774">
        <ele>273</ele>
        <time>2018-05-25T09:07:47Z</time>
      </trkpt>
      <trkpt lat="45.98847" lon="4.87784">
        <ele>273</ele>
        <time>2018-05-25T09:07:49Z</time>
      </trkpt>
      <trkpt lat="45.98849" lon="4.87791">
        <ele>273</ele>
        <time>2018-05-25T09:07:50Z</time>
      </trkpt>
      <trkpt lat="45.98851" lon="4.87797">
        <ele>273</ele>
        <time>2018-05-25T09:07:51Z</time>
      </trkpt>
      <trkpt lat="45.98853" lon="4.87804">
        <ele>273</ele>
        <time>2018-05-25T09:07:52Z</time>
      </trkpt>
      <trkpt lat="45.98859" lon="4.87812">
        <ele>273</ele>
        <time>2018-05-25T09:07:54Z</time>
      </trkpt>
      <trkpt lat="45.98861" lon="4.87818">
        <ele>273</ele>
        <time>2018-05-25T09:07:55Z</time>
      </trkpt>
      <trkpt lat="45.98865" lon="4.87824">
        <ele>273</ele>
        <time>2018-05-25T09:07:56Z</time>
      </trkpt>
      <trkpt lat="45.98868" lon="4.87828">
        <ele>273</ele>
        <time>2018-05-25T09:07:57Z</time>
      </trkpt>
      <trkpt lat="45.98869" lon="4.87837">
        <ele>273</ele>
        <time>2018-05-25T09:07:58Z</time>
      </trkpt>
      <trkpt lat="45.98872" lon="4.87841">
        <ele>273</ele>
        <time>2018-05-25T09:07:59Z</time>
      </trkpt>
      <trkpt lat="45.98876" lon="4.87853">
        <ele>272</ele>
        <time>2018-05-25T09:08:01Z</time>
      </trkpt>
      <trkpt lat="45.98879" lon="4.87858">
        <ele>272</ele>
        <time>2018-05-25T09:08:02Z</time>
      </trkpt>
      <trkpt lat="45.98882" lon="4.87863">
        <ele>272</ele>
        <time>2018-05-25T09:08:03Z</time>
      </trkpt>
      <trkpt lat="45.98884" lon="4.87868">
        <ele>272</ele>
        <time>2018-05-25T09:08:04Z</time>
      </trkpt>
      <trkpt lat="45.98891" lon="4.87876">
        <ele>272</ele>
        <time>2018-05-25T09:08:06Z</time>
      </trkpt>
      <trkpt lat="45.98894" lon="4.8788">
        <ele>272</ele>
        <time>2018-05-25T09:08:07Z</time>
      </trkpt>
      <trkpt lat="45.98901" lon="4.87889">
        <ele>272</ele>
        <time>2018-05-25T09:08:09Z</time>
      </trkpt>
      <trkpt lat="45.98904" lon="4.87892">
        <ele>272</ele>
        <time>2018-05-25T09:08:10Z</time>
      </trkpt>
      <trkpt lat="45.9891" lon="4.879">
        <ele>272</ele>
        <time>2018-05-25T09:08:12Z</time>
      </trkpt>
      <trkpt lat="45.98912" lon="4.87902">
        <ele>272</ele>
        <time>2018-05-25T09:08:13Z</time>
      </trkpt>
      <trkpt lat="45.98917" lon="4.87906">
        <ele>272</ele>
        <time>2018-05-25T09:08:14Z</time>
      </trkpt>
      <trkpt lat="45.9892" lon="4.87908">
        <ele>272</ele>
        <time>2018-05-25T09:08:15Z</time>
      </trkpt>
      <trkpt lat="45.98928" lon="4.87912">
        <ele>272</ele>
        <time>2018-05-25T09:08:18Z</time>
      </trkpt>
      <trkpt lat="45.9893" lon="4.87914">
        <ele>273</ele>
        <time>2018-05-25T09:08:19Z</time>
      </trkpt>
      <trkpt lat="45.98936" lon="4.8792">
        <ele>272</ele>
        <time>2018-05-25T09:08:22Z</time>
      </trkpt>
      <trkpt lat="45.98938" lon="4.87922">
        <ele>272</ele>
        <time>2018-05-25T09:08:23Z</time>
      </trkpt>
      <trkpt lat="45.98945" lon="4.87926">
        <ele>273</ele>
        <time>2018-05-25T09:08:26Z</time>
      </trkpt>
      <trkpt lat="45.98953" lon="4.87932">
        <ele>273</ele>
        <time>2018-05-25T09:08:27Z</time>
      </trkpt>
      <trkpt lat="45.9896" lon="4.87936">
        <ele>273</ele>
        <time>2018-05-25T09:08:30Z</time>
      </trkpt>
      <trkpt lat="45.98961" lon="4.87938">
        <ele>273</ele>
        <time>2018-05-25T09:08:31Z</time>
      </trkpt>
      <trkpt lat="45.98967" lon="4.87944">
        <ele>274</ele>
        <time>2018-05-25T09:08:35Z</time>
      </trkpt>
      <trkpt lat="45.9897" lon="4.87945">
        <ele>274</ele>
        <time>2018-05-25T09:08:36Z</time>
      </trkpt>
      <trkpt lat="45.98977" lon="4.8795">
        <ele>274</ele>
        <time>2018-05-25T09:08:39Z</time>
      </trkpt>
      <trkpt lat="45.9898" lon="4.87952">
        <ele>274</ele>
        <time>2018-05-25T09:08:40Z</time>
      </trkpt>
      <trkpt lat="45.98988" lon="4.87956">
        <ele>274</ele>
        <time>2018-05-25T09:08:41Z</time>
      </trkpt>
      <trkpt lat="45.98991" lon="4.87959">
        <ele>274</ele>
        <time>2018-05-25T09:08:42Z</time>
      </trkpt>
      <trkpt lat="45.98998" lon="4.87962">
        <ele>274</ele>
        <time>2018-05-25T09:08:46Z</time>
      </trkpt>
      <trkpt lat="45.99" lon="4.87963">
        <ele>274</ele>
        <time>2018-05-25T09:08:47Z</time>
      </trkpt>
      <trkpt lat="45.99007" lon="4.87966">
        <ele>276</ele>
        <time>2018-05-25T09:08:50Z</time>
      </trkpt>
      <trkpt lat="45.99017" lon="4.87968">
        <ele>276</ele>
        <time>2018-05-25T09:08:51Z</time>
      </trkpt>
      <trkpt lat="45.99024" lon="4.87974">
        <ele>276</ele>
        <time>2018-05-25T09:08:56Z</time>
      </trkpt>
      <trkpt lat="45.99026" lon="4.87976">
        <ele>276</ele>
        <time>2018-05-25T09:08:57Z</time>
      </trkpt>
      <trkpt lat="45.99034" lon="4.87981">
        <ele>276</ele>
        <time>2018-05-25T09:09:00Z</time>
      </trkpt>
      <trkpt lat="45.99037" lon="4.87983">
        <ele>276</ele>
        <time>2018-05-25T09:09:01Z</time>
      </trkpt>
      <trkpt lat="45.99043" lon="4.87986">
        <ele>277</ele>
        <time>2018-05-25T09:09:03Z</time>
      </trkpt>
      <trkpt lat="45.99046" lon="4.87987">
        <ele>277</ele>
        <time>2018-05-25T09:09:04Z</time>
      </trkpt>
      <trkpt lat="45.99057" lon="4.87992">
        <ele>277</ele>
        <time>2018-05-25T09:09:05Z</time>
      </trkpt>
      <trkpt lat="45.99063" lon="4.87994">
        <ele>277</ele>
        <time>2018-05-25T09:09:07Z</time>
      </trkpt>
      <trkpt lat="45.99067" lon="4.87997">
        <ele>277</ele>
        <time>2018-05-25T09:09:08Z</time>
      </trkpt>
      <trkpt lat="45.99074" lon="4.88">
        <ele>278</ele>
        <time>2018-05-25T09:09:11Z</time>
      </trkpt>
      <trkpt lat="45.99077" lon="4.88002">
        <ele>278</ele>
        <time>2018-05-25T09:09:12Z</time>
      </trkpt>
      <trkpt lat="45.99085" lon="4.88006">
        <ele>278</ele>
        <time>2018-05-25T09:09:13Z</time>
      </trkpt>
      <trkpt lat="45.99086" lon="4.88007">
        <ele>278</ele>
        <time>2018-05-25T09:09:14Z</time>
      </trkpt>
      <trkpt lat="45.99094" lon="4.88012">
        <ele>278</ele>
        <time>2018-05-25T09:09:17Z</time>
      </trkpt>
      <trkpt lat="45.99097" lon="4.88014">
        <ele>278</ele>
        <time>2018-05-25T09:09:18Z</time>
      </trkpt>
      <trkpt lat="45.99103" lon="4.88017">
        <ele>278</ele>
        <time>2018-05-25T09:09:20Z</time>
      </trkpt>
      <trkpt lat="45.99106" lon="4.88018">
        <ele>278</ele>
        <time>2018-05-25T09:09:21Z</time>
      </trkpt>
      <trkpt lat="45.99116" lon="4.88023">
        <ele>278</ele>
        <time>2018-05-25T09:09:22Z</time>
      </trkpt>
      <trkpt lat="45.99123" lon="4.88027">
        <ele>278</ele>
        <time>2018-05-25T09:09:25Z</time>
      </trkpt>
      <trkpt lat="45.9913" lon="4.8803">
        <ele>279</ele>
        <time>2018-05-25T09:09:26Z</time>
      </trkpt>
      <trkpt lat="45.99138" lon="4.88033">
        <ele>279</ele>
        <time>2018-05-25T09:09:28Z</time>
      </trkpt>
      <trkpt lat="45.99142" lon="4.88036">
        <ele>279</ele>
        <time>2018-05-25T09:09:29Z</time>
      </trkpt>
      <trkpt lat="45.9915" lon="4.8804">
        <ele>279</ele>
        <time>2018-05-25T09:09:31Z</time>
      </trkpt>
      <trkpt lat="45.99153" lon="4.88042">
        <ele>279</ele>
        <time>2018-05-25T09:09:32Z</time>
      </trkpt>
      <trkpt lat="45.99161" lon="4.88048">
        <ele>279</ele>
        <time>2018-05-25T09:09:34Z</time>
      </trkpt>
      <trkpt lat="45.99164" lon="4.8805">
        <ele>279</ele>
        <time>2018-05-25T09:09:35Z</time>
      </trkpt>
      <trkpt lat="45.99168" lon="4.88053">
        <ele>279</ele>
        <time>2018-05-25T09:09:37Z</time>
      </trkpt>
      <trkpt lat="45.99174" lon="4.88058">
        <ele>279</ele>
        <time>2018-05-25T09:09:38Z</time>
      </trkpt>
      <trkpt lat="45.9918" lon="4.88062">
        <ele>279</ele>
        <time>2018-05-25T09:09:41Z</time>
      </trkpt>
      <trkpt lat="45.99183" lon="4.88064">
        <ele>279</ele>
        <time>2018-05-25T09:09:42Z</time>
      </trkpt>
      <trkpt lat="45.99189" lon="4.88069">
        <ele>280</ele>
        <time>2018-05-25T09:09:44Z</time>
      </trkpt>
      <trkpt lat="45.99191" lon="4.88071">
        <ele>280</ele>
        <time>2018-05-25T09:09:45Z</time>
      </trkpt>
      <trkpt lat="45.99197" lon="4.88075">
        <ele>280</ele>
        <time>2018-05-25T09:09:47Z</time>
      </trkpt>
      <trkpt lat="45.992" lon="4.88078">
        <ele>280</ele>
        <time>2018-05-25T09:09:48Z</time>
      </trkpt>
      <trkpt lat="45.99202" lon="4.8808">
        <ele>280</ele>
        <time>2018-05-25T09:09:49Z</time>
      </trkpt>
      <trkpt lat="45.99211" lon="4.88088">
        <ele>280</ele>
        <time>2018-05-25T09:09:50Z</time>
      </trkpt>
      <trkpt lat="45.99216" lon="4.88093">
        <ele>280</ele>
        <time>2018-05-25T09:09:52Z</time>
      </trkpt>
      <trkpt lat="45.99219" lon="4.88096">
        <ele>280</ele>
        <time>2018-05-25T09:09:53Z</time>
      </trkpt>
      <trkpt lat="45.99226" lon="4.88102">
        <ele>280</ele>
        <time>2018-05-25T09:09:55Z</time>
      </trkpt>
      <trkpt lat="45.99229" lon="4.88104">
        <ele>280</ele>
        <time>2018-05-25T09:09:56Z</time>
      </trkpt>
      <trkpt lat="45.99235" lon="4.88109">
        <ele>280</ele>
        <time>2018-05-25T09:09:58Z</time>
      </trkpt>
      <trkpt lat="45.99238" lon="4.88112">
        <ele>280</ele>
        <time>2018-05-25T09:09:59Z</time>
      </trkpt>
      <trkpt lat="45.99244" lon="4.88118">
        <ele>280</ele>
        <time>2018-05-25T09:10:01Z</time>
      </trkpt>
      <trkpt lat="45.99247" lon="4.8812">
        <ele>280</ele>
        <time>2018-05-25T09:10:02Z</time>
      </trkpt>
      <trkpt lat="45.99254" lon="4.88126">
        <ele>283</ele>
        <time>2018-05-25T09:10:04Z</time>
      </trkpt>
      <trkpt lat="45.99255" lon="4.88127">
        <ele>283</ele>
        <time>2018-05-25T09:10:05Z</time>
      </trkpt>
      <trkpt lat="45.99262" lon="4.88133">
        <ele>283</ele>
        <time>2018-05-25T09:10:07Z</time>
      </trkpt>
      <trkpt lat="45.99267" lon="4.88137">
        <ele>283</ele>
        <time>2018-05-25T09:10:08Z</time>
      </trkpt>
      <trkpt lat="45.99273" lon="4.88142">
        <ele>283</ele>
        <time>2018-05-25T09:10:11Z</time>
      </trkpt>
      <trkpt lat="45.99281" lon="4.88147">
        <ele>284</ele>
        <time>2018-05-25T09:10:12Z</time>
      </trkpt>
      <trkpt lat="45.99286" lon="4.88151">
        <ele>284</ele>
        <time>2018-05-25T09:10:14Z</time>
      </trkpt>
      <trkpt lat="45.99291" lon="4.88155">
        <ele>284</ele>
        <time>2018-05-25T09:10:15Z</time>
      </trkpt>
      <trkpt lat="45.99295" lon="4.88159">
        <ele>284</ele>
        <time>2018-05-25T09:10:17Z</time>
      </trkpt>
      <trkpt lat="45.993" lon="4.88165">
        <ele>285</ele>
        <time>2018-05-25T09:10:18Z</time>
      </trkpt>
      <trkpt lat="45.99304" lon="4.88168">
        <ele>285</ele>
        <time>2018-05-25T09:10:20Z</time>
      </trkpt>
      <trkpt lat="45.9931" lon="4.88172">
        <ele>285</ele>
        <time>2018-05-25T09:10:21Z</time>
      </trkpt>
      <trkpt lat="45.99316" lon="4.88179">
        <ele>285</ele>
        <time>2018-05-25T09:10:23Z</time>
      </trkpt>
      <trkpt lat="45.99318" lon="4.88183">
        <ele>285</ele>
        <time>2018-05-25T09:10:24Z</time>
      </trkpt>
      <trkpt lat="45.99324" lon="4.8819">
        <ele>285</ele>
        <time>2018-05-25T09:10:26Z</time>
      </trkpt>
      <trkpt lat="45.99327" lon="4.88194">
        <ele>285</ele>
        <time>2018-05-25T09:10:27Z</time>
      </trkpt>
      <trkpt lat="45.99333" lon="4.882">
        <ele>285</ele>
        <time>2018-05-25T09:10:29Z</time>
      </trkpt>
      <trkpt lat="45.99335" lon="4.88201">
        <ele>288</ele>
        <time>2018-05-25T09:10:30Z</time>
      </trkpt>
      <trkpt lat="45.99339" lon="4.88206">
        <ele>288</ele>
        <time>2018-05-25T09:10:31Z</time>
      </trkpt>
      <trkpt lat="45.99342" lon="4.88209">
        <ele>287</ele>
        <time>2018-05-25T09:10:32Z</time>
      </trkpt>
      <trkpt lat="45.99348" lon="4.88216">
        <ele>287</ele>
        <time>2018-05-25T09:10:34Z</time>
      </trkpt>
      <trkpt lat="45.9935" lon="4.88217">
        <ele>287</ele>
        <time>2018-05-25T09:10:35Z</time>
      </trkpt>
      <trkpt lat="45.99354" lon="4.88221">
        <ele>287</ele>
        <time>2018-05-25T09:10:36Z</time>
      </trkpt>
      <trkpt lat="45.99358" lon="4.88224">
        <ele>287</ele>
        <time>2018-05-25T09:10:37Z</time>
      </trkpt>
      <trkpt lat="45.99365" lon="4.88231">
        <ele>287</ele>
        <time>2018-05-25T09:10:39Z</time>
      </trkpt>
      <trkpt lat="45.99368" lon="4.88235">
        <ele>287</ele>
        <time>2018-05-25T09:10:40Z</time>
      </trkpt>
      <trkpt lat="45.99374" lon="4.88243">
        <ele>287</ele>
        <time>2018-05-25T09:10:42Z</time>
      </trkpt>
      <trkpt lat="45.99378" lon="4.88247">
        <ele>287</ele>
        <time>2018-05-25T09:10:43Z</time>
      </trkpt>
      <trkpt lat="45.99384" lon="4.88255">
        <ele>285</ele>
        <time>2018-05-25T09:10:45Z</time>
      </trkpt>
      <trkpt lat="45.99387" lon="4.88259">
        <ele>285</ele>
        <time>2018-05-25T09:10:46Z</time>
      </trkpt>
      <trkpt lat="45.99392" lon="4.88269">
        <ele>285</ele>
        <time>2018-05-25T09:10:48Z</time>
      </trkpt>
      <trkpt lat="45.99395" lon="4.88274">
        <ele>284</ele>
        <time>2018-05-25T09:10:49Z</time>
      </trkpt>
      <trkpt lat="45.99399" lon="4.88284">
        <ele>284</ele>
        <time>2018-05-25T09:10:51Z</time>
      </trkpt>
      <trkpt lat="45.99401" lon="4.88289">
        <ele>284</ele>
        <time>2018-05-25T09:10:52Z</time>
      </trkpt>
      <trkpt lat="45.99405" lon="4.883">
        <ele>284</ele>
        <time>2018-05-25T09:10:54Z</time>
      </trkpt>
      <trkpt lat="45.99407" lon="4.88305">
        <ele>284</ele>
        <time>2018-05-25T09:10:55Z</time>
      </trkpt>
      <trkpt lat="45.99411" lon="4.88316">
        <ele>283</ele>
        <time>2018-05-25T09:10:57Z</time>
      </trkpt>
      <trkpt lat="45.99413" lon="4.88322">
        <ele>283</ele>
        <time>2018-05-25T09:10:58Z</time>
      </trkpt>
      <trkpt lat="45.99418" lon="4.88332">
        <ele>282</ele>
        <time>2018-05-25T09:11:00Z</time>
      </trkpt>
      <trkpt lat="45.9942" lon="4.88337">
        <ele>282</ele>
        <time>2018-05-25T09:11:01Z</time>
      </trkpt>
      <trkpt lat="45.99424" lon="4.88347">
        <ele>282</ele>
        <time>2018-05-25T09:11:03Z</time>
      </trkpt>
      <trkpt lat="45.99425" lon="4.88352">
        <ele>283</ele>
        <time>2018-05-25T09:11:04Z</time>
      </trkpt>
      <trkpt lat="45.99429" lon="4.88362">
        <ele>283</ele>
        <time>2018-05-25T09:11:06Z</time>
      </trkpt>
      <trkpt lat="45.99432" lon="4.88368">
        <ele>283</ele>
        <time>2018-05-25T09:11:07Z</time>
      </trkpt>
      <trkpt lat="45.99436" lon="4.88378">
        <ele>283</ele>
        <time>2018-05-25T09:11:09Z</time>
      </trkpt>
      <trkpt lat="45.99438" lon="4.88384">
        <ele>283</ele>
        <time>2018-05-25T09:11:10Z</time>
      </trkpt>
      <trkpt lat="45.99443" lon="4.88393">
        <ele>283</ele>
        <time>2018-05-25T09:11:12Z</time>
      </trkpt>
      <trkpt lat="45.99447" lon="4.88398">
        <ele>283</ele>
        <time>2018-05-25T09:11:13Z</time>
      </trkpt>
      <trkpt lat="45.99453" lon="4.88407">
        <ele>283</ele>
        <time>2018-05-25T09:11:15Z</time>
      </trkpt>
      <trkpt lat="45.99456" lon="4.88409">
        <ele>283</ele>
        <time>2018-05-25T09:11:16Z</time>
      </trkpt>
      <trkpt lat="45.9946" lon="4.88412">
        <ele>283</ele>
        <time>2018-05-25T09:11:17Z</time>
      </trkpt>
      <trkpt lat="45.99464" lon="4.88415">
        <ele>283</ele>
        <time>2018-05-25T09:11:18Z</time>
      </trkpt>
      <trkpt lat="45.99468" lon="4.88419">
        <ele>284</ele>
        <time>2018-05-25T09:11:19Z</time>
      </trkpt>
      <trkpt lat="45.99472" lon="4.88423">
        <ele>284</ele>
        <time>2018-05-25T09:11:20Z</time>
      </trkpt>
      <trkpt lat="45.99475" lon="4.88427">
        <ele>284</ele>
        <time>2018-05-25T09:11:21Z</time>
      </trkpt>
      <trkpt lat="45.99479" lon="4.88431">
        <ele>284</ele>
        <time>2018-05-25T09:11:22Z</time>
      </trkpt>
      <trkpt lat="45.99482" lon="4.88436">
        <ele>284</ele>
        <time>2018-05-25T09:11:23Z</time>
      </trkpt>
      <trkpt lat="45.99486" lon="4.88442">
        <ele>284</ele>
        <time>2018-05-25T09:11:24Z</time>
      </trkpt>
      <trkpt lat="45.99491" lon="4.88452">
        <ele>284</ele>
        <time>2018-05-25T09:11:26Z</time>
      </trkpt>
      <trkpt lat="45.99493" lon="4.88456">
        <ele>284</ele>
        <time>2018-05-25T09:11:27Z</time>
      </trkpt>
      <trkpt lat="45.99499" lon="4.88466">
        <ele>284</ele>
        <time>2018-05-25T09:11:29Z</time>
      </trkpt>
      <trkpt lat="45.995" lon="4.88473">
        <ele>284</ele>
        <time>2018-05-25T09:11:30Z</time>
      </trkpt>
      <trkpt lat="45.99503" lon="4.88479">
        <ele>284</ele>
        <time>2018-05-25T09:11:31Z</time>
      </trkpt>
      <trkpt lat="45.99506" lon="4.88485">
        <ele>284</ele>
        <time>2018-05-25T09:11:32Z</time>
      </trkpt>
      <trkpt lat="45.99508" lon="4.88491">
        <ele>284</ele>
        <time>2018-05-25T09:11:33Z</time>
      </trkpt>
      <trkpt lat="45.9951" lon="4.88496">
        <ele>284</ele>
        <time>2018-05-25T09:11:34Z</time>
      </trkpt>
      <trkpt lat="45.99514" lon="4.88501">
        <ele>284</ele>
        <time>2018-05-25T09:11:35Z</time>
      </trkpt>
      <trkpt lat="45.99517" lon="4.88507">
        <ele>285</ele>
        <time>2018-05-25T09:11:36Z</time>
      </trkpt>
      <trkpt lat="45.99519" lon="4.88512">
        <ele>285</ele>
        <time>2018-05-25T09:11:37Z</time>
      </trkpt>
      <trkpt lat="45.99522" lon="4.88517">
        <ele>285</ele>
        <time>2018-05-25T09:11:38Z</time>
      </trkpt>
      <trkpt lat="45.99524" lon="4.88523">
        <ele>285</ele>
        <time>2018-05-25T09:11:39Z</time>
      </trkpt>
      <trkpt lat="45.99526" lon="4.88528">
        <ele>285</ele>
        <time>2018-05-25T09:11:40Z</time>
      </trkpt>
      <trkpt lat="45.99529" lon="4.88534">
        <ele>285</ele>
        <time>2018-05-25T09:11:41Z</time>
      </trkpt>
      <trkpt lat="45.99531" lon="4.8854">
        <ele>285</ele>
        <time>2018-05-25T09:11:42Z</time>
      </trkpt>
      <trkpt lat="45.99536" lon="4.88551">
        <ele>285</ele>
        <time>2018-05-25T09:11:44Z</time>
      </trkpt>
      <trkpt lat="45.99538" lon="4.88557">
        <ele>285</ele>
        <time>2018-05-25T09:11:45Z</time>
      </trkpt>
      <trkpt lat="45.99543" lon="4.88568">
        <ele>285</ele>
        <time>2018-05-25T09:11:47Z</time>
      </trkpt>
      <trkpt lat="45.99544" lon="4.88574">
        <ele>286</ele>
        <time>2018-05-25T09:11:48Z</time>
      </trkpt>
      <trkpt lat="45.99546" lon="4.8858">
        <ele>286</ele>
        <time>2018-05-25T09:11:49Z</time>
      </trkpt>
      <trkpt lat="45.99548" lon="4.88586">
        <ele>286</ele>
        <time>2018-05-25T09:11:50Z</time>
      </trkpt>
      <trkpt lat="45.99549" lon="4.88593">
        <ele>286</ele>
        <time>2018-05-25T09:11:51Z</time>
      </trkpt>
      <trkpt lat="45.99549" lon="4.88599">
        <ele>286</ele>
        <time>2018-05-25T09:11:52Z</time>
      </trkpt>
      <trkpt lat="45.9955" lon="4.88606">
        <ele>286</ele>
        <time>2018-05-25T09:11:53Z</time>
      </trkpt>
      <trkpt lat="45.9955" lon="4.88613">
        <ele>286</ele>
        <time>2018-05-25T09:11:54Z</time>
      </trkpt>
      <trkpt lat="45.99551" lon="4.8862">
        <ele>286</ele>
        <time>2018-05-25T09:11:55Z</time>
      </trkpt>
      <trkpt lat="45.99551" lon="4.88627">
        <ele>286</ele>
        <time>2018-05-25T09:11:56Z</time>
      </trkpt>
      <trkpt lat="45.99551" lon="4.88633">
        <ele>286</ele>
        <time>2018-05-25T09:11:57Z</time>
      </trkpt>
      <trkpt lat="45.99552" lon="4.8864">
        <ele>286</ele>
        <time>2018-05-25T09:11:58Z</time>
      </trkpt>
      <trkpt lat="45.99554" lon="4.88647">
        <ele>286</ele>
        <time>2018-05-25T09:11:59Z</time>
      </trkpt>
      <trkpt lat="45.99555" lon="4.88652">
        <ele>286</ele>
        <time>2018-05-25T09:12:00Z</time>
      </trkpt>
      <trkpt lat="45.99557" lon="4.88665">
        <ele>286</ele>
        <time>2018-05-25T09:12:02Z</time>
      </trkpt>
      <trkpt lat="45.99559" lon="4.8867">
        <ele>286</ele>
        <time>2018-05-25T09:12:03Z</time>
      </trkpt>
      <trkpt lat="45.99558" lon="4.88682">
        <ele>286</ele>
        <time>2018-05-25T09:12:05Z</time>
      </trkpt>
      <trkpt lat="45.99558" lon="4.88687">
        <ele>286</ele>
        <time>2018-05-25T09:12:06Z</time>
      </trkpt>
      <trkpt lat="45.99559" lon="4.88698">
        <ele>286</ele>
        <time>2018-05-25T09:12:08Z</time>
      </trkpt>
      <trkpt lat="45.9956" lon="4.88704">
        <ele>286</ele>
        <time>2018-05-25T09:12:09Z</time>
      </trkpt>
      <trkpt lat="45.99562" lon="4.88715">
        <ele>286</ele>
        <time>2018-05-25T09:12:11Z</time>
      </trkpt>
      <trkpt lat="45.99563" lon="4.88721">
        <ele>286</ele>
        <time>2018-05-25T09:12:12Z</time>
      </trkpt>
      <trkpt lat="45.99563" lon="4.88733">
        <ele>287</ele>
        <time>2018-05-25T09:12:14Z</time>
      </trkpt>
      <trkpt lat="45.99564" lon="4.88739">
        <ele>287</ele>
        <time>2018-05-25T09:12:15Z</time>
      </trkpt>
      <trkpt lat="45.99565" lon="4.88751">
        <ele>287</ele>
        <time>2018-05-25T09:12:17Z</time>
      </trkpt>
      <trkpt lat="45.99566" lon="4.88757">
        <ele>287</ele>
        <time>2018-05-25T09:12:18Z</time>
      </trkpt>
      <trkpt lat="45.99566" lon="4.88768">
        <ele>287</ele>
        <time>2018-05-25T09:12:20Z</time>
      </trkpt>
      <trkpt lat="45.99567" lon="4.88774">
        <ele>287</ele>
        <time>2018-05-25T09:12:21Z</time>
      </trkpt>
      <trkpt lat="45.99569" lon="4.88785">
        <ele>287</ele>
        <time>2018-05-25T09:12:23Z</time>
      </trkpt>
      <trkpt lat="45.99569" lon="4.8879">
        <ele>287</ele>
        <time>2018-05-25T09:12:24Z</time>
      </trkpt>
      <trkpt lat="45.99571" lon="4.88802">
        <ele>287</ele>
        <time>2018-05-25T09:12:26Z</time>
      </trkpt>
      <trkpt lat="45.99571" lon="4.88807">
        <ele>287</ele>
        <time>2018-05-25T09:12:27Z</time>
      </trkpt>
      <trkpt lat="45.99571" lon="4.88815">
        <ele>287</ele>
        <time>2018-05-25T09:12:28Z</time>
      </trkpt>
      <trkpt lat="45.99571" lon="4.88821">
        <ele>287</ele>
        <time>2018-05-25T09:12:29Z</time>
      </trkpt>
      <trkpt lat="45.99572" lon="4.88833">
        <ele>287</ele>
        <time>2018-05-25T09:12:31Z</time>
      </trkpt>
      <trkpt lat="45.99573" lon="4.8884">
        <ele>287</ele>
        <time>2018-05-25T09:12:32Z</time>
      </trkpt>
      <trkpt lat="45.99573" lon="4.88851">
        <ele>287</ele>
        <time>2018-05-25T09:12:34Z</time>
      </trkpt>
      <trkpt lat="45.99573" lon="4.88857">
        <ele>287</ele>
        <time>2018-05-25T09:12:35Z</time>
      </trkpt>
      <trkpt lat="45.99574" lon="4.88869">
        <ele>287</ele>
        <time>2018-05-25T09:12:37Z</time>
      </trkpt>
      <trkpt lat="45.99574" lon="4.88874">
        <ele>287</ele>
        <time>2018-05-25T09:12:38Z</time>
      </trkpt>
      <trkpt lat="45.99576" lon="4.88886">
        <ele>287</ele>
        <time>2018-05-25T09:12:40Z</time>
      </trkpt>
      <trkpt lat="45.99578" lon="4.88894">
        <ele>287</ele>
        <time>2018-05-25T09:12:41Z</time>
      </trkpt>
      <trkpt lat="45.99579" lon="4.88906">
        <ele>287</ele>
        <time>2018-05-25T09:12:43Z</time>
      </trkpt>
      <trkpt lat="45.9958" lon="4.88912">
        <ele>287</ele>
        <time>2018-05-25T09:12:44Z</time>
      </trkpt>
      <trkpt lat="45.99581" lon="4.88923">
        <ele>287</ele>
        <time>2018-05-25T09:12:46Z</time>
      </trkpt>
      <trkpt lat="45.99581" lon="4.88929">
        <ele>287</ele>
        <time>2018-05-25T09:12:47Z</time>
      </trkpt>
      <trkpt lat="45.99581" lon="4.88936">
        <ele>287</ele>
        <time>2018-05-25T09:12:49Z</time>
      </trkpt>
      <trkpt lat="45.99582" lon="4.88944">
        <ele>287</ele>
        <time>2018-05-25T09:12:50Z</time>
      </trkpt>
      <trkpt lat="45.99582" lon="4.88951">
        <ele>287</ele>
        <time>2018-05-25T09:12:51Z</time>
      </trkpt>
      <trkpt lat="45.99582" lon="4.88957">
        <ele>287</ele>
        <time>2018-05-25T09:12:52Z</time>
      </trkpt>
      <trkpt lat="45.99583" lon="4.8897">
        <ele>287</ele>
        <time>2018-05-25T09:12:54Z</time>
      </trkpt>
      <trkpt lat="45.99584" lon="4.88976">
        <ele>288</ele>
        <time>2018-05-25T09:12:55Z</time>
      </trkpt>
      <trkpt lat="45.99583" lon="4.88986">
        <ele>288</ele>
        <time>2018-05-25T09:12:56Z</time>
      </trkpt>
      <trkpt lat="45.99583" lon="4.88993">
        <ele>288</ele>
        <time>2018-05-25T09:12:57Z</time>
      </trkpt>
      <trkpt lat="45.99584" lon="4.89005">
        <ele>288</ele>
        <time>2018-05-25T09:12:59Z</time>
      </trkpt>
      <trkpt lat="45.99584" lon="4.89012">
        <ele>288</ele>
        <time>2018-05-25T09:13:00Z</time>
      </trkpt>
      <trkpt lat="45.99584" lon="4.89019">
        <ele>288</ele>
        <time>2018-05-25T09:13:01Z</time>
      </trkpt>
      <trkpt lat="45.99584" lon="4.89026">
        <ele>288</ele>
        <time>2018-05-25T09:13:02Z</time>
      </trkpt>
      <trkpt lat="45.99583" lon="4.89033">
        <ele>288</ele>
        <time>2018-05-25T09:13:03Z</time>
      </trkpt>
      <trkpt lat="45.99582" lon="4.89042">
        <ele>288</ele>
        <time>2018-05-25T09:13:04Z</time>
      </trkpt>
      <trkpt lat="45.99582" lon="4.8905">
        <ele>288</ele>
        <time>2018-05-25T09:13:05Z</time>
      </trkpt>
      <trkpt lat="45.99582" lon="4.89057">
        <ele>289</ele>
        <time>2018-05-25T09:13:06Z</time>
      </trkpt>
      <trkpt lat="45.99581" lon="4.89065">
        <ele>289</ele>
        <time>2018-05-25T09:13:07Z</time>
      </trkpt>
      <trkpt lat="45.99579" lon="4.89071">
        <ele>289</ele>
        <time>2018-05-25T09:13:08Z</time>
      </trkpt>
      <trkpt lat="45.99578" lon="4.89078">
        <ele>289</ele>
        <time>2018-05-25T09:13:09Z</time>
      </trkpt>
      <trkpt lat="45.9958" lon="4.89086">
        <ele>289</ele>
        <time>2018-05-25T09:13:10Z</time>
      </trkpt>
      <trkpt lat="45.99579" lon="4.89094">
        <ele>289</ele>
        <time>2018-05-25T09:13:11Z</time>
      </trkpt>
      <trkpt lat="45.99579" lon="4.89102">
        <ele>289</ele>
        <time>2018-05-25T09:13:12Z</time>
      </trkpt>
      <trkpt lat="45.99579" lon="4.89109">
        <ele>289</ele>
        <time>2018-05-25T09:13:13Z</time>
      </trkpt>
      <trkpt lat="45.99579" lon="4.89116">
        <ele>289</ele>
        <time>2018-05-25T09:13:14Z</time>
      </trkpt>
      <trkpt lat="45.99579" lon="4.89124">
        <ele>289</ele>
        <time>2018-05-25T09:13:15Z</time>
      </trkpt>
      <trkpt lat="45.99579" lon="4.8913">
        <ele>289</ele>
        <time>2018-05-25T09:13:16Z</time>
      </trkpt>
      <trkpt lat="45.9958" lon="4.8914">
        <ele>289</ele>
        <time>2018-05-25T09:13:17Z</time>
      </trkpt>
      <trkpt lat="45.99579" lon="4.89146">
        <ele>289</ele>
        <time>2018-05-25T09:13:18Z</time>
      </trkpt>
      <trkpt lat="45.9958" lon="4.89158">
        <ele>288</ele>
        <time>2018-05-25T09:13:20Z</time>
      </trkpt>
      <trkpt lat="45.99581" lon="4.89164">
        <ele>288</ele>
        <time>2018-05-25T09:13:21Z</time>
      </trkpt>
      <trkpt lat="45.99581" lon="4.89175">
        <ele>288</ele>
        <time>2018-05-25T09:13:23Z</time>
      </trkpt>
      <trkpt lat="45.99581" lon="4.8918">
        <ele>288</ele>
        <time>2018-05-25T09:13:24Z</time>
      </trkpt>
      <trkpt lat="45.99582" lon="4.89187">
        <ele>288</ele>
        <time>2018-05-25T09:13:25Z</time>
      </trkpt>
      <trkpt lat="45.99582" lon="4.89193">
        <ele>288</ele>
        <time>2018-05-25T09:13:26Z</time>
      </trkpt>
      <trkpt lat="45.99585" lon="4.89204">
        <ele>288</ele>
        <time>2018-05-25T09:13:28Z</time>
      </trkpt>
      <trkpt lat="45.99586" lon="4.89211">
        <ele>288</ele>
        <time>2018-05-25T09:13:29Z</time>
      </trkpt>
      <trkpt lat="45.99587" lon="4.89218">
        <ele>288</ele>
        <time>2018-05-25T09:13:30Z</time>
      </trkpt>
      <trkpt lat="45.99588" lon="4.89224">
        <ele>288</ele>
        <time>2018-05-25T09:13:31Z</time>
      </trkpt>
      <trkpt lat="45.99588" lon="4.89236">
        <ele>288</ele>
        <time>2018-05-25T09:13:33Z</time>
      </trkpt>
      <trkpt lat="45.99588" lon="4.89242">
        <ele>288</ele>
        <time>2018-05-25T09:13:34Z</time>
      </trkpt>
      <trkpt lat="45.99589" lon="4.89254">
        <ele>288</ele>
        <time>2018-05-25T09:13:36Z</time>
      </trkpt>
      <trkpt lat="45.9959" lon="4.89261">
        <ele>288</ele>
        <time>2018-05-25T09:13:37Z</time>
      </trkpt>
      <trkpt lat="45.9959" lon="4.89267">
        <ele>288</ele>
        <time>2018-05-25T09:13:38Z</time>
      </trkpt>
      <trkpt lat="45.9959" lon="4.89276">
        <ele>289</ele>
        <time>2018-05-25T09:13:39Z</time>
      </trkpt>
      <trkpt lat="45.99591" lon="4.89282">
        <ele>289</ele>
        <time>2018-05-25T09:13:40Z</time>
      </trkpt>
      <trkpt lat="45.99592" lon="4.8929">
        <ele>289</ele>
        <time>2018-05-25T09:13:41Z</time>
      </trkpt>
      <trkpt lat="45.99592" lon="4.89301">
        <ele>289</ele>
        <time>2018-05-25T09:13:43Z</time>
      </trkpt>
      <trkpt lat="45.99592" lon="4.89308">
        <ele>289</ele>
        <time>2018-05-25T09:13:44Z</time>
      </trkpt>
      <trkpt lat="45.99593" lon="4.89314">
        <ele>289</ele>
        <time>2018-05-25T09:13:45Z</time>
      </trkpt>
      <trkpt lat="45.99594" lon="4.89322">
        <ele>289</ele>
        <time>2018-05-25T09:13:46Z</time>
      </trkpt>
      <trkpt lat="45.99595" lon="4.89329">
        <ele>289</ele>
        <time>2018-05-25T09:13:47Z</time>
      </trkpt>
      <trkpt lat="45.99596" lon="4.89336">
        <ele>289</ele>
        <time>2018-05-25T09:13:48Z</time>
      </trkpt>
      <trkpt lat="45.99596" lon="4.89348">
        <ele>289</ele>
        <time>2018-05-25T09:13:50Z</time>
      </trkpt>
      <trkpt lat="45.99597" lon="4.89354">
        <ele>289</ele>
        <time>2018-05-25T09:13:51Z</time>
      </trkpt>
      <trkpt lat="45.99598" lon="4.89366">
        <ele>289</ele>
        <time>2018-05-25T09:13:53Z</time>
      </trkpt>
      <trkpt lat="45.99599" lon="4.89372">
        <ele>289</ele>
        <time>2018-05-25T09:13:54Z</time>
      </trkpt>
      <trkpt lat="45.99599" lon="4.89384">
        <ele>290</ele>
        <time>2018-05-25T09:13:56Z</time>
      </trkpt>
      <trkpt lat="45.99599" lon="4.8939">
        <ele>290</ele>
        <time>2018-05-25T09:13:57Z</time>
      </trkpt>
      <trkpt lat="45.996" lon="4.89396">
        <ele>290</ele>
        <time>2018-05-25T09:13:58Z</time>
      </trkpt>
      <trkpt lat="45.996" lon="4.89404">
        <ele>290</ele>
        <time>2018-05-25T09:13:59Z</time>
      </trkpt>
      <trkpt lat="45.99601" lon="4.89416">
        <ele>290</ele>
        <time>2018-05-25T09:14:01Z</time>
      </trkpt>
      <trkpt lat="45.99602" lon="4.89421">
        <ele>290</ele>
        <time>2018-05-25T09:14:02Z</time>
      </trkpt>
      <trkpt lat="45.99602" lon="4.89433">
        <ele>290</ele>
        <time>2018-05-25T09:14:04Z</time>
      </trkpt>
      <trkpt lat="45.99603" lon="4.8944">
        <ele>290</ele>
        <time>2018-05-25T09:14:05Z</time>
      </trkpt>
      <trkpt lat="45.99603" lon="4.89452">
        <ele>290</ele>
        <time>2018-05-25T09:14:07Z</time>
      </trkpt>
      <trkpt lat="45.99604" lon="4.89458">
        <ele>290</ele>
        <time>2018-05-25T09:14:08Z</time>
      </trkpt>
      <trkpt lat="45.99604" lon="4.89465">
        <ele>290</ele>
        <time>2018-05-25T09:14:09Z</time>
      </trkpt>
      <trkpt lat="45.99605" lon="4.89472">
        <ele>290</ele>
        <time>2018-05-25T09:14:10Z</time>
      </trkpt>
      <trkpt lat="45.99607" lon="4.89484">
        <ele>290</ele>
        <time>2018-05-25T09:14:12Z</time>
      </trkpt>
      <trkpt lat="45.99606" lon="4.89492">
        <ele>290</ele>
        <time>2018-05-25T09:14:13Z</time>
      </trkpt>
      <trkpt lat="45.99607" lon="4.89504">
        <ele>290</ele>
        <time>2018-05-25T09:14:15Z</time>
      </trkpt>
      <trkpt lat="45.99607" lon="4.89511">
        <ele>290</ele>
        <time>2018-05-25T09:14:16Z</time>
      </trkpt>
      <trkpt lat="45.99607" lon="4.89518">
        <ele>291</ele>
        <time>2018-05-25T09:14:17Z</time>
      </trkpt>
      <trkpt lat="45.99608" lon="4.89526">
        <ele>291</ele>
        <time>2018-05-25T09:14:18Z</time>
      </trkpt>
      <trkpt lat="45.99608" lon="4.89533">
        <ele>291</ele>
        <time>2018-05-25T09:14:19Z</time>
      </trkpt>
      <trkpt lat="45.9961" lon="4.8954">
        <ele>291</ele>
        <time>2018-05-25T09:14:20Z</time>
      </trkpt>
      <trkpt lat="45.99611" lon="4.89548">
        <ele>291</ele>
        <time>2018-05-25T09:14:21Z</time>
      </trkpt>
      <trkpt lat="45.99611" lon="4.89554">
        <ele>291</ele>
        <time>2018-05-25T09:14:22Z</time>
      </trkpt>
      <trkpt lat="45.99611" lon="4.89566">
        <ele>291</ele>
        <time>2018-05-25T09:14:24Z</time>
      </trkpt>
      <trkpt lat="45.99611" lon="4.89572">
        <ele>291</ele>
        <time>2018-05-25T09:14:25Z</time>
      </trkpt>
      <trkpt lat="45.99613" lon="4.89584">
        <ele>291</ele>
        <time>2018-05-25T09:14:27Z</time>
      </trkpt>
      <trkpt lat="45.99608" lon="4.8959">
        <ele>292</ele>
        <time>2018-05-25T09:14:28Z</time>
      </trkpt>
      <trkpt lat="45.99609" lon="4.89602">
        <ele>291</ele>
        <time>2018-05-25T09:14:30Z</time>
      </trkpt>
      <trkpt lat="45.99608" lon="4.89608">
        <ele>291</ele>
        <time>2018-05-25T09:14:31Z</time>
      </trkpt>
      <trkpt lat="45.99609" lon="4.8962">
        <ele>291</ele>
        <time>2018-05-25T09:14:33Z</time>
      </trkpt>
      <trkpt lat="45.99609" lon="4.89626">
        <ele>291</ele>
        <time>2018-05-25T09:14:34Z</time>
      </trkpt>
      <trkpt lat="45.99609" lon="4.89638">
        <ele>291</ele>
        <time>2018-05-25T09:14:36Z</time>
      </trkpt>
      <trkpt lat="45.9961" lon="4.89644">
        <ele>291</ele>
        <time>2018-05-25T09:14:37Z</time>
      </trkpt>
      <trkpt lat="45.99609" lon="4.89652">
        <ele>291</ele>
        <time>2018-05-25T09:14:39Z</time>
      </trkpt>
      <trkpt lat="45.99609" lon="4.89659">
        <ele>291</ele>
        <time>2018-05-25T09:14:40Z</time>
      </trkpt>
      <trkpt lat="45.99608" lon="4.8967">
        <ele>291</ele>
        <time>2018-05-25T09:14:42Z</time>
      </trkpt>
      <trkpt lat="45.99606" lon="4.89675">
        <ele>291</ele>
        <time>2018-05-25T09:14:43Z</time>
      </trkpt>
      <trkpt lat="45.99606" lon="4.89687">
        <ele>291</ele>
        <time>2018-05-25T09:14:45Z</time>
      </trkpt>
      <trkpt lat="45.99605" lon="4.89693">
        <ele>291</ele>
        <time>2018-05-25T09:14:46Z</time>
      </trkpt>
      <trkpt lat="45.99604" lon="4.89705">
        <ele>292</ele>
        <time>2018-05-25T09:14:48Z</time>
      </trkpt>
      <trkpt lat="45.99604" lon="4.89707">
        <ele>292</ele>
        <time>2018-05-25T09:14:49Z</time>
      </trkpt>
      <trkpt lat="45.99604" lon="4.89715">
        <ele>292</ele>
        <time>2018-05-25T09:14:50Z</time>
      </trkpt>
      <trkpt lat="45.99604" lon="4.89721">
        <ele>292</ele>
        <time>2018-05-25T09:14:51Z</time>
      </trkpt>
      <trkpt lat="45.99604" lon="4.89728">
        <ele>292</ele>
        <time>2018-05-25T09:14:52Z</time>
      </trkpt>
      <trkpt lat="45.99604" lon="4.89735">
        <ele>292</ele>
        <time>2018-05-25T09:14:53Z</time>
      </trkpt>
      <trkpt lat="45.99604" lon="4.89742">
        <ele>292</ele>
        <time>2018-05-25T09:14:54Z</time>
      </trkpt>
      <trkpt lat="45.99604" lon="4.89749">
        <ele>292</ele>
        <time>2018-05-25T09:14:55Z</time>
      </trkpt>
      <trkpt lat="45.99603" lon="4.89761">
        <ele>292</ele>
        <time>2018-05-25T09:14:57Z</time>
      </trkpt>
      <trkpt lat="45.99603" lon="4.8977">
        <ele>292</ele>
        <time>2018-05-25T09:14:58Z</time>
      </trkpt>
      <trkpt lat="45.99603" lon="4.89779">
        <ele>292</ele>
        <time>2018-05-25T09:15:00Z</time>
      </trkpt>
      <trkpt lat="45.99603" lon="4.89783">
        <ele>292</ele>
        <time>2018-05-25T09:15:01Z</time>
      </trkpt>
      <trkpt lat="45.99603" lon="4.89793">
        <ele>292</ele>
        <time>2018-05-25T09:15:02Z</time>
      </trkpt>
      <trkpt lat="45.99603" lon="4.89798">
        <ele>292</ele>
        <time>2018-05-25T09:15:03Z</time>
      </trkpt>
      <trkpt lat="45.99603" lon="4.89809">
        <ele>292</ele>
        <time>2018-05-25T09:15:05Z</time>
      </trkpt>
      <trkpt lat="45.99605" lon="4.89816">
        <ele>292</ele>
        <time>2018-05-25T09:15:06Z</time>
      </trkpt>
      <trkpt lat="45.99604" lon="4.89822">
        <ele>292</ele>
        <time>2018-05-25T09:15:07Z</time>
      </trkpt>
      <trkpt lat="45.99605" lon="4.8983">
        <ele>292</ele>
        <time>2018-05-25T09:15:08Z</time>
      </trkpt>
      <trkpt lat="45.99605" lon="4.89836">
        <ele>293</ele>
        <time>2018-05-25T09:15:09Z</time>
      </trkpt>
      <trkpt lat="45.99605" lon="4.89844">
        <ele>293</ele>
        <time>2018-05-25T09:15:10Z</time>
      </trkpt>
      <trkpt lat="45.99604" lon="4.89855">
        <ele>293</ele>
        <time>2018-05-25T09:15:12Z</time>
      </trkpt>
      <trkpt lat="45.99604" lon="4.8986">
        <ele>293</ele>
        <time>2018-05-25T09:15:13Z</time>
      </trkpt>
      <trkpt lat="45.99603" lon="4.89871">
        <ele>293</ele>
        <time>2018-05-25T09:15:15Z</time>
      </trkpt>
      <trkpt lat="45.99603" lon="4.89876">
        <ele>292</ele>
        <time>2018-05-25T09:15:16Z</time>
      </trkpt>
      <trkpt lat="45.99601" lon="4.89888">
        <ele>292</ele>
        <time>2018-05-25T09:15:18Z</time>
      </trkpt>
      <trkpt lat="45.996" lon="4.89893">
        <ele>292</ele>
        <time>2018-05-25T09:15:19Z</time>
      </trkpt>
      <trkpt lat="45.99601" lon="4.89899">
        <ele>292</ele>
        <time>2018-05-25T09:15:20Z</time>
      </trkpt>
      <trkpt lat="45.99603" lon="4.89906">
        <ele>292</ele>
        <time>2018-05-25T09:15:21Z</time>
      </trkpt>
      <trkpt lat="45.99603" lon="4.89917">
        <ele>293</ele>
        <time>2018-05-25T09:15:23Z</time>
      </trkpt>
      <trkpt lat="45.99603" lon="4.89923">
        <ele>293</ele>
        <time>2018-05-25T09:15:24Z</time>
      </trkpt>
      <trkpt lat="45.99602" lon="4.89935">
        <ele>293</ele>
        <time>2018-05-25T09:15:27Z</time>
      </trkpt>
      <trkpt lat="45.99602" lon="4.89946">
        <ele>294</ele>
        <time>2018-05-25T09:15:28Z</time>
      </trkpt>
      <trkpt lat="45.99604" lon="4.89957">
        <ele>294</ele>
        <time>2018-05-25T09:15:30Z</time>
      </trkpt>
      <trkpt lat="45.99605" lon="4.89962">
        <ele>294</ele>
        <time>2018-05-25T09:15:31Z</time>
      </trkpt>
      <trkpt lat="45.99605" lon="4.89968">
        <ele>294</ele>
        <time>2018-05-25T09:15:32Z</time>
      </trkpt>
      <trkpt lat="45.99606" lon="4.89978">
        <ele>294</ele>
        <time>2018-05-25T09:15:33Z</time>
      </trkpt>
      <trkpt lat="45.99605" lon="4.89988">
        <ele>294</ele>
        <time>2018-05-25T09:15:35Z</time>
      </trkpt>
      <trkpt lat="45.99606" lon="4.89994">
        <ele>294</ele>
        <time>2018-05-25T09:15:36Z</time>
      </trkpt>
      <trkpt lat="45.99609" lon="4.90005">
        <ele>296</ele>
        <time>2018-05-25T09:15:38Z</time>
      </trkpt>
      <trkpt lat="45.9961" lon="4.9001">
        <ele>296</ele>
        <time>2018-05-25T09:15:39Z</time>
      </trkpt>
      <trkpt lat="45.99612" lon="4.90018">
        <ele>296</ele>
        <time>2018-05-25T09:15:41Z</time>
      </trkpt>
      <trkpt lat="45.99614" lon="4.90026">
        <ele>296</ele>
        <time>2018-05-25T09:15:42Z</time>
      </trkpt>
      <trkpt lat="45.99618" lon="4.90034">
        <ele>296</ele>
        <time>2018-05-25T09:15:44Z</time>
      </trkpt>
      <trkpt lat="45.9962" lon="4.90039">
        <ele>296</ele>
        <time>2018-05-25T09:15:45Z</time>
      </trkpt>
      <trkpt lat="45.99624" lon="4.90048">
        <ele>297</ele>
        <time>2018-05-25T09:15:47Z</time>
      </trkpt>
      <trkpt lat="45.99626" lon="4.90053">
        <ele>297</ele>
        <time>2018-05-25T09:15:48Z</time>
      </trkpt>
      <trkpt lat="45.99631" lon="4.90062">
        <ele>297</ele>
        <time>2018-05-25T09:15:50Z</time>
      </trkpt>
      <trkpt lat="45.99633" lon="4.90067">
        <ele>297</ele>
        <time>2018-05-25T09:15:51Z</time>
      </trkpt>
      <trkpt lat="45.99637" lon="4.90077">
        <ele>297</ele>
        <time>2018-05-25T09:15:54Z</time>
      </trkpt>
      <trkpt lat="45.9964" lon="4.90084">
        <ele>298</ele>
        <time>2018-05-25T09:15:55Z</time>
      </trkpt>
      <trkpt lat="45.99642" lon="4.90097">
        <ele>299</ele>
        <time>2018-05-25T09:15:58Z</time>
      </trkpt>
      <trkpt lat="45.99642" lon="4.901">
        <ele>299</ele>
        <time>2018-05-25T09:15:59Z</time>
      </trkpt>
      <trkpt lat="45.99645" lon="4.9011">
        <ele>299</ele>
        <time>2018-05-25T09:16:02Z</time>
      </trkpt>
      <trkpt lat="45.99646" lon="4.90114">
        <ele>299</ele>
        <time>2018-05-25T09:16:03Z</time>
      </trkpt>
      <trkpt lat="45.99648" lon="4.90126">
        <ele>299</ele>
        <time>2018-05-25T09:16:06Z</time>
      </trkpt>
      <trkpt lat="45.99649" lon="4.90129">
        <ele>299</ele>
        <time>2018-05-25T09:16:07Z</time>
      </trkpt>
      <trkpt lat="45.99652" lon="4.9014">
        <ele>300</ele>
        <time>2018-05-25T09:16:10Z</time>
      </trkpt>
      <trkpt lat="45.99653" lon="4.90144">
        <ele>300</ele>
        <time>2018-05-25T09:16:11Z</time>
      </trkpt>
      <trkpt lat="45.99656" lon="4.90154">
        <ele>300</ele>
        <time>2018-05-25T09:16:14Z</time>
      </trkpt>
      <trkpt lat="45.99657" lon="4.90158">
        <ele>300</ele>
        <time>2018-05-25T09:16:15Z</time>
      </trkpt>
      <trkpt lat="45.9966" lon="4.90169">
        <ele>301</ele>
        <time>2018-05-25T09:16:18Z</time>
      </trkpt>
      <trkpt lat="45.99662" lon="4.90172">
        <ele>301</ele>
        <time>2018-05-25T09:16:19Z</time>
      </trkpt>
      <trkpt lat="45.99665" lon="4.90182">
        <ele>301</ele>
        <time>2018-05-25T09:16:22Z</time>
      </trkpt>
      <trkpt lat="45.99666" lon="4.90185">
        <ele>301</ele>
        <time>2018-05-25T09:16:23Z</time>
      </trkpt>
      <trkpt lat="45.99669" lon="4.90197">
        <ele>303</ele>
        <time>2018-05-25T09:16:27Z</time>
      </trkpt>
      <trkpt lat="45.9967" lon="4.902">
        <ele>303</ele>
        <time>2018-05-25T09:16:28Z</time>
      </trkpt>
      <trkpt lat="45.99671" lon="4.9021">
        <ele>303</ele>
        <time>2018-05-25T09:16:31Z</time>
      </trkpt>
      <trkpt lat="45.99672" lon="4.90214">
        <ele>303</ele>
        <time>2018-05-25T09:16:32Z</time>
      </trkpt>
      <trkpt lat="45.99674" lon="4.90225">
        <ele>304</ele>
        <time>2018-05-25T09:16:35Z</time>
      </trkpt>
      <trkpt lat="45.99674" lon="4.90229">
        <ele>304</ele>
        <time>2018-05-25T09:16:36Z</time>
      </trkpt>
      <trkpt lat="45.99676" lon="4.90237">
        <ele>304</ele>
        <time>2018-05-25T09:16:38Z</time>
      </trkpt>
      <trkpt lat="45.99677" lon="4.90241">
        <ele>304</ele>
        <time>2018-05-25T09:16:39Z</time>
      </trkpt>
      <trkpt lat="45.99679" lon="4.9025">
        <ele>304</ele>
        <time>2018-05-25T09:16:41Z</time>
      </trkpt>
      <trkpt lat="45.9968" lon="4.90254">
        <ele>304</ele>
        <time>2018-05-25T09:16:42Z</time>
      </trkpt>
      <trkpt lat="45.9968" lon="4.90267">
        <ele>304</ele>
        <time>2018-05-25T09:16:45Z</time>
      </trkpt>
      <trkpt lat="45.99679" lon="4.90271">
        <ele>305</ele>
        <time>2018-05-25T09:16:46Z</time>
      </trkpt>
      <trkpt lat="45.99677" lon="4.90279">
        <ele>304</ele>
        <time>2018-05-25T09:16:48Z</time>
      </trkpt>
      <trkpt lat="45.99674" lon="4.90291">
        <ele>304</ele>
        <time>2018-05-25T09:16:49Z</time>
      </trkpt>
      <trkpt lat="45.99672" lon="4.90301">
        <ele>304</ele>
        <time>2018-05-25T09:16:51Z</time>
      </trkpt>
      <trkpt lat="45.99671" lon="4.90306">
        <ele>304</ele>
        <time>2018-05-25T09:16:52Z</time>
      </trkpt>
      <trkpt lat="45.9967" lon="4.90318">
        <ele>303</ele>
        <time>2018-05-25T09:16:56Z</time>
      </trkpt>
      <trkpt lat="45.9967" lon="4.90319">
        <ele>303</ele>
        <time>2018-05-25T09:16:57Z</time>
      </trkpt>
      <trkpt lat="45.99663" lon="4.90324">
        <ele>302</ele>
        <time>2018-05-25T09:17:06Z</time>
      </trkpt>
      <trkpt lat="45.99657" lon="4.90322">
        <ele>302</ele>
        <time>2018-05-25T09:17:07Z</time>
      </trkpt>
      <trkpt lat="45.99652" lon="4.90321">
        <ele>302</ele>
        <time>2018-05-25T09:17:08Z</time>
      </trkpt>
      <trkpt lat="45.99648" lon="4.90321">
        <ele>302</ele>
        <time>2018-05-25T09:17:09Z</time>
      </trkpt>
      <trkpt lat="45.99639" lon="4.90322">
        <ele>302</ele>
        <time>2018-05-25T09:17:11Z</time>
      </trkpt>
      <trkpt lat="45.99633" lon="4.90322">
        <ele>302</ele>
        <time>2018-05-25T09:17:12Z</time>
      </trkpt>
      <trkpt lat="45.99628" lon="4.90321">
        <ele>302</ele>
        <time>2018-05-25T09:17:13Z</time>
      </trkpt>
      <trkpt lat="45.99624" lon="4.90321">
        <ele>302</ele>
        <time>2018-05-25T09:17:14Z</time>
      </trkpt>
      <trkpt lat="45.99619" lon="4.90321">
        <ele>302</ele>
        <time>2018-05-25T09:17:15Z</time>
      </trkpt>
      <trkpt lat="45.99614" lon="4.9032">
        <ele>302</ele>
        <time>2018-05-25T09:17:16Z</time>
      </trkpt>
      <trkpt lat="45.99609" lon="4.90319">
        <ele>301</ele>
        <time>2018-05-25T09:17:17Z</time>
      </trkpt>
      <trkpt lat="45.99604" lon="4.9032">
        <ele>301</ele>
        <time>2018-05-25T09:17:18Z</time>
      </trkpt>
      <trkpt lat="45.99599" lon="4.90319">
        <ele>301</ele>
        <time>2018-05-25T09:17:19Z</time>
      </trkpt>
      <trkpt lat="45.99594" lon="4.90319">
        <ele>301</ele>
        <time>2018-05-25T09:17:20Z</time>
      </trkpt>
      <trkpt lat="45.99585" lon="4.90319">
        <ele>301</ele>
        <time>2018-05-25T09:17:22Z</time>
      </trkpt>
      <trkpt lat="45.99581" lon="4.90318">
        <ele>301</ele>
        <time>2018-05-25T09:17:23Z</time>
      </trkpt>
      <trkpt lat="45.99575" lon="4.90316">
        <ele>301</ele>
        <time>2018-05-25T09:17:24Z</time>
      </trkpt>
      <trkpt lat="45.9957" lon="4.90317">
        <ele>301</ele>
        <time>2018-05-25T09:17:25Z</time>
      </trkpt>
      <trkpt lat="45.99565" lon="4.90317">
        <ele>301</ele>
        <time>2018-05-25T09:17:26Z</time>
      </trkpt>
      <trkpt lat="45.9956" lon="4.90317">
        <ele>301</ele>
        <time>2018-05-25T09:17:27Z</time>
      </trkpt>
      <trkpt lat="45.99555" lon="4.90317">
        <ele>301</ele>
        <time>2018-05-25T09:17:28Z</time>
      </trkpt>
      <trkpt lat="45.99551" lon="4.90317">
        <ele>300</ele>
        <time>2018-05-25T09:17:29Z</time>
      </trkpt>
      <trkpt lat="45.99545" lon="4.90319">
        <ele>300</ele>
        <time>2018-05-25T09:17:30Z</time>
      </trkpt>
      <trkpt lat="45.9954" lon="4.90318">
        <ele>300</ele>
        <time>2018-05-25T09:17:31Z</time>
      </trkpt>
      <trkpt lat="45.99536" lon="4.90316">
        <ele>300</ele>
        <time>2018-05-25T09:17:32Z</time>
      </trkpt>
      <trkpt lat="45.99531" lon="4.90317">
        <ele>300</ele>
        <time>2018-05-25T09:17:33Z</time>
      </trkpt>
      <trkpt lat="45.99526" lon="4.90316">
        <ele>300</ele>
        <time>2018-05-25T09:17:34Z</time>
      </trkpt>
      <trkpt lat="45.9952" lon="4.90315">
        <ele>300</ele>
        <time>2018-05-25T09:17:35Z</time>
      </trkpt>
      <trkpt lat="45.99516" lon="4.90314">
        <ele>300</ele>
        <time>2018-05-25T09:17:36Z</time>
      </trkpt>
      <trkpt lat="45.9951" lon="4.90313">
        <ele>300</ele>
        <time>2018-05-25T09:17:37Z</time>
      </trkpt>
      <trkpt lat="45.99505" lon="4.90312">
        <ele>300</ele>
        <time>2018-05-25T09:17:38Z</time>
      </trkpt>
      <trkpt lat="45.995" lon="4.90311">
        <ele>300</ele>
        <time>2018-05-25T09:17:39Z</time>
      </trkpt>
      <trkpt lat="45.99495" lon="4.9031">
        <ele>300</ele>
        <time>2018-05-25T09:17:40Z</time>
      </trkpt>
      <trkpt lat="45.99489" lon="4.9031">
        <ele>300</ele>
        <time>2018-05-25T09:17:41Z</time>
      </trkpt>
      <trkpt lat="45.99484" lon="4.90309">
        <ele>300</ele>
        <time>2018-05-25T09:17:42Z</time>
      </trkpt>
      <trkpt lat="45.99479" lon="4.90309">
        <ele>300</ele>
        <time>2018-05-25T09:17:43Z</time>
      </trkpt>
      <trkpt lat="45.9947" lon="4.90307">
        <ele>300</ele>
        <time>2018-05-25T09:17:45Z</time>
      </trkpt>
      <trkpt lat="45.99465" lon="4.90304">
        <ele>300</ele>
        <time>2018-05-25T09:17:46Z</time>
      </trkpt>
      <trkpt lat="45.9946" lon="4.90304">
        <ele>300</ele>
        <time>2018-05-25T09:17:47Z</time>
      </trkpt>
      <trkpt lat="45.99455" lon="4.90303">
        <ele>300</ele>
        <time>2018-05-25T09:17:48Z</time>
      </trkpt>
      <trkpt lat="45.9945" lon="4.90303">
        <ele>300</ele>
        <time>2018-05-25T09:17:49Z</time>
      </trkpt>
      <trkpt lat="45.99445" lon="4.90303">
        <ele>300</ele>
        <time>2018-05-25T09:17:50Z</time>
      </trkpt>
      <trkpt lat="45.99441" lon="4.90303">
        <ele>300</ele>
        <time>2018-05-25T09:17:51Z</time>
      </trkpt>
      <trkpt lat="45.99436" lon="4.90301">
        <ele>300</ele>
        <time>2018-05-25T09:17:52Z</time>
      </trkpt>
      <trkpt lat="45.9943" lon="4.903">
        <ele>300</ele>
        <time>2018-05-25T09:17:53Z</time>
      </trkpt>
      <trkpt lat="45.99425" lon="4.903">
        <ele>300</ele>
        <time>2018-05-25T09:17:54Z</time>
      </trkpt>
      <trkpt lat="45.9942" lon="4.90299">
        <ele>300</ele>
        <time>2018-05-25T09:17:55Z</time>
      </trkpt>
      <trkpt lat="45.99414" lon="4.90299">
        <ele>300</ele>
        <time>2018-05-25T09:17:56Z</time>
      </trkpt>
      <trkpt lat="45.99408" lon="4.90297">
        <ele>300</ele>
        <time>2018-05-25T09:17:57Z</time>
      </trkpt>
      <trkpt lat="45.99402" lon="4.90297">
        <ele>300</ele>
        <time>2018-05-25T09:17:58Z</time>
      </trkpt>
      <trkpt lat="45.99397" lon="4.90296">
        <ele>300</ele>
        <time>2018-05-25T09:17:59Z</time>
      </trkpt>
      <trkpt lat="45.99392" lon="4.90296">
        <ele>300</ele>
        <time>2018-05-25T09:18:00Z</time>
      </trkpt>
      <trkpt lat="45.99387" lon="4.90295">
        <ele>300</ele>
        <time>2018-05-25T09:18:01Z</time>
      </trkpt>
      <trkpt lat="45.99381" lon="4.90295">
        <ele>300</ele>
        <time>2018-05-25T09:18:02Z</time>
      </trkpt>
      <trkpt lat="45.99376" lon="4.90295">
        <ele>300</ele>
        <time>2018-05-25T09:18:03Z</time>
      </trkpt>
      <trkpt lat="45.99371" lon="4.90295">
        <ele>300</ele>
        <time>2018-05-25T09:18:04Z</time>
      </trkpt>
      <trkpt lat="45.99362" lon="4.90294">
        <ele>300</ele>
        <time>2018-05-25T09:18:06Z</time>
      </trkpt>
      <trkpt lat="45.99357" lon="4.90294">
        <ele>300</ele>
        <time>2018-05-25T09:18:07Z</time>
      </trkpt>
      <trkpt lat="45.99349" lon="4.90293">
        <ele>300</ele>
        <time>2018-05-25T09:18:09Z</time>
      </trkpt>
      <trkpt lat="45.99344" lon="4.90293">
        <ele>300</ele>
        <time>2018-05-25T09:18:10Z</time>
      </trkpt>
      <trkpt lat="45.99339" lon="4.90293">
        <ele>300</ele>
        <time>2018-05-25T09:18:11Z</time>
      </trkpt>
      <trkpt lat="45.99334" lon="4.90292">
        <ele>300</ele>
        <time>2018-05-25T09:18:12Z</time>
      </trkpt>
      <trkpt lat="45.99326" lon="4.90288">
        <ele>299</ele>
        <time>2018-05-25T09:18:14Z</time>
      </trkpt>
      <trkpt lat="45.99323" lon="4.90285">
        <ele>299</ele>
        <time>2018-05-25T09:18:15Z</time>
      </trkpt>
      <trkpt lat="45.99315" lon="4.90278">
        <ele>299</ele>
        <time>2018-05-25T09:18:17Z</time>
      </trkpt>
      <trkpt lat="45.99312" lon="4.90272">
        <ele>299</ele>
        <time>2018-05-25T09:18:18Z</time>
      </trkpt>
      <trkpt lat="45.99309" lon="4.9026">
        <ele>299</ele>
        <time>2018-05-25T09:18:20Z</time>
      </trkpt>
      <trkpt lat="45.99307" lon="4.90255">
        <ele>299</ele>
        <time>2018-05-25T09:18:21Z</time>
      </trkpt>
      <trkpt lat="45.99303" lon="4.90246">
        <ele>298</ele>
        <time>2018-05-25T09:18:23Z</time>
      </trkpt>
      <trkpt lat="45.99299" lon="4.90237">
        <ele>298</ele>
        <time>2018-05-25T09:18:24Z</time>
      </trkpt>
      <trkpt lat="45.99293" lon="4.90233">
        <ele>298</ele>
        <time>2018-05-25T09:18:25Z</time>
      </trkpt>
      <trkpt lat="45.9929" lon="4.90228">
        <ele>298</ele>
        <time>2018-05-25T09:18:26Z</time>
      </trkpt>
      <trkpt lat="45.99286" lon="4.90223">
        <ele>298</ele>
        <time>2018-05-25T09:18:27Z</time>
      </trkpt>
      <trkpt lat="45.99282" lon="4.90218">
        <ele>298</ele>
        <time>2018-05-25T09:18:28Z</time>
      </trkpt>
      <trkpt lat="45.99276" lon="4.90209">
        <ele>298</ele>
        <time>2018-05-25T09:18:30Z</time>
      </trkpt>
      <trkpt lat="45.99275" lon="4.90207">
        <ele>298</ele>
        <time>2018-05-25T09:18:31Z</time>
      </trkpt>
      <trkpt lat="45.99267" lon="4.90202">
        <ele>298</ele>
        <time>2018-05-25T09:19:15Z</time>
      </trkpt>
      <trkpt lat="45.99266" lon="4.90201">
        <ele>298</ele>
        <time>2018-05-25T09:19:16Z</time>
      </trkpt>
      <trkpt lat="45.99259" lon="4.90193">
        <ele>298</ele>
        <time>2018-05-25T09:19:20Z</time>
      </trkpt>
      <trkpt lat="45.99257" lon="4.90191">
        <ele>298</ele>
        <time>2018-05-25T09:19:21Z</time>
      </trkpt>
      <trkpt lat="45.99255" lon="4.90188">
        <ele>298</ele>
        <time>2018-05-25T09:19:22Z</time>
      </trkpt>
      <trkpt lat="45.99248" lon="4.9018">
        <ele>297</ele>
        <time>2018-05-25T09:19:23Z</time>
      </trkpt>
      <trkpt lat="45.99243" lon="4.90171">
        <ele>297</ele>
        <time>2018-05-25T09:19:25Z</time>
      </trkpt>
      <trkpt lat="45.99242" lon="4.90169">
        <ele>297</ele>
        <time>2018-05-25T09:19:26Z</time>
      </trkpt>
      <trkpt lat="45.99238" lon="4.90164">
        <ele>297</ele>
        <time>2018-05-25T09:19:27Z</time>
      </trkpt>
      <trkpt lat="45.99235" lon="4.9016">
        <ele>297</ele>
        <time>2018-05-25T09:19:28Z</time>
      </trkpt>
      <trkpt lat="45.99229" lon="4.90151">
        <ele>297</ele>
        <time>2018-05-25T09:19:30Z</time>
      </trkpt>
      <trkpt lat="45.99226" lon="4.90146">
        <ele>297</ele>
        <time>2018-05-25T09:19:31Z</time>
      </trkpt>
      <trkpt lat="45.99221" lon="4.90137">
        <ele>297</ele>
        <time>2018-05-25T09:19:33Z</time>
      </trkpt>
      <trkpt lat="45.99218" lon="4.90131">
        <ele>297</ele>
        <time>2018-05-25T09:19:34Z</time>
      </trkpt>
      <trkpt lat="45.99213" lon="4.90121">
        <ele>297</ele>
        <time>2018-05-25T09:19:36Z</time>
      </trkpt>
      <trkpt lat="45.9921" lon="4.90117">
        <ele>297</ele>
        <time>2018-05-25T09:19:37Z</time>
      </trkpt>
      <trkpt lat="45.99207" lon="4.90114">
        <ele>297</ele>
        <time>2018-05-25T09:19:38Z</time>
      </trkpt>
      <trkpt lat="45.99202" lon="4.90109">
        <ele>297</ele>
        <time>2018-05-25T09:19:39Z</time>
      </trkpt>
      <trkpt lat="45.99199" lon="4.90105">
        <ele>297</ele>
        <time>2018-05-25T09:19:40Z</time>
      </trkpt>
      <trkpt lat="45.99195" lon="4.90099">
        <ele>297</ele>
        <time>2018-05-25T09:19:41Z</time>
      </trkpt>
      <trkpt lat="45.99191" lon="4.90093">
        <ele>297</ele>
        <time>2018-05-25T09:19:42Z</time>
      </trkpt>
      <trkpt lat="45.99188" lon="4.90089">
        <ele>297</ele>
        <time>2018-05-25T09:19:43Z</time>
      </trkpt>
      <trkpt lat="45.99184" lon="4.90083">
        <ele>297</ele>
        <time>2018-05-25T09:19:44Z</time>
      </trkpt>
      <trkpt lat="45.99181" lon="4.90079">
        <ele>297</ele>
        <time>2018-05-25T09:19:45Z</time>
      </trkpt>
      <trkpt lat="45.99175" lon="4.90075">
        <ele>297</ele>
        <time>2018-05-25T09:19:46Z</time>
      </trkpt>
      <trkpt lat="45.99172" lon="4.9007">
        <ele>297</ele>
        <time>2018-05-25T09:19:47Z</time>
      </trkpt>
      <trkpt lat="45.99165" lon="4.90062">
        <ele>297</ele>
        <time>2018-05-25T09:19:49Z</time>
      </trkpt>
      <trkpt lat="45.99163" lon="4.90056">
        <ele>297</ele>
        <time>2018-05-25T09:19:50Z</time>
      </trkpt>
      <trkpt lat="45.99161" lon="4.90054">
        <ele>297</ele>
        <time>2018-05-25T09:19:51Z</time>
      </trkpt>
      <trkpt lat="45.99156" lon="4.90045">
        <ele>297</ele>
        <time>2018-05-25T09:19:52Z</time>
      </trkpt>
      <trkpt lat="45.99152" lon="4.9004">
        <ele>297</ele>
        <time>2018-05-25T09:19:53Z</time>
      </trkpt>
      <trkpt lat="45.99149" lon="4.90036">
        <ele>297</ele>
        <time>2018-05-25T09:19:54Z</time>
      </trkpt>
      <trkpt lat="45.99143" lon="4.90029">
        <ele>297</ele>
        <time>2018-05-25T09:19:56Z</time>
      </trkpt>
      <trkpt lat="45.99139" lon="4.90024">
        <ele>297</ele>
        <time>2018-05-25T09:19:57Z</time>
      </trkpt>
      <trkpt lat="45.99135" lon="4.9002">
        <ele>297</ele>
        <time>2018-05-25T09:19:58Z</time>
      </trkpt>
      <trkpt lat="45.99131" lon="4.90016">
        <ele>296</ele>
        <time>2018-05-25T09:19:59Z</time>
      </trkpt>
      <trkpt lat="45.99127" lon="4.9001">
        <ele>296</ele>
        <time>2018-05-25T09:20:00Z</time>
      </trkpt>
      <trkpt lat="45.99122" lon="4.90006">
        <ele>296</ele>
        <time>2018-05-25T09:20:01Z</time>
      </trkpt>
      <trkpt lat="45.9912" lon="4.90002">
        <ele>296</ele>
        <time>2018-05-25T09:20:02Z</time>
      </trkpt>
      <trkpt lat="45.99116" lon="4.89996">
        <ele>295</ele>
        <time>2018-05-25T09:20:03Z</time>
      </trkpt>
      <trkpt lat="45.99112" lon="4.89993">
        <ele>295</ele>
        <time>2018-05-25T09:20:04Z</time>
      </trkpt>
      <trkpt lat="45.99109" lon="4.89988">
        <ele>295</ele>
        <time>2018-05-25T09:20:05Z</time>
      </trkpt>
      <trkpt lat="45.99105" lon="4.89983">
        <ele>295</ele>
        <time>2018-05-25T09:20:06Z</time>
      </trkpt>
      <trkpt lat="45.99101" lon="4.89979">
        <ele>295</ele>
        <time>2018-05-25T09:20:07Z</time>
      </trkpt>
      <trkpt lat="45.99097" lon="4.89975">
        <ele>295</ele>
        <time>2018-05-25T09:20:08Z</time>
      </trkpt>
      <trkpt lat="45.99093" lon="4.8997">
        <ele>295</ele>
        <time>2018-05-25T09:20:09Z</time>
      </trkpt>
      <trkpt lat="45.99092" lon="4.89964">
        <ele>295</ele>
        <time>2018-05-25T09:20:10Z</time>
      </trkpt>
      <trkpt lat="45.99088" lon="4.89957">
        <ele>295</ele>
        <time>2018-05-25T09:20:11Z</time>
      </trkpt>
      <trkpt lat="45.99084" lon="4.89948">
        <ele>295</ele>
        <time>2018-05-25T09:20:13Z</time>
      </trkpt>
      <trkpt lat="45.99078" lon="4.89942">
        <ele>294</ele>
        <time>2018-05-25T09:20:14Z</time>
      </trkpt>
      <trkpt lat="45.99073" lon="4.89931">
        <ele>294</ele>
        <time>2018-05-25T09:20:16Z</time>
      </trkpt>
      <trkpt lat="45.99069" lon="4.89925">
        <ele>294</ele>
        <time>2018-05-25T09:20:17Z</time>
      </trkpt>
      <trkpt lat="45.99064" lon="4.8992">
        <ele>294</ele>
        <time>2018-05-25T09:20:18Z</time>
      </trkpt>
      <trkpt lat="45.99062" lon="4.89916">
        <ele>294</ele>
        <time>2018-05-25T09:20:19Z</time>
      </trkpt>
      <trkpt lat="45.99057" lon="4.89909">
        <ele>293</ele>
        <time>2018-05-25T09:20:20Z</time>
      </trkpt>
      <trkpt lat="45.99054" lon="4.89904">
        <ele>293</ele>
        <time>2018-05-25T09:20:21Z</time>
      </trkpt>
      <trkpt lat="45.9905" lon="4.89901">
        <ele>293</ele>
        <time>2018-05-25T09:20:22Z</time>
      </trkpt>
      <trkpt lat="45.99047" lon="4.89895">
        <ele>293</ele>
        <time>2018-05-25T09:20:23Z</time>
      </trkpt>
      <trkpt lat="45.99044" lon="4.8989">
        <ele>293</ele>
        <time>2018-05-25T09:20:24Z</time>
      </trkpt>
      <trkpt lat="45.99039" lon="4.89886">
        <ele>293</ele>
        <time>2018-05-25T09:20:25Z</time>
      </trkpt>
      <trkpt lat="45.99035" lon="4.89879">
        <ele>293</ele>
        <time>2018-05-25T09:20:26Z</time>
      </trkpt>
      <trkpt lat="45.99031" lon="4.89874">
        <ele>293</ele>
        <time>2018-05-25T09:20:27Z</time>
      </trkpt>
      <trkpt lat="45.99026" lon="4.89868">
        <ele>293</ele>
        <time>2018-05-25T09:20:28Z</time>
      </trkpt>
      <trkpt lat="45.99021" lon="4.89863">
        <ele>293</ele>
        <time>2018-05-25T09:20:29Z</time>
      </trkpt>
      <trkpt lat="45.99017" lon="4.89857">
        <ele>293</ele>
        <time>2018-05-25T09:20:30Z</time>
      </trkpt>
      <trkpt lat="45.99013" lon="4.89853">
        <ele>293</ele>
        <time>2018-05-25T09:20:31Z</time>
      </trkpt>
      <trkpt lat="45.9901" lon="4.89848">
        <ele>293</ele>
        <time>2018-05-25T09:20:32Z</time>
      </trkpt>
      <trkpt lat="45.99006" lon="4.89842">
        <ele>293</ele>
        <time>2018-05-25T09:20:33Z</time>
      </trkpt>
      <trkpt lat="45.99002" lon="4.89837">
        <ele>293</ele>
        <time>2018-05-25T09:20:34Z</time>
      </trkpt>
      <trkpt lat="45.98999" lon="4.89832">
        <ele>293</ele>
        <time>2018-05-25T09:20:35Z</time>
      </trkpt>
      <trkpt lat="45.98995" lon="4.89828">
        <ele>293</ele>
        <time>2018-05-25T09:20:36Z</time>
      </trkpt>
      <trkpt lat="45.98991" lon="4.89823">
        <ele>293</ele>
        <time>2018-05-25T09:20:37Z</time>
      </trkpt>
      <trkpt lat="45.98986" lon="4.89818">
        <ele>293</ele>
        <time>2018-05-25T09:20:38Z</time>
      </trkpt>
      <trkpt lat="45.98981" lon="4.89814">
        <ele>293</ele>
        <time>2018-05-25T09:20:39Z</time>
      </trkpt>
      <trkpt lat="45.98976" lon="4.89809">
        <ele>293</ele>
        <time>2018-05-25T09:20:40Z</time>
      </trkpt>
      <trkpt lat="45.98971" lon="4.89802">
        <ele>293</ele>
        <time>2018-05-25T09:20:41Z</time>
      </trkpt>
      <trkpt lat="45.98967" lon="4.89798">
        <ele>293</ele>
        <time>2018-05-25T09:20:42Z</time>
      </trkpt>
      <trkpt lat="45.98962" lon="4.89793">
        <ele>293</ele>
        <time>2018-05-25T09:20:43Z</time>
      </trkpt>
      <trkpt lat="45.98958" lon="4.89789">
        <ele>293</ele>
        <time>2018-05-25T09:20:44Z</time>
      </trkpt>
      <trkpt lat="45.98953" lon="4.89785">
        <ele>293</ele>
        <time>2018-05-25T09:20:45Z</time>
      </trkpt>
      <trkpt lat="45.98949" lon="4.89781">
        <ele>293</ele>
        <time>2018-05-25T09:20:46Z</time>
      </trkpt>
      <trkpt lat="45.98943" lon="4.89778">
        <ele>293</ele>
        <time>2018-05-25T09:20:47Z</time>
      </trkpt>
      <trkpt lat="45.98938" lon="4.89776">
        <ele>293</ele>
        <time>2018-05-25T09:20:48Z</time>
      </trkpt>
      <trkpt lat="45.98934" lon="4.89773">
        <ele>293</ele>
        <time>2018-05-25T09:20:49Z</time>
      </trkpt>
      <trkpt lat="45.98929" lon="4.8977">
        <ele>293</ele>
        <time>2018-05-25T09:20:50Z</time>
      </trkpt>
      <trkpt lat="45.98925" lon="4.89766">
        <ele>293</ele>
        <time>2018-05-25T09:20:51Z</time>
      </trkpt>
      <trkpt lat="45.9892" lon="4.89763">
        <ele>293</ele>
        <time>2018-05-25T09:20:52Z</time>
      </trkpt>
      <trkpt lat="45.98915" lon="4.8976">
        <ele>293</ele>
        <time>2018-05-25T09:20:53Z</time>
      </trkpt>
      <trkpt lat="45.9891" lon="4.89758">
        <ele>293</ele>
        <time>2018-05-25T09:20:54Z</time>
      </trkpt>
      <trkpt lat="45.98906" lon="4.89756">
        <ele>293</ele>
        <time>2018-05-25T09:20:55Z</time>
      </trkpt>
      <trkpt lat="45.98901" lon="4.89753">
        <ele>293</ele>
        <time>2018-05-25T09:20:56Z</time>
      </trkpt>
      <trkpt lat="45.98896" lon="4.8975">
        <ele>293</ele>
        <time>2018-05-25T09:20:57Z</time>
      </trkpt>
      <trkpt lat="45.9889" lon="4.89747">
        <ele>293</ele>
        <time>2018-05-25T09:20:58Z</time>
      </trkpt>
      <trkpt lat="45.98886" lon="4.89743">
        <ele>293</ele>
        <time>2018-05-25T09:20:59Z</time>
      </trkpt>
      <trkpt lat="45.98881" lon="4.89739">
        <ele>293</ele>
        <time>2018-05-25T09:21:00Z</time>
      </trkpt>
      <trkpt lat="45.98877" lon="4.89735">
        <ele>293</ele>
        <time>2018-05-25T09:21:01Z</time>
      </trkpt>
      <trkpt lat="45.98871" lon="4.89732">
        <ele>293</ele>
        <time>2018-05-25T09:21:02Z</time>
      </trkpt>
      <trkpt lat="45.98866" lon="4.89728">
        <ele>293</ele>
        <time>2018-05-25T09:21:03Z</time>
      </trkpt>
      <trkpt lat="45.98861" lon="4.89724">
        <ele>293</ele>
        <time>2018-05-25T09:21:04Z</time>
      </trkpt>
      <trkpt lat="45.98857" lon="4.89721">
        <ele>293</ele>
        <time>2018-05-25T09:21:05Z</time>
      </trkpt>
      <trkpt lat="45.98852" lon="4.89717">
        <ele>293</ele>
        <time>2018-05-25T09:21:06Z</time>
      </trkpt>
      <trkpt lat="45.98848" lon="4.89713">
        <ele>293</ele>
        <time>2018-05-25T09:21:07Z</time>
      </trkpt>
      <trkpt lat="45.98842" lon="4.89709">
        <ele>293</ele>
        <time>2018-05-25T09:21:08Z</time>
      </trkpt>
      <trkpt lat="45.98838" lon="4.89704">
        <ele>292</ele>
        <time>2018-05-25T09:21:09Z</time>
      </trkpt>
      <trkpt lat="45.98833" lon="4.897">
        <ele>292</ele>
        <time>2018-05-25T09:21:10Z</time>
      </trkpt>
      <trkpt lat="45.98829" lon="4.89696">
        <ele>292</ele>
        <time>2018-05-25T09:21:11Z</time>
      </trkpt>
      <trkpt lat="45.98824" lon="4.89691">
        <ele>292</ele>
        <time>2018-05-25T09:21:12Z</time>
      </trkpt>
      <trkpt lat="45.9882" lon="4.89687">
        <ele>292</ele>
        <time>2018-05-25T09:21:13Z</time>
      </trkpt>
      <trkpt lat="45.98816" lon="4.89683">
        <ele>292</ele>
        <time>2018-05-25T09:21:14Z</time>
      </trkpt>
      <trkpt lat="45.98812" lon="4.89678">
        <ele>292</ele>
        <time>2018-05-25T09:21:15Z</time>
      </trkpt>
      <trkpt lat="45.98807" lon="4.89675">
        <ele>292</ele>
        <time>2018-05-25T09:21:16Z</time>
      </trkpt>
      <trkpt lat="45.98803" lon="4.89671">
        <ele>291</ele>
        <time>2018-05-25T09:21:17Z</time>
      </trkpt>
      <trkpt lat="45.98798" lon="4.89666">
        <ele>291</ele>
        <time>2018-05-25T09:21:18Z</time>
      </trkpt>
      <trkpt lat="45.98794" lon="4.89663">
        <ele>291</ele>
        <time>2018-05-25T09:21:19Z</time>
      </trkpt>
      <trkpt lat="45.9879" lon="4.89658">
        <ele>291</ele>
        <time>2018-05-25T09:21:20Z</time>
      </trkpt>
      <trkpt lat="45.98786" lon="4.89654">
        <ele>291</ele>
        <time>2018-05-25T09:21:21Z</time>
      </trkpt>
      <trkpt lat="45.98782" lon="4.89648">
        <ele>291</ele>
        <time>2018-05-25T09:21:22Z</time>
      </trkpt>
      <trkpt lat="45.98779" lon="4.89642">
        <ele>291</ele>
        <time>2018-05-25T09:21:23Z</time>
      </trkpt>
      <trkpt lat="45.98775" lon="4.89636">
        <ele>291</ele>
        <time>2018-05-25T09:21:24Z</time>
      </trkpt>
      <trkpt lat="45.98771" lon="4.8963">
        <ele>291</ele>
        <time>2018-05-25T09:21:25Z</time>
      </trkpt>
      <trkpt lat="45.98767" lon="4.89624">
        <ele>291</ele>
        <time>2018-05-25T09:21:26Z</time>
      </trkpt>
      <trkpt lat="45.98763" lon="4.89618">
        <ele>291</ele>
        <time>2018-05-25T09:21:27Z</time>
      </trkpt>
      <trkpt lat="45.98758" lon="4.8961">
        <ele>291</ele>
        <time>2018-05-25T09:21:28Z</time>
      </trkpt>
      <trkpt lat="45.98754" lon="4.89604">
        <ele>291</ele>
        <time>2018-05-25T09:21:29Z</time>
      </trkpt>
      <trkpt lat="45.98749" lon="4.89596">
        <ele>291</ele>
        <time>2018-05-25T09:21:30Z</time>
      </trkpt>
      <trkpt lat="45.98744" lon="4.89591">
        <ele>291</ele>
        <time>2018-05-25T09:21:31Z</time>
      </trkpt>
      <trkpt lat="45.98738" lon="4.89583">
        <ele>290</ele>
        <time>2018-05-25T09:21:32Z</time>
      </trkpt>
      <trkpt lat="45.98733" lon="4.89575">
        <ele>290</ele>
        <time>2018-05-25T09:21:33Z</time>
      </trkpt>
      <trkpt lat="45.98728" lon="4.89568">
        <ele>290</ele>
        <time>2018-05-25T09:21:34Z</time>
      </trkpt>
      <trkpt lat="45.98724" lon="4.89561">
        <ele>290</ele>
        <time>2018-05-25T09:21:35Z</time>
      </trkpt>
      <trkpt lat="45.98718" lon="4.89555">
        <ele>290</ele>
        <time>2018-05-25T09:21:36Z</time>
      </trkpt>
      <trkpt lat="45.98713" lon="4.89548">
        <ele>290</ele>
        <time>2018-05-25T09:21:37Z</time>
      </trkpt>
      <trkpt lat="45.98709" lon="4.89539">
        <ele>289</ele>
        <time>2018-05-25T09:21:38Z</time>
      </trkpt>
      <trkpt lat="45.98705" lon="4.89535">
        <ele>289</ele>
        <time>2018-05-25T09:21:39Z</time>
      </trkpt>
      <trkpt lat="45.987" lon="4.89528">
        <ele>289</ele>
        <time>2018-05-25T09:21:40Z</time>
      </trkpt>
      <trkpt lat="45.98696" lon="4.89521">
        <ele>289</ele>
        <time>2018-05-25T09:21:41Z</time>
      </trkpt>
      <trkpt lat="45.98692" lon="4.89518">
        <ele>289</ele>
        <time>2018-05-25T09:21:42Z</time>
      </trkpt>
      <trkpt lat="45.98687" lon="4.89512">
        <ele>289</ele>
        <time>2018-05-25T09:21:43Z</time>
      </trkpt>
      <trkpt lat="45.98683" lon="4.89507">
        <ele>289</ele>
        <time>2018-05-25T09:21:44Z</time>
      </trkpt>
      <trkpt lat="45.98678" lon="4.89502">
        <ele>289</ele>
        <time>2018-05-25T09:21:45Z</time>
      </trkpt>
      <trkpt lat="45.98673" lon="4.89497">
        <ele>289</ele>
        <time>2018-05-25T09:21:46Z</time>
      </trkpt>
      <trkpt lat="45.98669" lon="4.89492">
        <ele>289</ele>
        <time>2018-05-25T09:21:47Z</time>
      </trkpt>
      <trkpt lat="45.98665" lon="4.89485">
        <ele>290</ele>
        <time>2018-05-25T09:21:48Z</time>
      </trkpt>
      <trkpt lat="45.98661" lon="4.8948">
        <ele>290</ele>
        <time>2018-05-25T09:21:49Z</time>
      </trkpt>
      <trkpt lat="45.98656" lon="4.89474">
        <ele>290</ele>
        <time>2018-05-25T09:21:50Z</time>
      </trkpt>
      <trkpt lat="45.98652" lon="4.89469">
        <ele>290</ele>
        <time>2018-05-25T09:21:51Z</time>
      </trkpt>
      <trkpt lat="45.98647" lon="4.89463">
        <ele>291</ele>
        <time>2018-05-25T09:21:52Z</time>
      </trkpt>
      <trkpt lat="45.98644" lon="4.89458">
        <ele>291</ele>
        <time>2018-05-25T09:21:53Z</time>
      </trkpt>
      <trkpt lat="45.98639" lon="4.89453">
        <ele>291</ele>
        <time>2018-05-25T09:21:54Z</time>
      </trkpt>
      <trkpt lat="45.98634" lon="4.89447">
        <ele>291</ele>
        <time>2018-05-25T09:21:55Z</time>
      </trkpt>
      <trkpt lat="45.98629" lon="4.89441">
        <ele>291</ele>
        <time>2018-05-25T09:21:56Z</time>
      </trkpt>
      <trkpt lat="45.98624" lon="4.89435">
        <ele>291</ele>
        <time>2018-05-25T09:21:57Z</time>
      </trkpt>
      <trkpt lat="45.98618" lon="4.89429">
        <ele>292</ele>
        <time>2018-05-25T09:21:58Z</time>
      </trkpt>
      <trkpt lat="45.98613" lon="4.89425">
        <ele>292</ele>
        <time>2018-05-25T09:21:59Z</time>
      </trkpt>
      <trkpt lat="45.98608" lon="4.8942">
        <ele>292</ele>
        <time>2018-05-25T09:22:00Z</time>
      </trkpt>
      <trkpt lat="45.98605" lon="4.89415">
        <ele>292</ele>
        <time>2018-05-25T09:22:01Z</time>
      </trkpt>
      <trkpt lat="45.98599" lon="4.8941">
        <ele>292</ele>
        <time>2018-05-25T09:22:02Z</time>
      </trkpt>
      <trkpt lat="45.98594" lon="4.89405">
        <ele>292</ele>
        <time>2018-05-25T09:22:03Z</time>
      </trkpt>
      <trkpt lat="45.9859" lon="4.894">
        <ele>292</ele>
        <time>2018-05-25T09:22:04Z</time>
      </trkpt>
      <trkpt lat="45.98585" lon="4.89396">
        <ele>292</ele>
        <time>2018-05-25T09:22:05Z</time>
      </trkpt>
      <trkpt lat="45.98578" lon="4.89391">
        <ele>295</ele>
        <time>2018-05-25T09:22:06Z</time>
      </trkpt>
      <trkpt lat="45.98575" lon="4.89386">
        <ele>295</ele>
        <time>2018-05-25T09:22:07Z</time>
      </trkpt>
      <trkpt lat="45.98571" lon="4.89382">
        <ele>295</ele>
        <time>2018-05-25T09:22:08Z</time>
      </trkpt>
      <trkpt lat="45.98567" lon="4.89377">
        <ele>295</ele>
        <time>2018-05-25T09:22:09Z</time>
      </trkpt>
      <trkpt lat="45.98562" lon="4.89371">
        <ele>295</ele>
        <time>2018-05-25T09:22:10Z</time>
      </trkpt>
      <trkpt lat="45.98558" lon="4.89364">
        <ele>295</ele>
        <time>2018-05-25T09:22:11Z</time>
      </trkpt>
      <trkpt lat="45.98553" lon="4.89359">
        <ele>295</ele>
        <time>2018-05-25T09:22:12Z</time>
      </trkpt>
      <trkpt lat="45.98549" lon="4.89353">
        <ele>295</ele>
        <time>2018-05-25T09:22:13Z</time>
      </trkpt>
      <trkpt lat="45.98544" lon="4.89348">
        <ele>295</ele>
        <time>2018-05-25T09:22:14Z</time>
      </trkpt>
      <trkpt lat="45.98539" lon="4.89341">
        <ele>295</ele>
        <time>2018-05-25T09:22:15Z</time>
      </trkpt>
      <trkpt lat="45.98537" lon="4.89336">
        <ele>295</ele>
        <time>2018-05-25T09:22:16Z</time>
      </trkpt>
      <trkpt lat="45.98533" lon="4.89328">
        <ele>293</ele>
        <time>2018-05-25T09:22:17Z</time>
      </trkpt>
      <trkpt lat="45.98529" lon="4.89323">
        <ele>293</ele>
        <time>2018-05-25T09:22:18Z</time>
      </trkpt>
      <trkpt lat="45.98526" lon="4.89317">
        <ele>293</ele>
        <time>2018-05-25T09:22:19Z</time>
      </trkpt>
      <trkpt lat="45.98524" lon="4.89312">
        <ele>293</ele>
        <time>2018-05-25T09:22:20Z</time>
      </trkpt>
      <trkpt lat="45.9852" lon="4.89305">
        <ele>293</ele>
        <time>2018-05-25T09:22:21Z</time>
      </trkpt>
      <trkpt lat="45.98516" lon="4.893">
        <ele>293</ele>
        <time>2018-05-25T09:22:22Z</time>
      </trkpt>
      <trkpt lat="45.98513" lon="4.89295">
        <ele>292</ele>
        <time>2018-05-25T09:22:23Z</time>
      </trkpt>
      <trkpt lat="45.9851" lon="4.8929">
        <ele>292</ele>
        <time>2018-05-25T09:22:24Z</time>
      </trkpt>
      <trkpt lat="45.98507" lon="4.89285">
        <ele>292</ele>
        <time>2018-05-25T09:22:25Z</time>
      </trkpt>
      <trkpt lat="45.98504" lon="4.89279">
        <ele>292</ele>
        <time>2018-05-25T09:22:26Z</time>
      </trkpt>
      <trkpt lat="45.98501" lon="4.89273">
        <ele>291</ele>
        <time>2018-05-25T09:22:27Z</time>
      </trkpt>
      <trkpt lat="45.98498" lon="4.89267">
        <ele>291</ele>
        <time>2018-05-25T09:22:28Z</time>
      </trkpt>
      <trkpt lat="45.98494" lon="4.8926">
        <ele>291</ele>
        <time>2018-05-25T09:22:29Z</time>
      </trkpt>
      <trkpt lat="45.9849" lon="4.89254">
        <ele>291</ele>
        <time>2018-05-25T09:22:30Z</time>
      </trkpt>
      <trkpt lat="45.98486" lon="4.89247">
        <ele>289</ele>
        <time>2018-05-25T09:22:31Z</time>
      </trkpt>
      <trkpt lat="45.98481" lon="4.8924">
        <ele>289</ele>
        <time>2018-05-25T09:22:32Z</time>
      </trkpt>
      <trkpt lat="45.98477" lon="4.89234">
        <ele>289</ele>
        <time>2018-05-25T09:22:33Z</time>
      </trkpt>
      <trkpt lat="45.98471" lon="4.89227">
        <ele>289</ele>
        <time>2018-05-25T09:22:34Z</time>
      </trkpt>
      <trkpt lat="45.98466" lon="4.89221">
        <ele>289</ele>
        <time>2018-05-25T09:22:35Z</time>
      </trkpt>
      <trkpt lat="45.98465" lon="4.89211">
        <ele>289</ele>
        <time>2018-05-25T09:22:36Z</time>
      </trkpt>
      <trkpt lat="45.98462" lon="4.89203">
        <ele>289</ele>
        <time>2018-05-25T09:22:37Z</time>
      </trkpt>
      <trkpt lat="45.98458" lon="4.89196">
        <ele>289</ele>
        <time>2018-05-25T09:22:38Z</time>
      </trkpt>
      <trkpt lat="45.98453" lon="4.8919">
        <ele>289</ele>
        <time>2018-05-25T09:22:39Z</time>
      </trkpt>
      <trkpt lat="45.98451" lon="4.89183">
        <ele>289</ele>
        <time>2018-05-25T09:22:40Z</time>
      </trkpt>
      <trkpt lat="45.98447" lon="4.89174">
        <ele>288</ele>
        <time>2018-05-25T09:22:41Z</time>
      </trkpt>
      <trkpt lat="45.98443" lon="4.89166">
        <ele>288</ele>
        <time>2018-05-25T09:22:42Z</time>
      </trkpt>
      <trkpt lat="45.98438" lon="4.8916">
        <ele>288</ele>
        <time>2018-05-25T09:22:43Z</time>
      </trkpt>
      <trkpt lat="45.98434" lon="4.89153">
        <ele>288</ele>
        <time>2018-05-25T09:22:44Z</time>
      </trkpt>
      <trkpt lat="45.98429" lon="4.89141">
        <ele>288</ele>
        <time>2018-05-25T09:22:45Z</time>
      </trkpt>
      <trkpt lat="45.98425" lon="4.89134">
        <ele>288</ele>
        <time>2018-05-25T09:22:46Z</time>
      </trkpt>
      <trkpt lat="45.98419" lon="4.89128">
        <ele>288</ele>
        <time>2018-05-25T09:22:47Z</time>
      </trkpt>
      <trkpt lat="45.98414" lon="4.89122">
        <ele>285</ele>
        <time>2018-05-25T09:22:48Z</time>
      </trkpt>
      <trkpt lat="45.98409" lon="4.89117">
        <ele>285</ele>
        <time>2018-05-25T09:22:49Z</time>
      </trkpt>
      <trkpt lat="45.98405" lon="4.89108">
        <ele>286</ele>
        <time>2018-05-25T09:22:50Z</time>
      </trkpt>
      <trkpt lat="45.98401" lon="4.89099">
        <ele>286</ele>
        <time>2018-05-25T09:22:51Z</time>
      </trkpt>
      <trkpt lat="45.98398" lon="4.89089">
        <ele>286</ele>
        <time>2018-05-25T09:22:52Z</time>
      </trkpt>
      <trkpt lat="45.98393" lon="4.89081">
        <ele>285</ele>
        <time>2018-05-25T09:22:53Z</time>
      </trkpt>
      <trkpt lat="45.98389" lon="4.8907">
        <ele>285</ele>
        <time>2018-05-25T09:22:54Z</time>
      </trkpt>
      <trkpt lat="45.98387" lon="4.89062">
        <ele>285</ele>
        <time>2018-05-25T09:22:55Z</time>
      </trkpt>
      <trkpt lat="45.98384" lon="4.89053">
        <ele>284</ele>
        <time>2018-05-25T09:22:56Z</time>
      </trkpt>
      <trkpt lat="45.9838" lon="4.89044">
        <ele>284</ele>
        <time>2018-05-25T09:22:57Z</time>
      </trkpt>
      <trkpt lat="45.98377" lon="4.89035">
        <ele>284</ele>
        <time>2018-05-25T09:22:58Z</time>
      </trkpt>
      <trkpt lat="45.98375" lon="4.89025">
        <ele>284</ele>
        <time>2018-05-25T09:22:59Z</time>
      </trkpt>
      <trkpt lat="45.98374" lon="4.89015">
        <ele>284</ele>
        <time>2018-05-25T09:23:00Z</time>
      </trkpt>
      <trkpt lat="45.98372" lon="4.89006">
        <ele>284</ele>
        <time>2018-05-25T09:23:01Z</time>
      </trkpt>
      <trkpt lat="45.9837" lon="4.88995">
        <ele>283</ele>
        <time>2018-05-25T09:23:02Z</time>
      </trkpt>
      <trkpt lat="45.98369" lon="4.88987">
        <ele>283</ele>
        <time>2018-05-25T09:23:03Z</time>
      </trkpt>
      <trkpt lat="45.98366" lon="4.88977">
        <ele>282</ele>
        <time>2018-05-25T09:23:04Z</time>
      </trkpt>
      <trkpt lat="45.98363" lon="4.88966">
        <ele>282</ele>
        <time>2018-05-25T09:23:05Z</time>
      </trkpt>
      <trkpt lat="45.9836" lon="4.88956">
        <ele>282</ele>
        <time>2018-05-25T09:23:06Z</time>
      </trkpt>
      <trkpt lat="45.98357" lon="4.88944">
        <ele>282</ele>
        <time>2018-05-25T09:23:07Z</time>
      </trkpt>
      <trkpt lat="45.98354" lon="4.88933">
        <ele>281</ele>
        <time>2018-05-25T09:23:08Z</time>
      </trkpt>
      <trkpt lat="45.98352" lon="4.88923">
        <ele>281</ele>
        <time>2018-05-25T09:23:09Z</time>
      </trkpt>
      <trkpt lat="45.98348" lon="4.88912">
        <ele>280</ele>
        <time>2018-05-25T09:23:10Z</time>
      </trkpt>
      <trkpt lat="45.98345" lon="4.88901">
        <ele>280</ele>
        <time>2018-05-25T09:23:11Z</time>
      </trkpt>
      <trkpt lat="45.98342" lon="4.8889">
        <ele>280</ele>
        <time>2018-05-25T09:23:12Z</time>
      </trkpt>
      <trkpt lat="45.98341" lon="4.88882">
        <ele>280</ele>
        <time>2018-05-25T09:23:13Z</time>
      </trkpt>
      <trkpt lat="45.98336" lon="4.88872">
        <ele>280</ele>
        <time>2018-05-25T09:23:14Z</time>
      </trkpt>
      <trkpt lat="45.98335" lon="4.88866">
        <ele>280</ele>
        <time>2018-05-25T09:23:15Z</time>
      </trkpt>
      <trkpt lat="45.98333" lon="4.88857">
        <ele>278</ele>
        <time>2018-05-25T09:23:16Z</time>
      </trkpt>
      <trkpt lat="45.9833" lon="4.88847">
        <ele>278</ele>
        <time>2018-05-25T09:23:17Z</time>
      </trkpt>
      <trkpt lat="45.98328" lon="4.88839">
        <ele>278</ele>
        <time>2018-05-25T09:23:18Z</time>
      </trkpt>
      <trkpt lat="45.98326" lon="4.8883">
        <ele>278</ele>
        <time>2018-05-25T09:23:19Z</time>
      </trkpt>
      <trkpt lat="45.98324" lon="4.88821">
        <ele>277</ele>
        <time>2018-05-25T09:23:20Z</time>
      </trkpt>
      <trkpt lat="45.98322" lon="4.88813">
        <ele>277</ele>
        <time>2018-05-25T09:23:21Z</time>
      </trkpt>
      <trkpt lat="45.9832" lon="4.88805">
        <ele>277</ele>
        <time>2018-05-25T09:23:22Z</time>
      </trkpt>
      <trkpt lat="45.98317" lon="4.88795">
        <ele>277</ele>
        <time>2018-05-25T09:23:23Z</time>
      </trkpt>
      <trkpt lat="45.98315" lon="4.88786">
        <ele>277</ele>
        <time>2018-05-25T09:23:24Z</time>
      </trkpt>
      <trkpt lat="45.98313" lon="4.88777">
        <ele>277</ele>
        <time>2018-05-25T09:23:25Z</time>
      </trkpt>
      <trkpt lat="45.98311" lon="4.88768">
        <ele>277</ele>
        <time>2018-05-25T09:23:26Z</time>
      </trkpt>
      <trkpt lat="45.98308" lon="4.88759">
        <ele>276</ele>
        <time>2018-05-25T09:23:27Z</time>
      </trkpt>
      <trkpt lat="45.98306" lon="4.88749">
        <ele>276</ele>
        <time>2018-05-25T09:23:28Z</time>
      </trkpt>
      <trkpt lat="45.983" lon="4.88734">
        <ele>276</ele>
        <time>2018-05-25T09:23:29Z</time>
      </trkpt>
      <trkpt lat="45.98297" lon="4.88724">
        <ele>276</ele>
        <time>2018-05-25T09:23:30Z</time>
      </trkpt>
      <trkpt lat="45.98296" lon="4.88717">
        <ele>276</ele>
        <time>2018-05-25T09:23:31Z</time>
      </trkpt>
      <trkpt lat="45.98292" lon="4.88708">
        <ele>276</ele>
        <time>2018-05-25T09:23:32Z</time>
      </trkpt>
      <trkpt lat="45.9829" lon="4.88699">
        <ele>276</ele>
        <time>2018-05-25T09:23:33Z</time>
      </trkpt>
      <trkpt lat="45.98289" lon="4.8869">
        <ele>276</ele>
        <time>2018-05-25T09:23:34Z</time>
      </trkpt>
      <trkpt lat="45.98287" lon="4.88681">
        <ele>276</ele>
        <time>2018-05-25T09:23:35Z</time>
      </trkpt>
      <trkpt lat="45.98285" lon="4.88673">
        <ele>276</ele>
        <time>2018-05-25T09:23:36Z</time>
      </trkpt>
      <trkpt lat="45.98282" lon="4.88663">
        <ele>276</ele>
        <time>2018-05-25T09:23:37Z</time>
      </trkpt>
      <trkpt lat="45.98278" lon="4.88654">
        <ele>276</ele>
        <time>2018-05-25T09:23:38Z</time>
      </trkpt>
      <trkpt lat="45.98277" lon="4.88645">
        <ele>276</ele>
        <time>2018-05-25T09:23:39Z</time>
      </trkpt>
      <trkpt lat="45.98275" lon="4.88639">
        <ele>276</ele>
        <time>2018-05-25T09:23:40Z</time>
      </trkpt>
      <trkpt lat="45.98273" lon="4.88629">
        <ele>276</ele>
        <time>2018-05-25T09:23:41Z</time>
      </trkpt>
      <trkpt lat="45.98271" lon="4.88621">
        <ele>276</ele>
        <time>2018-05-25T09:23:42Z</time>
      </trkpt>
      <trkpt lat="45.98269" lon="4.88613">
        <ele>276</ele>
        <time>2018-05-25T09:23:43Z</time>
      </trkpt>
      <trkpt lat="45.98267" lon="4.88604">
        <ele>276</ele>
        <time>2018-05-25T09:23:44Z</time>
      </trkpt>
      <trkpt lat="45.98265" lon="4.88596">
        <ele>275</ele>
        <time>2018-05-25T09:23:45Z</time>
      </trkpt>
      <trkpt lat="45.98263" lon="4.88589">
        <ele>275</ele>
        <time>2018-05-25T09:23:46Z</time>
      </trkpt>
      <trkpt lat="45.98262" lon="4.8858">
        <ele>276</ele>
        <time>2018-05-25T09:23:47Z</time>
      </trkpt>
      <trkpt lat="45.9826" lon="4.88573">
        <ele>276</ele>
        <time>2018-05-25T09:23:48Z</time>
      </trkpt>
      <trkpt lat="45.98258" lon="4.88565">
        <ele>276</ele>
        <time>2018-05-25T09:23:49Z</time>
      </trkpt>
      <trkpt lat="45.98256" lon="4.88558">
        <ele>276</ele>
        <time>2018-05-25T09:23:50Z</time>
      </trkpt>
      <trkpt lat="45.98255" lon="4.88548">
        <ele>276</ele>
        <time>2018-05-25T09:23:51Z</time>
      </trkpt>
      <trkpt lat="45.98253" lon="4.8854">
        <ele>276</ele>
        <time>2018-05-25T09:23:52Z</time>
      </trkpt>
      <trkpt lat="45.98251" lon="4.88531">
        <ele>276</ele>
        <time>2018-05-25T09:23:53Z</time>
      </trkpt>
      <trkpt lat="45.98248" lon="4.88523">
        <ele>276</ele>
        <time>2018-05-25T09:23:54Z</time>
      </trkpt>
      <trkpt lat="45.98246" lon="4.88515">
        <ele>276</ele>
        <time>2018-05-25T09:23:55Z</time>
      </trkpt>
      <trkpt lat="45.98246" lon="4.88507">
        <ele>277</ele>
        <time>2018-05-25T09:23:56Z</time>
      </trkpt>
      <trkpt lat="45.98245" lon="4.885">
        <ele>277</ele>
        <time>2018-05-25T09:23:57Z</time>
      </trkpt>
      <trkpt lat="45.98243" lon="4.88493">
        <ele>277</ele>
        <time>2018-05-25T09:23:58Z</time>
      </trkpt>
      <trkpt lat="45.98242" lon="4.88486">
        <ele>276</ele>
        <time>2018-05-25T09:23:59Z</time>
      </trkpt>
      <trkpt lat="45.9824" lon="4.88479">
        <ele>276</ele>
        <time>2018-05-25T09:24:00Z</time>
      </trkpt>
      <trkpt lat="45.98239" lon="4.88472">
        <ele>276</ele>
        <time>2018-05-25T09:24:01Z</time>
      </trkpt>
      <trkpt lat="45.98238" lon="4.88465">
        <ele>276</ele>
        <time>2018-05-25T09:24:02Z</time>
      </trkpt>
      <trkpt lat="45.98237" lon="4.88457">
        <ele>276</ele>
        <time>2018-05-25T09:24:03Z</time>
      </trkpt>
      <trkpt lat="45.98235" lon="4.88448">
        <ele>276</ele>
        <time>2018-05-25T09:24:04Z</time>
      </trkpt>
      <trkpt lat="45.98234" lon="4.88441">
        <ele>276</ele>
        <time>2018-05-25T09:24:05Z</time>
      </trkpt>
      <trkpt lat="45.98231" lon="4.88433">
        <ele>276</ele>
        <time>2018-05-25T09:24:06Z</time>
      </trkpt>
      <trkpt lat="45.9823" lon="4.88426">
        <ele>276</ele>
        <time>2018-05-25T09:24:07Z</time>
      </trkpt>
      <trkpt lat="45.98227" lon="4.88419">
        <ele>276</ele>
        <time>2018-05-25T09:24:08Z</time>
      </trkpt>
      <trkpt lat="45.98225" lon="4.88412">
        <ele>275</ele>
        <time>2018-05-25T09:24:09Z</time>
      </trkpt>
      <trkpt lat="45.98223" lon="4.88405">
        <ele>275</ele>
        <time>2018-05-25T09:24:10Z</time>
      </trkpt>
      <trkpt lat="45.98222" lon="4.88397">
        <ele>275</ele>
        <time>2018-05-25T09:24:11Z</time>
      </trkpt>
      <trkpt lat="45.98221" lon="4.88389">
        <ele>275</ele>
        <time>2018-05-25T09:24:12Z</time>
      </trkpt>
      <trkpt lat="45.9822" lon="4.88381">
        <ele>275</ele>
        <time>2018-05-25T09:24:13Z</time>
      </trkpt>
      <trkpt lat="45.98219" lon="4.88372">
        <ele>275</ele>
        <time>2018-05-25T09:24:14Z</time>
      </trkpt>
      <trkpt lat="45.98218" lon="4.88363">
        <ele>275</ele>
        <time>2018-05-25T09:24:15Z</time>
      </trkpt>
      <trkpt lat="45.98218" lon="4.88355">
        <ele>275</ele>
        <time>2018-05-25T09:24:16Z</time>
      </trkpt>
      <trkpt lat="45.98217" lon="4.88346">
        <ele>275</ele>
        <time>2018-05-25T09:24:17Z</time>
      </trkpt>
      <trkpt lat="45.98217" lon="4.88337">
        <ele>275</ele>
        <time>2018-05-25T09:24:18Z</time>
      </trkpt>
      <trkpt lat="45.98218" lon="4.88327">
        <ele>274</ele>
        <time>2018-05-25T09:24:19Z</time>
      </trkpt>
      <trkpt lat="45.98217" lon="4.88318">
        <ele>274</ele>
        <time>2018-05-25T09:24:20Z</time>
      </trkpt>
      <trkpt lat="45.98216" lon="4.8831">
        <ele>274</ele>
        <time>2018-05-25T09:24:21Z</time>
      </trkpt>
      <trkpt lat="45.98214" lon="4.88299">
        <ele>274</ele>
        <time>2018-05-25T09:24:22Z</time>
      </trkpt>
      <trkpt lat="45.98212" lon="4.88289">
        <ele>274</ele>
        <time>2018-05-25T09:24:23Z</time>
      </trkpt>
      <trkpt lat="45.98207" lon="4.88282">
        <ele>274</ele>
        <time>2018-05-25T09:24:24Z</time>
      </trkpt>
      <trkpt lat="45.98205" lon="4.88273">
        <ele>274</ele>
        <time>2018-05-25T09:24:25Z</time>
      </trkpt>
      <trkpt lat="45.98203" lon="4.88263">
        <ele>274</ele>
        <time>2018-05-25T09:24:26Z</time>
      </trkpt>
      <trkpt lat="45.98202" lon="4.88254">
        <ele>274</ele>
        <time>2018-05-25T09:24:27Z</time>
      </trkpt>
      <trkpt lat="45.982" lon="4.88245">
        <ele>273</ele>
        <time>2018-05-25T09:24:28Z</time>
      </trkpt>
      <trkpt lat="45.98198" lon="4.88236">
        <ele>273</ele>
        <time>2018-05-25T09:24:29Z</time>
      </trkpt>
      <trkpt lat="45.98195" lon="4.88229">
        <ele>273</ele>
        <time>2018-05-25T09:24:30Z</time>
      </trkpt>
      <trkpt lat="45.98192" lon="4.8822">
        <ele>273</ele>
        <time>2018-05-25T09:24:31Z</time>
      </trkpt>
      <trkpt lat="45.9819" lon="4.88212">
        <ele>273</ele>
        <time>2018-05-25T09:24:32Z</time>
      </trkpt>
      <trkpt lat="45.98187" lon="4.88205">
        <ele>273</ele>
        <time>2018-05-25T09:24:33Z</time>
      </trkpt>
      <trkpt lat="45.98183" lon="4.88197">
        <ele>273</ele>
        <time>2018-05-25T09:24:34Z</time>
      </trkpt>
      <trkpt lat="45.98181" lon="4.88187">
        <ele>273</ele>
        <time>2018-05-25T09:24:35Z</time>
      </trkpt>
      <trkpt lat="45.98178" lon="4.8818">
        <ele>273</ele>
        <time>2018-05-25T09:24:36Z</time>
      </trkpt>
      <trkpt lat="45.98176" lon="4.88171">
        <ele>273</ele>
        <time>2018-05-25T09:24:37Z</time>
      </trkpt>
      <trkpt lat="45.98173" lon="4.88162">
        <ele>273</ele>
        <time>2018-05-25T09:24:38Z</time>
      </trkpt>
      <trkpt lat="45.98171" lon="4.88153">
        <ele>273</ele>
        <time>2018-05-25T09:24:39Z</time>
      </trkpt>
      <trkpt lat="45.9817" lon="4.88145">
        <ele>273</ele>
        <time>2018-05-25T09:24:40Z</time>
      </trkpt>
      <trkpt lat="45.98167" lon="4.88138">
        <ele>273</ele>
        <time>2018-05-25T09:24:41Z</time>
      </trkpt>
      <trkpt lat="45.98165" lon="4.8813">
        <ele>274</ele>
        <time>2018-05-25T09:24:42Z</time>
      </trkpt>
      <trkpt lat="45.98161" lon="4.88122">
        <ele>274</ele>
        <time>2018-05-25T09:24:43Z</time>
      </trkpt>
      <trkpt lat="45.98159" lon="4.88115">
        <ele>274</ele>
        <time>2018-05-25T09:24:44Z</time>
      </trkpt>
      <trkpt lat="45.98156" lon="4.88108">
        <ele>274</ele>
        <time>2018-05-25T09:24:45Z</time>
      </trkpt>
      <trkpt lat="45.98153" lon="4.88101">
        <ele>274</ele>
        <time>2018-05-25T09:24:46Z</time>
      </trkpt>
      <trkpt lat="45.98152" lon="4.88093">
        <ele>274</ele>
        <time>2018-05-25T09:24:47Z</time>
      </trkpt>
      <trkpt lat="45.98149" lon="4.88086">
        <ele>274</ele>
        <time>2018-05-25T09:24:48Z</time>
      </trkpt>
      <trkpt lat="45.98147" lon="4.88079">
        <ele>275</ele>
        <time>2018-05-25T09:24:49Z</time>
      </trkpt>
      <trkpt lat="45.98145" lon="4.88073">
        <ele>275</ele>
        <time>2018-05-25T09:24:50Z</time>
      </trkpt>
      <trkpt lat="45.98143" lon="4.88066">
        <ele>275</ele>
        <time>2018-05-25T09:24:51Z</time>
      </trkpt>
      <trkpt lat="45.9814" lon="4.88061">
        <ele>275</ele>
        <time>2018-05-25T09:24:52Z</time>
      </trkpt>
      <trkpt lat="45.98138" lon="4.88055">
        <ele>275</ele>
        <time>2018-05-25T09:24:53Z</time>
      </trkpt>
      <trkpt lat="45.98136" lon="4.88049">
        <ele>275</ele>
        <time>2018-05-25T09:24:54Z</time>
      </trkpt>
      <trkpt lat="45.98135" lon="4.88042">
        <ele>276</ele>
        <time>2018-05-25T09:24:55Z</time>
      </trkpt>
      <trkpt lat="45.98132" lon="4.8803">
        <ele>276</ele>
        <time>2018-05-25T09:24:57Z</time>
      </trkpt>
      <trkpt lat="45.9813" lon="4.88023">
        <ele>276</ele>
        <time>2018-05-25T09:24:58Z</time>
      </trkpt>
      <trkpt lat="45.98127" lon="4.88013">
        <ele>276</ele>
        <time>2018-05-25T09:25:00Z</time>
      </trkpt>
      <trkpt lat="45.98126" lon="4.88008">
        <ele>276</ele>
        <time>2018-05-25T09:25:01Z</time>
      </trkpt>
      <trkpt lat="45.98123" lon="4.87998">
        <ele>277</ele>
        <time>2018-05-25T09:25:03Z</time>
      </trkpt>
      <trkpt lat="45.98122" lon="4.87994">
        <ele>277</ele>
        <time>2018-05-25T09:25:04Z</time>
      </trkpt>
      <trkpt lat="45.98118" lon="4.87984">
        <ele>277</ele>
        <time>2018-05-25T09:25:06Z</time>
      </trkpt>
      <trkpt lat="45.98117" lon="4.87981">
        <ele>277</ele>
        <time>2018-05-25T09:25:07Z</time>
      </trkpt>
      <trkpt lat="45.98115" lon="4.87973">
        <ele>277</ele>
        <time>2018-05-25T09:25:08Z</time>
      </trkpt>
      <trkpt lat="45.98114" lon="4.87968">
        <ele>277</ele>
        <time>2018-05-25T09:25:09Z</time>
      </trkpt>
      <trkpt lat="45.98111" lon="4.87958">
        <ele>277</ele>
        <time>2018-05-25T09:25:11Z</time>
      </trkpt>
      <trkpt lat="45.9811" lon="4.87952">
        <ele>277</ele>
        <time>2018-05-25T09:25:12Z</time>
      </trkpt>
      <trkpt lat="45.98107" lon="4.87942">
        <ele>277</ele>
        <time>2018-05-25T09:25:14Z</time>
      </trkpt>
      <trkpt lat="45.98105" lon="4.87937">
        <ele>277</ele>
        <time>2018-05-25T09:25:15Z</time>
      </trkpt>
      <trkpt lat="45.98102" lon="4.87926">
        <ele>277</ele>
        <time>2018-05-25T09:25:17Z</time>
      </trkpt>
      <trkpt lat="45.981" lon="4.87921">
        <ele>278</ele>
        <time>2018-05-25T09:25:18Z</time>
      </trkpt>
      <trkpt lat="45.98097" lon="4.87911">
        <ele>278</ele>
        <time>2018-05-25T09:25:20Z</time>
      </trkpt>
      <trkpt lat="45.98095" lon="4.87906">
        <ele>278</ele>
        <time>2018-05-25T09:25:21Z</time>
      </trkpt>
      <trkpt lat="45.98092" lon="4.87895">
        <ele>278</ele>
        <time>2018-05-25T09:25:23Z</time>
      </trkpt>
      <trkpt lat="45.9809" lon="4.8789">
        <ele>278</ele>
        <time>2018-05-25T09:25:24Z</time>
      </trkpt>
      <trkpt lat="45.98088" lon="4.8788">
        <ele>278</ele>
        <time>2018-05-25T09:25:26Z</time>
      </trkpt>
      <trkpt lat="45.98087" lon="4.87874">
        <ele>278</ele>
        <time>2018-05-25T09:25:27Z</time>
      </trkpt>
      <trkpt lat="45.98084" lon="4.87865">
        <ele>278</ele>
        <time>2018-05-25T09:25:29Z</time>
      </trkpt>
      <trkpt lat="45.98083" lon="4.87861">
        <ele>280</ele>
        <time>2018-05-25T09:25:30Z</time>
      </trkpt>
      <trkpt lat="45.9808" lon="4.8785">
        <ele>280</ele>
        <time>2018-05-25T09:25:33Z</time>
      </trkpt>
      <trkpt lat="45.98077" lon="4.87842">
        <ele>279</ele>
        <time>2018-05-25T09:25:34Z</time>
      </trkpt>
      <trkpt lat="45.98074" lon="4.87831">
        <ele>279</ele>
        <time>2018-05-25T09:25:36Z</time>
      </trkpt>
      <trkpt lat="45.98073" lon="4.87826">
        <ele>279</ele>
        <time>2018-05-25T09:25:37Z</time>
      </trkpt>
      <trkpt lat="45.9807" lon="4.87814">
        <ele>280</ele>
        <time>2018-05-25T09:25:39Z</time>
      </trkpt>
      <trkpt lat="45.98068" lon="4.87808">
        <ele>280</ele>
        <time>2018-05-25T09:25:40Z</time>
      </trkpt>
      <trkpt lat="45.98064" lon="4.87797">
        <ele>280</ele>
        <time>2018-05-25T09:25:42Z</time>
      </trkpt>
      <trkpt lat="45.98063" lon="4.87791">
        <ele>280</ele>
        <time>2018-05-25T09:25:43Z</time>
      </trkpt>
      <trkpt lat="45.9806" lon="4.8778">
        <ele>280</ele>
        <time>2018-05-25T09:25:45Z</time>
      </trkpt>
      <trkpt lat="45.98059" lon="4.87774">
        <ele>280</ele>
        <time>2018-05-25T09:25:46Z</time>
      </trkpt>
      <trkpt lat="45.98056" lon="4.87763">
        <ele>280</ele>
        <time>2018-05-25T09:25:48Z</time>
      </trkpt>
      <trkpt lat="45.98054" lon="4.87758">
        <ele>280</ele>
        <time>2018-05-25T09:25:49Z</time>
      </trkpt>
      <trkpt lat="45.98051" lon="4.87747">
        <ele>280</ele>
        <time>2018-05-25T09:25:51Z</time>
      </trkpt>
      <trkpt lat="45.9805" lon="4.87741">
        <ele>280</ele>
        <time>2018-05-25T09:25:52Z</time>
      </trkpt>
      <trkpt lat="45.98046" lon="4.87731">
        <ele>280</ele>
        <time>2018-05-25T09:25:54Z</time>
      </trkpt>
      <trkpt lat="45.98045" lon="4.87726">
        <ele>280</ele>
        <time>2018-05-25T09:25:55Z</time>
      </trkpt>
      <trkpt lat="45.98042" lon="4.87716">
        <ele>280</ele>
        <time>2018-05-25T09:25:58Z</time>
      </trkpt>
      <trkpt lat="45.98041" lon="4.87713">
        <ele>279</ele>
        <time>2018-05-25T09:25:59Z</time>
      </trkpt>
      <trkpt lat="45.98039" lon="4.87709">
        <ele>279</ele>
        <time>2018-05-25T09:26:00Z</time>
      </trkpt>
      <trkpt lat="45.98036" lon="4.87698">
        <ele>280</ele>
        <time>2018-05-25T09:26:01Z</time>
      </trkpt>
      <trkpt lat="45.98033" lon="4.87687">
        <ele>280</ele>
        <time>2018-05-25T09:26:03Z</time>
      </trkpt>
      <trkpt lat="45.98031" lon="4.87682">
        <ele>280</ele>
        <time>2018-05-25T09:26:04Z</time>
      </trkpt>
      <trkpt lat="45.98028" lon="4.87671">
        <ele>280</ele>
        <time>2018-05-25T09:26:06Z</time>
      </trkpt>
      <trkpt lat="45.98027" lon="4.87665">
        <ele>280</ele>
        <time>2018-05-25T09:26:07Z</time>
      </trkpt>
      <trkpt lat="45.98025" lon="4.87658">
        <ele>280</ele>
        <time>2018-05-25T09:26:08Z</time>
      </trkpt>
      <trkpt lat="45.98024" lon="4.87652">
        <ele>280</ele>
        <time>2018-05-25T09:26:09Z</time>
      </trkpt>
      <trkpt lat="45.98022" lon="4.87646">
        <ele>280</ele>
        <time>2018-05-25T09:26:10Z</time>
      </trkpt>
      <trkpt lat="45.98021" lon="4.87639">
        <ele>280</ele>
        <time>2018-05-25T09:26:11Z</time>
      </trkpt>
      <trkpt lat="45.98018" lon="4.87633">
        <ele>280</ele>
        <time>2018-05-25T09:26:12Z</time>
      </trkpt>
      <trkpt lat="45.98016" lon="4.87627">
        <ele>280</ele>
        <time>2018-05-25T09:26:13Z</time>
      </trkpt>
      <trkpt lat="45.98014" lon="4.8762">
        <ele>280</ele>
        <time>2018-05-25T09:26:14Z</time>
      </trkpt>
      <trkpt lat="45.98012" lon="4.87614">
        <ele>280</ele>
        <time>2018-05-25T09:26:15Z</time>
      </trkpt>
      <trkpt lat="45.9801" lon="4.87607">
        <ele>280</ele>
        <time>2018-05-25T09:26:16Z</time>
      </trkpt>
      <trkpt lat="45.98007" lon="4.87601">
        <ele>280</ele>
        <time>2018-05-25T09:26:17Z</time>
      </trkpt>
      <trkpt lat="45.98004" lon="4.87594">
        <ele>280</ele>
        <time>2018-05-25T09:26:18Z</time>
      </trkpt>
      <trkpt lat="45.98" lon="4.87587">
        <ele>280</ele>
        <time>2018-05-25T09:26:19Z</time>
      </trkpt>
      <trkpt lat="45.97997" lon="4.87581">
        <ele>280</ele>
        <time>2018-05-25T09:26:20Z</time>
      </trkpt>
      <trkpt lat="45.97993" lon="4.87576">
        <ele>280</ele>
        <time>2018-05-25T09:26:21Z</time>
      </trkpt>
      <trkpt lat="45.9799" lon="4.87569">
        <ele>280</ele>
        <time>2018-05-25T09:26:22Z</time>
      </trkpt>
      <trkpt lat="45.97987" lon="4.87564">
        <ele>279</ele>
        <time>2018-05-25T09:26:23Z</time>
      </trkpt>
      <trkpt lat="45.97982" lon="4.87559">
        <ele>279</ele>
        <time>2018-05-25T09:26:24Z</time>
      </trkpt>
      <trkpt lat="45.97977" lon="4.87555">
        <ele>279</ele>
        <time>2018-05-25T09:26:25Z</time>
      </trkpt>
      <trkpt lat="45.97973" lon="4.87551">
        <ele>279</ele>
        <time>2018-05-25T09:26:26Z</time>
      </trkpt>
      <trkpt lat="45.97967" lon="4.87547">
        <ele>279</ele>
        <time>2018-05-25T09:26:27Z</time>
      </trkpt>
      <trkpt lat="45.97962" lon="4.87544">
        <ele>279</ele>
        <time>2018-05-25T09:26:28Z</time>
      </trkpt>
      <trkpt lat="45.97957" lon="4.87542">
        <ele>279</ele>
        <time>2018-05-25T09:26:29Z</time>
      </trkpt>
      <trkpt lat="45.97953" lon="4.87538">
        <ele>279</ele>
        <time>2018-05-25T09:26:30Z</time>
      </trkpt>
      <trkpt lat="45.97948" lon="4.87535">
        <ele>279</ele>
        <time>2018-05-25T09:26:31Z</time>
      </trkpt>
      <trkpt lat="45.97943" lon="4.87533">
        <ele>279</ele>
        <time>2018-05-25T09:26:32Z</time>
      </trkpt>
      <trkpt lat="45.97938" lon="4.87531">
        <ele>279</ele>
        <time>2018-05-25T09:26:33Z</time>
      </trkpt>
      <trkpt lat="45.97933" lon="4.8753">
        <ele>279</ele>
        <time>2018-05-25T09:26:34Z</time>
      </trkpt>
      <trkpt lat="45.97929" lon="4.87528">
        <ele>279</ele>
        <time>2018-05-25T09:26:35Z</time>
      </trkpt>
      <trkpt lat="45.97921" lon="4.87524">
        <ele>279</ele>
        <time>2018-05-25T09:26:37Z</time>
      </trkpt>
      <trkpt lat="45.97915" lon="4.87521">
        <ele>280</ele>
        <time>2018-05-25T09:26:38Z</time>
      </trkpt>
      <trkpt lat="45.97909" lon="4.87519">
        <ele>280</ele>
        <time>2018-05-25T09:26:39Z</time>
      </trkpt>
      <trkpt lat="45.97904" lon="4.87515">
        <ele>280</ele>
        <time>2018-05-25T09:26:40Z</time>
      </trkpt>
      <trkpt lat="45.97898" lon="4.87512">
        <ele>280</ele>
        <time>2018-05-25T09:26:41Z</time>
      </trkpt>
      <trkpt lat="45.97893" lon="4.87509">
        <ele>280</ele>
        <time>2018-05-25T09:26:42Z</time>
      </trkpt>
      <trkpt lat="45.97887" lon="4.87507">
        <ele>281</ele>
        <time>2018-05-25T09:26:43Z</time>
      </trkpt>
      <trkpt lat="45.97881" lon="4.87504">
        <ele>281</ele>
        <time>2018-05-25T09:26:44Z</time>
      </trkpt>
      <trkpt lat="45.97877" lon="4.875">
        <ele>280</ele>
        <time>2018-05-25T09:26:45Z</time>
      </trkpt>
      <trkpt lat="45.97873" lon="4.87496">
        <ele>280</ele>
        <time>2018-05-25T09:26:46Z</time>
      </trkpt>
      <trkpt lat="45.97868" lon="4.87493">
        <ele>280</ele>
        <time>2018-05-25T09:26:47Z</time>
      </trkpt>
      <trkpt lat="45.97864" lon="4.87489">
        <ele>280</ele>
        <time>2018-05-25T09:26:48Z</time>
      </trkpt>
      <trkpt lat="45.97857" lon="4.87481">
        <ele>281</ele>
        <time>2018-05-25T09:26:50Z</time>
      </trkpt>
      <trkpt lat="45.97853" lon="4.87477">
        <ele>281</ele>
        <time>2018-05-25T09:26:51Z</time>
      </trkpt>
      <trkpt lat="45.9785" lon="4.87473">
        <ele>281</ele>
        <time>2018-05-25T09:26:52Z</time>
      </trkpt>
      <trkpt lat="45.97846" lon="4.87469">
        <ele>281</ele>
        <time>2018-05-25T09:26:53Z</time>
      </trkpt>
      <trkpt lat="45.9784" lon="4.87462">
        <ele>281</ele>
        <time>2018-05-25T09:26:55Z</time>
      </trkpt>
      <trkpt lat="45.97836" lon="4.8746">
        <ele>281</ele>
        <time>2018-05-25T09:26:56Z</time>
      </trkpt>
      <trkpt lat="45.97829" lon="4.87454">
        <ele>282</ele>
        <time>2018-05-25T09:26:58Z</time>
      </trkpt>
      <trkpt lat="45.97824" lon="4.8745">
        <ele>282</ele>
        <time>2018-05-25T09:26:59Z</time>
      </trkpt>
      <trkpt lat="45.97817" lon="4.87443">
        <ele>282</ele>
        <time>2018-05-25T09:27:01Z</time>
      </trkpt>
      <trkpt lat="45.97813" lon="4.8744">
        <ele>282</ele>
        <time>2018-05-25T09:27:02Z</time>
      </trkpt>
      <trkpt lat="45.97807" lon="4.87433">
        <ele>282</ele>
        <time>2018-05-25T09:27:04Z</time>
      </trkpt>
      <trkpt lat="45.97804" lon="4.8743">
        <ele>283</ele>
        <time>2018-05-25T09:27:05Z</time>
      </trkpt>
      <trkpt lat="45.97797" lon="4.87423">
        <ele>283</ele>
        <time>2018-05-25T09:27:07Z</time>
      </trkpt>
      <trkpt lat="45.97794" lon="4.87419">
        <ele>283</ele>
        <time>2018-05-25T09:27:08Z</time>
      </trkpt>
      <trkpt lat="45.97788" lon="4.87412">
        <ele>284</ele>
        <time>2018-05-25T09:27:10Z</time>
      </trkpt>
      <trkpt lat="45.97785" lon="4.87409">
        <ele>284</ele>
        <time>2018-05-25T09:27:11Z</time>
      </trkpt>
      <trkpt lat="45.97778" lon="4.87401">
        <ele>284</ele>
        <time>2018-05-25T09:27:13Z</time>
      </trkpt>
      <trkpt lat="45.97775" lon="4.87396">
        <ele>284</ele>
        <time>2018-05-25T09:27:14Z</time>
      </trkpt>
      <trkpt lat="45.97769" lon="4.87389">
        <ele>284</ele>
        <time>2018-05-25T09:27:16Z</time>
      </trkpt>
      <trkpt lat="45.97766" lon="4.87386">
        <ele>284</ele>
        <time>2018-05-25T09:27:17Z</time>
      </trkpt>
      <trkpt lat="45.9776" lon="4.87378">
        <ele>284</ele>
        <time>2018-05-25T09:27:19Z</time>
      </trkpt>
      <trkpt lat="45.97758" lon="4.87374">
        <ele>285</ele>
        <time>2018-05-25T09:27:20Z</time>
      </trkpt>
      <trkpt lat="45.97752" lon="4.87367">
        <ele>285</ele>
        <time>2018-05-25T09:27:22Z</time>
      </trkpt>
      <trkpt lat="45.97749" lon="4.87364">
        <ele>285</ele>
        <time>2018-05-25T09:27:23Z</time>
      </trkpt>
      <trkpt lat="45.97742" lon="4.87357">
        <ele>286</ele>
        <time>2018-05-25T09:27:25Z</time>
      </trkpt>
      <trkpt lat="45.9774" lon="4.87353">
        <ele>286</ele>
        <time>2018-05-25T09:27:26Z</time>
      </trkpt>
      <trkpt lat="45.97735" lon="4.87344">
        <ele>286</ele>
        <time>2018-05-25T09:27:28Z</time>
      </trkpt>
      <trkpt lat="45.97732" lon="4.8734">
        <ele>286</ele>
        <time>2018-05-25T09:27:29Z</time>
      </trkpt>
      <trkpt lat="45.97726" lon="4.87331">
        <ele>286</ele>
        <time>2018-05-25T09:27:31Z</time>
      </trkpt>
      <trkpt lat="45.97723" lon="4.87327">
        <ele>286</ele>
        <time>2018-05-25T09:27:32Z</time>
      </trkpt>
      <trkpt lat="45.97716" lon="4.87319">
        <ele>286</ele>
        <time>2018-05-25T09:27:34Z</time>
      </trkpt>
      <trkpt lat="45.97713" lon="4.87315">
        <ele>286</ele>
        <time>2018-05-25T09:27:35Z</time>
      </trkpt>
      <trkpt lat="45.97707" lon="4.87308">
        <ele>286</ele>
        <time>2018-05-25T09:27:37Z</time>
      </trkpt>
      <trkpt lat="45.97704" lon="4.87302">
        <ele>286</ele>
        <time>2018-05-25T09:27:38Z</time>
      </trkpt>
      <trkpt lat="45.977" lon="4.87297">
        <ele>286</ele>
        <time>2018-05-25T09:27:40Z</time>
      </trkpt>
      <trkpt lat="45.97694" lon="4.87292">
        <ele>286</ele>
        <time>2018-05-25T09:27:41Z</time>
      </trkpt>
      <trkpt lat="45.9769" lon="4.87286">
        <ele>286</ele>
        <time>2018-05-25T09:27:42Z</time>
      </trkpt>
      <trkpt lat="45.97687" lon="4.87283">
        <ele>286</ele>
        <time>2018-05-25T09:27:43Z</time>
      </trkpt>
      <trkpt lat="45.97685" lon="4.87282">
        <ele>286</ele>
        <time>2018-05-25T09:27:44Z</time>
      </trkpt>
      <trkpt lat="45.97679" lon="4.87276">
        <ele>286</ele>
        <time>2018-05-25T09:27:45Z</time>
      </trkpt>
      <trkpt lat="45.97672" lon="4.87271">
        <ele>286</ele>
        <time>2018-05-25T09:27:47Z</time>
      </trkpt>
      <trkpt lat="45.97671" lon="4.87269">
        <ele>286</ele>
        <time>2018-05-25T09:27:48Z</time>
      </trkpt>
      <trkpt lat="45.97667" lon="4.87262">
        <ele>286</ele>
        <time>2018-05-25T09:27:49Z</time>
      </trkpt>
      <trkpt lat="45.97664" lon="4.87258">
        <ele>286</ele>
        <time>2018-05-25T09:27:50Z</time>
      </trkpt>
      <trkpt lat="45.97661" lon="4.87251">
        <ele>286</ele>
        <time>2018-05-25T09:27:51Z</time>
      </trkpt>
      <trkpt lat="45.97657" lon="4.87248">
        <ele>285</ele>
        <time>2018-05-25T09:27:52Z</time>
      </trkpt>
      <trkpt lat="45.97653" lon="4.87246">
        <ele>285</ele>
        <time>2018-05-25T09:27:53Z</time>
      </trkpt>
      <trkpt lat="45.97649" lon="4.87242">
        <ele>285</ele>
        <time>2018-05-25T09:27:54Z</time>
      </trkpt>
      <trkpt lat="45.97642" lon="4.87235">
        <ele>284</ele>
        <time>2018-05-25T09:27:56Z</time>
      </trkpt>
      <trkpt lat="45.97638" lon="4.87231">
        <ele>284</ele>
        <time>2018-05-25T09:27:57Z</time>
      </trkpt>
      <trkpt lat="45.97634" lon="4.87228">
        <ele>284</ele>
        <time>2018-05-25T09:27:58Z</time>
      </trkpt>
      <trkpt lat="45.97629" lon="4.87225">
        <ele>284</ele>
        <time>2018-05-25T09:27:59Z</time>
      </trkpt>
      <trkpt lat="45.97625" lon="4.87221">
        <ele>284</ele>
        <time>2018-05-25T09:28:00Z</time>
      </trkpt>
      <trkpt lat="45.97621" lon="4.87218">
        <ele>284</ele>
        <time>2018-05-25T09:28:01Z</time>
      </trkpt>
      <trkpt lat="45.97618" lon="4.87215">
        <ele>284</ele>
        <time>2018-05-25T09:28:02Z</time>
      </trkpt>
      <trkpt lat="45.97611" lon="4.87214">
        <ele>284</ele>
        <time>2018-05-25T09:28:03Z</time>
      </trkpt>
      <trkpt lat="45.97607" lon="4.8721">
        <ele>284</ele>
        <time>2018-05-25T09:28:04Z</time>
      </trkpt>
      <trkpt lat="45.97603" lon="4.87206">
        <ele>284</ele>
        <time>2018-05-25T09:28:05Z</time>
      </trkpt>
      <trkpt lat="45.97599" lon="4.87202">
        <ele>284</ele>
        <time>2018-05-25T09:28:06Z</time>
      </trkpt>
      <trkpt lat="45.97596" lon="4.87198">
        <ele>283</ele>
        <time>2018-05-25T09:28:07Z</time>
      </trkpt>
      <trkpt lat="45.97592" lon="4.87193">
        <ele>283</ele>
        <time>2018-05-25T09:28:08Z</time>
      </trkpt>
      <trkpt lat="45.97588" lon="4.87189">
        <ele>283</ele>
        <time>2018-05-25T09:28:09Z</time>
      </trkpt>
      <trkpt lat="45.97584" lon="4.87184">
        <ele>283</ele>
        <time>2018-05-25T09:28:10Z</time>
      </trkpt>
      <trkpt lat="45.9758" lon="4.87182">
        <ele>283</ele>
        <time>2018-05-25T09:28:11Z</time>
      </trkpt>
      <trkpt lat="45.97576" lon="4.87178">
        <ele>283</ele>
        <time>2018-05-25T09:28:12Z</time>
      </trkpt>
      <trkpt lat="45.97572" lon="4.87174">
        <ele>283</ele>
        <time>2018-05-25T09:28:13Z</time>
      </trkpt>
      <trkpt lat="45.97565" lon="4.87169">
        <ele>283</ele>
        <time>2018-05-25T09:28:15Z</time>
      </trkpt>
      <trkpt lat="45.97559" lon="4.87164">
        <ele>283</ele>
        <time>2018-05-25T09:28:16Z</time>
      </trkpt>
      <trkpt lat="45.97555" lon="4.87161">
        <ele>283</ele>
        <time>2018-05-25T09:28:17Z</time>
      </trkpt>
      <trkpt lat="45.97552" lon="4.87157">
        <ele>283</ele>
        <time>2018-05-25T09:28:18Z</time>
      </trkpt>
      <trkpt lat="45.97545" lon="4.8715">
        <ele>283</ele>
        <time>2018-05-25T09:28:20Z</time>
      </trkpt>
      <trkpt lat="45.97541" lon="4.87147">
        <ele>283</ele>
        <time>2018-05-25T09:28:21Z</time>
      </trkpt>
      <trkpt lat="45.97535" lon="4.87142">
        <ele>283</ele>
        <time>2018-05-25T09:28:22Z</time>
      </trkpt>
      <trkpt lat="45.97531" lon="4.87138">
        <ele>283</ele>
        <time>2018-05-25T09:28:23Z</time>
      </trkpt>
      <trkpt lat="45.97524" lon="4.87131">
        <ele>283</ele>
        <time>2018-05-25T09:28:25Z</time>
      </trkpt>
      <trkpt lat="45.9752" lon="4.87127">
        <ele>283</ele>
        <time>2018-05-25T09:28:26Z</time>
      </trkpt>
      <trkpt lat="45.97515" lon="4.87125">
        <ele>283</ele>
        <time>2018-05-25T09:28:27Z</time>
      </trkpt>
      <trkpt lat="45.97511" lon="4.87121">
        <ele>283</ele>
        <time>2018-05-25T09:28:28Z</time>
      </trkpt>
      <trkpt lat="45.97506" lon="4.87118">
        <ele>283</ele>
        <time>2018-05-25T09:28:29Z</time>
      </trkpt>
      <trkpt lat="45.97502" lon="4.87113">
        <ele>283</ele>
        <time>2018-05-25T09:28:30Z</time>
      </trkpt>
      <trkpt lat="45.97498" lon="4.87109">
        <ele>283</ele>
        <time>2018-05-25T09:28:31Z</time>
      </trkpt>
      <trkpt lat="45.97495" lon="4.87105">
        <ele>283</ele>
        <time>2018-05-25T09:28:32Z</time>
      </trkpt>
      <trkpt lat="45.97488" lon="4.87096">
        <ele>283</ele>
        <time>2018-05-25T09:28:34Z</time>
      </trkpt>
      <trkpt lat="45.97484" lon="4.87093">
        <ele>283</ele>
        <time>2018-05-25T09:28:35Z</time>
      </trkpt>
      <trkpt lat="45.97481" lon="4.8709">
        <ele>283</ele>
        <time>2018-05-25T09:28:36Z</time>
      </trkpt>
      <trkpt lat="45.97477" lon="4.87085">
        <ele>283</ele>
        <time>2018-05-25T09:28:37Z</time>
      </trkpt>
      <trkpt lat="45.97473" lon="4.8708">
        <ele>284</ele>
        <time>2018-05-25T09:28:38Z</time>
      </trkpt>
      <trkpt lat="45.97469" lon="4.87075">
        <ele>284</ele>
        <time>2018-05-25T09:28:39Z</time>
      </trkpt>
      <trkpt lat="45.97462" lon="4.87066">
        <ele>284</ele>
        <time>2018-05-25T09:28:41Z</time>
      </trkpt>
      <trkpt lat="45.97459" lon="4.87063">
        <ele>284</ele>
        <time>2018-05-25T09:28:42Z</time>
      </trkpt>
      <trkpt lat="45.97453" lon="4.87056">
        <ele>284</ele>
        <time>2018-05-25T09:28:44Z</time>
      </trkpt>
      <trkpt lat="45.97449" lon="4.87052">
        <ele>284</ele>
        <time>2018-05-25T09:28:45Z</time>
      </trkpt>
      <trkpt lat="45.97446" lon="4.87047">
        <ele>284</ele>
        <time>2018-05-25T09:28:46Z</time>
      </trkpt>
      <trkpt lat="45.97442" lon="4.87043">
        <ele>284</ele>
        <time>2018-05-25T09:28:47Z</time>
      </trkpt>
      <trkpt lat="45.97438" lon="4.8704">
        <ele>284</ele>
        <time>2018-05-25T09:28:48Z</time>
      </trkpt>
      <trkpt lat="45.97435" lon="4.87034">
        <ele>284</ele>
        <time>2018-05-25T09:28:49Z</time>
      </trkpt>
      <trkpt lat="45.97427" lon="4.87029">
        <ele>284</ele>
        <time>2018-05-25T09:28:51Z</time>
      </trkpt>
      <trkpt lat="45.97423" lon="4.87025">
        <ele>284</ele>
        <time>2018-05-25T09:28:52Z</time>
      </trkpt>
      <trkpt lat="45.97419" lon="4.87021">
        <ele>284</ele>
        <time>2018-05-25T09:28:53Z</time>
      </trkpt>
      <trkpt lat="45.97415" lon="4.87017">
        <ele>285</ele>
        <time>2018-05-25T09:28:54Z</time>
      </trkpt>
      <trkpt lat="45.97408" lon="4.8701">
        <ele>285</ele>
        <time>2018-05-25T09:28:56Z</time>
      </trkpt>
      <trkpt lat="45.97403" lon="4.87007">
        <ele>285</ele>
        <time>2018-05-25T09:28:57Z</time>
      </trkpt>
      <trkpt lat="45.974" lon="4.87003">
        <ele>285</ele>
        <time>2018-05-25T09:28:58Z</time>
      </trkpt>
      <trkpt lat="45.97396" lon="4.86999">
        <ele>285</ele>
        <time>2018-05-25T09:28:59Z</time>
      </trkpt>
      <trkpt lat="45.97391" lon="4.86995">
        <ele>285</ele>
        <time>2018-05-25T09:29:00Z</time>
      </trkpt>
      <trkpt lat="45.97387" lon="4.8699">
        <ele>285</ele>
        <time>2018-05-25T09:29:01Z</time>
      </trkpt>
      <trkpt lat="45.97382" lon="4.86986">
        <ele>285</ele>
        <time>2018-05-25T09:29:02Z</time>
      </trkpt>
      <trkpt lat="45.97378" lon="4.86982">
        <ele>285</ele>
        <time>2018-05-25T09:29:03Z</time>
      </trkpt>
      <trkpt lat="45.97374" lon="4.86977">
        <ele>285</ele>
        <time>2018-05-25T09:29:04Z</time>
      </trkpt>
      <trkpt lat="45.97368" lon="4.86972">
        <ele>285</ele>
        <time>2018-05-25T09:29:05Z</time>
      </trkpt>
      <trkpt lat="45.97364" lon="4.86967">
        <ele>285</ele>
        <time>2018-05-25T09:29:06Z</time>
      </trkpt>
      <trkpt lat="45.97359" lon="4.86961">
        <ele>285</ele>
        <time>2018-05-25T09:29:07Z</time>
      </trkpt>
      <trkpt lat="45.97356" lon="4.86958">
        <ele>284</ele>
        <time>2018-05-25T09:29:08Z</time>
      </trkpt>
      <trkpt lat="45.97352" lon="4.86953">
        <ele>284</ele>
        <time>2018-05-25T09:29:09Z</time>
      </trkpt>
      <trkpt lat="45.97348" lon="4.86947">
        <ele>284</ele>
        <time>2018-05-25T09:29:10Z</time>
      </trkpt>
      <trkpt lat="45.97345" lon="4.86943">
        <ele>284</ele>
        <time>2018-05-25T09:29:11Z</time>
      </trkpt>
      <trkpt lat="45.97337" lon="4.86936">
        <ele>284</ele>
        <time>2018-05-25T09:29:13Z</time>
      </trkpt>
      <trkpt lat="45.97332" lon="4.86932">
        <ele>284</ele>
        <time>2018-05-25T09:29:14Z</time>
      </trkpt>
      <trkpt lat="45.97328" lon="4.86927">
        <ele>284</ele>
        <time>2018-05-25T09:29:15Z</time>
      </trkpt>
      <trkpt lat="45.97324" lon="4.86921">
        <ele>284</ele>
        <time>2018-05-25T09:29:16Z</time>
      </trkpt>
      <trkpt lat="45.97321" lon="4.86916">
        <ele>284</ele>
        <time>2018-05-25T09:29:17Z</time>
      </trkpt>
      <trkpt lat="45.97317" lon="4.86912">
        <ele>284</ele>
        <time>2018-05-25T09:29:18Z</time>
      </trkpt>
      <trkpt lat="45.97311" lon="4.86903">
        <ele>284</ele>
        <time>2018-05-25T09:29:20Z</time>
      </trkpt>
      <trkpt lat="45.97308" lon="4.86899">
        <ele>284</ele>
        <time>2018-05-25T09:29:21Z</time>
      </trkpt>
      <trkpt lat="45.97302" lon="4.86891">
        <ele>284</ele>
        <time>2018-05-25T09:29:23Z</time>
      </trkpt>
      <trkpt lat="45.97299" lon="4.86887">
        <ele>284</ele>
        <time>2018-05-25T09:29:24Z</time>
      </trkpt>
      <trkpt lat="45.97295" lon="4.86882">
        <ele>284</ele>
        <time>2018-05-25T09:29:25Z</time>
      </trkpt>
      <trkpt lat="45.97291" lon="4.86875">
        <ele>285</ele>
        <time>2018-05-25T09:29:26Z</time>
      </trkpt>
      <trkpt lat="45.97287" lon="4.86869">
        <ele>285</ele>
        <time>2018-05-25T09:29:27Z</time>
      </trkpt>
      <trkpt lat="45.97284" lon="4.86866">
        <ele>285</ele>
        <time>2018-05-25T09:29:28Z</time>
      </trkpt>
      <trkpt lat="45.9728" lon="4.8686">
        <ele>285</ele>
        <time>2018-05-25T09:29:29Z</time>
      </trkpt>
      <trkpt lat="45.97277" lon="4.86854">
        <ele>285</ele>
        <time>2018-05-25T09:29:30Z</time>
      </trkpt>
      <trkpt lat="45.97274" lon="4.86849">
        <ele>285</ele>
        <time>2018-05-25T09:29:31Z</time>
      </trkpt>
      <trkpt lat="45.9727" lon="4.86843">
        <ele>285</ele>
        <time>2018-05-25T09:29:32Z</time>
      </trkpt>
      <trkpt lat="45.97268" lon="4.86835">
        <ele>285</ele>
        <time>2018-05-25T09:29:33Z</time>
      </trkpt>
      <trkpt lat="45.97265" lon="4.86829">
        <ele>285</ele>
        <time>2018-05-25T09:29:34Z</time>
      </trkpt>
      <trkpt lat="45.97262" lon="4.86824">
        <ele>285</ele>
        <time>2018-05-25T09:29:35Z</time>
      </trkpt>
      <trkpt lat="45.97258" lon="4.86819">
        <ele>285</ele>
        <time>2018-05-25T09:29:36Z</time>
      </trkpt>
      <trkpt lat="45.97255" lon="4.86812">
        <ele>285</ele>
        <time>2018-05-25T09:29:37Z</time>
      </trkpt>
      <trkpt lat="45.97251" lon="4.86808">
        <ele>285</ele>
        <time>2018-05-25T09:29:38Z</time>
      </trkpt>
      <trkpt lat="45.97247" lon="4.86803">
        <ele>284</ele>
        <time>2018-05-25T09:29:39Z</time>
      </trkpt>
      <trkpt lat="45.97243" lon="4.86801">
        <ele>284</ele>
        <time>2018-05-25T09:29:40Z</time>
      </trkpt>
      <trkpt lat="45.97238" lon="4.86798">
        <ele>284</ele>
        <time>2018-05-25T09:29:41Z</time>
      </trkpt>
      <trkpt lat="45.97233" lon="4.86796">
        <ele>284</ele>
        <time>2018-05-25T09:29:42Z</time>
      </trkpt>
      <trkpt lat="45.97225" lon="4.86793">
        <ele>284</ele>
        <time>2018-05-25T09:29:44Z</time>
      </trkpt>
      <trkpt lat="45.97219" lon="4.86792">
        <ele>284</ele>
        <time>2018-05-25T09:29:45Z</time>
      </trkpt>
      <trkpt lat="45.97214" lon="4.86791">
        <ele>284</ele>
        <time>2018-05-25T09:29:46Z</time>
      </trkpt>
      <trkpt lat="45.97209" lon="4.86792">
        <ele>284</ele>
        <time>2018-05-25T09:29:47Z</time>
      </trkpt>
      <trkpt lat="45.97203" lon="4.86795">
        <ele>284</ele>
        <time>2018-05-25T09:29:48Z</time>
      </trkpt>
      <trkpt lat="45.972" lon="4.86796">
        <ele>284</ele>
        <time>2018-05-25T09:29:49Z</time>
      </trkpt>
      <trkpt lat="45.97192" lon="4.86798">
        <ele>284</ele>
        <time>2018-05-25T09:29:51Z</time>
      </trkpt>
      <trkpt lat="45.97189" lon="4.868">
        <ele>284</ele>
        <time>2018-05-25T09:29:52Z</time>
      </trkpt>
      <trkpt lat="45.97181" lon="4.86802">
        <ele>284</ele>
        <time>2018-05-25T09:29:54Z</time>
      </trkpt>
      <trkpt lat="45.97177" lon="4.86804">
        <ele>283</ele>
        <time>2018-05-25T09:29:55Z</time>
      </trkpt>
      <trkpt lat="45.97169" lon="4.86808">
        <ele>283</ele>
        <time>2018-05-25T09:29:57Z</time>
      </trkpt>
      <trkpt lat="45.97164" lon="4.86811">
        <ele>283</ele>
        <time>2018-05-25T09:29:58Z</time>
      </trkpt>
      <trkpt lat="45.9716" lon="4.86812">
        <ele>283</ele>
        <time>2018-05-25T09:29:59Z</time>
      </trkpt>
      <trkpt lat="45.97155" lon="4.86814">
        <ele>283</ele>
        <time>2018-05-25T09:30:00Z</time>
      </trkpt>
      <trkpt lat="45.97151" lon="4.86815">
        <ele>283</ele>
        <time>2018-05-25T09:30:01Z</time>
      </trkpt>
      <trkpt lat="45.97147" lon="4.86818">
        <ele>283</ele>
        <time>2018-05-25T09:30:02Z</time>
      </trkpt>
      <trkpt lat="45.97139" lon="4.86824">
        <ele>283</ele>
        <time>2018-05-25T09:30:04Z</time>
      </trkpt>
      <trkpt lat="45.97134" lon="4.86826">
        <ele>283</ele>
        <time>2018-05-25T09:30:05Z</time>
      </trkpt>
      <trkpt lat="45.97128" lon="4.86828">
        <ele>283</ele>
        <time>2018-05-25T09:30:06Z</time>
      </trkpt>
      <trkpt lat="45.97123" lon="4.86829">
        <ele>283</ele>
        <time>2018-05-25T09:30:07Z</time>
      </trkpt>
      <trkpt lat="45.97118" lon="4.8683">
        <ele>283</ele>
        <time>2018-05-25T09:30:08Z</time>
      </trkpt>
      <trkpt lat="45.97113" lon="4.86832">
        <ele>283</ele>
        <time>2018-05-25T09:30:09Z</time>
      </trkpt>
      <trkpt lat="45.97108" lon="4.86832">
        <ele>284</ele>
        <time>2018-05-25T09:30:10Z</time>
      </trkpt>
      <trkpt lat="45.97103" lon="4.86833">
        <ele>284</ele>
        <time>2018-05-25T09:30:11Z</time>
      </trkpt>
      <trkpt lat="45.97098" lon="4.86835">
        <ele>284</ele>
        <time>2018-05-25T09:30:12Z</time>
      </trkpt>
      <trkpt lat="45.97093" lon="4.86836">
        <ele>284</ele>
        <time>2018-05-25T09:30:13Z</time>
      </trkpt>
      <trkpt lat="45.97089" lon="4.86837">
        <ele>284</ele>
        <time>2018-05-25T09:30:14Z</time>
      </trkpt>
      <trkpt lat="45.97084" lon="4.86836">
        <ele>284</ele>
        <time>2018-05-25T09:30:15Z</time>
      </trkpt>
      <trkpt lat="45.97079" lon="4.86837">
        <ele>284</ele>
        <time>2018-05-25T09:30:16Z</time>
      </trkpt>
      <trkpt lat="45.97074" lon="4.86837">
        <ele>284</ele>
        <time>2018-05-25T09:30:17Z</time>
      </trkpt>
      <trkpt lat="45.97069" lon="4.86837">
        <ele>284</ele>
        <time>2018-05-25T09:30:18Z</time>
      </trkpt>
      <trkpt lat="45.97064" lon="4.86839">
        <ele>284</ele>
        <time>2018-05-25T09:30:19Z</time>
      </trkpt>
      <trkpt lat="45.97059" lon="4.86839">
        <ele>284</ele>
        <time>2018-05-25T09:30:20Z</time>
      </trkpt>
      <trkpt lat="45.97054" lon="4.86841">
        <ele>285</ele>
        <time>2018-05-25T09:30:21Z</time>
      </trkpt>
      <trkpt lat="45.97049" lon="4.86841">
        <ele>285</ele>
        <time>2018-05-25T09:30:22Z</time>
      </trkpt>
      <trkpt lat="45.97045" lon="4.86842">
        <ele>285</ele>
        <time>2018-05-25T09:30:23Z</time>
      </trkpt>
      <trkpt lat="45.97041" lon="4.86843">
        <ele>285</ele>
        <time>2018-05-25T09:30:24Z</time>
      </trkpt>
      <trkpt lat="45.97036" lon="4.86843">
        <ele>285</ele>
        <time>2018-05-25T09:30:25Z</time>
      </trkpt>
      <trkpt lat="45.97028" lon="4.86845">
        <ele>285</ele>
        <time>2018-05-25T09:30:27Z</time>
      </trkpt>
      <trkpt lat="45.97023" lon="4.86845">
        <ele>285</ele>
        <time>2018-05-25T09:30:28Z</time>
      </trkpt>
      <trkpt lat="45.97014" lon="4.86846">
        <ele>285</ele>
        <time>2018-05-25T09:30:30Z</time>
      </trkpt>
      <trkpt lat="45.9701" lon="4.86846">
        <ele>285</ele>
        <time>2018-05-25T09:30:31Z</time>
      </trkpt>
      <trkpt lat="45.97006" lon="4.86849">
        <ele>285</ele>
        <time>2018-05-25T09:30:32Z</time>
      </trkpt>
      <trkpt lat="45.97001" lon="4.86849">
        <ele>285</ele>
        <time>2018-05-25T09:30:33Z</time>
      </trkpt>
      <trkpt lat="45.96994" lon="4.86848">
        <ele>286</ele>
        <time>2018-05-25T09:30:35Z</time>
      </trkpt>
      <trkpt lat="45.9699" lon="4.86846">
        <ele>286</ele>
        <time>2018-05-25T09:30:36Z</time>
      </trkpt>
      <trkpt lat="45.96983" lon="4.86844">
        <ele>286</ele>
        <time>2018-05-25T09:30:38Z</time>
      </trkpt>
      <trkpt lat="45.96979" lon="4.86843">
        <ele>286</ele>
        <time>2018-05-25T09:30:39Z</time>
      </trkpt>
      <trkpt lat="45.96972" lon="4.86841">
        <ele>286</ele>
        <time>2018-05-25T09:30:41Z</time>
      </trkpt>
      <trkpt lat="45.96968" lon="4.86839">
        <ele>286</ele>
        <time>2018-05-25T09:30:42Z</time>
      </trkpt>
      <trkpt lat="45.9696" lon="4.86835">
        <ele>287</ele>
        <time>2018-05-25T09:30:44Z</time>
      </trkpt>
      <trkpt lat="45.96956" lon="4.86833">
        <ele>286</ele>
        <time>2018-05-25T09:30:45Z</time>
      </trkpt>
      <trkpt lat="45.96949" lon="4.8683">
        <ele>287</ele>
        <time>2018-05-25T09:30:47Z</time>
      </trkpt>
      <trkpt lat="45.96946" lon="4.86828">
        <ele>287</ele>
        <time>2018-05-25T09:30:48Z</time>
      </trkpt>
      <trkpt lat="45.9694" lon="4.86824">
        <ele>287</ele>
        <time>2018-05-25T09:30:51Z</time>
      </trkpt>
      <trkpt lat="45.96937" lon="4.86822">
        <ele>287</ele>
        <time>2018-05-25T09:30:52Z</time>
      </trkpt>
      <trkpt lat="45.96929" lon="4.86816">
        <ele>287</ele>
        <time>2018-05-25T09:30:55Z</time>
      </trkpt>
      <trkpt lat="45.96921" lon="4.86809">
        <ele>287</ele>
        <time>2018-05-25T09:30:56Z</time>
      </trkpt>
      <trkpt lat="45.96912" lon="4.86806">
        <ele>288</ele>
        <time>2018-05-25T09:31:00Z</time>
      </trkpt>
      <trkpt lat="45.96905" lon="4.8681">
        <ele>288</ele>
        <time>2018-05-25T09:31:01Z</time>
      </trkpt>
      <trkpt lat="45.96901" lon="4.8682">
        <ele>288</ele>
        <time>2018-05-25T09:31:03Z</time>
      </trkpt>
      <trkpt lat="45.96899" lon="4.86826">
        <ele>288</ele>
        <time>2018-05-25T09:31:04Z</time>
      </trkpt>
      <trkpt lat="45.96896" lon="4.86836">
        <ele>288</ele>
        <time>2018-05-25T09:31:06Z</time>
      </trkpt>
      <trkpt lat="45.96894" lon="4.86842">
        <ele>289</ele>
        <time>2018-05-25T09:31:07Z</time>
      </trkpt>
      <trkpt lat="45.96891" lon="4.86852">
        <ele>289</ele>
        <time>2018-05-25T09:31:09Z</time>
      </trkpt>
      <trkpt lat="45.9689" lon="4.86857">
        <ele>289</ele>
        <time>2018-05-25T09:31:10Z</time>
      </trkpt>
      <trkpt lat="45.96888" lon="4.86869">
        <ele>289</ele>
        <time>2018-05-25T09:31:12Z</time>
      </trkpt>
      <trkpt lat="45.96886" lon="4.86875">
        <ele>289</ele>
        <time>2018-05-25T09:31:13Z</time>
      </trkpt>
      <trkpt lat="45.96883" lon="4.86886">
        <ele>289</ele>
        <time>2018-05-25T09:31:15Z</time>
      </trkpt>
      <trkpt lat="45.96881" lon="4.86891">
        <ele>289</ele>
        <time>2018-05-25T09:31:16Z</time>
      </trkpt>
      <trkpt lat="45.9688" lon="4.86899">
        <ele>289</ele>
        <time>2018-05-25T09:31:17Z</time>
      </trkpt>
      <trkpt lat="45.96879" lon="4.86906">
        <ele>289</ele>
        <time>2018-05-25T09:31:18Z</time>
      </trkpt>
      <trkpt lat="45.96874" lon="4.86915">
        <ele>289</ele>
        <time>2018-05-25T09:31:20Z</time>
      </trkpt>
      <trkpt lat="45.96871" lon="4.8692">
        <ele>288</ele>
        <time>2018-05-25T09:31:21Z</time>
      </trkpt>
      <trkpt lat="45.96868" lon="4.86927">
        <ele>288</ele>
        <time>2018-05-25T09:31:22Z</time>
      </trkpt>
      <trkpt lat="45.96866" lon="4.86932">
        <ele>288</ele>
        <time>2018-05-25T09:31:23Z</time>
      </trkpt>
      <trkpt lat="45.96863" lon="4.86942">
        <ele>288</ele>
        <time>2018-05-25T09:31:25Z</time>
      </trkpt>
      <trkpt lat="45.9686" lon="4.86947">
        <ele>288</ele>
        <time>2018-05-25T09:31:26Z</time>
      </trkpt>
      <trkpt lat="45.96858" lon="4.86955">
        <ele>288</ele>
        <time>2018-05-25T09:31:28Z</time>
      </trkpt>
      <trkpt lat="45.96855" lon="4.86963">
        <ele>288</ele>
        <time>2018-05-25T09:31:29Z</time>
      </trkpt>
      <trkpt lat="45.96852" lon="4.86973">
        <ele>288</ele>
        <time>2018-05-25T09:31:31Z</time>
      </trkpt>
      <trkpt lat="45.9685" lon="4.86979">
        <ele>288</ele>
        <time>2018-05-25T09:31:32Z</time>
      </trkpt>
      <trkpt lat="45.96846" lon="4.86989">
        <ele>288</ele>
        <time>2018-05-25T09:31:34Z</time>
      </trkpt>
      <trkpt lat="45.96845" lon="4.86996">
        <ele>288</ele>
        <time>2018-05-25T09:31:35Z</time>
      </trkpt>
      <trkpt lat="45.96842" lon="4.87003">
        <ele>288</ele>
        <time>2018-05-25T09:31:36Z</time>
      </trkpt>
      <trkpt lat="45.96841" lon="4.87009">
        <ele>288</ele>
        <time>2018-05-25T09:31:37Z</time>
      </trkpt>
      <trkpt lat="45.96838" lon="4.87015">
        <ele>288</ele>
        <time>2018-05-25T09:31:38Z</time>
      </trkpt>
      <trkpt lat="45.96837" lon="4.87022">
        <ele>287</ele>
        <time>2018-05-25T09:31:39Z</time>
      </trkpt>
      <trkpt lat="45.96835" lon="4.87028">
        <ele>287</ele>
        <time>2018-05-25T09:31:40Z</time>
      </trkpt>
      <trkpt lat="45.96834" lon="4.87036">
        <ele>287</ele>
        <time>2018-05-25T09:31:41Z</time>
      </trkpt>
      <trkpt lat="45.96833" lon="4.87044">
        <ele>287</ele>
        <time>2018-05-25T09:31:42Z</time>
      </trkpt>
      <trkpt lat="45.9683" lon="4.87049">
        <ele>287</ele>
        <time>2018-05-25T09:31:43Z</time>
      </trkpt>
      <trkpt lat="45.96828" lon="4.87055">
        <ele>287</ele>
        <time>2018-05-25T09:31:44Z</time>
      </trkpt>
      <trkpt lat="45.96826" lon="4.87061">
        <ele>287</ele>
        <time>2018-05-25T09:31:45Z</time>
      </trkpt>
      <trkpt lat="45.96824" lon="4.87068">
        <ele>287</ele>
        <time>2018-05-25T09:31:46Z</time>
      </trkpt>
      <trkpt lat="45.96822" lon="4.87075">
        <ele>287</ele>
        <time>2018-05-25T09:31:47Z</time>
      </trkpt>
      <trkpt lat="45.96818" lon="4.87081">
        <ele>287</ele>
        <time>2018-05-25T09:31:48Z</time>
      </trkpt>
      <trkpt lat="45.96816" lon="4.87087">
        <ele>287</ele>
        <time>2018-05-25T09:31:49Z</time>
      </trkpt>
      <trkpt lat="45.96812" lon="4.87097">
        <ele>287</ele>
        <time>2018-05-25T09:31:51Z</time>
      </trkpt>
      <trkpt lat="45.96809" lon="4.87102">
        <ele>286</ele>
        <time>2018-05-25T09:31:52Z</time>
      </trkpt>
      <trkpt lat="45.96808" lon="4.87115">
        <ele>286</ele>
        <time>2018-05-25T09:31:54Z</time>
      </trkpt>
      <trkpt lat="45.96807" lon="4.87119">
        <ele>286</ele>
        <time>2018-05-25T09:31:55Z</time>
      </trkpt>
      <trkpt lat="45.96805" lon="4.87126">
        <ele>286</ele>
        <time>2018-05-25T09:31:56Z</time>
      </trkpt>
      <trkpt lat="45.96799" lon="4.87128">
        <ele>286</ele>
        <time>2018-05-25T09:31:57Z</time>
      </trkpt>
      <trkpt lat="45.96797" lon="4.87138">
        <ele>286</ele>
        <time>2018-05-25T09:31:58Z</time>
      </trkpt>
      <trkpt lat="45.96794" lon="4.87143">
        <ele>286</ele>
        <time>2018-05-25T09:31:59Z</time>
      </trkpt>
      <trkpt lat="45.96792" lon="4.87149">
        <ele>286</ele>
        <time>2018-05-25T09:32:00Z</time>
      </trkpt>
      <trkpt lat="45.9679" lon="4.87155">
        <ele>286</ele>
        <time>2018-05-25T09:32:01Z</time>
      </trkpt>
      <trkpt lat="45.96788" lon="4.87162">
        <ele>286</ele>
        <time>2018-05-25T09:32:02Z</time>
      </trkpt>
      <trkpt lat="45.96788" lon="4.87172">
        <ele>285</ele>
        <time>2018-05-25T09:32:03Z</time>
      </trkpt>
      <trkpt lat="45.96786" lon="4.87182">
        <ele>285</ele>
        <time>2018-05-25T09:32:05Z</time>
      </trkpt>
      <trkpt lat="45.96785" lon="4.87185">
        <ele>285</ele>
        <time>2018-05-25T09:32:06Z</time>
      </trkpt>
      <trkpt lat="45.96785" lon="4.87195">
        <ele>285</ele>
        <time>2018-05-25T09:32:08Z</time>
      </trkpt>
      <trkpt lat="45.96785" lon="4.87198">
        <ele>285</ele>
        <time>2018-05-25T09:32:09Z</time>
      </trkpt>
      <trkpt lat="45.96788" lon="4.87188">
        <ele>285</ele>
        <time>2018-05-25T09:32:23Z</time>
      </trkpt>
      <trkpt lat="45.96789" lon="4.87185">
        <ele>285</ele>
        <time>2018-05-25T09:32:24Z</time>
      </trkpt>
      <trkpt lat="45.96791" lon="4.87175">
        <ele>285</ele>
        <time>2018-05-25T09:32:28Z</time>
      </trkpt>
      <trkpt lat="45.96791" lon="4.87172">
        <ele>285</ele>
        <time>2018-05-25T09:32:29Z</time>
      </trkpt>
      <trkpt lat="45.96791" lon="4.87159">
        <ele>286</ele>
        <time>2018-05-25T09:32:32Z</time>
      </trkpt>
      <trkpt lat="45.9679" lon="4.87154">
        <ele>286</ele>
        <time>2018-05-25T09:32:33Z</time>
      </trkpt>
      <trkpt lat="45.96787" lon="4.87146">
        <ele>286</ele>
        <time>2018-05-25T09:32:35Z</time>
      </trkpt>
      <trkpt lat="45.96785" lon="4.87141">
        <ele>286</ele>
        <time>2018-05-25T09:32:36Z</time>
      </trkpt>
      <trkpt lat="45.96779" lon="4.8713">
        <ele>286</ele>
        <time>2018-05-25T09:32:37Z</time>
      </trkpt>
      <trkpt lat="45.96776" lon="4.87125">
        <ele>286</ele>
        <time>2018-05-25T09:32:39Z</time>
      </trkpt>
      <trkpt lat="45.96772" lon="4.87119">
        <ele>286</ele>
        <time>2018-05-25T09:32:40Z</time>
      </trkpt>
      <trkpt lat="45.96769" lon="4.87115">
        <ele>286</ele>
        <time>2018-05-25T09:32:41Z</time>
      </trkpt>
      <trkpt lat="45.96765" lon="4.8711">
        <ele>286</ele>
        <time>2018-05-25T09:32:42Z</time>
      </trkpt>
      <trkpt lat="45.9676" lon="4.87102">
        <ele>287</ele>
        <time>2018-05-25T09:32:44Z</time>
      </trkpt>
      <trkpt lat="45.96757" lon="4.87098">
        <ele>287</ele>
        <time>2018-05-25T09:32:45Z</time>
      </trkpt>
      <trkpt lat="45.96751" lon="4.87091">
        <ele>287</ele>
        <time>2018-05-25T09:32:47Z</time>
      </trkpt>
      <trkpt lat="45.96748" lon="4.87087">
        <ele>287</ele>
        <time>2018-05-25T09:32:48Z</time>
      </trkpt>
      <trkpt lat="45.96742" lon="4.87078">
        <ele>287</ele>
        <time>2018-05-25T09:32:50Z</time>
      </trkpt>
      <trkpt lat="45.96739" lon="4.87075">
        <ele>287</ele>
        <time>2018-05-25T09:32:51Z</time>
      </trkpt>
      <trkpt lat="45.96731" lon="4.87069">
        <ele>287</ele>
        <time>2018-05-25T09:32:53Z</time>
      </trkpt>
      <trkpt lat="45.96727" lon="4.87067">
        <ele>287</ele>
        <time>2018-05-25T09:32:54Z</time>
      </trkpt>
      <trkpt lat="45.9672" lon="4.87061">
        <ele>287</ele>
        <time>2018-05-25T09:32:56Z</time>
      </trkpt>
      <trkpt lat="45.96716" lon="4.87059">
        <ele>287</ele>
        <time>2018-05-25T09:32:57Z</time>
      </trkpt>
      <trkpt lat="45.96708" lon="4.87053">
        <ele>287</ele>
        <time>2018-05-25T09:33:00Z</time>
      </trkpt>
      <trkpt lat="45.96706" lon="4.87052">
        <ele>287</ele>
        <time>2018-05-25T09:33:01Z</time>
      </trkpt>
      <trkpt lat="45.96704" lon="4.8705">
        <ele>287</ele>
        <time>2018-05-25T09:33:02Z</time>
      </trkpt>
      <trkpt lat="45.96697" lon="4.87045">
        <ele>287</ele>
        <time>2018-05-25T09:33:03Z</time>
      </trkpt>
      <trkpt lat="45.96689" lon="4.87041">
        <ele>287</ele>
        <time>2018-05-25T09:33:05Z</time>
      </trkpt>
      <trkpt lat="45.96685" lon="4.87038">
        <ele>287</ele>
        <time>2018-05-25T09:33:06Z</time>
      </trkpt>
      <trkpt lat="45.96678" lon="4.87032">
        <ele>287</ele>
        <time>2018-05-25T09:33:08Z</time>
      </trkpt>
      <trkpt lat="45.96675" lon="4.87027">
        <ele>287</ele>
        <time>2018-05-25T09:33:09Z</time>
      </trkpt>
      <trkpt lat="45.96671" lon="4.87023">
        <ele>287</ele>
        <time>2018-05-25T09:33:10Z</time>
      </trkpt>
      <trkpt lat="45.96668" lon="4.87016">
        <ele>287</ele>
        <time>2018-05-25T09:33:11Z</time>
      </trkpt>
      <trkpt lat="45.96665" lon="4.8701">
        <ele>286</ele>
        <time>2018-05-25T09:33:12Z</time>
      </trkpt>
      <trkpt lat="45.96662" lon="4.87003">
        <ele>287</ele>
        <time>2018-05-25T09:33:13Z</time>
      </trkpt>
      <trkpt lat="45.96657" lon="4.86994">
        <ele>287</ele>
        <time>2018-05-25T09:33:15Z</time>
      </trkpt>
      <trkpt lat="45.96654" lon="4.86989">
        <ele>287</ele>
        <time>2018-05-25T09:33:16Z</time>
      </trkpt>
      <trkpt lat="45.9665" lon="4.86985">
        <ele>287</ele>
        <time>2018-05-25T09:33:17Z</time>
      </trkpt>
      <trkpt lat="45.96646" lon="4.86982">
        <ele>287</ele>
        <time>2018-05-25T09:33:18Z</time>
      </trkpt>
      <trkpt lat="45.96641" lon="4.8698">
        <ele>286</ele>
        <time>2018-05-25T09:33:19Z</time>
      </trkpt>
      <trkpt lat="45.96636" lon="4.86981">
        <ele>286</ele>
        <time>2018-05-25T09:33:20Z</time>
      </trkpt>
      <trkpt lat="45.9663" lon="4.86981">
        <ele>286</ele>
        <time>2018-05-25T09:33:21Z</time>
      </trkpt>
      <trkpt lat="45.96626" lon="4.86982">
        <ele>286</ele>
        <time>2018-05-25T09:33:22Z</time>
      </trkpt>
      <trkpt lat="45.96619" lon="4.86983">
        <ele>286</ele>
        <time>2018-05-25T09:33:23Z</time>
      </trkpt>
      <trkpt lat="45.96613" lon="4.86983">
        <ele>286</ele>
        <time>2018-05-25T09:33:24Z</time>
      </trkpt>
      <trkpt lat="45.96606" lon="4.86985">
        <ele>286</ele>
        <time>2018-05-25T09:33:25Z</time>
      </trkpt>
      <trkpt lat="45.966" lon="4.86986">
        <ele>286</ele>
        <time>2018-05-25T09:33:26Z</time>
      </trkpt>
      <trkpt lat="45.96594" lon="4.86985">
        <ele>286</ele>
        <time>2018-05-25T09:33:27Z</time>
      </trkpt>
      <trkpt lat="45.96587" lon="4.86986">
        <ele>286</ele>
        <time>2018-05-25T09:33:28Z</time>
      </trkpt>
      <trkpt lat="45.96581" lon="4.86985">
        <ele>284</ele>
        <time>2018-05-25T09:33:29Z</time>
      </trkpt>
      <trkpt lat="45.96575" lon="4.86985">
        <ele>284</ele>
        <time>2018-05-25T09:33:30Z</time>
      </trkpt>
      <trkpt lat="45.96571" lon="4.86986">
        <ele>284</ele>
        <time>2018-05-25T09:33:31Z</time>
      </trkpt>
      <trkpt lat="45.96566" lon="4.86987">
        <ele>284</ele>
        <time>2018-05-25T09:33:32Z</time>
      </trkpt>
      <trkpt lat="45.96558" lon="4.86986">
        <ele>284</ele>
        <time>2018-05-25T09:33:36Z</time>
      </trkpt>
      <trkpt lat="45.96556" lon="4.86986">
        <ele>283</ele>
        <time>2018-05-25T09:33:37Z</time>
      </trkpt>
      <trkpt lat="45.96548" lon="4.86987">
        <ele>283</ele>
        <time>2018-05-25T09:33:41Z</time>
      </trkpt>
      <trkpt lat="45.96545" lon="4.86989">
        <ele>283</ele>
        <time>2018-05-25T09:33:42Z</time>
      </trkpt>
      <trkpt lat="45.96541" lon="4.86999">
        <ele>283</ele>
        <time>2018-05-25T09:33:45Z</time>
      </trkpt>
      <trkpt lat="45.9654" lon="4.87003">
        <ele>283</ele>
        <time>2018-05-25T09:33:46Z</time>
      </trkpt>
      <trkpt lat="45.9654" lon="4.87014">
        <ele>283</ele>
        <time>2018-05-25T09:33:49Z</time>
      </trkpt>
      <trkpt lat="45.96539" lon="4.87016">
        <ele>283</ele>
        <time>2018-05-25T09:33:50Z</time>
      </trkpt>
      <trkpt lat="45.96531" lon="4.87021">
        <ele>283</ele>
        <time>2018-05-25T09:33:55Z</time>
      </trkpt>
      <trkpt lat="45.9653" lon="4.87021">
        <ele>283</ele>
        <time>2018-05-25T09:33:56Z</time>
      </trkpt>
      <trkpt lat="45.9653" lon="4.87023">
        <ele>283</ele>
        <time>2018-05-25T09:34:29Z</time>
      </trkpt>
      <trkpt lat="45.9653" lon="4.87023">
        <ele>283</ele>
        <time>2018-05-25T09:34:30Z</time>
      </trkpt>
      <trkpt lat="45.96532" lon="4.87027">
        <ele>283</ele>
        <time>2018-05-25T09:38:15Z</time>
      </trkpt>
      <trkpt lat="45.96531" lon="4.87027">
        <ele>283</ele>
        <time>2018-05-25T09:38:16Z</time>
      </trkpt>
      <trkpt lat="45.96531" lon="4.87028">
        <ele>283</ele>
        <time>2018-05-25T09:39:18Z</time>
      </trkpt>
      <trkpt lat="45.96531" lon="4.87028">
        <ele>283</ele>
        <time>2018-05-25T09:39:19Z</time>
      </trkpt>
      <trkpt lat="45.9653" lon="4.87028">
        <ele>283</ele>
        <time>2018-05-25T09:41:26Z</time>
      </trkpt>
      <trkpt lat="45.9653" lon="4.87028">
        <ele>283</ele>
        <time>2018-05-25T09:41:27Z</time>
      </trkpt>
      <trkpt lat="45.96538" lon="4.87026">
        <ele>283</ele>
        <time>2018-05-25T09:45:18Z</time>
      </trkpt>
      <trkpt lat="45.9654" lon="4.87025">
        <ele>283</ele>
        <time>2018-05-25T09:45:19Z</time>
      </trkpt>
      <trkpt lat="45.96549" lon="4.87024">
        <ele>283</ele>
        <time>2018-05-25T09:45:23Z</time>
      </trkpt>
      <trkpt lat="45.96551" lon="4.87025">
        <ele>283</ele>
        <time>2018-05-25T09:45:24Z</time>
      </trkpt>
      <trkpt lat="45.96555" lon="4.87033">
        <ele>283</ele>
        <time>2018-05-25T09:45:27Z</time>
      </trkpt>
      <trkpt lat="45.96556" lon="4.87037">
        <ele>283</ele>
        <time>2018-05-25T09:45:28Z</time>
      </trkpt>
      <trkpt lat="45.96559" lon="4.87048">
        <ele>283</ele>
        <time>2018-05-25T09:45:31Z</time>
      </trkpt>
      <trkpt lat="45.96559" lon="4.87053">
        <ele>283</ele>
        <time>2018-05-25T09:45:32Z</time>
      </trkpt>
      <trkpt lat="45.9656" lon="4.87063">
        <ele>283</ele>
        <time>2018-05-25T09:45:35Z</time>
      </trkpt>
      <trkpt lat="45.9656" lon="4.87066">
        <ele>283</ele>
        <time>2018-05-25T09:45:36Z</time>
      </trkpt>
      <trkpt lat="45.96554" lon="4.87074">
        <ele>283</ele>
        <time>2018-05-25T09:45:42Z</time>
      </trkpt>
      <trkpt lat="45.96552" lon="4.87076">
        <ele>283</ele>
        <time>2018-05-25T09:45:43Z</time>
      </trkpt>
      <trkpt lat="45.96543" lon="4.87074">
        <ele>283</ele>
        <time>2018-05-25T09:45:47Z</time>
      </trkpt>
      <trkpt lat="45.96542" lon="4.8707">
        <ele>283</ele>
        <time>2018-05-25T09:45:48Z</time>
      </trkpt>
      <trkpt lat="45.96541" lon="4.8706">
        <ele>283</ele>
        <time>2018-05-25T09:45:50Z</time>
      </trkpt>
      <trkpt lat="45.9654" lon="4.87055">
        <ele>283</ele>
        <time>2018-05-25T09:45:51Z</time>
      </trkpt>
      <trkpt lat="45.96541" lon="4.87046">
        <ele>283</ele>
        <time>2018-05-25T09:45:53Z</time>
      </trkpt>
      <trkpt lat="45.96541" lon="4.87041">
        <ele>283</ele>
        <time>2018-05-25T09:45:54Z</time>
      </trkpt>
      <trkpt lat="45.96542" lon="4.87033">
        <ele>283</ele>
        <time>2018-05-25T09:45:56Z</time>
      </trkpt>
      <trkpt lat="45.96543" lon="4.87028">
        <ele>283</ele>
        <time>2018-05-25T09:45:57Z</time>
      </trkpt>
      <trkpt lat="45.96547" lon="4.87015">
        <ele>283</ele>
        <time>2018-05-25T09:45:58Z</time>
      </trkpt>
      <trkpt lat="45.96547" lon="4.87004">
        <ele>283</ele>
        <time>2018-05-25T09:46:00Z</time>
      </trkpt>
      <trkpt lat="45.96546" lon="4.87001">
        <ele>283</ele>
        <time>2018-05-25T09:46:01Z</time>
      </trkpt>
      <trkpt lat="45.96546" lon="4.8699">
        <ele>283</ele>
        <time>2018-05-25T09:46:03Z</time>
      </trkpt>
      <trkpt lat="45.96546" lon="4.86987">
        <ele>283</ele>
        <time>2018-05-25T09:46:04Z</time>
      </trkpt>
      <trkpt lat="45.96552" lon="4.86978">
        <ele>283</ele>
        <time>2018-05-25T09:46:06Z</time>
      </trkpt>
      <trkpt lat="45.96554" lon="4.86977">
        <ele>283</ele>
        <time>2018-05-25T09:46:07Z</time>
      </trkpt>
      <trkpt lat="45.9656" lon="4.8697">
        <ele>283</ele>
        <time>2018-05-25T09:46:10Z</time>
      </trkpt>
      <trkpt lat="45.96565" lon="4.86962">
        <ele>284</ele>
        <time>2018-05-25T09:46:11Z</time>
      </trkpt>
      <trkpt lat="45.96568" lon="4.86957">
        <ele>284</ele>
        <time>2018-05-25T09:46:13Z</time>
      </trkpt>
      <trkpt lat="45.96573" lon="4.8695">
        <ele>284</ele>
        <time>2018-05-25T09:46:14Z</time>
      </trkpt>
      <trkpt lat="45.96575" lon="4.86946">
        <ele>284</ele>
        <time>2018-05-25T09:46:16Z</time>
      </trkpt>
      <trkpt lat="45.96579" lon="4.8694">
        <ele>284</ele>
        <time>2018-05-25T09:46:17Z</time>
      </trkpt>
      <trkpt lat="45.96583" lon="4.86933">
        <ele>284</ele>
        <time>2018-05-25T09:46:20Z</time>
      </trkpt>
      <trkpt lat="45.96585" lon="4.8693">
        <ele>285</ele>
        <time>2018-05-25T09:46:21Z</time>
      </trkpt>
      <trkpt lat="45.9659" lon="4.86921">
        <ele>285</ele>
        <time>2018-05-25T09:46:22Z</time>
      </trkpt>
      <trkpt lat="45.96592" lon="4.86915">
        <ele>286</ele>
        <time>2018-05-25T09:46:23Z</time>
      </trkpt>
      <trkpt lat="45.96596" lon="4.86907">
        <ele>286</ele>
        <time>2018-05-25T09:46:26Z</time>
      </trkpt>
      <trkpt lat="45.96597" lon="4.86904">
        <ele>286</ele>
        <time>2018-05-25T09:46:27Z</time>
      </trkpt>
      <trkpt lat="45.96602" lon="4.86894">
        <ele>286</ele>
        <time>2018-05-25T09:46:30Z</time>
      </trkpt>
      <trkpt lat="45.96604" lon="4.86891">
        <ele>287</ele>
        <time>2018-05-25T09:46:31Z</time>
      </trkpt>
      <trkpt lat="45.96608" lon="4.86881">
        <ele>287</ele>
        <time>2018-05-25T09:46:34Z</time>
      </trkpt>
      <trkpt lat="45.9661" lon="4.86877">
        <ele>287</ele>
        <time>2018-05-25T09:46:35Z</time>
      </trkpt>
      <trkpt lat="45.96616" lon="4.86867">
        <ele>287</ele>
        <time>2018-05-25T09:46:36Z</time>
      </trkpt>
      <trkpt lat="45.96621" lon="4.86857">
        <ele>287</ele>
        <time>2018-05-25T09:46:40Z</time>
      </trkpt>
      <trkpt lat="45.96623" lon="4.86855">
        <ele>287</ele>
        <time>2018-05-25T09:46:41Z</time>
      </trkpt>
      <trkpt lat="45.96624" lon="4.86852">
        <ele>287</ele>
        <time>2018-05-25T09:46:42Z</time>
      </trkpt>
      <trkpt lat="45.9663" lon="4.86841">
        <ele>287</ele>
        <time>2018-05-25T09:46:43Z</time>
      </trkpt>
      <trkpt lat="45.96635" lon="4.86831">
        <ele>288</ele>
        <time>2018-05-25T09:46:45Z</time>
      </trkpt>
      <trkpt lat="45.96638" lon="4.86826">
        <ele>288</ele>
        <time>2018-05-25T09:46:46Z</time>
      </trkpt>
      <trkpt lat="45.96643" lon="4.86818">
        <ele>288</ele>
        <time>2018-05-25T09:46:47Z</time>
      </trkpt>
      <trkpt lat="45.96645" lon="4.86816">
        <ele>288</ele>
        <time>2018-05-25T09:46:48Z</time>
      </trkpt>
      <trkpt lat="45.9665" lon="4.8681">
        <ele>288</ele>
        <time>2018-05-25T09:46:49Z</time>
      </trkpt>
      <trkpt lat="45.96652" lon="4.86807">
        <ele>288</ele>
        <time>2018-05-25T09:46:50Z</time>
      </trkpt>
      <trkpt lat="45.96655" lon="4.86802">
        <ele>288</ele>
        <time>2018-05-25T09:46:51Z</time>
      </trkpt>
      <trkpt lat="45.96658" lon="4.86797">
        <ele>288</ele>
        <time>2018-05-25T09:46:52Z</time>
      </trkpt>
      <trkpt lat="45.96663" lon="4.86789">
        <ele>288</ele>
        <time>2018-05-25T09:46:54Z</time>
      </trkpt>
      <trkpt lat="45.96668" lon="4.86782">
        <ele>289</ele>
        <time>2018-05-25T09:46:55Z</time>
      </trkpt>
      <trkpt lat="45.96672" lon="4.86774">
        <ele>289</ele>
        <time>2018-05-25T09:46:57Z</time>
      </trkpt>
      <trkpt lat="45.96678" lon="4.86768">
        <ele>289</ele>
        <time>2018-05-25T09:46:58Z</time>
      </trkpt>
      <trkpt lat="45.9668" lon="4.86762">
        <ele>289</ele>
        <time>2018-05-25T09:46:59Z</time>
      </trkpt>
      <trkpt lat="45.96684" lon="4.86756">
        <ele>289</ele>
        <time>2018-05-25T09:47:00Z</time>
      </trkpt>
      <trkpt lat="45.96687" lon="4.86751">
        <ele>289</ele>
        <time>2018-05-25T09:47:01Z</time>
      </trkpt>
      <trkpt lat="45.9669" lon="4.86745">
        <ele>289</ele>
        <time>2018-05-25T09:47:02Z</time>
      </trkpt>
      <trkpt lat="45.96695" lon="4.86736">
        <ele>289</ele>
        <time>2018-05-25T09:47:04Z</time>
      </trkpt>
      <trkpt lat="45.96698" lon="4.86732">
        <ele>289</ele>
        <time>2018-05-25T09:47:05Z</time>
      </trkpt>
      <trkpt lat="45.96703" lon="4.86724">
        <ele>289</ele>
        <time>2018-05-25T09:47:07Z</time>
      </trkpt>
      <trkpt lat="45.96706" lon="4.8672">
        <ele>289</ele>
        <time>2018-05-25T09:47:08Z</time>
      </trkpt>
      <trkpt lat="45.96711" lon="4.86711">
        <ele>289</ele>
        <time>2018-05-25T09:47:10Z</time>
      </trkpt>
      <trkpt lat="45.96714" lon="4.86706">
        <ele>289</ele>
        <time>2018-05-25T09:47:11Z</time>
      </trkpt>
      <trkpt lat="45.96718" lon="4.86698">
        <ele>289</ele>
        <time>2018-05-25T09:47:13Z</time>
      </trkpt>
      <trkpt lat="45.96721" lon="4.86693">
        <ele>289</ele>
        <time>2018-05-25T09:47:14Z</time>
      </trkpt>
      <trkpt lat="45.96726" lon="4.86685">
        <ele>289</ele>
        <time>2018-05-25T09:47:16Z</time>
      </trkpt>
      <trkpt lat="45.96729" lon="4.8668">
        <ele>289</ele>
        <time>2018-05-25T09:47:17Z</time>
      </trkpt>
      <trkpt lat="45.96732" lon="4.86675">
        <ele>290</ele>
        <time>2018-05-25T09:47:18Z</time>
      </trkpt>
      <trkpt lat="45.96736" lon="4.86671">
        <ele>290</ele>
        <time>2018-05-25T09:47:19Z</time>
      </trkpt>
      <trkpt lat="45.96738" lon="4.86665">
        <ele>290</ele>
        <time>2018-05-25T09:47:20Z</time>
      </trkpt>
      <trkpt lat="45.96742" lon="4.8666">
        <ele>290</ele>
        <time>2018-05-25T09:47:21Z</time>
      </trkpt>
      <trkpt lat="45.96746" lon="4.86651">
        <ele>290</ele>
        <time>2018-05-25T09:47:23Z</time>
      </trkpt>
      <trkpt lat="45.96749" lon="4.86646">
        <ele>290</ele>
        <time>2018-05-25T09:47:24Z</time>
      </trkpt>
      <trkpt lat="45.9675" lon="4.86637">
        <ele>290</ele>
        <time>2018-05-25T09:47:26Z</time>
      </trkpt>
      <trkpt lat="45.96751" lon="4.86631">
        <ele>290</ele>
        <time>2018-05-25T09:47:27Z</time>
      </trkpt>
      <trkpt lat="45.96746" lon="4.86623">
        <ele>290</ele>
        <time>2018-05-25T09:47:29Z</time>
      </trkpt>
      <trkpt lat="45.96742" lon="4.86621">
        <ele>290</ele>
        <time>2018-05-25T09:47:30Z</time>
      </trkpt>
      <trkpt lat="45.96734" lon="4.8662">
        <ele>290</ele>
        <time>2018-05-25T09:47:32Z</time>
      </trkpt>
      <trkpt lat="45.96729" lon="4.8662">
        <ele>290</ele>
        <time>2018-05-25T09:47:33Z</time>
      </trkpt>
      <trkpt lat="45.96721" lon="4.8662">
        <ele>290</ele>
        <time>2018-05-25T09:47:35Z</time>
      </trkpt>
      <trkpt lat="45.96717" lon="4.86619">
        <ele>290</ele>
        <time>2018-05-25T09:47:36Z</time>
      </trkpt>
      <trkpt lat="45.96709" lon="4.86616">
        <ele>290</ele>
        <time>2018-05-25T09:47:38Z</time>
      </trkpt>
      <trkpt lat="45.96705" lon="4.86615">
        <ele>290</ele>
        <time>2018-05-25T09:47:39Z</time>
      </trkpt>
      <trkpt lat="45.96699" lon="4.8661">
        <ele>290</ele>
        <time>2018-05-25T09:47:41Z</time>
      </trkpt>
      <trkpt lat="45.96695" lon="4.86607">
        <ele>290</ele>
        <time>2018-05-25T09:47:42Z</time>
      </trkpt>
      <trkpt lat="45.96689" lon="4.86601">
        <ele>290</ele>
        <time>2018-05-25T09:47:44Z</time>
      </trkpt>
      <trkpt lat="45.96686" lon="4.86598">
        <ele>290</ele>
        <time>2018-05-25T09:47:45Z</time>
      </trkpt>
      <trkpt lat="45.9668" lon="4.86591">
        <ele>290</ele>
        <time>2018-05-25T09:47:47Z</time>
      </trkpt>
      <trkpt lat="45.96677" lon="4.86588">
        <ele>290</ele>
        <time>2018-05-25T09:47:48Z</time>
      </trkpt>
      <trkpt lat="45.96671" lon="4.86581">
        <ele>290</ele>
        <time>2018-05-25T09:47:50Z</time>
      </trkpt>
      <trkpt lat="45.96668" lon="4.86578">
        <ele>290</ele>
        <time>2018-05-25T09:47:51Z</time>
      </trkpt>
      <trkpt lat="45.96661" lon="4.8657">
        <ele>290</ele>
        <time>2018-05-25T09:47:53Z</time>
      </trkpt>
      <trkpt lat="45.96658" lon="4.86567">
        <ele>290</ele>
        <time>2018-05-25T09:47:54Z</time>
      </trkpt>
      <trkpt lat="45.96654" lon="4.86563">
        <ele>290</ele>
        <time>2018-05-25T09:47:55Z</time>
      </trkpt>
      <trkpt lat="45.9665" lon="4.8656">
        <ele>291</ele>
        <time>2018-05-25T09:47:56Z</time>
      </trkpt>
      <trkpt lat="45.96645" lon="4.86557">
        <ele>291</ele>
        <time>2018-05-25T09:47:57Z</time>
      </trkpt>
      <trkpt lat="45.96641" lon="4.86554">
        <ele>291</ele>
        <time>2018-05-25T09:47:58Z</time>
      </trkpt>
      <trkpt lat="45.96637" lon="4.8655">
        <ele>291</ele>
        <time>2018-05-25T09:47:59Z</time>
      </trkpt>
      <trkpt lat="45.96634" lon="4.86546">
        <ele>291</ele>
        <time>2018-05-25T09:48:00Z</time>
      </trkpt>
      <trkpt lat="45.96626" lon="4.86539">
        <ele>291</ele>
        <time>2018-05-25T09:48:02Z</time>
      </trkpt>
      <trkpt lat="45.96623" lon="4.86536">
        <ele>291</ele>
        <time>2018-05-25T09:48:03Z</time>
      </trkpt>
      <trkpt lat="45.96619" lon="4.86532">
        <ele>291</ele>
        <time>2018-05-25T09:48:04Z</time>
      </trkpt>
      <trkpt lat="45.96615" lon="4.8653">
        <ele>291</ele>
        <time>2018-05-25T09:48:05Z</time>
      </trkpt>
      <trkpt lat="45.96607" lon="4.86523">
        <ele>291</ele>
        <time>2018-05-25T09:48:07Z</time>
      </trkpt>
      <trkpt lat="45.96604" lon="4.86519">
        <ele>291</ele>
        <time>2018-05-25T09:48:08Z</time>
      </trkpt>
      <trkpt lat="45.96598" lon="4.86514">
        <ele>291</ele>
        <time>2018-05-25T09:48:10Z</time>
      </trkpt>
      <trkpt lat="45.96594" lon="4.86509">
        <ele>291</ele>
        <time>2018-05-25T09:48:11Z</time>
      </trkpt>
      <trkpt lat="45.9659" lon="4.86506">
        <ele>292</ele>
        <time>2018-05-25T09:48:12Z</time>
      </trkpt>
      <trkpt lat="45.96587" lon="4.86498">
        <ele>292</ele>
        <time>2018-05-25T09:48:13Z</time>
      </trkpt>
      <trkpt lat="45.96584" lon="4.86491">
        <ele>292</ele>
        <time>2018-05-25T09:48:14Z</time>
      </trkpt>
      <trkpt lat="45.96583" lon="4.86485">
        <ele>290</ele>
        <time>2018-05-25T09:48:15Z</time>
      </trkpt>
      <trkpt lat="45.96582" lon="4.86478">
        <ele>290</ele>
        <time>2018-05-25T09:48:16Z</time>
      </trkpt>
      <trkpt lat="45.96581" lon="4.8647">
        <ele>289</ele>
        <time>2018-05-25T09:48:17Z</time>
      </trkpt>
      <trkpt lat="45.96581" lon="4.86464">
        <ele>289</ele>
        <time>2018-05-25T09:48:18Z</time>
      </trkpt>
      <trkpt lat="45.9658" lon="4.86455">
        <ele>289</ele>
        <time>2018-05-25T09:48:19Z</time>
      </trkpt>
      <trkpt lat="45.9658" lon="4.86447">
        <ele>289</ele>
        <time>2018-05-25T09:48:20Z</time>
      </trkpt>
      <trkpt lat="45.96579" lon="4.86436">
        <ele>289</ele>
        <time>2018-05-25T09:48:21Z</time>
      </trkpt>
      <trkpt lat="45.96579" lon="4.86428">
        <ele>289</ele>
        <time>2018-05-25T09:48:22Z</time>
      </trkpt>
      <trkpt lat="45.96578" lon="4.86418">
        <ele>290</ele>
        <time>2018-05-25T09:48:23Z</time>
      </trkpt>
      <trkpt lat="45.96578" lon="4.86409">
        <ele>289</ele>
        <time>2018-05-25T09:48:24Z</time>
      </trkpt>
      <trkpt lat="45.96578" lon="4.864">
        <ele>288</ele>
        <time>2018-05-25T09:48:25Z</time>
      </trkpt>
      <trkpt lat="45.96578" lon="4.86388">
        <ele>287</ele>
        <time>2018-05-25T09:48:26Z</time>
      </trkpt>
      <trkpt lat="45.96578" lon="4.86379">
        <ele>286</ele>
        <time>2018-05-25T09:48:27Z</time>
      </trkpt>
      <trkpt lat="45.96578" lon="4.8637">
        <ele>286</ele>
        <time>2018-05-25T09:48:28Z</time>
      </trkpt>
      <trkpt lat="45.96578" lon="4.8636">
        <ele>286</ele>
        <time>2018-05-25T09:48:29Z</time>
      </trkpt>
      <trkpt lat="45.96576" lon="4.86349">
        <ele>285</ele>
        <time>2018-05-25T09:48:30Z</time>
      </trkpt>
      <trkpt lat="45.96577" lon="4.86342">
        <ele>285</ele>
        <time>2018-05-25T09:48:31Z</time>
      </trkpt>
      <trkpt lat="45.96579" lon="4.86332">
        <ele>284</ele>
        <time>2018-05-25T09:48:32Z</time>
      </trkpt>
      <trkpt lat="45.96581" lon="4.8632">
        <ele>284</ele>
        <time>2018-05-25T09:48:33Z</time>
      </trkpt>
      <trkpt lat="45.96581" lon="4.86311">
        <ele>283</ele>
        <time>2018-05-25T09:48:34Z</time>
      </trkpt>
      <trkpt lat="45.96582" lon="4.86302">
        <ele>283</ele>
        <time>2018-05-25T09:48:35Z</time>
      </trkpt>
      <trkpt lat="45.96583" lon="4.86291">
        <ele>284</ele>
        <time>2018-05-25T09:48:36Z</time>
      </trkpt>
      <trkpt lat="45.96584" lon="4.8628">
        <ele>284</ele>
        <time>2018-05-25T09:48:37Z</time>
      </trkpt>
      <trkpt lat="45.96583" lon="4.8627">
        <ele>282</ele>
        <time>2018-05-25T09:48:38Z</time>
      </trkpt>
      <trkpt lat="45.96584" lon="4.86259">
        <ele>282</ele>
        <time>2018-05-25T09:48:39Z</time>
      </trkpt>
      <trkpt lat="45.96585" lon="4.86248">
        <ele>281</ele>
        <time>2018-05-25T09:48:40Z</time>
      </trkpt>
      <trkpt lat="45.96587" lon="4.86236">
        <ele>282</ele>
        <time>2018-05-25T09:48:41Z</time>
      </trkpt>
      <trkpt lat="45.96587" lon="4.86225">
        <ele>282</ele>
        <time>2018-05-25T09:48:42Z</time>
      </trkpt>
      <trkpt lat="45.96589" lon="4.86211">
        <ele>282</ele>
        <time>2018-05-25T09:48:43Z</time>
      </trkpt>
      <trkpt lat="45.9659" lon="4.86198">
        <ele>282</ele>
        <time>2018-05-25T09:48:44Z</time>
      </trkpt>
      <trkpt lat="45.96591" lon="4.86186">
        <ele>281</ele>
        <time>2018-05-25T09:48:45Z</time>
      </trkpt>
      <trkpt lat="45.96593" lon="4.8617">
        <ele>281</ele>
        <time>2018-05-25T09:48:46Z</time>
      </trkpt>
      <trkpt lat="45.96592" lon="4.86156">
        <ele>281</ele>
        <time>2018-05-25T09:48:47Z</time>
      </trkpt>
      <trkpt lat="45.96594" lon="4.86142">
        <ele>281</ele>
        <time>2018-05-25T09:48:48Z</time>
      </trkpt>
      <trkpt lat="45.96595" lon="4.86129">
        <ele>281</ele>
        <time>2018-05-25T09:48:49Z</time>
      </trkpt>
      <trkpt lat="45.96596" lon="4.86115">
        <ele>281</ele>
        <time>2018-05-25T09:48:50Z</time>
      </trkpt>
      <trkpt lat="45.96595" lon="4.86103">
        <ele>280</ele>
        <time>2018-05-25T09:48:51Z</time>
      </trkpt>
      <trkpt lat="45.96594" lon="4.8609">
        <ele>280</ele>
        <time>2018-05-25T09:48:52Z</time>
      </trkpt>
      <trkpt lat="45.96592" lon="4.86078">
        <ele>279</ele>
        <time>2018-05-25T09:48:53Z</time>
      </trkpt>
      <trkpt lat="45.96588" lon="4.86066">
        <ele>280</ele>
        <time>2018-05-25T09:48:54Z</time>
      </trkpt>
      <trkpt lat="45.96582" lon="4.86057">
        <ele>277</ele>
        <time>2018-05-25T09:48:55Z</time>
      </trkpt>
      <trkpt lat="45.96577" lon="4.86047">
        <ele>276</ele>
        <time>2018-05-25T09:48:56Z</time>
      </trkpt>
      <trkpt lat="45.96571" lon="4.86037">
        <ele>276</ele>
        <time>2018-05-25T09:48:57Z</time>
      </trkpt>
      <trkpt lat="45.96567" lon="4.86026">
        <ele>276</ele>
        <time>2018-05-25T09:48:58Z</time>
      </trkpt>
      <trkpt lat="45.96562" lon="4.86016">
        <ele>276</ele>
        <time>2018-05-25T09:48:59Z</time>
      </trkpt>
      <trkpt lat="45.96557" lon="4.86007">
        <ele>276</ele>
        <time>2018-05-25T09:49:00Z</time>
      </trkpt>
      <trkpt lat="45.96551" lon="4.85997">
        <ele>276</ele>
        <time>2018-05-25T09:49:01Z</time>
      </trkpt>
      <trkpt lat="45.96546" lon="4.85988">
        <ele>275</ele>
        <time>2018-05-25T09:49:02Z</time>
      </trkpt>
      <trkpt lat="45.96542" lon="4.85979">
        <ele>275</ele>
        <time>2018-05-25T09:49:03Z</time>
      </trkpt>
      <trkpt lat="45.96537" lon="4.85969">
        <ele>275</ele>
        <time>2018-05-25T09:49:04Z</time>
      </trkpt>
      <trkpt lat="45.96532" lon="4.8596">
        <ele>275</ele>
        <time>2018-05-25T09:49:05Z</time>
      </trkpt>
      <trkpt lat="45.96527" lon="4.85952">
        <ele>275</ele>
        <time>2018-05-25T09:49:06Z</time>
      </trkpt>
      <trkpt lat="45.96523" lon="4.85943">
        <ele>275</ele>
        <time>2018-05-25T09:49:07Z</time>
      </trkpt>
      <trkpt lat="45.96519" lon="4.85933">
        <ele>275</ele>
        <time>2018-05-25T09:49:08Z</time>
      </trkpt>
      <trkpt lat="45.96515" lon="4.85924">
        <ele>275</ele>
        <time>2018-05-25T09:49:09Z</time>
      </trkpt>
      <trkpt lat="45.96513" lon="4.85915">
        <ele>275</ele>
        <time>2018-05-25T09:49:10Z</time>
      </trkpt>
      <trkpt lat="45.96511" lon="4.85906">
        <ele>275</ele>
        <time>2018-05-25T09:49:11Z</time>
      </trkpt>
      <trkpt lat="45.96509" lon="4.85895">
        <ele>275</ele>
        <time>2018-05-25T09:49:12Z</time>
      </trkpt>
      <trkpt lat="45.96507" lon="4.85884">
        <ele>275</ele>
        <time>2018-05-25T09:49:13Z</time>
      </trkpt>
      <trkpt lat="45.96504" lon="4.85874">
        <ele>275</ele>
        <time>2018-05-25T09:49:14Z</time>
      </trkpt>
      <trkpt lat="45.96503" lon="4.85864">
        <ele>275</ele>
        <time>2018-05-25T09:49:15Z</time>
      </trkpt>
      <trkpt lat="45.96502" lon="4.85855">
        <ele>275</ele>
        <time>2018-05-25T09:49:16Z</time>
      </trkpt>
      <trkpt lat="45.96501" lon="4.85846">
        <ele>275</ele>
        <time>2018-05-25T09:49:17Z</time>
      </trkpt>
      <trkpt lat="45.965" lon="4.85836">
        <ele>275</ele>
        <time>2018-05-25T09:49:18Z</time>
      </trkpt>
      <trkpt lat="45.96498" lon="4.85826">
        <ele>275</ele>
        <time>2018-05-25T09:49:19Z</time>
      </trkpt>
      <trkpt lat="45.96497" lon="4.85816">
        <ele>274</ele>
        <time>2018-05-25T09:49:20Z</time>
      </trkpt>
      <trkpt lat="45.96496" lon="4.85807">
        <ele>274</ele>
        <time>2018-05-25T09:49:21Z</time>
      </trkpt>
      <trkpt lat="45.96495" lon="4.85797">
        <ele>274</ele>
        <time>2018-05-25T09:49:22Z</time>
      </trkpt>
      <trkpt lat="45.96492" lon="4.85786">
        <ele>274</ele>
        <time>2018-05-25T09:49:23Z</time>
      </trkpt>
      <trkpt lat="45.96491" lon="4.85776">
        <ele>274</ele>
        <time>2018-05-25T09:49:24Z</time>
      </trkpt>
      <trkpt lat="45.9649" lon="4.85766">
        <ele>274</ele>
        <time>2018-05-25T09:49:25Z</time>
      </trkpt>
      <trkpt lat="45.96489" lon="4.85756">
        <ele>274</ele>
        <time>2018-05-25T09:49:26Z</time>
      </trkpt>
      <trkpt lat="45.96487" lon="4.85745">
        <ele>273</ele>
        <time>2018-05-25T09:49:27Z</time>
      </trkpt>
      <trkpt lat="45.96484" lon="4.85735">
        <ele>273</ele>
        <time>2018-05-25T09:49:28Z</time>
      </trkpt>
      <trkpt lat="45.96483" lon="4.85725">
        <ele>273</ele>
        <time>2018-05-25T09:49:29Z</time>
      </trkpt>
      <trkpt lat="45.96483" lon="4.85717">
        <ele>272</ele>
        <time>2018-05-25T09:49:30Z</time>
      </trkpt>
      <trkpt lat="45.96481" lon="4.85709">
        <ele>272</ele>
        <time>2018-05-25T09:49:31Z</time>
      </trkpt>
      <trkpt lat="45.9648" lon="4.85701">
        <ele>272</ele>
        <time>2018-05-25T09:49:32Z</time>
      </trkpt>
      <trkpt lat="45.96478" lon="4.85693">
        <ele>272</ele>
        <time>2018-05-25T09:49:33Z</time>
      </trkpt>
      <trkpt lat="45.96477" lon="4.85684">
        <ele>272</ele>
        <time>2018-05-25T09:49:34Z</time>
      </trkpt>
      <trkpt lat="45.96476" lon="4.85676">
        <ele>272</ele>
        <time>2018-05-25T09:49:35Z</time>
      </trkpt>
      <trkpt lat="45.96475" lon="4.8567">
        <ele>272</ele>
        <time>2018-05-25T09:49:36Z</time>
      </trkpt>
      <trkpt lat="45.96474" lon="4.8566">
        <ele>271</ele>
        <time>2018-05-25T09:49:37Z</time>
      </trkpt>
      <trkpt lat="45.96472" lon="4.85652">
        <ele>271</ele>
        <time>2018-05-25T09:49:38Z</time>
      </trkpt>
      <trkpt lat="45.96471" lon="4.85641">
        <ele>271</ele>
        <time>2018-05-25T09:49:39Z</time>
      </trkpt>
      <trkpt lat="45.96469" lon="4.85632">
        <ele>271</ele>
        <time>2018-05-25T09:49:40Z</time>
      </trkpt>
      <trkpt lat="45.96468" lon="4.85622">
        <ele>271</ele>
        <time>2018-05-25T09:49:41Z</time>
      </trkpt>
      <trkpt lat="45.96467" lon="4.85613">
        <ele>271</ele>
        <time>2018-05-25T09:49:42Z</time>
      </trkpt>
      <trkpt lat="45.96466" lon="4.85605">
        <ele>271</ele>
        <time>2018-05-25T09:49:43Z</time>
      </trkpt>
      <trkpt lat="45.96465" lon="4.85596">
        <ele>271</ele>
        <time>2018-05-25T09:49:44Z</time>
      </trkpt>
      <trkpt lat="45.96465" lon="4.85588">
        <ele>271</ele>
        <time>2018-05-25T09:49:45Z</time>
      </trkpt>
      <trkpt lat="45.96464" lon="4.85578">
        <ele>271</ele>
        <time>2018-05-25T09:49:46Z</time>
      </trkpt>
      <trkpt lat="45.96463" lon="4.8557">
        <ele>271</ele>
        <time>2018-05-25T09:49:47Z</time>
      </trkpt>
      <trkpt lat="45.96463" lon="4.8556">
        <ele>271</ele>
        <time>2018-05-25T09:49:48Z</time>
      </trkpt>
      <trkpt lat="45.96462" lon="4.85552">
        <ele>271</ele>
        <time>2018-05-25T09:49:49Z</time>
      </trkpt>
      <trkpt lat="45.96462" lon="4.85542">
        <ele>272</ele>
        <time>2018-05-25T09:49:50Z</time>
      </trkpt>
      <trkpt lat="45.96462" lon="4.85531">
        <ele>272</ele>
        <time>2018-05-25T09:49:51Z</time>
      </trkpt>
      <trkpt lat="45.96462" lon="4.85521">
        <ele>272</ele>
        <time>2018-05-25T09:49:52Z</time>
      </trkpt>
      <trkpt lat="45.96462" lon="4.8551">
        <ele>272</ele>
        <time>2018-05-25T09:49:53Z</time>
      </trkpt>
      <trkpt lat="45.96462" lon="4.85499">
        <ele>272</ele>
        <time>2018-05-25T09:49:54Z</time>
      </trkpt>
      <trkpt lat="45.96462" lon="4.85489">
        <ele>272</ele>
        <time>2018-05-25T09:49:55Z</time>
      </trkpt>
      <trkpt lat="45.96462" lon="4.8548">
        <ele>272</ele>
        <time>2018-05-25T09:49:56Z</time>
      </trkpt>
      <trkpt lat="45.96462" lon="4.85471">
        <ele>272</ele>
        <time>2018-05-25T09:49:57Z</time>
      </trkpt>
      <trkpt lat="45.96462" lon="4.85462">
        <ele>272</ele>
        <time>2018-05-25T09:49:58Z</time>
      </trkpt>
      <trkpt lat="45.96462" lon="4.85453">
        <ele>272</ele>
        <time>2018-05-25T09:49:59Z</time>
      </trkpt>
      <trkpt lat="45.96462" lon="4.85446">
        <ele>272</ele>
        <time>2018-05-25T09:50:00Z</time>
      </trkpt>
      <trkpt lat="45.96463" lon="4.85436">
        <ele>272</ele>
        <time>2018-05-25T09:50:01Z</time>
      </trkpt>
      <trkpt lat="45.96465" lon="4.8543">
        <ele>272</ele>
        <time>2018-05-25T09:50:02Z</time>
      </trkpt>
      <trkpt lat="45.96464" lon="4.85422">
        <ele>272</ele>
        <time>2018-05-25T09:50:03Z</time>
      </trkpt>
      <trkpt lat="45.96464" lon="4.85415">
        <ele>272</ele>
        <time>2018-05-25T09:50:04Z</time>
      </trkpt>
      <trkpt lat="45.96463" lon="4.85407">
        <ele>272</ele>
        <time>2018-05-25T09:50:05Z</time>
      </trkpt>
      <trkpt lat="45.96462" lon="4.854">
        <ele>272</ele>
        <time>2018-05-25T09:50:06Z</time>
      </trkpt>
      <trkpt lat="45.96459" lon="4.85392">
        <ele>272</ele>
        <time>2018-05-25T09:50:07Z</time>
      </trkpt>
      <trkpt lat="45.96459" lon="4.85384">
        <ele>272</ele>
        <time>2018-05-25T09:50:08Z</time>
      </trkpt>
      <trkpt lat="45.96459" lon="4.85376">
        <ele>272</ele>
        <time>2018-05-25T09:50:09Z</time>
      </trkpt>
      <trkpt lat="45.96458" lon="4.85368">
        <ele>272</ele>
        <time>2018-05-25T09:50:10Z</time>
      </trkpt>
      <trkpt lat="45.96457" lon="4.85359">
        <ele>272</ele>
        <time>2018-05-25T09:50:11Z</time>
      </trkpt>
      <trkpt lat="45.96457" lon="4.8535">
        <ele>272</ele>
        <time>2018-05-25T09:50:12Z</time>
      </trkpt>
      <trkpt lat="45.96456" lon="4.85341">
        <ele>272</ele>
        <time>2018-05-25T09:50:13Z</time>
      </trkpt>
      <trkpt lat="45.96455" lon="4.85332">
        <ele>271</ele>
        <time>2018-05-25T09:50:14Z</time>
      </trkpt>
      <trkpt lat="45.96454" lon="4.85323">
        <ele>271</ele>
        <time>2018-05-25T09:50:15Z</time>
      </trkpt>
      <trkpt lat="45.96453" lon="4.85315">
        <ele>271</ele>
        <time>2018-05-25T09:50:16Z</time>
      </trkpt>
      <trkpt lat="45.96453" lon="4.85307">
        <ele>271</ele>
        <time>2018-05-25T09:50:17Z</time>
      </trkpt>
      <trkpt lat="45.96453" lon="4.85298">
        <ele>270</ele>
        <time>2018-05-25T09:50:18Z</time>
      </trkpt>
      <trkpt lat="45.96453" lon="4.8529">
        <ele>270</ele>
        <time>2018-05-25T09:50:19Z</time>
      </trkpt>
      <trkpt lat="45.96452" lon="4.85281">
        <ele>270</ele>
        <time>2018-05-25T09:50:20Z</time>
      </trkpt>
      <trkpt lat="45.96453" lon="4.85274">
        <ele>270</ele>
        <time>2018-05-25T09:50:21Z</time>
      </trkpt>
      <trkpt lat="45.96454" lon="4.85265">
        <ele>270</ele>
        <time>2018-05-25T09:50:22Z</time>
      </trkpt>
      <trkpt lat="45.96454" lon="4.85256">
        <ele>270</ele>
        <time>2018-05-25T09:50:23Z</time>
      </trkpt>
      <trkpt lat="45.96454" lon="4.85248">
        <ele>269</ele>
        <time>2018-05-25T09:50:24Z</time>
      </trkpt>
      <trkpt lat="45.96454" lon="4.85236">
        <ele>269</ele>
        <time>2018-05-25T09:50:25Z</time>
      </trkpt>
      <trkpt lat="45.96453" lon="4.85226">
        <ele>269</ele>
        <time>2018-05-25T09:50:26Z</time>
      </trkpt>
      <trkpt lat="45.96451" lon="4.85214">
        <ele>269</ele>
        <time>2018-05-25T09:50:27Z</time>
      </trkpt>
      <trkpt lat="45.96453" lon="4.85207">
        <ele>269</ele>
        <time>2018-05-25T09:50:28Z</time>
      </trkpt>
      <trkpt lat="45.96454" lon="4.85198">
        <ele>269</ele>
        <time>2018-05-25T09:50:29Z</time>
      </trkpt>
      <trkpt lat="45.96455" lon="4.85188">
        <ele>269</ele>
        <time>2018-05-25T09:50:30Z</time>
      </trkpt>
      <trkpt lat="45.96456" lon="4.85179">
        <ele>269</ele>
        <time>2018-05-25T09:50:31Z</time>
      </trkpt>
      <trkpt lat="45.96458" lon="4.85169">
        <ele>269</ele>
        <time>2018-05-25T09:50:32Z</time>
      </trkpt>
      <trkpt lat="45.96459" lon="4.85159">
        <ele>268</ele>
        <time>2018-05-25T09:50:33Z</time>
      </trkpt>
      <trkpt lat="45.96462" lon="4.85149">
        <ele>268</ele>
        <time>2018-05-25T09:50:34Z</time>
      </trkpt>
      <trkpt lat="45.96463" lon="4.85137">
        <ele>268</ele>
        <time>2018-05-25T09:50:35Z</time>
      </trkpt>
      <trkpt lat="45.96465" lon="4.85127">
        <ele>268</ele>
        <time>2018-05-25T09:50:36Z</time>
      </trkpt>
      <trkpt lat="45.96466" lon="4.85117">
        <ele>268</ele>
        <time>2018-05-25T09:50:37Z</time>
      </trkpt>
      <trkpt lat="45.96468" lon="4.85107">
        <ele>268</ele>
        <time>2018-05-25T09:50:38Z</time>
      </trkpt>
      <trkpt lat="45.96469" lon="4.85094">
        <ele>268</ele>
        <time>2018-05-25T09:50:39Z</time>
      </trkpt>
      <trkpt lat="45.9647" lon="4.85084">
        <ele>268</ele>
        <time>2018-05-25T09:50:40Z</time>
      </trkpt>
      <trkpt lat="45.9647" lon="4.85072">
        <ele>267</ele>
        <time>2018-05-25T09:50:41Z</time>
      </trkpt>
      <trkpt lat="45.9647" lon="4.8506">
        <ele>266</ele>
        <time>2018-05-25T09:50:42Z</time>
      </trkpt>
      <trkpt lat="45.96471" lon="4.85047">
        <ele>266</ele>
        <time>2018-05-25T09:50:43Z</time>
      </trkpt>
      <trkpt lat="45.96471" lon="4.85035">
        <ele>266</ele>
        <time>2018-05-25T09:50:44Z</time>
      </trkpt>
      <trkpt lat="45.96471" lon="4.85022">
        <ele>266</ele>
        <time>2018-05-25T09:50:45Z</time>
      </trkpt>
      <trkpt lat="45.96472" lon="4.8501">
        <ele>266</ele>
        <time>2018-05-25T09:50:46Z</time>
      </trkpt>
      <trkpt lat="45.96474" lon="4.84998">
        <ele>263</ele>
        <time>2018-05-25T09:50:47Z</time>
      </trkpt>
      <trkpt lat="45.96477" lon="4.84985">
        <ele>262</ele>
        <time>2018-05-25T09:50:48Z</time>
      </trkpt>
      <trkpt lat="45.96479" lon="4.8497">
        <ele>262</ele>
        <time>2018-05-25T09:50:49Z</time>
      </trkpt>
      <trkpt lat="45.96481" lon="4.84957">
        <ele>261</ele>
        <time>2018-05-25T09:50:50Z</time>
      </trkpt>
      <trkpt lat="45.96483" lon="4.84943">
        <ele>260</ele>
        <time>2018-05-25T09:50:51Z</time>
      </trkpt>
      <trkpt lat="45.96485" lon="4.84928">
        <ele>259</ele>
        <time>2018-05-25T09:50:52Z</time>
      </trkpt>
      <trkpt lat="45.96489" lon="4.84916">
        <ele>256</ele>
        <time>2018-05-25T09:50:53Z</time>
      </trkpt>
      <trkpt lat="45.96492" lon="4.84902">
        <ele>256</ele>
        <time>2018-05-25T09:50:54Z</time>
      </trkpt>
      <trkpt lat="45.96496" lon="4.84888">
        <ele>255</ele>
        <time>2018-05-25T09:50:55Z</time>
      </trkpt>
      <trkpt lat="45.96499" lon="4.84874">
        <ele>255</ele>
        <time>2018-05-25T09:50:56Z</time>
      </trkpt>
      <trkpt lat="45.96501" lon="4.84859">
        <ele>256</ele>
        <time>2018-05-25T09:50:57Z</time>
      </trkpt>
      <trkpt lat="45.96505" lon="4.84845">
        <ele>255</ele>
        <time>2018-05-25T09:50:58Z</time>
      </trkpt>
      <trkpt lat="45.96508" lon="4.84828">
        <ele>254</ele>
        <time>2018-05-25T09:50:59Z</time>
      </trkpt>
      <trkpt lat="45.96511" lon="4.84813">
        <ele>254</ele>
        <time>2018-05-25T09:51:00Z</time>
      </trkpt>
      <trkpt lat="45.96515" lon="4.84798">
        <ele>254</ele>
        <time>2018-05-25T09:51:01Z</time>
      </trkpt>
      <trkpt lat="45.96516" lon="4.84785">
        <ele>254</ele>
        <time>2018-05-25T09:51:02Z</time>
      </trkpt>
      <trkpt lat="45.9652" lon="4.84771">
        <ele>253</ele>
        <time>2018-05-25T09:51:03Z</time>
      </trkpt>
      <trkpt lat="45.96522" lon="4.84758">
        <ele>253</ele>
        <time>2018-05-25T09:51:04Z</time>
      </trkpt>
      <trkpt lat="45.96525" lon="4.84744">
        <ele>252</ele>
        <time>2018-05-25T09:51:05Z</time>
      </trkpt>
      <trkpt lat="45.96527" lon="4.8473">
        <ele>253</ele>
        <time>2018-05-25T09:51:06Z</time>
      </trkpt>
      <trkpt lat="45.96529" lon="4.84716">
        <ele>253</ele>
        <time>2018-05-25T09:51:07Z</time>
      </trkpt>
      <trkpt lat="45.96529" lon="4.84702">
        <ele>253</ele>
        <time>2018-05-25T09:51:08Z</time>
      </trkpt>
      <trkpt lat="45.96527" lon="4.84689">
        <ele>253</ele>
        <time>2018-05-25T09:51:09Z</time>
      </trkpt>
      <trkpt lat="45.96524" lon="4.84677">
        <ele>252</ele>
        <time>2018-05-25T09:51:10Z</time>
      </trkpt>
      <trkpt lat="45.96523" lon="4.84663">
        <ele>252</ele>
        <time>2018-05-25T09:51:11Z</time>
      </trkpt>
      <trkpt lat="45.96521" lon="4.84652">
        <ele>252</ele>
        <time>2018-05-25T09:51:12Z</time>
      </trkpt>
      <trkpt lat="45.9652" lon="4.8464">
        <ele>252</ele>
        <time>2018-05-25T09:51:13Z</time>
      </trkpt>
      <trkpt lat="45.9652" lon="4.84629">
        <ele>252</ele>
        <time>2018-05-25T09:51:14Z</time>
      </trkpt>
      <trkpt lat="45.96521" lon="4.84617">
        <ele>252</ele>
        <time>2018-05-25T09:51:15Z</time>
      </trkpt>
      <trkpt lat="45.96523" lon="4.84607">
        <ele>252</ele>
        <time>2018-05-25T09:51:16Z</time>
      </trkpt>
      <trkpt lat="45.96523" lon="4.84596">
        <ele>252</ele>
        <time>2018-05-25T09:51:17Z</time>
      </trkpt>
      <trkpt lat="45.96524" lon="4.84586">
        <ele>252</ele>
        <time>2018-05-25T09:51:18Z</time>
      </trkpt>
      <trkpt lat="45.96524" lon="4.84576">
        <ele>253</ele>
        <time>2018-05-25T09:51:19Z</time>
      </trkpt>
      <trkpt lat="45.96524" lon="4.84566">
        <ele>253</ele>
        <time>2018-05-25T09:51:20Z</time>
      </trkpt>
      <trkpt lat="45.96525" lon="4.84553">
        <ele>253</ele>
        <time>2018-05-25T09:51:21Z</time>
      </trkpt>
      <trkpt lat="45.96525" lon="4.84543">
        <ele>253</ele>
        <time>2018-05-25T09:51:22Z</time>
      </trkpt>
      <trkpt lat="45.96526" lon="4.84534">
        <ele>253</ele>
        <time>2018-05-25T09:51:23Z</time>
      </trkpt>
      <trkpt lat="45.96527" lon="4.84524">
        <ele>253</ele>
        <time>2018-05-25T09:51:24Z</time>
      </trkpt>
      <trkpt lat="45.96527" lon="4.84515">
        <ele>253</ele>
        <time>2018-05-25T09:51:25Z</time>
      </trkpt>
      <trkpt lat="45.96528" lon="4.84506">
        <ele>253</ele>
        <time>2018-05-25T09:51:26Z</time>
      </trkpt>
      <trkpt lat="45.96528" lon="4.84496">
        <ele>253</ele>
        <time>2018-05-25T09:51:27Z</time>
      </trkpt>
      <trkpt lat="45.96529" lon="4.84486">
        <ele>253</ele>
        <time>2018-05-25T09:51:28Z</time>
      </trkpt>
      <trkpt lat="45.9653" lon="4.84476">
        <ele>253</ele>
        <time>2018-05-25T09:51:29Z</time>
      </trkpt>
      <trkpt lat="45.96531" lon="4.84466">
        <ele>253</ele>
        <time>2018-05-25T09:51:30Z</time>
      </trkpt>
      <trkpt lat="45.96532" lon="4.84456">
        <ele>253</ele>
        <time>2018-05-25T09:51:31Z</time>
      </trkpt>
      <trkpt lat="45.96531" lon="4.84447">
        <ele>253</ele>
        <time>2018-05-25T09:51:32Z</time>
      </trkpt>
      <trkpt lat="45.96531" lon="4.84438">
        <ele>253</ele>
        <time>2018-05-25T09:51:33Z</time>
      </trkpt>
      <trkpt lat="45.96532" lon="4.84429">
        <ele>253</ele>
        <time>2018-05-25T09:51:34Z</time>
      </trkpt>
      <trkpt lat="45.96532" lon="4.8442">
        <ele>253</ele>
        <time>2018-05-25T09:51:35Z</time>
      </trkpt>
      <trkpt lat="45.96533" lon="4.8441">
        <ele>252</ele>
        <time>2018-05-25T09:51:36Z</time>
      </trkpt>
      <trkpt lat="45.96533" lon="4.84403">
        <ele>252</ele>
        <time>2018-05-25T09:51:37Z</time>
      </trkpt>
      <trkpt lat="45.9653" lon="4.84394">
        <ele>252</ele>
        <time>2018-05-25T09:51:38Z</time>
      </trkpt>
      <trkpt lat="45.9653" lon="4.84385">
        <ele>252</ele>
        <time>2018-05-25T09:51:39Z</time>
      </trkpt>
      <trkpt lat="45.9653" lon="4.84376">
        <ele>251</ele>
        <time>2018-05-25T09:51:40Z</time>
      </trkpt>
      <trkpt lat="45.96529" lon="4.84367">
        <ele>251</ele>
        <time>2018-05-25T09:51:41Z</time>
      </trkpt>
      <trkpt lat="45.96527" lon="4.84359">
        <ele>251</ele>
        <time>2018-05-25T09:51:42Z</time>
      </trkpt>
      <trkpt lat="45.96525" lon="4.8435">
        <ele>251</ele>
        <time>2018-05-25T09:51:43Z</time>
      </trkpt>
      <trkpt lat="45.96524" lon="4.8434">
        <ele>251</ele>
        <time>2018-05-25T09:51:44Z</time>
      </trkpt>
      <trkpt lat="45.96522" lon="4.84332">
        <ele>250</ele>
        <time>2018-05-25T09:51:45Z</time>
      </trkpt>
      <trkpt lat="45.96521" lon="4.84326">
        <ele>250</ele>
        <time>2018-05-25T09:51:46Z</time>
      </trkpt>
      <trkpt lat="45.96521" lon="4.84318">
        <ele>250</ele>
        <time>2018-05-25T09:51:47Z</time>
      </trkpt>
      <trkpt lat="45.96519" lon="4.84311">
        <ele>250</ele>
        <time>2018-05-25T09:51:48Z</time>
      </trkpt>
      <trkpt lat="45.96518" lon="4.84301">
        <ele>250</ele>
        <time>2018-05-25T09:51:49Z</time>
      </trkpt>
      <trkpt lat="45.96517" lon="4.84294">
        <ele>250</ele>
        <time>2018-05-25T09:51:50Z</time>
      </trkpt>
      <trkpt lat="45.96515" lon="4.84286">
        <ele>250</ele>
        <time>2018-05-25T09:51:51Z</time>
      </trkpt>
      <trkpt lat="45.96514" lon="4.84277">
        <ele>250</ele>
        <time>2018-05-25T09:51:52Z</time>
      </trkpt>
      <trkpt lat="45.96512" lon="4.84269">
        <ele>250</ele>
        <time>2018-05-25T09:51:53Z</time>
      </trkpt>
      <trkpt lat="45.9651" lon="4.84262">
        <ele>251</ele>
        <time>2018-05-25T09:51:54Z</time>
      </trkpt>
      <trkpt lat="45.96508" lon="4.84254">
        <ele>251</ele>
        <time>2018-05-25T09:51:55Z</time>
      </trkpt>
      <trkpt lat="45.96506" lon="4.84247">
        <ele>250</ele>
        <time>2018-05-25T09:51:56Z</time>
      </trkpt>
      <trkpt lat="45.96504" lon="4.8424">
        <ele>250</ele>
        <time>2018-05-25T09:51:57Z</time>
      </trkpt>
      <trkpt lat="45.96502" lon="4.84233">
        <ele>250</ele>
        <time>2018-05-25T09:51:58Z</time>
      </trkpt>
      <trkpt lat="45.96501" lon="4.84225">
        <ele>249</ele>
        <time>2018-05-25T09:51:59Z</time>
      </trkpt>
      <trkpt lat="45.96497" lon="4.84218">
        <ele>252</ele>
        <time>2018-05-25T09:52:00Z</time>
      </trkpt>
      <trkpt lat="45.96496" lon="4.84212">
        <ele>251</ele>
        <time>2018-05-25T09:52:01Z</time>
      </trkpt>
      <trkpt lat="45.96495" lon="4.842">
        <ele>251</ele>
        <time>2018-05-25T09:52:03Z</time>
      </trkpt>
      <trkpt lat="45.96493" lon="4.84193">
        <ele>251</ele>
        <time>2018-05-25T09:52:04Z</time>
      </trkpt>
      <trkpt lat="45.96492" lon="4.84186">
        <ele>251</ele>
        <time>2018-05-25T09:52:05Z</time>
      </trkpt>
      <trkpt lat="45.9649" lon="4.84178">
        <ele>251</ele>
        <time>2018-05-25T09:52:06Z</time>
      </trkpt>
      <trkpt lat="45.96488" lon="4.8417">
        <ele>250</ele>
        <time>2018-05-25T09:52:07Z</time>
      </trkpt>
      <trkpt lat="45.96486" lon="4.84162">
        <ele>250</ele>
        <time>2018-05-25T09:52:08Z</time>
      </trkpt>
      <trkpt lat="45.96485" lon="4.84153">
        <ele>251</ele>
        <time>2018-05-25T09:52:09Z</time>
      </trkpt>
      <trkpt lat="45.96483" lon="4.84146">
        <ele>251</ele>
        <time>2018-05-25T09:52:10Z</time>
      </trkpt>
      <trkpt lat="45.96482" lon="4.84138">
        <ele>251</ele>
        <time>2018-05-25T09:52:11Z</time>
      </trkpt>
      <trkpt lat="45.9648" lon="4.84132">
        <ele>251</ele>
        <time>2018-05-25T09:52:12Z</time>
      </trkpt>
      <trkpt lat="45.96478" lon="4.84126">
        <ele>251</ele>
        <time>2018-05-25T09:52:13Z</time>
      </trkpt>
      <trkpt lat="45.96476" lon="4.84118">
        <ele>251</ele>
        <time>2018-05-25T09:52:14Z</time>
      </trkpt>
      <trkpt lat="45.96472" lon="4.8411">
        <ele>251</ele>
        <time>2018-05-25T09:52:15Z</time>
      </trkpt>
      <trkpt lat="45.9647" lon="4.84102">
        <ele>251</ele>
        <time>2018-05-25T09:52:16Z</time>
      </trkpt>
      <trkpt lat="45.96468" lon="4.84094">
        <ele>251</ele>
        <time>2018-05-25T09:52:17Z</time>
      </trkpt>
      <trkpt lat="45.96464" lon="4.84087">
        <ele>251</ele>
        <time>2018-05-25T09:52:18Z</time>
      </trkpt>
      <trkpt lat="45.96461" lon="4.84079">
        <ele>251</ele>
        <time>2018-05-25T09:52:19Z</time>
      </trkpt>
      <trkpt lat="45.96457" lon="4.8407">
        <ele>251</ele>
        <time>2018-05-25T09:52:20Z</time>
      </trkpt>
      <trkpt lat="45.96454" lon="4.84064">
        <ele>251</ele>
        <time>2018-05-25T09:52:21Z</time>
      </trkpt>
      <trkpt lat="45.96451" lon="4.84055">
        <ele>251</ele>
        <time>2018-05-25T09:52:22Z</time>
      </trkpt>
      <trkpt lat="45.96448" lon="4.84046">
        <ele>251</ele>
        <time>2018-05-25T09:52:23Z</time>
      </trkpt>
      <trkpt lat="45.96444" lon="4.84038">
        <ele>251</ele>
        <time>2018-05-25T09:52:24Z</time>
      </trkpt>
      <trkpt lat="45.96441" lon="4.8403">
        <ele>251</ele>
        <time>2018-05-25T09:52:25Z</time>
      </trkpt>
      <trkpt lat="45.96437" lon="4.84022">
        <ele>251</ele>
        <time>2018-05-25T09:52:26Z</time>
      </trkpt>
      <trkpt lat="45.96434" lon="4.84014">
        <ele>252</ele>
        <time>2018-05-25T09:52:27Z</time>
      </trkpt>
      <trkpt lat="45.96431" lon="4.84005">
        <ele>252</ele>
        <time>2018-05-25T09:52:28Z</time>
      </trkpt>
      <trkpt lat="45.96426" lon="4.83996">
        <ele>252</ele>
        <time>2018-05-25T09:52:29Z</time>
      </trkpt>
      <trkpt lat="45.96422" lon="4.83987">
        <ele>251</ele>
        <time>2018-05-25T09:52:30Z</time>
      </trkpt>
      <trkpt lat="45.96417" lon="4.83977">
        <ele>250</ele>
        <time>2018-05-25T09:52:31Z</time>
      </trkpt>
      <trkpt lat="45.96413" lon="4.83968">
        <ele>253</ele>
        <time>2018-05-25T09:52:32Z</time>
      </trkpt>
      <trkpt lat="45.96392" lon="4.83916">
        <ele>248</ele>
        <time>2018-05-25T09:52:37Z</time>
      </trkpt>
      <trkpt lat="45.9639" lon="4.83904">
        <ele>248</ele>
        <time>2018-05-25T09:52:38Z</time>
      </trkpt>
      <trkpt lat="45.96383" lon="4.83892">
        <ele>248</ele>
        <time>2018-05-25T09:52:39Z</time>
      </trkpt>
      <trkpt lat="45.96378" lon="4.83882">
        <ele>247</ele>
        <time>2018-05-25T09:52:40Z</time>
      </trkpt>
      <trkpt lat="45.96373" lon="4.83873">
        <ele>247</ele>
        <time>2018-05-25T09:52:41Z</time>
      </trkpt>
      <trkpt lat="45.96368" lon="4.83864">
        <ele>247</ele>
        <time>2018-05-25T09:52:42Z</time>
      </trkpt>
      <trkpt lat="45.96364" lon="4.83855">
        <ele>247</ele>
        <time>2018-05-25T09:52:43Z</time>
      </trkpt>
      <trkpt lat="45.96358" lon="4.83847">
        <ele>246</ele>
        <time>2018-05-25T09:52:44Z</time>
      </trkpt>
      <trkpt lat="45.96354" lon="4.8384">
        <ele>246</ele>
        <time>2018-05-25T09:52:45Z</time>
      </trkpt>
      <trkpt lat="45.96348" lon="4.83833">
        <ele>245</ele>
        <time>2018-05-25T09:52:46Z</time>
      </trkpt>
      <trkpt lat="45.96343" lon="4.83825">
        <ele>245</ele>
        <time>2018-05-25T09:52:47Z</time>
      </trkpt>
      <trkpt lat="45.96338" lon="4.83819">
        <ele>245</ele>
        <time>2018-05-25T09:52:48Z</time>
      </trkpt>
      <trkpt lat="45.96333" lon="4.83814">
        <ele>244</ele>
        <time>2018-05-25T09:52:49Z</time>
      </trkpt>
      <trkpt lat="45.96327" lon="4.83809">
        <ele>244</ele>
        <time>2018-05-25T09:52:50Z</time>
      </trkpt>
      <trkpt lat="45.96322" lon="4.83804">
        <ele>245</ele>
        <time>2018-05-25T09:52:51Z</time>
      </trkpt>
      <trkpt lat="45.96317" lon="4.83799">
        <ele>245</ele>
        <time>2018-05-25T09:52:52Z</time>
      </trkpt>
      <trkpt lat="45.96311" lon="4.83795">
        <ele>245</ele>
        <time>2018-05-25T09:52:53Z</time>
      </trkpt>
      <trkpt lat="45.96306" lon="4.83791">
        <ele>245</ele>
        <time>2018-05-25T09:52:54Z</time>
      </trkpt>
      <trkpt lat="45.96301" lon="4.83785">
        <ele>245</ele>
        <time>2018-05-25T09:52:55Z</time>
      </trkpt>
      <trkpt lat="45.96296" lon="4.8378">
        <ele>245</ele>
        <time>2018-05-25T09:52:56Z</time>
      </trkpt>
      <trkpt lat="45.96291" lon="4.83774">
        <ele>245</ele>
        <time>2018-05-25T09:52:57Z</time>
      </trkpt>
      <trkpt lat="45.96286" lon="4.8377">
        <ele>245</ele>
        <time>2018-05-25T09:52:58Z</time>
      </trkpt>
      <trkpt lat="45.96281" lon="4.83765">
        <ele>245</ele>
        <time>2018-05-25T09:52:59Z</time>
      </trkpt>
      <trkpt lat="45.96275" lon="4.8376">
        <ele>245</ele>
        <time>2018-05-25T09:53:00Z</time>
      </trkpt>
      <trkpt lat="45.9627" lon="4.83754">
        <ele>245</ele>
        <time>2018-05-25T09:53:01Z</time>
      </trkpt>
      <trkpt lat="45.96265" lon="4.83749">
        <ele>245</ele>
        <time>2018-05-25T09:53:02Z</time>
      </trkpt>
      <trkpt lat="45.9626" lon="4.83745">
        <ele>245</ele>
        <time>2018-05-25T09:53:03Z</time>
      </trkpt>
      <trkpt lat="45.96255" lon="4.8374">
        <ele>245</ele>
        <time>2018-05-25T09:53:04Z</time>
      </trkpt>
      <trkpt lat="45.96251" lon="4.83738">
        <ele>245</ele>
        <time>2018-05-25T09:53:05Z</time>
      </trkpt>
      <trkpt lat="45.96246" lon="4.83732">
        <ele>244</ele>
        <time>2018-05-25T09:53:06Z</time>
      </trkpt>
      <trkpt lat="45.96241" lon="4.83729">
        <ele>244</ele>
        <time>2018-05-25T09:53:07Z</time>
      </trkpt>
      <trkpt lat="45.96235" lon="4.83726">
        <ele>244</ele>
        <time>2018-05-25T09:53:08Z</time>
      </trkpt>
      <trkpt lat="45.96231" lon="4.8372">
        <ele>244</ele>
        <time>2018-05-25T09:53:09Z</time>
      </trkpt>
      <trkpt lat="45.96226" lon="4.83716">
        <ele>244</ele>
        <time>2018-05-25T09:53:10Z</time>
      </trkpt>
      <trkpt lat="45.96222" lon="4.83711">
        <ele>244</ele>
        <time>2018-05-25T09:53:11Z</time>
      </trkpt>
      <trkpt lat="45.96217" lon="4.83705">
        <ele>244</ele>
        <time>2018-05-25T09:53:12Z</time>
      </trkpt>
      <trkpt lat="45.96212" lon="4.83699">
        <ele>243</ele>
        <time>2018-05-25T09:53:13Z</time>
      </trkpt>
      <trkpt lat="45.96207" lon="4.83694">
        <ele>243</ele>
        <time>2018-05-25T09:53:14Z</time>
      </trkpt>
      <trkpt lat="45.96195" lon="4.83688">
        <ele>243</ele>
        <time>2018-05-25T09:53:15Z</time>
      </trkpt>
      <trkpt lat="45.96191" lon="4.83682">
        <ele>243</ele>
        <time>2018-05-25T09:53:16Z</time>
      </trkpt>
      <trkpt lat="45.96186" lon="4.83677">
        <ele>243</ele>
        <time>2018-05-25T09:53:17Z</time>
      </trkpt>
      <trkpt lat="45.96182" lon="4.83671">
        <ele>243</ele>
        <time>2018-05-25T09:53:18Z</time>
      </trkpt>
      <trkpt lat="45.96177" lon="4.83666">
        <ele>242</ele>
        <time>2018-05-25T09:53:19Z</time>
      </trkpt>
      <trkpt lat="45.96171" lon="4.83657">
        <ele>242</ele>
        <time>2018-05-25T09:53:21Z</time>
      </trkpt>
      <trkpt lat="45.96168" lon="4.83651">
        <ele>242</ele>
        <time>2018-05-25T09:53:22Z</time>
      </trkpt>
      <trkpt lat="45.96164" lon="4.8364">
        <ele>243</ele>
        <time>2018-05-25T09:53:24Z</time>
      </trkpt>
      <trkpt lat="45.9616" lon="4.83634">
        <ele>243</ele>
        <time>2018-05-25T09:53:25Z</time>
      </trkpt>
      <trkpt lat="45.96158" lon="4.83625">
        <ele>243</ele>
        <time>2018-05-25T09:53:26Z</time>
      </trkpt>
      <trkpt lat="45.96153" lon="4.8362">
        <ele>242</ele>
        <time>2018-05-25T09:53:27Z</time>
      </trkpt>
      <trkpt lat="45.9615" lon="4.83613">
        <ele>242</ele>
        <time>2018-05-25T09:53:28Z</time>
      </trkpt>
      <trkpt lat="45.96148" lon="4.83605">
        <ele>242</ele>
        <time>2018-05-25T09:53:29Z</time>
      </trkpt>
      <trkpt lat="45.96146" lon="4.83595">
        <ele>242</ele>
        <time>2018-05-25T09:53:30Z</time>
      </trkpt>
      <trkpt lat="45.96146" lon="4.83588">
        <ele>242</ele>
        <time>2018-05-25T09:53:31Z</time>
      </trkpt>
      <trkpt lat="45.96144" lon="4.83579">
        <ele>241</ele>
        <time>2018-05-25T09:53:32Z</time>
      </trkpt>
      <trkpt lat="45.96142" lon="4.83573">
        <ele>241</ele>
        <time>2018-05-25T09:53:33Z</time>
      </trkpt>
      <trkpt lat="45.96141" lon="4.83565">
        <ele>242</ele>
        <time>2018-05-25T09:53:34Z</time>
      </trkpt>
      <trkpt lat="45.96139" lon="4.83555">
        <ele>242</ele>
        <time>2018-05-25T09:53:35Z</time>
      </trkpt>
      <trkpt lat="45.96138" lon="4.83547">
        <ele>242</ele>
        <time>2018-05-25T09:53:36Z</time>
      </trkpt>
      <trkpt lat="45.96137" lon="4.83538">
        <ele>242</ele>
        <time>2018-05-25T09:53:37Z</time>
      </trkpt>
      <trkpt lat="45.96136" lon="4.83529">
        <ele>242</ele>
        <time>2018-05-25T09:53:38Z</time>
      </trkpt>
      <trkpt lat="45.96134" lon="4.8352">
        <ele>242</ele>
        <time>2018-05-25T09:53:39Z</time>
      </trkpt>
      <trkpt lat="45.96132" lon="4.83509">
        <ele>242</ele>
        <time>2018-05-25T09:53:40Z</time>
      </trkpt>
      <trkpt lat="45.9613" lon="4.83501">
        <ele>242</ele>
        <time>2018-05-25T09:53:41Z</time>
      </trkpt>
      <trkpt lat="45.96128" lon="4.83491">
        <ele>242</ele>
        <time>2018-05-25T09:53:42Z</time>
      </trkpt>
      <trkpt lat="45.96127" lon="4.83481">
        <ele>242</ele>
        <time>2018-05-25T09:53:43Z</time>
      </trkpt>
      <trkpt lat="45.96126" lon="4.83471">
        <ele>242</ele>
        <time>2018-05-25T09:53:44Z</time>
      </trkpt>
      <trkpt lat="45.96124" lon="4.83463">
        <ele>242</ele>
        <time>2018-05-25T09:53:45Z</time>
      </trkpt>
      <trkpt lat="45.96122" lon="4.83454">
        <ele>242</ele>
        <time>2018-05-25T09:53:46Z</time>
      </trkpt>
      <trkpt lat="45.96118" lon="4.83444">
        <ele>242</ele>
        <time>2018-05-25T09:53:47Z</time>
      </trkpt>
      <trkpt lat="45.96116" lon="4.83435">
        <ele>242</ele>
        <time>2018-05-25T09:53:48Z</time>
      </trkpt>
      <trkpt lat="45.96115" lon="4.83425">
        <ele>243</ele>
        <time>2018-05-25T09:53:49Z</time>
      </trkpt>
      <trkpt lat="45.96113" lon="4.83416">
        <ele>243</ele>
        <time>2018-05-25T09:53:50Z</time>
      </trkpt>
      <trkpt lat="45.96112" lon="4.83406">
        <ele>243</ele>
        <time>2018-05-25T09:53:51Z</time>
      </trkpt>
      <trkpt lat="45.96111" lon="4.83396">
        <ele>243</ele>
        <time>2018-05-25T09:53:52Z</time>
      </trkpt>
      <trkpt lat="45.96109" lon="4.83385">
        <ele>243</ele>
        <time>2018-05-25T09:53:53Z</time>
      </trkpt>
      <trkpt lat="45.96107" lon="4.83375">
        <ele>242</ele>
        <time>2018-05-25T09:53:54Z</time>
      </trkpt>
      <trkpt lat="45.96106" lon="4.83366">
        <ele>242</ele>
        <time>2018-05-25T09:53:55Z</time>
      </trkpt>
      <trkpt lat="45.96103" lon="4.83356">
        <ele>242</ele>
        <time>2018-05-25T09:53:56Z</time>
      </trkpt>
      <trkpt lat="45.96101" lon="4.83348">
        <ele>242</ele>
        <time>2018-05-25T09:53:57Z</time>
      </trkpt>
      <trkpt lat="45.96101" lon="4.83338">
        <ele>242</ele>
        <time>2018-05-25T09:53:58Z</time>
      </trkpt>
      <trkpt lat="45.96099" lon="4.83327">
        <ele>241</ele>
        <time>2018-05-25T09:53:59Z</time>
      </trkpt>
      <trkpt lat="45.96098" lon="4.83316">
        <ele>241</ele>
        <time>2018-05-25T09:54:00Z</time>
      </trkpt>
      <trkpt lat="45.96097" lon="4.83306">
        <ele>241</ele>
        <time>2018-05-25T09:54:01Z</time>
      </trkpt>
      <trkpt lat="45.96095" lon="4.83298">
        <ele>241</ele>
        <time>2018-05-25T09:54:02Z</time>
      </trkpt>
      <trkpt lat="45.96095" lon="4.83289">
        <ele>241</ele>
        <time>2018-05-25T09:54:03Z</time>
      </trkpt>
      <trkpt lat="45.96094" lon="4.83279">
        <ele>241</ele>
        <time>2018-05-25T09:54:04Z</time>
      </trkpt>
      <trkpt lat="45.96093" lon="4.8327">
        <ele>241</ele>
        <time>2018-05-25T09:54:05Z</time>
      </trkpt>
      <trkpt lat="45.96094" lon="4.83261">
        <ele>241</ele>
        <time>2018-05-25T09:54:06Z</time>
      </trkpt>
      <trkpt lat="45.96093" lon="4.83252">
        <ele>240</ele>
        <time>2018-05-25T09:54:07Z</time>
      </trkpt>
      <trkpt lat="45.96092" lon="4.83242">
        <ele>240</ele>
        <time>2018-05-25T09:54:08Z</time>
      </trkpt>
      <trkpt lat="45.96092" lon="4.83233">
        <ele>240</ele>
        <time>2018-05-25T09:54:09Z</time>
      </trkpt>
      <trkpt lat="45.96092" lon="4.83224">
        <ele>240</ele>
        <time>2018-05-25T09:54:10Z</time>
      </trkpt>
      <trkpt lat="45.96092" lon="4.83215">
        <ele>240</ele>
        <time>2018-05-25T09:54:11Z</time>
      </trkpt>
      <trkpt lat="45.9609" lon="4.83206">
        <ele>240</ele>
        <time>2018-05-25T09:54:12Z</time>
      </trkpt>
      <trkpt lat="45.96091" lon="4.83198">
        <ele>240</ele>
        <time>2018-05-25T09:54:13Z</time>
      </trkpt>
      <trkpt lat="45.9609" lon="4.83188">
        <ele>240</ele>
        <time>2018-05-25T09:54:14Z</time>
      </trkpt>
      <trkpt lat="45.96091" lon="4.8318">
        <ele>240</ele>
        <time>2018-05-25T09:54:15Z</time>
      </trkpt>
      <trkpt lat="45.9609" lon="4.8317">
        <ele>240</ele>
        <time>2018-05-25T09:54:16Z</time>
      </trkpt>
      <trkpt lat="45.96091" lon="4.83162">
        <ele>240</ele>
        <time>2018-05-25T09:54:17Z</time>
      </trkpt>
      <trkpt lat="45.96091" lon="4.83152">
        <ele>240</ele>
        <time>2018-05-25T09:54:18Z</time>
      </trkpt>
      <trkpt lat="45.96091" lon="4.83144">
        <ele>240</ele>
        <time>2018-05-25T09:54:19Z</time>
      </trkpt>
      <trkpt lat="45.9609" lon="4.83134">
        <ele>240</ele>
        <time>2018-05-25T09:54:20Z</time>
      </trkpt>
      <trkpt lat="45.96089" lon="4.83125">
        <ele>240</ele>
        <time>2018-05-25T09:54:21Z</time>
      </trkpt>
      <trkpt lat="45.96089" lon="4.83116">
        <ele>240</ele>
        <time>2018-05-25T09:54:22Z</time>
      </trkpt>
      <trkpt lat="45.96088" lon="4.83107">
        <ele>240</ele>
        <time>2018-05-25T09:54:23Z</time>
      </trkpt>
      <trkpt lat="45.96087" lon="4.83097">
        <ele>240</ele>
        <time>2018-05-25T09:54:24Z</time>
      </trkpt>
      <trkpt lat="45.96086" lon="4.83088">
        <ele>240</ele>
        <time>2018-05-25T09:54:25Z</time>
      </trkpt>
      <trkpt lat="45.96084" lon="4.8308">
        <ele>240</ele>
        <time>2018-05-25T09:54:26Z</time>
      </trkpt>
      <trkpt lat="45.9608" lon="4.83071">
        <ele>241</ele>
        <time>2018-05-25T09:54:27Z</time>
      </trkpt>
      <trkpt lat="45.96078" lon="4.83063">
        <ele>242</ele>
        <time>2018-05-25T09:54:28Z</time>
      </trkpt>
      <trkpt lat="45.96076" lon="4.83053">
        <ele>242</ele>
        <time>2018-05-25T09:54:29Z</time>
      </trkpt>
      <trkpt lat="45.96075" lon="4.83045">
        <ele>243</ele>
        <time>2018-05-25T09:54:30Z</time>
      </trkpt>
      <trkpt lat="45.96073" lon="4.83037">
        <ele>242</ele>
        <time>2018-05-25T09:54:31Z</time>
      </trkpt>
      <trkpt lat="45.96074" lon="4.83028">
        <ele>242</ele>
        <time>2018-05-25T09:54:32Z</time>
      </trkpt>
      <trkpt lat="45.96073" lon="4.8302">
        <ele>242</ele>
        <time>2018-05-25T09:54:33Z</time>
      </trkpt>
      <trkpt lat="45.96072" lon="4.83011">
        <ele>241</ele>
        <time>2018-05-25T09:54:34Z</time>
      </trkpt>
      <trkpt lat="45.96072" lon="4.83003">
        <ele>241</ele>
        <time>2018-05-25T09:54:35Z</time>
      </trkpt>
      <trkpt lat="45.96072" lon="4.82994">
        <ele>240</ele>
        <time>2018-05-25T09:54:36Z</time>
      </trkpt>
      <trkpt lat="45.96072" lon="4.82986">
        <ele>241</ele>
        <time>2018-05-25T09:54:37Z</time>
      </trkpt>
      <trkpt lat="45.96072" lon="4.82979">
        <ele>241</ele>
        <time>2018-05-25T09:54:38Z</time>
      </trkpt>
      <trkpt lat="45.96073" lon="4.82972">
        <ele>241</ele>
        <time>2018-05-25T09:54:39Z</time>
      </trkpt>
      <trkpt lat="45.96074" lon="4.82962">
        <ele>241</ele>
        <time>2018-05-25T09:54:40Z</time>
      </trkpt>
      <trkpt lat="45.96077" lon="4.82953">
        <ele>241</ele>
        <time>2018-05-25T09:54:41Z</time>
      </trkpt>
      <trkpt lat="45.96078" lon="4.82943">
        <ele>240</ele>
        <time>2018-05-25T09:54:42Z</time>
      </trkpt>
      <trkpt lat="45.96081" lon="4.82933">
        <ele>240</ele>
        <time>2018-05-25T09:54:43Z</time>
      </trkpt>
      <trkpt lat="45.96084" lon="4.82924">
        <ele>238</ele>
        <time>2018-05-25T09:54:44Z</time>
      </trkpt>
      <trkpt lat="45.96086" lon="4.82915">
        <ele>238</ele>
        <time>2018-05-25T09:54:45Z</time>
      </trkpt>
      <trkpt lat="45.96088" lon="4.82907">
        <ele>238</ele>
        <time>2018-05-25T09:54:46Z</time>
      </trkpt>
      <trkpt lat="45.9609" lon="4.82898">
        <ele>238</ele>
        <time>2018-05-25T09:54:47Z</time>
      </trkpt>
      <trkpt lat="45.96093" lon="4.8289">
        <ele>237</ele>
        <time>2018-05-25T09:54:48Z</time>
      </trkpt>
      <trkpt lat="45.96096" lon="4.82882">
        <ele>237</ele>
        <time>2018-05-25T09:54:49Z</time>
      </trkpt>
      <trkpt lat="45.96097" lon="4.82874">
        <ele>237</ele>
        <time>2018-05-25T09:54:50Z</time>
      </trkpt>
      <trkpt lat="45.96101" lon="4.82866">
        <ele>237</ele>
        <time>2018-05-25T09:54:51Z</time>
      </trkpt>
      <trkpt lat="45.96102" lon="4.82859">
        <ele>237</ele>
        <time>2018-05-25T09:54:52Z</time>
      </trkpt>
      <trkpt lat="45.96101" lon="4.82849">
        <ele>237</ele>
        <time>2018-05-25T09:54:53Z</time>
      </trkpt>
      <trkpt lat="45.96101" lon="4.82841">
        <ele>237</ele>
        <time>2018-05-25T09:54:54Z</time>
      </trkpt>
      <trkpt lat="45.961" lon="4.82833">
        <ele>237</ele>
        <time>2018-05-25T09:54:55Z</time>
      </trkpt>
      <trkpt lat="45.96098" lon="4.82825">
        <ele>237</ele>
        <time>2018-05-25T09:54:56Z</time>
      </trkpt>
      <trkpt lat="45.96096" lon="4.82817">
        <ele>237</ele>
        <time>2018-05-25T09:54:57Z</time>
      </trkpt>
      <trkpt lat="45.96095" lon="4.82808">
        <ele>237</ele>
        <time>2018-05-25T09:54:58Z</time>
      </trkpt>
      <trkpt lat="45.96093" lon="4.82799">
        <ele>237</ele>
        <time>2018-05-25T09:54:59Z</time>
      </trkpt>
      <trkpt lat="45.96092" lon="4.82792">
        <ele>237</ele>
        <time>2018-05-25T09:55:00Z</time>
      </trkpt>
      <trkpt lat="45.96091" lon="4.82785">
        <ele>237</ele>
        <time>2018-05-25T09:55:01Z</time>
      </trkpt>
      <trkpt lat="45.96089" lon="4.82776">
        <ele>237</ele>
        <time>2018-05-25T09:55:02Z</time>
      </trkpt>
      <trkpt lat="45.96086" lon="4.82768">
        <ele>237</ele>
        <time>2018-05-25T09:55:03Z</time>
      </trkpt>
      <trkpt lat="45.96083" lon="4.8276">
        <ele>237</ele>
        <time>2018-05-25T09:55:04Z</time>
      </trkpt>
      <trkpt lat="45.96081" lon="4.82754">
        <ele>237</ele>
        <time>2018-05-25T09:55:05Z</time>
      </trkpt>
      <trkpt lat="45.96078" lon="4.82746">
        <ele>237</ele>
        <time>2018-05-25T09:55:06Z</time>
      </trkpt>
      <trkpt lat="45.96076" lon="4.82739">
        <ele>237</ele>
        <time>2018-05-25T09:55:07Z</time>
      </trkpt>
      <trkpt lat="45.96073" lon="4.82731">
        <ele>237</ele>
        <time>2018-05-25T09:55:08Z</time>
      </trkpt>
      <trkpt lat="45.96072" lon="4.82724">
        <ele>237</ele>
        <time>2018-05-25T09:55:09Z</time>
      </trkpt>
      <trkpt lat="45.9607" lon="4.82718">
        <ele>237</ele>
        <time>2018-05-25T09:55:10Z</time>
      </trkpt>
      <trkpt lat="45.96067" lon="4.8271">
        <ele>237</ele>
        <time>2018-05-25T09:55:11Z</time>
      </trkpt>
      <trkpt lat="45.96065" lon="4.82705">
        <ele>237</ele>
        <time>2018-05-25T09:55:12Z</time>
      </trkpt>
      <trkpt lat="45.96062" lon="4.82698">
        <ele>237</ele>
        <time>2018-05-25T09:55:13Z</time>
      </trkpt>
      <trkpt lat="45.9606" lon="4.8269">
        <ele>236</ele>
        <time>2018-05-25T09:55:14Z</time>
      </trkpt>
      <trkpt lat="45.96058" lon="4.82684">
        <ele>236</ele>
        <time>2018-05-25T09:55:15Z</time>
      </trkpt>
      <trkpt lat="45.96056" lon="4.82677">
        <ele>236</ele>
        <time>2018-05-25T09:55:16Z</time>
      </trkpt>
      <trkpt lat="45.96053" lon="4.8267">
        <ele>236</ele>
        <time>2018-05-25T09:55:17Z</time>
      </trkpt>
      <trkpt lat="45.96051" lon="4.82664">
        <ele>235</ele>
        <time>2018-05-25T09:55:18Z</time>
      </trkpt>
      <trkpt lat="45.96049" lon="4.82656">
        <ele>235</ele>
        <time>2018-05-25T09:55:19Z</time>
      </trkpt>
      <trkpt lat="45.96045" lon="4.82645">
        <ele>235</ele>
        <time>2018-05-25T09:55:21Z</time>
      </trkpt>
      <trkpt lat="45.96042" lon="4.82638">
        <ele>235</ele>
        <time>2018-05-25T09:55:22Z</time>
      </trkpt>
      <trkpt lat="45.9604" lon="4.82631">
        <ele>235</ele>
        <time>2018-05-25T09:55:23Z</time>
      </trkpt>
      <trkpt lat="45.96037" lon="4.82624">
        <ele>235</ele>
        <time>2018-05-25T09:55:24Z</time>
      </trkpt>
      <trkpt lat="45.96034" lon="4.82617">
        <ele>235</ele>
        <time>2018-05-25T09:55:25Z</time>
      </trkpt>
      <trkpt lat="45.9603" lon="4.8261">
        <ele>235</ele>
        <time>2018-05-25T09:55:26Z</time>
      </trkpt>
      <trkpt lat="45.96025" lon="4.82599">
        <ele>235</ele>
        <time>2018-05-25T09:55:28Z</time>
      </trkpt>
      <trkpt lat="45.96023" lon="4.82592">
        <ele>235</ele>
        <time>2018-05-25T09:55:29Z</time>
      </trkpt>
      <trkpt lat="45.96022" lon="4.82585">
        <ele>235</ele>
        <time>2018-05-25T09:55:30Z</time>
      </trkpt>
      <trkpt lat="45.9602" lon="4.82578">
        <ele>235</ele>
        <time>2018-05-25T09:55:31Z</time>
      </trkpt>
      <trkpt lat="45.96019" lon="4.82569">
        <ele>235</ele>
        <time>2018-05-25T09:55:32Z</time>
      </trkpt>
      <trkpt lat="45.96018" lon="4.82562">
        <ele>235</ele>
        <time>2018-05-25T09:55:33Z</time>
      </trkpt>
      <trkpt lat="45.96018" lon="4.82554">
        <ele>235</ele>
        <time>2018-05-25T09:55:34Z</time>
      </trkpt>
      <trkpt lat="45.96016" lon="4.82544">
        <ele>235</ele>
        <time>2018-05-25T09:55:35Z</time>
      </trkpt>
      <trkpt lat="45.96017" lon="4.82536">
        <ele>235</ele>
        <time>2018-05-25T09:55:36Z</time>
      </trkpt>
      <trkpt lat="45.96017" lon="4.82527">
        <ele>235</ele>
        <time>2018-05-25T09:55:37Z</time>
      </trkpt>
      <trkpt lat="45.96017" lon="4.82518">
        <ele>235</ele>
        <time>2018-05-25T09:55:38Z</time>
      </trkpt>
      <trkpt lat="45.96019" lon="4.8251">
        <ele>235</ele>
        <time>2018-05-25T09:55:39Z</time>
      </trkpt>
      <trkpt lat="45.96019" lon="4.82501">
        <ele>235</ele>
        <time>2018-05-25T09:55:40Z</time>
      </trkpt>
      <trkpt lat="45.96018" lon="4.82493">
        <ele>235</ele>
        <time>2018-05-25T09:55:41Z</time>
      </trkpt>
      <trkpt lat="45.96019" lon="4.82485">
        <ele>235</ele>
        <time>2018-05-25T09:55:42Z</time>
      </trkpt>
      <trkpt lat="45.9602" lon="4.82477">
        <ele>235</ele>
        <time>2018-05-25T09:55:43Z</time>
      </trkpt>
      <trkpt lat="45.9602" lon="4.82468">
        <ele>235</ele>
        <time>2018-05-25T09:55:44Z</time>
      </trkpt>
      <trkpt lat="45.96021" lon="4.8246">
        <ele>235</ele>
        <time>2018-05-25T09:55:45Z</time>
      </trkpt>
      <trkpt lat="45.9602" lon="4.8245">
        <ele>235</ele>
        <time>2018-05-25T09:55:46Z</time>
      </trkpt>
      <trkpt lat="45.9602" lon="4.82443">
        <ele>235</ele>
        <time>2018-05-25T09:55:47Z</time>
      </trkpt>
      <trkpt lat="45.96021" lon="4.82435">
        <ele>235</ele>
        <time>2018-05-25T09:55:48Z</time>
      </trkpt>
      <trkpt lat="45.96022" lon="4.82427">
        <ele>235</ele>
        <time>2018-05-25T09:55:49Z</time>
      </trkpt>
      <trkpt lat="45.96023" lon="4.82418">
        <ele>235</ele>
        <time>2018-05-25T09:55:50Z</time>
      </trkpt>
      <trkpt lat="45.96023" lon="4.82409">
        <ele>235</ele>
        <time>2018-05-25T09:55:51Z</time>
      </trkpt>
      <trkpt lat="45.96023" lon="4.82401">
        <ele>235</ele>
        <time>2018-05-25T09:55:52Z</time>
      </trkpt>
      <trkpt lat="45.96024" lon="4.82394">
        <ele>235</ele>
        <time>2018-05-25T09:55:53Z</time>
      </trkpt>
      <trkpt lat="45.96026" lon="4.82385">
        <ele>235</ele>
        <time>2018-05-25T09:55:54Z</time>
      </trkpt>
      <trkpt lat="45.96028" lon="4.82379">
        <ele>235</ele>
        <time>2018-05-25T09:55:55Z</time>
      </trkpt>
      <trkpt lat="45.9603" lon="4.82367">
        <ele>235</ele>
        <time>2018-05-25T09:55:57Z</time>
      </trkpt>
      <trkpt lat="45.96029" lon="4.82362">
        <ele>235</ele>
        <time>2018-05-25T09:55:58Z</time>
      </trkpt>
      <trkpt lat="45.96023" lon="4.82359">
        <ele>235</ele>
        <time>2018-05-25T09:56:00Z</time>
      </trkpt>
      <trkpt lat="45.96019" lon="4.8236">
        <ele>235</ele>
        <time>2018-05-25T09:56:01Z</time>
      </trkpt>
      <trkpt lat="45.96013" lon="4.82355">
        <ele>235</ele>
        <time>2018-05-25T09:56:03Z</time>
      </trkpt>
      <trkpt lat="45.96009" lon="4.82353">
        <ele>235</ele>
        <time>2018-05-25T09:56:04Z</time>
      </trkpt>
      <trkpt lat="45.96002" lon="4.82352">
        <ele>235</ele>
        <time>2018-05-25T09:56:07Z</time>
      </trkpt>
      <trkpt lat="45.95994" lon="4.82352">
        <ele>236</ele>
        <time>2018-05-25T09:56:08Z</time>
      </trkpt>
      <trkpt lat="45.95988" lon="4.82351">
        <ele>236</ele>
        <time>2018-05-25T09:56:11Z</time>
      </trkpt>
      <trkpt lat="45.95982" lon="4.82351">
        <ele>236</ele>
        <time>2018-05-25T09:56:12Z</time>
      </trkpt>
      <trkpt lat="45.95974" lon="4.82354">
        <ele>237</ele>
        <time>2018-05-25T09:56:15Z</time>
      </trkpt>
      <trkpt lat="45.95971" lon="4.82355">
        <ele>237</ele>
        <time>2018-05-25T09:56:16Z</time>
      </trkpt>
      <trkpt lat="45.95964" lon="4.82357">
        <ele>237</ele>
        <time>2018-05-25T09:56:19Z</time>
      </trkpt>
      <trkpt lat="45.95961" lon="4.82358">
        <ele>237</ele>
        <time>2018-05-25T09:56:20Z</time>
      </trkpt>
      <trkpt lat="45.95952" lon="4.82358">
        <ele>237</ele>
        <time>2018-05-25T09:56:24Z</time>
      </trkpt>
      <trkpt lat="45.9595" lon="4.82358">
        <ele>237</ele>
        <time>2018-05-25T09:56:25Z</time>
      </trkpt>
      <trkpt lat="45.95943" lon="4.82359">
        <ele>237</ele>
        <time>2018-05-25T09:56:28Z</time>
      </trkpt>
      <trkpt lat="45.9594" lon="4.82359">
        <ele>237</ele>
        <time>2018-05-25T09:56:29Z</time>
      </trkpt>
      <trkpt lat="45.95933" lon="4.82361">
        <ele>238</ele>
        <time>2018-05-25T09:56:32Z</time>
      </trkpt>
      <trkpt lat="45.9593" lon="4.82362">
        <ele>238</ele>
        <time>2018-05-25T09:56:33Z</time>
      </trkpt>
      <trkpt lat="45.95922" lon="4.82363">
        <ele>238</ele>
        <time>2018-05-25T09:56:36Z</time>
      </trkpt>
      <trkpt lat="45.95919" lon="4.82363">
        <ele>238</ele>
        <time>2018-05-25T09:56:37Z</time>
      </trkpt>
      <trkpt lat="45.95911" lon="4.82365">
        <ele>242</ele>
        <time>2018-05-25T09:56:40Z</time>
      </trkpt>
      <trkpt lat="45.95909" lon="4.82365">
        <ele>242</ele>
        <time>2018-05-25T09:56:41Z</time>
      </trkpt>
      <trkpt lat="45.959" lon="4.82367">
        <ele>243</ele>
        <time>2018-05-25T09:56:45Z</time>
      </trkpt>
      <trkpt lat="45.95898" lon="4.82368">
        <ele>243</ele>
        <time>2018-05-25T09:56:46Z</time>
      </trkpt>
      <trkpt lat="45.95889" lon="4.82369">
        <ele>243</ele>
        <time>2018-05-25T09:56:50Z</time>
      </trkpt>
      <trkpt lat="45.95887" lon="4.82369">
        <ele>243</ele>
        <time>2018-05-25T09:56:51Z</time>
      </trkpt>
      <trkpt lat="45.9588" lon="4.8237">
        <ele>244</ele>
        <time>2018-05-25T09:56:54Z</time>
      </trkpt>
      <trkpt lat="45.95877" lon="4.8237">
        <ele>244</ele>
        <time>2018-05-25T09:56:55Z</time>
      </trkpt>
      <trkpt lat="45.9587" lon="4.8237">
        <ele>244</ele>
        <time>2018-05-25T09:56:58Z</time>
      </trkpt>
      <trkpt lat="45.95868" lon="4.8237">
        <ele>245</ele>
        <time>2018-05-25T09:56:59Z</time>
      </trkpt>
      <trkpt lat="45.95861" lon="4.8237">
        <ele>245</ele>
        <time>2018-05-25T09:57:02Z</time>
      </trkpt>
      <trkpt lat="45.95859" lon="4.8237">
        <ele>245</ele>
        <time>2018-05-25T09:57:03Z</time>
      </trkpt>
      <trkpt lat="45.9585" lon="4.82369">
        <ele>246</ele>
        <time>2018-05-25T09:57:07Z</time>
      </trkpt>
      <trkpt lat="45.95848" lon="4.82369">
        <ele>246</ele>
        <time>2018-05-25T09:57:08Z</time>
      </trkpt>
      <trkpt lat="45.95839" lon="4.82369">
        <ele>246</ele>
        <time>2018-05-25T09:57:13Z</time>
      </trkpt>
      <trkpt lat="45.95838" lon="4.82368">
        <ele>246</ele>
        <time>2018-05-25T09:57:14Z</time>
      </trkpt>
      <trkpt lat="45.95829" lon="4.82367">
        <ele>251</ele>
        <time>2018-05-25T09:57:19Z</time>
      </trkpt>
      <trkpt lat="45.95827" lon="4.82367">
        <ele>251</ele>
        <time>2018-05-25T09:57:20Z</time>
      </trkpt>
      <trkpt lat="45.9582" lon="4.82364">
        <ele>251</ele>
        <time>2018-05-25T09:57:24Z</time>
      </trkpt>
      <trkpt lat="45.95818" lon="4.82364">
        <ele>251</ele>
        <time>2018-05-25T09:57:25Z</time>
      </trkpt>
      <trkpt lat="45.9581" lon="4.82362">
        <ele>252</ele>
        <time>2018-05-25T09:57:29Z</time>
      </trkpt>
      <trkpt lat="45.95808" lon="4.82362">
        <ele>252</ele>
        <time>2018-05-25T09:57:30Z</time>
      </trkpt>
      <trkpt lat="45.958" lon="4.82357">
        <ele>252</ele>
        <time>2018-05-25T09:57:34Z</time>
      </trkpt>
      <trkpt lat="45.95798" lon="4.82356">
        <ele>252</ele>
        <time>2018-05-25T09:57:35Z</time>
      </trkpt>
      <trkpt lat="45.95791" lon="4.82352">
        <ele>252</ele>
        <time>2018-05-25T09:57:38Z</time>
      </trkpt>
      <trkpt lat="45.95789" lon="4.8235">
        <ele>253</ele>
        <time>2018-05-25T09:57:39Z</time>
      </trkpt>
      <trkpt lat="45.95782" lon="4.82345">
        <ele>253</ele>
        <time>2018-05-25T09:57:42Z</time>
      </trkpt>
      <trkpt lat="45.9578" lon="4.82343">
        <ele>253</ele>
        <time>2018-05-25T09:57:43Z</time>
      </trkpt>
      <trkpt lat="45.95773" lon="4.82335">
        <ele>254</ele>
        <time>2018-05-25T09:57:47Z</time>
      </trkpt>
      <trkpt lat="45.95771" lon="4.82332">
        <ele>252</ele>
        <time>2018-05-25T09:57:48Z</time>
      </trkpt>
      <trkpt lat="45.95765" lon="4.82325">
        <ele>253</ele>
        <time>2018-05-25T09:57:52Z</time>
      </trkpt>
      <trkpt lat="45.95763" lon="4.82322">
        <ele>253</ele>
        <time>2018-05-25T09:57:53Z</time>
      </trkpt>
      <trkpt lat="45.95756" lon="4.82315">
        <ele>253</ele>
        <time>2018-05-25T09:57:56Z</time>
      </trkpt>
      <trkpt lat="45.95754" lon="4.82312">
        <ele>252</ele>
        <time>2018-05-25T09:57:57Z</time>
      </trkpt>
      <trkpt lat="45.95748" lon="4.82304">
        <ele>255</ele>
        <time>2018-05-25T09:58:00Z</time>
      </trkpt>
      <trkpt lat="45.95747" lon="4.82301">
        <ele>255</ele>
        <time>2018-05-25T09:58:01Z</time>
      </trkpt>
      <trkpt lat="45.95743" lon="4.82296">
        <ele>255</ele>
        <time>2018-05-25T09:58:03Z</time>
      </trkpt>
      <trkpt lat="45.95736" lon="4.82287">
        <ele>255</ele>
        <time>2018-05-25T09:58:04Z</time>
      </trkpt>
      <trkpt lat="45.95727" lon="4.82282">
        <ele>255</ele>
        <time>2018-05-25T09:58:08Z</time>
      </trkpt>
      <trkpt lat="45.95725" lon="4.8228">
        <ele>255</ele>
        <time>2018-05-25T09:58:09Z</time>
      </trkpt>
      <trkpt lat="45.95718" lon="4.82274">
        <ele>255</ele>
        <time>2018-05-25T09:58:12Z</time>
      </trkpt>
      <trkpt lat="45.95716" lon="4.82271">
        <ele>255</ele>
        <time>2018-05-25T09:58:13Z</time>
      </trkpt>
      <trkpt lat="45.95709" lon="4.82265">
        <ele>255</ele>
        <time>2018-05-25T09:58:16Z</time>
      </trkpt>
      <trkpt lat="45.95707" lon="4.82263">
        <ele>255</ele>
        <time>2018-05-25T09:58:17Z</time>
      </trkpt>
      <trkpt lat="45.95702" lon="4.82259">
        <ele>255</ele>
        <time>2018-05-25T09:58:19Z</time>
      </trkpt>
      <trkpt lat="45.95699" lon="4.82256">
        <ele>255</ele>
        <time>2018-05-25T09:58:20Z</time>
      </trkpt>
      <trkpt lat="45.95693" lon="4.82251">
        <ele>255</ele>
        <time>2018-05-25T09:58:22Z</time>
      </trkpt>
      <trkpt lat="45.95691" lon="4.82249">
        <ele>255</ele>
        <time>2018-05-25T09:58:23Z</time>
      </trkpt>
      <trkpt lat="45.95686" lon="4.82243">
        <ele>255</ele>
        <time>2018-05-25T09:58:25Z</time>
      </trkpt>
      <trkpt lat="45.95684" lon="4.82241">
        <ele>255</ele>
        <time>2018-05-25T09:58:26Z</time>
      </trkpt>
      <trkpt lat="45.95679" lon="4.82236">
        <ele>255</ele>
        <time>2018-05-25T09:58:28Z</time>
      </trkpt>
      <trkpt lat="45.95676" lon="4.82234">
        <ele>255</ele>
        <time>2018-05-25T09:58:29Z</time>
      </trkpt>
      <trkpt lat="45.95668" lon="4.82229">
        <ele>255</ele>
        <time>2018-05-25T09:58:32Z</time>
      </trkpt>
      <trkpt lat="45.95665" lon="4.82228">
        <ele>257</ele>
        <time>2018-05-25T09:58:33Z</time>
      </trkpt>
      <trkpt lat="45.95659" lon="4.82226">
        <ele>257</ele>
        <time>2018-05-25T09:58:35Z</time>
      </trkpt>
      <trkpt lat="45.95655" lon="4.82226">
        <ele>257</ele>
        <time>2018-05-25T09:58:36Z</time>
      </trkpt>
      <trkpt lat="45.95648" lon="4.82226">
        <ele>257</ele>
        <time>2018-05-25T09:58:38Z</time>
      </trkpt>
      <trkpt lat="45.95644" lon="4.82225">
        <ele>257</ele>
        <time>2018-05-25T09:58:39Z</time>
      </trkpt>
      <trkpt lat="45.95637" lon="4.82226">
        <ele>257</ele>
        <time>2018-05-25T09:58:41Z</time>
      </trkpt>
      <trkpt lat="45.95633" lon="4.82226">
        <ele>257</ele>
        <time>2018-05-25T09:58:42Z</time>
      </trkpt>
      <trkpt lat="45.95623" lon="4.82228">
        <ele>257</ele>
        <time>2018-05-25T09:58:43Z</time>
      </trkpt>
      <trkpt lat="45.95615" lon="4.82229">
        <ele>257</ele>
        <time>2018-05-25T09:58:47Z</time>
      </trkpt>
      <trkpt lat="45.95612" lon="4.8223">
        <ele>257</ele>
        <time>2018-05-25T09:58:48Z</time>
      </trkpt>
      <trkpt lat="45.95603" lon="4.8223">
        <ele>257</ele>
        <time>2018-05-25T09:58:49Z</time>
      </trkpt>
      <trkpt lat="45.95602" lon="4.8223">
        <ele>257</ele>
        <time>2018-05-25T09:58:50Z</time>
      </trkpt>
      <trkpt lat="45.95595" lon="4.82228">
        <ele>257</ele>
        <time>2018-05-25T09:58:53Z</time>
      </trkpt>
      <trkpt lat="45.95593" lon="4.82226">
        <ele>257</ele>
        <time>2018-05-25T09:58:54Z</time>
      </trkpt>
      <trkpt lat="45.95587" lon="4.82221">
        <ele>257</ele>
        <time>2018-05-25T09:58:56Z</time>
      </trkpt>
      <trkpt lat="45.95585" lon="4.82219">
        <ele>257</ele>
        <time>2018-05-25T09:58:57Z</time>
      </trkpt>
      <trkpt lat="45.95579" lon="4.82213">
        <ele>258</ele>
        <time>2018-05-25T09:58:59Z</time>
      </trkpt>
      <trkpt lat="45.95576" lon="4.82211">
        <ele>258</ele>
        <time>2018-05-25T09:59:00Z</time>
      </trkpt>
      <trkpt lat="45.95573" lon="4.82208">
        <ele>258</ele>
        <time>2018-05-25T09:59:01Z</time>
      </trkpt>
      <trkpt lat="45.95565" lon="4.822">
        <ele>258</ele>
        <time>2018-05-25T09:59:02Z</time>
      </trkpt>
      <trkpt lat="45.9556" lon="4.82195">
        <ele>259</ele>
        <time>2018-05-25T09:59:04Z</time>
      </trkpt>
      <trkpt lat="45.95555" lon="4.82191">
        <ele>259</ele>
        <time>2018-05-25T09:59:05Z</time>
      </trkpt>
      <trkpt lat="45.95548" lon="4.82185">
        <ele>259</ele>
        <time>2018-05-25T09:59:07Z</time>
      </trkpt>
      <trkpt lat="45.95547" lon="4.82183">
        <ele>259</ele>
        <time>2018-05-25T09:59:08Z</time>
      </trkpt>
      <trkpt lat="45.95542" lon="4.82178">
        <ele>259</ele>
        <time>2018-05-25T09:59:09Z</time>
      </trkpt>
      <trkpt lat="45.95539" lon="4.82175">
        <ele>259</ele>
        <time>2018-05-25T09:59:10Z</time>
      </trkpt>
      <trkpt lat="45.95532" lon="4.82168">
        <ele>259</ele>
        <time>2018-05-25T09:59:12Z</time>
      </trkpt>
      <trkpt lat="45.95529" lon="4.82164">
        <ele>259</ele>
        <time>2018-05-25T09:59:13Z</time>
      </trkpt>
      <trkpt lat="45.95522" lon="4.82158">
        <ele>259</ele>
        <time>2018-05-25T09:59:15Z</time>
      </trkpt>
      <trkpt lat="45.95519" lon="4.82154">
        <ele>259</ele>
        <time>2018-05-25T09:59:16Z</time>
      </trkpt>
      <trkpt lat="45.95514" lon="4.8215">
        <ele>259</ele>
        <time>2018-05-25T09:59:18Z</time>
      </trkpt>
      <trkpt lat="45.95509" lon="4.82144">
        <ele>259</ele>
        <time>2018-05-25T09:59:19Z</time>
      </trkpt>
      <trkpt lat="45.95503" lon="4.82137">
        <ele>259</ele>
        <time>2018-05-25T09:59:21Z</time>
      </trkpt>
      <trkpt lat="45.95499" lon="4.82133">
        <ele>260</ele>
        <time>2018-05-25T09:59:22Z</time>
      </trkpt>
      <trkpt lat="45.95494" lon="4.82129">
        <ele>260</ele>
        <time>2018-05-25T09:59:24Z</time>
      </trkpt>
      <trkpt lat="45.9549" lon="4.82124">
        <ele>260</ele>
        <time>2018-05-25T09:59:25Z</time>
      </trkpt>
      <trkpt lat="45.95483" lon="4.82117">
        <ele>260</ele>
        <time>2018-05-25T09:59:27Z</time>
      </trkpt>
      <trkpt lat="45.9548" lon="4.82114">
        <ele>260</ele>
        <time>2018-05-25T09:59:28Z</time>
      </trkpt>
      <trkpt lat="45.95474" lon="4.82107">
        <ele>260</ele>
        <time>2018-05-25T09:59:30Z</time>
      </trkpt>
      <trkpt lat="45.9547" lon="4.82103">
        <ele>260</ele>
        <time>2018-05-25T09:59:31Z</time>
      </trkpt>
      <trkpt lat="45.95466" lon="4.82099">
        <ele>260</ele>
        <time>2018-05-25T09:59:32Z</time>
      </trkpt>
      <trkpt lat="45.95461" lon="4.82096">
        <ele>260</ele>
        <time>2018-05-25T09:59:33Z</time>
      </trkpt>
      <trkpt lat="45.95454" lon="4.82088">
        <ele>260</ele>
        <time>2018-05-25T09:59:35Z</time>
      </trkpt>
      <trkpt lat="45.9545" lon="4.82083">
        <ele>260</ele>
        <time>2018-05-25T09:59:36Z</time>
      </trkpt>
      <trkpt lat="45.95446" lon="4.82079">
        <ele>260</ele>
        <time>2018-05-25T09:59:37Z</time>
      </trkpt>
      <trkpt lat="45.95442" lon="4.82074">
        <ele>260</ele>
        <time>2018-05-25T09:59:38Z</time>
      </trkpt>
      <trkpt lat="45.95438" lon="4.82069">
        <ele>260</ele>
        <time>2018-05-25T09:59:39Z</time>
      </trkpt>
      <trkpt lat="45.95432" lon="4.82068">
        <ele>260</ele>
        <time>2018-05-25T09:59:40Z</time>
      </trkpt>
      <trkpt lat="45.95428" lon="4.82063">
        <ele>260</ele>
        <time>2018-05-25T09:59:41Z</time>
      </trkpt>
      <trkpt lat="45.95425" lon="4.8206">
        <ele>260</ele>
        <time>2018-05-25T09:59:42Z</time>
      </trkpt>
      <trkpt lat="45.95417" lon="4.82053">
        <ele>260</ele>
        <time>2018-05-25T09:59:44Z</time>
      </trkpt>
      <trkpt lat="45.95414" lon="4.82049">
        <ele>261</ele>
        <time>2018-05-25T09:59:45Z</time>
      </trkpt>
      <trkpt lat="45.95407" lon="4.82043">
        <ele>261</ele>
        <time>2018-05-25T09:59:47Z</time>
      </trkpt>
      <trkpt lat="45.95403" lon="4.82039">
        <ele>261</ele>
        <time>2018-05-25T09:59:48Z</time>
      </trkpt>
      <trkpt lat="45.95398" lon="4.82031">
        <ele>261</ele>
        <time>2018-05-25T09:59:50Z</time>
      </trkpt>
      <trkpt lat="45.95394" lon="4.82027">
        <ele>261</ele>
        <time>2018-05-25T09:59:51Z</time>
      </trkpt>
      <trkpt lat="45.95386" lon="4.82024">
        <ele>261</ele>
        <time>2018-05-25T09:59:52Z</time>
      </trkpt>
      <trkpt lat="45.95382" lon="4.8202">
        <ele>262</ele>
        <time>2018-05-25T09:59:53Z</time>
      </trkpt>
      <trkpt lat="45.95375" lon="4.82015">
        <ele>262</ele>
        <time>2018-05-25T09:59:55Z</time>
      </trkpt>
      <trkpt lat="45.95371" lon="4.82012">
        <ele>262</ele>
        <time>2018-05-25T09:59:56Z</time>
      </trkpt>
      <trkpt lat="45.95364" lon="4.82004">
        <ele>262</ele>
        <time>2018-05-25T09:59:58Z</time>
      </trkpt>
      <trkpt lat="45.95361" lon="4.82">
        <ele>261</ele>
        <time>2018-05-25T09:59:59Z</time>
      </trkpt>
      <trkpt lat="45.95358" lon="4.81991">
        <ele>262</ele>
        <time>2018-05-25T10:00:01Z</time>
      </trkpt>
      <trkpt lat="45.95354" lon="4.81988">
        <ele>262</ele>
        <time>2018-05-25T10:00:02Z</time>
      </trkpt>
      <trkpt lat="45.95349" lon="4.8198">
        <ele>262</ele>
        <time>2018-05-25T10:00:04Z</time>
      </trkpt>
      <trkpt lat="45.95345" lon="4.81976">
        <ele>262</ele>
        <time>2018-05-25T10:00:05Z</time>
      </trkpt>
      <trkpt lat="45.95338" lon="4.8197">
        <ele>261</ele>
        <time>2018-05-25T10:00:07Z</time>
      </trkpt>
      <trkpt lat="45.95334" lon="4.81965">
        <ele>261</ele>
        <time>2018-05-25T10:00:08Z</time>
      </trkpt>
      <trkpt lat="45.9533" lon="4.81963">
        <ele>262</ele>
        <time>2018-05-25T10:00:09Z</time>
      </trkpt>
      <trkpt lat="45.95326" lon="4.81958">
        <ele>262</ele>
        <time>2018-05-25T10:00:10Z</time>
      </trkpt>
      <trkpt lat="45.95322" lon="4.81954">
        <ele>262</ele>
        <time>2018-05-25T10:00:11Z</time>
      </trkpt>
      <trkpt lat="45.95319" lon="4.81948">
        <ele>262</ele>
        <time>2018-05-25T10:00:12Z</time>
      </trkpt>
      <trkpt lat="45.95315" lon="4.81944">
        <ele>261</ele>
        <time>2018-05-25T10:00:13Z</time>
      </trkpt>
      <trkpt lat="45.95311" lon="4.81939">
        <ele>261</ele>
        <time>2018-05-25T10:00:14Z</time>
      </trkpt>
      <trkpt lat="45.95307" lon="4.81934">
        <ele>261</ele>
        <time>2018-05-25T10:00:15Z</time>
      </trkpt>
      <trkpt lat="45.95303" lon="4.81929">
        <ele>261</ele>
        <time>2018-05-25T10:00:16Z</time>
      </trkpt>
      <trkpt lat="45.95297" lon="4.81922">
        <ele>261</ele>
        <time>2018-05-25T10:00:18Z</time>
      </trkpt>
      <trkpt lat="45.95293" lon="4.81916">
        <ele>260</ele>
        <time>2018-05-25T10:00:19Z</time>
      </trkpt>
      <trkpt lat="45.9529" lon="4.8191">
        <ele>260</ele>
        <time>2018-05-25T10:00:20Z</time>
      </trkpt>
      <trkpt lat="45.95287" lon="4.81906">
        <ele>260</ele>
        <time>2018-05-25T10:00:21Z</time>
      </trkpt>
      <trkpt lat="45.95281" lon="4.81896">
        <ele>260</ele>
        <time>2018-05-25T10:00:23Z</time>
      </trkpt>
      <trkpt lat="45.95278" lon="4.81891">
        <ele>260</ele>
        <time>2018-05-25T10:00:24Z</time>
      </trkpt>
      <trkpt lat="45.95275" lon="4.81886">
        <ele>260</ele>
        <time>2018-05-25T10:00:25Z</time>
      </trkpt>
      <trkpt lat="45.95271" lon="4.8188">
        <ele>260</ele>
        <time>2018-05-25T10:00:26Z</time>
      </trkpt>
      <trkpt lat="45.95267" lon="4.81875">
        <ele>260</ele>
        <time>2018-05-25T10:00:27Z</time>
      </trkpt>
      <trkpt lat="45.95263" lon="4.81868">
        <ele>260</ele>
        <time>2018-05-25T10:00:28Z</time>
      </trkpt>
      <trkpt lat="45.95259" lon="4.81862">
        <ele>260</ele>
        <time>2018-05-25T10:00:29Z</time>
      </trkpt>
      <trkpt lat="45.95254" lon="4.81858">
        <ele>260</ele>
        <time>2018-05-25T10:00:30Z</time>
      </trkpt>
      <trkpt lat="45.9525" lon="4.81853">
        <ele>259</ele>
        <time>2018-05-25T10:00:31Z</time>
      </trkpt>
      <trkpt lat="45.95246" lon="4.81848">
        <ele>260</ele>
        <time>2018-05-25T10:00:32Z</time>
      </trkpt>
      <trkpt lat="45.95244" lon="4.81841">
        <ele>259</ele>
        <time>2018-05-25T10:00:33Z</time>
      </trkpt>
      <trkpt lat="45.9524" lon="4.81835">
        <ele>259</ele>
        <time>2018-05-25T10:00:34Z</time>
      </trkpt>
      <trkpt lat="45.95236" lon="4.8183">
        <ele>259</ele>
        <time>2018-05-25T10:00:35Z</time>
      </trkpt>
      <trkpt lat="45.95232" lon="4.81824">
        <ele>259</ele>
        <time>2018-05-25T10:00:36Z</time>
      </trkpt>
      <trkpt lat="45.95229" lon="4.81819">
        <ele>259</ele>
        <time>2018-05-25T10:00:37Z</time>
      </trkpt>
      <trkpt lat="45.95226" lon="4.81812">
        <ele>259</ele>
        <time>2018-05-25T10:00:38Z</time>
      </trkpt>
      <trkpt lat="45.95222" lon="4.81806">
        <ele>259</ele>
        <time>2018-05-25T10:00:39Z</time>
      </trkpt>
      <trkpt lat="45.95218" lon="4.818">
        <ele>259</ele>
        <time>2018-05-25T10:00:40Z</time>
      </trkpt>
      <trkpt lat="45.95214" lon="4.81795">
        <ele>259</ele>
        <time>2018-05-25T10:00:41Z</time>
      </trkpt>
      <trkpt lat="45.95209" lon="4.81789">
        <ele>258</ele>
        <time>2018-05-25T10:00:42Z</time>
      </trkpt>
      <trkpt lat="45.95205" lon="4.81783">
        <ele>258</ele>
        <time>2018-05-25T10:00:43Z</time>
      </trkpt>
      <trkpt lat="45.95204" lon="4.81778">
        <ele>258</ele>
        <time>2018-05-25T10:00:44Z</time>
      </trkpt>
      <trkpt lat="45.952" lon="4.81773">
        <ele>258</ele>
        <time>2018-05-25T10:00:45Z</time>
      </trkpt>
      <trkpt lat="45.95195" lon="4.81767">
        <ele>258</ele>
        <time>2018-05-25T10:00:46Z</time>
      </trkpt>
      <trkpt lat="45.9519" lon="4.8176">
        <ele>258</ele>
        <time>2018-05-25T10:00:47Z</time>
      </trkpt>
      <trkpt lat="45.95186" lon="4.81753">
        <ele>258</ele>
        <time>2018-05-25T10:00:48Z</time>
      </trkpt>
      <trkpt lat="45.95179" lon="4.81748">
        <ele>257</ele>
        <time>2018-05-25T10:00:49Z</time>
      </trkpt>
      <trkpt lat="45.95174" lon="4.81738">
        <ele>257</ele>
        <time>2018-05-25T10:00:50Z</time>
      </trkpt>
      <trkpt lat="45.9517" lon="4.81729">
        <ele>257</ele>
        <time>2018-05-25T10:00:51Z</time>
      </trkpt>
      <trkpt lat="45.95166" lon="4.81718">
        <ele>256</ele>
        <time>2018-05-25T10:00:52Z</time>
      </trkpt>
      <trkpt lat="45.95162" lon="4.81708">
        <ele>256</ele>
        <time>2018-05-25T10:00:53Z</time>
      </trkpt>
      <trkpt lat="45.95156" lon="4.81697">
        <ele>255</ele>
        <time>2018-05-25T10:00:54Z</time>
      </trkpt>
      <trkpt lat="45.95152" lon="4.81686">
        <ele>255</ele>
        <time>2018-05-25T10:00:55Z</time>
      </trkpt>
      <trkpt lat="45.95149" lon="4.81673">
        <ele>255</ele>
        <time>2018-05-25T10:00:56Z</time>
      </trkpt>
      <trkpt lat="45.95145" lon="4.81661">
        <ele>253</ele>
        <time>2018-05-25T10:00:57Z</time>
      </trkpt>
      <trkpt lat="45.9514" lon="4.81649">
        <ele>253</ele>
        <time>2018-05-25T10:00:58Z</time>
      </trkpt>
      <trkpt lat="45.95135" lon="4.81637">
        <ele>253</ele>
        <time>2018-05-25T10:00:59Z</time>
      </trkpt>
      <trkpt lat="45.95134" lon="4.81625">
        <ele>253</ele>
        <time>2018-05-25T10:01:00Z</time>
      </trkpt>
      <trkpt lat="45.95129" lon="4.81613">
        <ele>252</ele>
        <time>2018-05-25T10:01:01Z</time>
      </trkpt>
      <trkpt lat="45.95125" lon="4.81599">
        <ele>252</ele>
        <time>2018-05-25T10:01:02Z</time>
      </trkpt>
      <trkpt lat="45.95119" lon="4.81586">
        <ele>252</ele>
        <time>2018-05-25T10:01:03Z</time>
      </trkpt>
      <trkpt lat="45.95115" lon="4.81574">
        <ele>251</ele>
        <time>2018-05-25T10:01:04Z</time>
      </trkpt>
      <trkpt lat="45.95112" lon="4.81563">
        <ele>251</ele>
        <time>2018-05-25T10:01:05Z</time>
      </trkpt>
      <trkpt lat="45.95108" lon="4.81551">
        <ele>251</ele>
        <time>2018-05-25T10:01:06Z</time>
      </trkpt>
      <trkpt lat="45.95105" lon="4.81541">
        <ele>251</ele>
        <time>2018-05-25T10:01:07Z</time>
      </trkpt>
      <trkpt lat="45.95102" lon="4.81531">
        <ele>251</ele>
        <time>2018-05-25T10:01:08Z</time>
      </trkpt>
      <trkpt lat="45.95097" lon="4.81521">
        <ele>251</ele>
        <time>2018-05-25T10:01:09Z</time>
      </trkpt>
      <trkpt lat="45.95094" lon="4.81512">
        <ele>251</ele>
        <time>2018-05-25T10:01:10Z</time>
      </trkpt>
      <trkpt lat="45.95092" lon="4.81502">
        <ele>252</ele>
        <time>2018-05-25T10:01:11Z</time>
      </trkpt>
      <trkpt lat="45.95089" lon="4.81495">
        <ele>251</ele>
        <time>2018-05-25T10:01:12Z</time>
      </trkpt>
      <trkpt lat="45.95086" lon="4.81487">
        <ele>251</ele>
        <time>2018-05-25T10:01:13Z</time>
      </trkpt>
      <trkpt lat="45.95083" lon="4.8148">
        <ele>253</ele>
        <time>2018-05-25T10:01:14Z</time>
      </trkpt>
      <trkpt lat="45.9508" lon="4.81474">
        <ele>253</ele>
        <time>2018-05-25T10:01:15Z</time>
      </trkpt>
      <trkpt lat="45.95077" lon="4.81468">
        <ele>253</ele>
        <time>2018-05-25T10:01:16Z</time>
      </trkpt>
      <trkpt lat="45.95075" lon="4.81462">
        <ele>253</ele>
        <time>2018-05-25T10:01:17Z</time>
      </trkpt>
      <trkpt lat="45.95073" lon="4.81456">
        <ele>253</ele>
        <time>2018-05-25T10:01:18Z</time>
      </trkpt>
      <trkpt lat="45.95071" lon="4.81449">
        <ele>253</ele>
        <time>2018-05-25T10:01:19Z</time>
      </trkpt>
      <trkpt lat="45.95067" lon="4.81446">
        <ele>253</ele>
        <time>2018-05-25T10:01:20Z</time>
      </trkpt>
      <trkpt lat="45.95064" lon="4.8144">
        <ele>253</ele>
        <time>2018-05-25T10:01:21Z</time>
      </trkpt>
      <trkpt lat="45.95063" lon="4.81433">
        <ele>253</ele>
        <time>2018-05-25T10:01:22Z</time>
      </trkpt>
      <trkpt lat="45.95061" lon="4.81426">
        <ele>252</ele>
        <time>2018-05-25T10:01:23Z</time>
      </trkpt>
      <trkpt lat="45.9506" lon="4.81419">
        <ele>252</ele>
        <time>2018-05-25T10:01:24Z</time>
      </trkpt>
      <trkpt lat="45.95059" lon="4.81412">
        <ele>253</ele>
        <time>2018-05-25T10:01:25Z</time>
      </trkpt>
      <trkpt lat="45.95057" lon="4.81406">
        <ele>253</ele>
        <time>2018-05-25T10:01:26Z</time>
      </trkpt>
      <trkpt lat="45.95052" lon="4.81395">
        <ele>253</ele>
        <time>2018-05-25T10:01:28Z</time>
      </trkpt>
      <trkpt lat="45.95051" lon="4.81388">
        <ele>253</ele>
        <time>2018-05-25T10:01:29Z</time>
      </trkpt>
      <trkpt lat="45.95047" lon="4.81377">
        <ele>254</ele>
        <time>2018-05-25T10:01:31Z</time>
      </trkpt>
      <trkpt lat="45.95045" lon="4.81373">
        <ele>254</ele>
        <time>2018-05-25T10:01:32Z</time>
      </trkpt>
      <trkpt lat="45.95041" lon="4.81364">
        <ele>254</ele>
        <time>2018-05-25T10:01:34Z</time>
      </trkpt>
      <trkpt lat="45.9504" lon="4.81359">
        <ele>254</ele>
        <time>2018-05-25T10:01:35Z</time>
      </trkpt>
      <trkpt lat="45.95038" lon="4.81349">
        <ele>254</ele>
        <time>2018-05-25T10:01:37Z</time>
      </trkpt>
      <trkpt lat="45.95036" lon="4.81343">
        <ele>254</ele>
        <time>2018-05-25T10:01:38Z</time>
      </trkpt>
      <trkpt lat="45.95034" lon="4.81332">
        <ele>255</ele>
        <time>2018-05-25T10:01:40Z</time>
      </trkpt>
      <trkpt lat="45.95032" lon="4.81326">
        <ele>255</ele>
        <time>2018-05-25T10:01:41Z</time>
      </trkpt>
      <trkpt lat="45.95028" lon="4.81315">
        <ele>255</ele>
        <time>2018-05-25T10:01:43Z</time>
      </trkpt>
      <trkpt lat="45.95027" lon="4.81309">
        <ele>255</ele>
        <time>2018-05-25T10:01:44Z</time>
      </trkpt>
      <trkpt lat="45.95024" lon="4.81297">
        <ele>255</ele>
        <time>2018-05-25T10:01:46Z</time>
      </trkpt>
      <trkpt lat="45.95022" lon="4.81291">
        <ele>255</ele>
        <time>2018-05-25T10:01:47Z</time>
      </trkpt>
      <trkpt lat="45.95021" lon="4.81284">
        <ele>255</ele>
        <time>2018-05-25T10:01:48Z</time>
      </trkpt>
      <trkpt lat="45.9502" lon="4.81278">
        <ele>255</ele>
        <time>2018-05-25T10:01:49Z</time>
      </trkpt>
      <trkpt lat="45.95019" lon="4.81269">
        <ele>255</ele>
        <time>2018-05-25T10:01:50Z</time>
      </trkpt>
      <trkpt lat="45.95019" lon="4.81264">
        <ele>255</ele>
        <time>2018-05-25T10:01:51Z</time>
      </trkpt>
      <trkpt lat="45.95017" lon="4.81257">
        <ele>256</ele>
        <time>2018-05-25T10:01:52Z</time>
      </trkpt>
      <trkpt lat="45.95015" lon="4.8125">
        <ele>256</ele>
        <time>2018-05-25T10:01:53Z</time>
      </trkpt>
      <trkpt lat="45.95014" lon="4.81244">
        <ele>256</ele>
        <time>2018-05-25T10:01:54Z</time>
      </trkpt>
      <trkpt lat="45.95013" lon="4.81237">
        <ele>256</ele>
        <time>2018-05-25T10:01:55Z</time>
      </trkpt>
      <trkpt lat="45.95013" lon="4.8123">
        <ele>256</ele>
        <time>2018-05-25T10:01:56Z</time>
      </trkpt>
      <trkpt lat="45.95011" lon="4.81223">
        <ele>256</ele>
        <time>2018-05-25T10:01:57Z</time>
      </trkpt>
      <trkpt lat="45.95008" lon="4.81211">
        <ele>256</ele>
        <time>2018-05-25T10:01:59Z</time>
      </trkpt>
      <trkpt lat="45.95008" lon="4.81205">
        <ele>256</ele>
        <time>2018-05-25T10:02:00Z</time>
      </trkpt>
      <trkpt lat="45.95007" lon="4.81198">
        <ele>256</ele>
        <time>2018-05-25T10:02:01Z</time>
      </trkpt>
      <trkpt lat="45.95006" lon="4.81192">
        <ele>256</ele>
        <time>2018-05-25T10:02:02Z</time>
      </trkpt>
      <trkpt lat="45.95004" lon="4.8118">
        <ele>256</ele>
        <time>2018-05-25T10:02:04Z</time>
      </trkpt>
      <trkpt lat="45.95003" lon="4.81174">
        <ele>256</ele>
        <time>2018-05-25T10:02:05Z</time>
      </trkpt>
      <trkpt lat="45.95002" lon="4.81167">
        <ele>256</ele>
        <time>2018-05-25T10:02:06Z</time>
      </trkpt>
      <trkpt lat="45.94999" lon="4.81162">
        <ele>256</ele>
        <time>2018-05-25T10:02:07Z</time>
      </trkpt>
      <trkpt lat="45.94996" lon="4.81151">
        <ele>256</ele>
        <time>2018-05-25T10:02:09Z</time>
      </trkpt>
      <trkpt lat="45.94997" lon="4.81144">
        <ele>256</ele>
        <time>2018-05-25T10:02:10Z</time>
      </trkpt>
      <trkpt lat="45.94996" lon="4.81137">
        <ele>256</ele>
        <time>2018-05-25T10:02:11Z</time>
      </trkpt>
      <trkpt lat="45.94995" lon="4.81129">
        <ele>256</ele>
        <time>2018-05-25T10:02:12Z</time>
      </trkpt>
      <trkpt lat="45.94994" lon="4.81122">
        <ele>257</ele>
        <time>2018-05-25T10:02:13Z</time>
      </trkpt>
      <trkpt lat="45.94994" lon="4.81116">
        <ele>257</ele>
        <time>2018-05-25T10:02:14Z</time>
      </trkpt>
      <trkpt lat="45.94995" lon="4.81105">
        <ele>257</ele>
        <time>2018-05-25T10:02:16Z</time>
      </trkpt>
      <trkpt lat="45.94994" lon="4.81097">
        <ele>257</ele>
        <time>2018-05-25T10:02:17Z</time>
      </trkpt>
      <trkpt lat="45.94993" lon="4.81087">
        <ele>257</ele>
        <time>2018-05-25T10:02:19Z</time>
      </trkpt>
      <trkpt lat="45.94992" lon="4.81081">
        <ele>257</ele>
        <time>2018-05-25T10:02:20Z</time>
      </trkpt>
      <trkpt lat="45.94991" lon="4.81068">
        <ele>257</ele>
        <time>2018-05-25T10:02:22Z</time>
      </trkpt>
      <trkpt lat="45.94991" lon="4.81062">
        <ele>257</ele>
        <time>2018-05-25T10:02:23Z</time>
      </trkpt>
      <trkpt lat="45.94989" lon="4.81056">
        <ele>257</ele>
        <time>2018-05-25T10:02:24Z</time>
      </trkpt>
      <trkpt lat="45.94988" lon="4.81049">
        <ele>257</ele>
        <time>2018-05-25T10:02:25Z</time>
      </trkpt>
      <trkpt lat="45.94986" lon="4.81038">
        <ele>257</ele>
        <time>2018-05-25T10:02:27Z</time>
      </trkpt>
      <trkpt lat="45.94986" lon="4.81032">
        <ele>257</ele>
        <time>2018-05-25T10:02:28Z</time>
      </trkpt>
      <trkpt lat="45.94986" lon="4.81024">
        <ele>257</ele>
        <time>2018-05-25T10:02:29Z</time>
      </trkpt>
      <trkpt lat="45.94985" lon="4.81017">
        <ele>257</ele>
        <time>2018-05-25T10:02:30Z</time>
      </trkpt>
      <trkpt lat="45.94985" lon="4.81011">
        <ele>257</ele>
        <time>2018-05-25T10:02:31Z</time>
      </trkpt>
      <trkpt lat="45.94985" lon="4.81003">
        <ele>257</ele>
        <time>2018-05-25T10:02:32Z</time>
      </trkpt>
      <trkpt lat="45.94987" lon="4.8099">
        <ele>257</ele>
        <time>2018-05-25T10:02:34Z</time>
      </trkpt>
      <trkpt lat="45.94989" lon="4.80984">
        <ele>258</ele>
        <time>2018-05-25T10:02:35Z</time>
      </trkpt>
      <trkpt lat="45.94988" lon="4.80977">
        <ele>258</ele>
        <time>2018-05-25T10:02:36Z</time>
      </trkpt>
      <trkpt lat="45.94988" lon="4.8097">
        <ele>258</ele>
        <time>2018-05-25T10:02:37Z</time>
      </trkpt>
      <trkpt lat="45.94986" lon="4.80963">
        <ele>258</ele>
        <time>2018-05-25T10:02:38Z</time>
      </trkpt>
      <trkpt lat="45.94985" lon="4.80956">
        <ele>258</ele>
        <time>2018-05-25T10:02:39Z</time>
      </trkpt>
      <trkpt lat="45.94984" lon="4.8095">
        <ele>258</ele>
        <time>2018-05-25T10:02:40Z</time>
      </trkpt>
      <trkpt lat="45.94981" lon="4.80943">
        <ele>258</ele>
        <time>2018-05-25T10:02:41Z</time>
      </trkpt>
      <trkpt lat="45.9498" lon="4.80936">
        <ele>258</ele>
        <time>2018-05-25T10:02:42Z</time>
      </trkpt>
      <trkpt lat="45.94978" lon="4.80929">
        <ele>258</ele>
        <time>2018-05-25T10:02:43Z</time>
      </trkpt>
      <trkpt lat="45.94977" lon="4.80922">
        <ele>258</ele>
        <time>2018-05-25T10:02:44Z</time>
      </trkpt>
      <trkpt lat="45.94976" lon="4.80915">
        <ele>258</ele>
        <time>2018-05-25T10:02:45Z</time>
      </trkpt>
      <trkpt lat="45.94974" lon="4.80908">
        <ele>258</ele>
        <time>2018-05-25T10:02:46Z</time>
      </trkpt>
      <trkpt lat="45.94972" lon="4.80902">
        <ele>258</ele>
        <time>2018-05-25T10:02:47Z</time>
      </trkpt>
      <trkpt lat="45.94971" lon="4.8089">
        <ele>258</ele>
        <time>2018-05-25T10:02:49Z</time>
      </trkpt>
      <trkpt lat="45.94969" lon="4.80883">
        <ele>258</ele>
        <time>2018-05-25T10:02:50Z</time>
      </trkpt>
      <trkpt lat="45.94968" lon="4.80871">
        <ele>259</ele>
        <time>2018-05-25T10:02:52Z</time>
      </trkpt>
      <trkpt lat="45.94967" lon="4.80864">
        <ele>259</ele>
        <time>2018-05-25T10:02:53Z</time>
      </trkpt>
      <trkpt lat="45.94965" lon="4.80854">
        <ele>259</ele>
        <time>2018-05-25T10:02:55Z</time>
      </trkpt>
      <trkpt lat="45.94964" lon="4.80849">
        <ele>259</ele>
        <time>2018-05-25T10:02:56Z</time>
      </trkpt>
      <trkpt lat="45.94962" lon="4.80837">
        <ele>259</ele>
        <time>2018-05-25T10:03:00Z</time>
      </trkpt>
      <trkpt lat="45.94961" lon="4.80833">
        <ele>259</ele>
        <time>2018-05-25T10:03:01Z</time>
      </trkpt>
      <trkpt lat="45.94959" lon="4.80822">
        <ele>259</ele>
        <time>2018-05-25T10:03:04Z</time>
      </trkpt>
      <trkpt lat="45.94958" lon="4.80819">
        <ele>258</ele>
        <time>2018-05-25T10:03:05Z</time>
      </trkpt>
      <trkpt lat="45.94957" lon="4.80806">
        <ele>259</ele>
        <time>2018-05-25T10:03:09Z</time>
      </trkpt>
      <trkpt lat="45.94958" lon="4.80803">
        <ele>259</ele>
        <time>2018-05-25T10:03:10Z</time>
      </trkpt>
      <trkpt lat="45.94958" lon="4.808">
        <ele>259</ele>
        <time>2018-05-25T10:03:11Z</time>
      </trkpt>
      <trkpt lat="45.94957" lon="4.80789">
        <ele>259</ele>
        <time>2018-05-25T10:03:12Z</time>
      </trkpt>
      <trkpt lat="45.94955" lon="4.80777">
        <ele>259</ele>
        <time>2018-05-25T10:03:14Z</time>
      </trkpt>
      <trkpt lat="45.94954" lon="4.8077">
        <ele>259</ele>
        <time>2018-05-25T10:03:15Z</time>
      </trkpt>
      <trkpt lat="45.94955" lon="4.80763">
        <ele>259</ele>
        <time>2018-05-25T10:03:16Z</time>
      </trkpt>
      <trkpt lat="45.94955" lon="4.80757">
        <ele>259</ele>
        <time>2018-05-25T10:03:17Z</time>
      </trkpt>
      <trkpt lat="45.94956" lon="4.80749">
        <ele>259</ele>
        <time>2018-05-25T10:03:18Z</time>
      </trkpt>
      <trkpt lat="45.94956" lon="4.80741">
        <ele>259</ele>
        <time>2018-05-25T10:03:19Z</time>
      </trkpt>
      <trkpt lat="45.94956" lon="4.80732">
        <ele>259</ele>
        <time>2018-05-25T10:03:20Z</time>
      </trkpt>
      <trkpt lat="45.94956" lon="4.80724">
        <ele>259</ele>
        <time>2018-05-25T10:03:21Z</time>
      </trkpt>
      <trkpt lat="45.94956" lon="4.80714">
        <ele>259</ele>
        <time>2018-05-25T10:03:22Z</time>
      </trkpt>
      <trkpt lat="45.94955" lon="4.80707">
        <ele>259</ele>
        <time>2018-05-25T10:03:23Z</time>
      </trkpt>
      <trkpt lat="45.94955" lon="4.80699">
        <ele>259</ele>
        <time>2018-05-25T10:03:24Z</time>
      </trkpt>
      <trkpt lat="45.94954" lon="4.80692">
        <ele>259</ele>
        <time>2018-05-25T10:03:25Z</time>
      </trkpt>
      <trkpt lat="45.94953" lon="4.80685">
        <ele>259</ele>
        <time>2018-05-25T10:03:26Z</time>
      </trkpt>
      <trkpt lat="45.94953" lon="4.80678">
        <ele>259</ele>
        <time>2018-05-25T10:03:27Z</time>
      </trkpt>
      <trkpt lat="45.94952" lon="4.8067">
        <ele>259</ele>
        <time>2018-05-25T10:03:28Z</time>
      </trkpt>
      <trkpt lat="45.94952" lon="4.80662">
        <ele>259</ele>
        <time>2018-05-25T10:03:29Z</time>
      </trkpt>
      <trkpt lat="45.94951" lon="4.80654">
        <ele>259</ele>
        <time>2018-05-25T10:03:30Z</time>
      </trkpt>
      <trkpt lat="45.94951" lon="4.80649">
        <ele>259</ele>
        <time>2018-05-25T10:03:31Z</time>
      </trkpt>
      <trkpt lat="45.9495" lon="4.80639">
        <ele>258</ele>
        <time>2018-05-25T10:03:32Z</time>
      </trkpt>
      <trkpt lat="45.94951" lon="4.80629">
        <ele>258</ele>
        <time>2018-05-25T10:03:33Z</time>
      </trkpt>
      <trkpt lat="45.94951" lon="4.80621">
        <ele>258</ele>
        <time>2018-05-25T10:03:34Z</time>
      </trkpt>
      <trkpt lat="45.94948" lon="4.80612">
        <ele>258</ele>
        <time>2018-05-25T10:03:35Z</time>
      </trkpt>
      <trkpt lat="45.94949" lon="4.80603">
        <ele>258</ele>
        <time>2018-05-25T10:03:36Z</time>
      </trkpt>
      <trkpt lat="45.9495" lon="4.80594">
        <ele>258</ele>
        <time>2018-05-25T10:03:37Z</time>
      </trkpt>
      <trkpt lat="45.94949" lon="4.80587">
        <ele>258</ele>
        <time>2018-05-25T10:03:38Z</time>
      </trkpt>
      <trkpt lat="45.94949" lon="4.8058">
        <ele>257</ele>
        <time>2018-05-25T10:03:39Z</time>
      </trkpt>
      <trkpt lat="45.94948" lon="4.80572">
        <ele>257</ele>
        <time>2018-05-25T10:03:40Z</time>
      </trkpt>
      <trkpt lat="45.94949" lon="4.80566">
        <ele>257</ele>
        <time>2018-05-25T10:03:41Z</time>
      </trkpt>
      <trkpt lat="45.94949" lon="4.80558">
        <ele>257</ele>
        <time>2018-05-25T10:03:42Z</time>
      </trkpt>
      <trkpt lat="45.94949" lon="4.8055">
        <ele>258</ele>
        <time>2018-05-25T10:03:43Z</time>
      </trkpt>
      <trkpt lat="45.9495" lon="4.80544">
        <ele>258</ele>
        <time>2018-05-25T10:03:44Z</time>
      </trkpt>
      <trkpt lat="45.9495" lon="4.80536">
        <ele>258</ele>
        <time>2018-05-25T10:03:45Z</time>
      </trkpt>
      <trkpt lat="45.94949" lon="4.80528">
        <ele>258</ele>
        <time>2018-05-25T10:03:46Z</time>
      </trkpt>
      <trkpt lat="45.94949" lon="4.8052">
        <ele>258</ele>
        <time>2018-05-25T10:03:47Z</time>
      </trkpt>
      <trkpt lat="45.94949" lon="4.80512">
        <ele>258</ele>
        <time>2018-05-25T10:03:48Z</time>
      </trkpt>
      <trkpt lat="45.94949" lon="4.80504">
        <ele>258</ele>
        <time>2018-05-25T10:03:49Z</time>
      </trkpt>
      <trkpt lat="45.9495" lon="4.80495">
        <ele>258</ele>
        <time>2018-05-25T10:03:50Z</time>
      </trkpt>
      <trkpt lat="45.94949" lon="4.80486">
        <ele>258</ele>
        <time>2018-05-25T10:03:51Z</time>
      </trkpt>
      <trkpt lat="45.9495" lon="4.80477">
        <ele>258</ele>
        <time>2018-05-25T10:03:52Z</time>
      </trkpt>
      <trkpt lat="45.94949" lon="4.80468">
        <ele>258</ele>
        <time>2018-05-25T10:03:53Z</time>
      </trkpt>
      <trkpt lat="45.94949" lon="4.80458">
        <ele>258</ele>
        <time>2018-05-25T10:03:54Z</time>
      </trkpt>
      <trkpt lat="45.94948" lon="4.80449">
        <ele>258</ele>
        <time>2018-05-25T10:03:55Z</time>
      </trkpt>
      <trkpt lat="45.94949" lon="4.80442">
        <ele>259</ele>
        <time>2018-05-25T10:03:56Z</time>
      </trkpt>
      <trkpt lat="45.94951" lon="4.80434">
        <ele>259</ele>
        <time>2018-05-25T10:03:57Z</time>
      </trkpt>
      <trkpt lat="45.9495" lon="4.80424">
        <ele>259</ele>
        <time>2018-05-25T10:03:58Z</time>
      </trkpt>
      <trkpt lat="45.94949" lon="4.80415">
        <ele>258</ele>
        <time>2018-05-25T10:03:59Z</time>
      </trkpt>
      <trkpt lat="45.9495" lon="4.80407">
        <ele>258</ele>
        <time>2018-05-25T10:04:00Z</time>
      </trkpt>
      <trkpt lat="45.94949" lon="4.80397">
        <ele>258</ele>
        <time>2018-05-25T10:04:01Z</time>
      </trkpt>
      <trkpt lat="45.94949" lon="4.80387">
        <ele>258</ele>
        <time>2018-05-25T10:04:02Z</time>
      </trkpt>
      <trkpt lat="45.94949" lon="4.80377">
        <ele>258</ele>
        <time>2018-05-25T10:04:03Z</time>
      </trkpt>
      <trkpt lat="45.94948" lon="4.80368">
        <ele>258</ele>
        <time>2018-05-25T10:04:04Z</time>
      </trkpt>
      <trkpt lat="45.94949" lon="4.80359">
        <ele>258</ele>
        <time>2018-05-25T10:04:05Z</time>
      </trkpt>
      <trkpt lat="45.94949" lon="4.80351">
        <ele>258</ele>
        <time>2018-05-25T10:04:06Z</time>
      </trkpt>
      <trkpt lat="45.94948" lon="4.80341">
        <ele>258</ele>
        <time>2018-05-25T10:04:07Z</time>
      </trkpt>
      <trkpt lat="45.94948" lon="4.80332">
        <ele>257</ele>
        <time>2018-05-25T10:04:08Z</time>
      </trkpt>
      <trkpt lat="45.94946" lon="4.80324">
        <ele>257</ele>
        <time>2018-05-25T10:04:09Z</time>
      </trkpt>
      <trkpt lat="45.94945" lon="4.80316">
        <ele>257</ele>
        <time>2018-05-25T10:04:10Z</time>
      </trkpt>
      <trkpt lat="45.94944" lon="4.80307">
        <ele>257</ele>
        <time>2018-05-25T10:04:11Z</time>
      </trkpt>
      <trkpt lat="45.94943" lon="4.80299">
        <ele>257</ele>
        <time>2018-05-25T10:04:12Z</time>
      </trkpt>
      <trkpt lat="45.94943" lon="4.8029">
        <ele>257</ele>
        <time>2018-05-25T10:04:13Z</time>
      </trkpt>
      <trkpt lat="45.94943" lon="4.80282">
        <ele>257</ele>
        <time>2018-05-25T10:04:14Z</time>
      </trkpt>
      <trkpt lat="45.94943" lon="4.80274">
        <ele>257</ele>
        <time>2018-05-25T10:04:15Z</time>
      </trkpt>
      <trkpt lat="45.94941" lon="4.80266">
        <ele>257</ele>
        <time>2018-05-25T10:04:16Z</time>
      </trkpt>
      <trkpt lat="45.94941" lon="4.80258">
        <ele>257</ele>
        <time>2018-05-25T10:04:17Z</time>
      </trkpt>
      <trkpt lat="45.94941" lon="4.80251">
        <ele>257</ele>
        <time>2018-05-25T10:04:18Z</time>
      </trkpt>
      <trkpt lat="45.9494" lon="4.80243">
        <ele>256</ele>
        <time>2018-05-25T10:04:19Z</time>
      </trkpt>
      <trkpt lat="45.94939" lon="4.80233">
        <ele>256</ele>
        <time>2018-05-25T10:04:20Z</time>
      </trkpt>
      <trkpt lat="45.94938" lon="4.80223">
        <ele>256</ele>
        <time>2018-05-25T10:04:21Z</time>
      </trkpt>
      <trkpt lat="45.94937" lon="4.80214">
        <ele>256</ele>
        <time>2018-05-25T10:04:22Z</time>
      </trkpt>
      <trkpt lat="45.94936" lon="4.80205">
        <ele>256</ele>
        <time>2018-05-25T10:04:23Z</time>
      </trkpt>
      <trkpt lat="45.94937" lon="4.80198">
        <ele>256</ele>
        <time>2018-05-25T10:04:24Z</time>
      </trkpt>
      <trkpt lat="45.94935" lon="4.80188">
        <ele>256</ele>
        <time>2018-05-25T10:04:25Z</time>
      </trkpt>
      <trkpt lat="45.9493" lon="4.8018">
        <ele>256</ele>
        <time>2018-05-25T10:04:26Z</time>
      </trkpt>
      <trkpt lat="45.94929" lon="4.8017">
        <ele>255</ele>
        <time>2018-05-25T10:04:27Z</time>
      </trkpt>
      <trkpt lat="45.94928" lon="4.80162">
        <ele>255</ele>
        <time>2018-05-25T10:04:28Z</time>
      </trkpt>
      <trkpt lat="45.94926" lon="4.80153">
        <ele>255</ele>
        <time>2018-05-25T10:04:29Z</time>
      </trkpt>
      <trkpt lat="45.94924" lon="4.80145">
        <ele>256</ele>
        <time>2018-05-25T10:04:30Z</time>
      </trkpt>
      <trkpt lat="45.94923" lon="4.80135">
        <ele>256</ele>
        <time>2018-05-25T10:04:31Z</time>
      </trkpt>
      <trkpt lat="45.94919" lon="4.80126">
        <ele>256</ele>
        <time>2018-05-25T10:04:32Z</time>
      </trkpt>
      <trkpt lat="45.94918" lon="4.80117">
        <ele>256</ele>
        <time>2018-05-25T10:04:33Z</time>
      </trkpt>
      <trkpt lat="45.94916" lon="4.80109">
        <ele>256</ele>
        <time>2018-05-25T10:04:34Z</time>
      </trkpt>
      <trkpt lat="45.94915" lon="4.80099">
        <ele>256</ele>
        <time>2018-05-25T10:04:35Z</time>
      </trkpt>
      <trkpt lat="45.94914" lon="4.8009">
        <ele>257</ele>
        <time>2018-05-25T10:04:36Z</time>
      </trkpt>
      <trkpt lat="45.94912" lon="4.80082">
        <ele>257</ele>
        <time>2018-05-25T10:04:37Z</time>
      </trkpt>
      <trkpt lat="45.9491" lon="4.80072">
        <ele>257</ele>
        <time>2018-05-25T10:04:38Z</time>
      </trkpt>
      <trkpt lat="45.94909" lon="4.80064">
        <ele>256</ele>
        <time>2018-05-25T10:04:39Z</time>
      </trkpt>
      <trkpt lat="45.94906" lon="4.80056">
        <ele>256</ele>
        <time>2018-05-25T10:04:40Z</time>
      </trkpt>
      <trkpt lat="45.94903" lon="4.80047">
        <ele>256</ele>
        <time>2018-05-25T10:04:41Z</time>
      </trkpt>
      <trkpt lat="45.949" lon="4.8004">
        <ele>256</ele>
        <time>2018-05-25T10:04:42Z</time>
      </trkpt>
      <trkpt lat="45.94899" lon="4.80031">
        <ele>256</ele>
        <time>2018-05-25T10:04:43Z</time>
      </trkpt>
      <trkpt lat="45.94897" lon="4.80023">
        <ele>256</ele>
        <time>2018-05-25T10:04:44Z</time>
      </trkpt>
      <trkpt lat="45.94894" lon="4.80014">
        <ele>256</ele>
        <time>2018-05-25T10:04:45Z</time>
      </trkpt>
      <trkpt lat="45.94891" lon="4.80006">
        <ele>256</ele>
        <time>2018-05-25T10:04:46Z</time>
      </trkpt>
      <trkpt lat="45.9489" lon="4.79997">
        <ele>256</ele>
        <time>2018-05-25T10:04:47Z</time>
      </trkpt>
      <trkpt lat="45.94885" lon="4.79994">
        <ele>256</ele>
        <time>2018-05-25T10:04:48Z</time>
      </trkpt>
      <trkpt lat="45.94883" lon="4.79986">
        <ele>256</ele>
        <time>2018-05-25T10:04:49Z</time>
      </trkpt>
      <trkpt lat="45.94879" lon="4.79978">
        <ele>256</ele>
        <time>2018-05-25T10:04:50Z</time>
      </trkpt>
      <trkpt lat="45.94876" lon="4.79972">
        <ele>256</ele>
        <time>2018-05-25T10:04:51Z</time>
      </trkpt>
      <trkpt lat="45.94874" lon="4.79964">
        <ele>256</ele>
        <time>2018-05-25T10:04:52Z</time>
      </trkpt>
      <trkpt lat="45.94871" lon="4.79957">
        <ele>256</ele>
        <time>2018-05-25T10:04:53Z</time>
      </trkpt>
      <trkpt lat="45.94868" lon="4.79951">
        <ele>256</ele>
        <time>2018-05-25T10:04:54Z</time>
      </trkpt>
      <trkpt lat="45.94866" lon="4.79945">
        <ele>256</ele>
        <time>2018-05-25T10:04:55Z</time>
      </trkpt>
      <trkpt lat="45.94863" lon="4.79937">
        <ele>256</ele>
        <time>2018-05-25T10:04:56Z</time>
      </trkpt>
      <trkpt lat="45.9486" lon="4.7993">
        <ele>256</ele>
        <time>2018-05-25T10:04:57Z</time>
      </trkpt>
      <trkpt lat="45.94858" lon="4.79923">
        <ele>256</ele>
        <time>2018-05-25T10:04:58Z</time>
      </trkpt>
      <trkpt lat="45.94854" lon="4.79918">
        <ele>256</ele>
        <time>2018-05-25T10:04:59Z</time>
      </trkpt>
      <trkpt lat="45.94849" lon="4.79909">
        <ele>256</ele>
        <time>2018-05-25T10:05:03Z</time>
      </trkpt>
      <trkpt lat="45.94847" lon="4.79906">
        <ele>256</ele>
        <time>2018-05-25T10:05:04Z</time>
      </trkpt>
      <trkpt lat="45.94842" lon="4.79897">
        <ele>255</ele>
        <time>2018-05-25T10:05:07Z</time>
      </trkpt>
      <trkpt lat="45.9484" lon="4.79894">
        <ele>255</ele>
        <time>2018-05-25T10:05:08Z</time>
      </trkpt>
      <trkpt lat="45.94838" lon="4.79884">
        <ele>255</ele>
        <time>2018-05-25T10:05:11Z</time>
      </trkpt>
      <trkpt lat="45.94835" lon="4.79872">
        <ele>255</ele>
        <time>2018-05-25T10:05:12Z</time>
      </trkpt>
      <trkpt lat="45.9483" lon="4.79861">
        <ele>255</ele>
        <time>2018-05-25T10:05:14Z</time>
      </trkpt>
      <trkpt lat="45.94829" lon="4.79855">
        <ele>254</ele>
        <time>2018-05-25T10:05:15Z</time>
      </trkpt>
      <trkpt lat="45.94828" lon="4.79847">
        <ele>254</ele>
        <time>2018-05-25T10:05:16Z</time>
      </trkpt>
      <trkpt lat="45.94826" lon="4.7984">
        <ele>254</ele>
        <time>2018-05-25T10:05:17Z</time>
      </trkpt>
      <trkpt lat="45.94825" lon="4.79834">
        <ele>254</ele>
        <time>2018-05-25T10:05:18Z</time>
      </trkpt>
      <trkpt lat="45.94822" lon="4.79825">
        <ele>254</ele>
        <time>2018-05-25T10:05:19Z</time>
      </trkpt>
      <trkpt lat="45.94821" lon="4.79817">
        <ele>254</ele>
        <time>2018-05-25T10:05:20Z</time>
      </trkpt>
      <trkpt lat="45.94819" lon="4.79808">
        <ele>254</ele>
        <time>2018-05-25T10:05:21Z</time>
      </trkpt>
      <trkpt lat="45.94817" lon="4.798">
        <ele>254</ele>
        <time>2018-05-25T10:05:22Z</time>
      </trkpt>
      <trkpt lat="45.94815" lon="4.79791">
        <ele>254</ele>
        <time>2018-05-25T10:05:23Z</time>
      </trkpt>
      <trkpt lat="45.94813" lon="4.79784">
        <ele>254</ele>
        <time>2018-05-25T10:05:24Z</time>
      </trkpt>
      <trkpt lat="45.94812" lon="4.79777">
        <ele>254</ele>
        <time>2018-05-25T10:05:25Z</time>
      </trkpt>
      <trkpt lat="45.9481" lon="4.79771">
        <ele>254</ele>
        <time>2018-05-25T10:05:26Z</time>
      </trkpt>
      <trkpt lat="45.9481" lon="4.79764">
        <ele>254</ele>
        <time>2018-05-25T10:05:27Z</time>
      </trkpt>
      <trkpt lat="45.94806" lon="4.79752">
        <ele>254</ele>
        <time>2018-05-25T10:05:29Z</time>
      </trkpt>
      <trkpt lat="45.94805" lon="4.79745">
        <ele>254</ele>
        <time>2018-05-25T10:05:30Z</time>
      </trkpt>
      <trkpt lat="45.94803" lon="4.79738">
        <ele>254</ele>
        <time>2018-05-25T10:05:31Z</time>
      </trkpt>
      <trkpt lat="45.94801" lon="4.79731">
        <ele>254</ele>
        <time>2018-05-25T10:05:32Z</time>
      </trkpt>
      <trkpt lat="45.94799" lon="4.79724">
        <ele>254</ele>
        <time>2018-05-25T10:05:33Z</time>
      </trkpt>
      <trkpt lat="45.94796" lon="4.79718">
        <ele>254</ele>
        <time>2018-05-25T10:05:34Z</time>
      </trkpt>
      <trkpt lat="45.94794" lon="4.79711">
        <ele>254</ele>
        <time>2018-05-25T10:05:35Z</time>
      </trkpt>
      <trkpt lat="45.94788" lon="4.79703">
        <ele>254</ele>
        <time>2018-05-25T10:05:36Z</time>
      </trkpt>
      <trkpt lat="45.94786" lon="4.79697">
        <ele>254</ele>
        <time>2018-05-25T10:05:37Z</time>
      </trkpt>
      <trkpt lat="45.94785" lon="4.7969">
        <ele>254</ele>
        <time>2018-05-25T10:05:38Z</time>
      </trkpt>
      <trkpt lat="45.94782" lon="4.79682">
        <ele>254</ele>
        <time>2018-05-25T10:05:39Z</time>
      </trkpt>
      <trkpt lat="45.9478" lon="4.79674">
        <ele>254</ele>
        <time>2018-05-25T10:05:40Z</time>
      </trkpt>
      <trkpt lat="45.9478" lon="4.79667">
        <ele>254</ele>
        <time>2018-05-25T10:05:41Z</time>
      </trkpt>
      <trkpt lat="45.94778" lon="4.7966">
        <ele>254</ele>
        <time>2018-05-25T10:05:42Z</time>
      </trkpt>
      <trkpt lat="45.94776" lon="4.79653">
        <ele>254</ele>
        <time>2018-05-25T10:05:43Z</time>
      </trkpt>
      <trkpt lat="45.94775" lon="4.79646">
        <ele>254</ele>
        <time>2018-05-25T10:05:44Z</time>
      </trkpt>
      <trkpt lat="45.94774" lon="4.79638">
        <ele>254</ele>
        <time>2018-05-25T10:05:45Z</time>
      </trkpt>
      <trkpt lat="45.94771" lon="4.79632">
        <ele>253</ele>
        <time>2018-05-25T10:05:46Z</time>
      </trkpt>
      <trkpt lat="45.9477" lon="4.79625">
        <ele>253</ele>
        <time>2018-05-25T10:05:47Z</time>
      </trkpt>
      <trkpt lat="45.94769" lon="4.79617">
        <ele>253</ele>
        <time>2018-05-25T10:05:48Z</time>
      </trkpt>
      <trkpt lat="45.94768" lon="4.79605">
        <ele>253</ele>
        <time>2018-05-25T10:05:51Z</time>
      </trkpt>
      <trkpt lat="45.94767" lon="4.79602">
        <ele>253</ele>
        <time>2018-05-25T10:05:52Z</time>
      </trkpt>
      <trkpt lat="45.9477" lon="4.7959">
        <ele>253</ele>
        <time>2018-05-25T10:06:01Z</time>
      </trkpt>
      <trkpt lat="45.94771" lon="4.79588">
        <ele>253</ele>
        <time>2018-05-25T10:06:02Z</time>
      </trkpt>
      <trkpt lat="45.94771" lon="4.79583">
        <ele>252</ele>
        <time>2018-05-25T10:06:04Z</time>
      </trkpt>
      <trkpt lat="45.94769" lon="4.79572">
        <ele>252</ele>
        <time>2018-05-25T10:06:05Z</time>
      </trkpt>
      <trkpt lat="45.94768" lon="4.79566">
        <ele>252</ele>
        <time>2018-05-25T10:06:06Z</time>
      </trkpt>
      <trkpt lat="45.94764" lon="4.79559">
        <ele>252</ele>
        <time>2018-05-25T10:06:07Z</time>
      </trkpt>
      <trkpt lat="45.94763" lon="4.79553">
        <ele>252</ele>
        <time>2018-05-25T10:06:08Z</time>
      </trkpt>
      <trkpt lat="45.94761" lon="4.79545">
        <ele>252</ele>
        <time>2018-05-25T10:06:09Z</time>
      </trkpt>
      <trkpt lat="45.94757" lon="4.79539">
        <ele>252</ele>
        <time>2018-05-25T10:06:10Z</time>
      </trkpt>
      <trkpt lat="45.94755" lon="4.79532">
        <ele>252</ele>
        <time>2018-05-25T10:06:11Z</time>
      </trkpt>
      <trkpt lat="45.94753" lon="4.79525">
        <ele>252</ele>
        <time>2018-05-25T10:06:12Z</time>
      </trkpt>
      <trkpt lat="45.9475" lon="4.79519">
        <ele>252</ele>
        <time>2018-05-25T10:06:13Z</time>
      </trkpt>
      <trkpt lat="45.94746" lon="4.79511">
        <ele>252</ele>
        <time>2018-05-25T10:06:14Z</time>
      </trkpt>
      <trkpt lat="45.94745" lon="4.79505">
        <ele>252</ele>
        <time>2018-05-25T10:06:15Z</time>
      </trkpt>
      <trkpt lat="45.94743" lon="4.79498">
        <ele>252</ele>
        <time>2018-05-25T10:06:16Z</time>
      </trkpt>
      <trkpt lat="45.94739" lon="4.79489">
        <ele>252</ele>
        <time>2018-05-25T10:06:17Z</time>
      </trkpt>
      <trkpt lat="45.94737" lon="4.79483">
        <ele>253</ele>
        <time>2018-05-25T10:06:18Z</time>
      </trkpt>
      <trkpt lat="45.94734" lon="4.79477">
        <ele>253</ele>
        <time>2018-05-25T10:06:19Z</time>
      </trkpt>
      <trkpt lat="45.94731" lon="4.79471">
        <ele>253</ele>
        <time>2018-05-25T10:06:20Z</time>
      </trkpt>
      <trkpt lat="45.94728" lon="4.79464">
        <ele>253</ele>
        <time>2018-05-25T10:06:21Z</time>
      </trkpt>
      <trkpt lat="45.94725" lon="4.79458">
        <ele>253</ele>
        <time>2018-05-25T10:06:22Z</time>
      </trkpt>
      <trkpt lat="45.94722" lon="4.79452">
        <ele>253</ele>
        <time>2018-05-25T10:06:23Z</time>
      </trkpt>
      <trkpt lat="45.94719" lon="4.79446">
        <ele>253</ele>
        <time>2018-05-25T10:06:24Z</time>
      </trkpt>
      <trkpt lat="45.94717" lon="4.7944">
        <ele>253</ele>
        <time>2018-05-25T10:06:25Z</time>
      </trkpt>
      <trkpt lat="45.94714" lon="4.79433">
        <ele>253</ele>
        <time>2018-05-25T10:06:26Z</time>
      </trkpt>
      <trkpt lat="45.94711" lon="4.79427">
        <ele>253</ele>
        <time>2018-05-25T10:06:27Z</time>
      </trkpt>
      <trkpt lat="45.94708" lon="4.7942">
        <ele>253</ele>
        <time>2018-05-25T10:06:28Z</time>
      </trkpt>
      <trkpt lat="45.94705" lon="4.79414">
        <ele>253</ele>
        <time>2018-05-25T10:06:29Z</time>
      </trkpt>
      <trkpt lat="45.94701" lon="4.79407">
        <ele>253</ele>
        <time>2018-05-25T10:06:30Z</time>
      </trkpt>
      <trkpt lat="45.94698" lon="4.794">
        <ele>253</ele>
        <time>2018-05-25T10:06:31Z</time>
      </trkpt>
      <trkpt lat="45.94694" lon="4.79389">
        <ele>253</ele>
        <time>2018-05-25T10:06:33Z</time>
      </trkpt>
      <trkpt lat="45.94692" lon="4.79384">
        <ele>253</ele>
        <time>2018-05-25T10:06:34Z</time>
      </trkpt>
      <trkpt lat="45.94688" lon="4.79379">
        <ele>253</ele>
        <time>2018-05-25T10:06:35Z</time>
      </trkpt>
      <trkpt lat="45.94685" lon="4.79373">
        <ele>253</ele>
        <time>2018-05-25T10:06:36Z</time>
      </trkpt>
      <trkpt lat="45.94683" lon="4.79367">
        <ele>253</ele>
        <time>2018-05-25T10:06:37Z</time>
      </trkpt>
      <trkpt lat="45.9468" lon="4.79361">
        <ele>253</ele>
        <time>2018-05-25T10:06:38Z</time>
      </trkpt>
      <trkpt lat="45.94675" lon="4.79351">
        <ele>253</ele>
        <time>2018-05-25T10:06:40Z</time>
      </trkpt>
      <trkpt lat="45.94673" lon="4.79346">
        <ele>253</ele>
        <time>2018-05-25T10:06:41Z</time>
      </trkpt>
      <trkpt lat="45.94669" lon="4.79341">
        <ele>254</ele>
        <time>2018-05-25T10:06:42Z</time>
      </trkpt>
      <trkpt lat="45.94665" lon="4.79334">
        <ele>254</ele>
        <time>2018-05-25T10:06:43Z</time>
      </trkpt>
      <trkpt lat="45.94658" lon="4.79329">
        <ele>254</ele>
        <time>2018-05-25T10:06:44Z</time>
      </trkpt>
      <trkpt lat="45.94655" lon="4.79322">
        <ele>254</ele>
        <time>2018-05-25T10:06:45Z</time>
      </trkpt>
      <trkpt lat="45.94653" lon="4.79315">
        <ele>254</ele>
        <time>2018-05-25T10:06:46Z</time>
      </trkpt>
      <trkpt lat="45.9465" lon="4.79308">
        <ele>254</ele>
        <time>2018-05-25T10:06:47Z</time>
      </trkpt>
      <trkpt lat="45.94647" lon="4.79302">
        <ele>254</ele>
        <time>2018-05-25T10:06:48Z</time>
      </trkpt>
      <trkpt lat="45.94643" lon="4.79296">
        <ele>254</ele>
        <time>2018-05-25T10:06:49Z</time>
      </trkpt>
      <trkpt lat="45.94637" lon="4.7929">
        <ele>254</ele>
        <time>2018-05-25T10:06:50Z</time>
      </trkpt>
      <trkpt lat="45.94635" lon="4.79283">
        <ele>254</ele>
        <time>2018-05-25T10:06:51Z</time>
      </trkpt>
      <trkpt lat="45.94633" lon="4.79276">
        <ele>254</ele>
        <time>2018-05-25T10:06:52Z</time>
      </trkpt>
      <trkpt lat="45.9463" lon="4.79269">
        <ele>254</ele>
        <time>2018-05-25T10:06:53Z</time>
      </trkpt>
      <trkpt lat="45.94627" lon="4.79263">
        <ele>254</ele>
        <time>2018-05-25T10:06:54Z</time>
      </trkpt>
      <trkpt lat="45.94624" lon="4.79257">
        <ele>255</ele>
        <time>2018-05-25T10:06:55Z</time>
      </trkpt>
      <trkpt lat="45.94621" lon="4.79251">
        <ele>255</ele>
        <time>2018-05-25T10:06:56Z</time>
      </trkpt>
      <trkpt lat="45.94618" lon="4.79244">
        <ele>256</ele>
        <time>2018-05-25T10:06:57Z</time>
      </trkpt>
      <trkpt lat="45.94616" lon="4.79236">
        <ele>256</ele>
        <time>2018-05-25T10:06:58Z</time>
      </trkpt>
      <trkpt lat="45.94612" lon="4.79229">
        <ele>256</ele>
        <time>2018-05-25T10:06:59Z</time>
      </trkpt>
      <trkpt lat="45.94608" lon="4.79222">
        <ele>256</ele>
        <time>2018-05-25T10:07:00Z</time>
      </trkpt>
      <trkpt lat="45.94603" lon="4.79215">
        <ele>257</ele>
        <time>2018-05-25T10:07:01Z</time>
      </trkpt>
      <trkpt lat="45.946" lon="4.79207">
        <ele>257</ele>
        <time>2018-05-25T10:07:02Z</time>
      </trkpt>
      <trkpt lat="45.94597" lon="4.79202">
        <ele>257</ele>
        <time>2018-05-25T10:07:03Z</time>
      </trkpt>
      <trkpt lat="45.94594" lon="4.79194">
        <ele>257</ele>
        <time>2018-05-25T10:07:04Z</time>
      </trkpt>
      <trkpt lat="45.94591" lon="4.79186">
        <ele>258</ele>
        <time>2018-05-25T10:07:05Z</time>
      </trkpt>
      <trkpt lat="45.94587" lon="4.7918">
        <ele>258</ele>
        <time>2018-05-25T10:07:06Z</time>
      </trkpt>
      <trkpt lat="45.94583" lon="4.79173">
        <ele>258</ele>
        <time>2018-05-25T10:07:07Z</time>
      </trkpt>
      <trkpt lat="45.94579" lon="4.79166">
        <ele>259</ele>
        <time>2018-05-25T10:07:08Z</time>
      </trkpt>
      <trkpt lat="45.94575" lon="4.7916">
        <ele>258</ele>
        <time>2018-05-25T10:07:09Z</time>
      </trkpt>
      <trkpt lat="45.94572" lon="4.79152">
        <ele>258</ele>
        <time>2018-05-25T10:07:10Z</time>
      </trkpt>
      <trkpt lat="45.94567" lon="4.79144">
        <ele>257</ele>
        <time>2018-05-25T10:07:11Z</time>
      </trkpt>
      <trkpt lat="45.94563" lon="4.79139">
        <ele>257</ele>
        <time>2018-05-25T10:07:12Z</time>
      </trkpt>
      <trkpt lat="45.9456" lon="4.79131">
        <ele>257</ele>
        <time>2018-05-25T10:07:13Z</time>
      </trkpt>
      <trkpt lat="45.9456" lon="4.79123">
        <ele>257</ele>
        <time>2018-05-25T10:07:14Z</time>
      </trkpt>
      <trkpt lat="45.94558" lon="4.79115">
        <ele>257</ele>
        <time>2018-05-25T10:07:15Z</time>
      </trkpt>
      <trkpt lat="45.94555" lon="4.79107">
        <ele>257</ele>
        <time>2018-05-25T10:07:16Z</time>
      </trkpt>
      <trkpt lat="45.94551" lon="4.791">
        <ele>256</ele>
        <time>2018-05-25T10:07:17Z</time>
      </trkpt>
      <trkpt lat="45.94549" lon="4.79091">
        <ele>256</ele>
        <time>2018-05-25T10:07:18Z</time>
      </trkpt>
      <trkpt lat="45.94545" lon="4.79085">
        <ele>256</ele>
        <time>2018-05-25T10:07:19Z</time>
      </trkpt>
      <trkpt lat="45.94542" lon="4.7908">
        <ele>256</ele>
        <time>2018-05-25T10:07:20Z</time>
      </trkpt>
      <trkpt lat="45.94539" lon="4.79074">
        <ele>256</ele>
        <time>2018-05-25T10:07:21Z</time>
      </trkpt>
      <trkpt lat="45.94535" lon="4.79068">
        <ele>255</ele>
        <time>2018-05-25T10:07:22Z</time>
      </trkpt>
      <trkpt lat="45.94533" lon="4.79061">
        <ele>255</ele>
        <time>2018-05-25T10:07:23Z</time>
      </trkpt>
      <trkpt lat="45.9453" lon="4.79056">
        <ele>255</ele>
        <time>2018-05-25T10:07:24Z</time>
      </trkpt>
      <trkpt lat="45.94527" lon="4.79047">
        <ele>255</ele>
        <time>2018-05-25T10:07:25Z</time>
      </trkpt>
      <trkpt lat="45.94523" lon="4.79041">
        <ele>255</ele>
        <time>2018-05-25T10:07:26Z</time>
      </trkpt>
      <trkpt lat="45.94519" lon="4.79033">
        <ele>255</ele>
        <time>2018-05-25T10:07:27Z</time>
      </trkpt>
      <trkpt lat="45.94516" lon="4.79026">
        <ele>255</ele>
        <time>2018-05-25T10:07:28Z</time>
      </trkpt>
      <trkpt lat="45.94512" lon="4.79018">
        <ele>255</ele>
        <time>2018-05-25T10:07:29Z</time>
      </trkpt>
      <trkpt lat="45.94507" lon="4.7901">
        <ele>255</ele>
        <time>2018-05-25T10:07:30Z</time>
      </trkpt>
      <trkpt lat="45.94503" lon="4.79002">
        <ele>254</ele>
        <time>2018-05-25T10:07:31Z</time>
      </trkpt>
      <trkpt lat="45.94499" lon="4.78993">
        <ele>254</ele>
        <time>2018-05-25T10:07:32Z</time>
      </trkpt>
      <trkpt lat="45.94495" lon="4.78984">
        <ele>254</ele>
        <time>2018-05-25T10:07:33Z</time>
      </trkpt>
      <trkpt lat="45.9449" lon="4.78975">
        <ele>254</ele>
        <time>2018-05-25T10:07:34Z</time>
      </trkpt>
      <trkpt lat="45.94485" lon="4.78966">
        <ele>254</ele>
        <time>2018-05-25T10:07:35Z</time>
      </trkpt>
      <trkpt lat="45.94478" lon="4.78958">
        <ele>254</ele>
        <time>2018-05-25T10:07:36Z</time>
      </trkpt>
      <trkpt lat="45.94475" lon="4.78948">
        <ele>254</ele>
        <time>2018-05-25T10:07:37Z</time>
      </trkpt>
      <trkpt lat="45.9447" lon="4.78939">
        <ele>254</ele>
        <time>2018-05-25T10:07:38Z</time>
      </trkpt>
      <trkpt lat="45.94468" lon="4.78928">
        <ele>254</ele>
        <time>2018-05-25T10:07:39Z</time>
      </trkpt>
      <trkpt lat="45.94466" lon="4.78916">
        <ele>253</ele>
        <time>2018-05-25T10:07:40Z</time>
      </trkpt>
      <trkpt lat="45.94464" lon="4.78903">
        <ele>253</ele>
        <time>2018-05-25T10:07:41Z</time>
      </trkpt>
      <trkpt lat="45.94462" lon="4.7889">
        <ele>253</ele>
        <time>2018-05-25T10:07:42Z</time>
      </trkpt>
      <trkpt lat="45.94463" lon="4.78876">
        <ele>253</ele>
        <time>2018-05-25T10:07:43Z</time>
      </trkpt>
      <trkpt lat="45.94464" lon="4.78862">
        <ele>253</ele>
        <time>2018-05-25T10:07:44Z</time>
      </trkpt>
      <trkpt lat="45.94467" lon="4.78846">
        <ele>253</ele>
        <time>2018-05-25T10:07:45Z</time>
      </trkpt>
      <trkpt lat="45.94469" lon="4.78832">
        <ele>251</ele>
        <time>2018-05-25T10:07:46Z</time>
      </trkpt>
      <trkpt lat="45.94473" lon="4.78817">
        <ele>251</ele>
        <time>2018-05-25T10:07:47Z</time>
      </trkpt>
      <trkpt lat="45.94476" lon="4.788">
        <ele>251</ele>
        <time>2018-05-25T10:07:48Z</time>
      </trkpt>
      <trkpt lat="45.9448" lon="4.78785">
        <ele>250</ele>
        <time>2018-05-25T10:07:49Z</time>
      </trkpt>
      <trkpt lat="45.94483" lon="4.78769">
        <ele>249</ele>
        <time>2018-05-25T10:07:50Z</time>
      </trkpt>
      <trkpt lat="45.94486" lon="4.78753">
        <ele>249</ele>
        <time>2018-05-25T10:07:51Z</time>
      </trkpt>
      <trkpt lat="45.94485" lon="4.78735">
        <ele>246</ele>
        <time>2018-05-25T10:07:52Z</time>
      </trkpt>
      <trkpt lat="45.94484" lon="4.78717">
        <ele>245</ele>
        <time>2018-05-25T10:07:53Z</time>
      </trkpt>
      <trkpt lat="45.9448" lon="4.787">
        <ele>245</ele>
        <time>2018-05-25T10:07:54Z</time>
      </trkpt>
      <trkpt lat="45.94478" lon="4.78683">
        <ele>244</ele>
        <time>2018-05-25T10:07:55Z</time>
      </trkpt>
      <trkpt lat="45.94477" lon="4.78668">
        <ele>243</ele>
        <time>2018-05-25T10:07:56Z</time>
      </trkpt>
      <trkpt lat="45.94475" lon="4.78649">
        <ele>241</ele>
        <time>2018-05-25T10:07:57Z</time>
      </trkpt>
      <trkpt lat="45.94472" lon="4.78631">
        <ele>241</ele>
        <time>2018-05-25T10:07:58Z</time>
      </trkpt>
      <trkpt lat="45.94469" lon="4.78614">
        <ele>241</ele>
        <time>2018-05-25T10:07:59Z</time>
      </trkpt>
      <trkpt lat="45.94465" lon="4.78597">
        <ele>241</ele>
        <time>2018-05-25T10:08:00Z</time>
      </trkpt>
      <trkpt lat="45.94455" lon="4.78584">
        <ele>240</ele>
        <time>2018-05-25T10:08:01Z</time>
      </trkpt>
      <trkpt lat="45.9445" lon="4.7857">
        <ele>239</ele>
        <time>2018-05-25T10:08:02Z</time>
      </trkpt>
      <trkpt lat="45.94443" lon="4.78556">
        <ele>239</ele>
        <time>2018-05-25T10:08:03Z</time>
      </trkpt>
      <trkpt lat="45.94435" lon="4.78543">
        <ele>239</ele>
        <time>2018-05-25T10:08:04Z</time>
      </trkpt>
      <trkpt lat="45.94431" lon="4.78533">
        <ele>238</ele>
        <time>2018-05-25T10:08:05Z</time>
      </trkpt>
      <trkpt lat="45.94422" lon="4.7852">
        <ele>237</ele>
        <time>2018-05-25T10:08:06Z</time>
      </trkpt>
      <trkpt lat="45.94412" lon="4.7851">
        <ele>235</ele>
        <time>2018-05-25T10:08:07Z</time>
      </trkpt>
      <trkpt lat="45.94402" lon="4.78501">
        <ele>236</ele>
        <time>2018-05-25T10:08:08Z</time>
      </trkpt>
      <trkpt lat="45.94392" lon="4.78492">
        <ele>235</ele>
        <time>2018-05-25T10:08:09Z</time>
      </trkpt>
      <trkpt lat="45.94384" lon="4.78482">
        <ele>236</ele>
        <time>2018-05-25T10:08:10Z</time>
      </trkpt>
      <trkpt lat="45.94375" lon="4.7847">
        <ele>236</ele>
        <time>2018-05-25T10:08:11Z</time>
      </trkpt>
      <trkpt lat="45.94367" lon="4.7846">
        <ele>236</ele>
        <time>2018-05-25T10:08:12Z</time>
      </trkpt>
      <trkpt lat="45.9436" lon="4.78448">
        <ele>235</ele>
        <time>2018-05-25T10:08:13Z</time>
      </trkpt>
      <trkpt lat="45.94352" lon="4.78436">
        <ele>234</ele>
        <time>2018-05-25T10:08:14Z</time>
      </trkpt>
      <trkpt lat="45.94344" lon="4.78425">
        <ele>232</ele>
        <time>2018-05-25T10:08:15Z</time>
      </trkpt>
      <trkpt lat="45.94338" lon="4.78412">
        <ele>231</ele>
        <time>2018-05-25T10:08:16Z</time>
      </trkpt>
      <trkpt lat="45.94331" lon="4.78399">
        <ele>230</ele>
        <time>2018-05-25T10:08:17Z</time>
      </trkpt>
      <trkpt lat="45.94326" lon="4.78385">
        <ele>230</ele>
        <time>2018-05-25T10:08:18Z</time>
      </trkpt>
      <trkpt lat="45.94318" lon="4.78374">
        <ele>229</ele>
        <time>2018-05-25T10:08:19Z</time>
      </trkpt>
      <trkpt lat="45.94312" lon="4.78361">
        <ele>229</ele>
        <time>2018-05-25T10:08:20Z</time>
      </trkpt>
      <trkpt lat="45.94303" lon="4.78349">
        <ele>229</ele>
        <time>2018-05-25T10:08:21Z</time>
      </trkpt>
      <trkpt lat="45.94296" lon="4.78338">
        <ele>228</ele>
        <time>2018-05-25T10:08:22Z</time>
      </trkpt>
      <trkpt lat="45.9429" lon="4.78328">
        <ele>229</ele>
        <time>2018-05-25T10:08:23Z</time>
      </trkpt>
      <trkpt lat="45.94279" lon="4.78322">
        <ele>228</ele>
        <time>2018-05-25T10:08:24Z</time>
      </trkpt>
      <trkpt lat="45.94268" lon="4.78314">
        <ele>227</ele>
        <time>2018-05-25T10:08:25Z</time>
      </trkpt>
      <trkpt lat="45.94259" lon="4.78307">
        <ele>227</ele>
        <time>2018-05-25T10:08:26Z</time>
      </trkpt>
      <trkpt lat="45.94249" lon="4.78301">
        <ele>222</ele>
        <time>2018-05-25T10:08:27Z</time>
      </trkpt>
      <trkpt lat="45.94238" lon="4.78298">
        <ele>222</ele>
        <time>2018-05-25T10:08:28Z</time>
      </trkpt>
      <trkpt lat="45.94228" lon="4.78296">
        <ele>222</ele>
        <time>2018-05-25T10:08:29Z</time>
      </trkpt>
      <trkpt lat="45.94218" lon="4.78295">
        <ele>222</ele>
        <time>2018-05-25T10:08:30Z</time>
      </trkpt>
      <trkpt lat="45.94208" lon="4.78294">
        <ele>221</ele>
        <time>2018-05-25T10:08:31Z</time>
      </trkpt>
      <trkpt lat="45.94198" lon="4.7829">
        <ele>221</ele>
        <time>2018-05-25T10:08:32Z</time>
      </trkpt>
      <trkpt lat="45.94188" lon="4.78288">
        <ele>221</ele>
        <time>2018-05-25T10:08:33Z</time>
      </trkpt>
      <trkpt lat="45.94177" lon="4.78288">
        <ele>221</ele>
        <time>2018-05-25T10:08:34Z</time>
      </trkpt>
      <trkpt lat="45.9417" lon="4.7828">
        <ele>220</ele>
        <time>2018-05-25T10:08:35Z</time>
      </trkpt>
      <trkpt lat="45.94163" lon="4.78273">
        <ele>216</ele>
        <time>2018-05-25T10:08:36Z</time>
      </trkpt>
      <trkpt lat="45.94154" lon="4.78267">
        <ele>216</ele>
        <time>2018-05-25T10:08:37Z</time>
      </trkpt>
      <trkpt lat="45.94146" lon="4.7826">
        <ele>216</ele>
        <time>2018-05-25T10:08:38Z</time>
      </trkpt>
      <trkpt lat="45.94139" lon="4.78254">
        <ele>215</ele>
        <time>2018-05-25T10:08:39Z</time>
      </trkpt>
      <trkpt lat="45.9413" lon="4.78249">
        <ele>215</ele>
        <time>2018-05-25T10:08:40Z</time>
      </trkpt>
      <trkpt lat="45.94121" lon="4.78243">
        <ele>214</ele>
        <time>2018-05-25T10:08:41Z</time>
      </trkpt>
      <trkpt lat="45.94113" lon="4.78237">
        <ele>214</ele>
        <time>2018-05-25T10:08:42Z</time>
      </trkpt>
      <trkpt lat="45.94105" lon="4.78233">
        <ele>213</ele>
        <time>2018-05-25T10:08:43Z</time>
      </trkpt>
      <trkpt lat="45.94097" lon="4.78228">
        <ele>213</ele>
        <time>2018-05-25T10:08:44Z</time>
      </trkpt>
      <trkpt lat="45.94088" lon="4.78222">
        <ele>213</ele>
        <time>2018-05-25T10:08:45Z</time>
      </trkpt>
      <trkpt lat="45.9408" lon="4.78217">
        <ele>206</ele>
        <time>2018-05-25T10:08:46Z</time>
      </trkpt>
      <trkpt lat="45.94072" lon="4.78212">
        <ele>206</ele>
        <time>2018-05-25T10:08:47Z</time>
      </trkpt>
      <trkpt lat="45.94063" lon="4.78207">
        <ele>206</ele>
        <time>2018-05-25T10:08:48Z</time>
      </trkpt>
      <trkpt lat="45.94062" lon="4.78205">
        <ele>206</ele>
        <time>2018-05-25T10:08:49Z</time>
      </trkpt>
      <trkpt lat="45.94051" lon="4.78198">
        <ele>206</ele>
        <time>2018-05-25T10:08:50Z</time>
      </trkpt>
      <trkpt lat="45.94043" lon="4.78191">
        <ele>205</ele>
        <time>2018-05-25T10:08:51Z</time>
      </trkpt>
      <trkpt lat="45.94035" lon="4.78186">
        <ele>205</ele>
        <time>2018-05-25T10:08:52Z</time>
      </trkpt>
      <trkpt lat="45.94029" lon="4.78186">
        <ele>204</ele>
        <time>2018-05-25T10:08:53Z</time>
      </trkpt>
      <trkpt lat="45.94023" lon="4.78182">
        <ele>204</ele>
        <time>2018-05-25T10:08:54Z</time>
      </trkpt>
      <trkpt lat="45.94017" lon="4.78179">
        <ele>203</ele>
        <time>2018-05-25T10:08:55Z</time>
      </trkpt>
      <trkpt lat="45.94013" lon="4.78176">
        <ele>203</ele>
        <time>2018-05-25T10:08:56Z</time>
      </trkpt>
      <trkpt lat="45.94009" lon="4.7817">
        <ele>202</ele>
        <time>2018-05-25T10:08:57Z</time>
      </trkpt>
      <trkpt lat="45.94005" lon="4.7816">
        <ele>202</ele>
        <time>2018-05-25T10:09:04Z</time>
      </trkpt>
      <trkpt lat="45.94003" lon="4.78158">
        <ele>202</ele>
        <time>2018-05-25T10:09:05Z</time>
      </trkpt>
      <trkpt lat="45.94001" lon="4.78155">
        <ele>202</ele>
        <time>2018-05-25T10:09:06Z</time>
      </trkpt>
      <trkpt lat="45.93996" lon="4.78147">
        <ele>198</ele>
        <time>2018-05-25T10:09:07Z</time>
      </trkpt>
      <trkpt lat="45.93998" lon="4.78138">
        <ele>198</ele>
        <time>2018-05-25T10:09:09Z</time>
      </trkpt>
      <trkpt lat="45.94" lon="4.78133">
        <ele>203</ele>
        <time>2018-05-25T10:09:10Z</time>
      </trkpt>
      <trkpt lat="45.94003" lon="4.78121">
        <ele>203</ele>
        <time>2018-05-25T10:09:12Z</time>
      </trkpt>
      <trkpt lat="45.94004" lon="4.78114">
        <ele>203</ele>
        <time>2018-05-25T10:09:13Z</time>
      </trkpt>
      <trkpt lat="45.94005" lon="4.78107">
        <ele>202</ele>
        <time>2018-05-25T10:09:14Z</time>
      </trkpt>
      <trkpt lat="45.94004" lon="4.781">
        <ele>202</ele>
        <time>2018-05-25T10:09:15Z</time>
      </trkpt>
      <trkpt lat="45.94006" lon="4.78092">
        <ele>201</ele>
        <time>2018-05-25T10:09:16Z</time>
      </trkpt>
      <trkpt lat="45.94008" lon="4.78085">
        <ele>201</ele>
        <time>2018-05-25T10:09:17Z</time>
      </trkpt>
      <trkpt lat="45.94009" lon="4.78079">
        <ele>200</ele>
        <time>2018-05-25T10:09:18Z</time>
      </trkpt>
      <trkpt lat="45.9401" lon="4.78071">
        <ele>201</ele>
        <time>2018-05-25T10:09:19Z</time>
      </trkpt>
      <trkpt lat="45.9401" lon="4.78063">
        <ele>201</ele>
        <time>2018-05-25T10:09:20Z</time>
      </trkpt>
      <trkpt lat="45.94011" lon="4.78054">
        <ele>201</ele>
        <time>2018-05-25T10:09:21Z</time>
      </trkpt>
      <trkpt lat="45.94012" lon="4.78048">
        <ele>201</ele>
        <time>2018-05-25T10:09:22Z</time>
      </trkpt>
      <trkpt lat="45.94014" lon="4.7804">
        <ele>201</ele>
        <time>2018-05-25T10:09:23Z</time>
      </trkpt>
      <trkpt lat="45.94015" lon="4.78034">
        <ele>201</ele>
        <time>2018-05-25T10:09:24Z</time>
      </trkpt>
      <trkpt lat="45.94017" lon="4.78027">
        <ele>201</ele>
        <time>2018-05-25T10:09:25Z</time>
      </trkpt>
      <trkpt lat="45.94017" lon="4.7802">
        <ele>201</ele>
        <time>2018-05-25T10:09:26Z</time>
      </trkpt>
      <trkpt lat="45.94018" lon="4.78012">
        <ele>200</ele>
        <time>2018-05-25T10:09:27Z</time>
      </trkpt>
      <trkpt lat="45.94019" lon="4.78004">
        <ele>200</ele>
        <time>2018-05-25T10:09:28Z</time>
      </trkpt>
      <trkpt lat="45.9402" lon="4.77995">
        <ele>199</ele>
        <time>2018-05-25T10:09:29Z</time>
      </trkpt>
      <trkpt lat="45.94021" lon="4.77988">
        <ele>200</ele>
        <time>2018-05-25T10:09:30Z</time>
      </trkpt>
      <trkpt lat="45.94021" lon="4.77979">
        <ele>200</ele>
        <time>2018-05-25T10:09:31Z</time>
      </trkpt>
      <trkpt lat="45.94024" lon="4.77971">
        <ele>200</ele>
        <time>2018-05-25T10:09:32Z</time>
      </trkpt>
      <trkpt lat="45.94025" lon="4.77963">
        <ele>200</ele>
        <time>2018-05-25T10:09:33Z</time>
      </trkpt>
      <trkpt lat="45.94026" lon="4.77952">
        <ele>200</ele>
        <time>2018-05-25T10:09:35Z</time>
      </trkpt>
      <trkpt lat="45.94028" lon="4.77947">
        <ele>200</ele>
        <time>2018-05-25T10:09:36Z</time>
      </trkpt>
      <trkpt lat="45.9403" lon="4.7794">
        <ele>200</ele>
        <time>2018-05-25T10:09:37Z</time>
      </trkpt>
      <trkpt lat="45.9403" lon="4.77934">
        <ele>200</ele>
        <time>2018-05-25T10:09:38Z</time>
      </trkpt>
      <trkpt lat="45.94027" lon="4.77923">
        <ele>199</ele>
        <time>2018-05-25T10:09:40Z</time>
      </trkpt>
      <trkpt lat="45.94026" lon="4.77922">
        <ele>199</ele>
        <time>2018-05-25T10:09:41Z</time>
      </trkpt>
      <trkpt lat="45.9402" lon="4.77921">
        <ele>198</ele>
        <time>2018-05-25T10:09:43Z</time>
      </trkpt>
      <trkpt lat="45.94016" lon="4.77923">
        <ele>198</ele>
        <time>2018-05-25T10:09:44Z</time>
      </trkpt>
      <trkpt lat="45.94004" lon="4.77921">
        <ele>196</ele>
        <time>2018-05-25T10:09:45Z</time>
      </trkpt>
      <trkpt lat="45.93993" lon="4.7793">
        <ele>192</ele>
        <time>2018-05-25T10:09:46Z</time>
      </trkpt>
      <trkpt lat="45.93985" lon="4.7793">
        <ele>192</ele>
        <time>2018-05-25T10:09:47Z</time>
      </trkpt>
      <trkpt lat="45.93977" lon="4.77937">
        <ele>191</ele>
        <time>2018-05-25T10:09:48Z</time>
      </trkpt>
      <trkpt lat="45.93967" lon="4.77943">
        <ele>190</ele>
        <time>2018-05-25T10:09:49Z</time>
      </trkpt>
      <trkpt lat="45.9396" lon="4.77947">
        <ele>190</ele>
        <time>2018-05-25T10:09:50Z</time>
      </trkpt>
      <trkpt lat="45.93953" lon="4.77952">
        <ele>190</ele>
        <time>2018-05-25T10:09:51Z</time>
      </trkpt>
      <trkpt lat="45.93945" lon="4.77956">
        <ele>189</ele>
        <time>2018-05-25T10:09:52Z</time>
      </trkpt>
      <trkpt lat="45.93937" lon="4.77962">
        <ele>189</ele>
        <time>2018-05-25T10:09:53Z</time>
      </trkpt>
      <trkpt lat="45.9393" lon="4.77966">
        <ele>189</ele>
        <time>2018-05-25T10:09:54Z</time>
      </trkpt>
      <trkpt lat="45.93923" lon="4.77973">
        <ele>188</ele>
        <time>2018-05-25T10:09:55Z</time>
      </trkpt>
      <trkpt lat="45.93915" lon="4.77978">
        <ele>182</ele>
        <time>2018-05-25T10:09:56Z</time>
      </trkpt>
      <trkpt lat="45.9391" lon="4.77984">
        <ele>183</ele>
        <time>2018-05-25T10:09:57Z</time>
      </trkpt>
      <trkpt lat="45.93902" lon="4.77991">
        <ele>183</ele>
        <time>2018-05-25T10:09:58Z</time>
      </trkpt>
      <trkpt lat="45.93897" lon="4.77998">
        <ele>182</ele>
        <time>2018-05-25T10:09:59Z</time>
      </trkpt>
      <trkpt lat="45.93893" lon="4.78004">
        <ele>184</ele>
        <time>2018-05-25T10:10:00Z</time>
      </trkpt>
      <trkpt lat="45.93888" lon="4.78008">
        <ele>184</ele>
        <time>2018-05-25T10:10:01Z</time>
      </trkpt>
      <trkpt lat="45.93882" lon="4.78014">
        <ele>184</ele>
        <time>2018-05-25T10:10:02Z</time>
      </trkpt>
      <trkpt lat="45.93876" lon="4.78017">
        <ele>183</ele>
        <time>2018-05-25T10:10:03Z</time>
      </trkpt>
      <trkpt lat="45.9387" lon="4.78015">
        <ele>183</ele>
        <time>2018-05-25T10:10:04Z</time>
      </trkpt>
      <trkpt lat="45.93865" lon="4.78006">
        <ele>183</ele>
        <time>2018-05-25T10:10:05Z</time>
      </trkpt>
      <trkpt lat="45.9386" lon="4.77998">
        <ele>179</ele>
        <time>2018-05-25T10:10:06Z</time>
      </trkpt>
      <trkpt lat="45.93855" lon="4.77992">
        <ele>179</ele>
        <time>2018-05-25T10:10:07Z</time>
      </trkpt>
      <trkpt lat="45.93849" lon="4.77991">
        <ele>179</ele>
        <time>2018-05-25T10:10:08Z</time>
      </trkpt>
      <trkpt lat="45.93845" lon="4.77985">
        <ele>179</ele>
        <time>2018-05-25T10:10:09Z</time>
      </trkpt>
      <trkpt lat="45.93839" lon="4.77979">
        <ele>178</ele>
        <time>2018-05-25T10:10:10Z</time>
      </trkpt>
      <trkpt lat="45.93835" lon="4.77973">
        <ele>178</ele>
        <time>2018-05-25T10:10:11Z</time>
      </trkpt>
      <trkpt lat="45.93831" lon="4.77969">
        <ele>172</ele>
        <time>2018-05-25T10:10:12Z</time>
      </trkpt>
      <trkpt lat="45.93827" lon="4.77963">
        <ele>171</ele>
        <time>2018-05-25T10:10:13Z</time>
      </trkpt>
      <trkpt lat="45.93822" lon="4.77958">
        <ele>170</ele>
        <time>2018-05-25T10:10:14Z</time>
      </trkpt>
      <trkpt lat="45.93818" lon="4.77952">
        <ele>170</ele>
        <time>2018-05-25T10:10:15Z</time>
      </trkpt>
      <trkpt lat="45.93814" lon="4.77947">
        <ele>169</ele>
        <time>2018-05-25T10:10:16Z</time>
      </trkpt>
      <trkpt lat="45.9381" lon="4.77942">
        <ele>169</ele>
        <time>2018-05-25T10:10:17Z</time>
      </trkpt>
      <trkpt lat="45.93806" lon="4.77936">
        <ele>169</ele>
        <time>2018-05-25T10:10:18Z</time>
      </trkpt>
      <trkpt lat="45.93801" lon="4.77931">
        <ele>168</ele>
        <time>2018-05-25T10:10:19Z</time>
      </trkpt>
      <trkpt lat="45.93798" lon="4.77927">
        <ele>168</ele>
        <time>2018-05-25T10:10:20Z</time>
      </trkpt>
      <trkpt lat="45.93794" lon="4.77922">
        <ele>168</ele>
        <time>2018-05-25T10:10:21Z</time>
      </trkpt>
      <trkpt lat="45.9379" lon="4.77919">
        <ele>168</ele>
        <time>2018-05-25T10:10:22Z</time>
      </trkpt>
      <trkpt lat="45.93787" lon="4.77911">
        <ele>166</ele>
        <time>2018-05-25T10:10:34Z</time>
      </trkpt>
      <trkpt lat="45.93787" lon="4.77911">
        <ele>166</ele>
        <time>2018-05-25T10:10:35Z</time>
      </trkpt>
      <trkpt lat="45.93789" lon="4.77912">
        <ele>166</ele>
        <time>2018-05-25T10:11:22Z</time>
      </trkpt>
      <trkpt lat="45.93789" lon="4.77911">
        <ele>166</ele>
        <time>2018-05-25T10:11:23Z</time>
      </trkpt>
      <trkpt lat="45.93783" lon="4.77904">
        <ele>166</ele>
        <time>2018-05-25T10:11:55Z</time>
      </trkpt>
      <trkpt lat="45.93782" lon="4.77902">
        <ele>166</ele>
        <time>2018-05-25T10:11:56Z</time>
      </trkpt>
      <trkpt lat="45.93777" lon="4.77896">
        <ele>166</ele>
        <time>2018-05-25T10:11:59Z</time>
      </trkpt>
      <trkpt lat="45.93776" lon="4.77893">
        <ele>166</ele>
        <time>2018-05-25T10:12:00Z</time>
      </trkpt>
      <trkpt lat="45.93774" lon="4.7789">
        <ele>166</ele>
        <time>2018-05-25T10:12:01Z</time>
      </trkpt>
      <trkpt lat="45.93769" lon="4.77883">
        <ele>166</ele>
        <time>2018-05-25T10:12:02Z</time>
      </trkpt>
      <trkpt lat="45.93765" lon="4.77877">
        <ele>166</ele>
        <time>2018-05-25T10:12:04Z</time>
      </trkpt>
      <trkpt lat="45.93761" lon="4.77872">
        <ele>166</ele>
        <time>2018-05-25T10:12:05Z</time>
      </trkpt>
      <trkpt lat="45.93756" lon="4.77866">
        <ele>166</ele>
        <time>2018-05-25T10:12:07Z</time>
      </trkpt>
      <trkpt lat="45.93752" lon="4.77861">
        <ele>166</ele>
        <time>2018-05-25T10:12:08Z</time>
      </trkpt>
      <trkpt lat="45.93745" lon="4.77853">
        <ele>167</ele>
        <time>2018-05-25T10:12:10Z</time>
      </trkpt>
      <trkpt lat="45.93742" lon="4.77849">
        <ele>167</ele>
        <time>2018-05-25T10:12:11Z</time>
      </trkpt>
      <trkpt lat="45.93738" lon="4.77845">
        <ele>167</ele>
        <time>2018-05-25T10:12:12Z</time>
      </trkpt>
      <trkpt lat="45.93733" lon="4.7784">
        <ele>167</ele>
        <time>2018-05-25T10:12:13Z</time>
      </trkpt>
      <trkpt lat="45.9373" lon="4.77836">
        <ele>167</ele>
        <time>2018-05-25T10:12:14Z</time>
      </trkpt>
      <trkpt lat="45.93726" lon="4.77831">
        <ele>168</ele>
        <time>2018-05-25T10:12:15Z</time>
      </trkpt>
      <trkpt lat="45.93722" lon="4.77826">
        <ele>168</ele>
        <time>2018-05-25T10:12:16Z</time>
      </trkpt>
      <trkpt lat="45.93718" lon="4.77821">
        <ele>169</ele>
        <time>2018-05-25T10:12:17Z</time>
      </trkpt>
      <trkpt lat="45.93714" lon="4.77815">
        <ele>169</ele>
        <time>2018-05-25T10:12:18Z</time>
      </trkpt>
      <trkpt lat="45.9371" lon="4.77809">
        <ele>169</ele>
        <time>2018-05-25T10:12:19Z</time>
      </trkpt>
      <trkpt lat="45.93705" lon="4.77803">
        <ele>169</ele>
        <time>2018-05-25T10:12:20Z</time>
      </trkpt>
      <trkpt lat="45.93701" lon="4.77797">
        <ele>169</ele>
        <time>2018-05-25T10:12:21Z</time>
      </trkpt>
      <trkpt lat="45.93697" lon="4.77791">
        <ele>169</ele>
        <time>2018-05-25T10:12:22Z</time>
      </trkpt>
      <trkpt lat="45.93692" lon="4.77786">
        <ele>170</ele>
        <time>2018-05-25T10:12:23Z</time>
      </trkpt>
      <trkpt lat="45.93688" lon="4.7778">
        <ele>170</ele>
        <time>2018-05-25T10:12:24Z</time>
      </trkpt>
      <trkpt lat="45.93683" lon="4.77774">
        <ele>170</ele>
        <time>2018-05-25T10:12:25Z</time>
      </trkpt>
      <trkpt lat="45.93678" lon="4.77767">
        <ele>170</ele>
        <time>2018-05-25T10:12:26Z</time>
      </trkpt>
      <trkpt lat="45.93674" lon="4.77761">
        <ele>170</ele>
        <time>2018-05-25T10:12:27Z</time>
      </trkpt>
      <trkpt lat="45.93669" lon="4.77753">
        <ele>171</ele>
        <time>2018-05-25T10:12:28Z</time>
      </trkpt>
      <trkpt lat="45.93665" lon="4.77747">
        <ele>171</ele>
        <time>2018-05-25T10:12:29Z</time>
      </trkpt>
      <trkpt lat="45.93661" lon="4.77738">
        <ele>170</ele>
        <time>2018-05-25T10:12:30Z</time>
      </trkpt>
      <trkpt lat="45.93656" lon="4.77731">
        <ele>170</ele>
        <time>2018-05-25T10:12:31Z</time>
      </trkpt>
      <trkpt lat="45.93652" lon="4.77722">
        <ele>170</ele>
        <time>2018-05-25T10:12:32Z</time>
      </trkpt>
      <trkpt lat="45.93647" lon="4.77714">
        <ele>170</ele>
        <time>2018-05-25T10:12:33Z</time>
      </trkpt>
      <trkpt lat="45.93642" lon="4.77705">
        <ele>170</ele>
        <time>2018-05-25T10:12:34Z</time>
      </trkpt>
      <trkpt lat="45.93637" lon="4.77696">
        <ele>169</ele>
        <time>2018-05-25T10:12:35Z</time>
      </trkpt>
      <trkpt lat="45.93632" lon="4.77686">
        <ele>169</ele>
        <time>2018-05-25T10:12:36Z</time>
      </trkpt>
      <trkpt lat="45.93628" lon="4.77677">
        <ele>169</ele>
        <time>2018-05-25T10:12:37Z</time>
      </trkpt>
      <trkpt lat="45.93623" lon="4.77668">
        <ele>169</ele>
        <time>2018-05-25T10:12:38Z</time>
      </trkpt>
      <trkpt lat="45.93619" lon="4.77658">
        <ele>169</ele>
        <time>2018-05-25T10:12:39Z</time>
      </trkpt>
      <trkpt lat="45.93615" lon="4.77649">
        <ele>169</ele>
        <time>2018-05-25T10:12:40Z</time>
      </trkpt>
      <trkpt lat="45.93611" lon="4.77642">
        <ele>169</ele>
        <time>2018-05-25T10:12:41Z</time>
      </trkpt>
      <trkpt lat="45.93604" lon="4.77632">
        <ele>169</ele>
        <time>2018-05-25T10:12:42Z</time>
      </trkpt>
      <trkpt lat="45.93602" lon="4.77624">
        <ele>170</ele>
        <time>2018-05-25T10:12:43Z</time>
      </trkpt>
      <trkpt lat="45.93599" lon="4.77616">
        <ele>170</ele>
        <time>2018-05-25T10:12:44Z</time>
      </trkpt>
      <trkpt lat="45.93597" lon="4.77607">
        <ele>170</ele>
        <time>2018-05-25T10:12:45Z</time>
      </trkpt>
      <trkpt lat="45.93595" lon="4.77599">
        <ele>170</ele>
        <time>2018-05-25T10:12:46Z</time>
      </trkpt>
      <trkpt lat="45.93593" lon="4.77591">
        <ele>170</ele>
        <time>2018-05-25T10:12:47Z</time>
      </trkpt>
      <trkpt lat="45.93591" lon="4.77582">
        <ele>170</ele>
        <time>2018-05-25T10:12:48Z</time>
      </trkpt>
      <trkpt lat="45.93589" lon="4.77573">
        <ele>170</ele>
        <time>2018-05-25T10:12:49Z</time>
      </trkpt>
      <trkpt lat="45.93587" lon="4.77566">
        <ele>170</ele>
        <time>2018-05-25T10:12:50Z</time>
      </trkpt>
      <trkpt lat="45.93586" lon="4.77559">
        <ele>170</ele>
        <time>2018-05-25T10:12:51Z</time>
      </trkpt>
      <trkpt lat="45.93583" lon="4.77551">
        <ele>169</ele>
        <time>2018-05-25T10:12:52Z</time>
      </trkpt>
      <trkpt lat="45.93582" lon="4.77545">
        <ele>169</ele>
        <time>2018-05-25T10:12:53Z</time>
      </trkpt>
      <trkpt lat="45.9358" lon="4.77537">
        <ele>169</ele>
        <time>2018-05-25T10:12:54Z</time>
      </trkpt>
      <trkpt lat="45.93578" lon="4.77529">
        <ele>169</ele>
        <time>2018-05-25T10:12:55Z</time>
      </trkpt>
      <trkpt lat="45.93576" lon="4.77522">
        <ele>169</ele>
        <time>2018-05-25T10:12:56Z</time>
      </trkpt>
      <trkpt lat="45.93573" lon="4.77511">
        <ele>169</ele>
        <time>2018-05-25T10:12:57Z</time>
      </trkpt>
      <trkpt lat="45.93571" lon="4.77503">
        <ele>169</ele>
        <time>2018-05-25T10:12:58Z</time>
      </trkpt>
      <trkpt lat="45.9357" lon="4.77496">
        <ele>169</ele>
        <time>2018-05-25T10:12:59Z</time>
      </trkpt>
      <trkpt lat="45.93567" lon="4.77488">
        <ele>169</ele>
        <time>2018-05-25T10:13:00Z</time>
      </trkpt>
      <trkpt lat="45.93565" lon="4.77479">
        <ele>169</ele>
        <time>2018-05-25T10:13:01Z</time>
      </trkpt>
      <trkpt lat="45.93562" lon="4.7747">
        <ele>169</ele>
        <time>2018-05-25T10:13:02Z</time>
      </trkpt>
      <trkpt lat="45.9356" lon="4.77462">
        <ele>169</ele>
        <time>2018-05-25T10:13:03Z</time>
      </trkpt>
      <trkpt lat="45.93557" lon="4.77453">
        <ele>169</ele>
        <time>2018-05-25T10:13:04Z</time>
      </trkpt>
      <trkpt lat="45.93554" lon="4.77443">
        <ele>169</ele>
        <time>2018-05-25T10:13:05Z</time>
      </trkpt>
      <trkpt lat="45.93553" lon="4.77435">
        <ele>169</ele>
        <time>2018-05-25T10:13:06Z</time>
      </trkpt>
      <trkpt lat="45.93551" lon="4.77429">
        <ele>170</ele>
        <time>2018-05-25T10:13:07Z</time>
      </trkpt>
      <trkpt lat="45.93548" lon="4.77422">
        <ele>170</ele>
        <time>2018-05-25T10:13:08Z</time>
      </trkpt>
      <trkpt lat="45.93546" lon="4.77413">
        <ele>170</ele>
        <time>2018-05-25T10:13:09Z</time>
      </trkpt>
      <trkpt lat="45.93542" lon="4.77405">
        <ele>170</ele>
        <time>2018-05-25T10:13:10Z</time>
      </trkpt>
      <trkpt lat="45.93542" lon="4.77397">
        <ele>170</ele>
        <time>2018-05-25T10:13:11Z</time>
      </trkpt>
      <trkpt lat="45.9354" lon="4.77389">
        <ele>170</ele>
        <time>2018-05-25T10:13:12Z</time>
      </trkpt>
      <trkpt lat="45.93539" lon="4.7738">
        <ele>170</ele>
        <time>2018-05-25T10:13:13Z</time>
      </trkpt>
      <trkpt lat="45.93539" lon="4.77372">
        <ele>170</ele>
        <time>2018-05-25T10:13:14Z</time>
      </trkpt>
      <trkpt lat="45.93537" lon="4.77364">
        <ele>170</ele>
        <time>2018-05-25T10:13:15Z</time>
      </trkpt>
      <trkpt lat="45.93535" lon="4.77356">
        <ele>170</ele>
        <time>2018-05-25T10:13:16Z</time>
      </trkpt>
      <trkpt lat="45.93533" lon="4.77347">
        <ele>170</ele>
        <time>2018-05-25T10:13:17Z</time>
      </trkpt>
      <trkpt lat="45.9353" lon="4.77339">
        <ele>170</ele>
        <time>2018-05-25T10:13:18Z</time>
      </trkpt>
      <trkpt lat="45.93529" lon="4.77331">
        <ele>170</ele>
        <time>2018-05-25T10:13:19Z</time>
      </trkpt>
      <trkpt lat="45.93528" lon="4.77323">
        <ele>170</ele>
        <time>2018-05-25T10:13:20Z</time>
      </trkpt>
      <trkpt lat="45.93523" lon="4.77314">
        <ele>170</ele>
        <time>2018-05-25T10:13:21Z</time>
      </trkpt>
      <trkpt lat="45.93522" lon="4.77305">
        <ele>170</ele>
        <time>2018-05-25T10:13:22Z</time>
      </trkpt>
      <trkpt lat="45.9352" lon="4.77297">
        <ele>170</ele>
        <time>2018-05-25T10:13:23Z</time>
      </trkpt>
      <trkpt lat="45.93519" lon="4.77288">
        <ele>170</ele>
        <time>2018-05-25T10:13:24Z</time>
      </trkpt>
      <trkpt lat="45.93517" lon="4.7728">
        <ele>170</ele>
        <time>2018-05-25T10:13:25Z</time>
      </trkpt>
      <trkpt lat="45.93517" lon="4.77271">
        <ele>170</ele>
        <time>2018-05-25T10:13:26Z</time>
      </trkpt>
      <trkpt lat="45.93516" lon="4.77263">
        <ele>170</ele>
        <time>2018-05-25T10:13:27Z</time>
      </trkpt>
      <trkpt lat="45.93514" lon="4.77255">
        <ele>170</ele>
        <time>2018-05-25T10:13:28Z</time>
      </trkpt>
      <trkpt lat="45.93513" lon="4.77248">
        <ele>169</ele>
        <time>2018-05-25T10:13:29Z</time>
      </trkpt>
      <trkpt lat="45.9351" lon="4.77241">
        <ele>169</ele>
        <time>2018-05-25T10:13:30Z</time>
      </trkpt>
      <trkpt lat="45.93509" lon="4.77234">
        <ele>169</ele>
        <time>2018-05-25T10:13:31Z</time>
      </trkpt>
      <trkpt lat="45.93507" lon="4.77226">
        <ele>169</ele>
        <time>2018-05-25T10:13:32Z</time>
      </trkpt>
      <trkpt lat="45.93506" lon="4.77218">
        <ele>169</ele>
        <time>2018-05-25T10:13:33Z</time>
      </trkpt>
      <trkpt lat="45.93504" lon="4.7721">
        <ele>169</ele>
        <time>2018-05-25T10:13:34Z</time>
      </trkpt>
      <trkpt lat="45.935" lon="4.77202">
        <ele>169</ele>
        <time>2018-05-25T10:13:35Z</time>
      </trkpt>
      <trkpt lat="45.93499" lon="4.77194">
        <ele>169</ele>
        <time>2018-05-25T10:13:36Z</time>
      </trkpt>
      <trkpt lat="45.93497" lon="4.77186">
        <ele>169</ele>
        <time>2018-05-25T10:13:37Z</time>
      </trkpt>
      <trkpt lat="45.93495" lon="4.77177">
        <ele>169</ele>
        <time>2018-05-25T10:13:38Z</time>
      </trkpt>
      <trkpt lat="45.93492" lon="4.77168">
        <ele>169</ele>
        <time>2018-05-25T10:13:39Z</time>
      </trkpt>
      <trkpt lat="45.9349" lon="4.77157">
        <ele>169</ele>
        <time>2018-05-25T10:13:40Z</time>
      </trkpt>
      <trkpt lat="45.93488" lon="4.7715">
        <ele>169</ele>
        <time>2018-05-25T10:13:41Z</time>
      </trkpt>
      <trkpt lat="45.93485" lon="4.77143">
        <ele>169</ele>
        <time>2018-05-25T10:13:42Z</time>
      </trkpt>
      <trkpt lat="45.93484" lon="4.77136">
        <ele>169</ele>
        <time>2018-05-25T10:13:43Z</time>
      </trkpt>
      <trkpt lat="45.93484" lon="4.77129">
        <ele>169</ele>
        <time>2018-05-25T10:13:44Z</time>
      </trkpt>
      <trkpt lat="45.93483" lon="4.77121">
        <ele>169</ele>
        <time>2018-05-25T10:13:45Z</time>
      </trkpt>
      <trkpt lat="45.93482" lon="4.77113">
        <ele>169</ele>
        <time>2018-05-25T10:13:46Z</time>
      </trkpt>
      <trkpt lat="45.93481" lon="4.77106">
        <ele>169</ele>
        <time>2018-05-25T10:13:47Z</time>
      </trkpt>
      <trkpt lat="45.9348" lon="4.77098">
        <ele>169</ele>
        <time>2018-05-25T10:13:48Z</time>
      </trkpt>
      <trkpt lat="45.93478" lon="4.77089">
        <ele>169</ele>
        <time>2018-05-25T10:13:49Z</time>
      </trkpt>
      <trkpt lat="45.93477" lon="4.77082">
        <ele>170</ele>
        <time>2018-05-25T10:13:50Z</time>
      </trkpt>
      <trkpt lat="45.93475" lon="4.77075">
        <ele>170</ele>
        <time>2018-05-25T10:13:51Z</time>
      </trkpt>
      <trkpt lat="45.93472" lon="4.77067">
        <ele>170</ele>
        <time>2018-05-25T10:13:52Z</time>
      </trkpt>
      <trkpt lat="45.9347" lon="4.7706">
        <ele>170</ele>
        <time>2018-05-25T10:13:53Z</time>
      </trkpt>
      <trkpt lat="45.9347" lon="4.77052">
        <ele>170</ele>
        <time>2018-05-25T10:13:54Z</time>
      </trkpt>
      <trkpt lat="45.93469" lon="4.77044">
        <ele>170</ele>
        <time>2018-05-25T10:13:55Z</time>
      </trkpt>
      <trkpt lat="45.93467" lon="4.77036">
        <ele>170</ele>
        <time>2018-05-25T10:13:56Z</time>
      </trkpt>
      <trkpt lat="45.93466" lon="4.77029">
        <ele>170</ele>
        <time>2018-05-25T10:13:57Z</time>
      </trkpt>
      <trkpt lat="45.93465" lon="4.7702">
        <ele>170</ele>
        <time>2018-05-25T10:13:58Z</time>
      </trkpt>
      <trkpt lat="45.93464" lon="4.77013">
        <ele>170</ele>
        <time>2018-05-25T10:13:59Z</time>
      </trkpt>
      <trkpt lat="45.93463" lon="4.77005">
        <ele>170</ele>
        <time>2018-05-25T10:14:00Z</time>
      </trkpt>
      <trkpt lat="45.93462" lon="4.76996">
        <ele>170</ele>
        <time>2018-05-25T10:14:01Z</time>
      </trkpt>
      <trkpt lat="45.9346" lon="4.76989">
        <ele>170</ele>
        <time>2018-05-25T10:14:02Z</time>
      </trkpt>
      <trkpt lat="45.93458" lon="4.76981">
        <ele>170</ele>
        <time>2018-05-25T10:14:03Z</time>
      </trkpt>
      <trkpt lat="45.93457" lon="4.76973">
        <ele>170</ele>
        <time>2018-05-25T10:14:04Z</time>
      </trkpt>
      <trkpt lat="45.93454" lon="4.76965">
        <ele>170</ele>
        <time>2018-05-25T10:14:05Z</time>
      </trkpt>
      <trkpt lat="45.93453" lon="4.76958">
        <ele>170</ele>
        <time>2018-05-25T10:14:06Z</time>
      </trkpt>
      <trkpt lat="45.93451" lon="4.76949">
        <ele>170</ele>
        <time>2018-05-25T10:14:07Z</time>
      </trkpt>
      <trkpt lat="45.9345" lon="4.7694">
        <ele>170</ele>
        <time>2018-05-25T10:14:08Z</time>
      </trkpt>
      <trkpt lat="45.93448" lon="4.76932">
        <ele>170</ele>
        <time>2018-05-25T10:14:09Z</time>
      </trkpt>
      <trkpt lat="45.93447" lon="4.76924">
        <ele>170</ele>
        <time>2018-05-25T10:14:10Z</time>
      </trkpt>
      <trkpt lat="45.93445" lon="4.76915">
        <ele>170</ele>
        <time>2018-05-25T10:14:11Z</time>
      </trkpt>
      <trkpt lat="45.93443" lon="4.76906">
        <ele>170</ele>
        <time>2018-05-25T10:14:12Z</time>
      </trkpt>
      <trkpt lat="45.9344" lon="4.76897">
        <ele>170</ele>
        <time>2018-05-25T10:14:13Z</time>
      </trkpt>
      <trkpt lat="45.93438" lon="4.7689">
        <ele>170</ele>
        <time>2018-05-25T10:14:14Z</time>
      </trkpt>
      <trkpt lat="45.93436" lon="4.76883">
        <ele>171</ele>
        <time>2018-05-25T10:14:15Z</time>
      </trkpt>
      <trkpt lat="45.93433" lon="4.76876">
        <ele>171</ele>
        <time>2018-05-25T10:14:16Z</time>
      </trkpt>
      <trkpt lat="45.9343" lon="4.76868">
        <ele>171</ele>
        <time>2018-05-25T10:14:17Z</time>
      </trkpt>
      <trkpt lat="45.93427" lon="4.7686">
        <ele>171</ele>
        <time>2018-05-25T10:14:18Z</time>
      </trkpt>
      <trkpt lat="45.93423" lon="4.76854">
        <ele>171</ele>
        <time>2018-05-25T10:14:19Z</time>
      </trkpt>
      <trkpt lat="45.93419" lon="4.76847">
        <ele>171</ele>
        <time>2018-05-25T10:14:20Z</time>
      </trkpt>
      <trkpt lat="45.93415" lon="4.7684">
        <ele>172</ele>
        <time>2018-05-25T10:14:21Z</time>
      </trkpt>
      <trkpt lat="45.93412" lon="4.76834">
        <ele>172</ele>
        <time>2018-05-25T10:14:22Z</time>
      </trkpt>
      <trkpt lat="45.93409" lon="4.76827">
        <ele>172</ele>
        <time>2018-05-25T10:14:23Z</time>
      </trkpt>
      <trkpt lat="45.93406" lon="4.76821">
        <ele>172</ele>
        <time>2018-05-25T10:14:24Z</time>
      </trkpt>
      <trkpt lat="45.93401" lon="4.76815">
        <ele>172</ele>
        <time>2018-05-25T10:14:25Z</time>
      </trkpt>
      <trkpt lat="45.93397" lon="4.7681">
        <ele>172</ele>
        <time>2018-05-25T10:14:26Z</time>
      </trkpt>
      <trkpt lat="45.93395" lon="4.76805">
        <ele>172</ele>
        <time>2018-05-25T10:14:27Z</time>
      </trkpt>
      <trkpt lat="45.93391" lon="4.768">
        <ele>172</ele>
        <time>2018-05-25T10:14:28Z</time>
      </trkpt>
      <trkpt lat="45.93387" lon="4.76795">
        <ele>172</ele>
        <time>2018-05-25T10:14:29Z</time>
      </trkpt>
      <trkpt lat="45.93383" lon="4.76789">
        <ele>172</ele>
        <time>2018-05-25T10:14:30Z</time>
      </trkpt>
      <trkpt lat="45.93379" lon="4.76784">
        <ele>172</ele>
        <time>2018-05-25T10:14:31Z</time>
      </trkpt>
      <trkpt lat="45.93376" lon="4.7678">
        <ele>172</ele>
        <time>2018-05-25T10:14:32Z</time>
      </trkpt>
      <trkpt lat="45.93371" lon="4.76775">
        <ele>172</ele>
        <time>2018-05-25T10:14:33Z</time>
      </trkpt>
      <trkpt lat="45.93366" lon="4.7677">
        <ele>172</ele>
        <time>2018-05-25T10:14:34Z</time>
      </trkpt>
      <trkpt lat="45.9336" lon="4.76764">
        <ele>172</ele>
        <time>2018-05-25T10:14:35Z</time>
      </trkpt>
      <trkpt lat="45.93356" lon="4.76761">
        <ele>172</ele>
        <time>2018-05-25T10:14:36Z</time>
      </trkpt>
      <trkpt lat="45.93352" lon="4.76756">
        <ele>172</ele>
        <time>2018-05-25T10:14:37Z</time>
      </trkpt>
      <trkpt lat="45.93348" lon="4.76751">
        <ele>172</ele>
        <time>2018-05-25T10:14:38Z</time>
      </trkpt>
      <trkpt lat="45.93343" lon="4.76747">
        <ele>173</ele>
        <time>2018-05-25T10:14:39Z</time>
      </trkpt>
      <trkpt lat="45.93338" lon="4.76742">
        <ele>173</ele>
        <time>2018-05-25T10:14:40Z</time>
      </trkpt>
      <trkpt lat="45.93333" lon="4.76738">
        <ele>172</ele>
        <time>2018-05-25T10:14:41Z</time>
      </trkpt>
      <trkpt lat="45.93327" lon="4.76735">
        <ele>172</ele>
        <time>2018-05-25T10:14:42Z</time>
      </trkpt>
      <trkpt lat="45.93324" lon="4.7673">
        <ele>172</ele>
        <time>2018-05-25T10:14:43Z</time>
      </trkpt>
      <trkpt lat="45.9332" lon="4.76726">
        <ele>172</ele>
        <time>2018-05-25T10:14:44Z</time>
      </trkpt>
      <trkpt lat="45.93315" lon="4.76722">
        <ele>172</ele>
        <time>2018-05-25T10:14:45Z</time>
      </trkpt>
      <trkpt lat="45.93311" lon="4.76718">
        <ele>172</ele>
        <time>2018-05-25T10:14:46Z</time>
      </trkpt>
      <trkpt lat="45.93307" lon="4.76712">
        <ele>172</ele>
        <time>2018-05-25T10:14:47Z</time>
      </trkpt>
      <trkpt lat="45.93303" lon="4.76708">
        <ele>172</ele>
        <time>2018-05-25T10:14:48Z</time>
      </trkpt>
      <trkpt lat="45.93299" lon="4.76703">
        <ele>172</ele>
        <time>2018-05-25T10:14:49Z</time>
      </trkpt>
      <trkpt lat="45.93294" lon="4.76699">
        <ele>172</ele>
        <time>2018-05-25T10:14:50Z</time>
      </trkpt>
      <trkpt lat="45.9329" lon="4.76695">
        <ele>172</ele>
        <time>2018-05-25T10:14:51Z</time>
      </trkpt>
      <trkpt lat="45.93286" lon="4.7669">
        <ele>172</ele>
        <time>2018-05-25T10:14:52Z</time>
      </trkpt>
      <trkpt lat="45.93283" lon="4.76685">
        <ele>172</ele>
        <time>2018-05-25T10:14:53Z</time>
      </trkpt>
      <trkpt lat="45.93278" lon="4.76682">
        <ele>172</ele>
        <time>2018-05-25T10:14:54Z</time>
      </trkpt>
      <trkpt lat="45.93274" lon="4.76677">
        <ele>172</ele>
        <time>2018-05-25T10:14:55Z</time>
      </trkpt>
      <trkpt lat="45.9327" lon="4.76673">
        <ele>172</ele>
        <time>2018-05-25T10:14:56Z</time>
      </trkpt>
      <trkpt lat="45.93267" lon="4.76667">
        <ele>172</ele>
        <time>2018-05-25T10:14:57Z</time>
      </trkpt>
      <trkpt lat="45.93263" lon="4.76663">
        <ele>171</ele>
        <time>2018-05-25T10:14:58Z</time>
      </trkpt>
      <trkpt lat="45.93259" lon="4.76658">
        <ele>171</ele>
        <time>2018-05-25T10:14:59Z</time>
      </trkpt>
      <trkpt lat="45.93254" lon="4.76655">
        <ele>171</ele>
        <time>2018-05-25T10:15:00Z</time>
      </trkpt>
      <trkpt lat="45.93249" lon="4.7665">
        <ele>171</ele>
        <time>2018-05-25T10:15:01Z</time>
      </trkpt>
      <trkpt lat="45.93245" lon="4.76644">
        <ele>171</ele>
        <time>2018-05-25T10:15:02Z</time>
      </trkpt>
      <trkpt lat="45.9324" lon="4.76639">
        <ele>171</ele>
        <time>2018-05-25T10:15:03Z</time>
      </trkpt>
      <trkpt lat="45.93235" lon="4.76634">
        <ele>171</ele>
        <time>2018-05-25T10:15:04Z</time>
      </trkpt>
      <trkpt lat="45.93229" lon="4.76628">
        <ele>170</ele>
        <time>2018-05-25T10:15:05Z</time>
      </trkpt>
      <trkpt lat="45.93223" lon="4.76623">
        <ele>170</ele>
        <time>2018-05-25T10:15:06Z</time>
      </trkpt>
      <trkpt lat="45.93218" lon="4.76618">
        <ele>170</ele>
        <time>2018-05-25T10:15:07Z</time>
      </trkpt>
      <trkpt lat="45.93212" lon="4.76613">
        <ele>170</ele>
        <time>2018-05-25T10:15:08Z</time>
      </trkpt>
      <trkpt lat="45.93209" lon="4.76608">
        <ele>170</ele>
        <time>2018-05-25T10:15:09Z</time>
      </trkpt>
      <trkpt lat="45.93204" lon="4.76603">
        <ele>170</ele>
        <time>2018-05-25T10:15:10Z</time>
      </trkpt>
      <trkpt lat="45.93199" lon="4.76598">
        <ele>170</ele>
        <time>2018-05-25T10:15:11Z</time>
      </trkpt>
      <trkpt lat="45.93193" lon="4.76592">
        <ele>170</ele>
        <time>2018-05-25T10:15:12Z</time>
      </trkpt>
      <trkpt lat="45.93186" lon="4.76588">
        <ele>171</ele>
        <time>2018-05-25T10:15:13Z</time>
      </trkpt>
      <trkpt lat="45.93181" lon="4.76583">
        <ele>170</ele>
        <time>2018-05-25T10:15:14Z</time>
      </trkpt>
      <trkpt lat="45.93176" lon="4.7658">
        <ele>170</ele>
        <time>2018-05-25T10:15:15Z</time>
      </trkpt>
      <trkpt lat="45.93173" lon="4.76575">
        <ele>170</ele>
        <time>2018-05-25T10:15:16Z</time>
      </trkpt>
      <trkpt lat="45.93168" lon="4.7657">
        <ele>170</ele>
        <time>2018-05-25T10:15:17Z</time>
      </trkpt>
      <trkpt lat="45.93162" lon="4.76568">
        <ele>170</ele>
        <time>2018-05-25T10:15:18Z</time>
      </trkpt>
      <trkpt lat="45.93157" lon="4.76563">
        <ele>170</ele>
        <time>2018-05-25T10:15:19Z</time>
      </trkpt>
      <trkpt lat="45.93154" lon="4.76559">
        <ele>170</ele>
        <time>2018-05-25T10:15:20Z</time>
      </trkpt>
      <trkpt lat="45.93149" lon="4.76555">
        <ele>170</ele>
        <time>2018-05-25T10:15:21Z</time>
      </trkpt>
      <trkpt lat="45.93144" lon="4.76551">
        <ele>170</ele>
        <time>2018-05-25T10:15:22Z</time>
      </trkpt>
      <trkpt lat="45.93139" lon="4.76547">
        <ele>170</ele>
        <time>2018-05-25T10:15:23Z</time>
      </trkpt>
      <trkpt lat="45.93135" lon="4.76542">
        <ele>170</ele>
        <time>2018-05-25T10:15:24Z</time>
      </trkpt>
      <trkpt lat="45.93131" lon="4.76535">
        <ele>170</ele>
        <time>2018-05-25T10:15:25Z</time>
      </trkpt>
      <trkpt lat="45.93127" lon="4.7653">
        <ele>170</ele>
        <time>2018-05-25T10:15:26Z</time>
      </trkpt>
      <trkpt lat="45.93123" lon="4.76527">
        <ele>170</ele>
        <time>2018-05-25T10:15:27Z</time>
      </trkpt>
      <trkpt lat="45.93118" lon="4.76522">
        <ele>170</ele>
        <time>2018-05-25T10:15:28Z</time>
      </trkpt>
      <trkpt lat="45.93114" lon="4.76518">
        <ele>170</ele>
        <time>2018-05-25T10:15:29Z</time>
      </trkpt>
      <trkpt lat="45.93109" lon="4.76513">
        <ele>170</ele>
        <time>2018-05-25T10:15:30Z</time>
      </trkpt>
      <trkpt lat="45.93104" lon="4.76511">
        <ele>170</ele>
        <time>2018-05-25T10:15:31Z</time>
      </trkpt>
      <trkpt lat="45.93098" lon="4.76505">
        <ele>170</ele>
        <time>2018-05-25T10:15:32Z</time>
      </trkpt>
      <trkpt lat="45.93094" lon="4.76501">
        <ele>170</ele>
        <time>2018-05-25T10:15:33Z</time>
      </trkpt>
      <trkpt lat="45.9309" lon="4.76494">
        <ele>170</ele>
        <time>2018-05-25T10:15:34Z</time>
      </trkpt>
      <trkpt lat="45.93086" lon="4.76488">
        <ele>170</ele>
        <time>2018-05-25T10:15:36Z</time>
      </trkpt>
      <trkpt lat="45.93078" lon="4.76481">
        <ele>169</ele>
        <time>2018-05-25T10:15:37Z</time>
      </trkpt>
      <trkpt lat="45.93073" lon="4.76476">
        <ele>169</ele>
        <time>2018-05-25T10:15:38Z</time>
      </trkpt>
      <trkpt lat="45.93069" lon="4.76472">
        <ele>169</ele>
        <time>2018-05-25T10:15:39Z</time>
      </trkpt>
      <trkpt lat="45.93065" lon="4.76467">
        <ele>169</ele>
        <time>2018-05-25T10:15:40Z</time>
      </trkpt>
      <trkpt lat="45.9306" lon="4.76463">
        <ele>169</ele>
        <time>2018-05-25T10:15:41Z</time>
      </trkpt>
      <trkpt lat="45.93055" lon="4.76457">
        <ele>169</ele>
        <time>2018-05-25T10:15:42Z</time>
      </trkpt>
      <trkpt lat="45.93052" lon="4.76451">
        <ele>169</ele>
        <time>2018-05-25T10:15:43Z</time>
      </trkpt>
      <trkpt lat="45.93048" lon="4.76447">
        <ele>169</ele>
        <time>2018-05-25T10:15:44Z</time>
      </trkpt>
      <trkpt lat="45.93041" lon="4.76442">
        <ele>169</ele>
        <time>2018-05-25T10:15:45Z</time>
      </trkpt>
      <trkpt lat="45.93037" lon="4.76438">
        <ele>169</ele>
        <time>2018-05-25T10:15:46Z</time>
      </trkpt>
      <trkpt lat="45.93032" lon="4.76434">
        <ele>169</ele>
        <time>2018-05-25T10:15:47Z</time>
      </trkpt>
      <trkpt lat="45.93028" lon="4.7643">
        <ele>169</ele>
        <time>2018-05-25T10:15:48Z</time>
      </trkpt>
      <trkpt lat="45.93024" lon="4.76426">
        <ele>169</ele>
        <time>2018-05-25T10:15:49Z</time>
      </trkpt>
      <trkpt lat="45.93019" lon="4.7642">
        <ele>169</ele>
        <time>2018-05-25T10:15:50Z</time>
      </trkpt>
      <trkpt lat="45.93014" lon="4.76416">
        <ele>169</ele>
        <time>2018-05-25T10:15:51Z</time>
      </trkpt>
      <trkpt lat="45.93011" lon="4.76412">
        <ele>169</ele>
        <time>2018-05-25T10:15:52Z</time>
      </trkpt>
      <trkpt lat="45.93007" lon="4.76408">
        <ele>169</ele>
        <time>2018-05-25T10:15:53Z</time>
      </trkpt>
      <trkpt lat="45.93002" lon="4.76404">
        <ele>169</ele>
        <time>2018-05-25T10:15:54Z</time>
      </trkpt>
      <trkpt lat="45.92998" lon="4.76398">
        <ele>169</ele>
        <time>2018-05-25T10:15:55Z</time>
      </trkpt>
      <trkpt lat="45.92993" lon="4.76394">
        <ele>169</ele>
        <time>2018-05-25T10:15:56Z</time>
      </trkpt>
      <trkpt lat="45.92986" lon="4.7639">
        <ele>169</ele>
        <time>2018-05-25T10:15:57Z</time>
      </trkpt>
      <trkpt lat="45.92981" lon="4.76385">
        <ele>169</ele>
        <time>2018-05-25T10:15:58Z</time>
      </trkpt>
      <trkpt lat="45.92976" lon="4.76381">
        <ele>169</ele>
        <time>2018-05-25T10:15:59Z</time>
      </trkpt>
      <trkpt lat="45.92972" lon="4.76376">
        <ele>169</ele>
        <time>2018-05-25T10:16:00Z</time>
      </trkpt>
      <trkpt lat="45.92968" lon="4.76371">
        <ele>169</ele>
        <time>2018-05-25T10:16:01Z</time>
      </trkpt>
      <trkpt lat="45.92964" lon="4.76366">
        <ele>169</ele>
        <time>2018-05-25T10:16:02Z</time>
      </trkpt>
      <trkpt lat="45.92958" lon="4.76361">
        <ele>169</ele>
        <time>2018-05-25T10:16:03Z</time>
      </trkpt>
      <trkpt lat="45.9295" lon="4.76356">
        <ele>169</ele>
        <time>2018-05-25T10:16:04Z</time>
      </trkpt>
      <trkpt lat="45.92945" lon="4.76352">
        <ele>169</ele>
        <time>2018-05-25T10:16:05Z</time>
      </trkpt>
      <trkpt lat="45.9294" lon="4.76347">
        <ele>169</ele>
        <time>2018-05-25T10:16:06Z</time>
      </trkpt>
      <trkpt lat="45.92936" lon="4.76342">
        <ele>169</ele>
        <time>2018-05-25T10:16:07Z</time>
      </trkpt>
      <trkpt lat="45.92931" lon="4.76337">
        <ele>169</ele>
        <time>2018-05-25T10:16:08Z</time>
      </trkpt>
      <trkpt lat="45.92926" lon="4.76331">
        <ele>169</ele>
        <time>2018-05-25T10:16:09Z</time>
      </trkpt>
      <trkpt lat="45.92922" lon="4.76326">
        <ele>169</ele>
        <time>2018-05-25T10:16:10Z</time>
      </trkpt>
      <trkpt lat="45.92916" lon="4.76321">
        <ele>169</ele>
        <time>2018-05-25T10:16:11Z</time>
      </trkpt>
      <trkpt lat="45.92909" lon="4.76317">
        <ele>169</ele>
        <time>2018-05-25T10:16:12Z</time>
      </trkpt>
      <trkpt lat="45.92904" lon="4.76313">
        <ele>169</ele>
        <time>2018-05-25T10:16:13Z</time>
      </trkpt>
      <trkpt lat="45.929" lon="4.76308">
        <ele>169</ele>
        <time>2018-05-25T10:16:14Z</time>
      </trkpt>
      <trkpt lat="45.92895" lon="4.76305">
        <ele>169</ele>
        <time>2018-05-25T10:16:15Z</time>
      </trkpt>
      <trkpt lat="45.92892" lon="4.763">
        <ele>169</ele>
        <time>2018-05-25T10:16:16Z</time>
      </trkpt>
      <trkpt lat="45.92888" lon="4.76295">
        <ele>169</ele>
        <time>2018-05-25T10:16:17Z</time>
      </trkpt>
      <trkpt lat="45.92884" lon="4.7629">
        <ele>169</ele>
        <time>2018-05-25T10:16:18Z</time>
      </trkpt>
      <trkpt lat="45.92879" lon="4.76285">
        <ele>169</ele>
        <time>2018-05-25T10:16:19Z</time>
      </trkpt>
      <trkpt lat="45.92873" lon="4.76276">
        <ele>169</ele>
        <time>2018-05-25T10:16:21Z</time>
      </trkpt>
      <trkpt lat="45.92869" lon="4.76271">
        <ele>169</ele>
        <time>2018-05-25T10:16:22Z</time>
      </trkpt>
      <trkpt lat="45.92865" lon="4.76267">
        <ele>169</ele>
        <time>2018-05-25T10:16:23Z</time>
      </trkpt>
      <trkpt lat="45.9286" lon="4.76262">
        <ele>169</ele>
        <time>2018-05-25T10:16:24Z</time>
      </trkpt>
      <trkpt lat="45.92855" lon="4.76259">
        <ele>169</ele>
        <time>2018-05-25T10:16:25Z</time>
      </trkpt>
      <trkpt lat="45.9285" lon="4.76254">
        <ele>169</ele>
        <time>2018-05-25T10:16:26Z</time>
      </trkpt>
      <trkpt lat="45.92843" lon="4.76248">
        <ele>169</ele>
        <time>2018-05-25T10:16:27Z</time>
      </trkpt>
      <trkpt lat="45.92838" lon="4.76244">
        <ele>169</ele>
        <time>2018-05-25T10:16:28Z</time>
      </trkpt>
      <trkpt lat="45.92835" lon="4.76238">
        <ele>169</ele>
        <time>2018-05-25T10:16:29Z</time>
      </trkpt>
      <trkpt lat="45.92832" lon="4.76233">
        <ele>168</ele>
        <time>2018-05-25T10:16:30Z</time>
      </trkpt>
      <trkpt lat="45.92827" lon="4.76228">
        <ele>168</ele>
        <time>2018-05-25T10:16:31Z</time>
      </trkpt>
      <trkpt lat="45.92824" lon="4.76223">
        <ele>168</ele>
        <time>2018-05-25T10:16:32Z</time>
      </trkpt>
      <trkpt lat="45.92818" lon="4.7622">
        <ele>168</ele>
        <time>2018-05-25T10:16:33Z</time>
      </trkpt>
      <trkpt lat="45.92814" lon="4.76216">
        <ele>168</ele>
        <time>2018-05-25T10:16:34Z</time>
      </trkpt>
      <trkpt lat="45.92808" lon="4.76209">
        <ele>168</ele>
        <time>2018-05-25T10:16:36Z</time>
      </trkpt>
      <trkpt lat="45.92805" lon="4.76205">
        <ele>168</ele>
        <time>2018-05-25T10:16:37Z</time>
      </trkpt>
      <trkpt lat="45.92798" lon="4.76197">
        <ele>168</ele>
        <time>2018-05-25T10:16:39Z</time>
      </trkpt>
      <trkpt lat="45.92794" lon="4.76194">
        <ele>168</ele>
        <time>2018-05-25T10:16:40Z</time>
      </trkpt>
      <trkpt lat="45.92789" lon="4.7619">
        <ele>168</ele>
        <time>2018-05-25T10:16:41Z</time>
      </trkpt>
      <trkpt lat="45.92786" lon="4.76186">
        <ele>168</ele>
        <time>2018-05-25T10:16:42Z</time>
      </trkpt>
      <trkpt lat="45.92782" lon="4.76182">
        <ele>168</ele>
        <time>2018-05-25T10:16:43Z</time>
      </trkpt>
      <trkpt lat="45.92777" lon="4.76177">
        <ele>167</ele>
        <time>2018-05-25T10:16:44Z</time>
      </trkpt>
      <trkpt lat="45.92772" lon="4.76173">
        <ele>167</ele>
        <time>2018-05-25T10:16:45Z</time>
      </trkpt>
      <trkpt lat="45.92767" lon="4.76169">
        <ele>167</ele>
        <time>2018-05-25T10:16:46Z</time>
      </trkpt>
      <trkpt lat="45.92761" lon="4.76165">
        <ele>167</ele>
        <time>2018-05-25T10:16:47Z</time>
      </trkpt>
      <trkpt lat="45.92756" lon="4.7616">
        <ele>167</ele>
        <time>2018-05-25T10:16:48Z</time>
      </trkpt>
      <trkpt lat="45.92752" lon="4.76156">
        <ele>167</ele>
        <time>2018-05-25T10:16:49Z</time>
      </trkpt>
      <trkpt lat="45.92747" lon="4.76152">
        <ele>168</ele>
        <time>2018-05-25T10:16:50Z</time>
      </trkpt>
      <trkpt lat="45.92739" lon="4.7615">
        <ele>168</ele>
        <time>2018-05-25T10:16:51Z</time>
      </trkpt>
      <trkpt lat="45.92734" lon="4.76147">
        <ele>168</ele>
        <time>2018-05-25T10:16:52Z</time>
      </trkpt>
      <trkpt lat="45.9273" lon="4.76143">
        <ele>168</ele>
        <time>2018-05-25T10:16:53Z</time>
      </trkpt>
      <trkpt lat="45.92725" lon="4.76139">
        <ele>168</ele>
        <time>2018-05-25T10:16:54Z</time>
      </trkpt>
      <trkpt lat="45.9272" lon="4.76135">
        <ele>168</ele>
        <time>2018-05-25T10:16:55Z</time>
      </trkpt>
      <trkpt lat="45.92715" lon="4.76133">
        <ele>168</ele>
        <time>2018-05-25T10:16:56Z</time>
      </trkpt>
      <trkpt lat="45.92711" lon="4.76129">
        <ele>168</ele>
        <time>2018-05-25T10:16:57Z</time>
      </trkpt>
      <trkpt lat="45.92707" lon="4.76126">
        <ele>169</ele>
        <time>2018-05-25T10:16:58Z</time>
      </trkpt>
      <trkpt lat="45.927" lon="4.7612">
        <ele>169</ele>
        <time>2018-05-25T10:17:00Z</time>
      </trkpt>
      <trkpt lat="45.92696" lon="4.76116">
        <ele>169</ele>
        <time>2018-05-25T10:17:01Z</time>
      </trkpt>
      <trkpt lat="45.9269" lon="4.76109">
        <ele>169</ele>
        <time>2018-05-25T10:17:03Z</time>
      </trkpt>
      <trkpt lat="45.92689" lon="4.76107">
        <ele>169</ele>
        <time>2018-05-25T10:17:04Z</time>
      </trkpt>
      <trkpt lat="45.92683" lon="4.76101">
        <ele>169</ele>
        <time>2018-05-25T10:17:06Z</time>
      </trkpt>
      <trkpt lat="45.9268" lon="4.76098">
        <ele>169</ele>
        <time>2018-05-25T10:17:07Z</time>
      </trkpt>
      <trkpt lat="45.92672" lon="4.76095">
        <ele>169</ele>
        <time>2018-05-25T10:17:09Z</time>
      </trkpt>
      <trkpt lat="45.92669" lon="4.76092">
        <ele>170</ele>
        <time>2018-05-25T10:17:10Z</time>
      </trkpt>
      <trkpt lat="45.92663" lon="4.76088">
        <ele>170</ele>
        <time>2018-05-25T10:17:11Z</time>
      </trkpt>
      <trkpt lat="45.92659" lon="4.76086">
        <ele>170</ele>
        <time>2018-05-25T10:17:12Z</time>
      </trkpt>
      <trkpt lat="45.92653" lon="4.7608">
        <ele>170</ele>
        <time>2018-05-25T10:17:14Z</time>
      </trkpt>
      <trkpt lat="45.9265" lon="4.76077">
        <ele>170</ele>
        <time>2018-05-25T10:17:15Z</time>
      </trkpt>
      <trkpt lat="45.92644" lon="4.76074">
        <ele>170</ele>
        <time>2018-05-25T10:17:17Z</time>
      </trkpt>
      <trkpt lat="45.9264" lon="4.7607">
        <ele>170</ele>
        <time>2018-05-25T10:17:18Z</time>
      </trkpt>
      <trkpt lat="45.92633" lon="4.76065">
        <ele>170</ele>
        <time>2018-05-25T10:17:20Z</time>
      </trkpt>
      <trkpt lat="45.92629" lon="4.76063">
        <ele>170</ele>
        <time>2018-05-25T10:17:21Z</time>
      </trkpt>
      <trkpt lat="45.92622" lon="4.76058">
        <ele>171</ele>
        <time>2018-05-25T10:17:23Z</time>
      </trkpt>
      <trkpt lat="45.92618" lon="4.76055">
        <ele>171</ele>
        <time>2018-05-25T10:17:24Z</time>
      </trkpt>
      <trkpt lat="45.92611" lon="4.7605">
        <ele>171</ele>
        <time>2018-05-25T10:17:26Z</time>
      </trkpt>
      <trkpt lat="45.92607" lon="4.76048">
        <ele>171</ele>
        <time>2018-05-25T10:17:27Z</time>
      </trkpt>
      <trkpt lat="45.92599" lon="4.76043">
        <ele>171</ele>
        <time>2018-05-25T10:17:29Z</time>
      </trkpt>
      <trkpt lat="45.92595" lon="4.76041">
        <ele>171</ele>
        <time>2018-05-25T10:17:30Z</time>
      </trkpt>
      <trkpt lat="45.92589" lon="4.76036">
        <ele>171</ele>
        <time>2018-05-25T10:17:32Z</time>
      </trkpt>
      <trkpt lat="45.92585" lon="4.76034">
        <ele>171</ele>
        <time>2018-05-25T10:17:33Z</time>
      </trkpt>
      <trkpt lat="45.92578" lon="4.7603">
        <ele>172</ele>
        <time>2018-05-25T10:17:35Z</time>
      </trkpt>
      <trkpt lat="45.92574" lon="4.76027">
        <ele>172</ele>
        <time>2018-05-25T10:17:36Z</time>
      </trkpt>
      <trkpt lat="45.92568" lon="4.76023">
        <ele>172</ele>
        <time>2018-05-25T10:17:38Z</time>
      </trkpt>
      <trkpt lat="45.92564" lon="4.76021">
        <ele>172</ele>
        <time>2018-05-25T10:17:39Z</time>
      </trkpt>
      <trkpt lat="45.92557" lon="4.76016">
        <ele>172</ele>
        <time>2018-05-25T10:17:41Z</time>
      </trkpt>
      <trkpt lat="45.92553" lon="4.76013">
        <ele>172</ele>
        <time>2018-05-25T10:17:42Z</time>
      </trkpt>
      <trkpt lat="45.92545" lon="4.76008">
        <ele>172</ele>
        <time>2018-05-25T10:17:44Z</time>
      </trkpt>
      <trkpt lat="45.92541" lon="4.76005">
        <ele>172</ele>
        <time>2018-05-25T10:17:45Z</time>
      </trkpt>
      <trkpt lat="45.92536" lon="4.76003">
        <ele>172</ele>
        <time>2018-05-25T10:17:46Z</time>
      </trkpt>
      <trkpt lat="45.92532" lon="4.75999">
        <ele>172</ele>
        <time>2018-05-25T10:17:47Z</time>
      </trkpt>
      <trkpt lat="45.92527" lon="4.75996">
        <ele>172</ele>
        <time>2018-05-25T10:17:48Z</time>
      </trkpt>
      <trkpt lat="45.92523" lon="4.75993">
        <ele>172</ele>
        <time>2018-05-25T10:17:49Z</time>
      </trkpt>
      <trkpt lat="45.92516" lon="4.75988">
        <ele>172</ele>
        <time>2018-05-25T10:17:51Z</time>
      </trkpt>
      <trkpt lat="45.92512" lon="4.75984">
        <ele>172</ele>
        <time>2018-05-25T10:17:52Z</time>
      </trkpt>
      <trkpt lat="45.92508" lon="4.75981">
        <ele>172</ele>
        <time>2018-05-25T10:17:53Z</time>
      </trkpt>
      <trkpt lat="45.92504" lon="4.75978">
        <ele>172</ele>
        <time>2018-05-25T10:17:54Z</time>
      </trkpt>
      <trkpt lat="45.925" lon="4.75975">
        <ele>172</ele>
        <time>2018-05-25T10:17:55Z</time>
      </trkpt>
      <trkpt lat="45.92494" lon="4.75974">
        <ele>172</ele>
        <time>2018-05-25T10:17:56Z</time>
      </trkpt>
      <trkpt lat="45.92486" lon="4.75969">
        <ele>172</ele>
        <time>2018-05-25T10:17:58Z</time>
      </trkpt>
      <trkpt lat="45.92482" lon="4.75966">
        <ele>172</ele>
        <time>2018-05-25T10:17:59Z</time>
      </trkpt>
      <trkpt lat="45.92477" lon="4.75962">
        <ele>172</ele>
        <time>2018-05-25T10:18:00Z</time>
      </trkpt>
      <trkpt lat="45.92473" lon="4.75959">
        <ele>172</ele>
        <time>2018-05-25T10:18:01Z</time>
      </trkpt>
      <trkpt lat="45.92468" lon="4.75957">
        <ele>172</ele>
        <time>2018-05-25T10:18:02Z</time>
      </trkpt>
      <trkpt lat="45.92463" lon="4.75954">
        <ele>172</ele>
        <time>2018-05-25T10:18:03Z</time>
      </trkpt>
      <trkpt lat="45.92459" lon="4.75951">
        <ele>172</ele>
        <time>2018-05-25T10:18:04Z</time>
      </trkpt>
      <trkpt lat="45.92454" lon="4.75947">
        <ele>172</ele>
        <time>2018-05-25T10:18:05Z</time>
      </trkpt>
      <trkpt lat="45.9245" lon="4.75943">
        <ele>172</ele>
        <time>2018-05-25T10:18:06Z</time>
      </trkpt>
      <trkpt lat="45.92444" lon="4.7594">
        <ele>172</ele>
        <time>2018-05-25T10:18:07Z</time>
      </trkpt>
      <trkpt lat="45.92438" lon="4.75937">
        <ele>172</ele>
        <time>2018-05-25T10:18:08Z</time>
      </trkpt>
      <trkpt lat="45.92433" lon="4.75933">
        <ele>172</ele>
        <time>2018-05-25T10:18:09Z</time>
      </trkpt>
      <trkpt lat="45.92427" lon="4.75929">
        <ele>172</ele>
        <time>2018-05-25T10:18:10Z</time>
      </trkpt>
      <trkpt lat="45.92421" lon="4.75925">
        <ele>172</ele>
        <time>2018-05-25T10:18:11Z</time>
      </trkpt>
      <trkpt lat="45.92415" lon="4.75921">
        <ele>172</ele>
        <time>2018-05-25T10:18:12Z</time>
      </trkpt>
      <trkpt lat="45.92409" lon="4.75916">
        <ele>172</ele>
        <time>2018-05-25T10:18:13Z</time>
      </trkpt>
      <trkpt lat="45.92403" lon="4.75911">
        <ele>172</ele>
        <time>2018-05-25T10:18:14Z</time>
      </trkpt>
      <trkpt lat="45.92398" lon="4.75906">
        <ele>173</ele>
        <time>2018-05-25T10:18:15Z</time>
      </trkpt>
      <trkpt lat="45.92393" lon="4.75901">
        <ele>173</ele>
        <time>2018-05-25T10:18:16Z</time>
      </trkpt>
      <trkpt lat="45.92389" lon="4.75898">
        <ele>173</ele>
        <time>2018-05-25T10:18:17Z</time>
      </trkpt>
      <trkpt lat="45.92384" lon="4.75895">
        <ele>173</ele>
        <time>2018-05-25T10:18:18Z</time>
      </trkpt>
      <trkpt lat="45.92379" lon="4.75891">
        <ele>173</ele>
        <time>2018-05-25T10:18:19Z</time>
      </trkpt>
      <trkpt lat="45.92373" lon="4.75886">
        <ele>173</ele>
        <time>2018-05-25T10:18:20Z</time>
      </trkpt>
      <trkpt lat="45.9237" lon="4.75883">
        <ele>173</ele>
        <time>2018-05-25T10:18:21Z</time>
      </trkpt>
      <trkpt lat="45.92363" lon="4.75878">
        <ele>173</ele>
        <time>2018-05-25T10:18:23Z</time>
      </trkpt>
      <trkpt lat="45.92359" lon="4.75875">
        <ele>173</ele>
        <time>2018-05-25T10:18:24Z</time>
      </trkpt>
      <trkpt lat="45.92354" lon="4.75871">
        <ele>173</ele>
        <time>2018-05-25T10:18:25Z</time>
      </trkpt>
      <trkpt lat="45.92349" lon="4.75868">
        <ele>173</ele>
        <time>2018-05-25T10:18:26Z</time>
      </trkpt>
      <trkpt lat="45.92343" lon="4.75865">
        <ele>173</ele>
        <time>2018-05-25T10:18:27Z</time>
      </trkpt>
      <trkpt lat="45.92338" lon="4.75862">
        <ele>173</ele>
        <time>2018-05-25T10:18:28Z</time>
      </trkpt>
      <trkpt lat="45.92332" lon="4.75859">
        <ele>174</ele>
        <time>2018-05-25T10:18:29Z</time>
      </trkpt>
      <trkpt lat="45.92327" lon="4.75855">
        <ele>174</ele>
        <time>2018-05-25T10:18:30Z</time>
      </trkpt>
      <trkpt lat="45.92321" lon="4.75852">
        <ele>174</ele>
        <time>2018-05-25T10:18:31Z</time>
      </trkpt>
      <trkpt lat="45.92318" lon="4.7585">
        <ele>174</ele>
        <time>2018-05-25T10:18:32Z</time>
      </trkpt>
      <trkpt lat="45.92313" lon="4.75845">
        <ele>174</ele>
        <time>2018-05-25T10:18:34Z</time>
      </trkpt>
      <trkpt lat="45.92306" lon="4.7584">
        <ele>173</ele>
        <time>2018-05-25T10:18:35Z</time>
      </trkpt>
      <trkpt lat="45.92301" lon="4.75837">
        <ele>173</ele>
        <time>2018-05-25T10:18:36Z</time>
      </trkpt>
      <trkpt lat="45.92297" lon="4.75835">
        <ele>173</ele>
        <time>2018-05-25T10:18:37Z</time>
      </trkpt>
      <trkpt lat="45.92293" lon="4.75833">
        <ele>174</ele>
        <time>2018-05-25T10:18:38Z</time>
      </trkpt>
      <trkpt lat="45.92288" lon="4.7583">
        <ele>174</ele>
        <time>2018-05-25T10:18:39Z</time>
      </trkpt>
      <trkpt lat="45.92283" lon="4.75826">
        <ele>174</ele>
        <time>2018-05-25T10:18:40Z</time>
      </trkpt>
      <trkpt lat="45.92278" lon="4.75821">
        <ele>174</ele>
        <time>2018-05-25T10:18:41Z</time>
      </trkpt>
      <trkpt lat="45.92273" lon="4.75816">
        <ele>174</ele>
        <time>2018-05-25T10:18:42Z</time>
      </trkpt>
      <trkpt lat="45.92269" lon="4.75811">
        <ele>174</ele>
        <time>2018-05-25T10:18:43Z</time>
      </trkpt>
      <trkpt lat="45.92266" lon="4.75805">
        <ele>174</ele>
        <time>2018-05-25T10:18:44Z</time>
      </trkpt>
      <trkpt lat="45.92262" lon="4.758">
        <ele>174</ele>
        <time>2018-05-25T10:18:45Z</time>
      </trkpt>
      <trkpt lat="45.9226" lon="4.75794">
        <ele>174</ele>
        <time>2018-05-25T10:18:46Z</time>
      </trkpt>
      <trkpt lat="45.92258" lon="4.75788">
        <ele>174</ele>
        <time>2018-05-25T10:18:47Z</time>
      </trkpt>
      <trkpt lat="45.92256" lon="4.75783">
        <ele>174</ele>
        <time>2018-05-25T10:18:48Z</time>
      </trkpt>
      <trkpt lat="45.92255" lon="4.75776">
        <ele>174</ele>
        <time>2018-05-25T10:18:49Z</time>
      </trkpt>
      <trkpt lat="45.92254" lon="4.75767">
        <ele>174</ele>
        <time>2018-05-25T10:18:50Z</time>
      </trkpt>
      <trkpt lat="45.92252" lon="4.7576">
        <ele>174</ele>
        <time>2018-05-25T10:18:51Z</time>
      </trkpt>
      <trkpt lat="45.92253" lon="4.75753">
        <ele>174</ele>
        <time>2018-05-25T10:18:52Z</time>
      </trkpt>
      <trkpt lat="45.92252" lon="4.75745">
        <ele>174</ele>
        <time>2018-05-25T10:18:53Z</time>
      </trkpt>
      <trkpt lat="45.9225" lon="4.75737">
        <ele>174</ele>
        <time>2018-05-25T10:18:54Z</time>
      </trkpt>
      <trkpt lat="45.92248" lon="4.75729">
        <ele>174</ele>
        <time>2018-05-25T10:18:55Z</time>
      </trkpt>
      <trkpt lat="45.92244" lon="4.75718">
        <ele>174</ele>
        <time>2018-05-25T10:18:57Z</time>
      </trkpt>
      <trkpt lat="45.9224" lon="4.75712">
        <ele>174</ele>
        <time>2018-05-25T10:18:58Z</time>
      </trkpt>
      <trkpt lat="45.92236" lon="4.75706">
        <ele>174</ele>
        <time>2018-05-25T10:18:59Z</time>
      </trkpt>
      <trkpt lat="45.92233" lon="4.75701">
        <ele>174</ele>
        <time>2018-05-25T10:19:00Z</time>
      </trkpt>
      <trkpt lat="45.92229" lon="4.75696">
        <ele>174</ele>
        <time>2018-05-25T10:19:01Z</time>
      </trkpt>
      <trkpt lat="45.92224" lon="4.75692">
        <ele>174</ele>
        <time>2018-05-25T10:19:02Z</time>
      </trkpt>
      <trkpt lat="45.9222" lon="4.75687">
        <ele>174</ele>
        <time>2018-05-25T10:19:03Z</time>
      </trkpt>
      <trkpt lat="45.92216" lon="4.75683">
        <ele>174</ele>
        <time>2018-05-25T10:19:04Z</time>
      </trkpt>
      <trkpt lat="45.92211" lon="4.75678">
        <ele>174</ele>
        <time>2018-05-25T10:19:05Z</time>
      </trkpt>
      <trkpt lat="45.92206" lon="4.75674">
        <ele>174</ele>
        <time>2018-05-25T10:19:06Z</time>
      </trkpt>
      <trkpt lat="45.92201" lon="4.75669">
        <ele>174</ele>
        <time>2018-05-25T10:19:07Z</time>
      </trkpt>
      <trkpt lat="45.92196" lon="4.75665">
        <ele>174</ele>
        <time>2018-05-25T10:19:08Z</time>
      </trkpt>
      <trkpt lat="45.92191" lon="4.7566">
        <ele>174</ele>
        <time>2018-05-25T10:19:09Z</time>
      </trkpt>
      <trkpt lat="45.92187" lon="4.75655">
        <ele>174</ele>
        <time>2018-05-25T10:19:10Z</time>
      </trkpt>
      <trkpt lat="45.92183" lon="4.75649">
        <ele>174</ele>
        <time>2018-05-25T10:19:11Z</time>
      </trkpt>
      <trkpt lat="45.92179" lon="4.75644">
        <ele>174</ele>
        <time>2018-05-25T10:19:12Z</time>
      </trkpt>
      <trkpt lat="45.92174" lon="4.7564">
        <ele>174</ele>
        <time>2018-05-25T10:19:13Z</time>
      </trkpt>
      <trkpt lat="45.9217" lon="4.75635">
        <ele>174</ele>
        <time>2018-05-25T10:19:14Z</time>
      </trkpt>
      <trkpt lat="45.92164" lon="4.75632">
        <ele>174</ele>
        <time>2018-05-25T10:19:15Z</time>
      </trkpt>
      <trkpt lat="45.9216" lon="4.75627">
        <ele>174</ele>
        <time>2018-05-25T10:19:16Z</time>
      </trkpt>
      <trkpt lat="45.92156" lon="4.75623">
        <ele>174</ele>
        <time>2018-05-25T10:19:17Z</time>
      </trkpt>
      <trkpt lat="45.92152" lon="4.75617">
        <ele>174</ele>
        <time>2018-05-25T10:19:18Z</time>
      </trkpt>
      <trkpt lat="45.92147" lon="4.75613">
        <ele>174</ele>
        <time>2018-05-25T10:19:19Z</time>
      </trkpt>
      <trkpt lat="45.92143" lon="4.75608">
        <ele>174</ele>
        <time>2018-05-25T10:19:20Z</time>
      </trkpt>
      <trkpt lat="45.92137" lon="4.75599">
        <ele>174</ele>
        <time>2018-05-25T10:19:22Z</time>
      </trkpt>
      <trkpt lat="45.92131" lon="4.75596">
        <ele>174</ele>
        <time>2018-05-25T10:19:23Z</time>
      </trkpt>
      <trkpt lat="45.92125" lon="4.75591">
        <ele>174</ele>
        <time>2018-05-25T10:19:25Z</time>
      </trkpt>
      <trkpt lat="45.92122" lon="4.75587">
        <ele>174</ele>
        <time>2018-05-25T10:19:26Z</time>
      </trkpt>
      <trkpt lat="45.92117" lon="4.75576">
        <ele>174</ele>
        <time>2018-05-25T10:19:29Z</time>
      </trkpt>
      <trkpt lat="45.92116" lon="4.75574">
        <ele>174</ele>
        <time>2018-05-25T10:19:30Z</time>
      </trkpt>
      <trkpt lat="45.92118" lon="4.75561">
        <ele>174</ele>
        <time>2018-05-25T10:19:32Z</time>
      </trkpt>
      <trkpt lat="45.92122" lon="4.75555">
        <ele>174</ele>
        <time>2018-05-25T10:19:33Z</time>
      </trkpt>
      <trkpt lat="45.92126" lon="4.75548">
        <ele>174</ele>
        <time>2018-05-25T10:19:34Z</time>
      </trkpt>
      <trkpt lat="45.92129" lon="4.75543">
        <ele>174</ele>
        <time>2018-05-25T10:19:35Z</time>
      </trkpt>
      <trkpt lat="45.92132" lon="4.75537">
        <ele>174</ele>
        <time>2018-05-25T10:19:36Z</time>
      </trkpt>
      <trkpt lat="45.92135" lon="4.75531">
        <ele>174</ele>
        <time>2018-05-25T10:19:37Z</time>
      </trkpt>
      <trkpt lat="45.92139" lon="4.75527">
        <ele>174</ele>
        <time>2018-05-25T10:19:38Z</time>
      </trkpt>
      <trkpt lat="45.92143" lon="4.75521">
        <ele>174</ele>
        <time>2018-05-25T10:19:39Z</time>
      </trkpt>
      <trkpt lat="45.92147" lon="4.75515">
        <ele>175</ele>
        <time>2018-05-25T10:19:40Z</time>
      </trkpt>
      <trkpt lat="45.9215" lon="4.75508">
        <ele>175</ele>
        <time>2018-05-25T10:19:41Z</time>
      </trkpt>
      <trkpt lat="45.92152" lon="4.75501">
        <ele>175</ele>
        <time>2018-05-25T10:19:42Z</time>
      </trkpt>
      <trkpt lat="45.92155" lon="4.75496">
        <ele>175</ele>
        <time>2018-05-25T10:19:43Z</time>
      </trkpt>
      <trkpt lat="45.92157" lon="4.75489">
        <ele>175</ele>
        <time>2018-05-25T10:19:44Z</time>
      </trkpt>
      <trkpt lat="45.9216" lon="4.75481">
        <ele>176</ele>
        <time>2018-05-25T10:19:45Z</time>
      </trkpt>
      <trkpt lat="45.92162" lon="4.75473">
        <ele>176</ele>
        <time>2018-05-25T10:19:46Z</time>
      </trkpt>
      <trkpt lat="45.92164" lon="4.75466">
        <ele>176</ele>
        <time>2018-05-25T10:19:47Z</time>
      </trkpt>
      <trkpt lat="45.92167" lon="4.75459">
        <ele>176</ele>
        <time>2018-05-25T10:19:48Z</time>
      </trkpt>
      <trkpt lat="45.92169" lon="4.75452">
        <ele>176</ele>
        <time>2018-05-25T10:19:49Z</time>
      </trkpt>
      <trkpt lat="45.92172" lon="4.75444">
        <ele>176</ele>
        <time>2018-05-25T10:19:50Z</time>
      </trkpt>
      <trkpt lat="45.92176" lon="4.75439">
        <ele>177</ele>
        <time>2018-05-25T10:19:51Z</time>
      </trkpt>
      <trkpt lat="45.92179" lon="4.75431">
        <ele>177</ele>
        <time>2018-05-25T10:19:52Z</time>
      </trkpt>
      <trkpt lat="45.92181" lon="4.75423">
        <ele>177</ele>
        <time>2018-05-25T10:19:53Z</time>
      </trkpt>
      <trkpt lat="45.92183" lon="4.75417">
        <ele>177</ele>
        <time>2018-05-25T10:19:54Z</time>
      </trkpt>
      <trkpt lat="45.92185" lon="4.75411">
        <ele>177</ele>
        <time>2018-05-25T10:19:55Z</time>
      </trkpt>
      <trkpt lat="45.92187" lon="4.75405">
        <ele>177</ele>
        <time>2018-05-25T10:19:56Z</time>
      </trkpt>
      <trkpt lat="45.92189" lon="4.75398">
        <ele>177</ele>
        <time>2018-05-25T10:19:57Z</time>
      </trkpt>
      <trkpt lat="45.92192" lon="4.75386">
        <ele>177</ele>
        <time>2018-05-25T10:19:59Z</time>
      </trkpt>
      <trkpt lat="45.92196" lon="4.75381">
        <ele>177</ele>
        <time>2018-05-25T10:20:00Z</time>
      </trkpt>
      <trkpt lat="45.92199" lon="4.75373">
        <ele>177</ele>
        <time>2018-05-25T10:20:01Z</time>
      </trkpt>
      <trkpt lat="45.92202" lon="4.75367">
        <ele>177</ele>
        <time>2018-05-25T10:20:02Z</time>
      </trkpt>
      <trkpt lat="45.92203" lon="4.7536">
        <ele>177</ele>
        <time>2018-05-25T10:20:03Z</time>
      </trkpt>
      <trkpt lat="45.92205" lon="4.75353">
        <ele>177</ele>
        <time>2018-05-25T10:20:04Z</time>
      </trkpt>
      <trkpt lat="45.92207" lon="4.75346">
        <ele>177</ele>
        <time>2018-05-25T10:20:05Z</time>
      </trkpt>
      <trkpt lat="45.92208" lon="4.75339">
        <ele>177</ele>
        <time>2018-05-25T10:20:06Z</time>
      </trkpt>
      <trkpt lat="45.9221" lon="4.75331">
        <ele>176</ele>
        <time>2018-05-25T10:20:07Z</time>
      </trkpt>
      <trkpt lat="45.92211" lon="4.75323">
        <ele>176</ele>
        <time>2018-05-25T10:20:08Z</time>
      </trkpt>
      <trkpt lat="45.92212" lon="4.75316">
        <ele>176</ele>
        <time>2018-05-25T10:20:09Z</time>
      </trkpt>
      <trkpt lat="45.92212" lon="4.75308">
        <ele>176</ele>
        <time>2018-05-25T10:20:10Z</time>
      </trkpt>
      <trkpt lat="45.92213" lon="4.753">
        <ele>176</ele>
        <time>2018-05-25T10:20:11Z</time>
      </trkpt>
      <trkpt lat="45.92213" lon="4.75291">
        <ele>176</ele>
        <time>2018-05-25T10:20:12Z</time>
      </trkpt>
      <trkpt lat="45.92214" lon="4.75283">
        <ele>176</ele>
        <time>2018-05-25T10:20:13Z</time>
      </trkpt>
      <trkpt lat="45.92214" lon="4.75274">
        <ele>176</ele>
        <time>2018-05-25T10:20:14Z</time>
      </trkpt>
      <trkpt lat="45.92214" lon="4.75266">
        <ele>176</ele>
        <time>2018-05-25T10:20:15Z</time>
      </trkpt>
      <trkpt lat="45.92214" lon="4.75258">
        <ele>175</ele>
        <time>2018-05-25T10:20:16Z</time>
      </trkpt>
      <trkpt lat="45.92214" lon="4.7525">
        <ele>175</ele>
        <time>2018-05-25T10:20:17Z</time>
      </trkpt>
      <trkpt lat="45.92215" lon="4.75241">
        <ele>175</ele>
        <time>2018-05-25T10:20:18Z</time>
      </trkpt>
      <trkpt lat="45.92216" lon="4.75232">
        <ele>175</ele>
        <time>2018-05-25T10:20:19Z</time>
      </trkpt>
      <trkpt lat="45.92216" lon="4.75225">
        <ele>175</ele>
        <time>2018-05-25T10:20:20Z</time>
      </trkpt>
      <trkpt lat="45.92217" lon="4.75215">
        <ele>175</ele>
        <time>2018-05-25T10:20:21Z</time>
      </trkpt>
      <trkpt lat="45.92218" lon="4.75206">
        <ele>175</ele>
        <time>2018-05-25T10:20:22Z</time>
      </trkpt>
      <trkpt lat="45.9222" lon="4.75198">
        <ele>175</ele>
        <time>2018-05-25T10:20:23Z</time>
      </trkpt>
      <trkpt lat="45.92223" lon="4.75188">
        <ele>175</ele>
        <time>2018-05-25T10:20:24Z</time>
      </trkpt>
      <trkpt lat="45.92225" lon="4.75179">
        <ele>175</ele>
        <time>2018-05-25T10:20:25Z</time>
      </trkpt>
      <trkpt lat="45.92228" lon="4.7517">
        <ele>175</ele>
        <time>2018-05-25T10:20:26Z</time>
      </trkpt>
      <trkpt lat="45.92232" lon="4.75161">
        <ele>174</ele>
        <time>2018-05-25T10:20:27Z</time>
      </trkpt>
      <trkpt lat="45.92235" lon="4.75153">
        <ele>174</ele>
        <time>2018-05-25T10:20:28Z</time>
      </trkpt>
      <trkpt lat="45.9224" lon="4.75145">
        <ele>174</ele>
        <time>2018-05-25T10:20:29Z</time>
      </trkpt>
      <trkpt lat="45.92244" lon="4.75139">
        <ele>174</ele>
        <time>2018-05-25T10:20:30Z</time>
      </trkpt>
      <trkpt lat="45.92248" lon="4.75133">
        <ele>174</ele>
        <time>2018-05-25T10:20:31Z</time>
      </trkpt>
      <trkpt lat="45.92252" lon="4.75129">
        <ele>174</ele>
        <time>2018-05-25T10:20:32Z</time>
      </trkpt>
      <trkpt lat="45.92257" lon="4.75124">
        <ele>174</ele>
        <time>2018-05-25T10:20:33Z</time>
      </trkpt>
      <trkpt lat="45.92261" lon="4.75119">
        <ele>174</ele>
        <time>2018-05-25T10:20:34Z</time>
      </trkpt>
      <trkpt lat="45.92265" lon="4.75118">
        <ele>174</ele>
        <time>2018-05-25T10:20:35Z</time>
      </trkpt>
      <trkpt lat="45.9227" lon="4.7511">
        <ele>174</ele>
        <time>2018-05-25T10:20:36Z</time>
      </trkpt>
      <trkpt lat="45.92275" lon="4.75106">
        <ele>174</ele>
        <time>2018-05-25T10:20:37Z</time>
      </trkpt>
      <trkpt lat="45.92278" lon="4.75102">
        <ele>173</ele>
        <time>2018-05-25T10:20:38Z</time>
      </trkpt>
      <trkpt lat="45.92282" lon="4.75097">
        <ele>173</ele>
        <time>2018-05-25T10:20:39Z</time>
      </trkpt>
      <trkpt lat="45.92288" lon="4.75091">
        <ele>173</ele>
        <time>2018-05-25T10:20:40Z</time>
      </trkpt>
      <trkpt lat="45.92293" lon="4.7509">
        <ele>173</ele>
        <time>2018-05-25T10:20:41Z</time>
      </trkpt>
      <trkpt lat="45.92299" lon="4.75084">
        <ele>173</ele>
        <time>2018-05-25T10:20:42Z</time>
      </trkpt>
      <trkpt lat="45.92301" lon="4.75079">
        <ele>172</ele>
        <time>2018-05-25T10:20:43Z</time>
      </trkpt>
      <trkpt lat="45.92305" lon="4.75072">
        <ele>172</ele>
        <time>2018-05-25T10:20:44Z</time>
      </trkpt>
      <trkpt lat="45.92308" lon="4.75067">
        <ele>172</ele>
        <time>2018-05-25T10:20:45Z</time>
      </trkpt>
      <trkpt lat="45.92313" lon="4.7506">
        <ele>172</ele>
        <time>2018-05-25T10:20:46Z</time>
      </trkpt>
      <trkpt lat="45.92318" lon="4.7505">
        <ele>172</ele>
        <time>2018-05-25T10:20:47Z</time>
      </trkpt>
      <trkpt lat="45.92323" lon="4.75043">
        <ele>172</ele>
        <time>2018-05-25T10:20:48Z</time>
      </trkpt>
      <trkpt lat="45.92326" lon="4.75035">
        <ele>171</ele>
        <time>2018-05-25T10:20:49Z</time>
      </trkpt>
      <trkpt lat="45.9233" lon="4.75028">
        <ele>171</ele>
        <time>2018-05-25T10:20:50Z</time>
      </trkpt>
      <trkpt lat="45.92335" lon="4.75021">
        <ele>170</ele>
        <time>2018-05-25T10:20:51Z</time>
      </trkpt>
      <trkpt lat="45.92338" lon="4.75014">
        <ele>170</ele>
        <time>2018-05-25T10:20:52Z</time>
      </trkpt>
      <trkpt lat="45.9234" lon="4.75006">
        <ele>170</ele>
        <time>2018-05-25T10:20:53Z</time>
      </trkpt>
      <trkpt lat="45.92343" lon="4.74999">
        <ele>170</ele>
        <time>2018-05-25T10:20:54Z</time>
      </trkpt>
      <trkpt lat="45.92346" lon="4.74992">
        <ele>170</ele>
        <time>2018-05-25T10:20:55Z</time>
      </trkpt>
      <trkpt lat="45.92349" lon="4.74984">
        <ele>170</ele>
        <time>2018-05-25T10:20:56Z</time>
      </trkpt>
      <trkpt lat="45.92352" lon="4.74977">
        <ele>170</ele>
        <time>2018-05-25T10:20:57Z</time>
      </trkpt>
      <trkpt lat="45.92355" lon="4.7497">
        <ele>170</ele>
        <time>2018-05-25T10:20:58Z</time>
      </trkpt>
      <trkpt lat="45.92358" lon="4.74962">
        <ele>170</ele>
        <time>2018-05-25T10:20:59Z</time>
      </trkpt>
      <trkpt lat="45.9236" lon="4.74954">
        <ele>170</ele>
        <time>2018-05-25T10:21:00Z</time>
      </trkpt>
      <trkpt lat="45.92364" lon="4.74946">
        <ele>170</ele>
        <time>2018-05-25T10:21:01Z</time>
      </trkpt>
      <trkpt lat="45.92367" lon="4.74938">
        <ele>170</ele>
        <time>2018-05-25T10:21:02Z</time>
      </trkpt>
      <trkpt lat="45.92369" lon="4.7493">
        <ele>170</ele>
        <time>2018-05-25T10:21:03Z</time>
      </trkpt>
      <trkpt lat="45.92372" lon="4.74923">
        <ele>170</ele>
        <time>2018-05-25T10:21:04Z</time>
      </trkpt>
      <trkpt lat="45.92374" lon="4.74917">
        <ele>170</ele>
        <time>2018-05-25T10:21:05Z</time>
      </trkpt>
      <trkpt lat="45.92378" lon="4.74908">
        <ele>171</ele>
        <time>2018-05-25T10:21:06Z</time>
      </trkpt>
      <trkpt lat="45.92381" lon="4.749">
        <ele>171</ele>
        <time>2018-05-25T10:21:07Z</time>
      </trkpt>
      <trkpt lat="45.92382" lon="4.74892">
        <ele>171</ele>
        <time>2018-05-25T10:21:08Z</time>
      </trkpt>
      <trkpt lat="45.92385" lon="4.74885">
        <ele>171</ele>
        <time>2018-05-25T10:21:09Z</time>
      </trkpt>
      <trkpt lat="45.92389" lon="4.74874">
        <ele>171</ele>
        <time>2018-05-25T10:21:10Z</time>
      </trkpt>
      <trkpt lat="45.92392" lon="4.74867">
        <ele>171</ele>
        <time>2018-05-25T10:21:11Z</time>
      </trkpt>
      <trkpt lat="45.92394" lon="4.74859">
        <ele>171</ele>
        <time>2018-05-25T10:21:12Z</time>
      </trkpt>
      <trkpt lat="45.92396" lon="4.7485">
        <ele>171</ele>
        <time>2018-05-25T10:21:13Z</time>
      </trkpt>
      <trkpt lat="45.92398" lon="4.74843">
        <ele>171</ele>
        <time>2018-05-25T10:21:14Z</time>
      </trkpt>
      <trkpt lat="45.924" lon="4.74837">
        <ele>171</ele>
        <time>2018-05-25T10:21:15Z</time>
      </trkpt>
      <trkpt lat="45.92402" lon="4.7483">
        <ele>171</ele>
        <time>2018-05-25T10:21:16Z</time>
      </trkpt>
      <trkpt lat="45.92404" lon="4.74823">
        <ele>171</ele>
        <time>2018-05-25T10:21:17Z</time>
      </trkpt>
      <trkpt lat="45.92405" lon="4.74816">
        <ele>171</ele>
        <time>2018-05-25T10:21:18Z</time>
      </trkpt>
      <trkpt lat="45.92408" lon="4.74808">
        <ele>171</ele>
        <time>2018-05-25T10:21:19Z</time>
      </trkpt>
      <trkpt lat="45.92409" lon="4.748">
        <ele>171</ele>
        <time>2018-05-25T10:21:20Z</time>
      </trkpt>
      <trkpt lat="45.92411" lon="4.74793">
        <ele>171</ele>
        <time>2018-05-25T10:21:21Z</time>
      </trkpt>
      <trkpt lat="45.92413" lon="4.74784">
        <ele>171</ele>
        <time>2018-05-25T10:21:22Z</time>
      </trkpt>
      <trkpt lat="45.92415" lon="4.74776">
        <ele>171</ele>
        <time>2018-05-25T10:21:23Z</time>
      </trkpt>
      <trkpt lat="45.92416" lon="4.74766">
        <ele>172</ele>
        <time>2018-05-25T10:21:24Z</time>
      </trkpt>
      <trkpt lat="45.92418" lon="4.74758">
        <ele>172</ele>
        <time>2018-05-25T10:21:25Z</time>
      </trkpt>
      <trkpt lat="45.92421" lon="4.74749">
        <ele>172</ele>
        <time>2018-05-25T10:21:26Z</time>
      </trkpt>
      <trkpt lat="45.92423" lon="4.74741">
        <ele>172</ele>
        <time>2018-05-25T10:21:27Z</time>
      </trkpt>
      <trkpt lat="45.92425" lon="4.74735">
        <ele>171</ele>
        <time>2018-05-25T10:21:28Z</time>
      </trkpt>
      <trkpt lat="45.92428" lon="4.74727">
        <ele>171</ele>
        <time>2018-05-25T10:21:29Z</time>
      </trkpt>
      <trkpt lat="45.92431" lon="4.7472">
        <ele>171</ele>
        <time>2018-05-25T10:21:30Z</time>
      </trkpt>
      <trkpt lat="45.92433" lon="4.74713">
        <ele>171</ele>
        <time>2018-05-25T10:21:31Z</time>
      </trkpt>
      <trkpt lat="45.92436" lon="4.74707">
        <ele>171</ele>
        <time>2018-05-25T10:21:32Z</time>
      </trkpt>
      <trkpt lat="45.92439" lon="4.747">
        <ele>171</ele>
        <time>2018-05-25T10:21:33Z</time>
      </trkpt>
      <trkpt lat="45.92442" lon="4.74693">
        <ele>171</ele>
        <time>2018-05-25T10:21:34Z</time>
      </trkpt>
      <trkpt lat="45.92444" lon="4.74684">
        <ele>171</ele>
        <time>2018-05-25T10:21:35Z</time>
      </trkpt>
      <trkpt lat="45.92448" lon="4.74678">
        <ele>171</ele>
        <time>2018-05-25T10:21:36Z</time>
      </trkpt>
      <trkpt lat="45.92452" lon="4.74668">
        <ele>171</ele>
        <time>2018-05-25T10:21:38Z</time>
      </trkpt>
      <trkpt lat="45.92456" lon="4.74662">
        <ele>171</ele>
        <time>2018-05-25T10:21:39Z</time>
      </trkpt>
      <trkpt lat="45.9246" lon="4.74656">
        <ele>171</ele>
        <time>2018-05-25T10:21:40Z</time>
      </trkpt>
      <trkpt lat="45.92463" lon="4.7465">
        <ele>171</ele>
        <time>2018-05-25T10:21:41Z</time>
      </trkpt>
      <trkpt lat="45.92467" lon="4.74643">
        <ele>171</ele>
        <time>2018-05-25T10:21:42Z</time>
      </trkpt>
      <trkpt lat="45.92473" lon="4.74636">
        <ele>171</ele>
        <time>2018-05-25T10:21:43Z</time>
      </trkpt>
      <trkpt lat="45.92478" lon="4.74632">
        <ele>171</ele>
        <time>2018-05-25T10:21:44Z</time>
      </trkpt>
      <trkpt lat="45.92482" lon="4.74626">
        <ele>171</ele>
        <time>2018-05-25T10:21:45Z</time>
      </trkpt>
      <trkpt lat="45.92487" lon="4.74621">
        <ele>171</ele>
        <time>2018-05-25T10:21:46Z</time>
      </trkpt>
      <trkpt lat="45.9249" lon="4.74616">
        <ele>171</ele>
        <time>2018-05-25T10:21:47Z</time>
      </trkpt>
      <trkpt lat="45.92497" lon="4.74608">
        <ele>171</ele>
        <time>2018-05-25T10:21:49Z</time>
      </trkpt>
      <trkpt lat="45.92502" lon="4.74601">
        <ele>171</ele>
        <time>2018-05-25T10:21:50Z</time>
      </trkpt>
      <trkpt lat="45.92507" lon="4.74595">
        <ele>171</ele>
        <time>2018-05-25T10:21:51Z</time>
      </trkpt>
      <trkpt lat="45.92511" lon="4.7459">
        <ele>171</ele>
        <time>2018-05-25T10:21:52Z</time>
      </trkpt>
      <trkpt lat="45.92514" lon="4.74586">
        <ele>171</ele>
        <time>2018-05-25T10:21:53Z</time>
      </trkpt>
      <trkpt lat="45.92519" lon="4.74581">
        <ele>171</ele>
        <time>2018-05-25T10:21:54Z</time>
      </trkpt>
      <trkpt lat="45.92523" lon="4.74576">
        <ele>171</ele>
        <time>2018-05-25T10:21:55Z</time>
      </trkpt>
      <trkpt lat="45.92528" lon="4.7457">
        <ele>171</ele>
        <time>2018-05-25T10:21:56Z</time>
      </trkpt>
      <trkpt lat="45.92532" lon="4.74563">
        <ele>171</ele>
        <time>2018-05-25T10:21:57Z</time>
      </trkpt>
      <trkpt lat="45.92537" lon="4.74557">
        <ele>171</ele>
        <time>2018-05-25T10:21:58Z</time>
      </trkpt>
      <trkpt lat="45.92542" lon="4.74549">
        <ele>170</ele>
        <time>2018-05-25T10:21:59Z</time>
      </trkpt>
      <trkpt lat="45.92547" lon="4.74541">
        <ele>170</ele>
        <time>2018-05-25T10:22:00Z</time>
      </trkpt>
      <trkpt lat="45.9255" lon="4.74535">
        <ele>170</ele>
        <time>2018-05-25T10:22:01Z</time>
      </trkpt>
      <trkpt lat="45.92553" lon="4.74528">
        <ele>170</ele>
        <time>2018-05-25T10:22:02Z</time>
      </trkpt>
      <trkpt lat="45.92557" lon="4.74521">
        <ele>170</ele>
        <time>2018-05-25T10:22:03Z</time>
      </trkpt>
      <trkpt lat="45.92561" lon="4.74515">
        <ele>170</ele>
        <time>2018-05-25T10:22:04Z</time>
      </trkpt>
      <trkpt lat="45.92565" lon="4.74509">
        <ele>170</ele>
        <time>2018-05-25T10:22:05Z</time>
      </trkpt>
      <trkpt lat="45.92569" lon="4.74503">
        <ele>170</ele>
        <time>2018-05-25T10:22:06Z</time>
      </trkpt>
      <trkpt lat="45.92572" lon="4.74496">
        <ele>170</ele>
        <time>2018-05-25T10:22:07Z</time>
      </trkpt>
      <trkpt lat="45.92576" lon="4.74489">
        <ele>170</ele>
        <time>2018-05-25T10:22:08Z</time>
      </trkpt>
      <trkpt lat="45.92579" lon="4.74482">
        <ele>170</ele>
        <time>2018-05-25T10:22:09Z</time>
      </trkpt>
      <trkpt lat="45.92583" lon="4.74476">
        <ele>170</ele>
        <time>2018-05-25T10:22:10Z</time>
      </trkpt>
      <trkpt lat="45.92587" lon="4.74468">
        <ele>170</ele>
        <time>2018-05-25T10:22:11Z</time>
      </trkpt>
      <trkpt lat="45.9259" lon="4.74461">
        <ele>170</ele>
        <time>2018-05-25T10:22:12Z</time>
      </trkpt>
      <trkpt lat="45.92594" lon="4.74454">
        <ele>170</ele>
        <time>2018-05-25T10:22:13Z</time>
      </trkpt>
      <trkpt lat="45.92598" lon="4.74445">
        <ele>170</ele>
        <time>2018-05-25T10:22:14Z</time>
      </trkpt>
      <trkpt lat="45.92601" lon="4.74438">
        <ele>170</ele>
        <time>2018-05-25T10:22:15Z</time>
      </trkpt>
      <trkpt lat="45.92605" lon="4.74432">
        <ele>170</ele>
        <time>2018-05-25T10:22:16Z</time>
      </trkpt>
      <trkpt lat="45.92609" lon="4.74425">
        <ele>170</ele>
        <time>2018-05-25T10:22:17Z</time>
      </trkpt>
      <trkpt lat="45.92614" lon="4.74418">
        <ele>170</ele>
        <time>2018-05-25T10:22:18Z</time>
      </trkpt>
      <trkpt lat="45.92617" lon="4.74413">
        <ele>170</ele>
        <time>2018-05-25T10:22:19Z</time>
      </trkpt>
      <trkpt lat="45.92623" lon="4.74405">
        <ele>170</ele>
        <time>2018-05-25T10:22:20Z</time>
      </trkpt>
      <trkpt lat="45.92626" lon="4.74397">
        <ele>170</ele>
        <time>2018-05-25T10:22:21Z</time>
      </trkpt>
      <trkpt lat="45.9263" lon="4.7439">
        <ele>170</ele>
        <time>2018-05-25T10:22:22Z</time>
      </trkpt>
      <trkpt lat="45.92633" lon="4.74384">
        <ele>170</ele>
        <time>2018-05-25T10:22:23Z</time>
      </trkpt>
      <trkpt lat="45.92635" lon="4.74378">
        <ele>170</ele>
        <time>2018-05-25T10:22:24Z</time>
      </trkpt>
      <trkpt lat="45.92638" lon="4.74373">
        <ele>171</ele>
        <time>2018-05-25T10:22:25Z</time>
      </trkpt>
      <trkpt lat="45.92641" lon="4.74367">
        <ele>171</ele>
        <time>2018-05-25T10:22:26Z</time>
      </trkpt>
      <trkpt lat="45.92645" lon="4.74357">
        <ele>171</ele>
        <time>2018-05-25T10:22:28Z</time>
      </trkpt>
      <trkpt lat="45.92648" lon="4.74351">
        <ele>171</ele>
        <time>2018-05-25T10:22:29Z</time>
      </trkpt>
      <trkpt lat="45.92652" lon="4.74345">
        <ele>171</ele>
        <time>2018-05-25T10:22:30Z</time>
      </trkpt>
      <trkpt lat="45.92656" lon="4.74337">
        <ele>171</ele>
        <time>2018-05-25T10:22:31Z</time>
      </trkpt>
      <trkpt lat="45.92661" lon="4.74326">
        <ele>171</ele>
        <time>2018-05-25T10:22:32Z</time>
      </trkpt>
      <trkpt lat="45.92664" lon="4.7432">
        <ele>171</ele>
        <time>2018-05-25T10:22:33Z</time>
      </trkpt>
      <trkpt lat="45.92669" lon="4.74314">
        <ele>171</ele>
        <time>2018-05-25T10:22:34Z</time>
      </trkpt>
      <trkpt lat="45.92672" lon="4.74308">
        <ele>171</ele>
        <time>2018-05-25T10:22:35Z</time>
      </trkpt>
      <trkpt lat="45.92676" lon="4.74301">
        <ele>171</ele>
        <time>2018-05-25T10:22:36Z</time>
      </trkpt>
      <trkpt lat="45.92679" lon="4.74295">
        <ele>171</ele>
        <time>2018-05-25T10:22:37Z</time>
      </trkpt>
      <trkpt lat="45.92682" lon="4.74289">
        <ele>171</ele>
        <time>2018-05-25T10:22:38Z</time>
      </trkpt>
      <trkpt lat="45.92685" lon="4.74284">
        <ele>171</ele>
        <time>2018-05-25T10:22:39Z</time>
      </trkpt>
      <trkpt lat="45.92688" lon="4.74278">
        <ele>171</ele>
        <time>2018-05-25T10:22:40Z</time>
      </trkpt>
      <trkpt lat="45.92691" lon="4.74271">
        <ele>171</ele>
        <time>2018-05-25T10:22:41Z</time>
      </trkpt>
      <trkpt lat="45.92695" lon="4.74265">
        <ele>171</ele>
        <time>2018-05-25T10:22:42Z</time>
      </trkpt>
      <trkpt lat="45.92699" lon="4.74259">
        <ele>171</ele>
        <time>2018-05-25T10:22:43Z</time>
      </trkpt>
      <trkpt lat="45.92703" lon="4.74253">
        <ele>171</ele>
        <time>2018-05-25T10:22:44Z</time>
      </trkpt>
      <trkpt lat="45.92707" lon="4.74246">
        <ele>171</ele>
        <time>2018-05-25T10:22:45Z</time>
      </trkpt>
      <trkpt lat="45.9271" lon="4.7424">
        <ele>171</ele>
        <time>2018-05-25T10:22:46Z</time>
      </trkpt>
      <trkpt lat="45.92714" lon="4.74235">
        <ele>171</ele>
        <time>2018-05-25T10:22:47Z</time>
      </trkpt>
      <trkpt lat="45.92717" lon="4.74229">
        <ele>171</ele>
        <time>2018-05-25T10:22:48Z</time>
      </trkpt>
      <trkpt lat="45.92723" lon="4.74225">
        <ele>171</ele>
        <time>2018-05-25T10:22:49Z</time>
      </trkpt>
      <trkpt lat="45.92729" lon="4.7422">
        <ele>171</ele>
        <time>2018-05-25T10:22:50Z</time>
      </trkpt>
      <trkpt lat="45.92731" lon="4.74214">
        <ele>171</ele>
        <time>2018-05-25T10:22:51Z</time>
      </trkpt>
      <trkpt lat="45.92735" lon="4.7421">
        <ele>171</ele>
        <time>2018-05-25T10:22:52Z</time>
      </trkpt>
      <trkpt lat="45.92739" lon="4.74204">
        <ele>171</ele>
        <time>2018-05-25T10:22:53Z</time>
      </trkpt>
      <trkpt lat="45.92742" lon="4.74198">
        <ele>171</ele>
        <time>2018-05-25T10:22:54Z</time>
      </trkpt>
      <trkpt lat="45.9275" lon="4.74183">
        <ele>172</ele>
        <time>2018-05-25T10:22:55Z</time>
      </trkpt>
      <trkpt lat="45.92754" lon="4.74178">
        <ele>172</ele>
        <time>2018-05-25T10:22:56Z</time>
      </trkpt>
      <trkpt lat="45.92757" lon="4.74173">
        <ele>172</ele>
        <time>2018-05-25T10:22:57Z</time>
      </trkpt>
      <trkpt lat="45.92762" lon="4.74168">
        <ele>172</ele>
        <time>2018-05-25T10:22:58Z</time>
      </trkpt>
      <trkpt lat="45.92766" lon="4.74165">
        <ele>172</ele>
        <time>2018-05-25T10:22:59Z</time>
      </trkpt>
      <trkpt lat="45.92769" lon="4.7416">
        <ele>172</ele>
        <time>2018-05-25T10:23:00Z</time>
      </trkpt>
      <trkpt lat="45.92773" lon="4.74156">
        <ele>172</ele>
        <time>2018-05-25T10:23:01Z</time>
      </trkpt>
      <trkpt lat="45.92779" lon="4.74147">
        <ele>172</ele>
        <time>2018-05-25T10:23:02Z</time>
      </trkpt>
      <trkpt lat="45.92782" lon="4.74145">
        <ele>172</ele>
        <time>2018-05-25T10:23:03Z</time>
      </trkpt>
      <trkpt lat="45.92789" lon="4.74139">
        <ele>172</ele>
        <time>2018-05-25T10:23:05Z</time>
      </trkpt>
      <trkpt lat="45.92794" lon="4.74132">
        <ele>172</ele>
        <time>2018-05-25T10:23:06Z</time>
      </trkpt>
      <trkpt lat="45.92798" lon="4.74128">
        <ele>172</ele>
        <time>2018-05-25T10:23:07Z</time>
      </trkpt>
      <trkpt lat="45.92803" lon="4.74123">
        <ele>172</ele>
        <time>2018-05-25T10:23:08Z</time>
      </trkpt>
      <trkpt lat="45.92807" lon="4.74117">
        <ele>172</ele>
        <time>2018-05-25T10:23:09Z</time>
      </trkpt>
      <trkpt lat="45.92813" lon="4.74111">
        <ele>172</ele>
        <time>2018-05-25T10:23:10Z</time>
      </trkpt>
      <trkpt lat="45.92818" lon="4.74106">
        <ele>172</ele>
        <time>2018-05-25T10:23:11Z</time>
      </trkpt>
      <trkpt lat="45.92822" lon="4.74103">
        <ele>171</ele>
        <time>2018-05-25T10:23:12Z</time>
      </trkpt>
      <trkpt lat="45.92828" lon="4.74098">
        <ele>171</ele>
        <time>2018-05-25T10:23:13Z</time>
      </trkpt>
      <trkpt lat="45.92833" lon="4.74092">
        <ele>171</ele>
        <time>2018-05-25T10:23:14Z</time>
      </trkpt>
      <trkpt lat="45.92838" lon="4.74087">
        <ele>171</ele>
        <time>2018-05-25T10:23:15Z</time>
      </trkpt>
      <trkpt lat="45.92842" lon="4.74082">
        <ele>171</ele>
        <time>2018-05-25T10:23:16Z</time>
      </trkpt>
      <trkpt lat="45.92847" lon="4.74075">
        <ele>172</ele>
        <time>2018-05-25T10:23:17Z</time>
      </trkpt>
      <trkpt lat="45.92852" lon="4.74069">
        <ele>172</ele>
        <time>2018-05-25T10:23:18Z</time>
      </trkpt>
      <trkpt lat="45.92856" lon="4.74063">
        <ele>172</ele>
        <time>2018-05-25T10:23:19Z</time>
      </trkpt>
      <trkpt lat="45.9286" lon="4.74058">
        <ele>172</ele>
        <time>2018-05-25T10:23:20Z</time>
      </trkpt>
      <trkpt lat="45.92865" lon="4.74054">
        <ele>172</ele>
        <time>2018-05-25T10:23:21Z</time>
      </trkpt>
      <trkpt lat="45.92869" lon="4.7405">
        <ele>172</ele>
        <time>2018-05-25T10:23:22Z</time>
      </trkpt>
      <trkpt lat="45.92873" lon="4.74046">
        <ele>172</ele>
        <time>2018-05-25T10:23:23Z</time>
      </trkpt>
      <trkpt lat="45.92878" lon="4.74043">
        <ele>172</ele>
        <time>2018-05-25T10:23:24Z</time>
      </trkpt>
      <trkpt lat="45.92882" lon="4.74042">
        <ele>172</ele>
        <time>2018-05-25T10:23:25Z</time>
      </trkpt>
      <trkpt lat="45.92887" lon="4.7404">
        <ele>172</ele>
        <time>2018-05-25T10:23:26Z</time>
      </trkpt>
      <trkpt lat="45.92891" lon="4.74041">
        <ele>172</ele>
        <time>2018-05-25T10:23:27Z</time>
      </trkpt>
      <trkpt lat="45.92896" lon="4.74044">
        <ele>172</ele>
        <time>2018-05-25T10:23:28Z</time>
      </trkpt>
      <trkpt lat="45.92901" lon="4.74043">
        <ele>172</ele>
        <time>2018-05-25T10:23:29Z</time>
      </trkpt>
      <trkpt lat="45.92906" lon="4.74041">
        <ele>172</ele>
        <time>2018-05-25T10:23:30Z</time>
      </trkpt>
      <trkpt lat="45.92911" lon="4.74038">
        <ele>172</ele>
        <time>2018-05-25T10:23:31Z</time>
      </trkpt>
      <trkpt lat="45.92915" lon="4.74032">
        <ele>172</ele>
        <time>2018-05-25T10:23:32Z</time>
      </trkpt>
      <trkpt lat="45.92919" lon="4.74024">
        <ele>172</ele>
        <time>2018-05-25T10:23:33Z</time>
      </trkpt>
      <trkpt lat="45.92921" lon="4.74015">
        <ele>172</ele>
        <time>2018-05-25T10:23:34Z</time>
      </trkpt>
      <trkpt lat="45.92922" lon="4.74009">
        <ele>172</ele>
        <time>2018-05-25T10:23:35Z</time>
      </trkpt>
      <trkpt lat="45.92921" lon="4.74002">
        <ele>172</ele>
        <time>2018-05-25T10:23:36Z</time>
      </trkpt>
      <trkpt lat="45.92919" lon="4.73994">
        <ele>172</ele>
        <time>2018-05-25T10:23:37Z</time>
      </trkpt>
      <trkpt lat="45.92915" lon="4.73989">
        <ele>172</ele>
        <time>2018-05-25T10:23:38Z</time>
      </trkpt>
      <trkpt lat="45.92911" lon="4.73985">
        <ele>172</ele>
        <time>2018-05-25T10:23:39Z</time>
      </trkpt>
      <trkpt lat="45.92906" lon="4.73981">
        <ele>172</ele>
        <time>2018-05-25T10:23:40Z</time>
      </trkpt>
      <trkpt lat="45.92901" lon="4.73977">
        <ele>172</ele>
        <time>2018-05-25T10:23:41Z</time>
      </trkpt>
      <trkpt lat="45.92895" lon="4.73972">
        <ele>172</ele>
        <time>2018-05-25T10:23:42Z</time>
      </trkpt>
      <trkpt lat="45.92892" lon="4.73965">
        <ele>172</ele>
        <time>2018-05-25T10:23:43Z</time>
      </trkpt>
      <trkpt lat="45.92891" lon="4.73955">
        <ele>172</ele>
        <time>2018-05-25T10:23:44Z</time>
      </trkpt>
      <trkpt lat="45.92891" lon="4.73946">
        <ele>172</ele>
        <time>2018-05-25T10:23:45Z</time>
      </trkpt>
      <trkpt lat="45.92889" lon="4.73935">
        <ele>172</ele>
        <time>2018-05-25T10:23:46Z</time>
      </trkpt>
      <trkpt lat="45.92888" lon="4.73926">
        <ele>172</ele>
        <time>2018-05-25T10:23:47Z</time>
      </trkpt>
      <trkpt lat="45.92887" lon="4.73916">
        <ele>173</ele>
        <time>2018-05-25T10:23:48Z</time>
      </trkpt>
      <trkpt lat="45.92886" lon="4.73905">
        <ele>173</ele>
        <time>2018-05-25T10:23:49Z</time>
      </trkpt>
      <trkpt lat="45.92885" lon="4.73896">
        <ele>173</ele>
        <time>2018-05-25T10:23:50Z</time>
      </trkpt>
      <trkpt lat="45.92882" lon="4.73886">
        <ele>173</ele>
        <time>2018-05-25T10:23:51Z</time>
      </trkpt>
      <trkpt lat="45.9288" lon="4.73876">
        <ele>173</ele>
        <time>2018-05-25T10:23:52Z</time>
      </trkpt>
      <trkpt lat="45.92878" lon="4.73865">
        <ele>173</ele>
        <time>2018-05-25T10:23:53Z</time>
      </trkpt>
      <trkpt lat="45.92875" lon="4.73856">
        <ele>173</ele>
        <time>2018-05-25T10:23:54Z</time>
      </trkpt>
      <trkpt lat="45.92872" lon="4.73847">
        <ele>173</ele>
        <time>2018-05-25T10:23:55Z</time>
      </trkpt>
      <trkpt lat="45.92871" lon="4.73839">
        <ele>173</ele>
        <time>2018-05-25T10:23:56Z</time>
      </trkpt>
      <trkpt lat="45.92866" lon="4.73828">
        <ele>173</ele>
        <time>2018-05-25T10:23:57Z</time>
      </trkpt>
      <trkpt lat="45.92863" lon="4.73818">
        <ele>173</ele>
        <time>2018-05-25T10:23:58Z</time>
      </trkpt>
      <trkpt lat="45.9286" lon="4.7381">
        <ele>173</ele>
        <time>2018-05-25T10:23:59Z</time>
      </trkpt>
      <trkpt lat="45.92857" lon="4.738">
        <ele>173</ele>
        <time>2018-05-25T10:24:00Z</time>
      </trkpt>
      <trkpt lat="45.92852" lon="4.73795">
        <ele>173</ele>
        <time>2018-05-25T10:24:01Z</time>
      </trkpt>
      <trkpt lat="45.92847" lon="4.73789">
        <ele>173</ele>
        <time>2018-05-25T10:24:02Z</time>
      </trkpt>
      <trkpt lat="45.92843" lon="4.73785">
        <ele>173</ele>
        <time>2018-05-25T10:24:03Z</time>
      </trkpt>
      <trkpt lat="45.92837" lon="4.73782">
        <ele>173</ele>
        <time>2018-05-25T10:24:04Z</time>
      </trkpt>
      <trkpt lat="45.92831" lon="4.73778">
        <ele>173</ele>
        <time>2018-05-25T10:24:05Z</time>
      </trkpt>
      <trkpt lat="45.92826" lon="4.73774">
        <ele>173</ele>
        <time>2018-05-25T10:24:06Z</time>
      </trkpt>
      <trkpt lat="45.92819" lon="4.73767">
        <ele>173</ele>
        <time>2018-05-25T10:24:08Z</time>
      </trkpt>
      <trkpt lat="45.92814" lon="4.73764">
        <ele>173</ele>
        <time>2018-05-25T10:24:09Z</time>
      </trkpt>
      <trkpt lat="45.92806" lon="4.7376">
        <ele>173</ele>
        <time>2018-05-25T10:24:11Z</time>
      </trkpt>
      <trkpt lat="45.92802" lon="4.73758">
        <ele>173</ele>
        <time>2018-05-25T10:24:12Z</time>
      </trkpt>
      <trkpt lat="45.92796" lon="4.73755">
        <ele>173</ele>
        <time>2018-05-25T10:24:13Z</time>
      </trkpt>
      <trkpt lat="45.92792" lon="4.73752">
        <ele>173</ele>
        <time>2018-05-25T10:24:14Z</time>
      </trkpt>
      <trkpt lat="45.92786" lon="4.73745">
        <ele>172</ele>
        <time>2018-05-25T10:24:16Z</time>
      </trkpt>
      <trkpt lat="45.92784" lon="4.73741">
        <ele>172</ele>
        <time>2018-05-25T10:24:17Z</time>
      </trkpt>
      <trkpt lat="45.92778" lon="4.73733">
        <ele>172</ele>
        <time>2018-05-25T10:24:19Z</time>
      </trkpt>
      <trkpt lat="45.92774" lon="4.7373">
        <ele>172</ele>
        <time>2018-05-25T10:24:20Z</time>
      </trkpt>
      <trkpt lat="45.9277" lon="4.73728">
        <ele>172</ele>
        <time>2018-05-25T10:24:21Z</time>
      </trkpt>
      <trkpt lat="45.92765" lon="4.73726">
        <ele>172</ele>
        <time>2018-05-25T10:24:22Z</time>
      </trkpt>
      <trkpt lat="45.92761" lon="4.73725">
        <ele>172</ele>
        <time>2018-05-25T10:24:23Z</time>
      </trkpt>
      <trkpt lat="45.92756" lon="4.73726">
        <ele>172</ele>
        <time>2018-05-25T10:24:24Z</time>
      </trkpt>
      <trkpt lat="45.92749" lon="4.73723">
        <ele>173</ele>
        <time>2018-05-25T10:24:26Z</time>
      </trkpt>
      <trkpt lat="45.92744" lon="4.73722">
        <ele>173</ele>
        <time>2018-05-25T10:24:27Z</time>
      </trkpt>
      <trkpt lat="45.92736" lon="4.73719">
        <ele>173</ele>
        <time>2018-05-25T10:24:29Z</time>
      </trkpt>
      <trkpt lat="45.9273" lon="4.7372">
        <ele>173</ele>
        <time>2018-05-25T10:24:30Z</time>
      </trkpt>
      <trkpt lat="45.92725" lon="4.73719">
        <ele>173</ele>
        <time>2018-05-25T10:24:31Z</time>
      </trkpt>
      <trkpt lat="45.9272" lon="4.73717">
        <ele>173</ele>
        <time>2018-05-25T10:24:32Z</time>
      </trkpt>
      <trkpt lat="45.92715" lon="4.73715">
        <ele>173</ele>
        <time>2018-05-25T10:24:33Z</time>
      </trkpt>
      <trkpt lat="45.9271" lon="4.73714">
        <ele>173</ele>
        <time>2018-05-25T10:24:34Z</time>
      </trkpt>
      <trkpt lat="45.92705" lon="4.73713">
        <ele>173</ele>
        <time>2018-05-25T10:24:35Z</time>
      </trkpt>
      <trkpt lat="45.927" lon="4.73712">
        <ele>173</ele>
        <time>2018-05-25T10:24:36Z</time>
      </trkpt>
      <trkpt lat="45.92692" lon="4.7371">
        <ele>173</ele>
        <time>2018-05-25T10:24:38Z</time>
      </trkpt>
      <trkpt lat="45.92688" lon="4.73709">
        <ele>173</ele>
        <time>2018-05-25T10:24:39Z</time>
      </trkpt>
      <trkpt lat="45.92683" lon="4.73708">
        <ele>173</ele>
        <time>2018-05-25T10:24:40Z</time>
      </trkpt>
      <trkpt lat="45.92677" lon="4.73707">
        <ele>173</ele>
        <time>2018-05-25T10:24:41Z</time>
      </trkpt>
      <trkpt lat="45.92672" lon="4.73704">
        <ele>174</ele>
        <time>2018-05-25T10:24:42Z</time>
      </trkpt>
      <trkpt lat="45.92668" lon="4.73702">
        <ele>174</ele>
        <time>2018-05-25T10:24:43Z</time>
      </trkpt>
      <trkpt lat="45.92663" lon="4.73698">
        <ele>173</ele>
        <time>2018-05-25T10:24:44Z</time>
      </trkpt>
      <trkpt lat="45.92658" lon="4.73695">
        <ele>173</ele>
        <time>2018-05-25T10:24:45Z</time>
      </trkpt>
      <trkpt lat="45.92654" lon="4.73691">
        <ele>173</ele>
        <time>2018-05-25T10:24:46Z</time>
      </trkpt>
      <trkpt lat="45.92651" lon="4.73687">
        <ele>173</ele>
        <time>2018-05-25T10:24:47Z</time>
      </trkpt>
      <trkpt lat="45.92648" lon="4.73682">
        <ele>173</ele>
        <time>2018-05-25T10:24:48Z</time>
      </trkpt>
      <trkpt lat="45.92644" lon="4.73678">
        <ele>173</ele>
        <time>2018-05-25T10:24:49Z</time>
      </trkpt>
      <trkpt lat="45.92641" lon="4.73673">
        <ele>173</ele>
        <time>2018-05-25T10:24:50Z</time>
      </trkpt>
      <trkpt lat="45.92638" lon="4.73668">
        <ele>173</ele>
        <time>2018-05-25T10:24:51Z</time>
      </trkpt>
      <trkpt lat="45.92634" lon="4.73664">
        <ele>173</ele>
        <time>2018-05-25T10:24:52Z</time>
      </trkpt>
      <trkpt lat="45.92632" lon="4.73658">
        <ele>173</ele>
        <time>2018-05-25T10:24:53Z</time>
      </trkpt>
      <trkpt lat="45.92629" lon="4.73652">
        <ele>173</ele>
        <time>2018-05-25T10:24:54Z</time>
      </trkpt>
      <trkpt lat="45.92627" lon="4.73646">
        <ele>173</ele>
        <time>2018-05-25T10:24:55Z</time>
      </trkpt>
      <trkpt lat="45.92623" lon="4.73636">
        <ele>173</ele>
        <time>2018-05-25T10:24:57Z</time>
      </trkpt>
      <trkpt lat="45.92619" lon="4.73632">
        <ele>173</ele>
        <time>2018-05-25T10:24:58Z</time>
      </trkpt>
      <trkpt lat="45.92615" lon="4.73629">
        <ele>173</ele>
        <time>2018-05-25T10:24:59Z</time>
      </trkpt>
      <trkpt lat="45.92611" lon="4.73625">
        <ele>173</ele>
        <time>2018-05-25T10:25:00Z</time>
      </trkpt>
      <trkpt lat="45.92606" lon="4.73623">
        <ele>173</ele>
        <time>2018-05-25T10:25:01Z</time>
      </trkpt>
      <trkpt lat="45.926" lon="4.73622">
        <ele>173</ele>
        <time>2018-05-25T10:25:02Z</time>
      </trkpt>
      <trkpt lat="45.92595" lon="4.73621">
        <ele>173</ele>
        <time>2018-05-25T10:25:03Z</time>
      </trkpt>
      <trkpt lat="45.92587" lon="4.7362">
        <ele>173</ele>
        <time>2018-05-25T10:25:04Z</time>
      </trkpt>
      <trkpt lat="45.92579" lon="4.73621">
        <ele>173</ele>
        <time>2018-05-25T10:25:07Z</time>
      </trkpt>
      <trkpt lat="45.92574" lon="4.73623">
        <ele>173</ele>
        <time>2018-05-25T10:25:08Z</time>
      </trkpt>
      <trkpt lat="45.92569" lon="4.73626">
        <ele>173</ele>
        <time>2018-05-25T10:25:09Z</time>
      </trkpt>
      <trkpt lat="45.92565" lon="4.73627">
        <ele>173</ele>
        <time>2018-05-25T10:25:10Z</time>
      </trkpt>
      <trkpt lat="45.92559" lon="4.73625">
        <ele>173</ele>
        <time>2018-05-25T10:25:11Z</time>
      </trkpt>
      <trkpt lat="45.92555" lon="4.73624">
        <ele>173</ele>
        <time>2018-05-25T10:25:12Z</time>
      </trkpt>
      <trkpt lat="45.92547" lon="4.73627">
        <ele>173</ele>
        <time>2018-05-25T10:25:14Z</time>
      </trkpt>
      <trkpt lat="45.92543" lon="4.73629">
        <ele>173</ele>
        <time>2018-05-25T10:25:15Z</time>
      </trkpt>
      <trkpt lat="45.92535" lon="4.73629">
        <ele>173</ele>
        <time>2018-05-25T10:25:17Z</time>
      </trkpt>
      <trkpt lat="45.9253" lon="4.7363">
        <ele>173</ele>
        <time>2018-05-25T10:25:18Z</time>
      </trkpt>
      <trkpt lat="45.92527" lon="4.73631">
        <ele>173</ele>
        <time>2018-05-25T10:25:19Z</time>
      </trkpt>
      <trkpt lat="45.92521" lon="4.73633">
        <ele>173</ele>
        <time>2018-05-25T10:25:20Z</time>
      </trkpt>
      <trkpt lat="45.92513" lon="4.73637">
        <ele>173</ele>
        <time>2018-05-25T10:25:22Z</time>
      </trkpt>
      <trkpt lat="45.92509" lon="4.73637">
        <ele>174</ele>
        <time>2018-05-25T10:25:23Z</time>
      </trkpt>
      <trkpt lat="45.92504" lon="4.73639">
        <ele>174</ele>
        <time>2018-05-25T10:25:26Z</time>
      </trkpt>
      <trkpt lat="45.92497" lon="4.73639">
        <ele>174</ele>
        <time>2018-05-25T10:25:27Z</time>
      </trkpt>
      <trkpt lat="45.92492" lon="4.73639">
        <ele>174</ele>
        <time>2018-05-25T10:25:29Z</time>
      </trkpt>
      <trkpt lat="45.92485" lon="4.73639">
        <ele>174</ele>
        <time>2018-05-25T10:25:30Z</time>
      </trkpt>
      <trkpt lat="45.92481" lon="4.73639">
        <ele>174</ele>
        <time>2018-05-25T10:25:32Z</time>
      </trkpt>
      <trkpt lat="45.92475" lon="4.7364">
        <ele>174</ele>
        <time>2018-05-25T10:25:33Z</time>
      </trkpt>
      <trkpt lat="45.9247" lon="4.73644">
        <ele>174</ele>
        <time>2018-05-25T10:25:35Z</time>
      </trkpt>
      <trkpt lat="45.92467" lon="4.7365">
        <ele>174</ele>
        <time>2018-05-25T10:25:36Z</time>
      </trkpt>
      <trkpt lat="45.92466" lon="4.73662">
        <ele>174</ele>
        <time>2018-05-25T10:25:38Z</time>
      </trkpt>
      <trkpt lat="45.92466" lon="4.73669">
        <ele>174</ele>
        <time>2018-05-25T10:25:39Z</time>
      </trkpt>
      <trkpt lat="45.92467" lon="4.73681">
        <ele>174</ele>
        <time>2018-05-25T10:25:41Z</time>
      </trkpt>
      <trkpt lat="45.92467" lon="4.73687">
        <ele>174</ele>
        <time>2018-05-25T10:25:42Z</time>
      </trkpt>
      <trkpt lat="45.92466" lon="4.73697">
        <ele>174</ele>
        <time>2018-05-25T10:25:45Z</time>
      </trkpt>
      <trkpt lat="45.92466" lon="4.737">
        <ele>174</ele>
        <time>2018-05-25T10:25:46Z</time>
      </trkpt>
      <trkpt lat="45.92462" lon="4.73711">
        <ele>174</ele>
        <time>2018-05-25T10:26:01Z</time>
      </trkpt>
      <trkpt lat="45.92461" lon="4.73712">
        <ele>174</ele>
        <time>2018-05-25T10:26:02Z</time>
      </trkpt>
      <trkpt lat="45.92457" lon="4.73713">
        <ele>174</ele>
        <time>2018-05-25T10:26:32.339Z</time>
      </trkpt>
    </trkseg>
  </trk>
</gpx>